﻿<?xml version="1.0" encoding="utf-8"?><gpx creator="Garmin Desktop App" version="1.1" xsi:schemaLocation="http://www.topografix.com/GPX/1/1 http://www.topografix.com/GPX/1/1/gpx.xsd http://www.garmin.com/xmlschemas/WaypointExtension/v1 http://www8.garmin.com/xmlschemas/WaypointExtensionv1.xsd http://www.garmin.com/xmlschemas/TrackPointExtension/v1 http://www.garmin.com/xmlschemas/TrackPointExtensionv1.xsd http://www.garmin.com/xmlschemas/GpxExtensions/v3 http://www8.garmin.com/xmlschemas/GpxExtensionsv3.xsd http://www.garmin.com/xmlschemas/ActivityExtension/v1 http://www8.garmin.com/xmlschemas/ActivityExtensionv1.xsd http://www.garmin.com/xmlschemas/AdventuresExtensions/v1 http://www8.garmin.com/xmlschemas/AdventuresExtensionv1.xsd http://www.garmin.com/xmlschemas/PressureExtension/v1 http://www.garmin.com/xmlschemas/PressureExtensionv1.xsd http://www.garmin.com/xmlschemas/TripExtensions/v1 http://www.garmin.com/xmlschemas/TripExtensionsv1.xsd http://www.garmin.com/xmlschemas/TripMetaDataExtensions/v1 http://www.garmin.com/xmlschemas/TripMetaDataExtensionsv1.xsd http://www.garmin.com/xmlschemas/ViaPointTransportationModeExtensions/v1 http://www.garmin.com/xmlschemas/ViaPointTransportationModeExtensionsv1.xsd http://www.garmin.com/xmlschemas/CreationTimeExtension/v1 http://www.garmin.com/xmlschemas/CreationTimeExtensionsv1.xsd http://www.garmin.com/xmlschemas/AccelerationExtension/v1 http://www.garmin.com/xmlschemas/AccelerationExtensionv1.xsd http://www.garmin.com/xmlschemas/PowerExtension/v1 http://www.garmin.com/xmlschemas/PowerExtensionv1.xsd http://www.garmin.com/xmlschemas/VideoExtension/v1 http://www.garmin.com/xmlschemas/VideoExtensionv1.xsd" xmlns="http://www.topografix.com/GPX/1/1" xmlns:xsi="http://www.w3.org/2001/XMLSchema-instance" xmlns:wptx1="http://www.garmin.com/xmlschemas/WaypointExtension/v1" xmlns:gpxtrx="http://www.garmin.com/xmlschemas/GpxExtensions/v3" xmlns:gpxtpx="http://www.garmin.com/xmlschemas/TrackPointExtension/v1" xmlns:gpxx="http://www.garmin.com/xmlschemas/GpxExtensions/v3" xmlns:trp="http://www.garmin.com/xmlschemas/TripExtensions/v1" xmlns:adv="http://www.garmin.com/xmlschemas/AdventuresExtensions/v1" xmlns:prs="http://www.garmin.com/xmlschemas/PressureExtension/v1" xmlns:tmd="http://www.garmin.com/xmlschemas/TripMetaDataExtensions/v1" xmlns:vptm="http://www.garmin.com/xmlschemas/ViaPointTransportationModeExtensions/v1" xmlns:ctx="http://www.garmin.com/xmlschemas/CreationTimeExtension/v1" xmlns:gpxacc="http://www.garmin.com/xmlschemas/AccelerationExtension/v1" xmlns:gpxpx="http://www.garmin.com/xmlschemas/PowerExtension/v1" xmlns:vidx1="http://www.garmin.com/xmlschemas/VideoExtension/v1">

  <metadata>
    <link href="http://www.garmin.com">
      <text>Garmin International</text>
    </link>
    <time>2025-04-24T18:26:14Z</time>
    <bounds maxlat="46.342722969129682" maxlon="5.229792008176446" minlat="45.460806023329496" minlon="3.263408001512289" />
  </metadata>

  <trk>
    <name>250424_G_Track</name>
    <extensions>
      <gpxx:TrackExtension>
        <gpxx:DisplayColor>DarkGray</gpxx:DisplayColor>
      </gpxx:TrackExtension>
    </extensions>
    <trkseg>
      <trkpt lat="46.342722969129682" lon="4.792484985664487">
        <ele>294.30000000000001</ele>
        <time>2025-04-24T06:38:05Z</time>
      </trkpt>
      <trkpt lat="46.342709977179766" lon="4.792751027271152">
        <ele>270.26999999999998</ele>
        <time>2025-04-24T06:38:27Z</time>
      </trkpt>
      <trkpt lat="46.342668989673257" lon="4.792747003957629">
        <ele>269.79000000000002</ele>
        <time>2025-04-24T06:38:28Z</time>
      </trkpt>
      <trkpt lat="46.342629007995129" lon="4.792742980644107">
        <ele>269.79000000000002</ele>
        <time>2025-04-24T06:38:29Z</time>
      </trkpt>
      <trkpt lat="46.342599000781775" lon="4.792713979259133">
        <ele>269.31</ele>
        <time>2025-04-24T06:38:30Z</time>
      </trkpt>
      <trkpt lat="46.342543009668589" lon="4.792655976489186">
        <ele>268.82999999999998</ele>
        <time>2025-04-24T06:38:31Z</time>
      </trkpt>
      <trkpt lat="46.342537980526686" lon="4.792594034224749">
        <ele>268.35000000000002</ele>
        <time>2025-04-24T06:38:32Z</time>
      </trkpt>
      <trkpt lat="46.342533035203815" lon="4.792531002312899">
        <ele>268.35000000000002</ele>
        <time>2025-04-24T06:38:33Z</time>
      </trkpt>
      <trkpt lat="46.342505039647222" lon="4.79216898791492">
        <ele>265.94</ele>
        <time>2025-04-24T06:38:42Z</time>
      </trkpt>
      <trkpt lat="46.342454999685287" lon="4.792098999023438">
        <ele>264.98000000000002</ele>
        <time>2025-04-24T06:38:43Z</time>
      </trkpt>
      <trkpt lat="46.342398002743721" lon="4.792098999023438">
        <ele>264.01999999999998</ele>
        <time>2025-04-24T06:38:44Z</time>
      </trkpt>
      <trkpt lat="46.342317033559084" lon="4.792102016508579">
        <ele>263.06</ele>
        <time>2025-04-24T06:38:45Z</time>
      </trkpt>
      <trkpt lat="46.342234974727035" lon="4.792121965438128">
        <ele>263.06</ele>
        <time>2025-04-24T06:38:46Z</time>
      </trkpt>
      <trkpt lat="46.341325035318732" lon="4.792443998157978">
        <ele>261.62</ele>
        <time>2025-04-24T06:38:54Z</time>
      </trkpt>
      <trkpt lat="46.341023035347462" lon="4.792494960129261">
        <ele>266.89999999999998</ele>
        <time>2025-04-24T06:38:56Z</time>
      </trkpt>
      <trkpt lat="46.340854978188872" lon="4.792503006756306">
        <ele>269.31</ele>
        <time>2025-04-24T06:38:57Z</time>
      </trkpt>
      <trkpt lat="46.340685999020934" lon="4.792484985664487">
        <ele>270.75</ele>
        <time>2025-04-24T06:38:58Z</time>
      </trkpt>
      <trkpt lat="46.339964987710118" lon="4.792346013709903">
        <ele>275.06999999999999</ele>
        <time>2025-04-24T06:39:02Z</time>
      </trkpt>
      <trkpt lat="46.339790979400277" lon="4.792373003438115">
        <ele>275.56</ele>
        <time>2025-04-24T06:39:03Z</time>
      </trkpt>
      <trkpt lat="46.339790979400277" lon="4.792373003438115">
        <ele>275.56</ele>
        <time>2025-04-24T06:39:04Z</time>
      </trkpt>
      <trkpt lat="46.338737960904837" lon="4.792692018672824">
        <ele>279.88</ele>
        <time>2025-04-24T06:39:10Z</time>
      </trkpt>
      <trkpt lat="46.338610975071788" lon="4.792779022827745">
        <ele>281.80000000000001</ele>
        <time>2025-04-24T06:39:11Z</time>
      </trkpt>
      <trkpt lat="46.338481977581978" lon="4.792902991175652">
        <ele>280.83999999999997</ele>
        <time>2025-04-24T06:39:12Z</time>
      </trkpt>
      <trkpt lat="46.338349040597677" lon="4.793043974786997">
        <ele>278.92000000000002</ele>
        <time>2025-04-24T06:39:13Z</time>
      </trkpt>
      <trkpt lat="46.338219959288836" lon="4.793185964226723">
        <ele>277</ele>
        <time>2025-04-24T06:39:14Z</time>
      </trkpt>
      <trkpt lat="46.337126037105918" lon="4.794664029031992">
        <ele>265.94</ele>
        <time>2025-04-24T06:39:23Z</time>
      </trkpt>
      <trkpt lat="46.335830027237535" lon="4.795398032292724">
        <ele>260.64999999999998</ele>
        <time>2025-04-24T06:39:32Z</time>
      </trkpt>
      <trkpt lat="46.334514990448952" lon="4.796241000294685">
        <ele>256.32999999999998</ele>
        <time>2025-04-24T06:39:41Z</time>
      </trkpt>
      <trkpt lat="46.333206994459033" lon="4.796969974413514">
        <ele>252.47999999999999</ele>
        <time>2025-04-24T06:39:50Z</time>
      </trkpt>
      <trkpt lat="46.332052974030375" lon="4.797245990484953">
        <ele>248.16</ele>
        <time>2025-04-24T06:39:59Z</time>
      </trkpt>
      <trkpt lat="46.331925988197327" lon="4.797289995476604">
        <ele>248.16</ele>
        <time>2025-04-24T06:40:00Z</time>
      </trkpt>
      <trkpt lat="46.331801014021039" lon="4.797357972711325">
        <ele>247.68000000000001</ele>
        <time>2025-04-24T06:40:01Z</time>
      </trkpt>
      <trkpt lat="46.331575037911534" lon="4.797577997669578">
        <ele>247.68000000000001</ele>
        <time>2025-04-24T06:40:03Z</time>
      </trkpt>
      <trkpt lat="46.331475041806698" lon="4.797720992937684">
        <ele>247.68000000000001</ele>
        <time>2025-04-24T06:40:04Z</time>
      </trkpt>
      <trkpt lat="46.33137596771121" lon="4.797869017347693">
        <ele>247.68000000000001</ele>
        <time>2025-04-24T06:40:05Z</time>
      </trkpt>
      <trkpt lat="46.331296004354954" lon="4.798042019829154">
        <ele>247.68000000000001</ele>
        <time>2025-04-24T06:40:06Z</time>
      </trkpt>
      <trkpt lat="46.331216040998697" lon="4.798216028138995">
        <ele>248.16</ele>
        <time>2025-04-24T06:40:07Z</time>
      </trkpt>
      <trkpt lat="46.330677000805736" lon="4.799214983358979">
        <ele>249.59999999999999</ele>
        <time>2025-04-24T06:40:13Z</time>
      </trkpt>
      <trkpt lat="46.32965499535203" lon="4.800617024302483">
        <ele>250.56</ele>
        <time>2025-04-24T06:40:23Z</time>
      </trkpt>
      <trkpt lat="46.328856032341719" lon="4.802447967231274">
        <ele>248.63999999999999</ele>
        <time>2025-04-24T06:40:33Z</time>
      </trkpt>
      <trkpt lat="46.328295031562448" lon="4.8035569768399">
        <ele>246.22999999999999</ele>
        <time>2025-04-24T06:40:39Z</time>
      </trkpt>
      <trkpt lat="46.326834987848997" lon="4.805438965559006">
        <ele>239.50999999999999</ele>
        <time>2025-04-24T06:40:51Z</time>
      </trkpt>
      <trkpt lat="46.325640985742211" lon="4.807129008695483">
        <ele>234.22</ele>
        <time>2025-04-24T06:41:01Z</time>
      </trkpt>
      <trkpt lat="46.325526991859078" lon="4.807334030047059">
        <ele>233.74000000000001</ele>
        <time>2025-04-24T06:41:02Z</time>
      </trkpt>
      <trkpt lat="46.325419032946229" lon="4.807506026700139">
        <ele>233.25999999999999</ele>
        <time>2025-04-24T06:41:03Z</time>
      </trkpt>
      <trkpt lat="46.325343009084463" lon="4.80763996951282">
        <ele>233.25999999999999</ele>
        <time>2025-04-24T06:41:04Z</time>
      </trkpt>
      <trkpt lat="46.325257010757923" lon="4.807793023064733">
        <ele>232.78</ele>
        <time>2025-04-24T06:41:05Z</time>
      </trkpt>
      <trkpt lat="46.324702966958284" lon="4.808650994673371">
        <ele>231.81</ele>
        <time>2025-04-24T06:41:13Z</time>
      </trkpt>
      <trkpt lat="46.32426300086081" lon="4.809378040954471">
        <ele>232.30000000000001</ele>
        <time>2025-04-24T06:41:22Z</time>
      </trkpt>
      <trkpt lat="46.323668975383043" lon="4.810423012822866">
        <ele>233.25999999999999</ele>
        <time>2025-04-24T06:41:35Z</time>
      </trkpt>
      <trkpt lat="46.323125995695591" lon="4.811515007168055">
        <ele>231.33000000000001</ele>
        <time>2025-04-24T06:41:46Z</time>
      </trkpt>
      <trkpt lat="46.322729028761387" lon="4.81238798238337">
        <ele>229.41</ele>
        <time>2025-04-24T06:41:55Z</time>
      </trkpt>
      <trkpt lat="46.322081023827195" lon="4.813350979238749">
        <ele>225.56999999999999</ele>
        <time>2025-04-24T06:42:07Z</time>
      </trkpt>
      <trkpt lat="46.321621024981141" lon="4.814179027453065">
        <ele>223.16</ele>
        <time>2025-04-24T06:42:17Z</time>
      </trkpt>
      <trkpt lat="46.321563022211194" lon="4.8143620043993">
        <ele>222.19999999999999</ele>
        <time>2025-04-24T06:42:19Z</time>
      </trkpt>
      <trkpt lat="46.321537960320711" lon="4.814437022432685">
        <ele>221.72</ele>
        <time>2025-04-24T06:42:20Z</time>
      </trkpt>
      <trkpt lat="46.321511976420879" lon="4.814517991617322">
        <ele>221.72</ele>
        <time>2025-04-24T06:42:21Z</time>
      </trkpt>
      <trkpt lat="46.321459002792835" lon="4.81468303129077">
        <ele>220.75999999999999</ele>
        <time>2025-04-24T06:42:23Z</time>
      </trkpt>
      <trkpt lat="46.321433018893003" lon="4.814764000475407">
        <ele>220.75999999999999</ele>
        <time>2025-04-24T06:42:24Z</time>
      </trkpt>
      <trkpt lat="46.321407034993172" lon="4.814843963831663">
        <ele>220.28</ele>
        <time>2025-04-24T06:42:25Z</time>
      </trkpt>
      <trkpt lat="46.320959022268653" lon="4.81586404144764">
        <ele>218.36000000000001</ele>
        <time>2025-04-24T06:42:36Z</time>
      </trkpt>
      <trkpt lat="46.320856008678675" lon="4.816161012277007">
        <ele>217.88</ele>
        <time>2025-04-24T06:42:39Z</time>
      </trkpt>
      <trkpt lat="46.320792976766825" lon="4.816357987001538">
        <ele>217.40000000000001</ele>
        <time>2025-04-24T06:42:41Z</time>
      </trkpt>
      <trkpt lat="46.320592984557152" lon="4.817407988011837">
        <ele>217.40000000000001</ele>
        <time>2025-04-24T06:42:52Z</time>
      </trkpt>
      <trkpt lat="46.320486031472683" lon="4.817799003794789">
        <ele>217.40000000000001</ele>
        <time>2025-04-24T06:42:56Z</time>
      </trkpt>
      <trkpt lat="46.320228036493063" lon="4.818435022607446">
        <ele>215.94999999999999</ele>
        <time>2025-04-24T06:43:03Z</time>
      </trkpt>
      <trkpt lat="46.319738030433655" lon="4.819058971479535">
        <ele>218.84</ele>
        <time>2025-04-24T06:43:12Z</time>
      </trkpt>
      <trkpt lat="46.319683967158198" lon="4.819124015048146">
        <ele>218.84</ele>
        <time>2025-04-24T06:43:13Z</time>
      </trkpt>
      <trkpt lat="46.319629987701774" lon="4.819190986454487">
        <ele>219.31999999999999</ele>
        <time>2025-04-24T06:43:14Z</time>
      </trkpt>
      <trkpt lat="46.318942001089454" lon="4.820093968883157">
        <ele>219.31999999999999</ele>
        <time>2025-04-24T06:43:25Z</time>
      </trkpt>
      <trkpt lat="46.317905997857451" lon="4.821415962651372">
        <ele>218.36000000000001</ele>
        <time>2025-04-24T06:43:37Z</time>
      </trkpt>
      <trkpt lat="46.316780978813767" lon="4.822582975029945">
        <ele>217.40000000000001</ele>
        <time>2025-04-24T06:43:49Z</time>
      </trkpt>
      <trkpt lat="46.316194999963045" lon="4.823199966922402">
        <ele>217.88</ele>
        <time>2025-04-24T06:43:57Z</time>
      </trkpt>
      <trkpt lat="46.315751010552049" lon="4.823654014617205">
        <ele>218.84</ele>
        <time>2025-04-24T06:44:04Z</time>
      </trkpt>
      <trkpt lat="46.31571002304554" lon="4.823695002123714">
        <ele>218.84</ele>
        <time>2025-04-24T06:44:05Z</time>
      </trkpt>
      <trkpt lat="46.315679010003805" lon="4.823726015165448">
        <ele>218.84</ele>
        <time>2025-04-24T06:44:06Z</time>
      </trkpt>
      <trkpt lat="46.315549006685615" lon="4.823834979906678">
        <ele>219.31999999999999</ele>
        <time>2025-04-24T06:44:12Z</time>
      </trkpt>
      <trkpt lat="46.315462002530694" lon="4.823816958814859">
        <ele>219.31999999999999</ele>
        <time>2025-04-24T06:44:13Z</time>
      </trkpt>
      <trkpt lat="46.31543300114572" lon="4.823888037353754">
        <ele>219.31999999999999</ele>
        <time>2025-04-24T06:44:14Z</time>
      </trkpt>
      <trkpt lat="46.315420009195805" lon="4.823920978233218">
        <ele>219.31999999999999</ele>
        <time>2025-04-24T06:44:15Z</time>
      </trkpt>
      <trkpt lat="46.315436018630862" lon="4.824125999584794">
        <ele>219.31999999999999</ele>
        <time>2025-04-24T06:44:16Z</time>
      </trkpt>
      <trkpt lat="46.315392013639212" lon="4.824221972376108">
        <ele>218.36000000000001</ele>
        <time>2025-04-24T06:44:17Z</time>
      </trkpt>
      <trkpt lat="46.315344991162419" lon="4.824332026764751">
        <ele>217.88</ele>
        <time>2025-04-24T06:44:18Z</time>
      </trkpt>
      <trkpt lat="46.314759012311697" lon="4.825910003855825">
        <ele>214.03</ele>
        <time>2025-04-24T06:44:30Z</time>
      </trkpt>
      <trkpt lat="46.314412001520395" lon="4.826666973531246">
        <ele>212.59</ele>
        <time>2025-04-24T06:44:37Z</time>
      </trkpt>
      <trkpt lat="46.314446032047272" lon="4.826842993497849">
        <ele>212.11000000000001</ele>
        <time>2025-04-24T06:44:38Z</time>
      </trkpt>
      <trkpt lat="46.314404038712382" lon="4.826968973502517">
        <ele>212.11000000000001</ele>
        <time>2025-04-24T06:44:39Z</time>
      </trkpt>
      <trkpt lat="46.314031966030598" lon="4.828028026968241">
        <ele>209.69999999999999</ele>
        <time>2025-04-24T06:44:50Z</time>
      </trkpt>
      <trkpt lat="46.314001958817244" lon="4.828110001981258">
        <ele>209.69999999999999</ele>
        <time>2025-04-24T06:44:51Z</time>
      </trkpt>
      <trkpt lat="46.313972035422921" lon="4.828193988651037">
        <ele>209.22</ele>
        <time>2025-04-24T06:44:52Z</time>
      </trkpt>
      <trkpt lat="46.31380096077919" lon="4.82867200858891">
        <ele>205.86000000000001</ele>
        <time>2025-04-24T06:45:01Z</time>
      </trkpt>
      <trkpt lat="46.31380096077919" lon="4.82867200858891">
        <ele>205.86000000000001</ele>
        <time>2025-04-24T06:45:39Z</time>
      </trkpt>
      <trkpt lat="46.313776988536119" lon="4.828743003308773">
        <ele>206.34</ele>
        <time>2025-04-24T06:46:32Z</time>
      </trkpt>
      <trkpt lat="46.313613038510084" lon="4.829168971627951">
        <ele>204.41999999999999</ele>
        <time>2025-04-24T06:46:38Z</time>
      </trkpt>
      <trkpt lat="46.313589988276362" lon="4.829235021024942">
        <ele>204.41999999999999</ele>
        <time>2025-04-24T06:46:39Z</time>
      </trkpt>
      <trkpt lat="46.313414974138141" lon="4.829750005155802">
        <ele>201.05000000000001</ele>
        <time>2025-04-24T06:46:45Z</time>
      </trkpt>
      <trkpt lat="46.313382033258677" lon="4.829847989603877">
        <ele>200.56999999999999</ele>
        <time>2025-04-24T06:46:46Z</time>
      </trkpt>
      <trkpt lat="46.313195032998919" lon="4.830379988998175">
        <ele>197.69</ele>
        <time>2025-04-24T06:46:51Z</time>
      </trkpt>
      <trkpt lat="46.31315597333014" lon="4.830488031730056">
        <ele>197.21000000000001</ele>
        <time>2025-04-24T06:46:52Z</time>
      </trkpt>
      <trkpt lat="46.313092019408941" lon="4.830665979534388">
        <ele>193.84</ele>
        <time>2025-04-24T06:46:58Z</time>
      </trkpt>
      <trkpt lat="46.312987999990582" lon="4.830949036404491">
        <ele>191.44</ele>
        <time>2025-04-24T06:47:05Z</time>
      </trkpt>
      <trkpt lat="46.312889009714127" lon="4.831208037212491">
        <ele>190.96000000000001</ele>
        <time>2025-04-24T06:47:08Z</time>
      </trkpt>
      <trkpt lat="46.31285497918725" lon="4.831297975033522">
        <ele>190.96000000000001</ele>
        <time>2025-04-24T06:47:09Z</time>
      </trkpt>
      <trkpt lat="46.312571000307798" lon="4.831979004666209">
        <ele>190.47999999999999</ele>
        <time>2025-04-24T06:47:18Z</time>
      </trkpt>
      <trkpt lat="46.312521966174245" lon="4.832076989114285">
        <ele>190</ele>
        <time>2025-04-24T06:47:28Z</time>
      </trkpt>
      <trkpt lat="46.312405960634351" lon="4.832298019900918">
        <ele>190.96000000000001</ele>
        <time>2025-04-24T06:48:00Z</time>
      </trkpt>
      <trkpt lat="46.312318034470081" lon="4.832455012947321">
        <ele>190.96000000000001</ele>
        <time>2025-04-24T06:48:02Z</time>
      </trkpt>
      <trkpt lat="46.31216699257493" lon="4.832638995721936">
        <ele>190</ele>
        <time>2025-04-24T06:48:05Z</time>
      </trkpt>
      <trkpt lat="46.312129022553563" lon="4.832681994885206">
        <ele>189.52000000000001</ele>
        <time>2025-04-24T06:48:06Z</time>
      </trkpt>
      <trkpt lat="46.312090968713164" lon="4.832709990441799">
        <ele>189.52000000000001</ele>
        <time>2025-04-24T06:48:07Z</time>
      </trkpt>
      <trkpt lat="46.312050987035036" lon="4.832739997655153">
        <ele>189.03999999999999</ele>
        <time>2025-04-24T06:48:08Z</time>
      </trkpt>
      <trkpt lat="46.312009999528527" lon="4.832771010696888">
        <ele>188.56</ele>
        <time>2025-04-24T06:48:09Z</time>
      </trkpt>
      <trkpt lat="46.311969012022018" lon="4.832802023738623">
        <ele>188.56</ele>
        <time>2025-04-24T06:48:10Z</time>
      </trkpt>
      <trkpt lat="46.311926012858748" lon="4.832833958789706">
        <ele>188.08000000000001</ele>
        <time>2025-04-24T06:48:11Z</time>
      </trkpt>
      <trkpt lat="46.311879996210337" lon="4.832868995144963">
        <ele>187.59</ele>
        <time>2025-04-24T06:48:13Z</time>
      </trkpt>
      <trkpt lat="46.311742030084133" lon="4.832871006801724">
        <ele>187.11000000000001</ele>
        <time>2025-04-24T06:48:14Z</time>
      </trkpt>
      <trkpt lat="46.311729038134217" lon="4.832933032885194">
        <ele>187.11000000000001</ele>
        <time>2025-04-24T06:48:15Z</time>
      </trkpt>
      <trkpt lat="46.311719985678792" lon="4.833069993183017">
        <ele>187.11000000000001</ele>
        <time>2025-04-24T06:48:16Z</time>
      </trkpt>
      <trkpt lat="46.311675980687141" lon="4.833144005388022">
        <ele>186.63</ele>
        <time>2025-04-24T06:48:17Z</time>
      </trkpt>
      <trkpt lat="46.31163096986711" lon="4.833219023421407">
        <ele>185.66999999999999</ele>
        <time>2025-04-24T06:48:18Z</time>
      </trkpt>
      <trkpt lat="46.311572967097163" lon="4.83329001814127">
        <ele>185.19</ele>
        <time>2025-04-24T06:48:19Z</time>
      </trkpt>
      <trkpt lat="46.311511024832726" lon="4.833361012861133">
        <ele>184.71000000000001</ele>
        <time>2025-04-24T06:48:20Z</time>
      </trkpt>
      <trkpt lat="46.311452016234398" lon="4.833429995924234">
        <ele>183.75</ele>
        <time>2025-04-24T06:48:21Z</time>
      </trkpt>
      <trkpt lat="46.310844998806715" lon="4.83412703499198">
        <ele>179.90000000000001</ele>
        <time>2025-04-24T06:48:30Z</time>
      </trkpt>
      <trkpt lat="46.310421964153647" lon="4.834618968889117">
        <ele>177.5</ele>
        <time>2025-04-24T06:48:39Z</time>
      </trkpt>
      <trkpt lat="46.310336971655488" lon="4.834723994135857">
        <ele>176.53999999999999</ele>
        <time>2025-04-24T06:48:42Z</time>
      </trkpt>
      <trkpt lat="46.310301013290882" lon="4.834766993299127">
        <ele>176.53999999999999</ele>
        <time>2025-04-24T06:48:43Z</time>
      </trkpt>
      <trkpt lat="46.310291960835457" lon="4.834777973592281">
        <ele>176.53999999999999</ele>
        <time>2025-04-24T06:48:44Z</time>
      </trkpt>
      <trkpt lat="46.310162963345647" lon="4.834835976362228">
        <ele>176.06</ele>
        <time>2025-04-24T06:48:45Z</time>
      </trkpt>
      <trkpt lat="46.310162963345647" lon="4.834907976910472">
        <ele>176.06</ele>
        <time>2025-04-24T06:48:46Z</time>
      </trkpt>
      <trkpt lat="46.310162963345647" lon="4.83498802408576">
        <ele>176.06</ele>
        <time>2025-04-24T06:48:47Z</time>
      </trkpt>
      <trkpt lat="46.310162963345647" lon="4.834992969408631">
        <ele>175.58000000000001</ele>
        <time>2025-04-24T06:48:48Z</time>
      </trkpt>
      <trkpt lat="46.310264971107244" lon="4.835149962455034">
        <ele>175.09999999999999</ele>
        <time>2025-04-24T06:48:49Z</time>
      </trkpt>
      <trkpt lat="46.310260025784373" lon="4.835220035165548">
        <ele>174.62</ele>
        <time>2025-04-24T06:48:50Z</time>
      </trkpt>
      <trkpt lat="46.31025399081409" lon="4.835295975208283">
        <ele>174.13999999999999</ele>
        <time>2025-04-24T06:48:51Z</time>
      </trkpt>
      <trkpt lat="46.310248961672187" lon="4.835358001291752">
        <ele>173.66</ele>
        <time>2025-04-24T06:48:52Z</time>
      </trkpt>
      <trkpt lat="46.310155000537634" lon="4.835656983777881">
        <ele>170.77000000000001</ele>
        <time>2025-04-24T06:49:00Z</time>
      </trkpt>
      <trkpt lat="46.310115018859506" lon="4.835763014853001">
        <ele>170.28999999999999</ele>
        <time>2025-04-24T06:49:03Z</time>
      </trkpt>
      <trkpt lat="46.310091968625784" lon="4.835820011794567">
        <ele>169.81</ele>
        <time>2025-04-24T06:49:04Z</time>
      </trkpt>
      <trkpt lat="46.310065984725952" lon="4.835882037878037">
        <ele>169.33000000000001</ele>
        <time>2025-04-24T06:49:05Z</time>
      </trkpt>
      <trkpt lat="46.309749986976385" lon="4.836631966754794">
        <ele>166.44999999999999</ele>
        <time>2025-04-24T06:49:14Z</time>
      </trkpt>
      <trkpt lat="46.309705981984735" lon="4.836736992001534">
        <ele>166.44999999999999</ele>
        <time>2025-04-24T06:49:15Z</time>
      </trkpt>
      <trkpt lat="46.30948101170361" lon="4.837368987500668">
        <ele>168.37</ele>
        <time>2025-04-24T06:49:23Z</time>
      </trkpt>
      <trkpt lat="46.309442035853863" lon="4.837491028010845">
        <ele>168.84999999999999</ele>
        <time>2025-04-24T06:49:24Z</time>
      </trkpt>
      <trkpt lat="46.309383027255535" lon="4.837530003860593">
        <ele>168.84999999999999</ele>
        <time>2025-04-24T06:49:25Z</time>
      </trkpt>
      <trkpt lat="46.309273978695273" lon="4.837550958618522">
        <ele>168.84999999999999</ele>
        <time>2025-04-24T06:49:26Z</time>
      </trkpt>
      <trkpt lat="46.309203989803791" lon="4.837526986375451">
        <ele>169.33000000000001</ele>
        <time>2025-04-24T06:49:27Z</time>
      </trkpt>
      <trkpt lat="46.309131989255548" lon="4.837503014132381">
        <ele>169.33000000000001</ele>
        <time>2025-04-24T06:49:28Z</time>
      </trkpt>
      <trkpt lat="46.308908024802804" lon="4.837426990270615">
        <ele>169.81</ele>
        <time>2025-04-24T06:49:31Z</time>
      </trkpt>
      <trkpt lat="46.308819008991122" lon="4.83739597722888">
        <ele>169.81</ele>
        <time>2025-04-24T06:49:32Z</time>
      </trkpt>
      <trkpt lat="46.308722030371428" lon="4.837362030521035">
        <ele>170.28999999999999</ele>
        <time>2025-04-24T06:49:33Z</time>
      </trkpt>
      <trkpt lat="46.30862102843821" lon="4.837325988337398">
        <ele>170.77000000000001</ele>
        <time>2025-04-24T06:49:34Z</time>
      </trkpt>
      <trkpt lat="46.308522960171103" lon="4.837291035801172">
        <ele>171.72999999999999</ele>
        <time>2025-04-24T06:49:35Z</time>
      </trkpt>
      <trkpt lat="46.307832039892673" lon="4.837050978094339">
        <ele>173.66</ele>
        <time>2025-04-24T06:49:42Z</time>
      </trkpt>
      <trkpt lat="46.307729026302695" lon="4.837014013901353">
        <ele>173.66</ele>
        <time>2025-04-24T06:49:43Z</time>
      </trkpt>
      <trkpt lat="46.307334993034601" lon="4.836894990876317">
        <ele>174.13999999999999</ele>
        <time>2025-04-24T06:49:47Z</time>
      </trkpt>
      <trkpt lat="46.30612900480628" lon="4.836452007293701">
        <ele>172.21000000000001</ele>
        <time>2025-04-24T06:49:58Z</time>
      </trkpt>
      <trkpt lat="46.306037977337837" lon="4.83640699647367">
        <ele>172.69</ele>
        <time>2025-04-24T06:49:59Z</time>
      </trkpt>
      <trkpt lat="46.305944016203284" lon="4.836336001753807">
        <ele>172.69</ele>
        <time>2025-04-24T06:50:00Z</time>
      </trkpt>
      <trkpt lat="46.305864974856377" lon="4.836264001205564">
        <ele>173.16999999999999</ele>
        <time>2025-04-24T06:50:01Z</time>
      </trkpt>
      <trkpt lat="46.305794985964894" lon="4.836200969293714">
        <ele>173.66</ele>
        <time>2025-04-24T06:50:02Z</time>
      </trkpt>
      <trkpt lat="46.305516036227345" lon="4.835946997627616">
        <ele>177.02000000000001</ele>
        <time>2025-04-24T06:50:10Z</time>
      </trkpt>
      <trkpt lat="46.305516036227345" lon="4.835946997627616">
        <ele>177.02000000000001</ele>
        <time>2025-04-24T06:50:42Z</time>
      </trkpt>
      <trkpt lat="46.305447975173593" lon="4.835878014564514">
        <ele>178.46000000000001</ele>
        <time>2025-04-24T06:51:09Z</time>
      </trkpt>
      <trkpt lat="46.305406987667084" lon="4.835837027058005">
        <ele>179.41999999999999</ele>
        <time>2025-04-24T06:51:10Z</time>
      </trkpt>
      <trkpt lat="46.305316966027021" lon="4.835820011794567">
        <ele>179.41999999999999</ele>
        <time>2025-04-24T06:51:11Z</time>
      </trkpt>
      <trkpt lat="46.305300034582615" lon="4.835871979594231">
        <ele>179.90000000000001</ele>
        <time>2025-04-24T06:51:12Z</time>
      </trkpt>
      <trkpt lat="46.305271033197641" lon="4.835958983749151">
        <ele>179.90000000000001</ele>
        <time>2025-04-24T06:51:13Z</time>
      </trkpt>
      <trkpt lat="46.305255023762584" lon="4.836007012054324">
        <ele>180.38</ele>
        <time>2025-04-24T06:51:14Z</time>
      </trkpt>
      <trkpt lat="46.30522602237761" lon="4.836092004552484">
        <ele>179.90000000000001</ele>
        <time>2025-04-24T06:51:15Z</time>
      </trkpt>
      <trkpt lat="46.305196015164256" lon="4.836186971515417">
        <ele>179.90000000000001</ele>
        <time>2025-04-24T06:51:16Z</time>
      </trkpt>
      <trkpt lat="46.305128037929535" lon="4.836398027837277">
        <ele>179.90000000000001</ele>
        <time>2025-04-24T06:51:18Z</time>
      </trkpt>
      <trkpt lat="46.304784966632724" lon="4.837680039927363">
        <ele>181.34999999999999</ele>
        <time>2025-04-24T06:51:29Z</time>
      </trkpt>
      <trkpt lat="46.304652029648423" lon="4.838529964908958">
        <ele>179.41999999999999</ele>
        <time>2025-04-24T06:51:36Z</time>
      </trkpt>
      <trkpt lat="46.304658986628056" lon="4.83864102512598">
        <ele>179.41999999999999</ele>
        <time>2025-04-24T06:51:37Z</time>
      </trkpt>
      <trkpt lat="46.304680025205016" lon="4.838764993473887">
        <ele>178.94</ele>
        <time>2025-04-24T06:51:38Z</time>
      </trkpt>
      <trkpt lat="46.304701985791326" lon="4.838897008448839">
        <ele>178.46000000000001</ele>
        <time>2025-04-24T06:51:39Z</time>
      </trkpt>
      <trkpt lat="46.304727969691157" lon="4.839017959311605">
        <ele>178.46000000000001</ele>
        <time>2025-04-24T06:51:40Z</time>
      </trkpt>
      <trkpt lat="46.304782032966614" lon="4.839277965947986">
        <ele>177.97999999999999</ele>
        <time>2025-04-24T06:51:42Z</time>
      </trkpt>
      <trkpt lat="46.30479603074491" lon="4.839521963149309">
        <ele>177.5</ele>
        <time>2025-04-24T06:51:44Z</time>
      </trkpt>
      <trkpt lat="46.304794019088149" lon="4.839619025588036">
        <ele>177.5</ele>
        <time>2025-04-24T06:51:45Z</time>
      </trkpt>
      <trkpt lat="46.304785972461104" lon="4.839709969237447">
        <ele>177.5</ele>
        <time>2025-04-24T06:51:46Z</time>
      </trkpt>
      <trkpt lat="46.304779015481472" lon="4.839795967563987">
        <ele>177.5</ele>
        <time>2025-04-24T06:51:47Z</time>
      </trkpt>
      <trkpt lat="46.304771974682808" lon="4.839889006689191">
        <ele>177.5</ele>
        <time>2025-04-24T06:51:48Z</time>
      </trkpt>
      <trkpt lat="46.304764011874795" lon="4.839987996965647">
        <ele>177.5</ele>
        <time>2025-04-24T06:51:49Z</time>
      </trkpt>
      <trkpt lat="46.304707014933228" lon="4.840677995234728">
        <ele>176.06</ele>
        <time>2025-04-24T06:51:56Z</time>
      </trkpt>
      <trkpt lat="46.304698968306184" lon="4.840777991339564">
        <ele>176.06</ele>
        <time>2025-04-24T06:51:57Z</time>
      </trkpt>
      <trkpt lat="46.304691005498171" lon="4.840873964130878">
        <ele>176.06</ele>
        <time>2025-04-24T06:51:58Z</time>
      </trkpt>
      <trkpt lat="46.304681031033397" lon="4.840956022962928">
        <ele>176.06</ele>
        <time>2025-04-24T06:51:59Z</time>
      </trkpt>
      <trkpt lat="46.304671978577971" lon="4.841031040996313">
        <ele>176.06</ele>
        <time>2025-04-24T06:52:00Z</time>
      </trkpt>
      <trkpt lat="46.304606013000011" lon="4.841104969382286">
        <ele>175.58000000000001</ele>
        <time>2025-04-24T06:52:01Z</time>
      </trkpt>
      <trkpt lat="46.304648006334901" lon="4.841193985193968">
        <ele>175.09999999999999</ele>
        <time>2025-04-24T06:52:02Z</time>
      </trkpt>
      <trkpt lat="46.304619004949927" lon="4.841487016528845">
        <ele>175.09999999999999</ele>
        <time>2025-04-24T06:52:06Z</time>
      </trkpt>
      <trkpt lat="46.304610036313534" lon="4.841577960178256">
        <ele>175.09999999999999</ele>
        <time>2025-04-24T06:52:07Z</time>
      </trkpt>
      <trkpt lat="46.304569970816374" lon="4.841980040073395">
        <ele>174.13999999999999</ele>
        <time>2025-04-24T06:52:11Z</time>
      </trkpt>
      <trkpt lat="46.3045599963516" lon="4.84208095818758">
        <ele>174.13999999999999</ele>
        <time>2025-04-24T06:52:12Z</time>
      </trkpt>
      <trkpt lat="46.304456982761621" lon="4.843231961131096">
        <ele>173.66</ele>
        <time>2025-04-24T06:52:23Z</time>
      </trkpt>
      <trkpt lat="46.304399985820055" lon="4.843920031562448">
        <ele>174.13999999999999</ele>
        <time>2025-04-24T06:52:29Z</time>
      </trkpt>
      <trkpt lat="46.304251961410046" lon="4.845287036150694">
        <ele>173.66</ele>
        <time>2025-04-24T06:52:40Z</time>
      </trkpt>
      <trkpt lat="46.3042370416224" lon="4.8454300314188">
        <ele>174.13999999999999</ele>
        <time>2025-04-24T06:52:41Z</time>
      </trkpt>
      <trkpt lat="46.304111983627081" lon="4.845635974779725">
        <ele>174.62</ele>
        <time>2025-04-24T06:52:42Z</time>
      </trkpt>
      <trkpt lat="46.304041994735599" lon="4.845776036381722">
        <ele>175.58000000000001</ele>
        <time>2025-04-24T06:52:44Z</time>
      </trkpt>
      <trkpt lat="46.304013999179006" lon="4.845926994457841">
        <ele>176.06</ele>
        <time>2025-04-24T06:52:45Z</time>
      </trkpt>
      <trkpt lat="46.304025985300541" lon="4.846021961420775">
        <ele>176.06</ele>
        <time>2025-04-24T06:52:46Z</time>
      </trkpt>
      <trkpt lat="46.304168980568647" lon="4.846353968605399">
        <ele>176.53999999999999</ele>
        <time>2025-04-24T06:52:48Z</time>
      </trkpt>
      <trkpt lat="46.30415003746748" lon="4.846506016328931">
        <ele>177.02000000000001</ele>
        <time>2025-04-24T06:52:49Z</time>
      </trkpt>
      <trkpt lat="46.304136039689183" lon="4.846679018810391">
        <ele>177.5</ele>
        <time>2025-04-24T06:52:50Z</time>
      </trkpt>
      <trkpt lat="46.303977034986019" lon="4.848371995612979">
        <ele>181.83000000000001</ele>
        <time>2025-04-24T06:52:58Z</time>
      </trkpt>
      <trkpt lat="46.303693978115916" lon="4.85146801918745">
        <ele>183.27000000000001</ele>
        <time>2025-04-24T06:53:11Z</time>
      </trkpt>
      <trkpt lat="46.30344201810658" lon="4.854012010619044">
        <ele>178.46000000000001</ele>
        <time>2025-04-24T06:53:20Z</time>
      </trkpt>
      <trkpt lat="46.303172037005424" lon="4.856879962608218">
        <ele>176.06</ele>
        <time>2025-04-24T06:53:30Z</time>
      </trkpt>
      <trkpt lat="46.302934996783733" lon="4.859360000118613">
        <ele>175.09999999999999</ele>
        <time>2025-04-24T06:53:39Z</time>
      </trkpt>
      <trkpt lat="46.302698962390423" lon="4.861836014315486">
        <ele>175.09999999999999</ele>
        <time>2025-04-24T06:53:49Z</time>
      </trkpt>
      <trkpt lat="46.302652023732662" lon="4.862329037860036">
        <ele>175.09999999999999</ele>
        <time>2025-04-24T06:53:51Z</time>
      </trkpt>
      <trkpt lat="46.30262796767056" lon="4.862579992040992">
        <ele>175.09999999999999</ele>
        <time>2025-04-24T06:53:52Z</time>
      </trkpt>
      <trkpt lat="46.302352035418153" lon="4.865393964573741">
        <ele>176.53999999999999</ele>
        <time>2025-04-24T06:54:03Z</time>
      </trkpt>
      <trkpt lat="46.302273999899626" lon="4.86635603941977">
        <ele>176.53999999999999</ele>
        <time>2025-04-24T06:54:09Z</time>
      </trkpt>
      <trkpt lat="46.302185989916325" lon="4.867837959900498">
        <ele>176.06</ele>
        <time>2025-04-24T06:54:18Z</time>
      </trkpt>
      <trkpt lat="46.302141984924674" lon="4.869055012241006">
        <ele>175.09999999999999</ele>
        <time>2025-04-24T06:54:26Z</time>
      </trkpt>
      <trkpt lat="46.302112983539701" lon="4.869470000267029">
        <ele>175.58000000000001</ele>
        <time>2025-04-24T06:54:34Z</time>
      </trkpt>
      <trkpt lat="46.302105020731688" lon="4.869608972221613">
        <ele>177.5</ele>
        <time>2025-04-24T06:55:00Z</time>
      </trkpt>
      <trkpt lat="46.302041988819838" lon="4.87011699937284">
        <ele>179.41999999999999</ele>
        <time>2025-04-24T06:55:07Z</time>
      </trkpt>
      <trkpt lat="46.301902011036873" lon="4.870590995997191">
        <ele>180.87</ele>
        <time>2025-04-24T06:55:12Z</time>
      </trkpt>
      <trkpt lat="46.301864041015506" lon="4.870741032063961">
        <ele>181.34999999999999</ele>
        <time>2025-04-24T06:55:13Z</time>
      </trkpt>
      <trkpt lat="46.301434971392155" lon="4.872215995565057">
        <ele>183.27000000000001</ele>
        <time>2025-04-24T06:55:27Z</time>
      </trkpt>
      <trkpt lat="46.301271021366119" lon="4.87278001382947">
        <ele>183.27000000000001</ele>
        <time>2025-04-24T06:55:32Z</time>
      </trkpt>
      <trkpt lat="46.30092803388834" lon="4.874013997614384">
        <ele>183.27000000000001</ele>
        <time>2025-04-24T06:55:43Z</time>
      </trkpt>
      <trkpt lat="46.300666015595198" lon="4.874980011954904">
        <ele>184.22999999999999</ele>
        <time>2025-04-24T06:55:53Z</time>
      </trkpt>
      <trkpt lat="46.300294026732445" lon="4.876247020438314">
        <ele>184.22999999999999</ele>
        <time>2025-04-24T06:56:04Z</time>
      </trkpt>
      <trkpt lat="46.299801003187895" lon="4.877994982525706">
        <ele>184.71000000000001</ele>
        <time>2025-04-24T06:56:15Z</time>
      </trkpt>
      <trkpt lat="46.299335975199938" lon="4.87957295961678">
        <ele>186.15000000000001</ele>
        <time>2025-04-24T06:56:26Z</time>
      </trkpt>
      <trkpt lat="46.298863990232348" lon="4.88122302107513">
        <ele>186.63</ele>
        <time>2025-04-24T06:56:37Z</time>
      </trkpt>
      <trkpt lat="46.298282034695148" lon="4.883322017267346">
        <ele>188.56</ele>
        <time>2025-04-24T06:56:50Z</time>
      </trkpt>
      <trkpt lat="46.298241969197989" lon="4.883466018363833">
        <ele>189.03999999999999</ele>
        <time>2025-04-24T06:56:51Z</time>
      </trkpt>
      <trkpt lat="46.298202993348241" lon="4.88360901363194">
        <ele>189.52000000000001</ele>
        <time>2025-04-24T06:56:52Z</time>
      </trkpt>
      <trkpt lat="46.297958996146917" lon="4.884538985788822">
        <ele>190.96000000000001</ele>
        <time>2025-04-24T06:57:00Z</time>
      </trkpt>
      <trkpt lat="46.297867968678474" lon="4.884581984952092">
        <ele>191.44</ele>
        <time>2025-04-24T06:57:01Z</time>
      </trkpt>
      <trkpt lat="46.297808038070798" lon="4.884738977998495">
        <ele>191.44</ele>
        <time>2025-04-24T06:57:02Z</time>
      </trkpt>
      <trkpt lat="46.297845002263784" lon="4.884992027655244">
        <ele>191.91999999999999</ele>
        <time>2025-04-24T06:57:04Z</time>
      </trkpt>
      <trkpt lat="46.297445017844439" lon="4.886225005611777">
        <ele>193.84</ele>
        <time>2025-04-24T06:57:11Z</time>
      </trkpt>
      <trkpt lat="46.29693397320807" lon="4.8880560323596">
        <ele>196.72999999999999</ele>
        <time>2025-04-24T06:57:20Z</time>
      </trkpt>
      <trkpt lat="46.29637598991394" lon="4.889974985271692">
        <ele>203.94</ele>
        <time>2025-04-24T06:57:31Z</time>
      </trkpt>
      <trkpt lat="46.29570996388793" lon="4.891575006768107">
        <ele>204.41999999999999</ele>
        <time>2025-04-24T06:57:41Z</time>
      </trkpt>
      <trkpt lat="46.295092971995473" lon="4.892845032736659">
        <ele>205.38</ele>
        <time>2025-04-24T06:57:50Z</time>
      </trkpt>
      <trkpt lat="46.295034969225526" lon="4.892946034669876">
        <ele>205.38</ele>
        <time>2025-04-24T06:57:51Z</time>
      </trkpt>
      <trkpt lat="46.294981995597482" lon="4.89304200746119">
        <ele>205.38</ele>
        <time>2025-04-24T06:57:52Z</time>
      </trkpt>
      <trkpt lat="46.294863978400826" lon="4.893057011067867">
        <ele>205.38</ele>
        <time>2025-04-24T06:57:53Z</time>
      </trkpt>
      <trkpt lat="46.294808993116021" lon="4.893089029937983">
        <ele>205.38</ele>
        <time>2025-04-24T06:57:54Z</time>
      </trkpt>
      <trkpt lat="46.294703967869282" lon="4.893177961930633">
        <ele>205.38</ele>
        <time>2025-04-24T06:57:55Z</time>
      </trkpt>
      <trkpt lat="46.294674966484308" lon="4.893283993005753">
        <ele>205.38</ele>
        <time>2025-04-24T06:57:56Z</time>
      </trkpt>
      <trkpt lat="46.294648982584476" lon="4.893378959968686">
        <ele>205.38</ele>
        <time>2025-04-24T06:57:57Z</time>
      </trkpt>
      <trkpt lat="46.294689970090985" lon="4.893541987985373">
        <ele>205.38</ele>
        <time>2025-04-24T06:57:58Z</time>
      </trkpt>
      <trkpt lat="46.294719977304339" lon="4.893760001286864">
        <ele>205.38</ele>
        <time>2025-04-24T06:57:59Z</time>
      </trkpt>
      <trkpt lat="46.29465501755476" lon="4.893872989341617">
        <ele>205.38</ele>
        <time>2025-04-24T06:58:00Z</time>
      </trkpt>
      <trkpt lat="46.294586034491658" lon="4.894005004316568">
        <ele>205.38</ele>
        <time>2025-04-24T06:58:01Z</time>
      </trkpt>
      <trkpt lat="46.294518979266286" lon="4.894160991534591">
        <ele>205.38</ele>
        <time>2025-04-24T06:58:02Z</time>
      </trkpt>
      <trkpt lat="46.293895030394197" lon="4.895694041624665">
        <ele>203.94</ele>
        <time>2025-04-24T06:58:12Z</time>
      </trkpt>
      <trkpt lat="46.293748011812568" lon="4.895761013031006">
        <ele>203.94</ele>
        <time>2025-04-24T06:58:13Z</time>
      </trkpt>
      <trkpt lat="46.293598981574178" lon="4.895855979993939">
        <ele>203.46000000000001</ele>
        <time>2025-04-24T06:58:15Z</time>
      </trkpt>
      <trkpt lat="46.293529998511076" lon="4.896010961383581">
        <ele>203.46000000000001</ele>
        <time>2025-04-24T06:58:16Z</time>
      </trkpt>
      <trkpt lat="46.293511977419257" lon="4.896082961931825">
        <ele>203.46000000000001</ele>
        <time>2025-04-24T06:58:17Z</time>
      </trkpt>
      <trkpt lat="46.293554976582527" lon="4.896254958584905">
        <ele>203.46000000000001</ele>
        <time>2025-04-24T06:58:18Z</time>
      </trkpt>
      <trkpt lat="46.293590012937784" lon="4.896494010463357">
        <ele>202.97999999999999</ele>
        <time>2025-04-24T06:58:19Z</time>
      </trkpt>
      <trkpt lat="46.293534021824598" lon="4.896618984639645">
        <ele>202.97999999999999</ele>
        <time>2025-04-24T06:58:20Z</time>
      </trkpt>
      <trkpt lat="46.293470989912748" lon="4.896755022928119">
        <ele>202.97999999999999</ele>
        <time>2025-04-24T06:58:21Z</time>
      </trkpt>
      <trkpt lat="46.293404018506408" lon="4.896902963519096">
        <ele>202.97999999999999</ele>
        <time>2025-04-24T06:58:22Z</time>
      </trkpt>
      <trkpt lat="46.292674960568547" lon="4.8985640052706">
        <ele>204.90000000000001</ele>
        <time>2025-04-24T06:58:31Z</time>
      </trkpt>
      <trkpt lat="46.291953027248383" lon="4.900180958211422">
        <ele>208.25999999999999</ele>
        <time>2025-04-24T06:58:38Z</time>
      </trkpt>
      <trkpt lat="46.291844984516501" lon="4.900422021746635">
        <ele>208.74000000000001</ele>
        <time>2025-04-24T06:58:39Z</time>
      </trkpt>
      <trkpt lat="46.291028000414371" lon="4.902271991595626">
        <ele>211.15000000000001</ele>
        <time>2025-04-24T06:58:47Z</time>
      </trkpt>
      <trkpt lat="46.290934961289167" lon="4.902504002675414">
        <ele>211.15000000000001</ele>
        <time>2025-04-24T06:58:48Z</time>
      </trkpt>
      <trkpt lat="46.290730023756623" lon="4.90294698625803">
        <ele>210.66999999999999</ele>
        <time>2025-04-24T06:58:50Z</time>
      </trkpt>
      <trkpt lat="46.290629021823406" lon="4.903167011216283">
        <ele>210.66999999999999</ele>
        <time>2025-04-24T06:58:51Z</time>
      </trkpt>
      <trkpt lat="46.289940029382706" lon="4.905345970764756">
        <ele>208.25999999999999</ele>
        <time>2025-04-24T06:59:00Z</time>
      </trkpt>
      <trkpt lat="46.289682034403086" lon="4.907771022990346">
        <ele>209.22</ele>
        <time>2025-04-24T06:59:09Z</time>
      </trkpt>
      <trkpt lat="46.289486987516284" lon="4.909802963957191">
        <ele>208.25999999999999</ele>
        <time>2025-04-24T06:59:17Z</time>
      </trkpt>
      <trkpt lat="46.28932798281312" lon="4.911382030695677">
        <ele>210.19</ele>
        <time>2025-04-24T06:59:25Z</time>
      </trkpt>
      <trkpt lat="46.289317002519965" lon="4.911503987386823">
        <ele>210.66999999999999</ele>
        <time>2025-04-24T06:59:26Z</time>
      </trkpt>
      <trkpt lat="46.289304010570049" lon="4.911639019846916">
        <ele>211.15000000000001</ele>
        <time>2025-04-24T06:59:27Z</time>
      </trkpt>
      <trkpt lat="46.289267968386412" lon="4.91201201453805">
        <ele>211.63</ele>
        <time>2025-04-24T06:59:32Z</time>
      </trkpt>
      <trkpt lat="46.289135031402111" lon="4.912179987877607">
        <ele>212.11000000000001</ele>
        <time>2025-04-24T06:59:34Z</time>
      </trkpt>
      <trkpt lat="46.289135031402111" lon="4.912289036437869">
        <ele>212.11000000000001</ele>
        <time>2025-04-24T06:59:35Z</time>
      </trkpt>
      <trkpt lat="46.289135031402111" lon="4.912326000630856">
        <ele>212.59</ele>
        <time>2025-04-24T06:59:36Z</time>
      </trkpt>
      <trkpt lat="46.289212983101606" lon="4.91254803724587">
        <ele>212.59</ele>
        <time>2025-04-24T06:59:37Z</time>
      </trkpt>
      <trkpt lat="46.289203008636832" lon="4.912692960351706">
        <ele>213.06999999999999</ele>
        <time>2025-04-24T06:59:38Z</time>
      </trkpt>
      <trkpt lat="46.289194040000439" lon="4.912846013903618">
        <ele>213.06999999999999</ele>
        <time>2025-04-24T06:59:39Z</time>
      </trkpt>
      <trkpt lat="46.289039980620146" lon="4.91444100625813">
        <ele>213.06999999999999</ele>
        <time>2025-04-24T06:59:48Z</time>
      </trkpt>
      <trkpt lat="46.288914000615478" lon="4.915772974491119">
        <ele>212.59</ele>
        <time>2025-04-24T06:59:55Z</time>
      </trkpt>
      <trkpt lat="46.288763964548707" lon="4.916836973279715">
        <ele>212.11000000000001</ele>
        <time>2025-04-24T07:00:00Z</time>
      </trkpt>
      <trkpt lat="46.288072960451245" lon="4.919323967769742">
        <ele>205.38</ele>
        <time>2025-04-24T07:00:13Z</time>
      </trkpt>
      <trkpt lat="46.287941029295325" lon="4.9197699688375">
        <ele>204.90000000000001</ele>
        <time>2025-04-24T07:00:16Z</time>
      </trkpt>
      <trkpt lat="46.287803985178471" lon="4.919857978820801">
        <ele>204.90000000000001</ele>
        <time>2025-04-24T07:00:17Z</time>
      </trkpt>
      <trkpt lat="46.287745982408524" lon="4.919935008510947">
        <ele>204.90000000000001</ele>
        <time>2025-04-24T07:00:18Z</time>
      </trkpt>
      <trkpt lat="46.287724021822214" lon="4.920083032920957">
        <ele>204.90000000000001</ele>
        <time>2025-04-24T07:00:19Z</time>
      </trkpt>
      <trkpt lat="46.287717986851931" lon="4.920137012377381">
        <ele>205.38</ele>
        <time>2025-04-24T07:00:20Z</time>
      </trkpt>
      <trkpt lat="46.287733996286988" lon="4.920398024842143">
        <ele>205.86000000000001</ele>
        <time>2025-04-24T07:00:21Z</time>
      </trkpt>
      <trkpt lat="46.28769401460886" lon="4.920557029545307">
        <ele>206.34</ele>
        <time>2025-04-24T07:00:22Z</time>
      </trkpt>
      <trkpt lat="46.287647997960448" lon="4.92073598317802">
        <ele>206.34</ele>
        <time>2025-04-24T07:00:23Z</time>
      </trkpt>
      <trkpt lat="46.287599969655275" lon="4.920923989266157">
        <ele>206.81999999999999</ele>
        <time>2025-04-24T07:00:24Z</time>
      </trkpt>
      <trkpt lat="46.286988006904721" lon="4.923158017918468">
        <ele>210.66999999999999</ele>
        <time>2025-04-24T07:00:34Z</time>
      </trkpt>
      <trkpt lat="46.285972958430648" lon="4.926715968176723">
        <ele>214.03</ele>
        <time>2025-04-24T07:00:49Z</time>
      </trkpt>
      <trkpt lat="46.285580014809966" lon="4.928113985806704">
        <ele>213.06999999999999</ele>
        <time>2025-04-24T07:00:56Z</time>
      </trkpt>
      <trkpt lat="46.285536009818316" lon="4.928267961367965">
        <ele>213.06999999999999</ele>
        <time>2025-04-24T07:00:57Z</time>
      </trkpt>
      <trkpt lat="46.285493010655046" lon="4.928419003263116">
        <ele>213.06999999999999</ele>
        <time>2025-04-24T07:00:58Z</time>
      </trkpt>
      <trkpt lat="46.285449005663395" lon="4.928573984652758">
        <ele>213.06999999999999</ele>
        <time>2025-04-24T07:00:59Z</time>
      </trkpt>
      <trkpt lat="46.285406006500125" lon="4.928743969649077">
        <ele>212.59</ele>
        <time>2025-04-24T07:01:00Z</time>
      </trkpt>
      <trkpt lat="46.285356972366571" lon="4.92892200127244">
        <ele>212.59</ele>
        <time>2025-04-24T07:01:01Z</time>
      </trkpt>
      <trkpt lat="46.285305004566908" lon="4.929104978218675">
        <ele>212.59</ele>
        <time>2025-04-24T07:01:02Z</time>
      </trkpt>
      <trkpt lat="46.285251025110483" lon="4.929299019277096">
        <ele>213.06999999999999</ele>
        <time>2025-04-24T07:01:03Z</time>
      </trkpt>
      <trkpt lat="46.284584999084473" lon="4.93156498298049">
        <ele>212.59</ele>
        <time>2025-04-24T07:01:13Z</time>
      </trkpt>
      <trkpt lat="46.283844038844109" lon="4.934180974960327">
        <ele>209.69999999999999</ele>
        <time>2025-04-24T07:01:24Z</time>
      </trkpt>
      <trkpt lat="46.283146999776363" lon="4.936690013855696">
        <ele>209.69999999999999</ele>
        <time>2025-04-24T07:01:35Z</time>
      </trkpt>
      <trkpt lat="46.282406961545348" lon="4.939245991408825">
        <ele>213.55000000000001</ele>
        <time>2025-04-24T07:01:47Z</time>
      </trkpt>
      <trkpt lat="46.281703971326351" lon="4.941702978685498">
        <ele>213.06999999999999</ele>
        <time>2025-04-24T07:02:00Z</time>
      </trkpt>
      <trkpt lat="46.280838036909699" lon="4.944731025025249">
        <ele>212.59</ele>
        <time>2025-04-24T07:02:15Z</time>
      </trkpt>
      <trkpt lat="46.280201012268662" lon="4.946922976523638">
        <ele>214.03</ele>
        <time>2025-04-24T07:02:25Z</time>
      </trkpt>
      <trkpt lat="46.279385033994913" lon="4.949793023988605">
        <ele>208.25999999999999</ele>
        <time>2025-04-24T07:02:37Z</time>
      </trkpt>
      <trkpt lat="46.2785429880023" lon="4.952753009274602">
        <ele>214.03</ele>
        <time>2025-04-24T07:02:50Z</time>
      </trkpt>
      <trkpt lat="46.277970001101494" lon="4.954710016027093">
        <ele>216.43000000000001</ele>
        <time>2025-04-24T07:03:00Z</time>
      </trkpt>
      <trkpt lat="46.277646962553263" lon="4.956727037206292">
        <ele>218.36000000000001</ele>
        <time>2025-04-24T07:03:09Z</time>
      </trkpt>
      <trkpt lat="46.277326019480824" lon="4.960667034611106">
        <ele>218.36000000000001</ele>
        <time>2025-04-24T07:03:26Z</time>
      </trkpt>
      <trkpt lat="46.277084033936262" lon="4.963687034323812">
        <ele>218.84</ele>
        <time>2025-04-24T07:03:39Z</time>
      </trkpt>
      <trkpt lat="46.276863003149629" lon="4.966487009078264">
        <ele>211.63</ele>
        <time>2025-04-24T07:03:51Z</time>
      </trkpt>
      <trkpt lat="46.276578018441796" lon="4.969756035134196">
        <ele>203.46000000000001</ele>
        <time>2025-04-24T07:04:04Z</time>
      </trkpt>
      <trkpt lat="46.276483973488212" lon="4.970876025035977">
        <ele>203.94</ele>
        <time>2025-04-24T07:04:11Z</time>
      </trkpt>
      <trkpt lat="46.276412978768349" lon="4.971838016062975">
        <ele>206.81999999999999</ele>
        <time>2025-04-24T07:04:20Z</time>
      </trkpt>
      <trkpt lat="46.276227990165353" lon="4.972831020131707">
        <ele>209.69999999999999</ele>
        <time>2025-04-24T07:04:31Z</time>
      </trkpt>
      <trkpt lat="46.27613696269691" lon="4.973240979015827">
        <ele>211.15000000000001</ele>
        <time>2025-04-24T07:04:36Z</time>
      </trkpt>
      <trkpt lat="46.275896988809109" lon="4.974071038886905">
        <ele>214.03</ele>
        <time>2025-04-24T07:04:48Z</time>
      </trkpt>
      <trkpt lat="46.275816019624472" lon="4.974377984181047">
        <ele>214.50999999999999</ele>
        <time>2025-04-24T07:04:52Z</time>
      </trkpt>
      <trkpt lat="46.275470014661551" lon="4.975653039291501">
        <ele>211.15000000000001</ele>
        <time>2025-04-24T07:05:04Z</time>
      </trkpt>
      <trkpt lat="46.275071036070585" lon="4.977105036377907">
        <ele>205.38</ele>
        <time>2025-04-24T07:05:15Z</time>
      </trkpt>
      <trkpt lat="46.274937009438872" lon="4.977621026337147">
        <ele>202.97999999999999</ele>
        <time>2025-04-24T07:05:24Z</time>
      </trkpt>
      <trkpt lat="46.274918988347054" lon="4.977690009400249">
        <ele>202.97999999999999</ele>
        <time>2025-04-24T07:05:25Z</time>
      </trkpt>
      <trkpt lat="46.274864003062248" lon="4.977871980518103">
        <ele>202.49000000000001</ele>
        <time>2025-04-24T07:05:28Z</time>
      </trkpt>
      <trkpt lat="46.274630986154079" lon="4.978708997368813">
        <ele>200.56999999999999</ele>
        <time>2025-04-24T07:05:37Z</time>
      </trkpt>
      <trkpt lat="46.274246005341411" lon="4.980123024433851">
        <ele>198.16999999999999</ele>
        <time>2025-04-24T07:05:46Z</time>
      </trkpt>
      <trkpt lat="46.273693973198533" lon="4.982190001755953">
        <ele>193.36000000000001</ele>
        <time>2025-04-24T07:05:55Z</time>
      </trkpt>
      <trkpt lat="46.272851005196571" lon="4.985279990360141">
        <ele>191.44</ele>
        <time>2025-04-24T07:06:08Z</time>
      </trkpt>
      <trkpt lat="46.272181961685419" lon="4.987752987071872">
        <ele>190.96000000000001</ele>
        <time>2025-04-24T07:06:18Z</time>
      </trkpt>
      <trkpt lat="46.271320972591639" lon="4.990940038114786">
        <ele>190.96000000000001</ele>
        <time>2025-04-24T07:06:30Z</time>
      </trkpt>
      <trkpt lat="46.270639020949602" lon="4.993457039818168">
        <ele>189.52000000000001</ele>
        <time>2025-04-24T07:06:40Z</time>
      </trkpt>
      <trkpt lat="46.26988397911191" lon="4.996229019016028">
        <ele>189.03999999999999</ele>
        <time>2025-04-24T07:06:51Z</time>
      </trkpt>
      <trkpt lat="46.269086021929979" lon="4.999181963503361">
        <ele>188.56</ele>
        <time>2025-04-24T07:07:03Z</time>
      </trkpt>
      <trkpt lat="46.268090000376105" lon="5.002824990078807">
        <ele>191.91999999999999</ele>
        <time>2025-04-24T07:07:18Z</time>
      </trkpt>
      <trkpt lat="46.267622960731387" lon="5.004532970488071">
        <ele>191.91999999999999</ele>
        <time>2025-04-24T07:07:27Z</time>
      </trkpt>
      <trkpt lat="46.267359014600515" lon="5.005505019798875">
        <ele>191.91999999999999</ele>
        <time>2025-04-24T07:07:35Z</time>
      </trkpt>
      <trkpt lat="46.267269998788834" lon="5.005820011720061">
        <ele>192.40000000000001</ele>
        <time>2025-04-24T07:07:41Z</time>
      </trkpt>
      <trkpt lat="46.267258012667298" lon="5.005863010883331">
        <ele>192.40000000000001</ele>
        <time>2025-04-24T07:07:42Z</time>
      </trkpt>
      <trkpt lat="46.267341999337077" lon="5.005963006988168">
        <ele>192.40000000000001</ele>
        <time>2025-04-24T07:07:43Z</time>
      </trkpt>
      <trkpt lat="46.267395978793502" lon="5.005960995331407">
        <ele>191.91999999999999</ele>
        <time>2025-04-24T07:07:44Z</time>
      </trkpt>
      <trkpt lat="46.267461022362113" lon="5.005957977846265">
        <ele>192.40000000000001</ele>
        <time>2025-04-24T07:07:45Z</time>
      </trkpt>
      <trkpt lat="46.267524976283312" lon="5.005955966189504">
        <ele>192.40000000000001</ele>
        <time>2025-04-24T07:07:46Z</time>
      </trkpt>
      <trkpt lat="46.267595971003175" lon="5.005953032523394">
        <ele>192.40000000000001</ele>
        <time>2025-04-24T07:07:47Z</time>
      </trkpt>
      <trkpt lat="46.268349001184106" lon="5.005974993109703">
        <ele>195.28</ele>
        <time>2025-04-24T07:07:54Z</time>
      </trkpt>
      <trkpt lat="46.269621038809419" lon="5.00603199005127">
        <ele>200.56999999999999</ele>
        <time>2025-04-24T07:08:04Z</time>
      </trkpt>
      <trkpt lat="46.269735032692552" lon="5.005986979231238">
        <ele>201.05000000000001</ele>
        <time>2025-04-24T07:08:05Z</time>
      </trkpt>
      <trkpt lat="46.269854977726936" lon="5.005940040573478">
        <ele>201.05000000000001</ele>
        <time>2025-04-24T07:08:06Z</time>
      </trkpt>
      <trkpt lat="46.269974000751972" lon="5.005893018096685">
        <ele>201.53</ele>
        <time>2025-04-24T07:08:07Z</time>
      </trkpt>
      <trkpt lat="46.270428970456123" lon="5.005638040602207">
        <ele>201.53</ele>
        <time>2025-04-24T07:08:11Z</time>
      </trkpt>
      <trkpt lat="46.270547993481159" lon="5.005618007853627">
        <ele>201.53</ele>
        <time>2025-04-24T07:08:12Z</time>
      </trkpt>
      <trkpt lat="46.270667016506195" lon="5.005597975105047">
        <ele>201.53</ele>
        <time>2025-04-24T07:08:13Z</time>
      </trkpt>
      <trkpt lat="46.271917009726167" lon="5.00584096647799">
        <ele>202.00999999999999</ele>
        <time>2025-04-24T07:08:23Z</time>
      </trkpt>
      <trkpt lat="46.273076981306076" lon="5.006067026406527">
        <ele>203.46000000000001</ele>
        <time>2025-04-24T07:08:31Z</time>
      </trkpt>
      <trkpt lat="46.274601984769106" lon="5.006668008863926">
        <ele>209.22</ele>
        <time>2025-04-24T07:08:41Z</time>
      </trkpt>
      <trkpt lat="46.275865975767374" lon="5.006788959726691">
        <ele>214.99000000000001</ele>
        <time>2025-04-24T07:08:49Z</time>
      </trkpt>
      <trkpt lat="46.276021040976048" lon="5.006803963333368">
        <ele>214.99000000000001</ele>
        <time>2025-04-24T07:08:50Z</time>
      </trkpt>
      <trkpt lat="46.276169987395406" lon="5.006818966940045">
        <ele>215.47</ele>
        <time>2025-04-24T07:08:51Z</time>
      </trkpt>
      <trkpt lat="46.27630895934999" lon="5.006865989416838">
        <ele>215.47</ele>
        <time>2025-04-24T07:08:52Z</time>
      </trkpt>
      <trkpt lat="46.276433011516929" lon="5.006940001621842">
        <ele>215.47</ele>
        <time>2025-04-24T07:08:53Z</time>
      </trkpt>
      <trkpt lat="46.27654398791492" lon="5.007009990513325">
        <ele>215.94999999999999</ele>
        <time>2025-04-24T07:08:54Z</time>
      </trkpt>
      <trkpt lat="46.276647001504898" lon="5.007075034081936">
        <ele>215.94999999999999</ele>
        <time>2025-04-24T07:08:55Z</time>
      </trkpt>
      <trkpt lat="46.27746700309217" lon="5.00757803209126">
        <ele>215.94999999999999</ele>
        <time>2025-04-24T07:09:03Z</time>
      </trkpt>
      <trkpt lat="46.277873022481799" lon="5.007780035957694">
        <ele>215.47</ele>
        <time>2025-04-24T07:09:07Z</time>
      </trkpt>
      <trkpt lat="46.277990033850074" lon="5.007807025685906">
        <ele>215.47</ele>
        <time>2025-04-24T07:09:08Z</time>
      </trkpt>
      <trkpt lat="46.278105033561587" lon="5.007834015414119">
        <ele>214.99000000000001</ele>
        <time>2025-04-24T07:09:09Z</time>
      </trkpt>
      <trkpt lat="46.279542027041316" lon="5.007877014577389">
        <ele>208.74000000000001</ele>
        <time>2025-04-24T07:09:21Z</time>
      </trkpt>
      <trkpt lat="46.280151978135109" lon="5.007877014577389">
        <ele>205.86000000000001</ele>
        <time>2025-04-24T07:09:27Z</time>
      </trkpt>
      <trkpt lat="46.280988994985819" lon="5.007855976000428">
        <ele>204.90000000000001</ele>
        <time>2025-04-24T07:09:35Z</time>
      </trkpt>
      <trkpt lat="46.281481012701988" lon="5.00783602707088">
        <ele>205.38</ele>
        <time>2025-04-24T07:09:39Z</time>
      </trkpt>
      <trkpt lat="46.281602969393134" lon="5.007813982665539">
        <ele>205.38</ele>
        <time>2025-04-24T07:09:40Z</time>
      </trkpt>
      <trkpt lat="46.281731966882944" lon="5.007792022079229">
        <ele>204.90000000000001</ele>
        <time>2025-04-24T07:09:41Z</time>
      </trkpt>
      <trkpt lat="46.281831040978432" lon="5.007742987945676">
        <ele>205.38</ele>
        <time>2025-04-24T07:09:42Z</time>
      </trkpt>
      <trkpt lat="46.281938999891281" lon="5.007694959640503">
        <ele>205.38</ele>
        <time>2025-04-24T07:09:43Z</time>
      </trkpt>
      <trkpt lat="46.28234401345253" lon="5.007583983242512">
        <ele>204.90000000000001</ele>
        <time>2025-04-24T07:09:47Z</time>
      </trkpt>
      <trkpt lat="46.282461024820805" lon="5.007555987685919">
        <ele>204.41999999999999</ele>
        <time>2025-04-24T07:09:48Z</time>
      </trkpt>
      <trkpt lat="46.282531013712287" lon="5.007565040141344">
        <ele>203.94</ele>
        <time>2025-04-24T07:09:49Z</time>
      </trkpt>
      <trkpt lat="46.282610977068543" lon="5.007577026262879">
        <ele>203.46000000000001</ele>
        <time>2025-04-24T07:09:50Z</time>
      </trkpt>
      <trkpt lat="46.282728994265199" lon="5.007577026262879">
        <ele>202.97999999999999</ele>
        <time>2025-04-24T07:09:51Z</time>
      </trkpt>
      <trkpt lat="46.282834019511938" lon="5.007577026262879">
        <ele>202.49000000000001</ele>
        <time>2025-04-24T07:09:52Z</time>
      </trkpt>
      <trkpt lat="46.282943990081549" lon="5.007574008777738">
        <ele>202.00999999999999</ele>
        <time>2025-04-24T07:09:53Z</time>
      </trkpt>
      <trkpt lat="46.283050021156669" lon="5.007545007392764">
        <ele>201.05000000000001</ele>
        <time>2025-04-24T07:09:54Z</time>
      </trkpt>
      <trkpt lat="46.284581981599331" lon="5.007136976346374">
        <ele>194.31999999999999</ele>
        <time>2025-04-24T07:10:06Z</time>
      </trkpt>
      <trkpt lat="46.286342013627291" lon="5.006675971671939">
        <ele>202.49000000000001</ele>
        <time>2025-04-24T07:10:17Z</time>
      </trkpt>
      <trkpt lat="46.286494983360171" lon="5.00665401108563">
        <ele>203.46000000000001</ele>
        <time>2025-04-24T07:10:18Z</time>
      </trkpt>
      <trkpt lat="46.286624986678362" lon="5.006681000813842">
        <ele>204.90000000000001</ele>
        <time>2025-04-24T07:10:19Z</time>
      </trkpt>
      <trkpt lat="46.288112020120025" lon="5.006975959986448">
        <ele>212.59</ele>
        <time>2025-04-24T07:10:29Z</time>
      </trkpt>
      <trkpt lat="46.289427978917956" lon="5.0072340387851">
        <ele>214.99000000000001</ele>
        <time>2025-04-24T07:10:38Z</time>
      </trkpt>
      <trkpt lat="46.290888022631407" lon="5.007527992129326">
        <ele>215.47</ele>
        <time>2025-04-24T07:10:47Z</time>
      </trkpt>
      <trkpt lat="46.291687991470098" lon="5.007713986560702">
        <ele>214.99000000000001</ele>
        <time>2025-04-24T07:10:52Z</time>
      </trkpt>
      <trkpt lat="46.29184297285974" lon="5.007785987108946">
        <ele>214.50999999999999</ele>
        <time>2025-04-24T07:10:53Z</time>
      </trkpt>
      <trkpt lat="46.291996026411653" lon="5.007890006527305">
        <ele>214.03</ele>
        <time>2025-04-24T07:10:54Z</time>
      </trkpt>
      <trkpt lat="46.292947959154844" lon="5.008677989244461">
        <ele>211.63</ele>
        <time>2025-04-24T07:11:02Z</time>
      </trkpt>
      <trkpt lat="46.2941849604249" lon="5.009703012183309">
        <ele>210.19</ele>
        <time>2025-04-24T07:11:12Z</time>
      </trkpt>
      <trkpt lat="46.295104958117008" lon="5.010412037372589">
        <ele>214.50999999999999</ele>
        <time>2025-04-24T07:11:21Z</time>
      </trkpt>
      <trkpt lat="46.29596502520144" lon="5.010711019858718">
        <ele>214.99000000000001</ele>
        <time>2025-04-24T07:11:26Z</time>
      </trkpt>
      <trkpt lat="46.297486005350947" lon="5.01114402897656">
        <ele>215.94999999999999</ele>
        <time>2025-04-24T07:11:34Z</time>
      </trkpt>
      <trkpt lat="46.298612030223012" lon="5.011719027534127">
        <ele>217.40000000000001</ele>
        <time>2025-04-24T07:11:41Z</time>
      </trkpt>
      <trkpt lat="46.3000269792974" lon="5.012751007452607">
        <ele>219.31999999999999</ele>
        <time>2025-04-24T07:11:52Z</time>
      </trkpt>
      <trkpt lat="46.300334008410573" lon="5.012978995218873">
        <ele>219.31999999999999</ele>
        <time>2025-04-24T07:11:57Z</time>
      </trkpt>
      <trkpt lat="46.300391005352139" lon="5.01307999715209">
        <ele>219.31999999999999</ele>
        <time>2025-04-24T07:11:58Z</time>
      </trkpt>
      <trkpt lat="46.300378013402224" lon="5.013159960508347">
        <ele>218.84</ele>
        <time>2025-04-24T07:11:59Z</time>
      </trkpt>
      <trkpt lat="46.300360998138785" lon="5.013266997411847">
        <ele>218.84</ele>
        <time>2025-04-24T07:12:00Z</time>
      </trkpt>
      <trkpt lat="46.300339959561825" lon="5.013395994901657">
        <ele>218.84</ele>
        <time>2025-04-24T07:12:01Z</time>
      </trkpt>
      <trkpt lat="46.300244992598891" lon="5.014697033911943">
        <ele>217.88</ele>
        <time>2025-04-24T07:12:08Z</time>
      </trkpt>
      <trkpt lat="46.300335014238954" lon="5.016932990401983">
        <ele>218.84</ele>
        <time>2025-04-24T07:12:18Z</time>
      </trkpt>
      <trkpt lat="46.300400979816914" lon="5.017128037288785">
        <ele>219.31999999999999</ele>
        <time>2025-04-24T07:12:19Z</time>
      </trkpt>
      <trkpt lat="46.301150992512703" lon="5.019615031778812">
        <ele>223.63999999999999</ele>
        <time>2025-04-24T07:12:30Z</time>
      </trkpt>
      <trkpt lat="46.301458021625876" lon="5.021433988586068">
        <ele>224.12</ele>
        <time>2025-04-24T07:12:38Z</time>
      </trkpt>
      <trkpt lat="46.301772007718682" lon="5.023610014468432">
        <ele>222.19999999999999</ele>
        <time>2025-04-24T07:12:48Z</time>
      </trkpt>
      <trkpt lat="46.301733031868935" lon="5.024857996031642">
        <ele>222.19999999999999</ele>
        <time>2025-04-24T07:12:54Z</time>
      </trkpt>
      <trkpt lat="46.301703024655581" lon="5.025073997676373">
        <ele>222.19999999999999</ele>
        <time>2025-04-24T07:12:55Z</time>
      </trkpt>
      <trkpt lat="46.301556006073952" lon="5.02715103328228">
        <ele>217.40000000000001</ele>
        <time>2025-04-24T07:13:04Z</time>
      </trkpt>
      <trkpt lat="46.301364982500672" lon="5.03016198053956">
        <ele>209.69999999999999</ele>
        <time>2025-04-24T07:13:16Z</time>
      </trkpt>
      <trkpt lat="46.301345033571124" lon="5.032643023878336">
        <ele>209.22</ele>
        <time>2025-04-24T07:13:26Z</time>
      </trkpt>
      <trkpt lat="46.301260963082314" lon="5.034888032823801">
        <ele>215.94999999999999</ele>
        <time>2025-04-24T07:13:36Z</time>
      </trkpt>
      <trkpt lat="46.300919987261295" lon="5.036714030429721">
        <ele>212.11000000000001</ele>
        <time>2025-04-24T07:13:43Z</time>
      </trkpt>
      <trkpt lat="46.300829965621233" lon="5.036939000710845">
        <ele>211.15000000000001</ele>
        <time>2025-04-24T07:13:44Z</time>
      </trkpt>
      <trkpt lat="46.300601977854967" lon="5.037609972059727">
        <ele>209.22</ele>
        <time>2025-04-24T07:13:47Z</time>
      </trkpt>
      <trkpt lat="46.300563002005219" lon="5.037841983139515">
        <ele>208.74000000000001</ele>
        <time>2025-04-24T07:13:48Z</time>
      </trkpt>
      <trkpt lat="46.300544980913401" lon="5.038100983947516">
        <ele>208.74000000000001</ele>
        <time>2025-04-24T07:13:49Z</time>
      </trkpt>
      <trkpt lat="46.300386982038617" lon="5.040828036144376">
        <ele>208.25999999999999</ele>
        <time>2025-04-24T07:13:59Z</time>
      </trkpt>
      <trkpt lat="46.300359992310405" lon="5.042075011879206">
        <ele>208.74000000000001</ele>
        <time>2025-04-24T07:14:04Z</time>
      </trkpt>
      <trkpt lat="46.300339037552476" lon="5.042308028787375">
        <ele>208.74000000000001</ele>
        <time>2025-04-24T07:14:05Z</time>
      </trkpt>
      <trkpt lat="46.3002859801054" lon="5.042532999068499">
        <ele>208.74000000000001</ele>
        <time>2025-04-24T07:14:06Z</time>
      </trkpt>
      <trkpt lat="46.300214985385537" lon="5.042756963521242">
        <ele>208.74000000000001</ele>
        <time>2025-04-24T07:14:07Z</time>
      </trkpt>
      <trkpt lat="46.3001340162009" lon="5.042992997914553">
        <ele>209.22</ele>
        <time>2025-04-24T07:14:08Z</time>
      </trkpt>
      <trkpt lat="46.299853976815939" lon="5.043936967849731">
        <ele>212.11000000000001</ele>
        <time>2025-04-24T07:14:12Z</time>
      </trkpt>
      <trkpt lat="46.299821035936475" lon="5.044182976707816">
        <ele>213.06999999999999</ele>
        <time>2025-04-24T07:14:13Z</time>
      </trkpt>
      <trkpt lat="46.299649961292744" lon="5.046300999820232">
        <ele>219.80000000000001</ele>
        <time>2025-04-24T07:14:21Z</time>
      </trkpt>
      <trkpt lat="46.299826987087727" lon="5.048606023192406">
        <ele>221.72</ele>
        <time>2025-04-24T07:14:30Z</time>
      </trkpt>
      <trkpt lat="46.29972598515451" lon="5.050997966900468">
        <ele>219.31999999999999</ele>
        <time>2025-04-24T07:14:40Z</time>
      </trkpt>
      <trkpt lat="46.299707964062691" lon="5.051202988252044">
        <ele>218.84</ele>
        <time>2025-04-24T07:14:41Z</time>
      </trkpt>
      <trkpt lat="46.299691032618284" lon="5.051395017653704">
        <ele>218.84</ele>
        <time>2025-04-24T07:14:42Z</time>
      </trkpt>
      <trkpt lat="46.299675023183227" lon="5.051572965458036">
        <ele>218.36000000000001</ele>
        <time>2025-04-24T07:14:43Z</time>
      </trkpt>
      <trkpt lat="46.299630012363195" lon="5.051735993474722">
        <ele>217.88</ele>
        <time>2025-04-24T07:14:44Z</time>
      </trkpt>
      <trkpt lat="46.299585001543164" lon="5.051857028156519">
        <ele>217.40000000000001</ele>
        <time>2025-04-24T07:14:45Z</time>
      </trkpt>
      <trkpt lat="46.299540996551514" lon="5.051974039524794">
        <ele>216.91</ele>
        <time>2025-04-24T07:14:46Z</time>
      </trkpt>
      <trkpt lat="46.299494979903102" lon="5.052040005102754">
        <ele>216.43000000000001</ele>
        <time>2025-04-24T07:14:47Z</time>
      </trkpt>
      <trkpt lat="46.299458015710115" lon="5.052093984559178">
        <ele>215.94999999999999</ele>
        <time>2025-04-24T07:14:48Z</time>
      </trkpt>
      <trkpt lat="46.299348967149854" lon="5.052250977605581">
        <ele>212.59</ele>
        <time>2025-04-24T07:14:55Z</time>
      </trkpt>
      <trkpt lat="46.299090972170234" lon="5.052831005305052">
        <ele>211.15000000000001</ele>
        <time>2025-04-24T07:15:01Z</time>
      </trkpt>
      <trkpt lat="46.298772962763906" lon="5.054229022935033">
        <ele>205.86000000000001</ele>
        <time>2025-04-24T07:15:09Z</time>
      </trkpt>
      <trkpt lat="46.298513961955905" lon="5.054927989840508">
        <ele>202.97999999999999</ele>
        <time>2025-04-24T07:15:14Z</time>
      </trkpt>
      <trkpt lat="46.298489989712834" lon="5.055192019790411">
        <ele>202.00999999999999</ele>
        <time>2025-04-24T07:15:16Z</time>
      </trkpt>
      <trkpt lat="46.29850298166275" lon="5.055325040593743">
        <ele>201.53</ele>
        <time>2025-04-24T07:15:17Z</time>
      </trkpt>
      <trkpt lat="46.298516979441047" lon="5.055467030033469">
        <ele>201.53</ele>
        <time>2025-04-24T07:15:18Z</time>
      </trkpt>
      <trkpt lat="46.298591997474432" lon="5.056249983608723">
        <ele>202.49000000000001</ele>
        <time>2025-04-24T07:15:23Z</time>
      </trkpt>
      <trkpt lat="46.298590991646051" lon="5.056403037160635">
        <ele>202.49000000000001</ele>
        <time>2025-04-24T07:15:24Z</time>
      </trkpt>
      <trkpt lat="46.298580011352897" lon="5.056571010500193">
        <ele>202.97999999999999</ele>
        <time>2025-04-24T07:15:25Z</time>
      </trkpt>
      <trkpt lat="46.29852301441133" lon="5.057438034564257">
        <ele>204.41999999999999</ele>
        <time>2025-04-24T07:15:30Z</time>
      </trkpt>
      <trkpt lat="46.298513039946556" lon="5.057600978761911">
        <ele>205.38</ele>
        <time>2025-04-24T07:15:31Z</time>
      </trkpt>
      <trkpt lat="46.298540029674768" lon="5.05776803009212">
        <ele>205.86000000000001</ele>
        <time>2025-04-24T07:15:32Z</time>
      </trkpt>
      <trkpt lat="46.298569031059742" lon="5.057922005653381">
        <ele>206.34</ele>
        <time>2025-04-24T07:15:33Z</time>
      </trkpt>
      <trkpt lat="46.298599038273096" lon="5.058085033670068">
        <ele>207.30000000000001</ele>
        <time>2025-04-24T07:15:34Z</time>
      </trkpt>
      <trkpt lat="46.29863097332418" lon="5.058254012838006">
        <ele>207.78</ele>
        <time>2025-04-24T07:15:35Z</time>
      </trkpt>
      <trkpt lat="46.298724012449384" lon="5.058748964220285">
        <ele>210.66999999999999</ele>
        <time>2025-04-24T07:15:38Z</time>
      </trkpt>
      <trkpt lat="46.298755025491118" lon="5.058914003893733">
        <ele>211.15000000000001</ele>
        <time>2025-04-24T07:15:39Z</time>
      </trkpt>
      <trkpt lat="46.298763994127512" lon="5.05907703191042">
        <ele>211.63</ele>
        <time>2025-04-24T07:15:40Z</time>
      </trkpt>
      <trkpt lat="46.298718983307481" lon="5.059840036556125">
        <ele>213.55000000000001</ele>
        <time>2025-04-24T07:15:45Z</time>
      </trkpt>
      <trkpt lat="46.298712026327848" lon="5.059968028217554">
        <ele>213.55000000000001</ele>
        <time>2025-04-24T07:15:46Z</time>
      </trkpt>
      <trkpt lat="46.298715965822339" lon="5.060128038749099">
        <ele>214.03</ele>
        <time>2025-04-24T07:15:47Z</time>
      </trkpt>
      <trkpt lat="46.298901960253716" lon="5.061124982312322">
        <ele>215.47</ele>
        <time>2025-04-24T07:15:54Z</time>
      </trkpt>
      <trkpt lat="46.298961974680424" lon="5.061693023890257">
        <ele>216.43000000000001</ele>
        <time>2025-04-24T07:15:59Z</time>
      </trkpt>
      <trkpt lat="46.299005979672074" lon="5.06182998418808">
        <ele>216.91</ele>
        <time>2025-04-24T07:16:00Z</time>
      </trkpt>
      <trkpt lat="46.299043027684093" lon="5.061950013041496">
        <ele>216.91</ele>
        <time>2025-04-24T07:16:01Z</time>
      </trkpt>
      <trkpt lat="46.299214018508792" lon="5.062488969415426">
        <ele>217.40000000000001</ele>
        <time>2025-04-24T07:16:05Z</time>
      </trkpt>
      <trkpt lat="46.299376040697098" lon="5.063324980437756">
        <ele>218.36000000000001</ele>
        <time>2025-04-24T07:16:11Z</time>
      </trkpt>
      <trkpt lat="46.299389032647014" lon="5.06342195905745">
        <ele>218.36000000000001</ele>
        <time>2025-04-24T07:16:12Z</time>
      </trkpt>
      <trkpt lat="46.299376040697098" lon="5.0634849909693">
        <ele>218.36000000000001</ele>
        <time>2025-04-24T07:16:13Z</time>
      </trkpt>
      <trkpt lat="46.299332035705447" lon="5.06354802288115">
        <ele>218.84</ele>
        <time>2025-04-24T07:16:14Z</time>
      </trkpt>
      <trkpt lat="46.299288030713797" lon="5.063583981245756">
        <ele>218.84</ele>
        <time>2025-04-24T07:16:15Z</time>
      </trkpt>
      <trkpt lat="46.299223992973566" lon="5.063636032864451">
        <ele>219.31999999999999</ele>
        <time>2025-04-24T07:16:16Z</time>
      </trkpt>
      <trkpt lat="46.299161966890097" lon="5.063686994835734">
        <ele>219.31999999999999</ele>
        <time>2025-04-24T07:16:17Z</time>
      </trkpt>
      <trkpt lat="46.299129026010633" lon="5.063765030354261">
        <ele>219.31999999999999</ele>
        <time>2025-04-24T07:16:18Z</time>
      </trkpt>
      <trkpt lat="46.299120979383588" lon="5.063856979832053">
        <ele>219.31999999999999</ele>
        <time>2025-04-24T07:16:19Z</time>
      </trkpt>
      <trkpt lat="46.299114022403955" lon="5.063950018957257">
        <ele>219.80000000000001</ele>
        <time>2025-04-24T07:16:20Z</time>
      </trkpt>
      <trkpt lat="46.299154004082084" lon="5.064041968435049">
        <ele>219.31999999999999</ele>
        <time>2025-04-24T07:16:21Z</time>
      </trkpt>
      <trkpt lat="46.299202032387257" lon="5.064154034480453">
        <ele>219.31999999999999</ele>
        <time>2025-04-24T07:16:22Z</time>
      </trkpt>
      <trkpt lat="46.299755992367864" lon="5.065436968579888">
        <ele>220.75999999999999</ele>
        <time>2025-04-24T07:16:31Z</time>
      </trkpt>
      <trkpt lat="46.3002859801054" lon="5.066468026489019">
        <ele>224.61000000000001</ele>
        <time>2025-04-24T07:16:40Z</time>
      </trkpt>
      <trkpt lat="46.300367033109069" lon="5.066530974581838">
        <ele>225.09</ele>
        <time>2025-04-24T07:16:41Z</time>
      </trkpt>
      <trkpt lat="46.301215030252934" lon="5.067186020314694">
        <ele>224.12</ele>
        <time>2025-04-24T07:16:52Z</time>
      </trkpt>
      <trkpt lat="46.301215030252934" lon="5.067186020314694">
        <ele>223.63999999999999</ele>
        <time>2025-04-24T07:16:53Z</time>
      </trkpt>
      <trkpt lat="46.301295999437571" lon="5.067213010042906">
        <ele>223.63999999999999</ele>
        <time>2025-04-24T07:16:54Z</time>
      </trkpt>
      <trkpt lat="46.301333969458938" lon="5.067362040281296">
        <ele>223.16</ele>
        <time>2025-04-24T07:16:55Z</time>
      </trkpt>
      <trkpt lat="46.301311003044248" lon="5.067395986989141">
        <ele>223.16</ele>
        <time>2025-04-24T07:16:56Z</time>
      </trkpt>
      <trkpt lat="46.301278984174132" lon="5.067445021122694">
        <ele>222.68000000000001</ele>
        <time>2025-04-24T07:16:57Z</time>
      </trkpt>
      <trkpt lat="46.301240008324385" lon="5.067504029721022">
        <ele>222.68000000000001</ele>
        <time>2025-04-24T07:16:58Z</time>
      </trkpt>
      <trkpt lat="46.301191980019212" lon="5.067578963935375">
        <ele>222.68000000000001</ele>
        <time>2025-04-24T07:16:59Z</time>
      </trkpt>
      <trkpt lat="46.301168007776141" lon="5.067674014717341">
        <ele>222.19999999999999</ele>
        <time>2025-04-24T07:17:00Z</time>
      </trkpt>
      <trkpt lat="46.301142023876309" lon="5.067780967801809">
        <ele>222.19999999999999</ele>
        <time>2025-04-24T07:17:01Z</time>
      </trkpt>
      <trkpt lat="46.301119979470968" lon="5.067900996655226">
        <ele>222.19999999999999</ele>
        <time>2025-04-24T07:17:02Z</time>
      </trkpt>
      <trkpt lat="46.301101958379149" lon="5.068033011630178">
        <ele>222.19999999999999</ele>
        <time>2025-04-24T07:17:03Z</time>
      </trkpt>
      <trkpt lat="46.301087960600853" lon="5.068176006898284">
        <ele>221.72</ele>
        <time>2025-04-24T07:17:04Z</time>
      </trkpt>
      <trkpt lat="46.301095001399517" lon="5.068325959146023">
        <ele>221.24000000000001</ele>
        <time>2025-04-24T07:17:05Z</time>
      </trkpt>
      <trkpt lat="46.301118973642588" lon="5.068809008225799">
        <ele>220.75999999999999</ele>
        <time>2025-04-24T07:17:08Z</time>
      </trkpt>
      <trkpt lat="46.301129031926394" lon="5.069010006263852">
        <ele>220.75999999999999</ele>
        <time>2025-04-24T07:17:09Z</time>
      </trkpt>
      <trkpt lat="46.301106987521052" lon="5.069146966561675">
        <ele>221.24000000000001</ele>
        <time>2025-04-24T07:17:10Z</time>
      </trkpt>
      <trkpt lat="46.300870031118393" lon="5.070291012525559">
        <ele>221.72</ele>
        <time>2025-04-24T07:17:17Z</time>
      </trkpt>
      <trkpt lat="46.300244992598891" lon="5.072039980441332">
        <ele>222.19999999999999</ele>
        <time>2025-04-24T07:17:28Z</time>
      </trkpt>
      <trkpt lat="46.300003007054329" lon="5.072948997840285">
        <ele>222.19999999999999</ele>
        <time>2025-04-24T07:17:33Z</time>
      </trkpt>
      <trkpt lat="46.299980962648988" lon="5.073151001706719">
        <ele>222.68000000000001</ele>
        <time>2025-04-24T07:17:34Z</time>
      </trkpt>
      <trkpt lat="46.299937963485718" lon="5.073742009699345">
        <ele>222.68000000000001</ele>
        <time>2025-04-24T07:17:37Z</time>
      </trkpt>
      <trkpt lat="46.299911979585886" lon="5.073918029665947">
        <ele>222.68000000000001</ele>
        <time>2025-04-24T07:17:38Z</time>
      </trkpt>
      <trkpt lat="46.299846014007926" lon="5.07407502271235">
        <ele>222.19999999999999</ele>
        <time>2025-04-24T07:17:39Z</time>
      </trkpt>
      <trkpt lat="46.299776025116444" lon="5.074239978566766">
        <ele>221.72</ele>
        <time>2025-04-24T07:17:40Z</time>
      </trkpt>
      <trkpt lat="46.299705030396581" lon="5.074408035725355">
        <ele>221.72</ele>
        <time>2025-04-24T07:17:41Z</time>
      </trkpt>
      <trkpt lat="46.299505960196257" lon="5.074670976027846">
        <ele>221.24000000000001</ele>
        <time>2025-04-24T07:17:43Z</time>
      </trkpt>
      <trkpt lat="46.299411999061704" lon="5.074788993224502">
        <ele>221.24000000000001</ele>
        <time>2025-04-24T07:17:44Z</time>
      </trkpt>
      <trkpt lat="46.299290964379907" lon="5.074880020692945">
        <ele>221.24000000000001</ele>
        <time>2025-04-24T07:17:45Z</time>
      </trkpt>
      <trkpt lat="46.299161966890097" lon="5.074904998764396">
        <ele>220.75999999999999</ele>
        <time>2025-04-24T07:17:46Z</time>
      </trkpt>
      <trkpt lat="46.299026012420654" lon="5.074932994320989">
        <ele>220.75999999999999</ele>
        <time>2025-04-24T07:17:47Z</time>
      </trkpt>
      <trkpt lat="46.29888603463769" lon="5.074960989877582">
        <ele>220.75999999999999</ele>
        <time>2025-04-24T07:17:48Z</time>
      </trkpt>
      <trkpt lat="46.298604989424348" lon="5.075016980990768">
        <ele>220.28</ele>
        <time>2025-04-24T07:17:50Z</time>
      </trkpt>
      <trkpt lat="46.298472974449396" lon="5.075048999860883">
        <ele>220.28</ele>
        <time>2025-04-24T07:17:51Z</time>
      </trkpt>
      <trkpt lat="46.298341965302825" lon="5.075118988752365">
        <ele>219.80000000000001</ele>
        <time>2025-04-24T07:17:52Z</time>
      </trkpt>
      <trkpt lat="46.298211961984634" lon="5.075187971815467">
        <ele>219.80000000000001</ele>
        <time>2025-04-24T07:17:53Z</time>
      </trkpt>
      <trkpt lat="46.29809302277863" lon="5.075298026204109">
        <ele>219.80000000000001</ele>
        <time>2025-04-24T07:17:54Z</time>
      </trkpt>
      <trkpt lat="46.297978023067117" lon="5.07542903535068">
        <ele>219.31999999999999</ele>
        <time>2025-04-24T07:17:55Z</time>
      </trkpt>
      <trkpt lat="46.296698022633791" lon="5.076943980529904">
        <ele>219.31999999999999</ele>
        <time>2025-04-24T07:18:06Z</time>
      </trkpt>
      <trkpt lat="46.295489016920328" lon="5.07824401371181">
        <ele>219.80000000000001</ele>
        <time>2025-04-24T07:18:16Z</time>
      </trkpt>
      <trkpt lat="46.295332023873925" lon="5.078304028138518">
        <ele>219.80000000000001</ele>
        <time>2025-04-24T07:18:17Z</time>
      </trkpt>
      <trkpt lat="46.295170001685619" lon="5.078365970402956">
        <ele>219.80000000000001</ele>
        <time>2025-04-24T07:18:18Z</time>
      </trkpt>
      <trkpt lat="46.295006973668933" lon="5.078409975394607">
        <ele>219.80000000000001</ele>
        <time>2025-04-24T07:18:19Z</time>
      </trkpt>
      <trkpt lat="46.294837994500995" lon="5.078413998708129">
        <ele>219.80000000000001</ele>
        <time>2025-04-24T07:18:20Z</time>
      </trkpt>
      <trkpt lat="46.294674966484308" lon="5.078419027850032">
        <ele>219.80000000000001</ele>
        <time>2025-04-24T07:18:21Z</time>
      </trkpt>
      <trkpt lat="46.294524008408189" lon="5.078422967344523">
        <ele>219.80000000000001</ele>
        <time>2025-04-24T07:18:22Z</time>
      </trkpt>
      <trkpt lat="46.294097034260631" lon="5.07847803644836">
        <ele>220.75999999999999</ele>
        <time>2025-04-24T07:18:25Z</time>
      </trkpt>
      <trkpt lat="46.293975999578834" lon="5.07852103561163">
        <ele>221.24000000000001</ele>
        <time>2025-04-24T07:18:26Z</time>
      </trkpt>
      <trkpt lat="46.293869968503714" lon="5.078592030331492">
        <ele>221.24000000000001</ele>
        <time>2025-04-24T07:18:27Z</time>
      </trkpt>
      <trkpt lat="46.293800985440612" lon="5.078729996457696">
        <ele>221.72</ele>
        <time>2025-04-24T07:18:28Z</time>
      </trkpt>
      <trkpt lat="46.293735019862652" lon="5.078882966190577">
        <ele>222.19999999999999</ele>
        <time>2025-04-24T07:18:29Z</time>
      </trkpt>
      <trkpt lat="46.293675005435944" lon="5.07906099781394">
        <ele>222.19999999999999</ele>
        <time>2025-04-24T07:18:30Z</time>
      </trkpt>
      <trkpt lat="46.293613985180855" lon="5.079254033043981">
        <ele>222.68000000000001</ele>
        <time>2025-04-24T07:18:31Z</time>
      </trkpt>
      <trkpt lat="46.293206959962845" lon="5.080521963536739">
        <ele>223.63999999999999</ele>
        <time>2025-04-24T07:18:37Z</time>
      </trkpt>
      <trkpt lat="46.293125990778208" lon="5.080720027908683">
        <ele>223.63999999999999</ele>
        <time>2025-04-24T07:18:38Z</time>
      </trkpt>
      <trkpt lat="46.293030017986894" lon="5.080896969884634">
        <ele>223.63999999999999</ele>
        <time>2025-04-24T07:18:39Z</time>
      </trkpt>
      <trkpt lat="46.292052017524838" lon="5.082620037719607">
        <ele>223.63999999999999</ele>
        <time>2025-04-24T07:18:49Z</time>
      </trkpt>
      <trkpt lat="46.291924025863409" lon="5.082741994410753">
        <ele>223.63999999999999</ele>
        <time>2025-04-24T07:18:50Z</time>
      </trkpt>
      <trkpt lat="46.291784970089793" lon="5.082807037979364">
        <ele>223.16</ele>
        <time>2025-04-24T07:18:51Z</time>
      </trkpt>
      <trkpt lat="46.291644992306828" lon="5.082871997728944">
        <ele>222.68000000000001</ele>
        <time>2025-04-24T07:18:52Z</time>
      </trkpt>
      <trkpt lat="46.291481964290142" lon="5.082893958315253">
        <ele>222.19999999999999</ele>
        <time>2025-04-24T07:18:53Z</time>
      </trkpt>
      <trkpt lat="46.291317008435726" lon="5.082916002720594">
        <ele>221.72</ele>
        <time>2025-04-24T07:18:54Z</time>
      </trkpt>
      <trkpt lat="46.29115398041904" lon="5.082937041297555">
        <ele>221.24000000000001</ele>
        <time>2025-04-24T07:18:55Z</time>
      </trkpt>
      <trkpt lat="46.289853025227785" lon="5.083080036565661">
        <ele>221.24000000000001</ele>
        <time>2025-04-24T07:19:03Z</time>
      </trkpt>
      <trkpt lat="46.289261011406779" lon="5.083061009645462">
        <ele>222.19999999999999</ele>
        <time>2025-04-24T07:19:07Z</time>
      </trkpt>
      <trkpt lat="46.289122039452195" lon="5.083110965788364">
        <ele>222.68000000000001</ele>
        <time>2025-04-24T07:19:08Z</time>
      </trkpt>
      <trkpt lat="46.288981977850199" lon="5.083168968558312">
        <ele>222.68000000000001</ele>
        <time>2025-04-24T07:19:09Z</time>
      </trkpt>
      <trkpt lat="46.287709018215537" lon="5.083587979897857">
        <ele>224.12</ele>
        <time>2025-04-24T07:19:17Z</time>
      </trkpt>
      <trkpt lat="46.287563005462289" lon="5.083705997094512">
        <ele>224.12</ele>
        <time>2025-04-24T07:19:18Z</time>
      </trkpt>
      <trkpt lat="46.287411963567138" lon="5.08382803760469">
        <ele>224.61000000000001</ele>
        <time>2025-04-24T07:19:19Z</time>
      </trkpt>
      <trkpt lat="46.287115998566151" lon="5.08404403924942">
        <ele>224.61000000000001</ele>
        <time>2025-04-24T07:19:21Z</time>
      </trkpt>
      <trkpt lat="46.286969985812902" lon="5.084087960422039">
        <ele>224.61000000000001</ele>
        <time>2025-04-24T07:19:22Z</time>
      </trkpt>
      <trkpt lat="46.286826990544796" lon="5.08413196541369">
        <ele>224.61000000000001</ele>
        <time>2025-04-24T07:19:23Z</time>
      </trkpt>
      <trkpt lat="46.285901963710785" lon="5.084429020062089">
        <ele>226.05000000000001</ele>
        <time>2025-04-24T07:19:30Z</time>
      </trkpt>
      <trkpt lat="46.285454034805298" lon="5.084525998681784">
        <ele>225.56999999999999</ele>
        <time>2025-04-24T07:19:34Z</time>
      </trkpt>
      <trkpt lat="46.285368958488107" lon="5.0845389906317">
        <ele>225.56999999999999</ele>
        <time>2025-04-24T07:19:35Z</time>
      </trkpt>
      <trkpt lat="46.285299975425005" lon="5.084549970924854">
        <ele>226.05000000000001</ele>
        <time>2025-04-24T07:19:36Z</time>
      </trkpt>
      <trkpt lat="46.285248007625341" lon="5.084558017551899">
        <ele>226.53</ele>
        <time>2025-04-24T07:19:37Z</time>
      </trkpt>
      <trkpt lat="46.285212971270084" lon="5.08456296287477">
        <ele>226.53</ele>
        <time>2025-04-24T07:19:38Z</time>
      </trkpt>
      <trkpt lat="46.285195033997297" lon="5.084636975079775">
        <ele>226.53</ele>
        <time>2025-04-24T07:19:39Z</time>
      </trkpt>
      <trkpt lat="46.285207020118833" lon="5.084722973406315">
        <ele>226.53</ele>
        <time>2025-04-24T07:19:40Z</time>
      </trkpt>
      <trkpt lat="46.285220012068748" lon="5.084823975339532">
        <ele>226.53</ele>
        <time>2025-04-24T07:19:41Z</time>
      </trkpt>
      <trkpt lat="46.285236021503806" lon="5.084944004192948">
        <ele>226.53</ele>
        <time>2025-04-24T07:19:42Z</time>
      </trkpt>
      <trkpt lat="46.285277009010315" lon="5.085256984457374">
        <ele>226.53</ele>
        <time>2025-04-24T07:19:44Z</time>
      </trkpt>
      <trkpt lat="46.285230992361903" lon="5.086792968213558">
        <ele>227.49000000000001</ele>
        <time>2025-04-24T07:19:52Z</time>
      </trkpt>
      <trkpt lat="46.285258987918496" lon="5.086991032585502">
        <ele>227.49000000000001</ele>
        <time>2025-04-24T07:19:53Z</time>
      </trkpt>
      <trkpt lat="46.285396032035351" lon="5.087780021131039">
        <ele>227.49000000000001</ele>
        <time>2025-04-24T07:19:57Z</time>
      </trkpt>
      <trkpt lat="46.285396032035351" lon="5.087980013340712">
        <ele>227.49000000000001</ele>
        <time>2025-04-24T07:19:58Z</time>
      </trkpt>
      <trkpt lat="46.285358984023333" lon="5.089604007080197">
        <ele>228.44999999999999</ele>
        <time>2025-04-24T07:20:06Z</time>
      </trkpt>
      <trkpt lat="46.285392008721828" lon="5.089788995683193">
        <ele>227.97</ele>
        <time>2025-04-24T07:20:07Z</time>
      </trkpt>
      <trkpt lat="46.285443976521492" lon="5.08999602869153">
        <ele>227.97</ele>
        <time>2025-04-24T07:20:08Z</time>
      </trkpt>
      <trkpt lat="46.285885032266378" lon="5.091085005551577">
        <ele>227.97</ele>
        <time>2025-04-24T07:20:14Z</time>
      </trkpt>
      <trkpt lat="46.285901963710785" lon="5.091301007196307">
        <ele>228.44999999999999</ele>
        <time>2025-04-24T07:20:15Z</time>
      </trkpt>
      <trkpt lat="46.28591001033783" lon="5.091518014669418">
        <ele>228.44999999999999</ele>
        <time>2025-04-24T07:20:16Z</time>
      </trkpt>
      <trkpt lat="46.285937000066042" lon="5.092206001281738">
        <ele>228.44999999999999</ele>
        <time>2025-04-24T07:20:19Z</time>
      </trkpt>
      <trkpt lat="46.285978993400931" lon="5.092428959906101">
        <ele>228.44999999999999</ele>
        <time>2025-04-24T07:20:20Z</time>
      </trkpt>
      <trkpt lat="46.286020986735821" lon="5.092657031491399">
        <ele>228.44999999999999</ele>
        <time>2025-04-24T07:20:21Z</time>
      </trkpt>
      <trkpt lat="46.286323992535472" lon="5.094559974968433">
        <ele>225.09</ele>
        <time>2025-04-24T07:20:29Z</time>
      </trkpt>
      <trkpt lat="46.28629800863564" lon="5.09476700797677">
        <ele>225.09</ele>
        <time>2025-04-24T07:20:30Z</time>
      </trkpt>
      <trkpt lat="46.286259032785892" lon="5.094974040985107">
        <ele>224.61000000000001</ele>
        <time>2025-04-24T07:20:31Z</time>
      </trkpt>
      <trkpt lat="46.286178985610604" lon="5.095192976295948">
        <ele>224.12</ele>
        <time>2025-04-24T07:20:32Z</time>
      </trkpt>
      <trkpt lat="46.286097010597587" lon="5.095416018739343">
        <ele>223.63999999999999</ele>
        <time>2025-04-24T07:20:33Z</time>
      </trkpt>
      <trkpt lat="46.286013023927808" lon="5.09564702399075">
        <ele>223.16</ele>
        <time>2025-04-24T07:20:34Z</time>
      </trkpt>
      <trkpt lat="46.28530902788043" lon="5.097303036600351">
        <ele>218.84</ele>
        <time>2025-04-24T07:20:41Z</time>
      </trkpt>
      <trkpt lat="46.284483997151256" lon="5.098995007574558">
        <ele>223.16</ele>
        <time>2025-04-24T07:20:49Z</time>
      </trkpt>
      <trkpt lat="46.284419037401676" lon="5.099194999784231">
        <ele>223.63999999999999</ele>
        <time>2025-04-24T07:20:50Z</time>
      </trkpt>
      <trkpt lat="46.284367991611362" lon="5.099393986165524">
        <ele>224.12</ele>
        <time>2025-04-24T07:20:51Z</time>
      </trkpt>
      <trkpt lat="46.284318035468459" lon="5.099587021395564">
        <ele>224.61000000000001</ele>
        <time>2025-04-24T07:20:52Z</time>
      </trkpt>
      <trkpt lat="46.284317029640079" lon="5.099777039140463">
        <ele>225.09</ele>
        <time>2025-04-24T07:20:53Z</time>
      </trkpt>
      <trkpt lat="46.284332033246756" lon="5.099993962794542">
        <ele>224.61000000000001</ele>
        <time>2025-04-24T07:20:54Z</time>
      </trkpt>
      <trkpt lat="46.284349970519543" lon="5.100231003016233">
        <ele>224.12</ele>
        <time>2025-04-24T07:20:55Z</time>
      </trkpt>
      <trkpt lat="46.284387018531561" lon="5.100464019924402">
        <ele>223.63999999999999</ele>
        <time>2025-04-24T07:20:56Z</time>
      </trkpt>
      <trkpt lat="46.284577958285809" lon="5.101519972085953">
        <ele>222.68000000000001</ele>
        <time>2025-04-24T07:21:00Z</time>
      </trkpt>
      <trkpt lat="46.284647025167942" lon="5.101777967065573">
        <ele>222.68000000000001</ele>
        <time>2025-04-24T07:21:01Z</time>
      </trkpt>
      <trkpt lat="46.284812986850739" lon="5.102509036660194">
        <ele>222.19999999999999</ele>
        <time>2025-04-24T07:21:04Z</time>
      </trkpt>
      <trkpt lat="46.28483503125608" lon="5.102754961699247">
        <ele>222.19999999999999</ele>
        <time>2025-04-24T07:21:05Z</time>
      </trkpt>
      <trkpt lat="46.28483603708446" lon="5.103013962507248">
        <ele>222.68000000000001</ele>
        <time>2025-04-24T07:21:06Z</time>
      </trkpt>
      <trkpt lat="46.284776022657752" lon="5.104319024831057">
        <ele>224.61000000000001</ele>
        <time>2025-04-24T07:21:11Z</time>
      </trkpt>
      <trkpt lat="46.284711984917521" lon="5.104553969576955">
        <ele>225.09</ele>
        <time>2025-04-24T07:21:12Z</time>
      </trkpt>
      <trkpt lat="46.284586004912853" lon="5.10501598007977">
        <ele>224.61000000000001</ele>
        <time>2025-04-24T07:21:14Z</time>
      </trkpt>
      <trkpt lat="46.284545017406344" lon="5.105277998372912">
        <ele>224.61000000000001</ele>
        <time>2025-04-24T07:21:15Z</time>
      </trkpt>
      <trkpt lat="46.284506963565946" lon="5.105528030544519">
        <ele>224.61000000000001</ele>
        <time>2025-04-24T07:21:16Z</time>
      </trkpt>
      <trkpt lat="46.284505035728216" lon="5.105784013867378">
        <ele>224.12</ele>
        <time>2025-04-24T07:21:17Z</time>
      </trkpt>
      <trkpt lat="46.284511992707849" lon="5.106043014675379">
        <ele>224.12</ele>
        <time>2025-04-24T07:21:18Z</time>
      </trkpt>
      <trkpt lat="46.284393975511193" lon="5.108052995055914">
        <ele>218.84</ele>
        <time>2025-04-24T07:21:26Z</time>
      </trkpt>
      <trkpt lat="46.284334966912866" lon="5.108266985043883">
        <ele>217.88</ele>
        <time>2025-04-24T07:21:27Z</time>
      </trkpt>
      <trkpt lat="46.284273024648428" lon="5.108490027487278">
        <ele>216.91</ele>
        <time>2025-04-24T07:21:28Z</time>
      </trkpt>
      <trkpt lat="46.284185014665127" lon="5.108705023303628">
        <ele>215.94999999999999</ele>
        <time>2025-04-24T07:21:29Z</time>
      </trkpt>
      <trkpt lat="46.284071020781994" lon="5.108910966664553">
        <ele>214.99000000000001</ele>
        <time>2025-04-24T07:21:30Z</time>
      </trkpt>
      <trkpt lat="46.283954009413719" lon="5.109125962480903">
        <ele>214.99000000000001</ele>
        <time>2025-04-24T07:21:31Z</time>
      </trkpt>
      <trkpt lat="46.283470038324594" lon="5.110122989863157">
        <ele>214.99000000000001</ele>
        <time>2025-04-24T07:21:36Z</time>
      </trkpt>
      <trkpt lat="46.283360989764333" lon="5.11025601066649">
        <ele>214.99000000000001</ele>
        <time>2025-04-24T07:21:37Z</time>
      </trkpt>
      <trkpt lat="46.283254958689213" lon="5.110379979014397">
        <ele>215.47</ele>
        <time>2025-04-24T07:21:38Z</time>
      </trkpt>
      <trkpt lat="46.283136019483209" lon="5.110490033403039">
        <ele>215.47</ele>
        <time>2025-04-24T07:21:39Z</time>
      </trkpt>
      <trkpt lat="46.283015990629792" lon="5.110602015629411">
        <ele>215.94999999999999</ele>
        <time>2025-04-24T07:21:40Z</time>
      </trkpt>
      <trkpt lat="46.282761013135314" lon="5.11083897203207">
        <ele>217.40000000000001</ele>
        <time>2025-04-24T07:21:42Z</time>
      </trkpt>
      <trkpt lat="46.282632015645504" lon="5.110974004492164">
        <ele>218.36000000000001</ele>
        <time>2025-04-24T07:21:43Z</time>
      </trkpt>
      <trkpt lat="46.282083000987768" lon="5.111832981929183">
        <ele>222.19999999999999</ele>
        <time>2025-04-24T07:21:48Z</time>
      </trkpt>
      <trkpt lat="46.281989961862564" lon="5.111967008560896">
        <ele>223.16</ele>
        <time>2025-04-24T07:21:49Z</time>
      </trkpt>
      <trkpt lat="46.281879991292953" lon="5.112073039636016">
        <ele>223.63999999999999</ele>
        <time>2025-04-24T07:21:50Z</time>
      </trkpt>
      <trkpt lat="46.281769014894962" lon="5.112178986892104">
        <ele>224.12</ele>
        <time>2025-04-24T07:21:51Z</time>
      </trkpt>
      <trkpt lat="46.281662983819842" lon="5.112280994653702">
        <ele>224.12</ele>
        <time>2025-04-24T07:21:52Z</time>
      </trkpt>
      <trkpt lat="46.281252019107342" lon="5.112712997943163">
        <ele>225.56999999999999</ele>
        <time>2025-04-24T07:21:57Z</time>
      </trkpt>
      <trkpt lat="46.281202984973788" lon="5.112774018198252">
        <ele>226.05000000000001</ele>
        <time>2025-04-24T07:21:58Z</time>
      </trkpt>
      <trkpt lat="46.281192004680634" lon="5.112835960462689">
        <ele>226.05000000000001</ele>
        <time>2025-04-24T07:21:59Z</time>
      </trkpt>
      <trkpt lat="46.281186975538731" lon="5.112934028729796">
        <ele>226.05000000000001</ele>
        <time>2025-04-24T07:22:00Z</time>
      </trkpt>
      <trkpt lat="46.281181024387479" lon="5.113042993471026">
        <ele>226.05000000000001</ele>
        <time>2025-04-24T07:22:01Z</time>
      </trkpt>
      <trkpt lat="46.281173983588815" lon="5.113169979304075">
        <ele>226.05000000000001</ele>
        <time>2025-04-24T07:22:02Z</time>
      </trkpt>
      <trkpt lat="46.281196027994156" lon="5.113276010379195">
        <ele>226.53</ele>
        <time>2025-04-24T07:22:03Z</time>
      </trkpt>
      <trkpt lat="46.281222011893988" lon="5.113399978727102">
        <ele>226.53</ele>
        <time>2025-04-24T07:22:04Z</time>
      </trkpt>
      <trkpt lat="46.28142099827528" lon="5.114506976678968">
        <ele>226.53</ele>
        <time>2025-04-24T07:22:12Z</time>
      </trkpt>
      <trkpt lat="46.281409012153745" lon="5.114647038280964">
        <ele>226.53</ele>
        <time>2025-04-24T07:22:13Z</time>
      </trkpt>
      <trkpt lat="46.28135503269732" lon="5.115266963839531">
        <ele>226.05000000000001</ele>
        <time>2025-04-24T07:22:18Z</time>
      </trkpt>
      <trkpt lat="46.281344974413514" lon="5.115380035713315">
        <ele>226.05000000000001</ele>
        <time>2025-04-24T07:22:19Z</time>
      </trkpt>
      <trkpt lat="46.281384034082294" lon="5.11545698158443">
        <ele>226.05000000000001</ele>
        <time>2025-04-24T07:22:20Z</time>
      </trkpt>
      <trkpt lat="46.281423009932041" lon="5.115552032366395">
        <ele>226.05000000000001</ele>
        <time>2025-04-24T07:22:21Z</time>
      </trkpt>
      <trkpt lat="46.281460979953408" lon="5.115646999329329">
        <ele>225.56999999999999</ele>
        <time>2025-04-24T07:22:22Z</time>
      </trkpt>
      <trkpt lat="46.281698020175099" lon="5.116281006485224">
        <ele>223.16</ele>
        <time>2025-04-24T07:22:29Z</time>
      </trkpt>
      <trkpt lat="46.281710006296635" lon="5.11635803617537">
        <ele>222.68000000000001</ele>
        <time>2025-04-24T07:22:30Z</time>
      </trkpt>
      <trkpt lat="46.281731966882944" lon="5.116496002301574">
        <ele>221.72</ele>
        <time>2025-04-24T07:22:32Z</time>
      </trkpt>
      <trkpt lat="46.281731966882944" lon="5.116599015891552">
        <ele>221.24000000000001</ele>
        <time>2025-04-24T07:22:33Z</time>
      </trkpt>
      <trkpt lat="46.281731966882944" lon="5.116786016151309">
        <ele>220.28</ele>
        <time>2025-04-24T07:22:35Z</time>
      </trkpt>
      <trkpt lat="46.281731966882944" lon="5.117063038051128">
        <ele>219.31999999999999</ele>
        <time>2025-04-24T07:22:38Z</time>
      </trkpt>
      <trkpt lat="46.281731966882944" lon="5.117159010842443">
        <ele>218.84</ele>
        <time>2025-04-24T07:22:39Z</time>
      </trkpt>
      <trkpt lat="46.281740013509989" lon="5.117792012169957">
        <ele>216.91</ele>
        <time>2025-04-24T07:22:45Z</time>
      </trkpt>
      <trkpt lat="46.281751999631524" lon="5.117898965254426">
        <ele>216.91</ele>
        <time>2025-04-24T07:22:46Z</time>
      </trkpt>
      <trkpt lat="46.281770020723343" lon="5.11801497079432">
        <ele>216.91</ele>
        <time>2025-04-24T07:22:47Z</time>
      </trkpt>
      <trkpt lat="46.281811008229852" lon="5.118261985480785">
        <ele>216.91</ele>
        <time>2025-04-24T07:22:49Z</time>
      </trkpt>
      <trkpt lat="46.281832968816161" lon="5.118376985192299">
        <ele>216.91</ele>
        <time>2025-04-24T07:22:50Z</time>
      </trkpt>
      <trkpt lat="46.28202298656106" lon="5.119478031992912">
        <ele>214.50999999999999</ele>
        <time>2025-04-24T07:22:58Z</time>
      </trkpt>
      <trkpt lat="46.282023992389441" lon="5.119698978960514">
        <ele>214.03</ele>
        <time>2025-04-24T07:22:59Z</time>
      </trkpt>
      <trkpt lat="46.282013012096286" lon="5.119925038889051">
        <ele>213.55000000000001</ele>
        <time>2025-04-24T07:23:00Z</time>
      </trkpt>
      <trkpt lat="46.281989039853215" lon="5.120632974430919">
        <ele>214.03</ele>
        <time>2025-04-24T07:23:03Z</time>
      </trkpt>
      <trkpt lat="46.281989039853215" lon="5.120879989117384">
        <ele>214.50999999999999</ele>
        <time>2025-04-24T07:23:04Z</time>
      </trkpt>
      <trkpt lat="46.281956015154719" lon="5.121617009863257">
        <ele>216.43000000000001</ele>
        <time>2025-04-24T07:23:07Z</time>
      </trkpt>
      <trkpt lat="46.281918967142701" lon="5.12183602899313">
        <ele>216.91</ele>
        <time>2025-04-24T07:23:08Z</time>
      </trkpt>
      <trkpt lat="46.281866999343038" lon="5.122039038687944">
        <ele>217.88</ele>
        <time>2025-04-24T07:23:09Z</time>
      </trkpt>
      <trkpt lat="46.281713023781776" lon="5.122627029195428">
        <ele>220.28</ele>
        <time>2025-04-24T07:23:12Z</time>
      </trkpt>
      <trkpt lat="46.281664995476604" lon="5.122834984213114">
        <ele>221.24000000000001</ele>
        <time>2025-04-24T07:23:13Z</time>
      </trkpt>
      <trkpt lat="46.281650997698307" lon="5.123051991686225">
        <ele>222.19999999999999</ele>
        <time>2025-04-24T07:23:14Z</time>
      </trkpt>
      <trkpt lat="46.281625013798475" lon="5.123463040217757">
        <ele>224.12</ele>
        <time>2025-04-24T07:23:16Z</time>
      </trkpt>
      <trkpt lat="46.28157296217978" lon="5.12362296693027">
        <ele>225.09</ele>
        <time>2025-04-24T07:23:17Z</time>
      </trkpt>
      <trkpt lat="46.281524011865258" lon="5.123769985511899">
        <ele>225.56999999999999</ele>
        <time>2025-04-24T07:23:18Z</time>
      </trkpt>
      <trkpt lat="46.281444970518351" lon="5.123910969123244">
        <ele>226.53</ele>
        <time>2025-04-24T07:23:19Z</time>
      </trkpt>
      <trkpt lat="46.281338017433882" lon="5.12402999214828">
        <ele>226.53</ele>
        <time>2025-04-24T07:23:20Z</time>
      </trkpt>
      <trkpt lat="46.28122896887362" lon="5.124149015173316">
        <ele>227.00999999999999</ele>
        <time>2025-04-24T07:23:21Z</time>
      </trkpt>
      <trkpt lat="46.28112000413239" lon="5.124268960207701">
        <ele>227.49000000000001</ele>
        <time>2025-04-24T07:23:22Z</time>
      </trkpt>
      <trkpt lat="46.280988994985819" lon="5.124341966584325">
        <ele>227.49000000000001</ele>
        <time>2025-04-24T07:23:23Z</time>
      </trkpt>
      <trkpt lat="46.280863014981151" lon="5.124363005161285">
        <ele>227.97</ele>
        <time>2025-04-24T07:23:24Z</time>
      </trkpt>
      <trkpt lat="46.28073301166296" lon="5.124385971575975">
        <ele>227.97</ele>
        <time>2025-04-24T07:23:25Z</time>
      </trkpt>
      <trkpt lat="46.280596973374486" lon="5.124410027638078">
        <ele>228.44999999999999</ele>
        <time>2025-04-24T07:23:26Z</time>
      </trkpt>
      <trkpt lat="46.27965996041894" lon="5.124704986810684">
        <ele>227.49000000000001</ele>
        <time>2025-04-24T07:23:33Z</time>
      </trkpt>
      <trkpt lat="46.279585026204586" lon="5.12478000484407">
        <ele>227.49000000000001</ele>
        <time>2025-04-24T07:23:34Z</time>
      </trkpt>
      <trkpt lat="46.279520988464355" lon="5.124847982078791">
        <ele>227.49000000000001</ele>
        <time>2025-04-24T07:23:35Z</time>
      </trkpt>
      <trkpt lat="46.279492992907763" lon="5.124986032024026">
        <ele>227.00999999999999</ele>
        <time>2025-04-24T07:23:36Z</time>
      </trkpt>
      <trkpt lat="46.279473965987563" lon="5.125143025070429">
        <ele>226.53</ele>
        <time>2025-04-24T07:23:37Z</time>
      </trkpt>
      <trkpt lat="46.279463991522789" lon="5.125324996188283">
        <ele>225.56999999999999</ele>
        <time>2025-04-24T07:23:38Z</time>
      </trkpt>
      <trkpt lat="46.279461979866028" lon="5.125519959256053">
        <ele>224.61000000000001</ele>
        <time>2025-04-24T07:23:39Z</time>
      </trkpt>
      <trkpt lat="46.279612015932798" lon="5.127701014280319">
        <ele>220.75999999999999</ele>
        <time>2025-04-24T07:23:48Z</time>
      </trkpt>
      <trkpt lat="46.279919967055321" lon="5.13002104125917">
        <ele>218.36000000000001</ele>
        <time>2025-04-24T07:23:57Z</time>
      </trkpt>
      <trkpt lat="46.280229007825255" lon="5.131906969472766">
        <ele>221.72</ele>
        <time>2025-04-24T07:24:05Z</time>
      </trkpt>
      <trkpt lat="46.280244011431932" lon="5.132155995815992">
        <ele>222.68000000000001</ele>
        <time>2025-04-24T07:24:06Z</time>
      </trkpt>
      <trkpt lat="46.280246023088694" lon="5.132379960268736">
        <ele>224.12</ele>
        <time>2025-04-24T07:24:07Z</time>
      </trkpt>
      <trkpt lat="46.280231019482017" lon="5.132739963009954">
        <ele>224.61000000000001</ele>
        <time>2025-04-24T07:24:09Z</time>
      </trkpt>
      <trkpt lat="46.280182991176844" lon="5.132854040712118">
        <ele>225.09</ele>
        <time>2025-04-24T07:24:10Z</time>
      </trkpt>
      <trkpt lat="46.280127000063658" lon="5.132967028766871">
        <ele>225.09</ele>
        <time>2025-04-24T07:24:11Z</time>
      </trkpt>
      <trkpt lat="46.280037984251976" lon="5.133045986294746">
        <ele>225.09</ele>
        <time>2025-04-24T07:24:12Z</time>
      </trkpt>
      <trkpt lat="46.279926002025604" lon="5.133139025419951">
        <ele>225.09</ele>
        <time>2025-04-24T07:24:13Z</time>
      </trkpt>
      <trkpt lat="46.279794992879033" lon="5.133215971291065">
        <ele>224.61000000000001</ele>
        <time>2025-04-24T07:24:14Z</time>
      </trkpt>
      <trkpt lat="46.279649985954165" lon="5.133269028738141">
        <ele>224.61000000000001</ele>
        <time>2025-04-24T07:24:15Z</time>
      </trkpt>
      <trkpt lat="46.278697969391942" lon="5.133619979023933">
        <ele>225.56999999999999</ele>
        <time>2025-04-24T07:24:22Z</time>
      </trkpt>
      <trkpt lat="46.278564026579261" lon="5.133670018985868">
        <ele>226.05000000000001</ele>
        <time>2025-04-24T07:24:23Z</time>
      </trkpt>
      <trkpt lat="46.278446009382606" lon="5.133723998442292">
        <ele>226.05000000000001</ele>
        <time>2025-04-24T07:24:24Z</time>
      </trkpt>
      <trkpt lat="46.278353976085782" lon="5.133794993162155">
        <ele>225.56999999999999</ele>
        <time>2025-04-24T07:24:25Z</time>
      </trkpt>
      <trkpt lat="46.278269989416003" lon="5.133875962346792">
        <ele>225.56999999999999</ele>
        <time>2025-04-24T07:24:26Z</time>
      </trkpt>
      <trkpt lat="46.278226990252733" lon="5.134016023948789">
        <ele>225.56999999999999</ele>
        <time>2025-04-24T07:24:27Z</time>
      </trkpt>
      <trkpt lat="46.278179967775941" lon="5.134163964539766">
        <ele>225.56999999999999</ele>
        <time>2025-04-24T07:24:28Z</time>
      </trkpt>
      <trkpt lat="46.27813302911818" lon="5.134316012263298">
        <ele>225.56999999999999</ele>
        <time>2025-04-24T07:24:29Z</time>
      </trkpt>
      <trkpt lat="46.278087012469769" lon="5.134464958682656">
        <ele>226.05000000000001</ele>
        <time>2025-04-24T07:24:30Z</time>
      </trkpt>
      <trkpt lat="46.27802599221468" lon="5.13459999114275">
        <ele>226.53</ele>
        <time>2025-04-24T07:24:31Z</time>
      </trkpt>
      <trkpt lat="46.277944017201662" lon="5.134727982804179">
        <ele>227.00999999999999</ele>
        <time>2025-04-24T07:24:32Z</time>
      </trkpt>
      <trkpt lat="46.277857013046741" lon="5.134864021092653">
        <ele>227.49000000000001</ele>
        <time>2025-04-24T07:24:33Z</time>
      </trkpt>
      <trkpt lat="46.27688898704946" lon="5.136332027614117">
        <ele>228.93000000000001</ele>
        <time>2025-04-24T07:24:42Z</time>
      </trkpt>
      <trkpt lat="46.275526005774736" lon="5.138675021007657">
        <ele>227.00999999999999</ele>
        <time>2025-04-24T07:24:55Z</time>
      </trkpt>
      <trkpt lat="46.274936003610492" lon="5.139659978449345">
        <ele>227.00999999999999</ele>
        <time>2025-04-24T07:25:00Z</time>
      </trkpt>
      <trkpt lat="46.274798037484288" lon="5.139784030616283">
        <ele>227.00999999999999</ele>
        <time>2025-04-24T07:25:01Z</time>
      </trkpt>
      <trkpt lat="46.274657975882292" lon="5.139909004792571">
        <ele>226.53</ele>
        <time>2025-04-24T07:25:02Z</time>
      </trkpt>
      <trkpt lat="46.274199988692999" lon="5.140318041667342">
        <ele>226.05000000000001</ele>
        <time>2025-04-24T07:25:05Z</time>
      </trkpt>
      <trkpt lat="46.274060010910034" lon="5.140477968379855">
        <ele>226.53</ele>
        <time>2025-04-24T07:25:06Z</time>
      </trkpt>
      <trkpt lat="46.27392296679318" lon="5.140649965032935">
        <ele>227.00999999999999</ele>
        <time>2025-04-24T07:25:07Z</time>
      </trkpt>
      <trkpt lat="46.273792963474989" lon="5.14083101414144">
        <ele>227.00999999999999</ele>
        <time>2025-04-24T07:25:08Z</time>
      </trkpt>
      <trkpt lat="46.273692967370152" lon="5.141038969159126">
        <ele>227.49000000000001</ele>
        <time>2025-04-24T07:25:09Z</time>
      </trkpt>
      <trkpt lat="46.2735990062356" lon="5.14123703353107">
        <ele>227.49000000000001</ele>
        <time>2025-04-24T07:25:10Z</time>
      </trkpt>
      <trkpt lat="46.27351401373744" lon="5.141483964398503">
        <ele>227.49000000000001</ele>
        <time>2025-04-24T07:25:11Z</time>
      </trkpt>
      <trkpt lat="46.273432038724422" lon="5.141718992963433">
        <ele>227.49000000000001</ele>
        <time>2025-04-24T07:25:12Z</time>
      </trkpt>
      <trkpt lat="46.272935997694731" lon="5.143656972795725">
        <ele>226.05000000000001</ele>
        <time>2025-04-24T07:25:20Z</time>
      </trkpt>
      <trkpt lat="46.272746985778213" lon="5.144352000206709">
        <ele>226.05000000000001</ele>
        <time>2025-04-24T07:25:23Z</time>
      </trkpt>
      <trkpt lat="46.272669034078717" lon="5.144575964659452">
        <ele>226.05000000000001</ele>
        <time>2025-04-24T07:25:24Z</time>
      </trkpt>
      <trkpt lat="46.272550011053681" lon="5.144765982404351">
        <ele>226.05000000000001</ele>
        <time>2025-04-24T07:25:25Z</time>
      </trkpt>
      <trkpt lat="46.272431993857026" lon="5.144952982664108">
        <ele>226.05000000000001</ele>
        <time>2025-04-24T07:25:26Z</time>
      </trkpt>
      <trkpt lat="46.272315988317132" lon="5.145139982923865">
        <ele>226.05000000000001</ele>
        <time>2025-04-24T07:25:27Z</time>
      </trkpt>
      <trkpt lat="46.272197971120477" lon="5.145327989012003">
        <ele>225.56999999999999</ele>
        <time>2025-04-24T07:25:28Z</time>
      </trkpt>
      <trkpt lat="46.27209504134953" lon="5.145528987050057">
        <ele>225.56999999999999</ele>
        <time>2025-04-24T07:25:29Z</time>
      </trkpt>
      <trkpt lat="46.2720119766891" lon="5.14572998508811">
        <ele>225.56999999999999</ele>
        <time>2025-04-24T07:25:30Z</time>
      </trkpt>
      <trkpt lat="46.271931007504463" lon="5.14592201448977">
        <ele>225.09</ele>
        <time>2025-04-24T07:25:31Z</time>
      </trkpt>
      <trkpt lat="46.271851966157556" lon="5.146112032234669">
        <ele>225.09</ele>
        <time>2025-04-24T07:25:32Z</time>
      </trkpt>
      <trkpt lat="46.27177401445806" lon="5.146298026666045">
        <ele>225.09</ele>
        <time>2025-04-24T07:25:33Z</time>
      </trkpt>
      <trkpt lat="46.271680975332856" lon="5.146484021097422">
        <ele>225.09</ele>
        <time>2025-04-24T07:25:34Z</time>
      </trkpt>
      <trkpt lat="46.271563963964581" lon="5.146614024415612">
        <ele>225.09</ele>
        <time>2025-04-24T07:25:35Z</time>
      </trkpt>
      <trkpt lat="46.271191975101829" lon="5.147028006613255">
        <ele>225.56999999999999</ele>
        <time>2025-04-24T07:25:38Z</time>
      </trkpt>
      <trkpt lat="46.271096002310514" lon="5.14719296246767">
        <ele>225.56999999999999</ele>
        <time>2025-04-24T07:25:39Z</time>
      </trkpt>
      <trkpt lat="46.271026013419032" lon="5.147389015182853">
        <ele>226.05000000000001</ele>
        <time>2025-04-24T07:25:40Z</time>
      </trkpt>
      <trkpt lat="46.270888969302177" lon="5.147769972681999">
        <ele>226.05000000000001</ele>
        <time>2025-04-24T07:25:42Z</time>
      </trkpt>
      <trkpt lat="46.270805988460779" lon="5.147958984598517">
        <ele>226.05000000000001</ele>
        <time>2025-04-24T07:25:43Z</time>
      </trkpt>
      <trkpt lat="46.270681014284492" lon="5.148098040372133">
        <ele>226.53</ele>
        <time>2025-04-24T07:25:44Z</time>
      </trkpt>
      <trkpt lat="46.269774008542299" lon="5.149218030273914">
        <ele>227.97</ele>
        <time>2025-04-24T07:25:51Z</time>
      </trkpt>
      <trkpt lat="46.26968901604414" lon="5.149397989735007">
        <ele>227.97</ele>
        <time>2025-04-24T07:25:52Z</time>
      </trkpt>
      <trkpt lat="46.26960402354598" lon="5.149595970287919">
        <ele>228.44999999999999</ele>
        <time>2025-04-24T07:25:53Z</time>
      </trkpt>
      <trkpt lat="46.269206972792745" lon="5.151073029264808">
        <ele>230.84999999999999</ele>
        <time>2025-04-24T07:26:00Z</time>
      </trkpt>
      <trkpt lat="46.269171014428139" lon="5.152986031025648">
        <ele>231.81</ele>
        <time>2025-04-24T07:26:08Z</time>
      </trkpt>
      <trkpt lat="46.26917595975101" lon="5.153157021850348">
        <ele>231.81</ele>
        <time>2025-04-24T07:26:09Z</time>
      </trkpt>
      <trkpt lat="46.269163973629475" lon="5.153284007683396">
        <ele>231.81</ele>
        <time>2025-04-24T07:26:10Z</time>
      </trkpt>
      <trkpt lat="46.269111000001431" lon="5.153405964374542">
        <ele>231.81</ele>
        <time>2025-04-24T07:26:11Z</time>
      </trkpt>
      <trkpt lat="46.269027013331652" lon="5.153459021821618">
        <ele>231.81</ele>
        <time>2025-04-24T07:26:12Z</time>
      </trkpt>
      <trkpt lat="46.268932968378067" lon="5.15348601154983">
        <ele>231.81</ele>
        <time>2025-04-24T07:26:13Z</time>
      </trkpt>
      <trkpt lat="46.268818974494934" lon="5.153448963537812">
        <ele>231.81</ele>
        <time>2025-04-24T07:26:14Z</time>
      </trkpt>
      <trkpt lat="46.268696011975408" lon="5.153402024880052">
        <ele>231.81</ele>
        <time>2025-04-24T07:26:15Z</time>
      </trkpt>
      <trkpt lat="46.268559973686934" lon="5.153348967432976">
        <ele>231.81</ele>
        <time>2025-04-24T07:26:16Z</time>
      </trkpt>
      <trkpt lat="46.268108021467924" lon="5.153194991871715">
        <ele>231.81</ele>
        <time>2025-04-24T07:26:19Z</time>
      </trkpt>
      <trkpt lat="46.267956979572773" lon="5.153216030448675">
        <ele>231.81</ele>
        <time>2025-04-24T07:26:20Z</time>
      </trkpt>
      <trkpt lat="46.267811972647905" lon="5.153236985206604">
        <ele>231.81</ele>
        <time>2025-04-24T07:26:21Z</time>
      </trkpt>
      <trkpt lat="46.267697978764772" lon="5.153252994641662">
        <ele>232.30000000000001</ele>
        <time>2025-04-24T07:26:22Z</time>
      </trkpt>
      <trkpt lat="46.267591025680304" lon="5.153369000181556">
        <ele>232.30000000000001</ele>
        <time>2025-04-24T07:26:23Z</time>
      </trkpt>
      <trkpt lat="46.267492035403848" lon="5.153476037085056">
        <ele>232.30000000000001</ele>
        <time>2025-04-24T07:26:24Z</time>
      </trkpt>
      <trkpt lat="46.267397990450263" lon="5.153612997382879">
        <ele>231.81</ele>
        <time>2025-04-24T07:26:25Z</time>
      </trkpt>
      <trkpt lat="46.267307968810201" lon="5.153784994035959">
        <ele>231.81</ele>
        <time>2025-04-24T07:26:26Z</time>
      </trkpt>
      <trkpt lat="46.267012003809214" lon="5.154347000643611">
        <ele>229.88999999999999</ele>
        <time>2025-04-24T07:26:29Z</time>
      </trkpt>
      <trkpt lat="46.266879988834262" lon="5.154464012011886">
        <ele>228.93000000000001</ele>
        <time>2025-04-24T07:26:30Z</time>
      </trkpt>
      <trkpt lat="46.266718972474337" lon="5.154564008116722">
        <ele>227.97</ele>
        <time>2025-04-24T07:26:31Z</time>
      </trkpt>
      <trkpt lat="46.265855971723795" lon="5.154991988092661">
        <ele>223.63999999999999</ele>
        <time>2025-04-24T07:26:36Z</time>
      </trkpt>
      <trkpt lat="46.265703001990914" lon="5.15511997975409">
        <ele>223.16</ele>
        <time>2025-04-24T07:26:37Z</time>
      </trkpt>
      <trkpt lat="46.265581967309117" lon="5.155301028862596">
        <ele>223.16</ele>
        <time>2025-04-24T07:26:38Z</time>
      </trkpt>
      <trkpt lat="46.265465039759874" lon="5.155519964173436">
        <ele>223.63999999999999</ele>
        <time>2025-04-24T07:26:39Z</time>
      </trkpt>
      <trkpt lat="46.265354985371232" lon="5.155755998566747">
        <ele>224.12</ele>
        <time>2025-04-24T07:26:40Z</time>
      </trkpt>
      <trkpt lat="46.264171963557601" lon="5.158404009416699">
        <ele>229.88999999999999</ele>
        <time>2025-04-24T07:26:51Z</time>
      </trkpt>
      <trkpt lat="46.263925032690167" lon="5.159083027392626">
        <ele>229.88999999999999</ele>
        <time>2025-04-24T07:26:54Z</time>
      </trkpt>
      <trkpt lat="46.263623032718897" lon="5.160583974793553">
        <ele>230.37</ele>
        <time>2025-04-24T07:27:00Z</time>
      </trkpt>
      <trkpt lat="46.263597970828414" lon="5.160846998915076">
        <ele>230.84999999999999</ele>
        <time>2025-04-24T07:27:01Z</time>
      </trkpt>
      <trkpt lat="46.263538040220737" lon="5.161334993317723">
        <ele>231.33000000000001</ele>
        <time>2025-04-24T07:27:03Z</time>
      </trkpt>
      <trkpt lat="46.263471990823746" lon="5.161532973870635">
        <ele>232.30000000000001</ele>
        <time>2025-04-24T07:27:04Z</time>
      </trkpt>
      <trkpt lat="46.263389009982347" lon="5.161725003272295">
        <ele>232.78</ele>
        <time>2025-04-24T07:27:05Z</time>
      </trkpt>
      <trkpt lat="46.263294965028763" lon="5.161920972168446">
        <ele>233.25999999999999</ele>
        <time>2025-04-24T07:27:06Z</time>
      </trkpt>
      <trkpt lat="46.263198992237449" lon="5.162118030712009">
        <ele>233.25999999999999</ele>
        <time>2025-04-24T07:27:07Z</time>
      </trkpt>
      <trkpt lat="46.263110982254148" lon="5.162321040406823">
        <ele>232.78</ele>
        <time>2025-04-24T07:27:08Z</time>
      </trkpt>
      <trkpt lat="46.263041999191046" lon="5.162543999031186">
        <ele>232.78</ele>
        <time>2025-04-24T07:27:09Z</time>
      </trkpt>
      <trkpt lat="46.263028001412749" lon="5.162790007889271">
        <ele>232.78</ele>
        <time>2025-04-24T07:27:10Z</time>
      </trkpt>
      <trkpt lat="46.263015009462833" lon="5.163037022575736">
        <ele>232.78</ele>
        <time>2025-04-24T07:27:11Z</time>
      </trkpt>
      <trkpt lat="46.262999000027776" lon="5.163316978141666">
        <ele>232.78</ele>
        <time>2025-04-24T07:27:12Z</time>
      </trkpt>
      <trkpt lat="46.263014003634453" lon="5.163533985614777">
        <ele>232.78</ele>
        <time>2025-04-24T07:27:13Z</time>
      </trkpt>
      <trkpt lat="46.263062031939626" lon="5.164810968562961">
        <ele>234.22</ele>
        <time>2025-04-24T07:27:18Z</time>
      </trkpt>
      <trkpt lat="46.263028001412749" lon="5.165047002956271">
        <ele>234.69999999999999</ele>
        <time>2025-04-24T07:27:19Z</time>
      </trkpt>
      <trkpt lat="46.262989025563002" lon="5.165279014036059">
        <ele>234.69999999999999</ele>
        <time>2025-04-24T07:27:20Z</time>
      </trkpt>
      <trkpt lat="46.262921970337629" lon="5.165493004024029">
        <ele>234.69999999999999</ele>
        <time>2025-04-24T07:27:21Z</time>
      </trkpt>
      <trkpt lat="46.262847036123276" lon="5.165706994011998">
        <ele>234.69999999999999</ele>
        <time>2025-04-24T07:27:22Z</time>
      </trkpt>
      <trkpt lat="46.262755002826452" lon="5.165905980393291">
        <ele>234.69999999999999</ele>
        <time>2025-04-24T07:27:23Z</time>
      </trkpt>
      <trkpt lat="46.262114038690925" lon="5.167607003822923">
        <ele>235.66</ele>
        <time>2025-04-24T07:27:31Z</time>
      </trkpt>
      <trkpt lat="46.261969031766057" lon="5.168660022318363">
        <ele>236.13999999999999</ele>
        <time>2025-04-24T07:27:35Z</time>
      </trkpt>
      <trkpt lat="46.262042038142681" lon="5.170924980193377">
        <ele>236.62</ele>
        <time>2025-04-24T07:27:44Z</time>
      </trkpt>
      <trkpt lat="46.262212023139" lon="5.173479029908776">
        <ele>234.69999999999999</ele>
        <time>2025-04-24T07:27:55Z</time>
      </trkpt>
      <trkpt lat="46.262269020080566" lon="5.173644991591573">
        <ele>234.69999999999999</ele>
        <time>2025-04-24T07:27:56Z</time>
      </trkpt>
      <trkpt lat="46.262338003143668" lon="5.17378999851644">
        <ele>234.69999999999999</ele>
        <time>2025-04-24T07:27:57Z</time>
      </trkpt>
      <trkpt lat="46.262412015348673" lon="5.173926958814263">
        <ele>234.22</ele>
        <time>2025-04-24T07:27:58Z</time>
      </trkpt>
      <trkpt lat="46.262480998411775" lon="5.174056040123105">
        <ele>233.74000000000001</ele>
        <time>2025-04-24T07:27:59Z</time>
      </trkpt>
      <trkpt lat="46.262545036152005" lon="5.174173973500729">
        <ele>233.74000000000001</ele>
        <time>2025-04-24T07:28:00Z</time>
      </trkpt>
      <trkpt lat="46.262644026428461" lon="5.174404978752136">
        <ele>232.78</ele>
        <time>2025-04-24T07:28:02Z</time>
      </trkpt>
      <trkpt lat="46.262681996449828" lon="5.174511009827256">
        <ele>232.78</ele>
        <time>2025-04-24T07:28:03Z</time>
      </trkpt>
      <trkpt lat="46.262714015319943" lon="5.174601031467319">
        <ele>232.78</ele>
        <time>2025-04-24T07:28:04Z</time>
      </trkpt>
      <trkpt lat="46.262741005048156" lon="5.174674959853292">
        <ele>232.78</ele>
        <time>2025-04-24T07:28:05Z</time>
      </trkpt>
      <trkpt lat="46.262718038633466" lon="5.174838993698359">
        <ele>232.78</ele>
        <time>2025-04-24T07:28:06Z</time>
      </trkpt>
      <trkpt lat="46.262675039470196" lon="5.174865983426571">
        <ele>232.30000000000001</ele>
        <time>2025-04-24T07:28:07Z</time>
      </trkpt>
      <trkpt lat="46.262618964537978" lon="5.174902025610209">
        <ele>232.30000000000001</ele>
        <time>2025-04-24T07:28:08Z</time>
      </trkpt>
      <trkpt lat="46.262547969818115" lon="5.17494703643024">
        <ele>231.81</ele>
        <time>2025-04-24T07:28:09Z</time>
      </trkpt>
      <trkpt lat="46.261777002364397" lon="5.17542103305459">
        <ele>232.30000000000001</ele>
        <time>2025-04-24T07:28:16Z</time>
      </trkpt>
      <trkpt lat="46.260177986696362" lon="5.176352011039853">
        <ele>233.74000000000001</ele>
        <time>2025-04-24T07:28:27Z</time>
      </trkpt>
      <trkpt lat="46.259780013933778" lon="5.176555020734668">
        <ele>234.22</ele>
        <time>2025-04-24T07:28:31Z</time>
      </trkpt>
      <trkpt lat="46.259718993678689" lon="5.176586033776403">
        <ele>234.22</ele>
        <time>2025-04-24T07:28:32Z</time>
      </trkpt>
      <trkpt lat="46.259550014510751" lon="5.176483020186424">
        <ele>234.69999999999999</ele>
        <time>2025-04-24T07:28:34Z</time>
      </trkpt>
      <trkpt lat="46.259465022012591" lon="5.176501041278243">
        <ele>235.18000000000001</ele>
        <time>2025-04-24T07:28:35Z</time>
      </trkpt>
      <trkpt lat="46.25939603894949" lon="5.17655803821981">
        <ele>235.18000000000001</ele>
        <time>2025-04-24T07:28:36Z</time>
      </trkpt>
      <trkpt lat="46.259372988715768" lon="5.176791977137327">
        <ele>235.18000000000001</ele>
        <time>2025-04-24T07:28:37Z</time>
      </trkpt>
      <trkpt lat="46.259300988167524" lon="5.176863977685571">
        <ele>235.18000000000001</ele>
        <time>2025-04-24T07:28:38Z</time>
      </trkpt>
      <trkpt lat="46.259206021204591" lon="5.176959028467536">
        <ele>235.18000000000001</ele>
        <time>2025-04-24T07:28:39Z</time>
      </trkpt>
      <trkpt lat="46.25909898430109" lon="5.177064975723624">
        <ele>235.18000000000001</ele>
        <time>2025-04-24T07:28:40Z</time>
      </trkpt>
      <trkpt lat="46.258225003257394" lon="5.177865028381348">
        <ele>235.66</ele>
        <time>2025-04-24T07:28:46Z</time>
      </trkpt>
      <trkpt lat="46.256547030061483" lon="5.179348038509488">
        <ele>235.66</ele>
        <time>2025-04-24T07:28:55Z</time>
      </trkpt>
      <trkpt lat="46.253826012834907" lon="5.181668987497687">
        <ele>235.66</ele>
        <time>2025-04-24T07:29:11Z</time>
      </trkpt>
      <trkpt lat="46.251895995810628" lon="5.183291975408793">
        <ele>235.66</ele>
        <time>2025-04-24T07:29:23Z</time>
      </trkpt>
      <trkpt lat="46.250801989808679" lon="5.184260001406074">
        <ele>235.66</ele>
        <time>2025-04-24T07:29:31Z</time>
      </trkpt>
      <trkpt lat="46.249743020161986" lon="5.185136999934912">
        <ele>232.30000000000001</ele>
        <time>2025-04-24T07:29:39Z</time>
      </trkpt>
      <trkpt lat="46.249101972207427" lon="5.185679979622364">
        <ele>230.84999999999999</ele>
        <time>2025-04-24T07:29:46Z</time>
      </trkpt>
      <trkpt lat="46.248768037185073" lon="5.185955995693803">
        <ele>230.84999999999999</ele>
        <time>2025-04-24T07:29:51Z</time>
      </trkpt>
      <trkpt lat="46.248702993616462" lon="5.186010980978608">
        <ele>230.84999999999999</ele>
        <time>2025-04-24T07:29:52Z</time>
      </trkpt>
      <trkpt lat="46.248639039695263" lon="5.186065966263413">
        <ele>230.84999999999999</ele>
        <time>2025-04-24T07:29:53Z</time>
      </trkpt>
      <trkpt lat="46.24857097864151" lon="5.186123969033361">
        <ele>230.84999999999999</ele>
        <time>2025-04-24T07:29:54Z</time>
      </trkpt>
      <trkpt lat="46.248495960608125" lon="5.186187000945211">
        <ele>230.84999999999999</ele>
        <time>2025-04-24T07:29:55Z</time>
      </trkpt>
      <trkpt lat="46.248417003080249" lon="5.186253972351551">
        <ele>230.84999999999999</ele>
        <time>2025-04-24T07:29:56Z</time>
      </trkpt>
      <trkpt lat="46.248336033895612" lon="5.186323039233685">
        <ele>231.33000000000001</ele>
        <time>2025-04-24T07:29:57Z</time>
      </trkpt>
      <trkpt lat="46.247420981526375" lon="5.187134994193912">
        <ele>231.81</ele>
        <time>2025-04-24T07:30:06Z</time>
      </trkpt>
      <trkpt lat="46.24614299274981" lon="5.188279040157795">
        <ele>232.30000000000001</ele>
        <time>2025-04-24T07:30:16Z</time>
      </trkpt>
      <trkpt lat="46.244138041511178" lon="5.18999096006155">
        <ele>230.37</ele>
        <time>2025-04-24T07:30:29Z</time>
      </trkpt>
      <trkpt lat="46.242291005328298" lon="5.191573966294527">
        <ele>231.33000000000001</ele>
        <time>2025-04-24T07:30:41Z</time>
      </trkpt>
      <trkpt lat="46.23969404026866" lon="5.193816963583231">
        <ele>232.30000000000001</ele>
        <time>2025-04-24T07:30:57Z</time>
      </trkpt>
      <trkpt lat="46.237432016059756" lon="5.195743963122368">
        <ele>230.37</ele>
        <time>2025-04-24T07:31:11Z</time>
      </trkpt>
      <trkpt lat="46.235974989831448" lon="5.197092024609447">
        <ele>227.49000000000001</ele>
        <time>2025-04-24T07:31:21Z</time>
      </trkpt>
      <trkpt lat="46.234823986887932" lon="5.198232969269157">
        <ele>222.19999999999999</ele>
        <time>2025-04-24T07:31:31Z</time>
      </trkpt>
      <trkpt lat="46.233855960890651" lon="5.199249023571611">
        <ele>221.72</ele>
        <time>2025-04-24T07:31:40Z</time>
      </trkpt>
      <trkpt lat="46.23355396091938" lon="5.1995500177145">
        <ele>223.63999999999999</ele>
        <time>2025-04-24T07:31:46Z</time>
      </trkpt>
      <trkpt lat="46.233470980077982" lon="5.199624029919505">
        <ele>224.61000000000001</ele>
        <time>2025-04-24T07:31:53Z</time>
      </trkpt>
      <trkpt lat="46.233417000621557" lon="5.199634004384279">
        <ele>225.09</ele>
        <time>2025-04-24T07:31:54Z</time>
      </trkpt>
      <trkpt lat="46.233364026993513" lon="5.199644984677434">
        <ele>225.56999999999999</ele>
        <time>2025-04-24T07:31:55Z</time>
      </trkpt>
      <trkpt lat="46.233311975374818" lon="5.199654959142208">
        <ele>226.05000000000001</ele>
        <time>2025-04-24T07:31:56Z</time>
      </trkpt>
      <trkpt lat="46.233237041160464" lon="5.19965797662735">
        <ele>226.05000000000001</ele>
        <time>2025-04-24T07:31:57Z</time>
      </trkpt>
      <trkpt lat="46.233169985935092" lon="5.199634004384279">
        <ele>226.05000000000001</ele>
        <time>2025-04-24T07:31:58Z</time>
      </trkpt>
      <trkpt lat="46.233098991215229" lon="5.199608020484448">
        <ele>226.53</ele>
        <time>2025-04-24T07:31:59Z</time>
      </trkpt>
      <trkpt lat="46.233022967353463" lon="5.199580024927855">
        <ele>226.53</ele>
        <time>2025-04-24T07:32:00Z</time>
      </trkpt>
      <trkpt lat="46.232961025089025" lon="5.199617994949222">
        <ele>227.00999999999999</ele>
        <time>2025-04-24T07:32:01Z</time>
      </trkpt>
      <trkpt lat="46.232881983742118" lon="5.199668034911156">
        <ele>227.00999999999999</ele>
        <time>2025-04-24T07:32:02Z</time>
      </trkpt>
      <trkpt lat="46.232828004285693" lon="5.199756966903806">
        <ele>227.49000000000001</ele>
        <time>2025-04-24T07:32:03Z</time>
      </trkpt>
      <trkpt lat="46.232787016779184" lon="5.199879007413983">
        <ele>227.49000000000001</ele>
        <time>2025-04-24T07:32:04Z</time>
      </trkpt>
      <trkpt lat="46.232773019000888" lon="5.199999958276749">
        <ele>227.97</ele>
        <time>2025-04-24T07:32:05Z</time>
      </trkpt>
      <trkpt lat="46.232720967382193" lon="5.200138008221984">
        <ele>228.44999999999999</ele>
        <time>2025-04-24T07:32:06Z</time>
      </trkpt>
      <trkpt lat="46.232658019289374" lon="5.200228029862046">
        <ele>228.44999999999999</ele>
        <time>2025-04-24T07:32:07Z</time>
      </trkpt>
      <trkpt lat="46.232590964064002" lon="5.200326014310122">
        <ele>228.93000000000001</ele>
        <time>2025-04-24T07:32:08Z</time>
      </trkpt>
      <trkpt lat="46.232490967959166" lon="5.200392985716462">
        <ele>228.93000000000001</ele>
        <time>2025-04-24T07:32:09Z</time>
      </trkpt>
      <trkpt lat="46.232368005439639" lon="5.200454005971551">
        <ele>229.41</ele>
        <time>2025-04-24T07:32:10Z</time>
      </trkpt>
      <trkpt lat="46.232230039313436" lon="5.200521983206272">
        <ele>228.93000000000001</ele>
        <time>2025-04-24T07:32:11Z</time>
      </trkpt>
      <trkpt lat="46.231034025549889" lon="5.201218016445637">
        <ele>231.81</ele>
        <time>2025-04-24T07:32:18Z</time>
      </trkpt>
      <trkpt lat="46.229440039023757" lon="5.202603964135051">
        <ele>234.22</ele>
        <time>2025-04-24T07:32:27Z</time>
      </trkpt>
      <trkpt lat="46.227551009505987" lon="5.204236004501581">
        <ele>233.74000000000001</ele>
        <time>2025-04-24T07:32:40Z</time>
      </trkpt>
      <trkpt lat="46.225791983306408" lon="5.205760002136231">
        <ele>234.22</ele>
        <time>2025-04-24T07:32:52Z</time>
      </trkpt>
      <trkpt lat="46.225100979208946" lon="5.206270962953568">
        <ele>235.18000000000001</ele>
        <time>2025-04-24T07:32:58Z</time>
      </trkpt>
      <trkpt lat="46.225026967003942" lon="5.206310022622347">
        <ele>235.18000000000001</ele>
        <time>2025-04-24T07:32:59Z</time>
      </trkpt>
      <trkpt lat="46.224961001425982" lon="5.206345980986953">
        <ele>235.18000000000001</ele>
        <time>2025-04-24T07:33:00Z</time>
      </trkpt>
      <trkpt lat="46.224869973957539" lon="5.20631798543036">
        <ele>235.18000000000001</ele>
        <time>2025-04-24T07:33:01Z</time>
      </trkpt>
      <trkpt lat="46.224792022258043" lon="5.206326032057405">
        <ele>235.18000000000001</ele>
        <time>2025-04-24T07:33:02Z</time>
      </trkpt>
      <trkpt lat="46.224651960656047" lon="5.206311028450728">
        <ele>235.18000000000001</ele>
        <time>2025-04-24T07:33:03Z</time>
      </trkpt>
      <trkpt lat="46.224577026441693" lon="5.206221006810665">
        <ele>235.66</ele>
        <time>2025-04-24T07:33:04Z</time>
      </trkpt>
      <trkpt lat="46.224504020065069" lon="5.206132996827364">
        <ele>235.66</ele>
        <time>2025-04-24T07:33:05Z</time>
      </trkpt>
      <trkpt lat="46.224432019516826" lon="5.206083962693811">
        <ele>235.66</ele>
        <time>2025-04-24T07:33:06Z</time>
      </trkpt>
      <trkpt lat="46.22433696873486" lon="5.206091003492475">
        <ele>235.66</ele>
        <time>2025-04-24T07:33:07Z</time>
      </trkpt>
      <trkpt lat="46.224235966801643" lon="5.206097960472107">
        <ele>236.13999999999999</ele>
        <time>2025-04-24T07:33:08Z</time>
      </trkpt>
      <trkpt lat="46.22414099983871" lon="5.206110030412674">
        <ele>236.62</ele>
        <time>2025-04-24T07:33:09Z</time>
      </trkpt>
      <trkpt lat="46.224046032875776" lon="5.206141965463758">
        <ele>236.62</ele>
        <time>2025-04-24T07:33:10Z</time>
      </trkpt>
      <trkpt lat="46.223667003214359" lon="5.206113969907165">
        <ele>237.09999999999999</ele>
        <time>2025-04-24T07:33:14Z</time>
      </trkpt>
      <trkpt lat="46.223521996289492" lon="5.206100977957249">
        <ele>237.09999999999999</ele>
        <time>2025-04-24T07:33:16Z</time>
      </trkpt>
      <trkpt lat="46.223468016833067" lon="5.206069964915514">
        <ele>236.62</ele>
        <time>2025-04-24T07:33:17Z</time>
      </trkpt>
      <trkpt lat="46.223431974649429" lon="5.206007016822696">
        <ele>236.13999999999999</ele>
        <time>2025-04-24T07:33:18Z</time>
      </trkpt>
      <trkpt lat="46.22336701489985" lon="5.205888999626041">
        <ele>236.13999999999999</ele>
        <time>2025-04-24T07:33:19Z</time>
      </trkpt>
      <trkpt lat="46.223363997414708" lon="5.205825967714191">
        <ele>236.13999999999999</ele>
        <time>2025-04-24T07:33:20Z</time>
      </trkpt>
      <trkpt lat="46.223357962444425" lon="5.205719014629722">
        <ele>235.66</ele>
        <time>2025-04-24T07:33:21Z</time>
      </trkpt>
      <trkpt lat="46.22323801741004" lon="5.204472960904241">
        <ele>234.69999999999999</ele>
        <time>2025-04-24T07:33:31Z</time>
      </trkpt>
      <trkpt lat="46.22315302491188" lon="5.203733006492257">
        <ele>234.69999999999999</ele>
        <time>2025-04-24T07:33:38Z</time>
      </trkpt>
      <trkpt lat="46.223143972456455" lon="5.203664023429155">
        <ele>234.69999999999999</ele>
        <time>2025-04-24T07:33:39Z</time>
      </trkpt>
      <trkpt lat="46.223071971908212" lon="5.20361197181046">
        <ele>234.69999999999999</ele>
        <time>2025-04-24T07:33:40Z</time>
      </trkpt>
      <trkpt lat="46.223039031028748" lon="5.203646002337337">
        <ele>234.22</ele>
        <time>2025-04-24T07:33:41Z</time>
      </trkpt>
      <trkpt lat="46.222995026037097" lon="5.203693024814129">
        <ele>234.22</ele>
        <time>2025-04-24T07:33:42Z</time>
      </trkpt>
      <trkpt lat="46.222942974418402" lon="5.203747004270554">
        <ele>233.74000000000001</ele>
        <time>2025-04-24T07:33:43Z</time>
      </trkpt>
      <trkpt lat="46.222885977476835" lon="5.203807018697262">
        <ele>234.22</ele>
        <time>2025-04-24T07:33:44Z</time>
      </trkpt>
      <trkpt lat="46.222250964492559" lon="5.204493999481201">
        <ele>235.66</ele>
        <time>2025-04-24T07:33:52Z</time>
      </trkpt>
      <trkpt lat="46.221706978976727" lon="5.205109985545278">
        <ele>237.58000000000001</ele>
        <time>2025-04-24T07:33:58Z</time>
      </trkpt>
      <trkpt lat="46.221608994528651" lon="5.20517704077065">
        <ele>237.09999999999999</ele>
        <time>2025-04-24T07:33:59Z</time>
      </trkpt>
      <trkpt lat="46.221530037000775" lon="5.205159019678831">
        <ele>237.09999999999999</ele>
        <time>2025-04-24T07:34:00Z</time>
      </trkpt>
      <trkpt lat="46.221435992047191" lon="5.205137981101871">
        <ele>237.09999999999999</ele>
        <time>2025-04-24T07:34:01Z</time>
      </trkpt>
      <trkpt lat="46.221356028690934" lon="5.205113003030419">
        <ele>237.09999999999999</ele>
        <time>2025-04-24T07:34:02Z</time>
      </trkpt>
      <trkpt lat="46.221158970147371" lon="5.205049971118569">
        <ele>237.09999999999999</ele>
        <time>2025-04-24T07:34:04Z</time>
      </trkpt>
      <trkpt lat="46.2210279610008" lon="5.205008983612061">
        <ele>236.62</ele>
        <time>2025-04-24T07:34:05Z</time>
      </trkpt>
      <trkpt lat="46.220963001251221" lon="5.205008983612061">
        <ele>236.62</ele>
        <time>2025-04-24T07:34:06Z</time>
      </trkpt>
      <trkpt lat="46.220860993489623" lon="5.205046031624079">
        <ele>236.62</ele>
        <time>2025-04-24T07:34:07Z</time>
      </trkpt>
      <trkpt lat="46.22076703235507" lon="5.205137981101871">
        <ele>236.13999999999999</ele>
        <time>2025-04-24T07:34:08Z</time>
      </trkpt>
      <trkpt lat="46.220667036250234" lon="5.205234037712216">
        <ele>236.13999999999999</ele>
        <time>2025-04-24T07:34:09Z</time>
      </trkpt>
      <trkpt lat="46.219632960855961" lon="5.20627498626709">
        <ele>234.69999999999999</ele>
        <time>2025-04-24T07:34:19Z</time>
      </trkpt>
      <trkpt lat="46.218927036970854" lon="5.207100016996265">
        <ele>234.22</ele>
        <time>2025-04-24T07:34:27Z</time>
      </trkpt>
      <trkpt lat="46.218875991180539" lon="5.207191966474056">
        <ele>234.22</ele>
        <time>2025-04-24T07:34:28Z</time>
      </trkpt>
      <trkpt lat="46.218861993402243" lon="5.20726103335619">
        <ele>234.22</ele>
        <time>2025-04-24T07:34:29Z</time>
      </trkpt>
      <trkpt lat="46.218867022544146" lon="5.207375027239323">
        <ele>234.22</ele>
        <time>2025-04-24T07:34:30Z</time>
      </trkpt>
      <trkpt lat="46.218871967867017" lon="5.207486003637314">
        <ele>234.22</ele>
        <time>2025-04-24T07:34:31Z</time>
      </trkpt>
      <trkpt lat="46.21887699700892" lon="5.20760502666235">
        <ele>234.22</ele>
        <time>2025-04-24T07:34:32Z</time>
      </trkpt>
      <trkpt lat="46.218968024477363" lon="5.20872401073575">
        <ele>236.13999999999999</ele>
        <time>2025-04-24T07:34:41Z</time>
      </trkpt>
      <trkpt lat="46.219122000038624" lon="5.2095209620893">
        <ele>238.06</ele>
        <time>2025-04-24T07:34:50Z</time>
      </trkpt>
      <trkpt lat="46.21913599781692" lon="5.209581982344389">
        <ele>238.06</ele>
        <time>2025-04-24T07:34:51Z</time>
      </trkpt>
      <trkpt lat="46.219174973666668" lon="5.20958399400115">
        <ele>238.06</ele>
        <time>2025-04-24T07:34:52Z</time>
      </trkpt>
      <trkpt lat="46.219215039163828" lon="5.209564967080951">
        <ele>238.06</ele>
        <time>2025-04-24T07:34:53Z</time>
      </trkpt>
      <trkpt lat="46.219266001135111" lon="5.20954099483788">
        <ele>238.06</ele>
        <time>2025-04-24T07:34:54Z</time>
      </trkpt>
      <trkpt lat="46.219321992248297" lon="5.209515010938048">
        <ele>238.06</ele>
        <time>2025-04-24T07:34:55Z</time>
      </trkpt>
      <trkpt lat="46.219377983361483" lon="5.209488021209836">
        <ele>238.06</ele>
        <time>2025-04-24T07:34:56Z</time>
      </trkpt>
      <trkpt lat="46.219546962529421" lon="5.209621964022517">
        <ele>237.58000000000001</ele>
        <time>2025-04-24T07:35:01Z</time>
      </trkpt>
      <trkpt lat="46.219546962529421" lon="5.209621964022517">
        <ele>237.09999999999999</ele>
        <time>2025-04-24T07:35:02Z</time>
      </trkpt>
      <trkpt lat="46.219546962529421" lon="5.209621964022517">
        <ele>237.09999999999999</ele>
        <time>2025-04-24T07:35:03Z</time>
      </trkpt>
      <trkpt lat="46.219546962529421" lon="5.209621964022517">
        <ele>237.09999999999999</ele>
        <time>2025-04-24T07:35:04Z</time>
      </trkpt>
      <trkpt lat="46.219552997499704" lon="5.209637973457575">
        <ele>236.62</ele>
        <time>2025-04-24T07:35:05Z</time>
      </trkpt>
      <trkpt lat="46.219559032469988" lon="5.209655994549394">
        <ele>236.62</ele>
        <time>2025-04-24T07:35:06Z</time>
      </trkpt>
      <trkpt lat="46.219559032469988" lon="5.209655994549394">
        <ele>236.13999999999999</ele>
        <time>2025-04-24T07:35:21Z</time>
      </trkpt>
      <trkpt lat="46.219580993056297" lon="5.209724977612495">
        <ele>236.62</ele>
        <time>2025-04-24T07:35:30Z</time>
      </trkpt>
      <trkpt lat="46.219580993056297" lon="5.209724977612495">
        <ele>236.62</ele>
        <time>2025-04-24T07:35:41Z</time>
      </trkpt>
      <trkpt lat="46.219580993056297" lon="5.209724977612495">
        <ele>235.66</ele>
        <time>2025-04-24T07:35:53Z</time>
      </trkpt>
      <trkpt lat="46.219589961692691" lon="5.209750961512327">
        <ele>234.69999999999999</ele>
        <time>2025-04-24T07:35:54Z</time>
      </trkpt>
      <trkpt lat="46.219589961692691" lon="5.209750961512327">
        <ele>234.22</ele>
        <time>2025-04-24T07:35:55Z</time>
      </trkpt>
      <trkpt lat="46.219594990834594" lon="5.209750961512327">
        <ele>233.74000000000001</ele>
        <time>2025-04-24T07:35:56Z</time>
      </trkpt>
      <trkpt lat="46.219594990834594" lon="5.209750961512327">
        <ele>232.78</ele>
        <time>2025-04-24T07:36:11Z</time>
      </trkpt>
      <trkpt lat="46.219492983072996" lon="5.209645014256239">
        <ele>236.13999999999999</ele>
        <time>2025-04-24T07:45:59Z</time>
      </trkpt>
      <trkpt lat="46.219515027478337" lon="5.209491960704327">
        <ele>255.37</ele>
        <time>2025-04-24T07:46:14Z</time>
      </trkpt>
      <trkpt lat="46.219551991671324" lon="5.209707040339708">
        <ele>245.27000000000001</ele>
        <time>2025-04-24T07:46:30Z</time>
      </trkpt>
      <trkpt lat="46.219545034691691" lon="5.209688013419509">
        <ele>243.34999999999999</ele>
        <time>2025-04-24T07:46:46Z</time>
      </trkpt>
      <trkpt lat="46.219551991671324" lon="5.209635961800814">
        <ele>243.34999999999999</ele>
        <time>2025-04-24T07:46:48Z</time>
      </trkpt>
      <trkpt lat="46.219546962529421" lon="5.209621964022517">
        <ele>242.87</ele>
        <time>2025-04-24T07:46:49Z</time>
      </trkpt>
      <trkpt lat="46.219546962529421" lon="5.20958298817277">
        <ele>242.38999999999999</ele>
        <time>2025-04-24T07:46:50Z</time>
      </trkpt>
      <trkpt lat="46.219546962529421" lon="5.209549041464925">
        <ele>242.38999999999999</ele>
        <time>2025-04-24T07:46:51Z</time>
      </trkpt>
      <trkpt lat="46.219546962529421" lon="5.209520040079951">
        <ele>241.91</ele>
        <time>2025-04-24T07:46:52Z</time>
      </trkpt>
      <trkpt lat="46.219546962529421" lon="5.209463965147734">
        <ele>241.43000000000001</ele>
        <time>2025-04-24T07:46:55Z</time>
      </trkpt>
      <trkpt lat="46.219546962529421" lon="5.209407974034548">
        <ele>240.94999999999999</ele>
        <time>2025-04-24T07:46:56Z</time>
      </trkpt>
      <trkpt lat="46.219575041905046" lon="5.209376038983464">
        <ele>240.94999999999999</ele>
        <time>2025-04-24T07:46:57Z</time>
      </trkpt>
      <trkpt lat="46.219623992219567" lon="5.209320969879627">
        <ele>240.94999999999999</ele>
        <time>2025-04-24T07:46:58Z</time>
      </trkpt>
      <trkpt lat="46.219680989161134" lon="5.209255004301667">
        <ele>240.47</ele>
        <time>2025-04-24T07:46:59Z</time>
      </trkpt>
      <trkpt lat="46.220340980216861" lon="5.208634994924069">
        <ele>239.02000000000001</ele>
        <time>2025-04-24T07:47:07Z</time>
      </trkpt>
      <trkpt lat="46.220463020727038" lon="5.20859501324594">
        <ele>238.53999999999999</ele>
        <time>2025-04-24T07:47:08Z</time>
      </trkpt>
      <trkpt lat="46.220567040145397" lon="5.208559976890683">
        <ele>238.53999999999999</ele>
        <time>2025-04-24T07:47:09Z</time>
      </trkpt>
      <trkpt lat="46.220674999058247" lon="5.208527036011219">
        <ele>238.53999999999999</ele>
        <time>2025-04-24T07:47:10Z</time>
      </trkpt>
      <trkpt lat="46.221685018390417" lon="5.208519995212555">
        <ele>237.58000000000001</ele>
        <time>2025-04-24T07:47:19Z</time>
      </trkpt>
      <trkpt lat="46.221715025603771" lon="5.208550002425909">
        <ele>238.06</ele>
        <time>2025-04-24T07:47:20Z</time>
      </trkpt>
      <trkpt lat="46.221830025315285" lon="5.20861697383225">
        <ele>238.53999999999999</ele>
        <time>2025-04-24T07:47:21Z</time>
      </trkpt>
      <trkpt lat="46.222001016139984" lon="5.208844039589167">
        <ele>239.99000000000001</ele>
        <time>2025-04-24T07:47:27Z</time>
      </trkpt>
      <trkpt lat="46.222001016139984" lon="5.208844039589167">
        <ele>240.94999999999999</ele>
        <time>2025-04-24T07:48:05Z</time>
      </trkpt>
      <trkpt lat="46.222094977274537" lon="5.208910005167127">
        <ele>240.94999999999999</ele>
        <time>2025-04-24T07:48:14Z</time>
      </trkpt>
      <trkpt lat="46.222146023064852" lon="5.208959961310029">
        <ele>240.94999999999999</ele>
        <time>2025-04-24T07:48:15Z</time>
      </trkpt>
      <trkpt lat="46.22224903665483" lon="5.2089580334723">
        <ele>240.47</ele>
        <time>2025-04-24T07:48:16Z</time>
      </trkpt>
      <trkpt lat="46.222336040809751" lon="5.208886032924056">
        <ele>240.47</ele>
        <time>2025-04-24T07:48:17Z</time>
      </trkpt>
      <trkpt lat="46.222432013601065" lon="5.208804979920387">
        <ele>239.99000000000001</ele>
        <time>2025-04-24T07:48:18Z</time>
      </trkpt>
      <trkpt lat="46.222536033019423" lon="5.208716969937086">
        <ele>239.99000000000001</ele>
        <time>2025-04-24T07:48:19Z</time>
      </trkpt>
      <trkpt lat="46.223796000704169" lon="5.207626987248659">
        <ele>239.99000000000001</ele>
        <time>2025-04-24T07:48:30Z</time>
      </trkpt>
      <trkpt lat="46.224496979266405" lon="5.207080990076065">
        <ele>241.91</ele>
        <time>2025-04-24T07:48:38Z</time>
      </trkpt>
      <trkpt lat="46.224567973986268" lon="5.207041008397937">
        <ele>242.38999999999999</ele>
        <time>2025-04-24T07:48:39Z</time>
      </trkpt>
      <trkpt lat="46.224660007283092" lon="5.207013012841344">
        <ele>242.87</ele>
        <time>2025-04-24T07:48:40Z</time>
      </trkpt>
      <trkpt lat="46.224833009764552" lon="5.207064980641007">
        <ele>243.83000000000001</ele>
        <time>2025-04-24T07:48:42Z</time>
      </trkpt>
      <trkpt lat="46.224907021969557" lon="5.207019969820976">
        <ele>243.83000000000001</ele>
        <time>2025-04-24T07:48:43Z</time>
      </trkpt>
      <trkpt lat="46.224968964233994" lon="5.206950986757875">
        <ele>244.31</ele>
        <time>2025-04-24T07:48:44Z</time>
      </trkpt>
      <trkpt lat="46.225019004195929" lon="5.206875968724489">
        <ele>244.31</ele>
        <time>2025-04-24T07:48:45Z</time>
      </trkpt>
      <trkpt lat="46.225033001974225" lon="5.206741020083427">
        <ele>244.31</ele>
        <time>2025-04-24T07:48:46Z</time>
      </trkpt>
      <trkpt lat="46.225037025287747" lon="5.206630965694785">
        <ele>244.31</ele>
        <time>2025-04-24T07:48:47Z</time>
      </trkpt>
      <trkpt lat="46.225019004195929" lon="5.20648998208344">
        <ele>244.78999999999999</ele>
        <time>2025-04-24T07:48:48Z</time>
      </trkpt>
      <trkpt lat="46.224976005032659" lon="5.20642401650548">
        <ele>244.78999999999999</ele>
        <time>2025-04-24T07:48:49Z</time>
      </trkpt>
      <trkpt lat="46.224908027797937" lon="5.206343969330192">
        <ele>244.78999999999999</ele>
        <time>2025-04-24T07:48:50Z</time>
      </trkpt>
      <trkpt lat="46.224868968129158" lon="5.20631798543036">
        <ele>244.31</ele>
        <time>2025-04-24T07:48:51Z</time>
      </trkpt>
      <trkpt lat="46.224670987576246" lon="5.206333994865418">
        <ele>244.31</ele>
        <time>2025-04-24T07:48:52Z</time>
      </trkpt>
      <trkpt lat="46.224519023671746" lon="5.206152023747563">
        <ele>244.78999999999999</ele>
        <time>2025-04-24T07:48:54Z</time>
      </trkpt>
      <trkpt lat="46.224451968446374" lon="5.206083040684462">
        <ele>244.31</ele>
        <time>2025-04-24T07:48:55Z</time>
      </trkpt>
      <trkpt lat="46.224344009533525" lon="5.206089997664094">
        <ele>244.31</ele>
        <time>2025-04-24T07:48:56Z</time>
      </trkpt>
      <trkpt lat="46.224231021478772" lon="5.206097960472107">
        <ele>243.83000000000001</ele>
        <time>2025-04-24T07:48:57Z</time>
      </trkpt>
      <trkpt lat="46.224119961261749" lon="5.206116987392306">
        <ele>243.83000000000001</ele>
        <time>2025-04-24T07:48:58Z</time>
      </trkpt>
      <trkpt lat="46.224002027884126" lon="5.206155963242054">
        <ele>243.34999999999999</ele>
        <time>2025-04-24T07:48:59Z</time>
      </trkpt>
      <trkpt lat="46.222756979987025" lon="5.206249002367258">
        <ele>241.43000000000001</ele>
        <time>2025-04-24T07:49:08Z</time>
      </trkpt>
      <trkpt lat="46.221035001799464" lon="5.206514960154891">
        <ele>241.43000000000001</ele>
        <time>2025-04-24T07:49:19Z</time>
      </trkpt>
      <trkpt lat="46.22027300298214" lon="5.206563994288445">
        <ele>243.34999999999999</ele>
        <time>2025-04-24T07:49:24Z</time>
      </trkpt>
      <trkpt lat="46.220127996057272" lon="5.206512026488781">
        <ele>244.31</ele>
        <time>2025-04-24T07:49:25Z</time>
      </trkpt>
      <trkpt lat="46.219983994960785" lon="5.206458969041705">
        <ele>245.27000000000001</ele>
        <time>2025-04-24T07:49:26Z</time>
      </trkpt>
      <trkpt lat="46.218559993430972" lon="5.205760002136231">
        <ele>246.72</ele>
        <time>2025-04-24T07:49:36Z</time>
      </trkpt>
      <trkpt lat="46.217066003009677" lon="5.205421959981322">
        <ele>240.47</ele>
        <time>2025-04-24T07:49:46Z</time>
      </trkpt>
      <trkpt lat="46.216119015589356" lon="5.205191038548946">
        <ele>240.47</ele>
        <time>2025-04-24T07:49:55Z</time>
      </trkpt>
      <trkpt lat="46.215746020898223" lon="5.205068998038769">
        <ele>239.50999999999999</ele>
        <time>2025-04-24T07:49:59Z</time>
      </trkpt>
      <trkpt lat="46.215666979551315" lon="5.205044019967318">
        <ele>239.50999999999999</ele>
        <time>2025-04-24T07:50:00Z</time>
      </trkpt>
      <trkpt lat="46.215300019830465" lon="5.204903958365321">
        <ele>239.50999999999999</ele>
        <time>2025-04-24T07:50:05Z</time>
      </trkpt>
      <trkpt lat="46.215077983215451" lon="5.204760963097215">
        <ele>239.99000000000001</ele>
        <time>2025-04-24T07:50:09Z</time>
      </trkpt>
      <trkpt lat="46.214927025139332" lon="5.204660966992378">
        <ele>239.99000000000001</ele>
        <time>2025-04-24T07:50:14Z</time>
      </trkpt>
      <trkpt lat="46.214892994612455" lon="5.204639006406069">
        <ele>239.99000000000001</ele>
        <time>2025-04-24T07:50:15Z</time>
      </trkpt>
      <trkpt lat="46.214804984629154" lon="5.204579997807741">
        <ele>239.50999999999999</ele>
        <time>2025-04-24T07:50:16Z</time>
      </trkpt>
      <trkpt lat="46.214790986850858" lon="5.204538004472852">
        <ele>239.02000000000001</ele>
        <time>2025-04-24T07:50:17Z</time>
      </trkpt>
      <trkpt lat="46.214762991294265" lon="5.204452006146312">
        <ele>238.53999999999999</ele>
        <time>2025-04-24T07:50:18Z</time>
      </trkpt>
      <trkpt lat="46.214719992130995" lon="5.204374976456165">
        <ele>238.06</ele>
        <time>2025-04-24T07:50:19Z</time>
      </trkpt>
      <trkpt lat="46.214642040431499" lon="5.204329965636134">
        <ele>237.58000000000001</ele>
        <time>2025-04-24T07:50:20Z</time>
      </trkpt>
      <trkpt lat="46.214538021013141" lon="5.204332983121276">
        <ele>237.09999999999999</ele>
        <time>2025-04-24T07:50:21Z</time>
      </trkpt>
      <trkpt lat="46.21445001102984" lon="5.204385034739971">
        <ele>236.62</ele>
        <time>2025-04-24T07:50:22Z</time>
      </trkpt>
      <trkpt lat="46.214375998824835" lon="5.204429961740971">
        <ele>236.13999999999999</ele>
        <time>2025-04-24T07:50:23Z</time>
      </trkpt>
      <trkpt lat="46.214271979406476" lon="5.204418981447816">
        <ele>236.13999999999999</ele>
        <time>2025-04-24T07:50:24Z</time>
      </trkpt>
      <trkpt lat="46.214170977473259" lon="5.204409006983042">
        <ele>236.62</ele>
        <time>2025-04-24T07:50:25Z</time>
      </trkpt>
      <trkpt lat="46.21406301856041" lon="5.204397020861507">
        <ele>236.62</ele>
        <time>2025-04-24T07:50:26Z</time>
      </trkpt>
      <trkpt lat="46.213006982579827" lon="5.20408202894032">
        <ele>238.06</ele>
        <time>2025-04-24T07:50:34Z</time>
      </trkpt>
      <trkpt lat="46.211544005200267" lon="5.203679027035832">
        <ele>239.99000000000001</ele>
        <time>2025-04-24T07:50:44Z</time>
      </trkpt>
      <trkpt lat="46.21140100993216" lon="5.2037169970572">
        <ele>240.47</ele>
        <time>2025-04-24T07:50:45Z</time>
      </trkpt>
      <trkpt lat="46.21125197969377" lon="5.203755972906947">
        <ele>240.47</ele>
        <time>2025-04-24T07:50:46Z</time>
      </trkpt>
      <trkpt lat="46.210081027820706" lon="5.204250002279878">
        <ele>240.94999999999999</ele>
        <time>2025-04-24T07:50:55Z</time>
      </trkpt>
      <trkpt lat="46.209164969623089" lon="5.204014973714948">
        <ele>241.43000000000001</ele>
        <time>2025-04-24T07:51:03Z</time>
      </trkpt>
      <trkpt lat="46.209067991003394" lon="5.203924030065537">
        <ele>241.43000000000001</ele>
        <time>2025-04-24T07:51:04Z</time>
      </trkpt>
      <trkpt lat="46.208970006555319" lon="5.203821016475558">
        <ele>241.91</ele>
        <time>2025-04-24T07:51:05Z</time>
      </trkpt>
      <trkpt lat="46.208421997725964" lon="5.203037979081273">
        <ele>242.87</ele>
        <time>2025-04-24T07:51:11Z</time>
      </trkpt>
      <trkpt lat="46.208348991349339" lon="5.202871011570096">
        <ele>242.87</ele>
        <time>2025-04-24T07:51:12Z</time>
      </trkpt>
      <trkpt lat="46.208274979144335" lon="5.202703960239887">
        <ele>243.34999999999999</ele>
        <time>2025-04-24T07:51:13Z</time>
      </trkpt>
      <trkpt lat="46.208232985809445" lon="5.202505979686976">
        <ele>243.34999999999999</ele>
        <time>2025-04-24T07:51:14Z</time>
      </trkpt>
      <trkpt lat="46.20819996111095" lon="5.202310010790825">
        <ele>243.34999999999999</ele>
        <time>2025-04-24T07:51:15Z</time>
      </trkpt>
      <trkpt lat="46.207768963649869" lon="5.199704999104142">
        <ele>244.31</ele>
        <time>2025-04-24T07:51:29Z</time>
      </trkpt>
      <trkpt lat="46.207475010305643" lon="5.198644017800689">
        <ele>243.83000000000001</ele>
        <time>2025-04-24T07:51:37Z</time>
      </trkpt>
      <trkpt lat="46.207438968122005" lon="5.198558019474149">
        <ele>243.83000000000001</ele>
        <time>2025-04-24T07:51:38Z</time>
      </trkpt>
      <trkpt lat="46.207402003929019" lon="5.198472021147609">
        <ele>243.83000000000001</ele>
        <time>2025-04-24T07:51:39Z</time>
      </trkpt>
      <trkpt lat="46.207395968958735" lon="5.198234980925918">
        <ele>244.31</ele>
        <time>2025-04-24T07:51:41Z</time>
      </trkpt>
      <trkpt lat="46.207295972853899" lon="5.198131967335939">
        <ele>244.31</ele>
        <time>2025-04-24T07:51:42Z</time>
      </trkpt>
      <trkpt lat="46.20723101310432" lon="5.198120987042785">
        <ele>244.31</ele>
        <time>2025-04-24T07:51:43Z</time>
      </trkpt>
      <trkpt lat="46.207012999802828" lon="5.198143031448126">
        <ele>243.83000000000001</ele>
        <time>2025-04-24T07:51:45Z</time>
      </trkpt>
      <trkpt lat="46.206818036735058" lon="5.198029037564993">
        <ele>243.34999999999999</ele>
        <time>2025-04-24T07:51:47Z</time>
      </trkpt>
      <trkpt lat="46.20671502314508" lon="5.197971034795046">
        <ele>243.34999999999999</ele>
        <time>2025-04-24T07:51:48Z</time>
      </trkpt>
      <trkpt lat="46.206594994291663" lon="5.197951002046466">
        <ele>242.87</ele>
        <time>2025-04-24T07:51:49Z</time>
      </trkpt>
      <trkpt lat="46.206472031772137" lon="5.197929963469505">
        <ele>242.87</ele>
        <time>2025-04-24T07:51:50Z</time>
      </trkpt>
      <trkpt lat="46.206347979605198" lon="5.197910014539957">
        <ele>242.38999999999999</ele>
        <time>2025-04-24T07:51:51Z</time>
      </trkpt>
      <trkpt lat="46.205179039388895" lon="5.197937004268169">
        <ele>239.99000000000001</ele>
        <time>2025-04-24T07:52:02Z</time>
      </trkpt>
      <trkpt lat="46.204922972247005" lon="5.197966005653143">
        <ele>239.50999999999999</ele>
        <time>2025-04-24T07:52:05Z</time>
      </trkpt>
      <trkpt lat="46.204848960042" lon="5.197842037305236">
        <ele>239.02000000000001</ele>
        <time>2025-04-24T07:52:06Z</time>
      </trkpt>
      <trkpt lat="46.204797998070717" lon="5.197803983464837">
        <ele>239.02000000000001</ele>
        <time>2025-04-24T07:52:07Z</time>
      </trkpt>
      <trkpt lat="46.204687021672726" lon="5.197790991514921">
        <ele>239.02000000000001</ele>
        <time>2025-04-24T07:52:08Z</time>
      </trkpt>
      <trkpt lat="46.20459096506238" lon="5.197863997891545">
        <ele>239.02000000000001</ele>
        <time>2025-04-24T07:52:09Z</time>
      </trkpt>
      <trkpt lat="46.204536985605955" lon="5.197885036468506">
        <ele>239.02000000000001</ele>
        <time>2025-04-24T07:52:10Z</time>
      </trkpt>
      <trkpt lat="46.204450987279415" lon="5.197911020368338">
        <ele>238.53999999999999</ele>
        <time>2025-04-24T07:52:11Z</time>
      </trkpt>
      <trkpt lat="46.204347973689437" lon="5.197923006489873">
        <ele>238.53999999999999</ele>
        <time>2025-04-24T07:52:12Z</time>
      </trkpt>
      <trkpt lat="46.204242026433349" lon="5.197928035631776">
        <ele>239.02000000000001</ele>
        <time>2025-04-24T07:52:13Z</time>
      </trkpt>
      <trkpt lat="46.203656969591975" lon="5.197871038690209">
        <ele>239.99000000000001</ele>
        <time>2025-04-24T07:52:18Z</time>
      </trkpt>
      <trkpt lat="46.202163984999061" lon="5.197649002075195">
        <ele>239.99000000000001</ele>
        <time>2025-04-24T07:52:31Z</time>
      </trkpt>
      <trkpt lat="46.201647995039821" lon="5.197675991803408">
        <ele>239.99000000000001</ele>
        <time>2025-04-24T07:52:36Z</time>
      </trkpt>
      <trkpt lat="46.201547998934984" lon="5.197708010673523">
        <ele>239.99000000000001</ele>
        <time>2025-04-24T07:52:37Z</time>
      </trkpt>
      <trkpt lat="46.201360998675227" lon="5.197770036756992">
        <ele>240.47</ele>
        <time>2025-04-24T07:52:39Z</time>
      </trkpt>
      <trkpt lat="46.201284974813461" lon="5.197801971808076">
        <ele>240.47</ele>
        <time>2025-04-24T07:52:40Z</time>
      </trkpt>
      <trkpt lat="46.201226972043514" lon="5.197826027870178">
        <ele>240.94999999999999</ele>
        <time>2025-04-24T07:52:41Z</time>
      </trkpt>
      <trkpt lat="46.201099986210465" lon="5.197867015376687">
        <ele>242.38999999999999</ele>
        <time>2025-04-24T07:52:49Z</time>
      </trkpt>
      <trkpt lat="46.200965959578753" lon="5.197879001498222">
        <ele>243.34999999999999</ele>
        <time>2025-04-24T07:52:55Z</time>
      </trkpt>
      <trkpt lat="46.200902005657554" lon="5.197885036468506">
        <ele>243.34999999999999</ele>
        <time>2025-04-24T07:52:56Z</time>
      </trkpt>
      <trkpt lat="46.200815001502633" lon="5.197820998728275">
        <ele>243.34999999999999</ele>
        <time>2025-04-24T07:52:57Z</time>
      </trkpt>
      <trkpt lat="46.200747024267912" lon="5.19780901260674">
        <ele>243.83000000000001</ele>
        <time>2025-04-24T07:52:58Z</time>
      </trkpt>
      <trkpt lat="46.200653985142708" lon="5.197805995121598">
        <ele>244.31</ele>
        <time>2025-04-24T07:52:59Z</time>
      </trkpt>
      <trkpt lat="46.200578967109323" lon="5.197820998728275">
        <ele>244.31</ele>
        <time>2025-04-24T07:53:00Z</time>
      </trkpt>
      <trkpt lat="46.200476959347725" lon="5.19793801009655">
        <ele>244.78999999999999</ele>
        <time>2025-04-24T07:53:01Z</time>
      </trkpt>
      <trkpt lat="46.200381992384791" lon="5.198001964017749">
        <ele>244.78999999999999</ele>
        <time>2025-04-24T07:53:02Z</time>
      </trkpt>
      <trkpt lat="46.200273027643561" lon="5.198049992322922">
        <ele>244.31</ele>
        <time>2025-04-24T07:53:03Z</time>
      </trkpt>
      <trkpt lat="46.200160039588809" lon="5.198095003142953">
        <ele>244.31</ele>
        <time>2025-04-24T07:53:04Z</time>
      </trkpt>
      <trkpt lat="46.200030036270618" lon="5.198113024234772">
        <ele>244.78999999999999</ele>
        <time>2025-04-24T07:53:05Z</time>
      </trkpt>
      <trkpt lat="46.199896009638906" lon="5.198120987042785">
        <ele>244.78999999999999</ele>
        <time>2025-04-24T07:53:06Z</time>
      </trkpt>
      <trkpt lat="46.198594970628619" lon="5.198200028389692">
        <ele>245.75</ele>
        <time>2025-04-24T07:53:14Z</time>
      </trkpt>
      <trkpt lat="46.196592031046748" lon="5.19841100089252">
        <ele>245.75</ele>
        <time>2025-04-24T07:53:24Z</time>
      </trkpt>
      <trkpt lat="46.194896036759019" lon="5.198104977607727">
        <ele>242.87</ele>
        <time>2025-04-24T07:53:33Z</time>
      </trkpt>
      <trkpt lat="46.192934000864625" lon="5.197150027379394">
        <ele>242.87</ele>
        <time>2025-04-24T07:53:44Z</time>
      </trkpt>
      <trkpt lat="46.191647965461016" lon="5.196848027408123">
        <ele>242.38999999999999</ele>
        <time>2025-04-24T07:53:52Z</time>
      </trkpt>
      <trkpt lat="46.191137004643679" lon="5.19669103436172">
        <ele>241.43000000000001</ele>
        <time>2025-04-24T07:53:56Z</time>
      </trkpt>
      <trkpt lat="46.191040026023984" lon="5.196652980521321">
        <ele>241.43000000000001</ele>
        <time>2025-04-24T07:53:57Z</time>
      </trkpt>
      <trkpt lat="46.190970037132502" lon="5.196573017165065">
        <ele>240.94999999999999</ele>
        <time>2025-04-24T07:53:58Z</time>
      </trkpt>
      <trkpt lat="46.190823018550873" lon="5.196490036323667">
        <ele>240.94999999999999</ele>
        <time>2025-04-24T07:54:00Z</time>
      </trkpt>
      <trkpt lat="46.190749006345868" lon="5.196492969989777">
        <ele>241.43000000000001</ele>
        <time>2025-04-24T07:54:01Z</time>
      </trkpt>
      <trkpt lat="46.190700978040695" lon="5.196557007730007">
        <ele>241.91</ele>
        <time>2025-04-24T07:54:02Z</time>
      </trkpt>
      <trkpt lat="46.190686980262399" lon="5.196663960814476">
        <ele>242.38999999999999</ele>
        <time>2025-04-24T07:54:03Z</time>
      </trkpt>
      <trkpt lat="46.190686980262399" lon="5.196768986061215">
        <ele>242.87</ele>
        <time>2025-04-24T07:54:04Z</time>
      </trkpt>
      <trkpt lat="46.190736014395952" lon="5.196837969124317">
        <ele>242.87</ele>
        <time>2025-04-24T07:54:05Z</time>
      </trkpt>
      <trkpt lat="46.190783036872745" lon="5.197021029889584">
        <ele>243.34999999999999</ele>
        <time>2025-04-24T07:54:06Z</time>
      </trkpt>
      <trkpt lat="46.190769961103797" lon="5.197149021551013">
        <ele>243.83000000000001</ele>
        <time>2025-04-24T07:54:07Z</time>
      </trkpt>
      <trkpt lat="46.190755041316152" lon="5.197287993505597">
        <ele>244.31</ele>
        <time>2025-04-24T07:54:08Z</time>
      </trkpt>
      <trkpt lat="46.190759986639023" lon="5.198518037796021">
        <ele>246.22999999999999</ele>
        <time>2025-04-24T07:54:18Z</time>
      </trkpt>
      <trkpt lat="46.190816983580589" lon="5.199652025476098">
        <ele>246.22999999999999</ele>
        <time>2025-04-24T07:54:29Z</time>
      </trkpt>
      <trkpt lat="46.190822012722492" lon="5.19974498078227">
        <ele>246.22999999999999</ele>
        <time>2025-04-24T07:54:30Z</time>
      </trkpt>
      <trkpt lat="46.190849002450705" lon="5.200825994834304">
        <ele>247.19999999999999</ele>
        <time>2025-04-24T07:54:41Z</time>
      </trkpt>
      <trkpt lat="46.190857971087098" lon="5.202099960297346">
        <ele>247.19999999999999</ele>
        <time>2025-04-24T07:54:52Z</time>
      </trkpt>
      <trkpt lat="46.190999038517475" lon="5.203354982659221">
        <ele>245.75</ele>
        <time>2025-04-24T07:55:03Z</time>
      </trkpt>
      <trkpt lat="46.191240018233657" lon="5.204702038317919">
        <ele>245.75</ele>
        <time>2025-04-24T07:55:15Z</time>
      </trkpt>
      <trkpt lat="46.191324004903436" lon="5.205186009407044">
        <ele>247.19999999999999</ele>
        <time>2025-04-24T07:55:19Z</time>
      </trkpt>
      <trkpt lat="46.191400028765202" lon="5.206057978793979">
        <ele>249.12</ele>
        <time>2025-04-24T07:55:26Z</time>
      </trkpt>
      <trkpt lat="46.191405979916453" lon="5.206411024555564">
        <ele>249.59999999999999</ele>
        <time>2025-04-24T07:55:29Z</time>
      </trkpt>
      <trkpt lat="46.191407991573215" lon="5.206523006781936">
        <ele>250.08000000000001</ele>
        <time>2025-04-24T07:55:30Z</time>
      </trkpt>
      <trkpt lat="46.191411009058356" lon="5.206722998991609">
        <ele>251.03999999999999</ele>
        <time>2025-04-24T07:55:32Z</time>
      </trkpt>
      <trkpt lat="46.191413020715117" lon="5.206806985661387">
        <ele>251.03999999999999</ele>
        <time>2025-04-24T07:55:33Z</time>
      </trkpt>
      <trkpt lat="46.191414026543498" lon="5.206878986209631">
        <ele>251.52000000000001</ele>
        <time>2025-04-24T07:55:34Z</time>
      </trkpt>
      <trkpt lat="46.191415032371879" lon="5.206943023949862">
        <ele>252</ele>
        <time>2025-04-24T07:55:35Z</time>
      </trkpt>
      <trkpt lat="46.191325010731816" lon="5.206997003406286">
        <ele>252</ele>
        <time>2025-04-24T07:55:36Z</time>
      </trkpt>
      <trkpt lat="46.191276982426643" lon="5.206980993971229">
        <ele>251.52000000000001</ele>
        <time>2025-04-24T07:55:37Z</time>
      </trkpt>
      <trkpt lat="46.191214034333825" lon="5.206960961222649">
        <ele>251.52000000000001</ele>
        <time>2025-04-24T07:55:38Z</time>
      </trkpt>
      <trkpt lat="46.191143039613962" lon="5.206936988979578">
        <ele>251.52000000000001</ele>
        <time>2025-04-24T07:55:39Z</time>
      </trkpt>
      <trkpt lat="46.190477013587952" lon="5.20672501064837">
        <ele>250.08000000000001</ele>
        <time>2025-04-24T07:55:48Z</time>
      </trkpt>
      <trkpt lat="46.190343992784619" lon="5.206685028970242">
        <ele>249.12</ele>
        <time>2025-04-24T07:55:50Z</time>
      </trkpt>
      <trkpt lat="46.190202003344893" lon="5.206642029806972">
        <ele>248.16</ele>
        <time>2025-04-24T07:55:52Z</time>
      </trkpt>
      <trkpt lat="46.189487027004361" lon="5.206427033990622">
        <ele>244.78999999999999</ele>
        <time>2025-04-24T07:56:02Z</time>
      </trkpt>
      <trkpt lat="46.189340008422732" lon="5.206352015957236">
        <ele>244.31</ele>
        <time>2025-04-24T07:56:04Z</time>
      </trkpt>
      <trkpt lat="46.189260967075825" lon="5.206310022622347">
        <ele>243.83000000000001</ele>
        <time>2025-04-24T07:56:05Z</time>
      </trkpt>
      <trkpt lat="46.188358990475535" lon="5.205815993249416">
        <ele>239.99000000000001</ele>
        <time>2025-04-24T07:56:15Z</time>
      </trkpt>
      <trkpt lat="46.188222030177712" lon="5.205739969387651">
        <ele>239.02000000000001</ele>
        <time>2025-04-24T07:56:17Z</time>
      </trkpt>
      <trkpt lat="46.188165033236146" lon="5.205709040164948">
        <ele>238.53999999999999</ele>
        <time>2025-04-24T07:56:18Z</time>
      </trkpt>
      <trkpt lat="46.188013991340995" lon="5.205645002424717">
        <ele>238.06</ele>
        <time>2025-04-24T07:56:19Z</time>
      </trkpt>
      <trkpt lat="46.187955988571048" lon="5.205710968002677">
        <ele>237.58000000000001</ele>
        <time>2025-04-24T07:56:20Z</time>
      </trkpt>
      <trkpt lat="46.18789597414434" lon="5.205781040713191">
        <ele>237.09999999999999</ele>
        <time>2025-04-24T07:56:21Z</time>
      </trkpt>
      <trkpt lat="46.187835959717631" lon="5.205850023776293">
        <ele>236.13999999999999</ele>
        <time>2025-04-24T07:56:22Z</time>
      </trkpt>
      <trkpt lat="46.187778962776065" lon="5.205914983525872">
        <ele>235.66</ele>
        <time>2025-04-24T07:56:23Z</time>
      </trkpt>
      <trkpt lat="46.187720037996769" lon="5.205982038751245">
        <ele>235.18000000000001</ele>
        <time>2025-04-24T07:56:24Z</time>
      </trkpt>
      <trkpt lat="46.187447039410472" lon="5.206297030672431">
        <ele>232.78</ele>
        <time>2025-04-24T07:56:28Z</time>
      </trkpt>
      <trkpt lat="46.187392976135015" lon="5.206456035375595">
        <ele>232.30000000000001</ele>
        <time>2025-04-24T07:56:29Z</time>
      </trkpt>
      <trkpt lat="46.187348971143365" lon="5.206586038693786">
        <ele>232.30000000000001</ele>
        <time>2025-04-24T07:56:30Z</time>
      </trkpt>
      <trkpt lat="46.187114026397467" lon="5.207277964800596">
        <ele>234.69999999999999</ele>
        <time>2025-04-24T07:56:36Z</time>
      </trkpt>
      <trkpt lat="46.187092987820506" lon="5.207337979227305">
        <ele>235.18000000000001</ele>
        <time>2025-04-24T07:56:37Z</time>
      </trkpt>
      <trkpt lat="46.187082007527351" lon="5.207373015582562">
        <ele>235.18000000000001</ele>
        <time>2025-04-24T07:56:38Z</time>
      </trkpt>
      <trkpt lat="46.187025010585785" lon="5.207488015294075">
        <ele>236.13999999999999</ele>
        <time>2025-04-24T07:56:39Z</time>
      </trkpt>
      <trkpt lat="46.187039008364081" lon="5.207497989758849">
        <ele>236.13999999999999</ele>
        <time>2025-04-24T07:56:40Z</time>
      </trkpt>
      <trkpt lat="46.187039008364081" lon="5.207497989758849">
        <ele>236.62</ele>
        <time>2025-04-24T07:56:41Z</time>
      </trkpt>
      <trkpt lat="46.187039008364081" lon="5.207497989758849">
        <ele>236.62</ele>
        <time>2025-04-24T07:56:42Z</time>
      </trkpt>
      <trkpt lat="46.187039008364081" lon="5.207497989758849">
        <ele>237.09999999999999</ele>
        <time>2025-04-24T07:56:43Z</time>
      </trkpt>
      <trkpt lat="46.187073038890958" lon="5.207396987825632">
        <ele>237.09999999999999</ele>
        <time>2025-04-24T07:56:44Z</time>
      </trkpt>
      <trkpt lat="46.18707999587059" lon="5.207378966733813">
        <ele>237.58000000000001</ele>
        <time>2025-04-24T07:56:45Z</time>
      </trkpt>
      <trkpt lat="46.187087036669254" lon="5.207357006147504">
        <ele>238.06</ele>
        <time>2025-04-24T07:56:46Z</time>
      </trkpt>
      <trkpt lat="46.187092987820506" lon="5.207339990884066">
        <ele>240.47</ele>
        <time>2025-04-24T07:56:58Z</time>
      </trkpt>
      <trkpt lat="46.187281999737024" lon="5.207410985603929">
        <ele>242.38999999999999</ele>
        <time>2025-04-24T08:16:36Z</time>
      </trkpt>
      <trkpt lat="46.187297003343701" lon="5.207267990335822">
        <ele>254.41</ele>
        <time>2025-04-24T08:17:30Z</time>
      </trkpt>
      <trkpt lat="46.187322987243533" lon="5.20728399977088">
        <ele>251.52000000000001</ele>
        <time>2025-04-24T08:17:45Z</time>
      </trkpt>
      <trkpt lat="46.187175968661904" lon="5.20713597536087">
        <ele>249.59999999999999</ele>
        <time>2025-04-24T08:17:55Z</time>
      </trkpt>
      <trkpt lat="46.187145039439201" lon="5.207147039473057">
        <ele>248.16</ele>
        <time>2025-04-24T08:18:02Z</time>
      </trkpt>
      <trkpt lat="46.187159959226847" lon="5.207142010331154">
        <ele>247.68000000000001</ele>
        <time>2025-04-24T08:18:04Z</time>
      </trkpt>
      <trkpt lat="46.187171023339033" lon="5.207109991461039">
        <ele>247.68000000000001</ele>
        <time>2025-04-24T08:18:05Z</time>
      </trkpt>
      <trkpt lat="46.18718896061182" lon="5.207056012004614">
        <ele>247.19999999999999</ele>
        <time>2025-04-24T08:18:06Z</time>
      </trkpt>
      <trkpt lat="46.187216034159064" lon="5.206975964829326">
        <ele>246.72</ele>
        <time>2025-04-24T08:18:07Z</time>
      </trkpt>
      <trkpt lat="46.187246963381767" lon="5.206884015351534">
        <ele>246.22999999999999</ele>
        <time>2025-04-24T08:18:08Z</time>
      </trkpt>
      <trkpt lat="46.187281999737024" lon="5.206782007589936">
        <ele>246.22999999999999</ele>
        <time>2025-04-24T08:18:09Z</time>
      </trkpt>
      <trkpt lat="46.187403034418821" lon="5.20642502233386">
        <ele>244.31</ele>
        <time>2025-04-24T08:18:12Z</time>
      </trkpt>
      <trkpt lat="46.187461037188768" lon="5.206280015408993">
        <ele>243.83000000000001</ele>
        <time>2025-04-24T08:18:13Z</time>
      </trkpt>
      <trkpt lat="46.187618030235171" lon="5.206098966300488">
        <ele>242.87</ele>
        <time>2025-04-24T08:18:15Z</time>
      </trkpt>
      <trkpt lat="46.18796001188457" lon="5.205707028508186">
        <ele>242.38999999999999</ele>
        <time>2025-04-24T08:18:20Z</time>
      </trkpt>
      <trkpt lat="46.188004016876221" lon="5.205656988546252">
        <ele>242.38999999999999</ele>
        <time>2025-04-24T08:18:21Z</time>
      </trkpt>
      <trkpt lat="46.188139971345663" lon="5.205694036558271">
        <ele>241.91</ele>
        <time>2025-04-24T08:18:23Z</time>
      </trkpt>
      <trkpt lat="46.188186993822455" lon="5.205721026286483">
        <ele>242.38999999999999</ele>
        <time>2025-04-24T08:18:24Z</time>
      </trkpt>
      <trkpt lat="46.188247008249164" lon="5.205753967165947">
        <ele>242.38999999999999</ele>
        <time>2025-04-24T08:18:25Z</time>
      </trkpt>
      <trkpt lat="46.189042031764984" lon="5.206194017082453">
        <ele>243.34999999999999</ele>
        <time>2025-04-24T08:18:35Z</time>
      </trkpt>
      <trkpt lat="46.189833031967282" lon="5.206530969589949">
        <ele>249.12</ele>
        <time>2025-04-24T08:18:45Z</time>
      </trkpt>
      <trkpt lat="46.190783958882093" lon="5.206820983439684">
        <ele>250.08000000000001</ele>
        <time>2025-04-24T08:18:58Z</time>
      </trkpt>
      <trkpt lat="46.191314030438662" lon="5.206992980092764">
        <ele>251.03999999999999</ele>
        <time>2025-04-24T08:19:06Z</time>
      </trkpt>
      <trkpt lat="46.191359963268042" lon="5.207007983699441">
        <ele>251.03999999999999</ele>
        <time>2025-04-24T08:19:07Z</time>
      </trkpt>
      <trkpt lat="46.191421989351511" lon="5.207061963155866">
        <ele>251.03999999999999</ele>
        <time>2025-04-24T08:19:08Z</time>
      </trkpt>
      <trkpt lat="46.191431963816285" lon="5.207127006724477">
        <ele>251.03999999999999</ele>
        <time>2025-04-24T08:19:09Z</time>
      </trkpt>
      <trkpt lat="46.191443027928472" lon="5.207201018929482">
        <ele>251.52000000000001</ele>
        <time>2025-04-24T08:19:10Z</time>
      </trkpt>
      <trkpt lat="46.191457025706768" lon="5.207286011427641">
        <ele>251.52000000000001</ele>
        <time>2025-04-24T08:19:11Z</time>
      </trkpt>
      <trkpt lat="46.191525002941489" lon="5.207728995010257">
        <ele>252.47999999999999</ele>
        <time>2025-04-24T08:19:15Z</time>
      </trkpt>
      <trkpt lat="46.191543024033308" lon="5.207846006378532">
        <ele>252.96000000000001</ele>
        <time>2025-04-24T08:19:16Z</time>
      </trkpt>
      <trkpt lat="46.191667998209596" lon="5.208798022940755">
        <ele>252.47999999999999</ele>
        <time>2025-04-24T08:19:25Z</time>
      </trkpt>
      <trkpt lat="46.191683001816273" lon="5.208897013217211">
        <ele>252.47999999999999</ele>
        <time>2025-04-24T08:19:26Z</time>
      </trkpt>
      <trkpt lat="46.191868996247649" lon="5.210038963705301">
        <ele>253.44</ele>
        <time>2025-04-24T08:19:37Z</time>
      </trkpt>
      <trkpt lat="46.19193596765399" lon="5.210288995876908">
        <ele>253.93000000000001</ele>
        <time>2025-04-24T08:19:40Z</time>
      </trkpt>
      <trkpt lat="46.191952982917428" lon="5.210492005571723">
        <ele>254.41</ele>
        <time>2025-04-24T08:19:42Z</time>
      </trkpt>
      <trkpt lat="46.191952982917428" lon="5.21070197224617">
        <ele>254.88999999999999</ele>
        <time>2025-04-24T08:19:44Z</time>
      </trkpt>
      <trkpt lat="46.191952982917428" lon="5.210812026634812">
        <ele>255.37</ele>
        <time>2025-04-24T08:19:45Z</time>
      </trkpt>
      <trkpt lat="46.191952982917428" lon="5.210923003032804">
        <ele>255.37</ele>
        <time>2025-04-24T08:19:46Z</time>
      </trkpt>
      <trkpt lat="46.191937979310751" lon="5.21209797821939">
        <ele>258.25</ele>
        <time>2025-04-24T08:19:57Z</time>
      </trkpt>
      <trkpt lat="46.191930016502738" lon="5.212133014574647">
        <ele>258.73000000000002</ele>
        <time>2025-04-24T08:20:04Z</time>
      </trkpt>
      <trkpt lat="46.191906966269016" lon="5.212242985144258">
        <ele>257.76999999999998</ele>
        <time>2025-04-24T08:20:48Z</time>
      </trkpt>
      <trkpt lat="46.191889028996229" lon="5.212327977642417">
        <ele>257.29000000000002</ele>
        <time>2025-04-24T08:20:49Z</time>
      </trkpt>
      <trkpt lat="46.191862039268017" lon="5.212442977353931">
        <ele>257.76999999999998</ele>
        <time>2025-04-24T08:20:50Z</time>
      </trkpt>
      <trkpt lat="46.191774029284716" lon="5.212622014805675">
        <ele>257.29000000000002</ele>
        <time>2025-04-24T08:20:52Z</time>
      </trkpt>
      <trkpt lat="46.191752990707755" lon="5.212739026173949">
        <ele>256.81</ele>
        <time>2025-04-24T08:20:53Z</time>
      </trkpt>
      <trkpt lat="46.191638996824622" lon="5.213742004707456">
        <ele>254.88999999999999</ele>
        <time>2025-04-24T08:21:01Z</time>
      </trkpt>
      <trkpt lat="46.191735975444317" lon="5.21512602455914">
        <ele>253.93000000000001</ele>
        <time>2025-04-24T08:21:12Z</time>
      </trkpt>
      <trkpt lat="46.191950971260667" lon="5.2165009919554">
        <ele>249.12</ele>
        <time>2025-04-24T08:21:23Z</time>
      </trkpt>
      <trkpt lat="46.192078962922096" lon="5.217412021011114">
        <ele>250.56</ele>
        <time>2025-04-24T08:21:31Z</time>
      </trkpt>
      <trkpt lat="46.192156998440623" lon="5.218632007017732">
        <ele>251.03999999999999</ele>
        <time>2025-04-24T08:21:39Z</time>
      </trkpt>
      <trkpt lat="46.192287001758814" lon="5.220328001305461">
        <ele>252.47999999999999</ele>
        <time>2025-04-24T08:21:50Z</time>
      </trkpt>
      <trkpt lat="46.192336035892367" lon="5.220636036247015">
        <ele>252</ele>
        <time>2025-04-24T08:21:56Z</time>
      </trkpt>
      <trkpt lat="46.192355984821916" lon="5.220703007653356">
        <ele>251.52000000000001</ele>
        <time>2025-04-24T08:22:02Z</time>
      </trkpt>
      <trkpt lat="46.192381968721747" lon="5.220780037343502">
        <ele>251.03999999999999</ele>
        <time>2025-04-24T08:22:03Z</time>
      </trkpt>
      <trkpt lat="46.192417005077004" lon="5.220804009586573">
        <ele>251.03999999999999</ele>
        <time>2025-04-24T08:22:04Z</time>
      </trkpt>
      <trkpt lat="46.192510966211557" lon="5.220866035670042">
        <ele>250.56</ele>
        <time>2025-04-24T08:22:06Z</time>
      </trkpt>
      <trkpt lat="46.192510966211557" lon="5.220866035670042">
        <ele>250.56</ele>
        <time>2025-04-24T08:22:07Z</time>
      </trkpt>
      <trkpt lat="46.192553965374827" lon="5.221059992909432">
        <ele>250.08000000000001</ele>
        <time>2025-04-24T08:22:08Z</time>
      </trkpt>
      <trkpt lat="46.192533010616899" lon="5.221132999286056">
        <ele>249.59999999999999</ele>
        <time>2025-04-24T08:22:09Z</time>
      </trkpt>
      <trkpt lat="46.192510966211557" lon="5.221210028976202">
        <ele>249.12</ele>
        <time>2025-04-24T08:22:10Z</time>
      </trkpt>
      <trkpt lat="46.192510966211557" lon="5.221323017030954">
        <ele>248.63999999999999</ele>
        <time>2025-04-24T08:22:11Z</time>
      </trkpt>
      <trkpt lat="46.192525969818234" lon="5.221424018964171">
        <ele>248.16</ele>
        <time>2025-04-24T08:22:12Z</time>
      </trkpt>
      <trkpt lat="46.192552959546447" lon="5.221531977877021">
        <ele>248.16</ele>
        <time>2025-04-24T08:22:13Z</time>
      </trkpt>
      <trkpt lat="46.19257902726531" lon="5.221642032265663">
        <ele>247.68000000000001</ele>
        <time>2025-04-24T08:22:14Z</time>
      </trkpt>
      <trkpt lat="46.19266502559185" lon="5.221994994208217">
        <ele>246.22999999999999</ele>
        <time>2025-04-24T08:22:17Z</time>
      </trkpt>
      <trkpt lat="46.192999966442585" lon="5.223374990746379">
        <ele>238.53999999999999</ele>
        <time>2025-04-24T08:22:30Z</time>
      </trkpt>
      <trkpt lat="46.193392993882298" lon="5.224539991468191">
        <ele>235.66</ele>
        <time>2025-04-24T08:22:42Z</time>
      </trkpt>
      <trkpt lat="46.193541018292308" lon="5.224856995046139">
        <ele>235.18000000000001</ele>
        <time>2025-04-24T08:22:48Z</time>
      </trkpt>
      <trkpt lat="46.193550992757082" lon="5.225055981427431">
        <ele>235.66</ele>
        <time>2025-04-24T08:22:49Z</time>
      </trkpt>
      <trkpt lat="46.193604972213507" lon="5.225082971155644">
        <ele>235.66</ele>
        <time>2025-04-24T08:22:50Z</time>
      </trkpt>
      <trkpt lat="46.193690970540047" lon="5.224985992535949">
        <ele>235.66</ele>
        <time>2025-04-24T08:22:51Z</time>
      </trkpt>
      <trkpt lat="46.193751990795135" lon="5.224994961172342">
        <ele>235.66</ele>
        <time>2025-04-24T08:22:52Z</time>
      </trkpt>
      <trkpt lat="46.19423596188426" lon="5.225066039711237">
        <ele>234.69999999999999</ele>
        <time>2025-04-24T08:22:58Z</time>
      </trkpt>
      <trkpt lat="46.194401001557708" lon="5.225090011954308">
        <ele>233.74000000000001</ele>
        <time>2025-04-24T08:23:00Z</time>
      </trkpt>
      <trkpt lat="46.195182027295232" lon="5.225206017494202">
        <ele>235.66</ele>
        <time>2025-04-24T08:23:08Z</time>
      </trkpt>
      <trkpt lat="46.195250004529953" lon="5.225219009444118">
        <ele>236.13999999999999</ele>
        <time>2025-04-24T08:23:09Z</time>
      </trkpt>
      <trkpt lat="46.195297027006745" lon="5.225226972252131">
        <ele>236.62</ele>
        <time>2025-04-24T08:23:10Z</time>
      </trkpt>
      <trkpt lat="46.195379002019763" lon="5.225328980013728">
        <ele>237.09999999999999</ele>
        <time>2025-04-24T08:23:11Z</time>
      </trkpt>
      <trkpt lat="46.19537397287786" lon="5.22539502941072">
        <ele>237.09999999999999</ele>
        <time>2025-04-24T08:23:12Z</time>
      </trkpt>
      <trkpt lat="46.195368021726608" lon="5.22548102773726">
        <ele>237.58000000000001</ele>
        <time>2025-04-24T08:23:13Z</time>
      </trkpt>
      <trkpt lat="46.195365004241467" lon="5.225573983043432">
        <ele>237.58000000000001</ele>
        <time>2025-04-24T08:23:14Z</time>
      </trkpt>
      <trkpt lat="46.195365004241467" lon="5.225685965269804">
        <ele>238.06</ele>
        <time>2025-04-24T08:23:15Z</time>
      </trkpt>
      <trkpt lat="46.195322005078197" lon="5.227024974301457">
        <ele>236.62</ele>
        <time>2025-04-24T08:23:24Z</time>
      </trkpt>
      <trkpt lat="46.195272970944643" lon="5.228356020525098">
        <ele>235.18000000000001</ele>
        <time>2025-04-24T08:23:33Z</time>
      </trkpt>
      <trkpt lat="46.195259978994727" lon="5.228803027421236">
        <ele>234.22</ele>
        <time>2025-04-24T08:23:37Z</time>
      </trkpt>
      <trkpt lat="46.195107009261847" lon="5.229624034836888">
        <ele>233.74000000000001</ele>
        <time>2025-04-24T08:23:45Z</time>
      </trkpt>
      <trkpt lat="46.195147996768355" lon="5.229740040376782">
        <ele>233.74000000000001</ele>
        <time>2025-04-24T08:23:46Z</time>
      </trkpt>
      <trkpt lat="46.195197030901909" lon="5.229787984862924">
        <ele>233.74000000000001</ele>
        <time>2025-04-24T08:23:47Z</time>
      </trkpt>
      <trkpt lat="46.195269031450152" lon="5.229792008176446">
        <ele>234.22</ele>
        <time>2025-04-24T08:23:48Z</time>
      </trkpt>
      <trkpt lat="46.195299960672855" lon="5.229770969599485">
        <ele>234.22</ele>
        <time>2025-04-24T08:23:49Z</time>
      </trkpt>
      <trkpt lat="46.195311024785042" lon="5.229681031778455">
        <ele>234.69999999999999</ele>
        <time>2025-04-24T08:23:50Z</time>
      </trkpt>
      <trkpt lat="46.195322005078197" lon="5.229599978774786">
        <ele>234.69999999999999</ele>
        <time>2025-04-24T08:23:51Z</time>
      </trkpt>
      <trkpt lat="46.195322005078197" lon="5.229553962126374">
        <ele>234.69999999999999</ele>
        <time>2025-04-24T08:23:52Z</time>
      </trkpt>
      <trkpt lat="46.195322005078197" lon="5.229535019025207">
        <ele>234.69999999999999</ele>
        <time>2025-04-24T08:23:53Z</time>
      </trkpt>
      <trkpt lat="46.195236006751657" lon="5.229366039857268">
        <ele>235.18000000000001</ele>
        <time>2025-04-24T08:23:55Z</time>
      </trkpt>
      <trkpt lat="46.195236006751657" lon="5.229298984631896">
        <ele>235.66</ele>
        <time>2025-04-24T08:23:56Z</time>
      </trkpt>
      <trkpt lat="46.195236006751657" lon="5.22922296077013">
        <ele>235.66</ele>
        <time>2025-04-24T08:23:57Z</time>
      </trkpt>
      <trkpt lat="46.195236006751657" lon="5.229142997413874">
        <ele>236.13999999999999</ele>
        <time>2025-04-24T08:23:58Z</time>
      </trkpt>
      <trkpt lat="46.195242963731289" lon="5.229061022400856">
        <ele>236.13999999999999</ele>
        <time>2025-04-24T08:23:59Z</time>
      </trkpt>
      <trkpt lat="46.195273976773024" lon="5.22829600609839">
        <ele>237.09999999999999</ele>
        <time>2025-04-24T08:24:09Z</time>
      </trkpt>
      <trkpt lat="46.195279005914927" lon="5.228140018880367">
        <ele>237.58000000000001</ele>
        <time>2025-04-24T08:24:13Z</time>
      </trkpt>
      <trkpt lat="46.195279005914927" lon="5.228135995566845">
        <ele>237.58000000000001</ele>
        <time>2025-04-24T08:24:14Z</time>
      </trkpt>
      <trkpt lat="46.195278000086546" lon="5.228164996951819">
        <ele>237.09999999999999</ele>
        <time>2025-04-24T08:24:17Z</time>
      </trkpt>
      <trkpt lat="46.195276994258165" lon="5.228200033307076">
        <ele>236.62</ele>
        <time>2025-04-24T08:24:18Z</time>
      </trkpt>
      <trkpt lat="46.195275988429785" lon="5.22823297418654">
        <ele>236.62</ele>
        <time>2025-04-24T08:24:19Z</time>
      </trkpt>
      <trkpt lat="46.195274982601404" lon="5.228263987228274">
        <ele>236.13999999999999</ele>
        <time>2025-04-24T08:24:20Z</time>
      </trkpt>
      <trkpt lat="46.195273976773024" lon="5.228290976956487">
        <ele>235.66</ele>
        <time>2025-04-24T08:24:21Z</time>
      </trkpt>
      <trkpt lat="46.195273976773024" lon="5.228314027190208">
        <ele>235.66</ele>
        <time>2025-04-24T08:24:22Z</time>
      </trkpt>
      <trkpt lat="46.195272970944643" lon="5.228330958634615">
        <ele>235.66</ele>
        <time>2025-04-24T08:24:23Z</time>
      </trkpt>
      <trkpt lat="46.195272970944643" lon="5.228349985554814">
        <ele>235.66</ele>
        <time>2025-04-24T08:24:24Z</time>
      </trkpt>
      <trkpt lat="46.195515040308237" lon="5.228441013023257">
        <ele>235.66</ele>
        <time>2025-04-24T08:24:25Z</time>
      </trkpt>
      <trkpt lat="46.195515040308237" lon="5.228441013023257">
        <ele>235.66</ele>
        <time>2025-04-24T08:24:26Z</time>
      </trkpt>
      <trkpt lat="46.195515040308237" lon="5.228441013023257">
        <ele>235.66</ele>
        <time>2025-04-24T08:24:27Z</time>
      </trkpt>
      <trkpt lat="46.195528032258153" lon="5.228441013023257">
        <ele>235.18000000000001</ele>
        <time>2025-04-24T08:24:28Z</time>
      </trkpt>
      <trkpt lat="46.195562984794378" lon="5.228444030508399">
        <ele>235.18000000000001</ele>
        <time>2025-04-24T08:24:29Z</time>
      </trkpt>
      <trkpt lat="46.195587962865829" lon="5.22844503633678">
        <ele>235.18000000000001</ele>
        <time>2025-04-24T08:24:30Z</time>
      </trkpt>
      <trkpt lat="46.195607995614409" lon="5.228446964174509">
        <ele>235.18000000000001</ele>
        <time>2025-04-24T08:24:31Z</time>
      </trkpt>
      <trkpt lat="46.195624005049467" lon="5.22844797000289">
        <ele>235.18000000000001</ele>
        <time>2025-04-24T08:24:32Z</time>
      </trkpt>
      <trkpt lat="46.195636996999383" lon="5.22844897583127">
        <ele>235.18000000000001</ele>
        <time>2025-04-24T08:24:33Z</time>
      </trkpt>
      <trkpt lat="46.195636996999383" lon="5.22844897583127">
        <ele>235.18000000000001</ele>
        <time>2025-04-24T08:24:47Z</time>
      </trkpt>
      <trkpt lat="46.195636996999383" lon="5.22844897583127">
        <ele>235.18000000000001</ele>
        <time>2025-04-24T08:24:58Z</time>
      </trkpt>
      <trkpt lat="46.19576096534729" lon="5.228456016629934">
        <ele>237.09999999999999</ele>
        <time>2025-04-24T08:25:02Z</time>
      </trkpt>
      <trkpt lat="46.195794995874166" lon="5.228459034115076">
        <ele>237.58000000000001</ele>
        <time>2025-04-24T08:25:03Z</time>
      </trkpt>
      <trkpt lat="46.196095990017056" lon="5.228477977216244">
        <ele>238.53999999999999</ele>
        <time>2025-04-24T08:25:15Z</time>
      </trkpt>
      <trkpt lat="46.196269998326898" lon="5.22848904132843">
        <ele>237.58000000000001</ele>
        <time>2025-04-24T08:25:24Z</time>
      </trkpt>
      <trkpt lat="46.196269998326898" lon="5.22848904132843">
        <ele>237.58000000000001</ele>
        <time>2025-04-24T08:25:25Z</time>
      </trkpt>
      <trkpt lat="46.196269998326898" lon="5.22848904132843">
        <ele>237.09999999999999</ele>
        <time>2025-04-24T08:25:40Z</time>
      </trkpt>
      <trkpt lat="46.196269998326898" lon="5.22848904132843">
        <ele>237.09999999999999</ele>
        <time>2025-04-24T08:25:57Z</time>
      </trkpt>
      <trkpt lat="46.196272009983659" lon="5.22848904132843">
        <ele>237.09999999999999</ele>
        <time>2025-04-24T08:26:04Z</time>
      </trkpt>
      <trkpt lat="46.196019966155291" lon="5.228543020784855">
        <ele>220.28</ele>
        <time>2025-04-24T09:04:25Z</time>
      </trkpt>
      <trkpt lat="46.196285001933575" lon="5.228473031893373">
        <ele>241.43000000000001</ele>
        <time>2025-04-24T09:04:56Z</time>
      </trkpt>
      <trkpt lat="46.196283996105194" lon="5.228454004973173">
        <ele>241.43000000000001</ele>
        <time>2025-04-24T09:05:37Z</time>
      </trkpt>
      <trkpt lat="46.196326995268464" lon="5.228509996086359">
        <ele>245.75</ele>
        <time>2025-04-24T09:06:07Z</time>
      </trkpt>
      <trkpt lat="46.196233034133911" lon="5.228483006358147">
        <ele>247.19999999999999</ele>
        <time>2025-04-24T09:06:20Z</time>
      </trkpt>
      <trkpt lat="46.195916030555964" lon="5.228465991094708">
        <ele>246.22999999999999</ele>
        <time>2025-04-24T09:06:29Z</time>
      </trkpt>
      <trkpt lat="46.195515040308237" lon="5.228441013023257">
        <ele>244.31</ele>
        <time>2025-04-24T09:06:39Z</time>
      </trkpt>
      <trkpt lat="46.195472963154316" lon="5.228349985554814">
        <ele>244.31</ele>
        <time>2025-04-24T09:06:40Z</time>
      </trkpt>
      <trkpt lat="46.195447985082865" lon="5.22829600609839">
        <ele>244.31</ele>
        <time>2025-04-24T09:06:41Z</time>
      </trkpt>
      <trkpt lat="46.195425018668175" lon="5.228245966136456">
        <ele>243.83000000000001</ele>
        <time>2025-04-24T09:06:42Z</time>
      </trkpt>
      <trkpt lat="46.195402974262834" lon="5.228199027478695">
        <ele>243.83000000000001</ele>
        <time>2025-04-24T09:06:43Z</time>
      </trkpt>
      <trkpt lat="46.195380007848144" lon="5.228160973638296">
        <ele>243.83000000000001</ele>
        <time>2025-04-24T09:06:44Z</time>
      </trkpt>
      <trkpt lat="46.195353018119931" lon="5.228155022487044">
        <ele>243.34999999999999</ele>
        <time>2025-04-24T09:06:45Z</time>
      </trkpt>
      <trkpt lat="46.195286968722939" lon="5.228055026382208">
        <ele>242.87</ele>
        <time>2025-04-24T09:06:47Z</time>
      </trkpt>
      <trkpt lat="46.195299960672855" lon="5.227926028892398">
        <ele>243.34999999999999</ele>
        <time>2025-04-24T09:06:48Z</time>
      </trkpt>
      <trkpt lat="46.195299960672855" lon="5.227870959788561">
        <ele>243.34999999999999</ele>
        <time>2025-04-24T09:06:49Z</time>
      </trkpt>
      <trkpt lat="46.195325022563338" lon="5.22664200514555">
        <ele>245.27000000000001</ele>
        <time>2025-04-24T09:06:58Z</time>
      </trkpt>
      <trkpt lat="46.195406997576356" lon="5.224962020292878">
        <ele>248.16</ele>
        <time>2025-04-24T09:07:09Z</time>
      </trkpt>
      <trkpt lat="46.195563990622759" lon="5.223142979666591">
        <ele>252.47999999999999</ele>
        <time>2025-04-24T09:07:20Z</time>
      </trkpt>
      <trkpt lat="46.195725006982684" lon="5.221167029812932">
        <ele>253.93000000000001</ele>
        <time>2025-04-24T09:07:32Z</time>
      </trkpt>
      <trkpt lat="46.195890968665481" lon="5.219500958919525">
        <ele>255.84999999999999</ele>
        <time>2025-04-24T09:07:44Z</time>
      </trkpt>
      <trkpt lat="46.195901026949286" lon="5.218569980934262">
        <ele>257.76999999999998</ele>
        <time>2025-04-24T09:07:50Z</time>
      </trkpt>
      <trkpt lat="46.195875965058804" lon="5.218445006757975">
        <ele>258.25</ele>
        <time>2025-04-24T09:07:51Z</time>
      </trkpt>
      <trkpt lat="46.195847969502211" lon="5.218334030359983">
        <ele>258.25</ele>
        <time>2025-04-24T09:07:52Z</time>
      </trkpt>
      <trkpt lat="46.195769011974335" lon="5.218108976259828">
        <ele>258.73000000000002</ele>
        <time>2025-04-24T09:07:54Z</time>
      </trkpt>
      <trkpt lat="46.195762977004051" lon="5.217999005690217">
        <ele>258.73000000000002</ele>
        <time>2025-04-24T09:07:55Z</time>
      </trkpt>
      <trkpt lat="46.195757025852799" lon="5.217899009585381">
        <ele>258.73000000000002</ele>
        <time>2025-04-24T09:07:56Z</time>
      </trkpt>
      <trkpt lat="46.195750990882516" lon="5.217798007652164">
        <ele>258.25</ele>
        <time>2025-04-24T09:07:57Z</time>
      </trkpt>
      <trkpt lat="46.195750990882516" lon="5.217711003497243">
        <ele>258.25</ele>
        <time>2025-04-24T09:07:58Z</time>
      </trkpt>
      <trkpt lat="46.195750990882516" lon="5.2176199760288">
        <ele>258.25</ele>
        <time>2025-04-24T09:07:59Z</time>
      </trkpt>
      <trkpt lat="46.195757025852799" lon="5.217522997409105">
        <ele>258.25</ele>
        <time>2025-04-24T09:08:00Z</time>
      </trkpt>
      <trkpt lat="46.195869008079171" lon="5.216795029118657">
        <ele>258.25</ele>
        <time>2025-04-24T09:08:08Z</time>
      </trkpt>
      <trkpt lat="46.195879988372326" lon="5.216725040227175">
        <ele>258.73000000000002</ele>
        <time>2025-04-24T09:08:09Z</time>
      </trkpt>
      <trkpt lat="46.195879988372326" lon="5.216725040227175">
        <ele>258.73000000000002</ele>
        <time>2025-04-24T09:08:10Z</time>
      </trkpt>
      <trkpt lat="46.195949977263808" lon="5.216528987511993">
        <ele>258.73000000000002</ele>
        <time>2025-04-24T09:08:11Z</time>
      </trkpt>
      <trkpt lat="46.195944026112556" lon="5.216509960591793">
        <ele>258.25</ele>
        <time>2025-04-24T09:08:12Z</time>
      </trkpt>
      <trkpt lat="46.195836989209056" lon="5.216412981972098">
        <ele>258.25</ele>
        <time>2025-04-24T09:08:13Z</time>
      </trkpt>
      <trkpt lat="46.195797007530928" lon="5.21630996838212">
        <ele>258.73000000000002</ele>
        <time>2025-04-24T09:08:14Z</time>
      </trkpt>
      <trkpt lat="46.195750990882516" lon="5.216193040832877">
        <ele>258.25</ele>
        <time>2025-04-24T09:08:15Z</time>
      </trkpt>
      <trkpt lat="46.195700028911233" lon="5.216063959524036">
        <ele>258.25</ele>
        <time>2025-04-24T09:08:16Z</time>
      </trkpt>
      <trkpt lat="46.195647977292538" lon="5.215931022539735">
        <ele>258.25</ele>
        <time>2025-04-24T09:08:17Z</time>
      </trkpt>
      <trkpt lat="46.195164006203413" lon="5.215004989877343">
        <ele>257.76999999999998</ele>
        <time>2025-04-24T09:08:25Z</time>
      </trkpt>
      <trkpt lat="46.195089993998408" lon="5.214912034571171">
        <ele>257.76999999999998</ele>
        <time>2025-04-24T09:08:26Z</time>
      </trkpt>
      <trkpt lat="46.195017993450165" lon="5.214822012931109">
        <ele>257.76999999999998</ele>
        <time>2025-04-24T09:08:27Z</time>
      </trkpt>
      <trkpt lat="46.194032030180097" lon="5.214058002457023">
        <ele>257.29000000000002</ele>
        <time>2025-04-24T09:08:38Z</time>
      </trkpt>
      <trkpt lat="46.192969037219882" lon="5.213251998648047">
        <ele>255.84999999999999</ele>
        <time>2025-04-24T09:08:50Z</time>
      </trkpt>
      <trkpt lat="46.192078040912747" lon="5.212573986500502">
        <ele>252.96000000000001</ele>
        <time>2025-04-24T09:09:02Z</time>
      </trkpt>
      <trkpt lat="46.191961029544473" lon="5.212496034801006">
        <ele>252.47999999999999</ele>
        <time>2025-04-24T09:09:04Z</time>
      </trkpt>
      <trkpt lat="46.191907972097397" lon="5.212460998445749">
        <ele>252</ele>
        <time>2025-04-24T09:09:05Z</time>
      </trkpt>
      <trkpt lat="46.19189003482461" lon="5.212325965985656">
        <ele>251.52000000000001</ele>
        <time>2025-04-24T09:09:06Z</time>
      </trkpt>
      <trkpt lat="46.191906966269016" lon="5.212242985144258">
        <ele>251.03999999999999</ele>
        <time>2025-04-24T09:09:07Z</time>
      </trkpt>
      <trkpt lat="46.191928004845977" lon="5.212145000696182">
        <ele>251.03999999999999</ele>
        <time>2025-04-24T09:09:08Z</time>
      </trkpt>
      <trkpt lat="46.191952982917428" lon="5.211752979084849">
        <ele>250.08000000000001</ele>
        <time>2025-04-24T09:09:11Z</time>
      </trkpt>
      <trkpt lat="46.191952982917428" lon="5.210478007793427">
        <ele>247.19999999999999</ele>
        <time>2025-04-24T09:09:21Z</time>
      </trkpt>
      <trkpt lat="46.191952982917428" lon="5.210395026952028">
        <ele>246.72</ele>
        <time>2025-04-24T09:09:22Z</time>
      </trkpt>
      <trkpt lat="46.191937979310751" lon="5.210297964513302">
        <ele>246.22999999999999</ele>
        <time>2025-04-24T09:09:23Z</time>
      </trkpt>
      <trkpt lat="46.191780986264348" lon="5.209621964022517">
        <ele>244.78999999999999</ele>
        <time>2025-04-24T09:09:30Z</time>
      </trkpt>
      <trkpt lat="46.19169901125133" lon="5.208975970745087">
        <ele>244.31</ele>
        <time>2025-04-24T09:09:37Z</time>
      </trkpt>
      <trkpt lat="46.19167897850275" lon="5.20887597464025">
        <ele>244.31</ele>
        <time>2025-04-24T09:09:38Z</time>
      </trkpt>
      <trkpt lat="46.19163203984499" lon="5.208476996049285">
        <ele>245.75</ele>
        <time>2025-04-24T09:09:42Z</time>
      </trkpt>
      <trkpt lat="46.191539000719786" lon="5.207817004993558">
        <ele>247.68000000000001</ele>
        <time>2025-04-24T09:09:49Z</time>
      </trkpt>
      <trkpt lat="46.191523997113109" lon="5.207720026373863">
        <ele>248.16</ele>
        <time>2025-04-24T09:09:50Z</time>
      </trkpt>
      <trkpt lat="46.191473035141826" lon="5.207389025017619">
        <ele>248.63999999999999</ele>
        <time>2025-04-24T09:09:54Z</time>
      </trkpt>
      <trkpt lat="46.1914639826864" lon="5.207332028076053">
        <ele>249.12</ele>
        <time>2025-04-24T09:09:55Z</time>
      </trkpt>
      <trkpt lat="46.191457025706768" lon="5.207286011427641">
        <ele>249.12</ele>
        <time>2025-04-24T09:09:56Z</time>
      </trkpt>
      <trkpt lat="46.191450990736485" lon="5.207248963415623">
        <ele>249.59999999999999</ele>
        <time>2025-04-24T09:09:57Z</time>
      </trkpt>
      <trkpt lat="46.191450990736485" lon="5.207248963415623">
        <ele>249.59999999999999</ele>
        <time>2025-04-24T09:10:07Z</time>
      </trkpt>
      <trkpt lat="46.191416038200259" lon="5.20702600479126">
        <ele>250.56</ele>
        <time>2025-04-24T09:10:19Z</time>
      </trkpt>
      <trkpt lat="46.191400028765202" lon="5.206050015985966">
        <ele>250.56</ele>
        <time>2025-04-24T09:10:27Z</time>
      </trkpt>
      <trkpt lat="46.191242029890418" lon="5.204715030267835">
        <ele>250.56</ele>
        <time>2025-04-24T09:10:36Z</time>
      </trkpt>
      <trkpt lat="46.191014964133501" lon="5.20345900207758">
        <ele>247.68000000000001</ele>
        <time>2025-04-24T09:10:47Z</time>
      </trkpt>
      <trkpt lat="46.190857971087098" lon="5.20210599526763">
        <ele>248.63999999999999</ele>
        <time>2025-04-24T09:11:00Z</time>
      </trkpt>
      <trkpt lat="46.190844979137182" lon="5.200751982629299">
        <ele>247.68000000000001</ele>
        <time>2025-04-24T09:11:12Z</time>
      </trkpt>
      <trkpt lat="46.19081899523735" lon="5.199697036296129">
        <ele>248.16</ele>
        <time>2025-04-24T09:11:23Z</time>
      </trkpt>
      <trkpt lat="46.190801979973912" lon="5.199392018839717">
        <ele>248.16</ele>
        <time>2025-04-24T09:11:26Z</time>
      </trkpt>
      <trkpt lat="46.19079602882266" lon="5.199283976107836">
        <ele>247.68000000000001</ele>
        <time>2025-04-24T09:11:27Z</time>
      </trkpt>
      <trkpt lat="46.190789993852377" lon="5.199174005538225">
        <ele>248.16</ele>
        <time>2025-04-24T09:11:28Z</time>
      </trkpt>
      <trkpt lat="46.190783958882093" lon="5.199065040796995">
        <ele>248.16</ele>
        <time>2025-04-24T09:11:29Z</time>
      </trkpt>
      <trkpt lat="46.190777001902461" lon="5.198953980579972">
        <ele>248.16</ele>
        <time>2025-04-24T09:11:30Z</time>
      </trkpt>
      <trkpt lat="46.190751018002629" lon="5.197563003748655">
        <ele>247.19999999999999</ele>
        <time>2025-04-24T09:11:42Z</time>
      </trkpt>
      <trkpt lat="46.190765015780926" lon="5.197194032371044">
        <ele>246.72</ele>
        <time>2025-04-24T09:11:45Z</time>
      </trkpt>
      <trkpt lat="46.190779013559222" lon="5.197066040709615">
        <ele>246.22999999999999</ele>
        <time>2025-04-24T09:11:46Z</time>
      </trkpt>
      <trkpt lat="46.190790999680758" lon="5.196944000199437">
        <ele>246.72</ele>
        <time>2025-04-24T09:11:47Z</time>
      </trkpt>
      <trkpt lat="46.190923014655709" lon="5.196897983551025">
        <ele>246.22999999999999</ele>
        <time>2025-04-24T09:11:48Z</time>
      </trkpt>
      <trkpt lat="46.190993003547192" lon="5.196767980232835">
        <ele>246.22999999999999</ele>
        <time>2025-04-24T09:11:49Z</time>
      </trkpt>
      <trkpt lat="46.191005995497108" lon="5.196664966642857">
        <ele>246.22999999999999</ele>
        <time>2025-04-24T09:11:50Z</time>
      </trkpt>
      <trkpt lat="46.190938018262386" lon="5.19651803188026">
        <ele>245.75</ele>
        <time>2025-04-24T09:11:51Z</time>
      </trkpt>
      <trkpt lat="46.190851014107466" lon="5.196490036323667">
        <ele>245.27000000000001</ele>
        <time>2025-04-24T09:11:52Z</time>
      </trkpt>
      <trkpt lat="46.19077599607408" lon="5.196490036323667">
        <ele>244.78999999999999</ele>
        <time>2025-04-24T09:11:53Z</time>
      </trkpt>
      <trkpt lat="46.190721010789275" lon="5.196530018001795">
        <ele>244.31</ele>
        <time>2025-04-24T09:11:54Z</time>
      </trkpt>
      <trkpt lat="46.190614979714155" lon="5.196565976366401">
        <ele>244.31</ele>
        <time>2025-04-24T09:11:55Z</time>
      </trkpt>
      <trkpt lat="46.190522024407983" lon="5.196552984416485">
        <ele>243.83000000000001</ele>
        <time>2025-04-24T09:11:56Z</time>
      </trkpt>
      <trkpt lat="46.19041096419096" lon="5.196536974981427">
        <ele>243.34999999999999</ele>
        <time>2025-04-24T09:11:57Z</time>
      </trkpt>
      <trkpt lat="46.190292024984956" lon="5.196462962776423">
        <ele>243.34999999999999</ele>
        <time>2025-04-24T09:11:58Z</time>
      </trkpt>
      <trkpt lat="46.190169984474778" lon="5.196373024955392">
        <ele>242.87</ele>
        <time>2025-04-24T09:11:59Z</time>
      </trkpt>
      <trkpt lat="46.190038975328207" lon="5.196276968345046">
        <ele>242.38999999999999</ele>
        <time>2025-04-24T09:12:00Z</time>
      </trkpt>
      <trkpt lat="46.189892962574959" lon="5.196168003603816">
        <ele>241.91</ele>
        <time>2025-04-24T09:12:01Z</time>
      </trkpt>
      <trkpt lat="46.189768994227052" lon="5.196019979193807">
        <ele>241.43000000000001</ele>
        <time>2025-04-24T09:12:02Z</time>
      </trkpt>
      <trkpt lat="46.189638990908861" lon="5.195847982540727">
        <ele>241.43000000000001</ele>
        <time>2025-04-24T09:12:03Z</time>
      </trkpt>
      <trkpt lat="46.189517034217715" lon="5.195652013644576">
        <ele>240.94999999999999</ele>
        <time>2025-04-24T09:12:04Z</time>
      </trkpt>
      <trkpt lat="46.189395999535918" lon="5.195446992293">
        <ele>239.99000000000001</ele>
        <time>2025-04-24T09:12:05Z</time>
      </trkpt>
      <trkpt lat="46.188869029283524" lon="5.194621961563826">
        <ele>236.62</ele>
        <time>2025-04-24T09:12:09Z</time>
      </trkpt>
      <trkpt lat="46.188725028187037" lon="5.194448037073016">
        <ele>235.66</ele>
        <time>2025-04-24T09:12:10Z</time>
      </trkpt>
      <trkpt lat="46.188565017655492" lon="5.194299006834626">
        <ele>234.69999999999999</ele>
        <time>2025-04-24T09:12:11Z</time>
      </trkpt>
      <trkpt lat="46.188407018780708" lon="5.194152994081378">
        <ele>234.22</ele>
        <time>2025-04-24T09:12:12Z</time>
      </trkpt>
      <trkpt lat="46.188252037391067" lon="5.194008992984891">
        <ele>233.25999999999999</ele>
        <time>2025-04-24T09:12:13Z</time>
      </trkpt>
      <trkpt lat="46.188094960525632" lon="5.193902039900422">
        <ele>232.78</ele>
        <time>2025-04-24T09:12:14Z</time>
      </trkpt>
      <trkpt lat="46.187928998842835" lon="5.193793997168541">
        <ele>232.30000000000001</ele>
        <time>2025-04-24T09:12:15Z</time>
      </trkpt>
      <trkpt lat="46.18776798248291" lon="5.193740017712116">
        <ele>231.33000000000001</ele>
        <time>2025-04-24T09:12:16Z</time>
      </trkpt>
      <trkpt lat="46.187597997486591" lon="5.193707998842001">
        <ele>230.84999999999999</ele>
        <time>2025-04-24T09:12:17Z</time>
      </trkpt>
      <trkpt lat="46.18742398917675" lon="5.193675979971886">
        <ele>230.37</ele>
        <time>2025-04-24T09:12:18Z</time>
      </trkpt>
      <trkpt lat="46.187252998352051" lon="5.19364396110177">
        <ele>230.37</ele>
        <time>2025-04-24T09:12:19Z</time>
      </trkpt>
      <trkpt lat="46.187087036669254" lon="5.193645972758532">
        <ele>229.88999999999999</ele>
        <time>2025-04-24T09:12:20Z</time>
      </trkpt>
      <trkpt lat="46.185764037072659" lon="5.194064984098077">
        <ele>227.49000000000001</ele>
        <time>2025-04-24T09:12:28Z</time>
      </trkpt>
      <trkpt lat="46.184012973681092" lon="5.194793958216906">
        <ele>225.09</ele>
        <time>2025-04-24T09:12:38Z</time>
      </trkpt>
      <trkpt lat="46.182615961879492" lon="5.194925973191857">
        <ele>224.61000000000001</ele>
        <time>2025-04-24T09:12:45Z</time>
      </trkpt>
      <trkpt lat="46.180171966552734" lon="5.194746013730764">
        <ele>228.93000000000001</ele>
        <time>2025-04-24T09:12:57Z</time>
      </trkpt>
      <trkpt lat="46.179404016584158" lon="5.194708965718746">
        <ele>229.88999999999999</ele>
        <time>2025-04-24T09:13:01Z</time>
      </trkpt>
      <trkpt lat="46.179219027981162" lon="5.194677030667663">
        <ele>230.37</ele>
        <time>2025-04-24T09:13:02Z</time>
      </trkpt>
      <trkpt lat="46.179034961387515" lon="5.194645011797547">
        <ele>230.84999999999999</ele>
        <time>2025-04-24T09:13:03Z</time>
      </trkpt>
      <trkpt lat="46.178857013583183" lon="5.194573011249304">
        <ele>231.33000000000001</ele>
        <time>2025-04-24T09:13:04Z</time>
      </trkpt>
      <trkpt lat="46.178675964474678" lon="5.19450000487268">
        <ele>231.81</ele>
        <time>2025-04-24T09:13:05Z</time>
      </trkpt>
      <trkpt lat="46.176117975264788" lon="5.193411028012633">
        <ele>243.34999999999999</ele>
        <time>2025-04-24T09:13:19Z</time>
      </trkpt>
      <trkpt lat="46.173536013811827" lon="5.192289026454091">
        <ele>244.78999999999999</ele>
        <time>2025-04-24T09:13:33Z</time>
      </trkpt>
      <trkpt lat="46.170568987727165" lon="5.190996034070849">
        <ele>247.68000000000001</ele>
        <time>2025-04-24T09:13:50Z</time>
      </trkpt>
      <trkpt lat="46.169965993613005" lon="5.190777014940977">
        <ele>248.63999999999999</ele>
        <time>2025-04-24T09:13:55Z</time>
      </trkpt>
      <trkpt lat="46.169897010549903" lon="5.190759999677539">
        <ele>249.12</ele>
        <time>2025-04-24T09:13:56Z</time>
      </trkpt>
      <trkpt lat="46.169819980859756" lon="5.190557995811105">
        <ele>249.12</ele>
        <time>2025-04-24T09:13:57Z</time>
      </trkpt>
      <trkpt lat="46.169830039143562" lon="5.190395973622799">
        <ele>249.12</ele>
        <time>2025-04-24T09:13:58Z</time>
      </trkpt>
      <trkpt lat="46.169833978638053" lon="5.190275022760034">
        <ele>249.12</ele>
        <time>2025-04-24T09:13:59Z</time>
      </trkpt>
      <trkpt lat="46.169865997508168" lon="5.188701990991831">
        <ele>246.72</ele>
        <time>2025-04-24T09:14:06Z</time>
      </trkpt>
      <trkpt lat="46.169891981408" lon="5.18573303706944">
        <ele>243.34999999999999</ele>
        <time>2025-04-24T09:14:17Z</time>
      </trkpt>
      <trkpt lat="46.169859040528536" lon="5.185509994626045">
        <ele>242.38999999999999</ele>
        <time>2025-04-24T09:14:18Z</time>
      </trkpt>
      <trkpt lat="46.169782010838389" lon="5.185310002416372">
        <ele>241.91</ele>
        <time>2025-04-24T09:14:19Z</time>
      </trkpt>
      <trkpt lat="46.169683020561934" lon="5.185129037126899">
        <ele>241.43000000000001</ele>
        <time>2025-04-24T09:14:20Z</time>
      </trkpt>
      <trkpt lat="46.169562991708517" lon="5.184965003281832">
        <ele>240.94999999999999</ele>
        <time>2025-04-24T09:14:21Z</time>
      </trkpt>
      <trkpt lat="46.169436005875468" lon="5.184792000800371">
        <ele>239.99000000000001</ele>
        <time>2025-04-24T09:14:22Z</time>
      </trkpt>
      <trkpt lat="46.169300973415375" lon="5.184609023854137">
        <ele>239.02000000000001</ele>
        <time>2025-04-24T09:14:23Z</time>
      </trkpt>
      <trkpt lat="46.169173987582326" lon="5.184419006109238">
        <ele>238.06</ele>
        <time>2025-04-24T09:14:24Z</time>
      </trkpt>
      <trkpt lat="46.169087989255786" lon="5.184179032221437">
        <ele>236.62</ele>
        <time>2025-04-24T09:14:25Z</time>
      </trkpt>
      <trkpt lat="46.168993022292852" lon="5.183916008099914">
        <ele>235.66</ele>
        <time>2025-04-24T09:14:26Z</time>
      </trkpt>
      <trkpt lat="46.168980030342937" lon="5.183663964271545">
        <ele>234.69999999999999</ele>
        <time>2025-04-24T09:14:27Z</time>
      </trkpt>
      <trkpt lat="46.168981036171317" lon="5.183389959856868">
        <ele>233.74000000000001</ele>
        <time>2025-04-24T09:14:28Z</time>
      </trkpt>
      <trkpt lat="46.169007020071149" lon="5.183119978755713">
        <ele>232.78</ele>
        <time>2025-04-24T09:14:29Z</time>
      </trkpt>
      <trkpt lat="46.1690319981426" lon="5.182858966290951">
        <ele>231.81</ele>
        <time>2025-04-24T09:14:30Z</time>
      </trkpt>
      <trkpt lat="46.169106010347605" lon="5.1820810418576">
        <ele>229.41</ele>
        <time>2025-04-24T09:14:33Z</time>
      </trkpt>
      <trkpt lat="46.169113973155618" lon="5.181847019121051">
        <ele>228.93000000000001</ele>
        <time>2025-04-24T09:14:34Z</time>
      </trkpt>
      <trkpt lat="46.169088995084167" lon="5.181620959192514">
        <ele>227.97</ele>
        <time>2025-04-24T09:14:35Z</time>
      </trkpt>
      <trkpt lat="46.169064017012715" lon="5.181398000568152">
        <ele>227.49000000000001</ele>
        <time>2025-04-24T09:14:36Z</time>
      </trkpt>
      <trkpt lat="46.168993022292852" lon="5.181189961731434">
        <ele>227.49000000000001</ele>
        <time>2025-04-24T09:14:37Z</time>
      </trkpt>
      <trkpt lat="46.168895959854126" lon="5.180989969521761">
        <ele>227.49000000000001</ele>
        <time>2025-04-24T09:14:38Z</time>
      </trkpt>
      <trkpt lat="46.168775008991361" lon="5.180804980918765">
        <ele>227.00999999999999</ele>
        <time>2025-04-24T09:14:39Z</time>
      </trkpt>
      <trkpt lat="46.167454021051526" lon="5.178755018860102">
        <ele>232.78</ele>
        <time>2025-04-24T09:14:49Z</time>
      </trkpt>
      <trkpt lat="46.167198959738016" lon="5.178315974771977">
        <ele>234.69999999999999</ele>
        <time>2025-04-24T09:14:51Z</time>
      </trkpt>
      <trkpt lat="46.16673200391233" lon="5.177374016493559">
        <ele>237.58000000000001</ele>
        <time>2025-04-24T09:14:55Z</time>
      </trkpt>
      <trkpt lat="46.166592026129365" lon="5.177170000970364">
        <ele>238.53999999999999</ele>
        <time>2025-04-24T09:14:56Z</time>
      </trkpt>
      <trkpt lat="46.166437966749072" lon="5.176990041509271">
        <ele>239.02000000000001</ele>
        <time>2025-04-24T09:14:57Z</time>
      </trkpt>
      <trkpt lat="46.166269993409514" lon="5.176841011270881">
        <ele>239.50999999999999</ele>
        <time>2025-04-24T09:14:58Z</time>
      </trkpt>
      <trkpt lat="46.166097996756434" lon="5.176702961325645">
        <ele>240.47</ele>
        <time>2025-04-24T09:14:59Z</time>
      </trkpt>
      <trkpt lat="46.165914013981819" lon="5.176606988534331">
        <ele>240.94999999999999</ele>
        <time>2025-04-24T09:15:00Z</time>
      </trkpt>
      <trkpt lat="46.165726007893682" lon="5.176515961065888">
        <ele>241.91</ele>
        <time>2025-04-24T09:15:01Z</time>
      </trkpt>
      <trkpt lat="46.165534984320402" lon="5.176423005759716">
        <ele>242.87</ele>
        <time>2025-04-24T09:15:02Z</time>
      </trkpt>
      <trkpt lat="46.164365960285068" lon="5.17606501467526">
        <ele>248.63999999999999</ele>
        <time>2025-04-24T09:15:08Z</time>
      </trkpt>
      <trkpt lat="46.164180971682072" lon="5.175939034670591">
        <ele>248.63999999999999</ele>
        <time>2025-04-24T09:15:09Z</time>
      </trkpt>
      <trkpt lat="46.162381041795015" lon="5.174603965133429">
        <ele>248.16</ele>
        <time>2025-04-24T09:15:19Z</time>
      </trkpt>
      <trkpt lat="46.161086037755013" lon="5.173480035737157">
        <ele>251.52000000000001</ele>
        <time>2025-04-24T09:15:27Z</time>
      </trkpt>
      <trkpt lat="46.160957040265203" lon="5.173294963315129">
        <ele>252</ele>
        <time>2025-04-24T09:15:28Z</time>
      </trkpt>
      <trkpt lat="46.160855032503605" lon="5.173089019954205">
        <ele>252.96000000000001</ele>
        <time>2025-04-24T09:15:29Z</time>
      </trkpt>
      <trkpt lat="46.160774985328317" lon="5.172862038016319">
        <ele>252.96000000000001</ele>
        <time>2025-04-24T09:15:30Z</time>
      </trkpt>
      <trkpt lat="46.160707008093596" lon="5.172615023329854">
        <ele>253.44</ele>
        <time>2025-04-24T09:15:31Z</time>
      </trkpt>
      <trkpt lat="46.160185988992453" lon="5.170042030513287">
        <ele>251.52000000000001</ele>
        <time>2025-04-24T09:15:40Z</time>
      </trkpt>
      <trkpt lat="46.16000896319747" lon="5.167585965245962">
        <ele>248.16</ele>
        <time>2025-04-24T09:15:48Z</time>
      </trkpt>
      <trkpt lat="46.15983797237277" lon="5.166430016979575">
        <ele>245.75</ele>
        <time>2025-04-24T09:15:52Z</time>
      </trkpt>
      <trkpt lat="46.159747028723359" lon="5.166171016171575">
        <ele>245.27000000000001</ele>
        <time>2025-04-24T09:15:53Z</time>
      </trkpt>
      <trkpt lat="46.159637980163097" lon="5.165926013141871">
        <ele>244.78999999999999</ele>
        <time>2025-04-24T09:15:54Z</time>
      </trkpt>
      <trkpt lat="46.1589540168643" lon="5.164219960570335">
        <ele>242.38999999999999</ele>
        <time>2025-04-24T09:16:01Z</time>
      </trkpt>
      <trkpt lat="46.158038964495063" lon="5.162085006013513">
        <ele>241.43000000000001</ele>
        <time>2025-04-24T09:16:10Z</time>
      </trkpt>
      <trkpt lat="46.157910972833633" lon="5.161876967176795">
        <ele>242.38999999999999</ele>
        <time>2025-04-24T09:16:11Z</time>
      </trkpt>
      <trkpt lat="46.157567985355854" lon="5.161266010254622">
        <ele>245.27000000000001</ele>
        <time>2025-04-24T09:16:14Z</time>
      </trkpt>
      <trkpt lat="46.157491961494088" lon="5.161064006388187">
        <ele>246.22999999999999</ele>
        <time>2025-04-24T09:16:15Z</time>
      </trkpt>
      <trkpt lat="46.157463965937495" lon="5.160817997530103">
        <ele>246.72</ele>
        <time>2025-04-24T09:16:16Z</time>
      </trkpt>
      <trkpt lat="46.157433958724141" lon="5.16055497340858">
        <ele>247.68000000000001</ele>
        <time>2025-04-24T09:16:17Z</time>
      </trkpt>
      <trkpt lat="46.157401017844677" lon="5.160270994529128">
        <ele>248.16</ele>
        <time>2025-04-24T09:16:18Z</time>
      </trkpt>
      <trkpt lat="46.157368998974562" lon="5.159987015649676">
        <ele>248.63999999999999</ele>
        <time>2025-04-24T09:16:19Z</time>
      </trkpt>
      <trkpt lat="46.157333040609956" lon="5.158224971964955">
        <ele>250.56</ele>
        <time>2025-04-24T09:16:25Z</time>
      </trkpt>
      <trkpt lat="46.157434964552522" lon="5.155940987169743">
        <ele>253.44</ele>
        <time>2025-04-24T09:16:33Z</time>
      </trkpt>
      <trkpt lat="46.157200019806623" lon="5.153146041557193">
        <ele>255.37</ele>
        <time>2025-04-24T09:16:43Z</time>
      </trkpt>
      <trkpt lat="46.156902965158224" lon="5.151644004508853">
        <ele>256.81</ele>
        <time>2025-04-24T09:16:49Z</time>
      </trkpt>
      <trkpt lat="46.156816966831684" lon="5.151443006470799">
        <ele>256.81</ele>
        <time>2025-04-24T09:16:50Z</time>
      </trkpt>
      <trkpt lat="46.156725017353892" lon="5.151305962353945">
        <ele>256.81</ele>
        <time>2025-04-24T09:16:51Z</time>
      </trkpt>
      <trkpt lat="46.156622003763914" lon="5.151219964027405">
        <ele>257.29000000000002</ele>
        <time>2025-04-24T09:16:52Z</time>
      </trkpt>
      <trkpt lat="46.156510021537542" lon="5.151163972914219">
        <ele>257.29000000000002</ele>
        <time>2025-04-24T09:16:53Z</time>
      </trkpt>
      <trkpt lat="46.156401978805661" lon="5.151108987629414">
        <ele>257.76999999999998</ele>
        <time>2025-04-24T09:16:54Z</time>
      </trkpt>
      <trkpt lat="46.156225958839059" lon="5.151021983474493">
        <ele>258.25</ele>
        <time>2025-04-24T09:16:56Z</time>
      </trkpt>
      <trkpt lat="46.15613903850317" lon="5.150905977934599">
        <ele>258.25</ele>
        <time>2025-04-24T09:16:57Z</time>
      </trkpt>
      <trkpt lat="46.156096961349249" lon="5.150849986821413">
        <ele>258.25</ele>
        <time>2025-04-24T09:16:58Z</time>
      </trkpt>
      <trkpt lat="46.156107019633055" lon="5.150700034573674">
        <ele>258.73000000000002</ele>
        <time>2025-04-24T09:16:59Z</time>
      </trkpt>
      <trkpt lat="46.156115988269448" lon="5.150568019598723">
        <ele>258.73000000000002</ele>
        <time>2025-04-24T09:17:00Z</time>
      </trkpt>
      <trkpt lat="46.156125962734222" lon="5.150410020723939">
        <ele>258.73000000000002</ele>
        <time>2025-04-24T09:17:01Z</time>
      </trkpt>
      <trkpt lat="46.156138032674789" lon="5.150241041556001">
        <ele>258.73000000000002</ele>
        <time>2025-04-24T09:17:02Z</time>
      </trkpt>
      <trkpt lat="46.15627096965909" lon="5.148663986474276">
        <ele>257.76999999999998</ele>
        <time>2025-04-24T09:17:12Z</time>
      </trkpt>
      <trkpt lat="46.156413964927197" lon="5.147675005719066">
        <ele>257.29000000000002</ele>
        <time>2025-04-24T09:17:19Z</time>
      </trkpt>
      <trkpt lat="46.156437015160918" lon="5.147525975480676">
        <ele>256.81</ele>
        <time>2025-04-24T09:17:20Z</time>
      </trkpt>
      <trkpt lat="46.156602976843715" lon="5.145945986732841">
        <ele>255.84999999999999</ele>
        <time>2025-04-24T09:17:32Z</time>
      </trkpt>
      <trkpt lat="46.156608005985618" lon="5.145801985636354">
        <ele>256.32999999999998</ele>
        <time>2025-04-24T09:17:38Z</time>
      </trkpt>
      <trkpt lat="46.156609011813998" lon="5.145754963159561">
        <ele>256.32999999999998</ele>
        <time>2025-04-24T09:17:39Z</time>
      </trkpt>
      <trkpt lat="46.156628038734198" lon="5.145680028945208">
        <ele>256.32999999999998</ele>
        <time>2025-04-24T09:17:40Z</time>
      </trkpt>
      <trkpt lat="46.156590990722179" lon="5.145679023116827">
        <ele>256.32999999999998</ele>
        <time>2025-04-24T09:17:41Z</time>
      </trkpt>
      <trkpt lat="46.156536005437374" lon="5.145679023116827">
        <ele>256.32999999999998</ele>
        <time>2025-04-24T09:17:42Z</time>
      </trkpt>
      <trkpt lat="46.156466016545892" lon="5.145679023116827">
        <ele>256.32999999999998</ele>
        <time>2025-04-24T09:17:43Z</time>
      </trkpt>
      <trkpt lat="46.156216990202665" lon="5.145672988146544">
        <ele>255.84999999999999</ele>
        <time>2025-04-24T09:17:46Z</time>
      </trkpt>
      <trkpt lat="46.156120011582971" lon="5.145641975104809">
        <ele>255.84999999999999</ele>
        <time>2025-04-24T09:17:47Z</time>
      </trkpt>
      <trkpt lat="46.156035019084811" lon="5.145576009526849">
        <ele>255.84999999999999</ele>
        <time>2025-04-24T09:17:48Z</time>
      </trkpt>
      <trkpt lat="46.155943991616368" lon="5.145506020635366">
        <ele>255.37</ele>
        <time>2025-04-24T09:17:49Z</time>
      </trkpt>
      <trkpt lat="46.155848018825054" lon="5.145427985116839">
        <ele>254.88999999999999</ele>
        <time>2025-04-24T09:17:50Z</time>
      </trkpt>
      <trkpt lat="46.155762020498514" lon="5.145333018153906">
        <ele>254.88999999999999</ele>
        <time>2025-04-24T09:17:51Z</time>
      </trkpt>
      <trkpt lat="46.155675016343594" lon="5.145237967371941">
        <ele>254.88999999999999</ele>
        <time>2025-04-24T09:17:52Z</time>
      </trkpt>
      <trkpt lat="46.155596980825067" lon="5.14510796405375">
        <ele>254.41</ele>
        <time>2025-04-24T09:17:53Z</time>
      </trkpt>
      <trkpt lat="46.155530009418726" lon="5.144974021241069">
        <ele>254.41</ele>
        <time>2025-04-24T09:17:54Z</time>
      </trkpt>
      <trkpt lat="46.15525801666081" lon="5.144480997696519">
        <ele>253.44</ele>
        <time>2025-04-24T09:17:58Z</time>
      </trkpt>
      <trkpt lat="46.155163971707225" lon="5.144374966621399">
        <ele>252.96000000000001</ele>
        <time>2025-04-24T09:17:59Z</time>
      </trkpt>
      <trkpt lat="46.155050983652472" lon="5.144299026578665">
        <ele>252.47999999999999</ele>
        <time>2025-04-24T09:18:00Z</time>
      </trkpt>
      <trkpt lat="46.154918968677521" lon="5.144249992445111">
        <ele>252.96000000000001</ele>
        <time>2025-04-24T09:18:01Z</time>
      </trkpt>
      <trkpt lat="46.154783014208078" lon="5.144186960533261">
        <ele>252.47999999999999</ele>
        <time>2025-04-24T09:18:02Z</time>
      </trkpt>
      <trkpt lat="46.15463599562645" lon="5.144126024097204">
        <ele>252.47999999999999</ele>
        <time>2025-04-24T09:18:03Z</time>
      </trkpt>
      <trkpt lat="46.154481014236808" lon="5.144030973315239">
        <ele>252.47999999999999</ele>
        <time>2025-04-24T09:18:04Z</time>
      </trkpt>
      <trkpt lat="46.153176035732031" lon="5.142918024212122">
        <ele>253.44</ele>
        <time>2025-04-24T09:18:12Z</time>
      </trkpt>
      <trkpt lat="46.153014013543725" lon="5.142823979258537">
        <ele>253.44</ele>
        <time>2025-04-24T09:18:13Z</time>
      </trkpt>
      <trkpt lat="46.152840005233884" lon="5.142774023115635">
        <ele>253.93000000000001</ele>
        <time>2025-04-24T09:18:14Z</time>
      </trkpt>
      <trkpt lat="46.152675971388817" lon="5.142727000638843">
        <ele>254.41</ele>
        <time>2025-04-24T09:18:15Z</time>
      </trkpt>
      <trkpt lat="46.15252903662622" lon="5.142706967890263">
        <ele>254.41</ele>
        <time>2025-04-24T09:18:16Z</time>
      </trkpt>
      <trkpt lat="46.152146989479661" lon="5.142629016190767">
        <ele>254.88999999999999</ele>
        <time>2025-04-24T09:18:19Z</time>
      </trkpt>
      <trkpt lat="46.152042970061302" lon="5.142526002600789">
        <ele>254.88999999999999</ele>
        <time>2025-04-24T09:18:20Z</time>
      </trkpt>
      <trkpt lat="46.15192998200655" lon="5.142413014546037">
        <ele>254.88999999999999</ele>
        <time>2025-04-24T09:18:21Z</time>
      </trkpt>
      <trkpt lat="46.151432013139129" lon="5.14188596047461">
        <ele>256.32999999999998</ele>
        <time>2025-04-24T09:18:27Z</time>
      </trkpt>
      <trkpt lat="46.150905964896083" lon="5.141315991058946">
        <ele>254.41</ele>
        <time>2025-04-24T09:18:33Z</time>
      </trkpt>
      <trkpt lat="46.150358961895108" lon="5.140880970284343">
        <ele>253.44</ele>
        <time>2025-04-24T09:18:37Z</time>
      </trkpt>
      <trkpt lat="46.148244962096214" lon="5.139899030327797">
        <ele>245.27000000000001</ele>
        <time>2025-04-24T09:18:49Z</time>
      </trkpt>
      <trkpt lat="46.146527007222176" lon="5.139263011515141">
        <ele>245.27000000000001</ele>
        <time>2025-04-24T09:19:00Z</time>
      </trkpt>
      <trkpt lat="46.146287033334374" lon="5.139142982661724">
        <ele>245.75</ele>
        <time>2025-04-24T09:19:03Z</time>
      </trkpt>
      <trkpt lat="46.146239005029202" lon="5.139119010418654">
        <ele>245.75</ele>
        <time>2025-04-24T09:19:04Z</time>
      </trkpt>
      <trkpt lat="46.146196005865932" lon="5.139096966013312">
        <ele>245.75</ele>
        <time>2025-04-24T09:19:05Z</time>
      </trkpt>
      <trkpt lat="46.146199023351073" lon="5.13900401070714">
        <ele>245.75</ele>
        <time>2025-04-24T09:19:06Z</time>
      </trkpt>
      <trkpt lat="46.14621302112937" lon="5.138927986845374">
        <ele>245.75</ele>
        <time>2025-04-24T09:19:07Z</time>
      </trkpt>
      <trkpt lat="46.146231964230537" lon="5.138821033760905">
        <ele>246.22999999999999</ele>
        <time>2025-04-24T09:19:08Z</time>
      </trkpt>
      <trkpt lat="46.146259037777781" lon="5.138669991865754">
        <ele>245.75</ele>
        <time>2025-04-24T09:19:09Z</time>
      </trkpt>
      <trkpt lat="46.146280998364091" lon="5.138443009927869">
        <ele>244.78999999999999</ele>
        <time>2025-04-24T09:19:10Z</time>
      </trkpt>
      <trkpt lat="46.146248979493976" lon="5.138279981911182">
        <ele>243.83000000000001</ele>
        <time>2025-04-24T09:19:11Z</time>
      </trkpt>
      <trkpt lat="46.146204974502325" lon="5.13806096278131">
        <ele>243.34999999999999</ele>
        <time>2025-04-24T09:19:12Z</time>
      </trkpt>
      <trkpt lat="46.146138003095984" lon="5.13792802579701">
        <ele>243.34999999999999</ele>
        <time>2025-04-24T09:19:13Z</time>
      </trkpt>
      <trkpt lat="46.146067008376122" lon="5.137785030528903">
        <ele>242.87</ele>
        <time>2025-04-24T09:19:14Z</time>
      </trkpt>
      <trkpt lat="46.145970029756427" lon="5.137590989470482">
        <ele>242.38999999999999</ele>
        <time>2025-04-24T09:19:16Z</time>
      </trkpt>
      <trkpt lat="46.145933987572789" lon="5.137518988922238">
        <ele>241.91</ele>
        <time>2025-04-24T09:19:17Z</time>
      </trkpt>
      <trkpt lat="46.145900962874293" lon="5.137454029172659">
        <ele>241.91</ele>
        <time>2025-04-24T09:19:18Z</time>
      </trkpt>
      <trkpt lat="46.145871039479971" lon="5.137394014745951">
        <ele>241.43000000000001</ele>
        <time>2025-04-24T09:19:19Z</time>
      </trkpt>
      <trkpt lat="46.145839020609856" lon="5.137327965348959">
        <ele>241.43000000000001</ele>
        <time>2025-04-24T09:19:20Z</time>
      </trkpt>
      <trkpt lat="46.145796021446586" lon="5.1372429728508">
        <ele>240.94999999999999</ele>
        <time>2025-04-24T09:19:21Z</time>
      </trkpt>
      <trkpt lat="46.145746987313032" lon="5.137139959260821">
        <ele>240.94999999999999</ele>
        <time>2025-04-24T09:19:22Z</time>
      </trkpt>
      <trkpt lat="46.145689990371466" lon="5.136996963992715">
        <ele>240.94999999999999</ele>
        <time>2025-04-24T09:19:23Z</time>
      </trkpt>
      <trkpt lat="46.145556969568133" lon="5.136659005656838">
        <ele>240.94999999999999</ele>
        <time>2025-04-24T09:19:25Z</time>
      </trkpt>
      <trkpt lat="46.145146004855633" lon="5.13500701636076">
        <ele>240.94999999999999</ele>
        <time>2025-04-24T09:19:32Z</time>
      </trkpt>
      <trkpt lat="46.144894966855645" lon="5.133910998702049">
        <ele>240.47</ele>
        <time>2025-04-24T09:19:36Z</time>
      </trkpt>
      <trkpt lat="46.14466798491776" lon="5.131777971982956">
        <ele>250.56</ele>
        <time>2025-04-24T09:19:44Z</time>
      </trkpt>
      <trkpt lat="46.144544016569853" lon="5.1296809874475">
        <ele>258.73000000000002</ele>
        <time>2025-04-24T09:19:53Z</time>
      </trkpt>
      <trkpt lat="46.144468998536468" lon="5.128617994487286">
        <ele>260.64999999999998</ele>
        <time>2025-04-24T09:19:57Z</time>
      </trkpt>
      <trkpt lat="46.144415019080043" lon="5.128381960093975">
        <ele>261.13999999999999</ele>
        <time>2025-04-24T09:19:58Z</time>
      </trkpt>
      <trkpt lat="46.144353998824954" lon="5.128148021176457">
        <ele>261.13999999999999</ele>
        <time>2025-04-24T09:19:59Z</time>
      </trkpt>
      <trkpt lat="46.143683027476072" lon="5.125999990850687">
        <ele>262.10000000000002</ele>
        <time>2025-04-24T09:20:08Z</time>
      </trkpt>
      <trkpt lat="46.143288994207978" lon="5.12469501234591">
        <ele>260.17000000000002</ele>
        <time>2025-04-24T09:20:14Z</time>
      </trkpt>
      <trkpt lat="46.142849028110504" lon="5.123230023309588">
        <ele>261.13999999999999</ele>
        <time>2025-04-24T09:20:22Z</time>
      </trkpt>
      <trkpt lat="46.14226296544075" lon="5.121292965486646">
        <ele>258.73000000000002</ele>
        <time>2025-04-24T09:20:32Z</time>
      </trkpt>
      <trkpt lat="46.142234969884157" lon="5.121199004352093">
        <ele>258.73000000000002</ele>
        <time>2025-04-24T09:20:33Z</time>
      </trkpt>
      <trkpt lat="46.142200017347932" lon="5.121120968833566">
        <ele>258.73000000000002</ele>
        <time>2025-04-24T09:20:34Z</time>
      </trkpt>
      <trkpt lat="46.142138997092843" lon="5.121074030175805">
        <ele>258.73000000000002</ele>
        <time>2025-04-24T09:20:35Z</time>
      </trkpt>
      <trkpt lat="46.142061967402697" lon="5.121015021577478">
        <ele>258.73000000000002</ele>
        <time>2025-04-24T09:20:36Z</time>
      </trkpt>
      <trkpt lat="46.141968006268144" lon="5.120943021029234">
        <ele>258.73000000000002</ele>
        <time>2025-04-24T09:20:37Z</time>
      </trkpt>
      <trkpt lat="46.141098970547318" lon="5.120280012488365">
        <ele>258.73000000000002</ele>
        <time>2025-04-24T09:20:44Z</time>
      </trkpt>
      <trkpt lat="46.139530967921019" lon="5.119059020653367">
        <ele>260.64999999999998</ele>
        <time>2025-04-24T09:20:55Z</time>
      </trkpt>
      <trkpt lat="46.138652041554451" lon="5.118276989087462">
        <ele>262.57999999999998</ele>
        <time>2025-04-24T09:21:02Z</time>
      </trkpt>
      <trkpt lat="46.138513991609216" lon="5.118217980489135">
        <ele>263.06</ele>
        <time>2025-04-24T09:21:03Z</time>
      </trkpt>
      <trkpt lat="46.138385999947786" lon="5.11816299520433">
        <ele>263.06</ele>
        <time>2025-04-24T09:21:04Z</time>
      </trkpt>
      <trkpt lat="46.138245016336441" lon="5.118142040446401">
        <ele>263.06</ele>
        <time>2025-04-24T09:21:05Z</time>
      </trkpt>
      <trkpt lat="46.138083999976516" lon="5.118131982162595">
        <ele>263.06</ele>
        <time>2025-04-24T09:21:06Z</time>
      </trkpt>
      <trkpt lat="46.137914014980197" lon="5.118136005476117">
        <ele>263.06</ele>
        <time>2025-04-24T09:21:07Z</time>
      </trkpt>
      <trkpt lat="46.136290021240711" lon="5.118303978815675">
        <ele>263.54000000000002</ele>
        <time>2025-04-24T09:21:15Z</time>
      </trkpt>
      <trkpt lat="46.134794019162655" lon="5.118501959368587">
        <ele>265.45999999999998</ele>
        <time>2025-04-24T09:21:22Z</time>
      </trkpt>
      <trkpt lat="46.132672978565097" lon="5.118781998753548">
        <ele>266.42000000000002</ele>
        <time>2025-04-24T09:21:33Z</time>
      </trkpt>
      <trkpt lat="46.132218008860946" lon="5.118842013180256">
        <ele>266.42000000000002</ele>
        <time>2025-04-24T09:21:38Z</time>
      </trkpt>
      <trkpt lat="46.132148019969463" lon="5.118850981816649">
        <ele>266.42000000000002</ele>
        <time>2025-04-24T09:21:40Z</time>
      </trkpt>
      <trkpt lat="46.132090017199516" lon="5.118790967389941">
        <ele>266.42000000000002</ele>
        <time>2025-04-24T09:21:41Z</time>
      </trkpt>
      <trkpt lat="46.132066966965795" lon="5.118704969063401">
        <ele>266.42000000000002</ele>
        <time>2025-04-24T09:21:42Z</time>
      </trkpt>
      <trkpt lat="46.132037965580821" lon="5.11859298683703">
        <ele>266.42000000000002</ele>
        <time>2025-04-24T09:21:43Z</time>
      </trkpt>
      <trkpt lat="46.132002007216215" lon="5.118456026539207">
        <ele>266.42000000000002</ele>
        <time>2025-04-24T09:21:44Z</time>
      </trkpt>
      <trkpt lat="46.131959008052945" lon="5.118294004350901">
        <ele>266.42000000000002</ele>
        <time>2025-04-24T09:21:45Z</time>
      </trkpt>
      <trkpt lat="46.131593976169825" lon="5.117081981152296">
        <ele>267.86000000000001</ele>
        <time>2025-04-24T09:21:51Z</time>
      </trkpt>
      <trkpt lat="46.131504038348794" lon="5.116887018084526">
        <ele>267.86000000000001</ele>
        <time>2025-04-24T09:21:52Z</time>
      </trkpt>
      <trkpt lat="46.130411960184574" lon="5.114590963348746">
        <ele>266.89999999999998</ele>
        <time>2025-04-24T09:22:03Z</time>
      </trkpt>
      <trkpt lat="46.129766972735524" lon="5.113085992634296">
        <ele>264.5</ele>
        <time>2025-04-24T09:22:10Z</time>
      </trkpt>
      <trkpt lat="46.129707964137197" lon="5.112870996817946">
        <ele>264.5</ele>
        <time>2025-04-24T09:22:11Z</time>
      </trkpt>
      <trkpt lat="46.129547031596303" lon="5.11227797716856">
        <ele>263.06</ele>
        <time>2025-04-24T09:22:14Z</time>
      </trkpt>
      <trkpt lat="46.129458015784621" lon="5.112106986343861">
        <ele>262.57999999999998</ele>
        <time>2025-04-24T09:22:15Z</time>
      </trkpt>
      <trkpt lat="46.128869019448757" lon="5.11126896366477">
        <ele>260.17000000000002</ele>
        <time>2025-04-24T09:22:20Z</time>
      </trkpt>
      <trkpt lat="46.12872501835227" lon="5.111176008358598">
        <ele>260.17000000000002</ele>
        <time>2025-04-24T09:22:21Z</time>
      </trkpt>
      <trkpt lat="46.128577999770641" lon="5.111080035567284">
        <ele>259.69</ele>
        <time>2025-04-24T09:22:22Z</time>
      </trkpt>
      <trkpt lat="46.128425030037761" lon="5.110990013927221">
        <ele>259.69</ele>
        <time>2025-04-24T09:22:23Z</time>
      </trkpt>
      <trkpt lat="46.128258984535933" lon="5.110926982015371">
        <ele>259.69</ele>
        <time>2025-04-24T09:22:24Z</time>
      </trkpt>
      <trkpt lat="46.127943992614746" lon="5.110807958990336">
        <ele>259.69</ele>
        <time>2025-04-24T09:22:26Z</time>
      </trkpt>
      <trkpt lat="46.127803009003401" lon="5.110721960663796">
        <ele>259.69</ele>
        <time>2025-04-24T09:22:27Z</time>
      </trkpt>
      <trkpt lat="46.127683985978365" lon="5.110563039779663">
        <ele>259.69</ele>
        <time>2025-04-24T09:22:28Z</time>
      </trkpt>
      <trkpt lat="46.127559011802077" lon="5.110395988449454">
        <ele>259.69</ele>
        <time>2025-04-24T09:22:29Z</time>
      </trkpt>
      <trkpt lat="46.127433031797409" lon="5.110227009281516">
        <ele>260.17000000000002</ele>
        <time>2025-04-24T09:22:30Z</time>
      </trkpt>
      <trkpt lat="46.127105969935656" lon="5.109636001288891">
        <ele>260.17000000000002</ele>
        <time>2025-04-24T09:22:33Z</time>
      </trkpt>
      <trkpt lat="46.126308012753725" lon="5.107488976791501">
        <ele>262.10000000000002</ele>
        <time>2025-04-24T09:22:42Z</time>
      </trkpt>
      <trkpt lat="46.12625696696341" lon="5.107217989861965">
        <ele>262.10000000000002</ele>
        <time>2025-04-24T09:22:43Z</time>
      </trkpt>
      <trkpt lat="46.12593200057745" lon="5.104469982907176">
        <ele>265.45999999999998</ele>
        <time>2025-04-24T09:22:53Z</time>
      </trkpt>
      <trkpt lat="46.12537401728332" lon="5.100582959130406">
        <ele>266.89999999999998</ele>
        <time>2025-04-24T09:23:07Z</time>
      </trkpt>
      <trkpt lat="46.125294975936413" lon="5.100111979991198">
        <ele>266.89999999999998</ele>
        <time>2025-04-24T09:23:09Z</time>
      </trkpt>
      <trkpt lat="46.125225992873311" lon="5.09988097473979">
        <ele>267.38</ele>
        <time>2025-04-24T09:23:10Z</time>
      </trkpt>
      <trkpt lat="46.124242963269353" lon="5.097324997186661">
        <ele>269.31</ele>
        <time>2025-04-24T09:23:21Z</time>
      </trkpt>
      <trkpt lat="46.12311702221632" lon="5.09450901299715">
        <ele>269.31</ele>
        <time>2025-04-24T09:23:32Z</time>
      </trkpt>
      <trkpt lat="46.121343998238444" lon="5.090209012851119">
        <ele>271.70999999999998</ele>
        <time>2025-04-24T09:23:49Z</time>
      </trkpt>
      <trkpt lat="46.120271030813456" lon="5.087580028921366">
        <ele>272.67000000000002</ele>
        <time>2025-04-24T09:24:00Z</time>
      </trkpt>
      <trkpt lat="46.119139976799488" lon="5.084558017551899">
        <ele>272.19</ele>
        <time>2025-04-24T09:24:12Z</time>
      </trkpt>
      <trkpt lat="46.117761991918087" lon="5.080880038440228">
        <ele>272.19</ele>
        <time>2025-04-24T09:24:27Z</time>
      </trkpt>
      <trkpt lat="46.117363013327122" lon="5.079548992216587">
        <ele>272.67000000000002</ele>
        <time>2025-04-24T09:24:34Z</time>
      </trkpt>
      <trkpt lat="46.117215994745493" lon="5.079073989763856">
        <ele>271.70999999999998</ele>
        <time>2025-04-24T09:24:39Z</time>
      </trkpt>
      <trkpt lat="46.117139970883727" lon="5.07880300283432">
        <ele>270.75</ele>
        <time>2025-04-24T09:24:42Z</time>
      </trkpt>
      <trkpt lat="46.117097977548838" lon="5.078651960939169">
        <ele>268.82999999999998</ele>
        <time>2025-04-24T09:24:48Z</time>
      </trkpt>
      <trkpt lat="46.117066964507103" lon="5.078534027561545">
        <ele>268.35000000000002</ele>
        <time>2025-04-24T09:24:50Z</time>
      </trkpt>
      <trkpt lat="46.117093032225966" lon="5.078476024791598">
        <ele>268.35000000000002</ele>
        <time>2025-04-24T09:24:51Z</time>
      </trkpt>
      <trkpt lat="46.117127984762192" lon="5.078398995101452">
        <ele>268.35000000000002</ele>
        <time>2025-04-24T09:24:52Z</time>
      </trkpt>
      <trkpt lat="46.117172995582223" lon="5.078301010653377">
        <ele>267.86000000000001</ele>
        <time>2025-04-24T09:24:53Z</time>
      </trkpt>
      <trkpt lat="46.117199985310435" lon="5.078251976519823">
        <ele>267.86000000000001</ele>
        <time>2025-04-24T09:24:54Z</time>
      </trkpt>
      <trkpt lat="46.117221023887396" lon="5.078211994841695">
        <ele>267.86000000000001</ele>
        <time>2025-04-24T09:24:55Z</time>
      </trkpt>
      <trkpt lat="46.117258993908763" lon="5.078022982925177">
        <ele>267.38</ele>
        <time>2025-04-24T09:25:02Z</time>
      </trkpt>
      <trkpt lat="46.117211971431971" lon="5.077975960448384">
        <ele>267.38</ele>
        <time>2025-04-24T09:25:03Z</time>
      </trkpt>
      <trkpt lat="46.117151034995914" lon="5.077915024012327">
        <ele>267.38</ele>
        <time>2025-04-24T09:25:04Z</time>
      </trkpt>
      <trkpt lat="46.117076016962528" lon="5.077840005978942">
        <ele>267.38</ele>
        <time>2025-04-24T09:25:05Z</time>
      </trkpt>
      <trkpt lat="46.116996975615621" lon="5.077760964632034">
        <ele>267.38</ele>
        <time>2025-04-24T09:25:06Z</time>
      </trkpt>
      <trkpt lat="46.116252997890115" lon="5.077081024646759">
        <ele>266.42000000000002</ele>
        <time>2025-04-24T09:25:14Z</time>
      </trkpt>
      <trkpt lat="46.11609298735857" lon="5.076989997178316">
        <ele>266.42000000000002</ele>
        <time>2025-04-24T09:25:16Z</time>
      </trkpt>
      <trkpt lat="46.11533903516829" lon="5.076648015528917">
        <ele>273.63</ele>
        <time>2025-04-24T09:25:24Z</time>
      </trkpt>
      <trkpt lat="46.113887960091233" lon="5.075999004766345">
        <ele>277.48000000000002</ele>
        <time>2025-04-24T09:25:35Z</time>
      </trkpt>
      <trkpt lat="46.113332994282246" lon="5.075711002573371">
        <ele>276.04000000000002</ele>
        <time>2025-04-24T09:25:39Z</time>
      </trkpt>
      <trkpt lat="46.111811008304358" lon="5.074485987424851">
        <ele>271.70999999999998</ele>
        <time>2025-04-24T09:25:49Z</time>
      </trkpt>
      <trkpt lat="46.110904002562165" lon="5.07375399582088">
        <ele>271.23000000000002</ele>
        <time>2025-04-24T09:25:55Z</time>
      </trkpt>
      <trkpt lat="46.110755978152156" lon="5.073702028021216">
        <ele>271.23000000000002</ele>
        <time>2025-04-24T09:25:56Z</time>
      </trkpt>
      <trkpt lat="46.110594039782882" lon="5.073692975565791">
        <ele>271.23000000000002</ele>
        <time>2025-04-24T09:25:57Z</time>
      </trkpt>
      <trkpt lat="46.110425982624292" lon="5.073717031627893">
        <ele>271.70999999999998</ele>
        <time>2025-04-24T09:25:58Z</time>
      </trkpt>
      <trkpt lat="46.110249040648341" lon="5.073742009699345">
        <ele>271.70999999999998</ele>
        <time>2025-04-24T09:25:59Z</time>
      </trkpt>
      <trkpt lat="46.10863502137363" lon="5.073985001072288">
        <ele>272.19</ele>
        <time>2025-04-24T09:26:07Z</time>
      </trkpt>
      <trkpt lat="46.10670299269259" lon="5.074180969968438">
        <ele>276.51999999999998</ele>
        <time>2025-04-24T09:26:16Z</time>
      </trkpt>
      <trkpt lat="46.104317000135779" lon="5.073690041899681">
        <ele>277.95999999999998</ele>
        <time>2025-04-24T09:26:27Z</time>
      </trkpt>
      <trkpt lat="46.102218003943563" lon="5.073243035003543">
        <ele>280.83999999999997</ele>
        <time>2025-04-24T09:26:37Z</time>
      </trkpt>
      <trkpt lat="46.099981963634491" lon="5.072786975651979">
        <ele>282.27999999999997</ele>
        <time>2025-04-24T09:26:48Z</time>
      </trkpt>
      <trkpt lat="46.098340032622218" lon="5.072429990395904">
        <ele>279.39999999999998</ele>
        <time>2025-04-24T09:26:56Z</time>
      </trkpt>
      <trkpt lat="46.096774963662028" lon="5.072105024009943">
        <ele>275.56</ele>
        <time>2025-04-24T09:27:04Z</time>
      </trkpt>
      <trkpt lat="46.094960030168295" lon="5.071728006005287">
        <ele>270.26999999999998</ele>
        <time>2025-04-24T09:27:13Z</time>
      </trkpt>
      <trkpt lat="46.093550026416779" lon="5.071425000205636">
        <ele>268.82999999999998</ele>
        <time>2025-04-24T09:27:21Z</time>
      </trkpt>
      <trkpt lat="46.093003023415804" lon="5.07130203768611">
        <ele>270.26999999999998</ele>
        <time>2025-04-24T09:27:27Z</time>
      </trkpt>
      <trkpt lat="46.092961030080914" lon="5.071292985230684">
        <ele>270.75</ele>
        <time>2025-04-24T09:27:28Z</time>
      </trkpt>
      <trkpt lat="46.092935968190432" lon="5.071225007995963">
        <ele>270.75</ele>
        <time>2025-04-24T09:27:29Z</time>
      </trkpt>
      <trkpt lat="46.092947032302618" lon="5.071158958598971">
        <ele>271.23000000000002</ele>
        <time>2025-04-24T09:27:30Z</time>
      </trkpt>
      <trkpt lat="46.092968992888927" lon="5.071027027443051">
        <ele>271.70999999999998</ele>
        <time>2025-04-24T09:27:31Z</time>
      </trkpt>
      <trkpt lat="46.092978967353702" lon="5.070942034944892">
        <ele>272.19</ele>
        <time>2025-04-24T09:27:32Z</time>
      </trkpt>
      <trkpt lat="46.092997994273901" lon="5.070795016363263">
        <ele>272.67000000000002</ele>
        <time>2025-04-24T09:27:33Z</time>
      </trkpt>
      <trkpt lat="46.093037975952029" lon="5.07046896032989">
        <ele>273.14999999999998</ele>
        <time>2025-04-24T09:27:35Z</time>
      </trkpt>
      <trkpt lat="46.093052979558706" lon="5.070351026952267">
        <ele>273.14999999999998</ele>
        <time>2025-04-24T09:27:36Z</time>
      </trkpt>
      <trkpt lat="46.093053985387087" lon="5.070257987827063">
        <ele>273.14999999999998</ele>
        <time>2025-04-24T09:27:37Z</time>
      </trkpt>
      <trkpt lat="46.093053985387087" lon="5.069858003407717">
        <ele>274.11000000000001</ele>
        <time>2025-04-24T09:27:47Z</time>
      </trkpt>
      <trkpt lat="46.093053985387087" lon="5.069836964830756">
        <ele>274.11000000000001</ele>
        <time>2025-04-24T09:27:48Z</time>
      </trkpt>
      <trkpt lat="46.093053985387087" lon="5.069817015901208">
        <ele>274.58999999999997</ele>
        <time>2025-04-24T09:27:49Z</time>
      </trkpt>
      <trkpt lat="46.093053985387087" lon="5.069817015901208">
        <ele>274.58999999999997</ele>
        <time>2025-04-24T09:27:50Z</time>
      </trkpt>
      <trkpt lat="46.093053985387087" lon="5.069817015901208">
        <ele>275.06999999999999</ele>
        <time>2025-04-24T09:27:54Z</time>
      </trkpt>
      <trkpt lat="46.093053985387087" lon="5.070226974785328">
        <ele>275.06999999999999</ele>
        <time>2025-04-24T09:28:01Z</time>
      </trkpt>
      <trkpt lat="46.093047028407454" lon="5.07040299475193">
        <ele>275.56</ele>
        <time>2025-04-24T09:28:06Z</time>
      </trkpt>
      <trkpt lat="46.093006040900946" lon="5.070727961137891">
        <ele>276.04000000000002</ele>
        <time>2025-04-24T09:28:29Z</time>
      </trkpt>
      <trkpt lat="46.092950971797109" lon="5.071134986355901">
        <ele>276.51999999999998</ele>
        <time>2025-04-24T09:28:33Z</time>
      </trkpt>
      <trkpt lat="46.092942003160715" lon="5.071187037974596">
        <ele>276.51999999999998</ele>
        <time>2025-04-24T09:28:34Z</time>
      </trkpt>
      <trkpt lat="46.092882994562387" lon="5.071275969967246">
        <ele>276.51999999999998</ele>
        <time>2025-04-24T09:28:35Z</time>
      </trkpt>
      <trkpt lat="46.092842007055879" lon="5.071267001330853">
        <ele>276.04000000000002</ele>
        <time>2025-04-24T09:28:36Z</time>
      </trkpt>
      <trkpt lat="46.092777969315648" lon="5.071253003552556">
        <ele>276.04000000000002</ele>
        <time>2025-04-24T09:28:37Z</time>
      </trkpt>
      <trkpt lat="46.092692976817489" lon="5.071233976632357">
        <ele>276.04000000000002</ele>
        <time>2025-04-24T09:28:38Z</time>
      </trkpt>
      <trkpt lat="46.0925870295614" lon="5.071211010217667">
        <ele>275.56</ele>
        <time>2025-04-24T09:28:39Z</time>
      </trkpt>
      <trkpt lat="46.091591008007526" lon="5.070995008572936">
        <ele>274.58999999999997</ele>
        <time>2025-04-24T09:28:46Z</time>
      </trkpt>
      <trkpt lat="46.089971959590912" lon="5.070642968639731">
        <ele>275.56</ele>
        <time>2025-04-24T09:28:56Z</time>
      </trkpt>
      <trkpt lat="46.087472978979349" lon="5.070099988952279">
        <ele>277.95999999999998</ele>
        <time>2025-04-24T09:29:09Z</time>
      </trkpt>
      <trkpt lat="46.086497996002436" lon="5.069892033934593">
        <ele>281.80000000000001</ele>
        <time>2025-04-24T09:29:14Z</time>
      </trkpt>
      <trkpt lat="46.086307978257537" lon="5.069915000349283">
        <ele>282.76999999999998</ele>
        <time>2025-04-24T09:29:15Z</time>
      </trkpt>
      <trkpt lat="46.084136981517076" lon="5.070189004763961">
        <ele>287.08999999999997</ele>
        <time>2025-04-24T09:29:26Z</time>
      </trkpt>
      <trkpt lat="46.082158014178276" lon="5.070439036935568">
        <ele>288.52999999999997</ele>
        <time>2025-04-24T09:29:37Z</time>
      </trkpt>
      <trkpt lat="46.081874035298824" lon="5.070474995300174">
        <ele>287.56999999999999</ele>
        <time>2025-04-24T09:29:40Z</time>
      </trkpt>
      <trkpt lat="46.08182298950851" lon="5.070481030270457">
        <ele>287.08999999999997</ele>
        <time>2025-04-24T09:29:41Z</time>
      </trkpt>
      <trkpt lat="46.08175702393055" lon="5.07038002833724">
        <ele>286.61000000000001</ele>
        <time>2025-04-24T09:29:42Z</time>
      </trkpt>
      <trkpt lat="46.081762975081801" lon="5.070314984768629">
        <ele>286.13</ele>
        <time>2025-04-24T09:29:43Z</time>
      </trkpt>
      <trkpt lat="46.081771021708846" lon="5.070235021412373">
        <ele>286.13</ele>
        <time>2025-04-24T09:29:44Z</time>
      </trkpt>
      <trkpt lat="46.08177999034524" lon="5.07014399394393">
        <ele>286.13</ele>
        <time>2025-04-24T09:29:45Z</time>
      </trkpt>
      <trkpt lat="46.081789964810014" lon="5.070034023374319">
        <ele>285.64999999999998</ele>
        <time>2025-04-24T09:29:46Z</time>
      </trkpt>
      <trkpt lat="46.081799017265439" lon="5.06896298378706">
        <ele>283.73000000000002</ele>
        <time>2025-04-24T09:29:52Z</time>
      </trkpt>
      <trkpt lat="46.081617968156934" lon="5.066930959001184">
        <ele>283.73000000000002</ele>
        <time>2025-04-24T09:30:01Z</time>
      </trkpt>
      <trkpt lat="46.081596007570624" lon="5.066416980698705">
        <ele>283.73000000000002</ele>
        <time>2025-04-24T09:30:03Z</time>
      </trkpt>
      <trkpt lat="46.081570023670793" lon="5.065136980265379">
        <ele>281.80000000000001</ele>
        <time>2025-04-24T09:30:08Z</time>
      </trkpt>
      <trkpt lat="46.081540016457438" lon="5.064877979457378">
        <ele>281.31999999999999</ele>
        <time>2025-04-24T09:30:09Z</time>
      </trkpt>
      <trkpt lat="46.081486959010363" lon="5.064620990306139">
        <ele>280.83999999999997</ele>
        <time>2025-04-24T09:30:10Z</time>
      </trkpt>
      <trkpt lat="46.081426022574306" lon="5.0643640011549">
        <ele>280.36000000000001</ele>
        <time>2025-04-24T09:30:11Z</time>
      </trkpt>
      <trkpt lat="46.081333989277482" lon="5.064126960933209">
        <ele>279.88</ele>
        <time>2025-04-24T09:30:12Z</time>
      </trkpt>
      <trkpt lat="46.08122200705111" lon="5.063899978995323">
        <ele>279.88</ele>
        <time>2025-04-24T09:30:13Z</time>
      </trkpt>
      <trkpt lat="46.081110024824739" lon="5.063671991229057">
        <ele>279.88</ele>
        <time>2025-04-24T09:30:14Z</time>
      </trkpt>
      <trkpt lat="46.080815987661481" lon="5.063028009608388">
        <ele>278.92000000000002</ele>
        <time>2025-04-24T09:30:17Z</time>
      </trkpt>
      <trkpt lat="46.080758990719914" lon="5.062831034883857">
        <ele>278.44</ele>
        <time>2025-04-24T09:30:18Z</time>
      </trkpt>
      <trkpt lat="46.080765025690198" lon="5.062613021582365">
        <ele>278.44</ele>
        <time>2025-04-24T09:30:19Z</time>
      </trkpt>
      <trkpt lat="46.08077097684145" lon="5.06238603964448">
        <ele>277.95999999999998</ele>
        <time>2025-04-24T09:30:20Z</time>
      </trkpt>
      <trkpt lat="46.080777011811733" lon="5.062142964452505">
        <ele>277.48000000000002</ele>
        <time>2025-04-24T09:30:21Z</time>
      </trkpt>
      <trkpt lat="46.080775000154972" lon="5.061884969472885">
        <ele>277.48000000000002</ele>
        <time>2025-04-24T09:30:22Z</time>
      </trkpt>
      <trkpt lat="46.080763014033437" lon="5.061625968664885">
        <ele>277.48000000000002</ele>
        <time>2025-04-24T09:30:23Z</time>
      </trkpt>
      <trkpt lat="46.080710040405393" lon="5.060504972934723">
        <ele>276.51999999999998</ele>
        <time>2025-04-24T09:30:28Z</time>
      </trkpt>
      <trkpt lat="46.080700987949967" lon="5.060319984331727">
        <ele>276.51999999999998</ele>
        <time>2025-04-24T09:30:29Z</time>
      </trkpt>
      <trkpt lat="46.080473000183702" lon="5.058651985600591">
        <ele>272.19</ele>
        <time>2025-04-24T09:30:40Z</time>
      </trkpt>
      <trkpt lat="46.080437041819096" lon="5.058234985917807">
        <ele>270.26999999999998</ele>
        <time>2025-04-24T09:30:46Z</time>
      </trkpt>
      <trkpt lat="46.080393958836794" lon="5.057229995727539">
        <ele>270.26999999999998</ele>
        <time>2025-04-24T09:30:54Z</time>
      </trkpt>
      <trkpt lat="46.080373004078865" lon="5.05641502328217">
        <ele>269.31</ele>
        <time>2025-04-24T09:31:02Z</time>
      </trkpt>
      <trkpt lat="46.080423966050148" lon="5.056044040247798">
        <ele>268.82999999999998</ele>
        <time>2025-04-24T09:31:05Z</time>
      </trkpt>
      <trkpt lat="46.080451961606741" lon="5.05589802749455">
        <ele>268.35000000000002</ele>
        <time>2025-04-24T09:31:06Z</time>
      </trkpt>
      <trkpt lat="46.080873990431428" lon="5.054399007931352">
        <ele>266.89999999999998</ele>
        <time>2025-04-24T09:31:14Z</time>
      </trkpt>
      <trkpt lat="46.081208009272814" lon="5.053212968632579">
        <ele>265.94</ele>
        <time>2025-04-24T09:31:21Z</time>
      </trkpt>
      <trkpt lat="46.08122100122273" lon="5.053168041631579">
        <ele>265.45999999999998</ele>
        <time>2025-04-24T09:31:22Z</time>
      </trkpt>
      <trkpt lat="46.081190994009376" lon="5.05308598279953">
        <ele>265.45999999999998</ele>
        <time>2025-04-24T09:31:23Z</time>
      </trkpt>
      <trkpt lat="46.08115604147315" lon="5.053047006949782">
        <ele>264.98000000000002</ele>
        <time>2025-04-24T09:31:24Z</time>
      </trkpt>
      <trkpt lat="46.081108013167977" lon="5.052994033321738">
        <ele>264.98000000000002</ele>
        <time>2025-04-24T09:31:25Z</time>
      </trkpt>
      <trkpt lat="46.08104900456965" lon="5.052927983924747">
        <ele>264.5</ele>
        <time>2025-04-24T09:31:26Z</time>
      </trkpt>
      <trkpt lat="46.080975998193026" lon="5.052846008911729">
        <ele>264.01999999999998</ele>
        <time>2025-04-24T09:31:27Z</time>
      </trkpt>
      <trkpt lat="46.080237971618772" lon="5.052017960697413">
        <ele>264.01999999999998</ele>
        <time>2025-04-24T09:31:34Z</time>
      </trkpt>
      <trkpt lat="46.080118026584387" lon="5.051885023713112">
        <ele>264.98000000000002</ele>
        <time>2025-04-24T09:31:35Z</time>
      </trkpt>
      <trkpt lat="46.079988023266196" lon="5.051738005131483">
        <ele>265.45999999999998</ele>
        <time>2025-04-24T09:31:36Z</time>
      </trkpt>
      <trkpt lat="46.07984896749258" lon="5.051584029570222">
        <ele>265.94</ele>
        <time>2025-04-24T09:31:37Z</time>
      </trkpt>
      <trkpt lat="46.079702032729983" lon="5.051422007381916">
        <ele>266.42000000000002</ele>
        <time>2025-04-24T09:31:38Z</time>
      </trkpt>
      <trkpt lat="46.078456984832883" lon="5.050042010843754">
        <ele>269.79000000000002</ele>
        <time>2025-04-24T09:31:46Z</time>
      </trkpt>
      <trkpt lat="46.077423999086022" lon="5.04889695905149">
        <ele>272.67000000000002</ele>
        <time>2025-04-24T09:31:53Z</time>
      </trkpt>
      <trkpt lat="46.07632203027606" lon="5.047676973044872">
        <ele>274.58999999999997</ele>
        <time>2025-04-24T09:32:01Z</time>
      </trkpt>
      <trkpt lat="46.075215032324195" lon="5.046449024230242">
        <ele>275.56</ele>
        <time>2025-04-24T09:32:09Z</time>
      </trkpt>
      <trkpt lat="46.073398003354669" lon="5.044436026364565">
        <ele>276.04000000000002</ele>
        <time>2025-04-24T09:32:22Z</time>
      </trkpt>
      <trkpt lat="46.072955019772053" lon="5.043945014476776">
        <ele>275.56</ele>
        <time>2025-04-24T09:32:27Z</time>
      </trkpt>
      <trkpt lat="46.072915038093925" lon="5.043901009485126">
        <ele>275.56</ele>
        <time>2025-04-24T09:32:28Z</time>
      </trkpt>
      <trkpt lat="46.072877990081906" lon="5.043859016150236">
        <ele>275.56</ele>
        <time>2025-04-24T09:32:29Z</time>
      </trkpt>
      <trkpt lat="46.072640027850866" lon="5.043201958760619">
        <ele>274.58999999999997</ele>
        <time>2025-04-24T09:32:34Z</time>
      </trkpt>
      <trkpt lat="46.072057988494635" lon="5.04141996614635">
        <ele>274.11000000000001</ele>
        <time>2025-04-24T09:32:42Z</time>
      </trkpt>
      <trkpt lat="46.07110102660954" lon="5.038651004433632">
        <ele>272.19</ele>
        <time>2025-04-24T09:32:53Z</time>
      </trkpt>
      <trkpt lat="46.07004901394248" lon="5.035758996382356">
        <ele>268.82999999999998</ele>
        <time>2025-04-24T09:33:04Z</time>
      </trkpt>
      <trkpt lat="46.069502010941505" lon="5.033850017935038">
        <ele>262.10000000000002</ele>
        <time>2025-04-24T09:33:11Z</time>
      </trkpt>
      <trkpt lat="46.069159023463726" lon="5.030733039602637">
        <ele>262.57999999999998</ele>
        <time>2025-04-24T09:33:22Z</time>
      </trkpt>
      <trkpt lat="46.068892981857061" lon="5.028169015422463">
        <ele>262.10000000000002</ele>
        <time>2025-04-24T09:33:32Z</time>
      </trkpt>
      <trkpt lat="46.068892981857061" lon="5.028000958263874">
        <ele>262.10000000000002</ele>
        <time>2025-04-24T09:33:33Z</time>
      </trkpt>
      <trkpt lat="46.068927012383938" lon="5.027848994359374">
        <ele>261.62</ele>
        <time>2025-04-24T09:33:34Z</time>
      </trkpt>
      <trkpt lat="46.068972023203969" lon="5.027712034061551">
        <ele>261.62</ele>
        <time>2025-04-24T09:33:35Z</time>
      </trkpt>
      <trkpt lat="46.069024996832013" lon="5.027595022693276">
        <ele>261.13999999999999</ele>
        <time>2025-04-24T09:33:36Z</time>
      </trkpt>
      <trkpt lat="46.069084005430341" lon="5.027488991618156">
        <ele>260.64999999999998</ele>
        <time>2025-04-24T09:33:37Z</time>
      </trkpt>
      <trkpt lat="46.069202022626996" lon="5.027277013286948">
        <ele>260.17000000000002</ele>
        <time>2025-04-24T09:33:39Z</time>
      </trkpt>
      <trkpt lat="46.069233035668731" lon="5.027137035503984">
        <ele>259.69</ele>
        <time>2025-04-24T09:33:40Z</time>
      </trkpt>
      <trkpt lat="46.06925499625504" lon="5.026996973901987">
        <ele>259.69</ele>
        <time>2025-04-24T09:33:41Z</time>
      </trkpt>
      <trkpt lat="46.069278968498111" lon="5.026846015825868">
        <ele>259.20999999999998</ele>
        <time>2025-04-24T09:33:42Z</time>
      </trkpt>
      <trkpt lat="46.069280980154872" lon="5.026714000850916">
        <ele>258.73000000000002</ele>
        <time>2025-04-24T09:33:43Z</time>
      </trkpt>
      <trkpt lat="46.069301012903452" lon="5.025248005986214">
        <ele>261.13999999999999</ele>
        <time>2025-04-24T09:33:54Z</time>
      </trkpt>
      <trkpt lat="46.069301012903452" lon="5.024689016863704">
        <ele>263.54000000000002</ele>
        <time>2025-04-24T09:33:58Z</time>
      </trkpt>
      <trkpt lat="46.069301012903452" lon="5.024163974449039">
        <ele>267.38</ele>
        <time>2025-04-24T09:34:05Z</time>
      </trkpt>
      <trkpt lat="46.069301012903452" lon="5.02397102303803">
        <ele>267.86000000000001</ele>
        <time>2025-04-24T09:34:06Z</time>
      </trkpt>
      <trkpt lat="46.069301012903452" lon="5.02395199611783">
        <ele>268.35000000000002</ele>
        <time>2025-04-24T09:34:07Z</time>
      </trkpt>
      <trkpt lat="46.069301012903452" lon="5.023819981142879">
        <ele>268.35000000000002</ele>
        <time>2025-04-24T09:34:08Z</time>
      </trkpt>
      <trkpt lat="46.069289026781917" lon="5.023731971159577">
        <ele>268.82999999999998</ele>
        <time>2025-04-24T09:34:09Z</time>
      </trkpt>
      <trkpt lat="46.069272011518478" lon="5.02360800281167">
        <ele>269.31</ele>
        <time>2025-04-24T09:34:10Z</time>
      </trkpt>
      <trkpt lat="46.069073025137186" lon="5.022225994616747">
        <ele>271.23000000000002</ele>
        <time>2025-04-24T09:34:18Z</time>
      </trkpt>
      <trkpt lat="46.068770019337535" lon="5.020032031461597">
        <ele>273.14999999999998</ele>
        <time>2025-04-24T09:34:27Z</time>
      </trkpt>
      <trkpt lat="46.068282024934888" lon="5.016466034576297">
        <ele>274.11000000000001</ele>
        <time>2025-04-24T09:34:39Z</time>
      </trkpt>
      <trkpt lat="46.067798975855112" lon="5.012941025197506">
        <ele>275.56</ele>
        <time>2025-04-24T09:34:51Z</time>
      </trkpt>
      <trkpt lat="46.067265970632434" lon="5.009035980328918">
        <ele>277.95999999999998</ele>
        <time>2025-04-24T09:35:05Z</time>
      </trkpt>
      <trkpt lat="46.06687000952661" lon="5.006128968670964">
        <ele>278.92000000000002</ele>
        <time>2025-04-24T09:35:16Z</time>
      </trkpt>
      <trkpt lat="46.066449992358685" lon="5.003006039187312">
        <ele>277.48000000000002</ele>
        <time>2025-04-24T09:35:27Z</time>
      </trkpt>
      <trkpt lat="46.066042967140675" lon="5.000360039994121">
        <ele>278.92000000000002</ele>
        <time>2025-04-24T09:35:37Z</time>
      </trkpt>
      <trkpt lat="46.065554972738028" lon="4.998587016016245">
        <ele>277.95999999999998</ele>
        <time>2025-04-24T09:35:44Z</time>
      </trkpt>
      <trkpt lat="46.064819041639566" lon="4.995584031566978">
        <ele>278.92000000000002</ele>
        <time>2025-04-24T09:35:55Z</time>
      </trkpt>
      <trkpt lat="46.064082020893693" lon="4.992290027439594">
        <ele>282.76999999999998</ele>
        <time>2025-04-24T09:36:07Z</time>
      </trkpt>
      <trkpt lat="46.06343200430274" lon="4.98938200995326">
        <ele>281.80000000000001</ele>
        <time>2025-04-24T09:36:17Z</time>
      </trkpt>
      <trkpt lat="46.062691966071725" lon="4.985948028042913">
        <ele>281.80000000000001</ele>
        <time>2025-04-24T09:36:30Z</time>
      </trkpt>
      <trkpt lat="46.062702024355531" lon="4.985710987821221">
        <ele>281.80000000000001</ele>
        <time>2025-04-24T09:36:31Z</time>
      </trkpt>
      <trkpt lat="46.062713004648685" lon="4.985453998669982">
        <ele>281.31999999999999</ele>
        <time>2025-04-24T09:36:32Z</time>
      </trkpt>
      <trkpt lat="46.062928000465035" lon="4.984298972412944">
        <ele>282.76999999999998</ele>
        <time>2025-04-24T09:36:39Z</time>
      </trkpt>
      <trkpt lat="46.062946021556854" lon="4.98420299962163">
        <ele>283.73000000000002</ele>
        <time>2025-04-24T09:36:46Z</time>
      </trkpt>
      <trkpt lat="46.062946021556854" lon="4.98420299962163">
        <ele>283.73000000000002</ele>
        <time>2025-04-24T09:37:23Z</time>
      </trkpt>
      <trkpt lat="46.062946021556854" lon="4.98420299962163">
        <ele>284.20999999999998</ele>
        <time>2025-04-24T09:38:11Z</time>
      </trkpt>
      <trkpt lat="46.062946021556854" lon="4.98420299962163">
        <ele>284.20999999999998</ele>
        <time>2025-04-24T09:38:52Z</time>
      </trkpt>
      <trkpt lat="46.062946021556854" lon="4.98420299962163">
        <ele>284.20999999999998</ele>
        <time>2025-04-24T09:39:22Z</time>
      </trkpt>
      <trkpt lat="46.063019027933478" lon="4.983789017423987">
        <ele>285.64999999999998</ele>
        <time>2025-04-24T09:39:32Z</time>
      </trkpt>
      <trkpt lat="46.063076024875045" lon="4.983450975269079">
        <ele>286.13</ele>
        <time>2025-04-24T09:39:35Z</time>
      </trkpt>
      <trkpt lat="46.063095973804593" lon="4.983330024406314">
        <ele>286.13</ele>
        <time>2025-04-24T09:39:36Z</time>
      </trkpt>
      <trkpt lat="46.063309963792562" lon="4.982200982049108">
        <ele>286.13</ele>
        <time>2025-04-24T09:39:45Z</time>
      </trkpt>
      <trkpt lat="46.063464023172855" lon="4.981287019327283">
        <ele>288.05000000000001</ele>
        <time>2025-04-24T09:39:53Z</time>
      </trkpt>
      <trkpt lat="46.063500987365842" lon="4.981071017682552">
        <ele>289.49000000000001</ele>
        <time>2025-04-24T09:39:58Z</time>
      </trkpt>
      <trkpt lat="46.063433010131121" lon="4.980925004929304">
        <ele>290.45999999999998</ele>
        <time>2025-04-24T09:40:00Z</time>
      </trkpt>
      <trkpt lat="46.063448013737798" lon="4.980845963582397">
        <ele>290.45999999999998</ele>
        <time>2025-04-24T09:40:01Z</time>
      </trkpt>
      <trkpt lat="46.063465029001236" lon="4.980752002447844">
        <ele>290.94</ele>
        <time>2025-04-24T09:40:02Z</time>
      </trkpt>
      <trkpt lat="46.063479026779532" lon="4.980654017999768">
        <ele>290.94</ele>
        <time>2025-04-24T09:40:03Z</time>
      </trkpt>
      <trkpt lat="46.063494030386209" lon="4.980555027723312">
        <ele>291.42000000000002</ele>
        <time>2025-04-24T09:40:04Z</time>
      </trkpt>
      <trkpt lat="46.063550021499395" lon="4.979575015604496">
        <ele>291.89999999999998</ele>
        <time>2025-04-24T09:40:13Z</time>
      </trkpt>
      <trkpt lat="46.063571982085705" lon="4.978131987154484">
        <ele>290.94</ele>
        <time>2025-04-24T09:40:26Z</time>
      </trkpt>
      <trkpt lat="46.063571982085705" lon="4.976548980921507">
        <ele>289.97000000000003</ele>
        <time>2025-04-24T09:40:37Z</time>
      </trkpt>
      <trkpt lat="46.063294038176537" lon="4.97492297552526">
        <ele>288.52999999999997</ele>
        <time>2025-04-24T09:40:44Z</time>
      </trkpt>
      <trkpt lat="46.062706969678402" lon="4.972083019092679">
        <ele>288.52999999999997</ele>
        <time>2025-04-24T09:40:56Z</time>
      </trkpt>
      <trkpt lat="46.062462972477078" lon="4.970074966549873">
        <ele>288.05000000000001</ele>
        <time>2025-04-24T09:41:05Z</time>
      </trkpt>
      <trkpt lat="46.062053013592958" lon="4.967559976503253">
        <ele>286.61000000000001</ele>
        <time>2025-04-24T09:41:15Z</time>
      </trkpt>
      <trkpt lat="46.061429986730218" lon="4.964306959882379">
        <ele>284.69</ele>
        <time>2025-04-24T09:41:26Z</time>
      </trkpt>
      <trkpt lat="46.061022961512208" lon="4.96218197979033">
        <ele>286.61000000000001</ele>
        <time>2025-04-24T09:41:33Z</time>
      </trkpt>
      <trkpt lat="46.060375040397048" lon="4.958798037841916">
        <ele>277.48000000000002</ele>
        <time>2025-04-24T09:41:45Z</time>
      </trkpt>
      <trkpt lat="46.059576999396086" lon="4.954769024625421">
        <ele>275.56</ele>
        <time>2025-04-24T09:41:59Z</time>
      </trkpt>
      <trkpt lat="46.058978028595448" lon="4.95182697661221">
        <ele>275.56</ele>
        <time>2025-04-24T09:42:10Z</time>
      </trkpt>
      <trkpt lat="46.058871997520328" lon="4.951110994443297">
        <ele>276.04000000000002</ele>
        <time>2025-04-24T09:42:13Z</time>
      </trkpt>
      <trkpt lat="46.058854982256889" lon="4.950870014727116">
        <ele>276.04000000000002</ele>
        <time>2025-04-24T09:42:14Z</time>
      </trkpt>
      <trkpt lat="46.058879038318992" lon="4.950626017525792">
        <ele>276.04000000000002</ele>
        <time>2025-04-24T09:42:15Z</time>
      </trkpt>
      <trkpt lat="46.058931006118655" lon="4.950388977304101">
        <ele>275.56</ele>
        <time>2025-04-24T09:42:16Z</time>
      </trkpt>
      <trkpt lat="46.059022033587098" lon="4.950169958174229">
        <ele>275.56</ele>
        <time>2025-04-24T09:42:17Z</time>
      </trkpt>
      <trkpt lat="46.059118006378412" lon="4.949950017035008">
        <ele>275.56</ele>
        <time>2025-04-24T09:42:18Z</time>
      </trkpt>
      <trkpt lat="46.059248009696603" lon="4.949764022603631">
        <ele>275.56</ele>
        <time>2025-04-24T09:42:19Z</time>
      </trkpt>
      <trkpt lat="46.060432959347963" lon="4.947877004742622">
        <ele>276.04000000000002</ele>
        <time>2025-04-24T09:42:29Z</time>
      </trkpt>
      <trkpt lat="46.060769995674491" lon="4.947039987891913">
        <ele>276.04000000000002</ele>
        <time>2025-04-24T09:42:35Z</time>
      </trkpt>
      <trkpt lat="46.060796985402703" lon="4.946973016485572">
        <ele>276.04000000000002</ele>
        <time>2025-04-24T09:42:36Z</time>
      </trkpt>
      <trkpt lat="46.060818023979664" lon="4.946922976523638">
        <ele>276.04000000000002</ele>
        <time>2025-04-24T09:42:37Z</time>
      </trkpt>
      <trkpt lat="46.060755997896194" lon="4.946822980418801">
        <ele>276.51999999999998</ele>
        <time>2025-04-24T09:42:38Z</time>
      </trkpt>
      <trkpt lat="46.060692965984344" lon="4.946803031489253">
        <ele>276.51999999999998</ele>
        <time>2025-04-24T09:42:39Z</time>
      </trkpt>
      <trkpt lat="46.060614008456469" lon="4.94677796959877">
        <ele>276.51999999999998</ele>
        <time>2025-04-24T09:42:40Z</time>
      </trkpt>
      <trkpt lat="46.059867013245821" lon="4.946529027074575">
        <ele>278.44</ele>
        <time>2025-04-24T09:42:46Z</time>
      </trkpt>
      <trkpt lat="46.058246959000826" lon="4.945883033797145">
        <ele>280.83999999999997</ele>
        <time>2025-04-24T09:42:55Z</time>
      </trkpt>
      <trkpt lat="46.055336007848382" lon="4.944722978398204">
        <ele>283.25</ele>
        <time>2025-04-24T09:43:09Z</time>
      </trkpt>
      <trkpt lat="46.052387002855539" lon="4.943559989333153">
        <ele>284.69</ele>
        <time>2025-04-24T09:43:24Z</time>
      </trkpt>
      <trkpt lat="46.049132980406284" lon="4.942161971703172">
        <ele>285.17000000000002</ele>
        <time>2025-04-24T09:43:41Z</time>
      </trkpt>
      <trkpt lat="46.047020992264152" lon="4.941093027591705">
        <ele>285.17000000000002</ele>
        <time>2025-04-24T09:43:52Z</time>
      </trkpt>
      <trkpt lat="46.044820994138718" lon="4.939647987484932">
        <ele>283.73000000000002</ele>
        <time>2025-04-24T09:44:04Z</time>
      </trkpt>
      <trkpt lat="46.043833019211888" lon="4.938837960362434">
        <ele>284.20999999999998</ele>
        <time>2025-04-24T09:44:11Z</time>
      </trkpt>
      <trkpt lat="46.043378971517086" lon="4.938434036448598">
        <ele>283.73000000000002</ele>
        <time>2025-04-24T09:44:17Z</time>
      </trkpt>
      <trkpt lat="46.043313005939126" lon="4.93837402202189">
        <ele>283.25</ele>
        <time>2025-04-24T09:44:23Z</time>
      </trkpt>
      <trkpt lat="46.043264977633953" lon="4.938334040343761">
        <ele>283.25</ele>
        <time>2025-04-24T09:44:24Z</time>
      </trkpt>
      <trkpt lat="46.042732978239655" lon="4.937890972942114">
        <ele>282.76999999999998</ele>
        <time>2025-04-24T09:44:30Z</time>
      </trkpt>
      <trkpt lat="46.041623968631029" lon="4.936967035755515">
        <ele>283.25</ele>
        <time>2025-04-24T09:44:38Z</time>
      </trkpt>
      <trkpt lat="46.039746003225446" lon="4.935373971238732">
        <ele>282.76999999999998</ele>
        <time>2025-04-24T09:44:49Z</time>
      </trkpt>
      <trkpt lat="46.03743402287364" lon="4.933429034426808">
        <ele>282.27999999999997</ele>
        <time>2025-04-24T09:45:02Z</time>
      </trkpt>
      <trkpt lat="46.036666994914412" lon="4.932920001447201">
        <ele>281.31999999999999</ele>
        <time>2025-04-24T09:45:06Z</time>
      </trkpt>
      <trkpt lat="46.036464991047978" lon="4.932866021990776">
        <ele>281.31999999999999</ele>
        <time>2025-04-24T09:45:07Z</time>
      </trkpt>
      <trkpt lat="46.036256030201912" lon="4.932839032262564">
        <ele>281.80000000000001</ele>
        <time>2025-04-24T09:45:08Z</time>
      </trkpt>
      <trkpt lat="46.036046985536814" lon="4.9328129645437">
        <ele>281.80000000000001</ele>
        <time>2025-04-24T09:45:09Z</time>
      </trkpt>
      <trkpt lat="46.035836013033986" lon="4.932784968987107">
        <ele>281.31999999999999</ele>
        <time>2025-04-24T09:45:10Z</time>
      </trkpt>
      <trkpt lat="46.034142030403018" lon="4.932423960417509">
        <ele>281.31999999999999</ele>
        <time>2025-04-24T09:45:18Z</time>
      </trkpt>
      <trkpt lat="46.031425036489964" lon="4.931644024327397">
        <ele>284.20999999999998</ele>
        <time>2025-04-24T09:45:32Z</time>
      </trkpt>
      <trkpt lat="46.028206972405314" lon="4.930597962811589">
        <ele>286.61000000000001</ele>
        <time>2025-04-24T09:45:48Z</time>
      </trkpt>
      <trkpt lat="46.025366010144353" lon="4.929940989241004">
        <ele>292.38</ele>
        <time>2025-04-24T09:46:02Z</time>
      </trkpt>
      <trkpt lat="46.022930983453989" lon="4.929371019825339">
        <ele>295.74000000000001</ele>
        <time>2025-04-24T09:46:14Z</time>
      </trkpt>
      <trkpt lat="46.021158965304494" lon="4.928954020142555">
        <ele>299.58999999999997</ele>
        <time>2025-04-24T09:46:23Z</time>
      </trkpt>
      <trkpt lat="46.020319014787674" lon="4.928756961598992">
        <ele>301.02999999999997</ele>
        <time>2025-04-24T09:46:29Z</time>
      </trkpt>
      <trkpt lat="46.019931016489863" lon="4.928675992414355">
        <ele>301.99000000000001</ele>
        <time>2025-04-24T09:46:34Z</time>
      </trkpt>
      <trkpt lat="46.019649971276522" lon="4.92859804071486">
        <ele>301.02999999999997</ele>
        <time>2025-04-24T09:46:40Z</time>
      </trkpt>
      <trkpt lat="46.019610995426774" lon="4.928569961339235">
        <ele>301.02999999999997</ele>
        <time>2025-04-24T09:46:41Z</time>
      </trkpt>
      <trkpt lat="46.019641002640128" lon="4.928505001589656">
        <ele>300.55000000000001</ele>
        <time>2025-04-24T09:46:42Z</time>
      </trkpt>
      <trkpt lat="46.019652988761663" lon="4.928438030183315">
        <ele>300.55000000000001</ele>
        <time>2025-04-24T09:46:43Z</time>
      </trkpt>
      <trkpt lat="46.019668998196721" lon="4.928352031856775">
        <ele>300.55000000000001</ele>
        <time>2025-04-24T09:46:44Z</time>
      </trkpt>
      <trkpt lat="46.019685007631779" lon="4.928255975246429">
        <ele>300.55000000000001</ele>
        <time>2025-04-24T09:46:45Z</time>
      </trkpt>
      <trkpt lat="46.019701017066836" lon="4.928150027990341">
        <ele>300.06999999999999</ele>
        <time>2025-04-24T09:46:46Z</time>
      </trkpt>
      <trkpt lat="46.019820040091872" lon="4.927055016160011">
        <ele>294.30000000000001</ele>
        <time>2025-04-24T09:46:54Z</time>
      </trkpt>
      <trkpt lat="46.019889023154974" lon="4.92621498182416">
        <ele>292.38</ele>
        <time>2025-04-24T09:46:59Z</time>
      </trkpt>
      <trkpt lat="46.019986001774669" lon="4.925853973254561">
        <ele>291.89999999999998</ele>
        <time>2025-04-24T09:47:01Z</time>
      </trkpt>
      <trkpt lat="46.020036041736603" lon="4.925665967166424">
        <ele>291.89999999999998</ele>
        <time>2025-04-24T09:47:02Z</time>
      </trkpt>
      <trkpt lat="46.020674994215369" lon="4.923722958192229">
        <ele>293.81999999999999</ele>
        <time>2025-04-24T09:47:12Z</time>
      </trkpt>
      <trkpt lat="46.021295003592968" lon="4.921241998672485">
        <ele>293.33999999999997</ele>
        <time>2025-04-24T09:47:22Z</time>
      </trkpt>
      <trkpt lat="46.022129002958536" lon="4.917568964883685">
        <ele>292.38</ele>
        <time>2025-04-24T09:47:36Z</time>
      </trkpt>
      <trkpt lat="46.022418010979891" lon="4.914180999621749">
        <ele>290.45999999999998</ele>
        <time>2025-04-24T09:47:48Z</time>
      </trkpt>
      <trkpt lat="46.022478025406599" lon="4.91184102371335">
        <ele>288.05000000000001</ele>
        <time>2025-04-24T09:47:56Z</time>
      </trkpt>
      <trkpt lat="46.022538961842656" lon="4.909416977316141">
        <ele>286.13</ele>
        <time>2025-04-24T09:48:04Z</time>
      </trkpt>
      <trkpt lat="46.022634012624621" lon="4.905664985999465">
        <ele>285.17000000000002</ele>
        <time>2025-04-24T09:48:16Z</time>
      </trkpt>
      <trkpt lat="46.022726967930794" lon="4.902019025757909">
        <ele>285.64999999999998</ele>
        <time>2025-04-24T09:48:28Z</time>
      </trkpt>
      <trkpt lat="46.022776002064347" lon="4.900082973763347">
        <ele>287.08999999999997</ele>
        <time>2025-04-24T09:48:36Z</time>
      </trkpt>
      <trkpt lat="46.022820007055998" lon="4.898874973878264">
        <ele>287.08999999999997</ele>
        <time>2025-04-24T09:48:43Z</time>
      </trkpt>
      <trkpt lat="46.022872980684042" lon="4.898503990843892">
        <ele>287.08999999999997</ele>
        <time>2025-04-24T09:48:47Z</time>
      </trkpt>
      <trkpt lat="46.022887984290719" lon="4.898399971425533">
        <ele>287.08999999999997</ele>
        <time>2025-04-24T09:48:48Z</time>
      </trkpt>
      <trkpt lat="46.022795028984547" lon="4.89740202203393">
        <ele>286.13</ele>
        <time>2025-04-24T09:48:54Z</time>
      </trkpt>
      <trkpt lat="46.022756975144148" lon="4.895379971712828">
        <ele>285.64999999999998</ele>
        <time>2025-04-24T09:49:02Z</time>
      </trkpt>
      <trkpt lat="46.022682040929794" lon="4.891804000362754">
        <ele>285.64999999999998</ele>
        <time>2025-04-24T09:49:14Z</time>
      </trkpt>
      <trkpt lat="46.022604005411267" lon="4.88814203068614">
        <ele>287.08999999999997</ele>
        <time>2025-04-24T09:49:27Z</time>
      </trkpt>
      <trkpt lat="46.022542985156178" lon="4.885249016806483">
        <ele>288.05000000000001</ele>
        <time>2025-04-24T09:49:37Z</time>
      </trkpt>
      <trkpt lat="46.02246000431478" lon="4.881795002147555">
        <ele>288.52999999999997</ele>
        <time>2025-04-24T09:49:49Z</time>
      </trkpt>
      <trkpt lat="46.022394960746169" lon="4.878988992422819">
        <ele>285.17000000000002</ele>
        <time>2025-04-24T09:49:59Z</time>
      </trkpt>
      <trkpt lat="46.022296976298094" lon="4.874932989478111">
        <ele>287.08999999999997</ele>
        <time>2025-04-24T09:50:13Z</time>
      </trkpt>
      <trkpt lat="46.022216007113457" lon="4.871697993949056">
        <ele>285.17000000000002</ele>
        <time>2025-04-24T09:50:24Z</time>
      </trkpt>
      <trkpt lat="46.022113999351859" lon="4.868243979290128">
        <ele>286.13</ele>
        <time>2025-04-24T09:50:36Z</time>
      </trkpt>
      <trkpt lat="46.022055996581912" lon="4.865594040602446">
        <ele>285.17000000000002</ele>
        <time>2025-04-24T09:50:46Z</time>
      </trkpt>
      <trkpt lat="46.022035041823983" lon="4.8646189738065">
        <ele>285.17000000000002</ele>
        <time>2025-04-24T09:50:52Z</time>
      </trkpt>
      <trkpt lat="46.022001011297107" lon="4.864361984655261">
        <ele>285.17000000000002</ele>
        <time>2025-04-24T09:50:56Z</time>
      </trkpt>
      <trkpt lat="46.021963963285089" lon="4.864354021847248">
        <ele>284.69</ele>
        <time>2025-04-24T09:50:57Z</time>
      </trkpt>
      <trkpt lat="46.021915012970567" lon="4.864343963563442">
        <ele>284.69</ele>
        <time>2025-04-24T09:50:58Z</time>
      </trkpt>
      <trkpt lat="46.021266002207994" lon="4.864203985780478">
        <ele>284.20999999999998</ele>
        <time>2025-04-24T09:51:05Z</time>
      </trkpt>
      <trkpt lat="46.019896985962987" lon="4.863908020779491">
        <ele>286.13</ele>
        <time>2025-04-24T09:51:14Z</time>
      </trkpt>
      <trkpt lat="46.017894968390465" lon="4.863455984741449">
        <ele>286.13</ele>
        <time>2025-04-24T09:51:26Z</time>
      </trkpt>
      <trkpt lat="46.015682984143496" lon="4.862933037802577">
        <ele>286.61000000000001</ele>
        <time>2025-04-24T09:51:40Z</time>
      </trkpt>
      <trkpt lat="46.015466982498765" lon="4.862882997840643">
        <ele>286.61000000000001</ele>
        <time>2025-04-24T09:51:43Z</time>
      </trkpt>
      <trkpt lat="46.015427000820637" lon="4.862873023375869">
        <ele>286.13</ele>
        <time>2025-04-24T09:51:44Z</time>
      </trkpt>
      <trkpt lat="46.015405040234327" lon="4.862780990079045">
        <ele>286.13</ele>
        <time>2025-04-24T09:51:45Z</time>
      </trkpt>
      <trkpt lat="46.015409985557199" lon="4.862714018672705">
        <ele>286.13</ele>
        <time>2025-04-24T09:51:46Z</time>
      </trkpt>
      <trkpt lat="46.015416020527482" lon="4.862628020346165">
        <ele>285.64999999999998</ele>
        <time>2025-04-24T09:51:47Z</time>
      </trkpt>
      <trkpt lat="46.015423983335495" lon="4.862519977614284">
        <ele>285.64999999999998</ele>
        <time>2025-04-24T09:51:48Z</time>
      </trkpt>
      <trkpt lat="46.015559015795588" lon="4.861183986067772">
        <ele>284.20999999999998</ele>
        <time>2025-04-24T09:51:56Z</time>
      </trkpt>
      <trkpt lat="46.015651971101761" lon="4.859467959031463">
        <ele>284.20999999999998</ele>
        <time>2025-04-24T09:52:03Z</time>
      </trkpt>
      <trkpt lat="46.015639984980226" lon="4.856750965118408">
        <ele>282.76999999999998</ele>
        <time>2025-04-24T09:52:13Z</time>
      </trkpt>
      <trkpt lat="46.015630010515451" lon="4.854695973917842">
        <ele>281.31999999999999</ele>
        <time>2025-04-24T09:52:22Z</time>
      </trkpt>
      <trkpt lat="46.015621963888407" lon="4.85275698825717">
        <ele>278.92000000000002</ele>
        <time>2025-04-24T09:52:30Z</time>
      </trkpt>
      <trkpt lat="46.01573696359992" lon="4.849870009347796">
        <ele>276.51999999999998</ele>
        <time>2025-04-24T09:52:42Z</time>
      </trkpt>
      <trkpt lat="46.016236022114754" lon="4.847376979887486">
        <ele>276.51999999999998</ele>
        <time>2025-04-24T09:52:53Z</time>
      </trkpt>
      <trkpt lat="46.016878997907043" lon="4.8447220120579">
        <ele>276.04000000000002</ele>
        <time>2025-04-24T09:53:05Z</time>
      </trkpt>
      <trkpt lat="46.017478974536061" lon="4.842276005074382">
        <ele>273.14999999999998</ele>
        <time>2025-04-24T09:53:16Z</time>
      </trkpt>
      <trkpt lat="46.017763959243894" lon="4.840912017971277">
        <ele>272.67000000000002</ele>
        <time>2025-04-24T09:53:23Z</time>
      </trkpt>
      <trkpt lat="46.017903015017509" lon="4.840221013873816">
        <ele>273.14999999999998</ele>
        <time>2025-04-24T09:53:28Z</time>
      </trkpt>
      <trkpt lat="46.017879964783788" lon="4.839949021115899">
        <ele>273.63</ele>
        <time>2025-04-24T09:53:30Z</time>
      </trkpt>
      <trkpt lat="46.017794972285628" lon="4.838957022875547">
        <ele>274.58999999999997</ele>
        <time>2025-04-24T09:53:39Z</time>
      </trkpt>
      <trkpt lat="46.017791032791138" lon="4.838910000398755">
        <ele>275.56</ele>
        <time>2025-04-24T09:53:46Z</time>
      </trkpt>
      <trkpt lat="46.017791032791138" lon="4.838910000398755">
        <ele>275.56</ele>
        <time>2025-04-24T09:53:47Z</time>
      </trkpt>
      <trkpt lat="46.017735963687301" lon="4.838827019557357">
        <ele>275.56</ele>
        <time>2025-04-24T09:53:49Z</time>
      </trkpt>
      <trkpt lat="46.017675027251244" lon="4.838874964043498">
        <ele>275.56</ele>
        <time>2025-04-24T09:53:50Z</time>
      </trkpt>
      <trkpt lat="46.017599003389478" lon="4.838936990126967">
        <ele>275.56</ele>
        <time>2025-04-24T09:53:51Z</time>
      </trkpt>
      <trkpt lat="46.017509987577796" lon="4.83900798484683">
        <ele>275.56</ele>
        <time>2025-04-24T09:53:52Z</time>
      </trkpt>
      <trkpt lat="46.016718987375498" lon="4.839645009487867">
        <ele>275.56</ele>
        <time>2025-04-24T09:53:58Z</time>
      </trkpt>
      <trkpt lat="46.015071021392941" lon="4.840830964967609">
        <ele>276.04000000000002</ele>
        <time>2025-04-24T09:54:07Z</time>
      </trkpt>
      <trkpt lat="46.014355039224029" lon="4.841277971863747">
        <ele>276.04000000000002</ele>
        <time>2025-04-24T09:54:12Z</time>
      </trkpt>
      <trkpt lat="46.014138031750917" lon="4.841417027637363">
        <ele>276.04000000000002</ele>
        <time>2025-04-24T09:54:15Z</time>
      </trkpt>
      <trkpt lat="46.014107018709183" lon="4.84143597073853">
        <ele>276.04000000000002</ele>
        <time>2025-04-24T09:54:16Z</time>
      </trkpt>
      <trkpt lat="46.014025965705514" lon="4.841322982683778">
        <ele>276.04000000000002</ele>
        <time>2025-04-24T09:54:17Z</time>
      </trkpt>
      <trkpt lat="46.01401699706912" lon="4.841244025155902">
        <ele>276.04000000000002</ele>
        <time>2025-04-24T09:54:18Z</time>
      </trkpt>
      <trkpt lat="46.014005010947585" lon="4.841131959110498">
        <ele>276.04000000000002</ele>
        <time>2025-04-24T09:54:19Z</time>
      </trkpt>
      <trkpt lat="46.013990007340908" lon="4.841001033782959">
        <ele>276.04000000000002</ele>
        <time>2025-04-24T09:54:20Z</time>
      </trkpt>
      <trkpt lat="46.013866038993001" lon="4.839658001437783">
        <ele>275.06999999999999</ele>
        <time>2025-04-24T09:54:27Z</time>
      </trkpt>
      <trkpt lat="46.01371600292623" lon="4.838098967447877">
        <ele>272.19</ele>
        <time>2025-04-24T09:54:35Z</time>
      </trkpt>
      <trkpt lat="46.013689013198018" lon="4.837951026856899">
        <ele>272.19</ele>
        <time>2025-04-24T09:54:36Z</time>
      </trkpt>
      <trkpt lat="46.013662023469806" lon="4.837807025760412">
        <ele>272.19</ele>
        <time>2025-04-24T09:54:37Z</time>
      </trkpt>
      <trkpt lat="46.013599997386336" lon="4.837678028270602">
        <ele>272.19</ele>
        <time>2025-04-24T09:54:38Z</time>
      </trkpt>
      <trkpt lat="46.013535959646106" lon="4.83754500746727">
        <ele>271.70999999999998</ele>
        <time>2025-04-24T09:54:39Z</time>
      </trkpt>
      <trkpt lat="46.013466976583004" lon="4.837402012199163">
        <ele>272.19</ele>
        <time>2025-04-24T09:54:40Z</time>
      </trkpt>
      <trkpt lat="46.013170005753636" lon="4.836416970938444">
        <ele>271.70999999999998</ele>
        <time>2025-04-24T09:54:46Z</time>
      </trkpt>
      <trkpt lat="46.013151984661818" lon="4.836270958185196">
        <ele>271.23000000000002</ele>
        <time>2025-04-24T09:54:47Z</time>
      </trkpt>
      <trkpt lat="46.013146033510566" lon="4.836215972900391">
        <ele>271.23000000000002</ele>
        <time>2025-04-24T09:54:48Z</time>
      </trkpt>
      <trkpt lat="46.013108985498548" lon="4.836093010380864">
        <ele>270.75</ele>
        <time>2025-04-24T09:54:49Z</time>
      </trkpt>
      <trkpt lat="46.013086019083858" lon="4.836015980690718">
        <ele>270.26999999999998</ele>
        <time>2025-04-24T09:54:50Z</time>
      </trkpt>
      <trkpt lat="46.013035979121923" lon="4.835979016497731">
        <ele>269.79000000000002</ele>
        <time>2025-04-24T09:54:51Z</time>
      </trkpt>
      <trkpt lat="46.012971019372344" lon="4.835945991799235">
        <ele>269.31</ele>
        <time>2025-04-24T09:54:52Z</time>
      </trkpt>
      <trkpt lat="46.012888038530946" lon="4.835943980142474">
        <ele>268.82999999999998</ele>
        <time>2025-04-24T09:54:53Z</time>
      </trkpt>
      <trkpt lat="46.012802962213755" lon="4.835953032597899">
        <ele>268.35000000000002</ele>
        <time>2025-04-24T09:54:54Z</time>
      </trkpt>
      <trkpt lat="46.012719981372356" lon="4.835960995405912">
        <ele>267.86000000000001</ele>
        <time>2025-04-24T09:54:55Z</time>
      </trkpt>
      <trkpt lat="46.012312034144998" lon="4.836003994569182">
        <ele>265.45999999999998</ele>
        <time>2025-04-24T09:55:00Z</time>
      </trkpt>
      <trkpt lat="46.011756984516978" lon="4.836034001782537">
        <ele>262.57999999999998</ele>
        <time>2025-04-24T09:55:07Z</time>
      </trkpt>
      <trkpt lat="46.011684983968735" lon="4.836029978469014">
        <ele>262.10000000000002</ele>
        <time>2025-04-24T09:55:08Z</time>
      </trkpt>
      <trkpt lat="46.011617006734014" lon="4.836025033146143">
        <ele>261.62</ele>
        <time>2025-04-24T09:55:09Z</time>
      </trkpt>
      <trkpt lat="46.011561015620828" lon="4.835989996790886">
        <ele>261.62</ele>
        <time>2025-04-24T09:55:10Z</time>
      </trkpt>
      <trkpt lat="46.011520028114319" lon="4.835917996242642">
        <ele>261.13999999999999</ele>
        <time>2025-04-24T09:55:11Z</time>
      </trkpt>
      <trkpt lat="46.011484991759062" lon="4.83582797460258">
        <ele>260.64999999999998</ele>
        <time>2025-04-24T09:55:12Z</time>
      </trkpt>
      <trkpt lat="46.011464959010482" lon="4.835722027346492">
        <ele>260.17000000000002</ele>
        <time>2025-04-24T09:55:13Z</time>
      </trkpt>
      <trkpt lat="46.011441992595792" lon="4.835603004321456">
        <ele>259.69</ele>
        <time>2025-04-24T09:55:14Z</time>
      </trkpt>
      <trkpt lat="46.011421959847212" lon="4.835498984903097">
        <ele>258.73000000000002</ele>
        <time>2025-04-24T09:55:15Z</time>
      </trkpt>
      <trkpt lat="46.011407962068915" lon="4.835422039031982">
        <ele>257.29000000000002</ele>
        <time>2025-04-24T09:55:16Z</time>
      </trkpt>
      <trkpt lat="46.011358005926013" lon="4.835359007120132">
        <ele>255.84999999999999</ele>
        <time>2025-04-24T09:55:17Z</time>
      </trkpt>
      <trkpt lat="46.011306960135698" lon="4.835313996300101">
        <ele>254.41</ele>
        <time>2025-04-24T09:55:18Z</time>
      </trkpt>
      <trkpt lat="46.011235965415835" lon="4.835309972986579">
        <ele>252.96000000000001</ele>
        <time>2025-04-24T09:55:19Z</time>
      </trkpt>
      <trkpt lat="46.011163964867592" lon="4.835305027663708">
        <ele>252</ele>
        <time>2025-04-24T09:55:20Z</time>
      </trkpt>
      <trkpt lat="46.011080984026194" lon="4.835299998521805">
        <ele>250.56</ele>
        <time>2025-04-24T09:55:21Z</time>
      </trkpt>
      <trkpt lat="46.010975036770105" lon="4.835294969379902">
        <ele>249.59999999999999</ele>
        <time>2025-04-24T09:55:22Z</time>
      </trkpt>
      <trkpt lat="46.010877974331379" lon="4.835341991856694">
        <ele>249.12</ele>
        <time>2025-04-24T09:55:23Z</time>
      </trkpt>
      <trkpt lat="46.010776972398162" lon="4.835390020161867">
        <ele>248.16</ele>
        <time>2025-04-24T09:55:24Z</time>
      </trkpt>
      <trkpt lat="46.010673958808184" lon="4.83543997630477">
        <ele>247.19999999999999</ele>
        <time>2025-04-24T09:55:25Z</time>
      </trkpt>
      <trkpt lat="46.010571029037237" lon="4.835490016266704">
        <ele>246.22999999999999</ele>
        <time>2025-04-24T09:55:26Z</time>
      </trkpt>
      <trkpt lat="46.009534019976854" lon="4.835860999301076">
        <ele>244.31</ele>
        <time>2025-04-24T09:55:35Z</time>
      </trkpt>
      <trkpt lat="46.008900012820959" lon="4.835862005129457">
        <ele>245.75</ele>
        <time>2025-04-24T09:55:42Z</time>
      </trkpt>
      <trkpt lat="46.008847961202264" lon="4.835858987644315">
        <ele>246.22999999999999</ele>
        <time>2025-04-24T09:55:43Z</time>
      </trkpt>
      <trkpt lat="46.008809991180897" lon="4.835855970159173">
        <ele>246.22999999999999</ele>
        <time>2025-04-24T09:55:44Z</time>
      </trkpt>
      <trkpt lat="46.008779983967543" lon="4.835854964330792">
        <ele>246.22999999999999</ele>
        <time>2025-04-24T09:55:45Z</time>
      </trkpt>
      <trkpt lat="46.008740002289414" lon="4.835754968225956">
        <ele>246.22999999999999</ele>
        <time>2025-04-24T09:55:46Z</time>
      </trkpt>
      <trkpt lat="46.008747965097427" lon="4.835706017911434">
        <ele>246.22999999999999</ele>
        <time>2025-04-24T09:55:47Z</time>
      </trkpt>
      <trkpt lat="46.008760035037994" lon="4.835628988221288">
        <ele>246.22999999999999</ele>
        <time>2025-04-24T09:55:48Z</time>
      </trkpt>
      <trkpt lat="46.00877596065402" lon="4.83552597463131">
        <ele>246.22999999999999</ele>
        <time>2025-04-24T09:55:49Z</time>
      </trkpt>
      <trkpt lat="46.008792975917459" lon="4.835410974919796">
        <ele>246.72</ele>
        <time>2025-04-24T09:55:50Z</time>
      </trkpt>
      <trkpt lat="46.008853996172547" lon="4.835014007985592">
        <ele>248.16</ele>
        <time>2025-04-24T09:55:53Z</time>
      </trkpt>
      <trkpt lat="46.008844021707773" lon="4.834095016121864">
        <ele>250.08000000000001</ele>
        <time>2025-04-24T09:56:00Z</time>
      </trkpt>
      <trkpt lat="46.00881895981729" lon="4.833969036117196">
        <ele>250.08000000000001</ele>
        <time>2025-04-24T09:56:01Z</time>
      </trkpt>
      <trkpt lat="46.008775038644671" lon="4.833845989778638">
        <ele>250.56</ele>
        <time>2025-04-24T09:56:02Z</time>
      </trkpt>
      <trkpt lat="46.008717035874724" lon="4.833714980632067">
        <ele>250.08000000000001</ele>
        <time>2025-04-24T09:56:03Z</time>
      </trkpt>
      <trkpt lat="46.008646041154861" lon="4.833587994799018">
        <ele>250.08000000000001</ele>
        <time>2025-04-24T09:56:04Z</time>
      </trkpt>
      <trkpt lat="46.007885970175266" lon="4.832212021574378">
        <ele>251.03999999999999</ele>
        <time>2025-04-24T09:56:12Z</time>
      </trkpt>
      <trkpt lat="46.00711802020669" lon="4.830249985679984">
        <ele>252</ele>
        <time>2025-04-24T09:56:21Z</time>
      </trkpt>
      <trkpt lat="46.006843009963632" lon="4.828017968684435">
        <ele>252</ele>
        <time>2025-04-24T09:56:30Z</time>
      </trkpt>
      <trkpt lat="46.006637988612056" lon="4.825633987784386">
        <ele>252</ele>
        <time>2025-04-24T09:56:41Z</time>
      </trkpt>
      <trkpt lat="46.006594989448786" lon="4.825461991131306">
        <ele>252</ele>
        <time>2025-04-24T09:56:42Z</time>
      </trkpt>
      <trkpt lat="46.006546039134264" lon="4.825291000306606">
        <ele>252</ele>
        <time>2025-04-24T09:56:43Z</time>
      </trkpt>
      <trkpt lat="46.006465991958976" lon="4.825130989775062">
        <ele>252</ele>
        <time>2025-04-24T09:56:44Z</time>
      </trkpt>
      <trkpt lat="46.006385022774339" lon="4.824967961758375">
        <ele>252</ele>
        <time>2025-04-24T09:56:45Z</time>
      </trkpt>
      <trkpt lat="46.005466030910611" lon="4.823561981320381">
        <ele>254.41</ele>
        <time>2025-04-24T09:56:55Z</time>
      </trkpt>
      <trkpt lat="46.004598001018167" lon="4.82263301499188">
        <ele>257.29000000000002</ele>
        <time>2025-04-24T09:57:04Z</time>
      </trkpt>
      <trkpt lat="46.004417035728693" lon="4.822273012250662">
        <ele>258.25</ele>
        <time>2025-04-24T09:57:10Z</time>
      </trkpt>
      <trkpt lat="46.004426004365087" lon="4.822201011702418">
        <ele>258.73000000000002</ele>
        <time>2025-04-24T09:57:11Z</time>
      </trkpt>
      <trkpt lat="46.004437990486622" lon="4.822100009769201">
        <ele>258.73000000000002</ele>
        <time>2025-04-24T09:57:12Z</time>
      </trkpt>
      <trkpt lat="46.004588026553392" lon="4.820878012105823">
        <ele>259.20999999999998</ele>
        <time>2025-04-24T09:57:19Z</time>
      </trkpt>
      <trkpt lat="46.004849961027503" lon="4.818731993436813">
        <ele>259.69</ele>
        <time>2025-04-24T09:57:29Z</time>
      </trkpt>
      <trkpt lat="46.004995973780751" lon="4.818097986280918">
        <ele>260.64999999999998</ele>
        <time>2025-04-24T09:57:34Z</time>
      </trkpt>
      <trkpt lat="46.005053976550698" lon="4.818021040409803">
        <ele>261.13999999999999</ele>
        <time>2025-04-24T09:57:35Z</time>
      </trkpt>
      <trkpt lat="46.005127988755703" lon="4.817948034033179">
        <ele>261.13999999999999</ele>
        <time>2025-04-24T09:57:36Z</time>
      </trkpt>
      <trkpt lat="46.005180040374398" lon="4.817857006564736">
        <ele>261.13999999999999</ele>
        <time>2025-04-24T09:57:37Z</time>
      </trkpt>
      <trkpt lat="46.005184985697269" lon="4.81773697771132">
        <ele>261.13999999999999</ele>
        <time>2025-04-24T09:57:38Z</time>
      </trkpt>
      <trkpt lat="46.005184985697269" lon="4.817655002698302">
        <ele>261.13999999999999</ele>
        <time>2025-04-24T09:57:39Z</time>
      </trkpt>
      <trkpt lat="46.005138969048858" lon="4.817487029358745">
        <ele>261.13999999999999</ele>
        <time>2025-04-24T09:57:40Z</time>
      </trkpt>
      <trkpt lat="46.005132012069225" lon="4.817334981635213">
        <ele>261.13999999999999</ele>
        <time>2025-04-24T09:57:41Z</time>
      </trkpt>
      <trkpt lat="46.005123965442181" lon="4.817171031609178">
        <ele>260.64999999999998</ele>
        <time>2025-04-24T09:57:42Z</time>
      </trkpt>
      <trkpt lat="46.005123965442181" lon="4.816992999985814">
        <ele>260.64999999999998</ele>
        <time>2025-04-24T09:57:43Z</time>
      </trkpt>
      <trkpt lat="46.005136035382748" lon="4.816616987809539">
        <ele>260.64999999999998</ele>
        <time>2025-04-24T09:57:45Z</time>
      </trkpt>
      <trkpt lat="46.005355976521969" lon="4.814718989655376">
        <ele>259.69</ele>
        <time>2025-04-24T09:57:53Z</time>
      </trkpt>
      <trkpt lat="46.005850005894899" lon="4.811025001108646">
        <ele>267.86000000000001</ele>
        <time>2025-04-24T09:58:08Z</time>
      </trkpt>
      <trkpt lat="46.006355015560985" lon="4.807470990344882">
        <ele>269.79000000000002</ele>
        <time>2025-04-24T09:58:22Z</time>
      </trkpt>
      <trkpt lat="46.0069689899683" lon="4.803084991872311">
        <ele>269.31</ele>
        <time>2025-04-24T09:58:38Z</time>
      </trkpt>
      <trkpt lat="46.007274007424712" lon="4.799720998853445">
        <ele>268.35000000000002</ele>
        <time>2025-04-24T09:58:49Z</time>
      </trkpt>
      <trkpt lat="46.007094969972968" lon="4.797314973548055">
        <ele>266.89999999999998</ele>
        <time>2025-04-24T09:58:58Z</time>
      </trkpt>
      <trkpt lat="46.007066974416375" lon="4.795043980702758">
        <ele>264.98000000000002</ele>
        <time>2025-04-24T09:59:07Z</time>
      </trkpt>
      <trkpt lat="46.006988016888499" lon="4.794046031311154">
        <ele>263.06</ele>
        <time>2025-04-24T09:59:13Z</time>
      </trkpt>
      <trkpt lat="46.006988016888499" lon="4.793927008286119">
        <ele>263.06</ele>
        <time>2025-04-24T09:59:14Z</time>
      </trkpt>
      <trkpt lat="46.007038978859782" lon="4.793703965842724">
        <ele>262.57999999999998</ele>
        <time>2025-04-24T09:59:16Z</time>
      </trkpt>
      <trkpt lat="46.007045013830066" lon="4.793577985838056">
        <ele>262.57999999999998</ele>
        <time>2025-04-24T09:59:17Z</time>
      </trkpt>
      <trkpt lat="46.007035039365292" lon="4.79345602914691">
        <ele>262.57999999999998</ele>
        <time>2025-04-24T09:59:18Z</time>
      </trkpt>
      <trkpt lat="46.006965972483158" lon="4.793186970055103">
        <ele>262.57999999999998</ele>
        <time>2025-04-24T09:59:20Z</time>
      </trkpt>
      <trkpt lat="46.006965972483158" lon="4.793018996715546">
        <ele>262.57999999999998</ele>
        <time>2025-04-24T09:59:21Z</time>
      </trkpt>
      <trkpt lat="46.006965972483158" lon="4.79283501394093">
        <ele>262.10000000000002</ele>
        <time>2025-04-24T09:59:22Z</time>
      </trkpt>
      <trkpt lat="46.007190020754933" lon="4.790967023000121">
        <ele>260.64999999999998</ele>
        <time>2025-04-24T09:59:30Z</time>
      </trkpt>
      <trkpt lat="46.007267972454429" lon="4.787558019161224">
        <ele>258.25</ele>
        <time>2025-04-24T09:59:42Z</time>
      </trkpt>
      <trkpt lat="46.007323963567615" lon="4.783506039530039">
        <ele>256.32999999999998</ele>
        <time>2025-04-24T09:59:56Z</time>
      </trkpt>
      <trkpt lat="46.007308959960937" lon="4.779564030468464">
        <ele>254.41</ele>
        <time>2025-04-24T10:00:10Z</time>
      </trkpt>
      <trkpt lat="46.007295968011022" lon="4.778275983408094">
        <ele>254.41</ele>
        <time>2025-04-24T10:00:16Z</time>
      </trkpt>
      <trkpt lat="46.007288005203009" lon="4.777728980407119">
        <ele>253.93000000000001</ele>
        <time>2025-04-24T10:00:20Z</time>
      </trkpt>
      <trkpt lat="46.007374003529549" lon="4.777571987360716">
        <ele>253.93000000000001</ele>
        <time>2025-04-24T10:00:21Z</time>
      </trkpt>
      <trkpt lat="46.007438963279128" lon="4.77740996517241">
        <ele>253.93000000000001</ele>
        <time>2025-04-24T10:00:23Z</time>
      </trkpt>
      <trkpt lat="46.007423959672451" lon="4.777267975732684">
        <ele>253.93000000000001</ele>
        <time>2025-04-24T10:00:24Z</time>
      </trkpt>
      <trkpt lat="46.007384983822703" lon="4.777170997112989">
        <ele>254.41</ele>
        <time>2025-04-24T10:00:25Z</time>
      </trkpt>
      <trkpt lat="46.007374003529549" lon="4.777143001556397">
        <ele>254.41</ele>
        <time>2025-04-24T10:00:26Z</time>
      </trkpt>
      <trkpt lat="46.007276019081473" lon="4.77697997353971">
        <ele>253.93000000000001</ele>
        <time>2025-04-24T10:00:27Z</time>
      </trkpt>
      <trkpt lat="46.007265960797668" lon="4.776860028505325">
        <ele>253.93000000000001</ele>
        <time>2025-04-24T10:00:28Z</time>
      </trkpt>
      <trkpt lat="46.007263027131557" lon="4.776733964681625">
        <ele>253.93000000000001</ele>
        <time>2025-04-24T10:00:29Z</time>
      </trkpt>
      <trkpt lat="46.007237965241075" lon="4.77538799867034">
        <ele>254.41</ele>
        <time>2025-04-24T10:00:37Z</time>
      </trkpt>
      <trkpt lat="46.007196977734566" lon="4.77255399338901">
        <ele>253.44</ele>
        <time>2025-04-24T10:00:50Z</time>
      </trkpt>
      <trkpt lat="46.006877962499857" lon="4.770451979711652">
        <ele>252.96000000000001</ele>
        <time>2025-04-24T10:00:58Z</time>
      </trkpt>
      <trkpt lat="46.006419975310564" lon="4.76827603764832">
        <ele>251.52000000000001</ele>
        <time>2025-04-24T10:01:09Z</time>
      </trkpt>
      <trkpt lat="46.006356021389365" lon="4.767712019383907">
        <ele>251.52000000000001</ele>
        <time>2025-04-24T10:01:15Z</time>
      </trkpt>
      <trkpt lat="46.006348980590701" lon="4.767623003572226">
        <ele>251.52000000000001</ele>
        <time>2025-04-24T10:01:16Z</time>
      </trkpt>
      <trkpt lat="46.00634403526783" lon="4.767551003023982">
        <ele>251.52000000000001</ele>
        <time>2025-04-24T10:01:17Z</time>
      </trkpt>
      <trkpt lat="46.006414024159312" lon="4.767294013872743">
        <ele>251.52000000000001</ele>
        <time>2025-04-24T10:01:20Z</time>
      </trkpt>
      <trkpt lat="46.006392985582352" lon="4.76722402498126">
        <ele>251.52000000000001</ele>
        <time>2025-04-24T10:01:21Z</time>
      </trkpt>
      <trkpt lat="46.006357027217746" lon="4.767157975584269">
        <ele>251.52000000000001</ele>
        <time>2025-04-24T10:01:22Z</time>
      </trkpt>
      <trkpt lat="46.006320985034108" lon="4.76709502749145">
        <ele>251.52000000000001</ele>
        <time>2025-04-24T10:01:23Z</time>
      </trkpt>
      <trkpt lat="46.006258958950639" lon="4.767066026106477">
        <ele>251.52000000000001</ele>
        <time>2025-04-24T10:01:24Z</time>
      </trkpt>
      <trkpt lat="46.006205985322595" lon="4.767077006399632">
        <ele>251.52000000000001</ele>
        <time>2025-04-24T10:01:25Z</time>
      </trkpt>
      <trkpt lat="46.006147982552648" lon="4.767087986692786">
        <ele>251.52000000000001</ele>
        <time>2025-04-24T10:01:26Z</time>
      </trkpt>
      <trkpt lat="46.006086962297559" lon="4.767100978642702">
        <ele>251.52000000000001</ele>
        <time>2025-04-24T10:01:27Z</time>
      </trkpt>
      <trkpt lat="46.006063995882869" lon="4.767172979190946">
        <ele>251.52000000000001</ele>
        <time>2025-04-24T10:01:28Z</time>
      </trkpt>
      <trkpt lat="46.006040023639798" lon="4.767251014709473">
        <ele>251.52000000000001</ele>
        <time>2025-04-24T10:01:29Z</time>
      </trkpt>
      <trkpt lat="46.005856962874532" lon="4.767393004149199">
        <ele>251.52000000000001</ele>
        <time>2025-04-24T10:01:31Z</time>
      </trkpt>
      <trkpt lat="46.005769036710262" lon="4.767400966957212">
        <ele>251.52000000000001</ele>
        <time>2025-04-24T10:01:32Z</time>
      </trkpt>
      <trkpt lat="46.005040984600782" lon="4.767428040504456">
        <ele>251.03999999999999</ele>
        <time>2025-04-24T10:01:37Z</time>
      </trkpt>
      <trkpt lat="46.003598961979151" lon="4.767530970275402">
        <ele>251.03999999999999</ele>
        <time>2025-04-24T10:01:43Z</time>
      </trkpt>
      <trkpt lat="46.00204998627305" lon="4.767641024664044">
        <ele>250.08000000000001</ele>
        <time>2025-04-24T10:01:50Z</time>
      </trkpt>
      <trkpt lat="45.999432988464832" lon="4.767561983317137">
        <ele>249.12</ele>
        <time>2025-04-24T10:02:03Z</time>
      </trkpt>
      <trkpt lat="45.998117029666901" lon="4.767024032771587">
        <ele>249.59999999999999</ele>
        <time>2025-04-24T10:02:11Z</time>
      </trkpt>
      <trkpt lat="45.99764596670866" lon="4.766812976449728">
        <ele>249.59999999999999</ele>
        <time>2025-04-24T10:02:15Z</time>
      </trkpt>
      <trkpt lat="45.99755896255374" lon="4.766766037791967">
        <ele>249.59999999999999</ele>
        <time>2025-04-24T10:02:16Z</time>
      </trkpt>
      <trkpt lat="45.997525015845895" lon="4.766522040590644">
        <ele>249.59999999999999</ele>
        <time>2025-04-24T10:02:17Z</time>
      </trkpt>
      <trkpt lat="45.997420996427536" lon="4.766358006745577">
        <ele>250.08000000000001</ele>
        <time>2025-04-24T10:02:19Z</time>
      </trkpt>
      <trkpt lat="45.997319994494319" lon="4.766268990933895">
        <ele>250.56</ele>
        <time>2025-04-24T10:02:20Z</time>
      </trkpt>
      <trkpt lat="45.997271966189146" lon="4.766113003715873">
        <ele>250.56</ele>
        <time>2025-04-24T10:02:21Z</time>
      </trkpt>
      <trkpt lat="45.997219998389482" lon="4.765945030376315">
        <ele>250.56</ele>
        <time>2025-04-24T10:02:22Z</time>
      </trkpt>
      <trkpt lat="45.997159983962774" lon="4.765748977661133">
        <ele>250.56</ele>
        <time>2025-04-24T10:02:23Z</time>
      </trkpt>
      <trkpt lat="45.996844992041588" lon="4.763820972293615">
        <ele>245.75</ele>
        <time>2025-04-24T10:02:31Z</time>
      </trkpt>
      <trkpt lat="45.996594959869981" lon="4.760977998375893">
        <ele>232.30000000000001</ele>
        <time>2025-04-24T10:02:42Z</time>
      </trkpt>
      <trkpt lat="45.996364960446954" lon="4.757809974253178">
        <ele>215.47</ele>
        <time>2025-04-24T10:02:55Z</time>
      </trkpt>
      <trkpt lat="45.996366972103715" lon="4.757130034267902">
        <ele>211.63</ele>
        <time>2025-04-24T10:02:58Z</time>
      </trkpt>
      <trkpt lat="45.99637895822525" lon="4.756915038451552">
        <ele>210.19</ele>
        <time>2025-04-24T10:02:59Z</time>
      </trkpt>
      <trkpt lat="45.996580962091684" lon="4.75536597892642">
        <ele>200.09</ele>
        <time>2025-04-24T10:03:06Z</time>
      </trkpt>
      <trkpt lat="45.996580962091684" lon="4.755127010867">
        <ele>198.65000000000001</ele>
        <time>2025-04-24T10:03:07Z</time>
      </trkpt>
      <trkpt lat="45.996563024818897" lon="4.754889970645309">
        <ele>197.21000000000001</ele>
        <time>2025-04-24T10:03:08Z</time>
      </trkpt>
      <trkpt lat="45.996531005948782" lon="4.754658965393901">
        <ele>196.25</ele>
        <time>2025-04-24T10:03:09Z</time>
      </trkpt>
      <trkpt lat="45.996494963765144" lon="4.754398036748171">
        <ele>194.80000000000001</ele>
        <time>2025-04-24T10:03:10Z</time>
      </trkpt>
      <trkpt lat="45.996432015672326" lon="4.754241965711117">
        <ele>193.84</ele>
        <time>2025-04-24T10:03:11Z</time>
      </trkpt>
      <trkpt lat="45.996364038437605" lon="4.754070974886417">
        <ele>192.88</ele>
        <time>2025-04-24T10:03:12Z</time>
      </trkpt>
      <trkpt lat="45.996300000697374" lon="4.753911970183253">
        <ele>191.91999999999999</ele>
        <time>2025-04-24T10:03:13Z</time>
      </trkpt>
      <trkpt lat="45.996228000149131" lon="4.753769980743527">
        <ele>190.47999999999999</ele>
        <time>2025-04-24T10:03:14Z</time>
      </trkpt>
      <trkpt lat="45.996154993772507" lon="4.753642994910479">
        <ele>189.52000000000001</ele>
        <time>2025-04-24T10:03:15Z</time>
      </trkpt>
      <trkpt lat="45.995961036533117" lon="4.753184001892805">
        <ele>185.66999999999999</ele>
        <time>2025-04-24T10:03:19Z</time>
      </trkpt>
      <trkpt lat="45.995915019884706" lon="4.753067996352911">
        <ele>184.71000000000001</ele>
        <time>2025-04-24T10:03:20Z</time>
      </trkpt>
      <trkpt lat="45.99590596742928" lon="4.752797009423375">
        <ele>184.22999999999999</ele>
        <time>2025-04-24T10:03:22Z</time>
      </trkpt>
      <trkpt lat="45.995846958830953" lon="4.752691984176636">
        <ele>183.75</ele>
        <time>2025-04-24T10:03:23Z</time>
      </trkpt>
      <trkpt lat="45.995830027386546" lon="4.752659965306521">
        <ele>183.75</ele>
        <time>2025-04-24T10:03:24Z</time>
      </trkpt>
      <trkpt lat="45.995746962726116" lon="4.752427032217383">
        <ele>183.27000000000001</ele>
        <time>2025-04-24T10:03:25Z</time>
      </trkpt>
      <trkpt lat="45.995774958282709" lon="4.752288982272148">
        <ele>183.27000000000001</ele>
        <time>2025-04-24T10:03:26Z</time>
      </trkpt>
      <trkpt lat="45.995807982981205" lon="4.752123020589352">
        <ele>183.27000000000001</ele>
        <time>2025-04-24T10:03:27Z</time>
      </trkpt>
      <trkpt lat="45.99584000185132" lon="4.751995028927922">
        <ele>182.78999999999999</ele>
        <time>2025-04-24T10:03:28Z</time>
      </trkpt>
      <trkpt lat="45.996301006525755" lon="4.75029299966991">
        <ele>188.08000000000001</ele>
        <time>2025-04-24T10:03:38Z</time>
      </trkpt>
      <trkpt lat="45.997026963159442" lon="4.747684970498085">
        <ele>185.66999999999999</ele>
        <time>2025-04-24T10:03:51Z</time>
      </trkpt>
      <trkpt lat="45.997103992849588" lon="4.747482966631651">
        <ele>184.71000000000001</ele>
        <time>2025-04-24T10:03:52Z</time>
      </trkpt>
      <trkpt lat="45.997195020318031" lon="4.747280962765217">
        <ele>183.27000000000001</ele>
        <time>2025-04-24T10:03:53Z</time>
      </trkpt>
      <trkpt lat="45.997308008372784" lon="4.747093040496111">
        <ele>182.78999999999999</ele>
        <time>2025-04-24T10:03:54Z</time>
      </trkpt>
      <trkpt lat="45.997443040832877" lon="4.746932024136186">
        <ele>181.83000000000001</ele>
        <time>2025-04-24T10:03:55Z</time>
      </trkpt>
      <trkpt lat="45.99757899530232" lon="4.74677000194788">
        <ele>181.34999999999999</ele>
        <time>2025-04-24T10:03:56Z</time>
      </trkpt>
      <trkpt lat="45.99912797100842" lon="4.745092028751969">
        <ele>177.5</ele>
        <time>2025-04-24T10:04:08Z</time>
      </trkpt>
      <trkpt lat="45.999400969594717" lon="4.744812995195389">
        <ele>177.02000000000001</ele>
        <time>2025-04-24T10:04:10Z</time>
      </trkpt>
      <trkpt lat="45.999511023983359" lon="4.744635969400406">
        <ele>177.02000000000001</ele>
        <time>2025-04-24T10:04:11Z</time>
      </trkpt>
      <trkpt lat="45.999618982896209" lon="4.74445098079741">
        <ele>177.02000000000001</ele>
        <time>2025-04-24T10:04:12Z</time>
      </trkpt>
      <trkpt lat="45.999695006757975" lon="4.744250988587737">
        <ele>177.02000000000001</ele>
        <time>2025-04-24T10:04:13Z</time>
      </trkpt>
      <trkpt lat="45.999769018962979" lon="4.744058037176728">
        <ele>177.02000000000001</ele>
        <time>2025-04-24T10:04:14Z</time>
      </trkpt>
      <trkpt lat="45.999789973720908" lon="4.743822002783418">
        <ele>177.02000000000001</ele>
        <time>2025-04-24T10:04:15Z</time>
      </trkpt>
      <trkpt lat="45.999801959842443" lon="4.74361002445221">
        <ele>177.02000000000001</ele>
        <time>2025-04-24T10:04:16Z</time>
      </trkpt>
      <trkpt lat="45.99981402978301" lon="4.74339796230197">
        <ele>177.02000000000001</ele>
        <time>2025-04-24T10:04:17Z</time>
      </trkpt>
      <trkpt lat="45.999801037833095" lon="4.743173997849226">
        <ele>177.02000000000001</ele>
        <time>2025-04-24T10:04:18Z</time>
      </trkpt>
      <trkpt lat="45.999763989821076" lon="4.742971993982792">
        <ele>177.02000000000001</ele>
        <time>2025-04-24T10:04:19Z</time>
      </trkpt>
      <trkpt lat="45.999725013971329" lon="4.7427730076015">
        <ele>176.53999999999999</ele>
        <time>2025-04-24T10:04:20Z</time>
      </trkpt>
      <trkpt lat="45.999673968181014" lon="4.742579972371459">
        <ele>176.53999999999999</ele>
        <time>2025-04-24T10:04:21Z</time>
      </trkpt>
      <trkpt lat="45.999624012038112" lon="4.742389032617211">
        <ele>176.53999999999999</ele>
        <time>2025-04-24T10:04:22Z</time>
      </trkpt>
      <trkpt lat="45.999572966247797" lon="4.742201026529074">
        <ele>177.02000000000001</ele>
        <time>2025-04-24T10:04:23Z</time>
      </trkpt>
      <trkpt lat="45.999523010104895" lon="4.742013020440936">
        <ele>177.02000000000001</ele>
        <time>2025-04-24T10:04:24Z</time>
      </trkpt>
      <trkpt lat="45.999055970460176" lon="4.740334963425994">
        <ele>176.53999999999999</ele>
        <time>2025-04-24T10:04:34Z</time>
      </trkpt>
      <trkpt lat="45.998865030705929" lon="4.739817967638373">
        <ele>177.5</ele>
        <time>2025-04-24T10:04:38Z</time>
      </trkpt>
      <trkpt lat="45.998798981308937" lon="4.739707997068763">
        <ele>177.97999999999999</ele>
        <time>2025-04-24T10:04:39Z</time>
      </trkpt>
      <trkpt lat="45.998719017952681" lon="4.739628033712506">
        <ele>178.46000000000001</ele>
        <time>2025-04-24T10:04:40Z</time>
      </trkpt>
      <trkpt lat="45.998642994090915" lon="4.73955200985074">
        <ele>178.46000000000001</ele>
        <time>2025-04-24T10:04:41Z</time>
      </trkpt>
      <trkpt lat="45.998597983270884" lon="4.739505993202329">
        <ele>179.41999999999999</ele>
        <time>2025-04-24T10:04:42Z</time>
      </trkpt>
      <trkpt lat="45.998378964141011" lon="4.739214973524213">
        <ele>182.31</ele>
        <time>2025-04-24T10:04:47Z</time>
      </trkpt>
      <trkpt lat="45.998334037140012" lon="4.739154037088156">
        <ele>182.31</ele>
        <time>2025-04-24T10:04:48Z</time>
      </trkpt>
      <trkpt lat="45.998285003006458" lon="4.739089999347925">
        <ele>182.78999999999999</ele>
        <time>2025-04-24T10:04:49Z</time>
      </trkpt>
      <trkpt lat="45.998227000236511" lon="4.738901993259788">
        <ele>182.78999999999999</ele>
        <time>2025-04-24T10:04:50Z</time>
      </trkpt>
      <trkpt lat="45.998247032985091" lon="4.738781964406371">
        <ele>183.27000000000001</ele>
        <time>2025-04-24T10:04:51Z</time>
      </trkpt>
      <trkpt lat="45.998271005228162" lon="4.738642992451787">
        <ele>183.27000000000001</ele>
        <time>2025-04-24T10:04:52Z</time>
      </trkpt>
      <trkpt lat="45.998296989127994" lon="4.738493962213397">
        <ele>183.27000000000001</ele>
        <time>2025-04-24T10:04:53Z</time>
      </trkpt>
      <trkpt lat="45.998362032696605" lon="4.737115977331996">
        <ele>184.71000000000001</ele>
        <time>2025-04-24T10:05:01Z</time>
      </trkpt>
      <trkpt lat="45.998090961948037" lon="4.735508998855948">
        <ele>188.08000000000001</ele>
        <time>2025-04-24T10:05:11Z</time>
      </trkpt>
      <trkpt lat="45.997935980558395" lon="4.734530998393893">
        <ele>187.11000000000001</ele>
        <time>2025-04-24T10:05:19Z</time>
      </trkpt>
      <trkpt lat="45.997913014143705" lon="4.734326982870698">
        <ele>186.63</ele>
        <time>2025-04-24T10:05:21Z</time>
      </trkpt>
      <trkpt lat="45.997970011085272" lon="4.734231010079384">
        <ele>186.63</ele>
        <time>2025-04-24T10:05:22Z</time>
      </trkpt>
      <trkpt lat="45.998018039390445" lon="4.734102012589574">
        <ele>186.63</ele>
        <time>2025-04-24T10:05:23Z</time>
      </trkpt>
      <trkpt lat="45.998018039390445" lon="4.734012996777892">
        <ele>186.63</ele>
        <time>2025-04-24T10:05:24Z</time>
      </trkpt>
      <trkpt lat="45.997911002486944" lon="4.733905959874392">
        <ele>186.63</ele>
        <time>2025-04-24T10:05:25Z</time>
      </trkpt>
      <trkpt lat="45.997873032465577" lon="4.733811998739839">
        <ele>186.63</ele>
        <time>2025-04-24T10:05:26Z</time>
      </trkpt>
      <trkpt lat="45.997825004160404" lon="4.733690964058042">
        <ele>186.63</ele>
        <time>2025-04-24T10:05:27Z</time>
      </trkpt>
      <trkpt lat="45.997799020260572" lon="4.733564984053373">
        <ele>186.63</ele>
        <time>2025-04-24T10:05:28Z</time>
      </trkpt>
      <trkpt lat="45.997768007218838" lon="4.733418971300125">
        <ele>186.63</ele>
        <time>2025-04-24T10:05:29Z</time>
      </trkpt>
      <trkpt lat="45.99742703139782" lon="4.731670003384352">
        <ele>187.11000000000001</ele>
        <time>2025-04-24T10:05:39Z</time>
      </trkpt>
      <trkpt lat="45.997156966477633" lon="4.730197973549366">
        <ele>188.08000000000001</ele>
        <time>2025-04-24T10:05:47Z</time>
      </trkpt>
      <trkpt lat="45.997139029204845" lon="4.730085991322994">
        <ele>188.56</ele>
        <time>2025-04-24T10:05:48Z</time>
      </trkpt>
      <trkpt lat="45.997139029204845" lon="4.729982977733016">
        <ele>188.56</ele>
        <time>2025-04-24T10:05:49Z</time>
      </trkpt>
      <trkpt lat="45.997139029204845" lon="4.729873007163405">
        <ele>188.56</ele>
        <time>2025-04-24T10:05:50Z</time>
      </trkpt>
      <trkpt lat="45.997141040861607" lon="4.729758007451892">
        <ele>188.56</ele>
        <time>2025-04-24T10:05:51Z</time>
      </trkpt>
      <trkpt lat="45.99719300866127" lon="4.72964602522552">
        <ele>189.03999999999999</ele>
        <time>2025-04-24T10:05:52Z</time>
      </trkpt>
      <trkpt lat="45.997242964804173" lon="4.729494983330369">
        <ele>189.03999999999999</ele>
        <time>2025-04-24T10:05:53Z</time>
      </trkpt>
      <trkpt lat="45.997231984511018" lon="4.729349976405501">
        <ele>189.03999999999999</ele>
        <time>2025-04-24T10:05:54Z</time>
      </trkpt>
      <trkpt lat="45.997208012267947" lon="4.729213016107678">
        <ele>189.52000000000001</ele>
        <time>2025-04-24T10:05:55Z</time>
      </trkpt>
      <trkpt lat="45.997159983962774" lon="4.729104973375797">
        <ele>189.52000000000001</ele>
        <time>2025-04-24T10:05:56Z</time>
      </trkpt>
      <trkpt lat="45.997091000899673" lon="4.729032972827554">
        <ele>190</ele>
        <time>2025-04-24T10:05:57Z</time>
      </trkpt>
      <trkpt lat="45.997011037543416" lon="4.728992991149426">
        <ele>190</ele>
        <time>2025-04-24T10:05:58Z</time>
      </trkpt>
      <trkpt lat="45.996967032551765" lon="4.728971030563116">
        <ele>190</ele>
        <time>2025-04-24T10:05:59Z</time>
      </trkpt>
      <trkpt lat="45.996880028396845" lon="4.728819988667965">
        <ele>190</ele>
        <time>2025-04-24T10:06:00Z</time>
      </trkpt>
      <trkpt lat="45.996823031455278" lon="4.72872301004827">
        <ele>190.47999999999999</ele>
        <time>2025-04-24T10:06:01Z</time>
      </trkpt>
      <trkpt lat="45.996771985664964" lon="4.728635000064969">
        <ele>190.47999999999999</ele>
        <time>2025-04-24T10:06:02Z</time>
      </trkpt>
      <trkpt lat="45.996728986501694" lon="4.72855101339519">
        <ele>190.47999999999999</ele>
        <time>2025-04-24T10:06:03Z</time>
      </trkpt>
      <trkpt lat="45.996706020087004" lon="4.728432996198535">
        <ele>190.96000000000001</ele>
        <time>2025-04-24T10:06:04Z</time>
      </trkpt>
      <trkpt lat="45.996457999572158" lon="4.72717696800828">
        <ele>191.91999999999999</ele>
        <time>2025-04-24T10:06:13Z</time>
      </trkpt>
      <trkpt lat="45.99620302207768" lon="4.725954970344901">
        <ele>191.91999999999999</ele>
        <time>2025-04-24T10:06:22Z</time>
      </trkpt>
      <trkpt lat="45.996174020692706" lon="4.725806023925543">
        <ele>191.91999999999999</ele>
        <time>2025-04-24T10:06:24Z</time>
      </trkpt>
      <trkpt lat="45.996177038177848" lon="4.725645007565618">
        <ele>191.91999999999999</ele>
        <time>2025-04-24T10:06:25Z</time>
      </trkpt>
      <trkpt lat="45.996216014027596" lon="4.725579963997006">
        <ele>191.91999999999999</ele>
        <time>2025-04-24T10:06:26Z</time>
      </trkpt>
      <trkpt lat="45.996208973228931" lon="4.725547023117542">
        <ele>191.91999999999999</ele>
        <time>2025-04-24T10:06:27Z</time>
      </trkpt>
      <trkpt lat="45.996193969622254" lon="4.725473010912538">
        <ele>191.91999999999999</ele>
        <time>2025-04-24T10:06:28Z</time>
      </trkpt>
      <trkpt lat="45.996120041236281" lon="4.725382989272475">
        <ele>191.91999999999999</ele>
        <time>2025-04-24T10:06:29Z</time>
      </trkpt>
      <trkpt lat="45.99609699100256" lon="4.725278969854116">
        <ele>191.91999999999999</ele>
        <time>2025-04-24T10:06:30Z</time>
      </trkpt>
      <trkpt lat="45.996072012931108" lon="4.725165981799364">
        <ele>191.91999999999999</ele>
        <time>2025-04-24T10:06:31Z</time>
      </trkpt>
      <trkpt lat="45.995737994089723" lon="4.723757989704609">
        <ele>194.80000000000001</ele>
        <time>2025-04-24T10:06:40Z</time>
      </trkpt>
      <trkpt lat="45.995341027155519" lon="4.7223009634763">
        <ele>199.13</ele>
        <time>2025-04-24T10:06:49Z</time>
      </trkpt>
      <trkpt lat="45.99530003964901" lon="4.721888992935419">
        <ele>197.69</ele>
        <time>2025-04-24T10:06:52Z</time>
      </trkpt>
      <trkpt lat="45.995300961658359" lon="4.721635021269321">
        <ele>197.21000000000001</ele>
        <time>2025-04-24T10:06:54Z</time>
      </trkpt>
      <trkpt lat="45.995328035205603" lon="4.720976036041975">
        <ele>194.31999999999999</ele>
        <time>2025-04-24T10:07:03Z</time>
      </trkpt>
      <trkpt lat="45.995334992185235" lon="4.720851983875036">
        <ele>194.31999999999999</ele>
        <time>2025-04-24T10:07:05Z</time>
      </trkpt>
      <trkpt lat="45.995335998013616" lon="4.72083798609674">
        <ele>193.84</ele>
        <time>2025-04-24T10:07:06Z</time>
      </trkpt>
      <trkpt lat="45.995400035753846" lon="4.720749976113439">
        <ele>193.84</ele>
        <time>2025-04-24T10:07:07Z</time>
      </trkpt>
      <trkpt lat="45.995400035753846" lon="4.72070898860693">
        <ele>193.84</ele>
        <time>2025-04-24T10:07:08Z</time>
      </trkpt>
      <trkpt lat="45.995357958599925" lon="4.720645034685731">
        <ele>193.84</ele>
        <time>2025-04-24T10:07:09Z</time>
      </trkpt>
      <trkpt lat="45.995357958599925" lon="4.720645034685731">
        <ele>193.84</ele>
        <time>2025-04-24T10:07:10Z</time>
      </trkpt>
      <trkpt lat="45.995357958599925" lon="4.72057999111712">
        <ele>193.36000000000001</ele>
        <time>2025-04-24T10:07:11Z</time>
      </trkpt>
      <trkpt lat="45.995357958599925" lon="4.720518970862031">
        <ele>192.88</ele>
        <time>2025-04-24T10:07:12Z</time>
      </trkpt>
      <trkpt lat="45.995357958599925" lon="4.72045099362731">
        <ele>192.88</ele>
        <time>2025-04-24T10:07:13Z</time>
      </trkpt>
      <trkpt lat="45.995378997176886" lon="4.720159973949194">
        <ele>191.91999999999999</ele>
        <time>2025-04-24T10:07:17Z</time>
      </trkpt>
      <trkpt lat="45.995378997176886" lon="4.720073975622654">
        <ele>191.91999999999999</ele>
        <time>2025-04-24T10:07:18Z</time>
      </trkpt>
      <trkpt lat="45.995378997176886" lon="4.71995797008276">
        <ele>191.91999999999999</ele>
        <time>2025-04-24T10:07:19Z</time>
      </trkpt>
      <trkpt lat="45.995400035753846" lon="4.719208041206002">
        <ele>192.88</ele>
        <time>2025-04-24T10:07:25Z</time>
      </trkpt>
      <trkpt lat="45.995400035753846" lon="4.719094969332218">
        <ele>193.36000000000001</ele>
        <time>2025-04-24T10:07:26Z</time>
      </trkpt>
      <trkpt lat="45.995400035753846" lon="4.718993967399001">
        <ele>193.84</ele>
        <time>2025-04-24T10:07:27Z</time>
      </trkpt>
      <trkpt lat="45.995377991348505" lon="4.718588031828404">
        <ele>196.25</ele>
        <time>2025-04-24T10:07:31Z</time>
      </trkpt>
      <trkpt lat="45.995368016883731" lon="4.718484012410045">
        <ele>196.25</ele>
        <time>2025-04-24T10:07:32Z</time>
      </trkpt>
      <trkpt lat="45.995357958599925" lon="4.718374041840434">
        <ele>196.72999999999999</ele>
        <time>2025-04-24T10:07:33Z</time>
      </trkpt>
      <trkpt lat="45.995352007448673" lon="4.718271028250456">
        <ele>196.72999999999999</ele>
        <time>2025-04-24T10:07:34Z</time>
      </trkpt>
      <trkpt lat="45.99534697830677" lon="4.718186035752296">
        <ele>196.72999999999999</ele>
        <time>2025-04-24T10:07:35Z</time>
      </trkpt>
      <trkpt lat="45.995342032983899" lon="4.718114035204053">
        <ele>196.72999999999999</ele>
        <time>2025-04-24T10:07:36Z</time>
      </trkpt>
      <trkpt lat="45.995339015498757" lon="4.718047985807061">
        <ele>197.21000000000001</ele>
        <time>2025-04-24T10:07:37Z</time>
      </trkpt>
      <trkpt lat="45.995334992185235" lon="4.717981014400721">
        <ele>197.21000000000001</ele>
        <time>2025-04-24T10:07:38Z</time>
      </trkpt>
      <trkpt lat="45.995329963043332" lon="4.717907002195716">
        <ele>197.69</ele>
        <time>2025-04-24T10:07:39Z</time>
      </trkpt>
      <trkpt lat="45.995320994406939" lon="4.717773981392384">
        <ele>197.69</ele>
        <time>2025-04-24T10:07:41Z</time>
      </trkpt>
      <trkpt lat="45.995271960273385" lon="4.71695096231997">
        <ele>199.13</ele>
        <time>2025-04-24T10:07:52Z</time>
      </trkpt>
      <trkpt lat="45.995271960273385" lon="4.716843003407121">
        <ele>199.13</ele>
        <time>2025-04-24T10:07:53Z</time>
      </trkpt>
      <trkpt lat="45.995304984971881" lon="4.716383004561067">
        <ele>198.16999999999999</ele>
        <time>2025-04-24T10:07:58Z</time>
      </trkpt>
      <trkpt lat="45.9953230060637" lon="4.716315027326345">
        <ele>197.69</ele>
        <time>2025-04-24T10:07:59Z</time>
      </trkpt>
      <trkpt lat="45.995342032983899" lon="4.716251995414496">
        <ele>197.69</ele>
        <time>2025-04-24T10:08:00Z</time>
      </trkpt>
      <trkpt lat="45.995368016883731" lon="4.716190975159407">
        <ele>197.21000000000001</ele>
        <time>2025-04-24T10:08:01Z</time>
      </trkpt>
      <trkpt lat="45.995394000783563" lon="4.716127021238208">
        <ele>197.21000000000001</ele>
        <time>2025-04-24T10:08:02Z</time>
      </trkpt>
      <trkpt lat="45.995467007160187" lon="4.715949995443225">
        <ele>196.72999999999999</ele>
        <time>2025-04-24T10:08:05Z</time>
      </trkpt>
      <trkpt lat="45.99560396745801" lon="4.715696023777127">
        <ele>196.25</ele>
        <time>2025-04-24T10:08:09Z</time>
      </trkpt>
      <trkpt lat="45.995642021298409" lon="4.715630980208516">
        <ele>195.77000000000001</ele>
        <time>2025-04-24T10:08:10Z</time>
      </trkpt>
      <trkpt lat="45.995678985491395" lon="4.715569037944078">
        <ele>195.77000000000001</ele>
        <time>2025-04-24T10:08:11Z</time>
      </trkpt>
      <trkpt lat="45.995788034051657" lon="4.715394023805857">
        <ele>195.77000000000001</ele>
        <time>2025-04-24T10:08:14Z</time>
      </trkpt>
      <trkpt lat="45.99581602960825" lon="4.715350018814206">
        <ele>195.77000000000001</ele>
        <time>2025-04-24T10:08:15Z</time>
      </trkpt>
      <trkpt lat="45.99588300101459" lon="4.715267959982157">
        <ele>195.77000000000001</ele>
        <time>2025-04-24T10:08:16Z</time>
      </trkpt>
      <trkpt lat="45.99592600017786" lon="4.715304002165794">
        <ele>195.28</ele>
        <time>2025-04-24T10:08:17Z</time>
      </trkpt>
      <trkpt lat="45.996001018211246" lon="4.715366028249264">
        <ele>195.77000000000001</ele>
        <time>2025-04-24T10:08:18Z</time>
      </trkpt>
      <trkpt lat="45.996033037081361" lon="4.7153399605304">
        <ele>195.77000000000001</ele>
        <time>2025-04-24T10:08:19Z</time>
      </trkpt>
      <trkpt lat="45.99607695825398" lon="4.715302996337414">
        <ele>195.77000000000001</ele>
        <time>2025-04-24T10:08:20Z</time>
      </trkpt>
      <trkpt lat="45.996134961023927" lon="4.715233007445931">
        <ele>195.77000000000001</ele>
        <time>2025-04-24T10:08:21Z</time>
      </trkpt>
      <trkpt lat="45.996145019307733" lon="4.715119013562799">
        <ele>195.77000000000001</ele>
        <time>2025-04-24T10:08:22Z</time>
      </trkpt>
      <trkpt lat="45.996130015701056" lon="4.715045001357794">
        <ele>195.28</ele>
        <time>2025-04-24T10:08:23Z</time>
      </trkpt>
      <trkpt lat="45.996130015701056" lon="4.715045001357794">
        <ele>195.28</ele>
        <time>2025-04-24T10:08:24Z</time>
      </trkpt>
      <trkpt lat="45.996085004881024" lon="4.714849032461643">
        <ele>194.80000000000001</ele>
        <time>2025-04-24T10:08:25Z</time>
      </trkpt>
      <trkpt lat="45.996120041236281" lon="4.714751970022917">
        <ele>194.80000000000001</ele>
        <time>2025-04-24T10:08:26Z</time>
      </trkpt>
      <trkpt lat="45.996162034571171" lon="4.714638981968164">
        <ele>195.28</ele>
        <time>2025-04-24T10:08:27Z</time>
      </trkpt>
      <trkpt lat="45.996211990714073" lon="4.714518031105399">
        <ele>195.77000000000001</ele>
        <time>2025-04-24T10:08:28Z</time>
      </trkpt>
      <trkpt lat="45.996267981827259" lon="4.714410994201899">
        <ele>196.25</ele>
        <time>2025-04-24T10:08:29Z</time>
      </trkpt>
      <trkpt lat="45.996322967112064" lon="4.71430697478354">
        <ele>196.72999999999999</ele>
        <time>2025-04-24T10:08:30Z</time>
      </trkpt>
      <trkpt lat="45.996434027329087" lon="4.714096002280712">
        <ele>197.21000000000001</ele>
        <time>2025-04-24T10:08:32Z</time>
      </trkpt>
      <trkpt lat="45.996487000957131" lon="4.713996006175876">
        <ele>197.21000000000001</ele>
        <time>2025-04-24T10:08:33Z</time>
      </trkpt>
      <trkpt lat="45.996700990945101" lon="4.713589986786246">
        <ele>197.21000000000001</ele>
        <time>2025-04-24T10:08:37Z</time>
      </trkpt>
      <trkpt lat="45.996754970401525" lon="4.713487979024649">
        <ele>197.69</ele>
        <time>2025-04-24T10:08:38Z</time>
      </trkpt>
      <trkpt lat="45.997083960101008" lon="4.712863024324179">
        <ele>200.09</ele>
        <time>2025-04-24T10:08:46Z</time>
      </trkpt>
      <trkpt lat="45.997483022511005" lon="4.712104965001345">
        <ele>200.09</ele>
        <time>2025-04-24T10:08:55Z</time>
      </trkpt>
      <trkpt lat="45.997769013047218" lon="4.711548993363977">
        <ele>198.65000000000001</ele>
        <time>2025-04-24T10:09:00Z</time>
      </trkpt>
      <trkpt lat="45.997818969190121" lon="4.711429970338941">
        <ele>198.65000000000001</ele>
        <time>2025-04-24T10:09:01Z</time>
      </trkpt>
      <trkpt lat="45.997871020808816" lon="4.711308013647795">
        <ele>199.13</ele>
        <time>2025-04-24T10:09:02Z</time>
      </trkpt>
      <trkpt lat="45.997932041063905" lon="4.711160995066166">
        <ele>199.13</ele>
        <time>2025-04-24T10:09:03Z</time>
      </trkpt>
      <trkpt lat="45.997954001650214" lon="4.711044989526272">
        <ele>199.61000000000001</ele>
        <time>2025-04-24T10:09:04Z</time>
      </trkpt>
      <trkpt lat="45.997979985550046" lon="4.71091297455132">
        <ele>199.61000000000001</ele>
        <time>2025-04-24T10:09:05Z</time>
      </trkpt>
      <trkpt lat="45.998238986358047" lon="4.709501964971423">
        <ele>200.56999999999999</ele>
        <time>2025-04-24T10:09:15Z</time>
      </trkpt>
      <trkpt lat="45.998431015759706" lon="4.708446012809873">
        <ele>200.09</ele>
        <time>2025-04-24T10:09:22Z</time>
      </trkpt>
      <trkpt lat="45.998478960245848" lon="4.708148036152124">
        <ele>199.61000000000001</ele>
        <time>2025-04-24T10:09:25Z</time>
      </trkpt>
      <trkpt lat="45.998639976605773" lon="4.707310013473034">
        <ele>198.65000000000001</ele>
        <time>2025-04-24T10:09:35Z</time>
      </trkpt>
      <trkpt lat="45.998651040717959" lon="4.707240024581552">
        <ele>198.65000000000001</ele>
        <time>2025-04-24T10:09:36Z</time>
      </trkpt>
      <trkpt lat="45.998657997697592" lon="4.70719501376152">
        <ele>198.65000000000001</ele>
        <time>2025-04-24T10:09:37Z</time>
      </trkpt>
      <trkpt lat="45.998664032667875" lon="4.707157965749502">
        <ele>198.65000000000001</ele>
        <time>2025-04-24T10:09:38Z</time>
      </trkpt>
      <trkpt lat="45.998668977990746" lon="4.707123013213277">
        <ele>199.13</ele>
        <time>2025-04-24T10:09:39Z</time>
      </trkpt>
      <trkpt lat="45.998668977990746" lon="4.707123013213277">
        <ele>199.13</ele>
        <time>2025-04-24T10:09:40Z</time>
      </trkpt>
      <trkpt lat="45.998668977990746" lon="4.707123013213277">
        <ele>199.13</ele>
        <time>2025-04-24T10:10:00Z</time>
      </trkpt>
      <trkpt lat="45.998726980760694" lon="4.706748006865382">
        <ele>201.53</ele>
        <time>2025-04-24T10:10:29Z</time>
      </trkpt>
      <trkpt lat="45.998748019337654" lon="4.706611968576908">
        <ele>201.53</ele>
        <time>2025-04-24T10:10:31Z</time>
      </trkpt>
      <trkpt lat="45.998838040977716" lon="4.706441983580589">
        <ele>201.53</ele>
        <time>2025-04-24T10:10:32Z</time>
      </trkpt>
      <trkpt lat="45.998893026262522" lon="4.706428991630673">
        <ele>201.53</ele>
        <time>2025-04-24T10:10:33Z</time>
      </trkpt>
      <trkpt lat="45.998959997668862" lon="4.706412982195616">
        <ele>201.53</ele>
        <time>2025-04-24T10:10:34Z</time>
      </trkpt>
      <trkpt lat="45.999034009873867" lon="4.706392027437687">
        <ele>202.00999999999999</ele>
        <time>2025-04-24T10:10:35Z</time>
      </trkpt>
      <trkpt lat="45.999696012586355" lon="4.706247020512819">
        <ele>202.49000000000001</ele>
        <time>2025-04-24T10:10:41Z</time>
      </trkpt>
      <trkpt lat="46.00052498281002" lon="4.706039987504482">
        <ele>203.46000000000001</ele>
        <time>2025-04-24T10:10:50Z</time>
      </trkpt>
      <trkpt lat="46.000789012759924" lon="4.705953989177942">
        <ele>202.97999999999999</ele>
        <time>2025-04-24T10:10:53Z</time>
      </trkpt>
      <trkpt lat="46.000871993601322" lon="4.705920964479446">
        <ele>202.97999999999999</ele>
        <time>2025-04-24T10:10:54Z</time>
      </trkpt>
      <trkpt lat="46.001270972192287" lon="4.70562600530684">
        <ele>201.53</ele>
        <time>2025-04-24T10:11:00Z</time>
      </trkpt>
      <trkpt lat="46.00138102658093" lon="4.705574037507176">
        <ele>201.05000000000001</ele>
        <time>2025-04-24T10:11:02Z</time>
      </trkpt>
      <trkpt lat="46.001546988263726" lon="4.705599015578628">
        <ele>201.05000000000001</ele>
        <time>2025-04-24T10:11:04Z</time>
      </trkpt>
      <trkpt lat="46.001604991033673" lon="4.705549981445074">
        <ele>200.56999999999999</ele>
        <time>2025-04-24T10:11:05Z</time>
      </trkpt>
      <trkpt lat="46.001669028773904" lon="4.705432970076799">
        <ele>200.56999999999999</ele>
        <time>2025-04-24T10:11:06Z</time>
      </trkpt>
      <trkpt lat="46.001668022945523" lon="4.705278994515538">
        <ele>200.56999999999999</ele>
        <time>2025-04-24T10:11:07Z</time>
      </trkpt>
      <trkpt lat="46.001647990196943" lon="4.705189978703857">
        <ele>200.09</ele>
        <time>2025-04-24T10:11:08Z</time>
      </trkpt>
      <trkpt lat="46.001566015183926" lon="4.705111021175981">
        <ele>200.09</ele>
        <time>2025-04-24T10:11:09Z</time>
      </trkpt>
      <trkpt lat="46.001482028514147" lon="4.705103980377317">
        <ele>199.61000000000001</ele>
        <time>2025-04-24T10:11:10Z</time>
      </trkpt>
      <trkpt lat="46.001412039622664" lon="4.705124013125897">
        <ele>199.61000000000001</ele>
        <time>2025-04-24T10:11:11Z</time>
      </trkpt>
      <trkpt lat="46.001386977732182" lon="4.705130970105529">
        <ele>199.61000000000001</ele>
        <time>2025-04-24T10:11:12Z</time>
      </trkpt>
      <trkpt lat="46.001244988292456" lon="4.705211017280817">
        <ele>199.61000000000001</ele>
        <time>2025-04-24T10:11:13Z</time>
      </trkpt>
      <trkpt lat="46.001150021329522" lon="4.705200036987662">
        <ele>199.61000000000001</ele>
        <time>2025-04-24T10:11:14Z</time>
      </trkpt>
      <trkpt lat="46.001049019396305" lon="4.70517598092556">
        <ele>199.61000000000001</ele>
        <time>2025-04-24T10:11:15Z</time>
      </trkpt>
      <trkpt lat="46.00095103494823" lon="4.705124013125897">
        <ele>199.61000000000001</ele>
        <time>2025-04-24T10:11:16Z</time>
      </trkpt>
      <trkpt lat="46.000874005258083" lon="4.70504698343575">
        <ele>199.13</ele>
        <time>2025-04-24T10:11:17Z</time>
      </trkpt>
      <trkpt lat="46.000805022194982" lon="4.704946987330914">
        <ele>198.65000000000001</ele>
        <time>2025-04-24T10:11:18Z</time>
      </trkpt>
      <trkpt lat="46.000742996111512" lon="4.70480902120471">
        <ele>198.65000000000001</ele>
        <time>2025-04-24T10:11:19Z</time>
      </trkpt>
      <trkpt lat="46.000719023868442" lon="4.704701984301209">
        <ele>198.65000000000001</ele>
        <time>2025-04-24T10:11:20Z</time>
      </trkpt>
      <trkpt lat="46.000701002776623" lon="4.704579021781683">
        <ele>198.65000000000001</ele>
        <time>2025-04-24T10:11:21Z</time>
      </trkpt>
      <trkpt lat="46.000593965873122" lon="4.703851975500584">
        <ele>197.21000000000001</ele>
        <time>2025-04-24T10:11:28Z</time>
      </trkpt>
      <trkpt lat="46.000374024733901" lon="4.702474996447563">
        <ele>196.72999999999999</ele>
        <time>2025-04-24T10:11:37Z</time>
      </trkpt>
      <trkpt lat="46.000247960910201" lon="4.700800040736795">
        <ele>197.21000000000001</ele>
        <time>2025-04-24T10:11:45Z</time>
      </trkpt>
      <trkpt lat="46.000087028369308" lon="4.699087031185627">
        <ele>200.09</ele>
        <time>2025-04-24T10:11:54Z</time>
      </trkpt>
      <trkpt lat="45.999971022829413" lon="4.69748399220407">
        <ele>202.49000000000001</ele>
        <time>2025-04-24T10:12:05Z</time>
      </trkpt>
      <trkpt lat="46.000015027821064" lon="4.696749988943338">
        <ele>204.41999999999999</ele>
        <time>2025-04-24T10:12:11Z</time>
      </trkpt>
      <trkpt lat="46.000046962872148" lon="4.696467015892267">
        <ele>205.38</ele>
        <time>2025-04-24T10:12:13Z</time>
      </trkpt>
      <trkpt lat="46.000413000583649" lon="4.695091964676976">
        <ele>206.81999999999999</ele>
        <time>2025-04-24T10:12:21Z</time>
      </trkpt>
      <trkpt lat="46.000462034717202" lon="4.694903958588839">
        <ele>206.81999999999999</ele>
        <time>2025-04-24T10:12:22Z</time>
      </trkpt>
      <trkpt lat="46.000445019453764" lon="4.694703966379166">
        <ele>206.81999999999999</ele>
        <time>2025-04-24T10:12:23Z</time>
      </trkpt>
      <trkpt lat="46.000429010018706" lon="4.694499028846622">
        <ele>207.30000000000001</ele>
        <time>2025-04-24T10:12:24Z</time>
      </trkpt>
      <trkpt lat="46.000410988926888" lon="4.694284033030272">
        <ele>207.78</ele>
        <time>2025-04-24T10:12:25Z</time>
      </trkpt>
      <trkpt lat="46.000391962006688" lon="4.694055961444974">
        <ele>207.78</ele>
        <time>2025-04-24T10:12:26Z</time>
      </trkpt>
      <trkpt lat="46.000383999198675" lon="4.693816993385553">
        <ele>208.25999999999999</ele>
        <time>2025-04-24T10:12:27Z</time>
      </trkpt>
      <trkpt lat="46.000403026118875" lon="4.693570984527469">
        <ele>208.25999999999999</ele>
        <time>2025-04-24T10:12:28Z</time>
      </trkpt>
      <trkpt lat="46.000421969220042" lon="4.693320030346513">
        <ele>208.74000000000001</ele>
        <time>2025-04-24T10:12:29Z</time>
      </trkpt>
      <trkpt lat="46.000334965065122" lon="4.691160013899207">
        <ele>210.66999999999999</ele>
        <time>2025-04-24T10:12:38Z</time>
      </trkpt>
      <trkpt lat="46.000314010307193" lon="4.689980009570718">
        <ele>211.63</ele>
        <time>2025-04-24T10:12:43Z</time>
      </trkpt>
      <trkpt lat="46.00043898448348" lon="4.688756000250578">
        <ele>212.59</ele>
        <time>2025-04-24T10:12:48Z</time>
      </trkpt>
      <trkpt lat="46.000750036910176" lon="4.687112979590893">
        <ele>213.06999999999999</ele>
        <time>2025-04-24T10:12:55Z</time>
      </trkpt>
      <trkpt lat="46.000832011923194" lon="4.68691298738122">
        <ele>213.06999999999999</ele>
        <time>2025-04-24T10:12:56Z</time>
      </trkpt>
      <trkpt lat="46.000913986936212" lon="4.68671802431345">
        <ele>213.06999999999999</ele>
        <time>2025-04-24T10:12:57Z</time>
      </trkpt>
      <trkpt lat="46.001000991091132" lon="4.686528006568551">
        <ele>213.06999999999999</ele>
        <time>2025-04-24T10:12:58Z</time>
      </trkpt>
      <trkpt lat="46.001084977760911" lon="4.686342012137175">
        <ele>214.03</ele>
        <time>2025-04-24T10:12:59Z</time>
      </trkpt>
      <trkpt lat="46.001152032986283" lon="4.686151994392276">
        <ele>214.99000000000001</ele>
        <time>2025-04-24T10:13:00Z</time>
      </trkpt>
      <trkpt lat="46.001803977414966" lon="4.684217032045126">
        <ele>221.24000000000001</ele>
        <time>2025-04-24T10:13:10Z</time>
      </trkpt>
      <trkpt lat="46.001900034025311" lon="4.683974040672183">
        <ele>221.24000000000001</ele>
        <time>2025-04-24T10:13:12Z</time>
      </trkpt>
      <trkpt lat="46.001934986561537" lon="4.683886030688882">
        <ele>221.24000000000001</ele>
        <time>2025-04-24T10:13:13Z</time>
      </trkpt>
      <trkpt lat="46.001965999603271" lon="4.683805983513594">
        <ele>221.24000000000001</ele>
        <time>2025-04-24T10:13:14Z</time>
      </trkpt>
      <trkpt lat="46.001996006816626" lon="4.683729037642479">
        <ele>221.24000000000001</ele>
        <time>2025-04-24T10:13:15Z</time>
      </trkpt>
      <trkpt lat="46.002018973231316" lon="4.683498032391071">
        <ele>221.72</ele>
        <time>2025-04-24T10:13:16Z</time>
      </trkpt>
      <trkpt lat="46.001975974068046" lon="4.683381021022797">
        <ele>221.72</ele>
        <time>2025-04-24T10:13:17Z</time>
      </trkpt>
      <trkpt lat="46.001921994611621" lon="4.683235008269548">
        <ele>221.24000000000001</ele>
        <time>2025-04-24T10:13:18Z</time>
      </trkpt>
      <trkpt lat="46.001868015155196" lon="4.68306896276772">
        <ele>221.24000000000001</ele>
        <time>2025-04-24T10:13:19Z</time>
      </trkpt>
      <trkpt lat="46.001438023522496" lon="4.681545970961452">
        <ele>219.31999999999999</ele>
        <time>2025-04-24T10:13:26Z</time>
      </trkpt>
      <trkpt lat="46.001194026321173" lon="4.679516963660717">
        <ele>217.88</ele>
        <time>2025-04-24T10:13:35Z</time>
      </trkpt>
      <trkpt lat="46.00127600133419" lon="4.677905039861798">
        <ele>219.31999999999999</ele>
        <time>2025-04-24T10:13:42Z</time>
      </trkpt>
      <trkpt lat="46.001159995794296" lon="4.67674900777638">
        <ele>220.28</ele>
        <time>2025-04-24T10:13:47Z</time>
      </trkpt>
      <trkpt lat="46.00116603076458" lon="4.676490006968379">
        <ele>220.28</ele>
        <time>2025-04-24T10:13:48Z</time>
      </trkpt>
      <trkpt lat="46.001187991350889" lon="4.676241986453533">
        <ele>220.28</ele>
        <time>2025-04-24T10:13:49Z</time>
      </trkpt>
      <trkpt lat="46.00133903324604" lon="4.674577005207539">
        <ele>222.68000000000001</ele>
        <time>2025-04-24T10:13:56Z</time>
      </trkpt>
      <trkpt lat="46.001366022974253" lon="4.674336025491357">
        <ele>223.16</ele>
        <time>2025-04-24T10:13:57Z</time>
      </trkpt>
      <trkpt lat="46.001746980473399" lon="4.672579010948539">
        <ele>227.00999999999999</ele>
        <time>2025-04-24T10:14:05Z</time>
      </trkpt>
      <trkpt lat="46.001824010163546" lon="4.671192979440093">
        <ele>230.84999999999999</ele>
        <time>2025-04-24T10:14:12Z</time>
      </trkpt>
      <trkpt lat="46.001759972423315" lon="4.669291963800788">
        <ele>232.78</ele>
        <time>2025-04-24T10:14:21Z</time>
      </trkpt>
      <trkpt lat="46.001746980473399" lon="4.668914023786783">
        <ele>233.74000000000001</ele>
        <time>2025-04-24T10:14:23Z</time>
      </trkpt>
      <trkpt lat="46.001741029322147" lon="4.668738003820181">
        <ele>233.74000000000001</ele>
        <time>2025-04-24T10:14:24Z</time>
      </trkpt>
      <trkpt lat="46.001688977703452" lon="4.667196990922093">
        <ele>236.62</ele>
        <time>2025-04-24T10:14:33Z</time>
      </trkpt>
      <trkpt lat="46.001652013510466" lon="4.666176997125149">
        <ele>237.09999999999999</ele>
        <time>2025-04-24T10:14:41Z</time>
      </trkpt>
      <trkpt lat="46.001650001853704" lon="4.666127040982246">
        <ele>237.09999999999999</ele>
        <time>2025-04-24T10:14:42Z</time>
      </trkpt>
      <trkpt lat="46.001586969941854" lon="4.666027966886759">
        <ele>237.09999999999999</ele>
        <time>2025-04-24T10:14:43Z</time>
      </trkpt>
      <trkpt lat="46.001528967171907" lon="4.666042970493436">
        <ele>237.09999999999999</ele>
        <time>2025-04-24T10:14:44Z</time>
      </trkpt>
      <trkpt lat="46.001455960795283" lon="4.666060991585255">
        <ele>236.62</ele>
        <time>2025-04-24T10:14:45Z</time>
      </trkpt>
      <trkpt lat="46.001280024647713" lon="4.666069960221648">
        <ele>236.62</ele>
        <time>2025-04-24T10:14:47Z</time>
      </trkpt>
      <trkpt lat="46.001170976087451" lon="4.666060991585255">
        <ele>236.62</ele>
        <time>2025-04-24T10:14:48Z</time>
      </trkpt>
      <trkpt lat="46.001055976375937" lon="4.666051017120481">
        <ele>236.62</ele>
        <time>2025-04-24T10:14:49Z</time>
      </trkpt>
      <trkpt lat="46.000937959179282" lon="4.666041964665055">
        <ele>236.62</ele>
        <time>2025-04-24T10:14:50Z</time>
      </trkpt>
      <trkpt lat="46.000820025801659" lon="4.666031990200281">
        <ele>236.13999999999999</ele>
        <time>2025-04-24T10:14:51Z</time>
      </trkpt>
      <trkpt lat="46.000701002776623" lon="4.666023021563888">
        <ele>236.13999999999999</ele>
        <time>2025-04-24T10:14:52Z</time>
      </trkpt>
      <trkpt lat="46.000305041670799" lon="4.665879020467401">
        <ele>236.13999999999999</ele>
        <time>2025-04-24T10:14:56Z</time>
      </trkpt>
      <trkpt lat="46.000220971181989" lon="4.665779024362564">
        <ele>236.13999999999999</ele>
        <time>2025-04-24T10:14:58Z</time>
      </trkpt>
      <trkpt lat="46.00020102225244" lon="4.665720015764237">
        <ele>236.13999999999999</ele>
        <time>2025-04-24T10:14:59Z</time>
      </trkpt>
      <trkpt lat="46.000185012817383" lon="4.665625970810652">
        <ele>235.66</ele>
        <time>2025-04-24T10:15:00Z</time>
      </trkpt>
      <trkpt lat="46.000165985897183" lon="4.665514994412661">
        <ele>235.66</ele>
        <time>2025-04-24T10:15:01Z</time>
      </trkpt>
      <trkpt lat="46.000142013654113" lon="4.665376022458077">
        <ele>235.18000000000001</ele>
        <time>2025-04-24T10:15:02Z</time>
      </trkpt>
      <trkpt lat="46.0001150239259" lon="4.665217017754912">
        <ele>235.18000000000001</ele>
        <time>2025-04-24T10:15:03Z</time>
      </trkpt>
      <trkpt lat="46.00005098618567" lon="4.664922980591655">
        <ele>235.66</ele>
        <time>2025-04-24T10:15:05Z</time>
      </trkpt>
      <trkpt lat="46.000009998679161" lon="4.66480202972889">
        <ele>235.66</ele>
        <time>2025-04-24T10:15:06Z</time>
      </trkpt>
      <trkpt lat="45.999958030879498" lon="4.66469700448215">
        <ele>235.66</ele>
        <time>2025-04-24T10:15:07Z</time>
      </trkpt>
      <trkpt lat="45.999891981482506" lon="4.664612011983991">
        <ele>235.66</ele>
        <time>2025-04-24T10:15:08Z</time>
      </trkpt>
      <trkpt lat="45.999815035611391" lon="4.664573036134243">
        <ele>236.13999999999999</ele>
        <time>2025-04-24T10:15:09Z</time>
      </trkpt>
      <trkpt lat="45.999732976779342" lon="4.664531964808703">
        <ele>236.62</ele>
        <time>2025-04-24T10:15:10Z</time>
      </trkpt>
      <trkpt lat="45.999653013423085" lon="4.664491983130574">
        <ele>237.09999999999999</ele>
        <time>2025-04-24T10:15:11Z</time>
      </trkpt>
      <trkpt lat="45.999575983732939" lon="4.664454013109207">
        <ele>237.58000000000001</ele>
        <time>2025-04-24T10:15:12Z</time>
      </trkpt>
      <trkpt lat="45.999496020376682" lon="4.664476979523897">
        <ele>238.53999999999999</ele>
        <time>2025-04-24T10:15:13Z</time>
      </trkpt>
      <trkpt lat="45.999427037313581" lon="4.664506986737251">
        <ele>239.99000000000001</ele>
        <time>2025-04-24T10:15:14Z</time>
      </trkpt>
      <trkpt lat="45.999365011230111" lon="4.664533976465464">
        <ele>240.94999999999999</ele>
        <time>2025-04-24T10:15:15Z</time>
      </trkpt>
      <trkpt lat="45.999307008460164" lon="4.664559038355947">
        <ele>241.91</ele>
        <time>2025-04-24T10:15:16Z</time>
      </trkpt>
      <trkpt lat="45.999245988205075" lon="4.664586028084159">
        <ele>242.87</ele>
        <time>2025-04-24T10:15:17Z</time>
      </trkpt>
      <trkpt lat="45.999183962121606" lon="4.664571024477482">
        <ele>243.83000000000001</ele>
        <time>2025-04-24T10:15:18Z</time>
      </trkpt>
      <trkpt lat="45.999109027907252" lon="4.664516039192677">
        <ele>244.78999999999999</ele>
        <time>2025-04-24T10:15:19Z</time>
      </trkpt>
      <trkpt lat="45.999025963246822" lon="4.664455018937588">
        <ele>245.75</ele>
        <time>2025-04-24T10:15:20Z</time>
      </trkpt>
      <trkpt lat="45.998938037082553" lon="4.664390981197357">
        <ele>247.19999999999999</ele>
        <time>2025-04-24T10:15:21Z</time>
      </trkpt>
      <trkpt lat="45.998612986877561" lon="4.664152013137937">
        <ele>252.47999999999999</ele>
        <time>2025-04-24T10:15:25Z</time>
      </trkpt>
      <trkpt lat="45.998532017692924" lon="4.664108008146286">
        <ele>253.93000000000001</ele>
        <time>2025-04-24T10:15:26Z</time>
      </trkpt>
      <trkpt lat="45.997691983357072" lon="4.663926959037781">
        <ele>264.98000000000002</ele>
        <time>2025-04-24T10:15:33Z</time>
      </trkpt>
      <trkpt lat="45.996819008141756" lon="4.66345296241343">
        <ele>275.56</ele>
        <time>2025-04-24T10:15:41Z</time>
      </trkpt>
      <trkpt lat="45.996540980413556" lon="4.663291024044156">
        <ele>280.36000000000001</ele>
        <time>2025-04-24T10:15:47Z</time>
      </trkpt>
      <trkpt lat="45.996540980413556" lon="4.663291024044156">
        <ele>281.31999999999999</ele>
        <time>2025-04-24T10:15:59Z</time>
      </trkpt>
      <trkpt lat="45.996442995965481" lon="4.66323503293097">
        <ele>285.17000000000002</ele>
        <time>2025-04-24T10:16:11Z</time>
      </trkpt>
      <trkpt lat="45.996261024847627" lon="4.663188010454178">
        <ele>286.13</ele>
        <time>2025-04-24T10:16:23Z</time>
      </trkpt>
      <trkpt lat="45.996164968237281" lon="4.663178035989404">
        <ele>286.61000000000001</ele>
        <time>2025-04-24T10:16:24Z</time>
      </trkpt>
      <trkpt lat="45.99605499766767" lon="4.663164960220456">
        <ele>286.61000000000001</ele>
        <time>2025-04-24T10:16:25Z</time>
      </trkpt>
      <trkpt lat="45.995928011834621" lon="4.66315096244216">
        <ele>286.61000000000001</ele>
        <time>2025-04-24T10:16:26Z</time>
      </trkpt>
      <trkpt lat="45.995794991031289" lon="4.663135958835483">
        <ele>286.61000000000001</ele>
        <time>2025-04-24T10:16:27Z</time>
      </trkpt>
      <trkpt lat="45.994695033878088" lon="4.66304300352931">
        <ele>285.17000000000002</ele>
        <time>2025-04-24T10:16:35Z</time>
      </trkpt>
      <trkpt lat="45.994104025885463" lon="4.662995981052518">
        <ele>285.64999999999998</ele>
        <time>2025-04-24T10:16:42Z</time>
      </trkpt>
      <trkpt lat="45.993858017027378" lon="4.662988018244505">
        <ele>285.17000000000002</ele>
        <time>2025-04-24T10:16:49Z</time>
      </trkpt>
      <trkpt lat="45.993050001561642" lon="4.663037974387407">
        <ele>284.20999999999998</ele>
        <time>2025-04-24T10:16:56Z</time>
      </trkpt>
      <trkpt lat="45.99293801933527" lon="4.663052977994084">
        <ele>284.20999999999998</ele>
        <time>2025-04-24T10:16:57Z</time>
      </trkpt>
      <trkpt lat="45.992722017690539" lon="4.663082985207439">
        <ele>284.20999999999998</ele>
        <time>2025-04-24T10:16:59Z</time>
      </trkpt>
      <trkpt lat="45.991489961743355" lon="4.663174012675881">
        <ele>281.31999999999999</ele>
        <time>2025-04-24T10:17:09Z</time>
      </trkpt>
      <trkpt lat="45.990665014833212" lon="4.663180969655514">
        <ele>276.51999999999998</ele>
        <time>2025-04-24T10:17:17Z</time>
      </trkpt>
      <trkpt lat="45.990571975708008" lon="4.663180969655514">
        <ele>276.04000000000002</ele>
        <time>2025-04-24T10:17:18Z</time>
      </trkpt>
      <trkpt lat="45.99049000069499" lon="4.663180969655514">
        <ele>275.06999999999999</ele>
        <time>2025-04-24T10:17:19Z</time>
      </trkpt>
      <trkpt lat="45.990414982661605" lon="4.663180969655514">
        <ele>274.58999999999997</ele>
        <time>2025-04-24T10:17:20Z</time>
      </trkpt>
      <trkpt lat="45.99033996462822" lon="4.663180969655514">
        <ele>273.63</ele>
        <time>2025-04-24T10:17:21Z</time>
      </trkpt>
      <trkpt lat="45.99027500487864" lon="4.663160014897585">
        <ele>272.67000000000002</ele>
        <time>2025-04-24T10:17:22Z</time>
      </trkpt>
      <trkpt lat="45.990206021815538" lon="4.663135958835483">
        <ele>271.23000000000002</ele>
        <time>2025-04-24T10:17:23Z</time>
      </trkpt>
      <trkpt lat="45.990135027095675" lon="4.663111986592412">
        <ele>270.26999999999998</ele>
        <time>2025-04-24T10:17:24Z</time>
      </trkpt>
      <trkpt lat="45.990063026547432" lon="4.66308600269258">
        <ele>269.31</ele>
        <time>2025-04-24T10:17:25Z</time>
      </trkpt>
      <trkpt lat="45.989988008514047" lon="4.663061024621129">
        <ele>267.86000000000001</ele>
        <time>2025-04-24T10:17:26Z</time>
      </trkpt>
      <trkpt lat="45.989912990480661" lon="4.663035040721297">
        <ele>266.89999999999998</ele>
        <time>2025-04-24T10:17:27Z</time>
      </trkpt>
      <trkpt lat="45.989841995760798" lon="4.663009978830814">
        <ele>265.94</ele>
        <time>2025-04-24T10:17:28Z</time>
      </trkpt>
      <trkpt lat="45.989774018526077" lon="4.662986006587744">
        <ele>264.98000000000002</ele>
        <time>2025-04-24T10:17:29Z</time>
      </trkpt>
      <trkpt lat="45.989706963300705" lon="4.662963040173054">
        <ele>264.01999999999998</ele>
        <time>2025-04-24T10:17:30Z</time>
      </trkpt>
      <trkpt lat="45.989638986065984" lon="4.662939989939332">
        <ele>263.06</ele>
        <time>2025-04-24T10:17:31Z</time>
      </trkpt>
      <trkpt lat="45.989568997174501" lon="4.662915011867881">
        <ele>262.10000000000002</ele>
        <time>2025-04-24T10:17:32Z</time>
      </trkpt>
      <trkpt lat="45.989496996626258" lon="4.66289003379643">
        <ele>261.13999999999999</ele>
        <time>2025-04-24T10:17:33Z</time>
      </trkpt>
      <trkpt lat="45.989422984421253" lon="4.662864971905947">
        <ele>259.69</ele>
        <time>2025-04-24T10:17:34Z</time>
      </trkpt>
      <trkpt lat="45.98935198970139" lon="4.662839993834496">
        <ele>258.25</ele>
        <time>2025-04-24T10:17:35Z</time>
      </trkpt>
      <trkpt lat="45.989142023026943" lon="4.66280403546989">
        <ele>254.88999999999999</ele>
        <time>2025-04-24T10:17:38Z</time>
      </trkpt>
      <trkpt lat="45.989058036357164" lon="4.662796994671226">
        <ele>253.44</ele>
        <time>2025-04-24T10:17:39Z</time>
      </trkpt>
      <trkpt lat="45.988968014717102" lon="4.662789031863213">
        <ele>252.47999999999999</ele>
        <time>2025-04-24T10:17:40Z</time>
      </trkpt>
      <trkpt lat="45.988788977265358" lon="4.662773022428155">
        <ele>250.56</ele>
        <time>2025-04-24T10:17:42Z</time>
      </trkpt>
      <trkpt lat="45.988718988373876" lon="4.662762964144349">
        <ele>249.59999999999999</ele>
        <time>2025-04-24T10:17:43Z</time>
      </trkpt>
      <trkpt lat="45.988654028624296" lon="4.662752989679575">
        <ele>248.63999999999999</ele>
        <time>2025-04-24T10:17:44Z</time>
      </trkpt>
      <trkpt lat="45.988589990884066" lon="4.662743015214801">
        <ele>247.68000000000001</ele>
        <time>2025-04-24T10:17:45Z</time>
      </trkpt>
      <trkpt lat="45.988512961193919" lon="4.662731029093266">
        <ele>247.19999999999999</ele>
        <time>2025-04-24T10:17:46Z</time>
      </trkpt>
      <trkpt lat="45.988481026142836" lon="4.662752989679575">
        <ele>246.22999999999999</ele>
        <time>2025-04-24T10:17:47Z</time>
      </trkpt>
      <trkpt lat="45.98842796869576" lon="4.662790037691593">
        <ele>245.75</ele>
        <time>2025-04-24T10:17:48Z</time>
      </trkpt>
      <trkpt lat="45.988373989239335" lon="4.66282800771296">
        <ele>245.27000000000001</ele>
        <time>2025-04-24T10:17:49Z</time>
      </trkpt>
      <trkpt lat="45.988297965377569" lon="4.662880981341004">
        <ele>244.31</ele>
        <time>2025-04-24T10:17:50Z</time>
      </trkpt>
      <trkpt lat="45.988267958164215" lon="4.662918029353023">
        <ele>243.83000000000001</ele>
        <time>2025-04-24T10:17:51Z</time>
      </trkpt>
      <trkpt lat="45.988224036991596" lon="4.662971002981067">
        <ele>243.34999999999999</ele>
        <time>2025-04-24T10:17:52Z</time>
      </trkpt>
      <trkpt lat="45.988184977322817" lon="4.66301903128624">
        <ele>243.34999999999999</ele>
        <time>2025-04-24T10:17:53Z</time>
      </trkpt>
      <trkpt lat="45.98814700730145" lon="4.66306496411562">
        <ele>242.87</ele>
        <time>2025-04-24T10:17:54Z</time>
      </trkpt>
      <trkpt lat="45.98810501396656" lon="4.663117015734315">
        <ele>242.38999999999999</ele>
        <time>2025-04-24T10:17:55Z</time>
      </trkpt>
      <trkpt lat="45.988037036731839" lon="4.663135036826134">
        <ele>241.91</ele>
        <time>2025-04-24T10:17:56Z</time>
      </trkpt>
      <trkpt lat="45.987962018698454" lon="4.663155991584063">
        <ele>241.91</ele>
        <time>2025-04-24T10:17:57Z</time>
      </trkpt>
      <trkpt lat="45.987874008715153" lon="4.663179963827133">
        <ele>242.38999999999999</ele>
        <time>2025-04-24T10:17:58Z</time>
      </trkpt>
      <trkpt lat="45.98741602152586" lon="4.663305021822453">
        <ele>247.19999999999999</ele>
        <time>2025-04-24T10:18:05Z</time>
      </trkpt>
      <trkpt lat="45.987399006262422" lon="4.663308961316943">
        <ele>248.63999999999999</ele>
        <time>2025-04-24T10:18:09Z</time>
      </trkpt>
      <trkpt lat="45.98739699460566" lon="4.663309967145324">
        <ele>249.12</ele>
        <time>2025-04-24T10:18:10Z</time>
      </trkpt>
      <trkpt lat="45.98739699460566" lon="4.663309967145324">
        <ele>249.59999999999999</ele>
        <time>2025-04-24T10:18:11Z</time>
      </trkpt>
      <trkpt lat="45.987390959635377" lon="4.663292029872537">
        <ele>250.56</ele>
        <time>2025-04-24T10:18:12Z</time>
      </trkpt>
      <trkpt lat="45.987364975735545" lon="4.663207037374377">
        <ele>251.03999999999999</ele>
        <time>2025-04-24T10:18:13Z</time>
      </trkpt>
      <trkpt lat="45.987199014052749" lon="4.662663973867893">
        <ele>253.93000000000001</ele>
        <time>2025-04-24T10:18:17Z</time>
      </trkpt>
      <trkpt lat="45.987152997404337" lon="4.662501029670239">
        <ele>254.41</ele>
        <time>2025-04-24T10:18:18Z</time>
      </trkpt>
      <trkpt lat="45.987043026834726" lon="4.661338040605187">
        <ele>260.17000000000002</ele>
        <time>2025-04-24T10:18:26Z</time>
      </trkpt>
      <trkpt lat="45.987018970772624" lon="4.66093797236681">
        <ele>263.06</ele>
        <time>2025-04-24T10:18:30Z</time>
      </trkpt>
      <trkpt lat="45.987016037106514" lon="4.660888016223908">
        <ele>263.54000000000002</ele>
        <time>2025-04-24T10:18:31Z</time>
      </trkpt>
      <trkpt lat="45.986963985487819" lon="4.660814004018903">
        <ele>264.5</ele>
        <time>2025-04-24T10:18:32Z</time>
      </trkpt>
      <trkpt lat="45.98690397106111" lon="4.660833030939102">
        <ele>264.98000000000002</ele>
        <time>2025-04-24T10:18:33Z</time>
      </trkpt>
      <trkpt lat="45.986829036846757" lon="4.660855997353792">
        <ele>265.94</ele>
        <time>2025-04-24T10:18:34Z</time>
      </trkpt>
      <trkpt lat="45.986200980842113" lon="4.661051966249943">
        <ele>265.45999999999998</ele>
        <time>2025-04-24T10:18:42Z</time>
      </trkpt>
      <trkpt lat="45.985981039702892" lon="4.661121033132076">
        <ele>264.01999999999998</ele>
        <time>2025-04-24T10:18:45Z</time>
      </trkpt>
      <trkpt lat="45.985926976427436" lon="4.661062024533749">
        <ele>263.06</ele>
        <time>2025-04-24T10:18:46Z</time>
      </trkpt>
      <trkpt lat="45.985869979485869" lon="4.660999998450279">
        <ele>262.57999999999998</ele>
        <time>2025-04-24T10:18:47Z</time>
      </trkpt>
      <trkpt lat="45.985628999769688" lon="4.660733034834266">
        <ele>258.25</ele>
        <time>2025-04-24T10:18:52Z</time>
      </trkpt>
      <trkpt lat="45.985565967857838" lon="4.660691963508725">
        <ele>254.88999999999999</ele>
        <time>2025-04-24T10:18:56Z</time>
      </trkpt>
      <trkpt lat="45.985551970079541" lon="4.660735968500376">
        <ele>253.93000000000001</ele>
        <time>2025-04-24T10:18:57Z</time>
      </trkpt>
      <trkpt lat="45.985533026978374" lon="4.660795982927084">
        <ele>252.96000000000001</ele>
        <time>2025-04-24T10:18:58Z</time>
      </trkpt>
      <trkpt lat="45.985321970656514" lon="4.661459997296333">
        <ele>244.78999999999999</ele>
        <time>2025-04-24T10:19:08Z</time>
      </trkpt>
      <trkpt lat="45.985272014513612" lon="4.661614978685975">
        <ele>242.87</ele>
        <time>2025-04-24T10:19:11Z</time>
      </trkpt>
      <trkpt lat="45.985244018957019" lon="4.66145396232605">
        <ele>242.38999999999999</ele>
        <time>2025-04-24T10:19:12Z</time>
      </trkpt>
      <trkpt lat="45.985236978158355" lon="4.661418003961444">
        <ele>241.43000000000001</ele>
        <time>2025-04-24T10:19:13Z</time>
      </trkpt>
      <trkpt lat="45.985227003693581" lon="4.661358995363116">
        <ele>240.94999999999999</ele>
        <time>2025-04-24T10:19:14Z</time>
      </trkpt>
      <trkpt lat="45.985212000086904" lon="4.661278026178479">
        <ele>240.47</ele>
        <time>2025-04-24T10:19:15Z</time>
      </trkpt>
      <trkpt lat="45.985193978995085" lon="4.66117300093174">
        <ele>240.47</ele>
        <time>2025-04-24T10:19:16Z</time>
      </trkpt>
      <trkpt lat="45.985006978735328" lon="4.660127023234963">
        <ele>238.53999999999999</ele>
        <time>2025-04-24T10:19:22Z</time>
      </trkpt>
      <trkpt lat="45.984800029546022" lon="4.658203041180968">
        <ele>239.02000000000001</ele>
        <time>2025-04-24T10:19:31Z</time>
      </trkpt>
      <trkpt lat="45.984566006809473" lon="4.655481018126011">
        <ele>241.91</ele>
        <time>2025-04-24T10:19:43Z</time>
      </trkpt>
      <trkpt lat="45.984039036557078" lon="4.653102988377214">
        <ele>243.83000000000001</ele>
        <time>2025-04-24T10:19:54Z</time>
      </trkpt>
      <trkpt lat="45.983990002423525" lon="4.652884975075722">
        <ele>243.83000000000001</ele>
        <time>2025-04-24T10:19:55Z</time>
      </trkpt>
      <trkpt lat="45.983939962461591" lon="4.652663022279739">
        <ele>244.31</ele>
        <time>2025-04-24T10:19:56Z</time>
      </trkpt>
      <trkpt lat="45.983316013589501" lon="4.650609958916903">
        <ele>245.27000000000001</ele>
        <time>2025-04-24T10:20:05Z</time>
      </trkpt>
      <trkpt lat="45.983038991689682" lon="4.64821700938046">
        <ele>247.68000000000001</ele>
        <time>2025-04-24T10:20:15Z</time>
      </trkpt>
      <trkpt lat="45.98269097507" lon="4.646194959059358">
        <ele>250.56</ele>
        <time>2025-04-24T10:20:25Z</time>
      </trkpt>
      <trkpt lat="45.982685023918748" lon="4.64604701846838">
        <ele>250.56</ele>
        <time>2025-04-24T10:20:26Z</time>
      </trkpt>
      <trkpt lat="45.982646970078349" lon="4.64566002599895">
        <ele>251.03999999999999</ele>
        <time>2025-04-24T10:20:29Z</time>
      </trkpt>
      <trkpt lat="45.982624003663659" lon="4.645536979660392">
        <ele>251.52000000000001</ele>
        <time>2025-04-24T10:20:30Z</time>
      </trkpt>
      <trkpt lat="45.982601959258318" lon="4.645413011312485">
        <ele>252</ele>
        <time>2025-04-24T10:20:31Z</time>
      </trkpt>
      <trkpt lat="45.982571030035615" lon="4.645315026864409">
        <ele>252</ele>
        <time>2025-04-24T10:20:32Z</time>
      </trkpt>
      <trkpt lat="45.982528030872345" lon="4.645235985517502">
        <ele>252.47999999999999</ele>
        <time>2025-04-24T10:20:33Z</time>
      </trkpt>
      <trkpt lat="45.982457958161831" lon="4.645110005512834">
        <ele>252.47999999999999</ele>
        <time>2025-04-24T10:20:35Z</time>
      </trkpt>
      <trkpt lat="45.982438009232283" lon="4.645073041319847">
        <ele>252.96000000000001</ele>
        <time>2025-04-24T10:20:42Z</time>
      </trkpt>
      <trkpt lat="45.982354022562504" lon="4.644920993596315">
        <ele>253.93000000000001</ele>
        <time>2025-04-24T10:20:49Z</time>
      </trkpt>
      <trkpt lat="45.98232502117753" lon="4.644875982776284">
        <ele>253.93000000000001</ele>
        <time>2025-04-24T10:20:50Z</time>
      </trkpt>
      <trkpt lat="45.982267018407583" lon="4.644789984449744">
        <ele>253.93000000000001</ele>
        <time>2025-04-24T10:20:51Z</time>
      </trkpt>
      <trkpt lat="45.98219501785934" lon="4.644696023315191">
        <ele>254.41</ele>
        <time>2025-04-24T10:20:52Z</time>
      </trkpt>
      <trkpt lat="45.982112037017941" lon="4.644606001675129">
        <ele>254.41</ele>
        <time>2025-04-24T10:20:53Z</time>
      </trkpt>
      <trkpt lat="45.98202402703464" lon="4.644510028883815">
        <ele>254.41</ele>
        <time>2025-04-24T10:20:54Z</time>
      </trkpt>
      <trkpt lat="45.981927970424294" lon="4.644406009465456">
        <ele>254.88999999999999</ele>
        <time>2025-04-24T10:20:55Z</time>
      </trkpt>
      <trkpt lat="45.981827974319458" lon="4.644296960905194">
        <ele>254.88999999999999</ele>
        <time>2025-04-24T10:20:56Z</time>
      </trkpt>
      <trkpt lat="45.981734013184905" lon="4.644195958971977">
        <ele>255.37</ele>
        <time>2025-04-24T10:20:57Z</time>
      </trkpt>
      <trkpt lat="45.981665030121803" lon="4.644069978967309">
        <ele>255.84999999999999</ele>
        <time>2025-04-24T10:20:58Z</time>
      </trkpt>
      <trkpt lat="45.981611972674727" lon="4.643952967599034">
        <ele>255.84999999999999</ele>
        <time>2025-04-24T10:20:59Z</time>
      </trkpt>
      <trkpt lat="45.981608033180237" lon="4.64379102922976">
        <ele>255.84999999999999</ele>
        <time>2025-04-24T10:21:00Z</time>
      </trkpt>
      <trkpt lat="45.981612978503108" lon="4.643634958192706">
        <ele>255.84999999999999</ele>
        <time>2025-04-24T10:21:01Z</time>
      </trkpt>
      <trkpt lat="45.981619013473392" lon="4.643454998731613">
        <ele>256.32999999999998</ele>
        <time>2025-04-24T10:21:02Z</time>
      </trkpt>
      <trkpt lat="45.981806013733149" lon="4.641777025535703">
        <ele>259.69</ele>
        <time>2025-04-24T10:21:11Z</time>
      </trkpt>
      <trkpt lat="45.981857981532812" lon="4.640488978475332">
        <ele>263.54000000000002</ele>
        <time>2025-04-24T10:21:18Z</time>
      </trkpt>
      <trkpt lat="45.981885977089405" lon="4.640314970165491">
        <ele>264.01999999999998</ele>
        <time>2025-04-24T10:21:19Z</time>
      </trkpt>
      <trkpt lat="45.982200969010592" lon="4.639120968058705">
        <ele>269.31</ele>
        <time>2025-04-24T10:21:27Z</time>
      </trkpt>
      <trkpt lat="45.982258971780539" lon="4.639030024409294">
        <ele>269.79000000000002</ele>
        <time>2025-04-24T10:21:28Z</time>
      </trkpt>
      <trkpt lat="45.982333989813924" lon="4.638955006375909">
        <ele>270.26999999999998</ele>
        <time>2025-04-24T10:21:29Z</time>
      </trkpt>
      <trkpt lat="45.983133958652616" lon="4.638143973425031">
        <ele>276.04000000000002</ele>
        <time>2025-04-24T10:21:37Z</time>
      </trkpt>
      <trkpt lat="45.983589012175798" lon="4.637642987072468">
        <ele>280.36000000000001</ele>
        <time>2025-04-24T10:21:41Z</time>
      </trkpt>
      <trkpt lat="45.983698982745409" lon="4.637489011511207">
        <ele>281.31999999999999</ele>
        <time>2025-04-24T10:21:42Z</time>
      </trkpt>
      <trkpt lat="45.98378699272871" lon="4.637313997372985">
        <ele>282.27999999999997</ele>
        <time>2025-04-24T10:21:43Z</time>
      </trkpt>
      <trkpt lat="45.984209021553397" lon="4.636386036872864">
        <ele>286.61000000000001</ele>
        <time>2025-04-24T10:21:48Z</time>
      </trkpt>
      <trkpt lat="45.984254032373428" lon="4.636177998036146">
        <ele>287.56999999999999</ele>
        <time>2025-04-24T10:21:49Z</time>
      </trkpt>
      <trkpt lat="45.984307006001472" lon="4.6359299775213">
        <ele>288.52999999999997</ele>
        <time>2025-04-24T10:21:50Z</time>
      </trkpt>
      <trkpt lat="45.984307006001472" lon="4.635731996968389">
        <ele>289.49000000000001</ele>
        <time>2025-04-24T10:21:51Z</time>
      </trkpt>
      <trkpt lat="45.984307006001472" lon="4.6354999858886">
        <ele>290.45999999999998</ele>
        <time>2025-04-24T10:21:52Z</time>
      </trkpt>
      <trkpt lat="45.984413959085941" lon="4.633025983348489">
        <ele>301.50999999999999</ele>
        <time>2025-04-24T10:22:02Z</time>
      </trkpt>
      <trkpt lat="45.984467016533017" lon="4.63150198571384">
        <ele>308.24000000000001</ele>
        <time>2025-04-24T10:22:09Z</time>
      </trkpt>
      <trkpt lat="45.984508004039526" lon="4.631347004324198">
        <ele>309.19999999999999</ele>
        <time>2025-04-24T10:22:10Z</time>
      </trkpt>
      <trkpt lat="45.98458101041615" lon="4.631229992955923">
        <ele>309.68000000000001</ele>
        <time>2025-04-24T10:22:11Z</time>
      </trkpt>
      <trkpt lat="45.984997004270554" lon="4.630701011046767">
        <ele>314.00999999999999</ele>
        <time>2025-04-24T10:22:16Z</time>
      </trkpt>
      <trkpt lat="45.985089959576726" lon="4.630623981356621">
        <ele>314.49000000000001</ele>
        <time>2025-04-24T10:22:17Z</time>
      </trkpt>
      <trkpt lat="45.986071983352304" lon="4.629669031128287">
        <ele>322.18000000000001</ele>
        <time>2025-04-24T10:22:27Z</time>
      </trkpt>
      <trkpt lat="45.986593002453446" lon="4.629060002043843">
        <ele>326.01999999999998</ele>
        <time>2025-04-24T10:22:32Z</time>
      </trkpt>
      <trkpt lat="45.986713031306863" lon="4.62896604090929">
        <ele>326.99000000000001</ele>
        <time>2025-04-24T10:22:33Z</time>
      </trkpt>
      <trkpt lat="45.986832976341248" lon="4.628873001784086">
        <ele>327.47000000000003</ele>
        <time>2025-04-24T10:22:34Z</time>
      </trkpt>
      <trkpt lat="45.98752498626709" lon="4.628341002389789">
        <ele>332.26999999999998</ele>
        <time>2025-04-24T10:22:41Z</time>
      </trkpt>
      <trkpt lat="45.987585000693798" lon="4.62823698297143">
        <ele>332.75</ele>
        <time>2025-04-24T10:22:42Z</time>
      </trkpt>
      <trkpt lat="45.987646020948887" lon="4.628131035715342">
        <ele>333.70999999999998</ele>
        <time>2025-04-24T10:22:43Z</time>
      </trkpt>
      <trkpt lat="45.98782598040998" lon="4.627818977460265">
        <ele>335.63999999999999</ele>
        <time>2025-04-24T10:22:46Z</time>
      </trkpt>
      <trkpt lat="45.98784701898694" lon="4.627729039639235">
        <ele>336.12</ele>
        <time>2025-04-24T10:22:47Z</time>
      </trkpt>
      <trkpt lat="45.987874008715153" lon="4.627610016614199">
        <ele>336.60000000000002</ele>
        <time>2025-04-24T10:22:48Z</time>
      </trkpt>
      <trkpt lat="45.987893035635352" lon="4.627490993589163">
        <ele>337.07999999999998</ele>
        <time>2025-04-24T10:22:49Z</time>
      </trkpt>
      <trkpt lat="45.987900998443365" lon="4.627369958907366">
        <ele>337.56</ele>
        <time>2025-04-24T10:22:50Z</time>
      </trkpt>
      <trkpt lat="45.987929999828339" lon="4.626454990357161">
        <ele>340.44</ele>
        <time>2025-04-24T10:22:58Z</time>
      </trkpt>
      <trkpt lat="45.987904015928507" lon="4.626350970938802">
        <ele>340.92000000000002</ele>
        <time>2025-04-24T10:22:59Z</time>
      </trkpt>
      <trkpt lat="45.987879037857056" lon="4.626249969005585">
        <ele>340.92000000000002</ele>
        <time>2025-04-24T10:23:00Z</time>
      </trkpt>
      <trkpt lat="45.987854981794953" lon="4.626153996214271">
        <ele>341.41000000000003</ele>
        <time>2025-04-24T10:23:01Z</time>
      </trkpt>
      <trkpt lat="45.987828997895122" lon="4.626049976795912">
        <ele>341.88999999999999</ele>
        <time>2025-04-24T10:23:02Z</time>
      </trkpt>
      <trkpt lat="45.987799996510148" lon="4.625941012054682">
        <ele>341.88999999999999</ele>
        <time>2025-04-24T10:23:03Z</time>
      </trkpt>
      <trkpt lat="45.987764038145542" lon="4.625839004293084">
        <ele>342.37</ele>
        <time>2025-04-24T10:23:04Z</time>
      </trkpt>
      <trkpt lat="45.987729001790285" lon="4.625738002359867">
        <ele>342.85000000000002</ele>
        <time>2025-04-24T10:23:05Z</time>
      </trkpt>
      <trkpt lat="45.987630011513829" lon="4.625436002388597">
        <ele>343.81</ele>
        <time>2025-04-24T10:23:08Z</time>
      </trkpt>
      <trkpt lat="45.987600004300475" lon="4.62533600628376">
        <ele>344.29000000000002</ele>
        <time>2025-04-24T10:23:09Z</time>
      </trkpt>
      <trkpt lat="45.987547030672431" lon="4.625157974660397">
        <ele>344.29000000000002</ele>
        <time>2025-04-24T10:23:11Z</time>
      </trkpt>
      <trkpt lat="45.987520962953568" lon="4.625082034617662">
        <ele>344.76999999999998</ele>
        <time>2025-04-24T10:23:12Z</time>
      </trkpt>
      <trkpt lat="45.987499002367258" lon="4.62501397356391">
        <ele>344.76999999999998</ele>
        <time>2025-04-24T10:23:13Z</time>
      </trkpt>
      <trkpt lat="45.98748198710382" lon="4.624965023249388">
        <ele>345.25</ele>
        <time>2025-04-24T10:23:14Z</time>
      </trkpt>
      <trkpt lat="45.987470000982285" lon="4.624926969408989">
        <ele>345.25</ele>
        <time>2025-04-24T10:23:15Z</time>
      </trkpt>
      <trkpt lat="45.987457009032369" lon="4.62477701716125">
        <ele>345.73000000000002</ele>
        <time>2025-04-24T10:23:17Z</time>
      </trkpt>
      <trkpt lat="45.987409986555576" lon="4.624771988019347">
        <ele>346.20999999999998</ele>
        <time>2025-04-24T10:23:18Z</time>
      </trkpt>
      <trkpt lat="45.987356007099152" lon="4.624773999676108">
        <ele>346.20999999999998</ele>
        <time>2025-04-24T10:23:19Z</time>
      </trkpt>
      <trkpt lat="45.98690296523273" lon="4.624792020767927">
        <ele>345.73000000000002</ele>
        <time>2025-04-24T10:23:25Z</time>
      </trkpt>
      <trkpt lat="45.985872996971011" lon="4.6250110398978">
        <ele>346.69</ele>
        <time>2025-04-24T10:23:37Z</time>
      </trkpt>
      <trkpt lat="45.98578498698771" lon="4.625036017969251">
        <ele>347.64999999999998</ele>
        <time>2025-04-24T10:23:38Z</time>
      </trkpt>
      <trkpt lat="45.98481796681881" lon="4.62522704154253">
        <ele>355.33999999999997</ele>
        <time>2025-04-24T10:23:49Z</time>
      </trkpt>
      <trkpt lat="45.98468704149127" lon="4.62520600296557">
        <ele>356.31</ele>
        <time>2025-04-24T10:23:50Z</time>
      </trkpt>
      <trkpt lat="45.984551003202796" lon="4.625184964388609">
        <ele>356.79000000000002</ele>
        <time>2025-04-24T10:23:51Z</time>
      </trkpt>
      <trkpt lat="45.984423011541367" lon="4.625081028789282">
        <ele>357.26999999999998</ele>
        <time>2025-04-24T10:23:52Z</time>
      </trkpt>
      <trkpt lat="45.984312035143375" lon="4.624969968572259">
        <ele>358.23000000000002</ele>
        <time>2025-04-24T10:23:53Z</time>
      </trkpt>
      <trkpt lat="45.984207009896636" lon="4.624865027144551">
        <ele>359.19</ele>
        <time>2025-04-24T10:23:54Z</time>
      </trkpt>
      <trkpt lat="45.983617007732391" lon="4.62406899780035">
        <ele>366.39999999999998</ele>
        <time>2025-04-24T10:24:02Z</time>
      </trkpt>
      <trkpt lat="45.983172012493014" lon="4.623196022585034">
        <ele>369.27999999999997</ele>
        <time>2025-04-24T10:24:10Z</time>
      </trkpt>
      <trkpt lat="45.983113003894687" lon="4.623044980689883">
        <ele>368.80000000000001</ele>
        <time>2025-04-24T10:24:11Z</time>
      </trkpt>
      <trkpt lat="45.9830760397017" lon="4.622881030663848">
        <ele>368.80000000000001</ele>
        <time>2025-04-24T10:24:12Z</time>
      </trkpt>
      <trkpt lat="45.983060030266643" lon="4.622702999040484">
        <ele>368.31999999999999</ele>
        <time>2025-04-24T10:24:13Z</time>
      </trkpt>
      <trkpt lat="45.982894990593195" lon="4.621102977544069">
        <ele>362.55000000000001</ele>
        <time>2025-04-24T10:24:21Z</time>
      </trkpt>
      <trkpt lat="45.982869006693363" lon="4.620930980890989">
        <ele>362.06999999999999</ele>
        <time>2025-04-24T10:24:22Z</time>
      </trkpt>
      <trkpt lat="45.982801029458642" lon="4.620781028643251">
        <ele>362.06999999999999</ele>
        <time>2025-04-24T10:24:23Z</time>
      </trkpt>
      <trkpt lat="45.982708996161819" lon="4.620649013668299">
        <ele>362.06999999999999</ele>
        <time>2025-04-24T10:24:24Z</time>
      </trkpt>
      <trkpt lat="45.982590978965163" lon="4.620546000078321">
        <ele>362.06999999999999</ele>
        <time>2025-04-24T10:24:25Z</time>
      </trkpt>
      <trkpt lat="45.982466004788876" lon="4.620437035337091">
        <ele>362.55000000000001</ele>
        <time>2025-04-24T10:24:26Z</time>
      </trkpt>
      <trkpt lat="45.981537960469723" lon="4.619268011301756">
        <ele>368.80000000000001</ele>
        <time>2025-04-24T10:24:34Z</time>
      </trkpt>
      <trkpt lat="45.980798006057739" lon="4.618122037500143">
        <ele>372.64999999999998</ele>
        <time>2025-04-24T10:24:41Z</time>
      </trkpt>
      <trkpt lat="45.980709996074438" lon="4.61794400587678">
        <ele>372.64999999999998</ele>
        <time>2025-04-24T10:24:42Z</time>
      </trkpt>
      <trkpt lat="45.980656016618013" lon="4.617755999788642">
        <ele>373.13</ele>
        <time>2025-04-24T10:24:43Z</time>
      </trkpt>
      <trkpt lat="45.980617962777615" lon="4.617561958730221">
        <ele>373.13</ele>
        <time>2025-04-24T10:24:44Z</time>
      </trkpt>
      <trkpt lat="45.980588039383292" lon="4.617359032854438">
        <ele>373.13</ele>
        <time>2025-04-24T10:24:45Z</time>
      </trkpt>
      <trkpt lat="45.980577981099486" lon="4.617148982360959">
        <ele>372.64999999999998</ele>
        <time>2025-04-24T10:24:46Z</time>
      </trkpt>
      <trkpt lat="45.98058502189815" lon="4.616943039000034">
        <ele>372.64999999999998</ele>
        <time>2025-04-24T10:24:47Z</time>
      </trkpt>
      <trkpt lat="45.980592984706163" lon="4.61674002930522">
        <ele>372.64999999999998</ele>
        <time>2025-04-24T10:24:48Z</time>
      </trkpt>
      <trkpt lat="45.980632966384292" lon="4.616541964933276">
        <ele>372.17000000000002</ele>
        <time>2025-04-24T10:24:49Z</time>
      </trkpt>
      <trkpt lat="45.980677977204323" lon="4.616353958845139">
        <ele>372.17000000000002</ele>
        <time>2025-04-24T10:24:50Z</time>
      </trkpt>
      <trkpt lat="45.980730028823018" lon="4.616179028525949">
        <ele>372.17000000000002</ele>
        <time>2025-04-24T10:24:51Z</time>
      </trkpt>
      <trkpt lat="45.980791971087456" lon="4.61601298302412">
        <ele>372.17000000000002</ele>
        <time>2025-04-24T10:24:52Z</time>
      </trkpt>
      <trkpt lat="45.980856008827686" lon="4.615841992199421">
        <ele>371.69</ele>
        <time>2025-04-24T10:24:53Z</time>
      </trkpt>
      <trkpt lat="45.981018031015992" lon="4.615508979186416">
        <ele>371.20999999999998</ele>
        <time>2025-04-24T10:24:55Z</time>
      </trkpt>
      <trkpt lat="45.98159302957356" lon="4.614581018686295">
        <ele>368.80000000000001</ele>
        <time>2025-04-24T10:25:01Z</time>
      </trkpt>
      <trkpt lat="45.981712974607944" lon="4.614478005096316">
        <ele>368.31999999999999</ele>
        <time>2025-04-24T10:25:02Z</time>
      </trkpt>
      <trkpt lat="45.981817999854684" lon="4.614386977627873">
        <ele>368.31999999999999</ele>
        <time>2025-04-24T10:25:03Z</time>
      </trkpt>
      <trkpt lat="45.981954960152507" lon="4.61433500982821">
        <ele>367.83999999999997</ele>
        <time>2025-04-24T10:25:04Z</time>
      </trkpt>
      <trkpt lat="45.982074989005923" lon="4.614289999008179">
        <ele>367.83999999999997</ele>
        <time>2025-04-24T10:25:05Z</time>
      </trkpt>
      <trkpt lat="45.982160987332463" lon="4.614257980138063">
        <ele>367.36000000000001</ele>
        <time>2025-04-24T10:25:06Z</time>
      </trkpt>
      <trkpt lat="45.982253020629287" lon="4.614176005125046">
        <ele>367.36000000000001</ele>
        <time>2025-04-24T10:25:07Z</time>
      </trkpt>
      <trkpt lat="45.982323009520769" lon="4.614113979041576">
        <ele>366.88</ele>
        <time>2025-04-24T10:25:08Z</time>
      </trkpt>
      <trkpt lat="45.982371037825942" lon="4.614027980715036">
        <ele>366.39999999999998</ele>
        <time>2025-04-24T10:25:09Z</time>
      </trkpt>
      <trkpt lat="45.982406996190548" lon="4.613908035680652">
        <ele>366.39999999999998</ele>
        <time>2025-04-24T10:25:10Z</time>
      </trkpt>
      <trkpt lat="45.982442032545805" lon="4.613787000998855">
        <ele>366.39999999999998</ele>
        <time>2025-04-24T10:25:11Z</time>
      </trkpt>
      <trkpt lat="45.982441026717424" lon="4.613674012944102">
        <ele>366.39999999999998</ele>
        <time>2025-04-24T10:25:12Z</time>
      </trkpt>
      <trkpt lat="45.982396015897393" lon="4.613568987697363">
        <ele>366.39999999999998</ele>
        <time>2025-04-24T10:25:13Z</time>
      </trkpt>
      <trkpt lat="45.982349999248981" lon="4.613461028784514">
        <ele>366.39999999999998</ele>
        <time>2025-04-24T10:25:14Z</time>
      </trkpt>
      <trkpt lat="45.982279004529119" lon="4.613380981609225">
        <ele>366.88</ele>
        <time>2025-04-24T10:25:15Z</time>
      </trkpt>
      <trkpt lat="45.98219501785934" lon="4.613317027688026">
        <ele>366.88</ele>
        <time>2025-04-24T10:25:16Z</time>
      </trkpt>
      <trkpt lat="45.982094015926123" lon="4.613277968019247">
        <ele>367.36000000000001</ele>
        <time>2025-04-24T10:25:17Z</time>
      </trkpt>
      <trkpt lat="45.981993013992906" lon="4.613256007432938">
        <ele>367.83999999999997</ele>
        <time>2025-04-24T10:25:18Z</time>
      </trkpt>
      <trkpt lat="45.980945024639368" lon="4.613032964989543">
        <ele>370.73000000000002</ele>
        <time>2025-04-24T10:25:27Z</time>
      </trkpt>
      <trkpt lat="45.980789037421346" lon="4.612968005239964">
        <ele>372.17000000000002</ele>
        <time>2025-04-24T10:25:29Z</time>
      </trkpt>
      <trkpt lat="45.980702033266425" lon="4.612905979156494">
        <ele>372.64999999999998</ele>
        <time>2025-04-24T10:25:30Z</time>
      </trkpt>
      <trkpt lat="45.980672026053071" lon="4.61283003911376">
        <ele>373.61000000000001</ele>
        <time>2025-04-24T10:25:31Z</time>
      </trkpt>
      <trkpt lat="45.980647969990969" lon="4.612688971683383">
        <ele>374.08999999999997</ele>
        <time>2025-04-24T10:25:32Z</time>
      </trkpt>
      <trkpt lat="45.980631960555911" lon="4.612538013607264">
        <ele>374.56999999999999</ele>
        <time>2025-04-24T10:25:33Z</time>
      </trkpt>
      <trkpt lat="45.980617040768266" lon="4.612397029995918">
        <ele>375.52999999999997</ele>
        <time>2025-04-24T10:25:34Z</time>
      </trkpt>
      <trkpt lat="45.980518972501159" lon="4.611459011211991">
        <ele>380.33999999999997</ele>
        <time>2025-04-24T10:25:43Z</time>
      </trkpt>
      <trkpt lat="45.980444960296154" lon="4.610625011846423">
        <ele>383.22000000000003</ele>
        <time>2025-04-24T10:25:50Z</time>
      </trkpt>
      <trkpt lat="45.980422999709845" lon="4.610373973846436">
        <ele>383.22000000000003</ele>
        <time>2025-04-24T10:25:52Z</time>
      </trkpt>
      <trkpt lat="45.980422999709845" lon="4.610251011326909">
        <ele>383.69999999999999</ele>
        <time>2025-04-24T10:25:53Z</time>
      </trkpt>
      <trkpt lat="45.980450995266438" lon="4.609983041882515">
        <ele>382.74000000000001</ele>
        <time>2025-04-24T10:25:55Z</time>
      </trkpt>
      <trkpt lat="45.980655010789633" lon="4.608515035361052">
        <ele>379.38</ele>
        <time>2025-04-24T10:26:04Z</time>
      </trkpt>
      <trkpt lat="45.980617040768266" lon="4.608392994850874">
        <ele>378.89999999999998</ele>
        <time>2025-04-24T10:26:05Z</time>
      </trkpt>
      <trkpt lat="45.980572029948235" lon="4.608295010402799">
        <ele>378.89999999999998</ele>
        <time>2025-04-24T10:26:06Z</time>
      </trkpt>
      <trkpt lat="45.980525007471442" lon="4.608225021511316">
        <ele>378.89999999999998</ele>
        <time>2025-04-24T10:26:07Z</time>
      </trkpt>
      <trkpt lat="45.980460969731212" lon="4.608167018741369">
        <ele>378.42000000000002</ele>
        <time>2025-04-24T10:26:08Z</time>
      </trkpt>
      <trkpt lat="45.980393998324871" lon="4.608107004314661">
        <ele>378.42000000000002</ele>
        <time>2025-04-24T10:26:09Z</time>
      </trkpt>
      <trkpt lat="45.980331972241402" lon="4.608050007373095">
        <ele>377.94</ele>
        <time>2025-04-24T10:26:10Z</time>
      </trkpt>
      <trkpt lat="45.980311017483473" lon="4.607956968247891">
        <ele>377.44999999999999</ele>
        <time>2025-04-24T10:26:11Z</time>
      </trkpt>
      <trkpt lat="45.980303976684809" lon="4.607857977971435">
        <ele>376.97000000000003</ele>
        <time>2025-04-24T10:26:12Z</time>
      </trkpt>
      <trkpt lat="45.980297019705176" lon="4.607753958553076">
        <ele>376.49000000000001</ele>
        <time>2025-04-24T10:26:13Z</time>
      </trkpt>
      <trkpt lat="45.980320991948247" lon="4.607667038217187">
        <ele>376.00999999999999</ele>
        <time>2025-04-24T10:26:14Z</time>
      </trkpt>
      <trkpt lat="45.980375977233052" lon="4.607572993263602">
        <ele>375.52999999999997</ele>
        <time>2025-04-24T10:26:15Z</time>
      </trkpt>
      <trkpt lat="45.980444038286805" lon="4.607455981895328">
        <ele>375.05000000000001</ele>
        <time>2025-04-24T10:26:16Z</time>
      </trkpt>
      <trkpt lat="45.980502041056752" lon="4.607380041852593">
        <ele>374.08999999999997</ele>
        <time>2025-04-24T10:26:17Z</time>
      </trkpt>
      <trkpt lat="45.981258004903793" lon="4.606503965333104">
        <ele>370.24000000000001</ele>
        <time>2025-04-24T10:26:26Z</time>
      </trkpt>
      <trkpt lat="45.98133897408843" lon="4.606425007805228">
        <ele>370.24000000000001</ele>
        <time>2025-04-24T10:26:27Z</time>
      </trkpt>
      <trkpt lat="45.981469983235002" lon="4.60629902780056">
        <ele>370.73000000000002</ele>
        <time>2025-04-24T10:26:29Z</time>
      </trkpt>
      <trkpt lat="45.981538966298103" lon="4.606232978403568">
        <ele>371.20999999999998</ele>
        <time>2025-04-24T10:26:30Z</time>
      </trkpt>
      <trkpt lat="45.981548018753529" lon="4.606158966198564">
        <ele>371.20999999999998</ele>
        <time>2025-04-24T10:26:31Z</time>
      </trkpt>
      <trkpt lat="45.981558999046683" lon="4.606071040034294">
        <ele>371.69</ele>
        <time>2025-04-24T10:26:32Z</time>
      </trkpt>
      <trkpt lat="45.981535026803613" lon="4.605973977595568">
        <ele>371.69</ele>
        <time>2025-04-24T10:26:33Z</time>
      </trkpt>
      <trkpt lat="45.981497978791595" lon="4.605893008410931">
        <ele>371.69</ele>
        <time>2025-04-24T10:26:34Z</time>
      </trkpt>
      <trkpt lat="45.981432013213634" lon="4.605835005640984">
        <ele>372.17000000000002</ele>
        <time>2025-04-24T10:26:35Z</time>
      </trkpt>
      <trkpt lat="45.981354983523488" lon="4.605766022577882">
        <ele>372.64999999999998</ele>
        <time>2025-04-24T10:26:36Z</time>
      </trkpt>
      <trkpt lat="45.981276025995612" lon="4.6056960336864">
        <ele>373.13</ele>
        <time>2025-04-24T10:26:37Z</time>
      </trkpt>
      <trkpt lat="45.981196984648705" lon="4.605625960975885">
        <ele>373.13</ele>
        <time>2025-04-24T10:26:38Z</time>
      </trkpt>
      <trkpt lat="45.981117021292448" lon="4.605550020933151">
        <ele>373.61000000000001</ele>
        <time>2025-04-24T10:26:39Z</time>
      </trkpt>
      <trkpt lat="45.980473961681128" lon="4.604694982990623">
        <ele>376.00999999999999</ele>
        <time>2025-04-24T10:26:48Z</time>
      </trkpt>
      <trkpt lat="45.980421993881464" lon="4.604584006592631">
        <ele>376.00999999999999</ele>
        <time>2025-04-24T10:26:49Z</time>
      </trkpt>
      <trkpt lat="45.980381006374955" lon="4.604447968304157">
        <ele>376.49000000000001</ele>
        <time>2025-04-24T10:26:50Z</time>
      </trkpt>
      <trkpt lat="45.980384023860097" lon="4.604302039369941">
        <ele>376.00999999999999</ele>
        <time>2025-04-24T10:26:51Z</time>
      </trkpt>
      <trkpt lat="45.980387041345239" lon="4.604146974161267">
        <ele>376.00999999999999</ele>
        <time>2025-04-24T10:26:52Z</time>
      </trkpt>
      <trkpt lat="45.98043599165976" lon="4.603261006996036">
        <ele>376.00999999999999</ele>
        <time>2025-04-24T10:26:57Z</time>
      </trkpt>
      <trkpt lat="45.980827007442713" lon="4.601313974708319">
        <ele>373.13</ele>
        <time>2025-04-24T10:27:07Z</time>
      </trkpt>
      <trkpt lat="45.981291029602289" lon="4.599530976265669">
        <ele>368.80000000000001</ele>
        <time>2025-04-24T10:27:16Z</time>
      </trkpt>
      <trkpt lat="45.981526980176568" lon="4.598656995221973">
        <ele>365.44</ele>
        <time>2025-04-24T10:27:22Z</time>
      </trkpt>
      <trkpt lat="45.981520023196936" lon="4.598506959155202">
        <ele>364.95999999999998</ele>
        <time>2025-04-24T10:27:23Z</time>
      </trkpt>
      <trkpt lat="45.981496972963214" lon="4.598404029384255">
        <ele>364.95999999999998</ele>
        <time>2025-04-24T10:27:24Z</time>
      </trkpt>
      <trkpt lat="45.981435030698776" lon="4.598323982208967">
        <ele>364.48000000000002</ele>
        <time>2025-04-24T10:27:25Z</time>
      </trkpt>
      <trkpt lat="45.981377027928829" lon="4.598251981660724">
        <ele>364.48000000000002</ele>
        <time>2025-04-24T10:27:26Z</time>
      </trkpt>
      <trkpt lat="45.981302009895444" lon="4.598192973062396">
        <ele>364.48000000000002</ele>
        <time>2025-04-24T10:27:27Z</time>
      </trkpt>
      <trkpt lat="45.981225986033678" lon="4.59821904078126">
        <ele>364.48000000000002</ele>
        <time>2025-04-24T10:27:28Z</time>
      </trkpt>
      <trkpt lat="45.981125989928842" lon="4.598256004974246">
        <ele>364.95999999999998</ele>
        <time>2025-04-24T10:27:29Z</time>
      </trkpt>
      <trkpt lat="45.981045020744205" lon="4.59835097193718">
        <ele>365.44</ele>
        <time>2025-04-24T10:27:30Z</time>
      </trkpt>
      <trkpt lat="45.980962039902806" lon="4.598462032154203">
        <ele>365.92000000000002</ele>
        <time>2025-04-24T10:27:31Z</time>
      </trkpt>
      <trkpt lat="45.980884004384279" lon="4.598581977188587">
        <ele>366.39999999999998</ele>
        <time>2025-04-24T10:27:32Z</time>
      </trkpt>
      <trkpt lat="45.980314034968615" lon="4.599452018737793">
        <ele>370.24000000000001</ele>
        <time>2025-04-24T10:27:39Z</time>
      </trkpt>
      <trkpt lat="45.980247985571623" lon="4.59955302067101">
        <ele>370.73000000000002</ele>
        <time>2025-04-24T10:27:40Z</time>
      </trkpt>
      <trkpt lat="45.98017699085176" lon="4.599602976813912">
        <ele>371.20999999999998</ele>
        <time>2025-04-24T10:27:41Z</time>
      </trkpt>
      <trkpt lat="45.980080012232065" lon="4.599644970148802">
        <ele>371.69</ele>
        <time>2025-04-24T10:27:42Z</time>
      </trkpt>
      <trkpt lat="45.979972975328565" lon="4.599644970148802">
        <ele>372.64999999999998</ele>
        <time>2025-04-24T10:27:43Z</time>
      </trkpt>
      <trkpt lat="45.979843977838755" lon="4.599644970148802">
        <ele>373.13</ele>
        <time>2025-04-24T10:27:44Z</time>
      </trkpt>
      <trkpt lat="45.979725960642099" lon="4.599644970148802">
        <ele>374.08999999999997</ele>
        <time>2025-04-24T10:27:45Z</time>
      </trkpt>
      <trkpt lat="45.979624036699533" lon="4.599692998453975">
        <ele>374.56999999999999</ele>
        <time>2025-04-24T10:27:46Z</time>
      </trkpt>
      <trkpt lat="45.979550024494529" lon="4.599801963195205">
        <ele>375.05000000000001</ele>
        <time>2025-04-24T10:27:47Z</time>
      </trkpt>
      <trkpt lat="45.979508031159639" lon="4.599938001483679">
        <ele>376.00999999999999</ele>
        <time>2025-04-24T10:27:48Z</time>
      </trkpt>
      <trkpt lat="45.979463020339608" lon="4.600086025893688">
        <ele>376.49000000000001</ele>
        <time>2025-04-24T10:27:49Z</time>
      </trkpt>
      <trkpt lat="45.979415997862816" lon="4.600242013111711">
        <ele>376.97000000000003</ele>
        <time>2025-04-24T10:27:50Z</time>
      </trkpt>
      <trkpt lat="45.979364030063152" lon="4.600411998108029">
        <ele>377.44999999999999</ele>
        <time>2025-04-24T10:27:51Z</time>
      </trkpt>
      <trkpt lat="45.979308960959315" lon="4.600592041388154">
        <ele>377.94</ele>
        <time>2025-04-24T10:27:52Z</time>
      </trkpt>
      <trkpt lat="45.979248024523258" lon="4.600768983364105">
        <ele>378.89999999999998</ele>
        <time>2025-04-24T10:27:53Z</time>
      </trkpt>
      <trkpt lat="45.979064963757992" lon="4.601104008033872">
        <ele>380.33999999999997</ele>
        <time>2025-04-24T10:27:55Z</time>
      </trkpt>
      <trkpt lat="45.978427017107606" lon="4.60209097713232">
        <ele>385.14999999999998</ele>
        <time>2025-04-24T10:28:01Z</time>
      </trkpt>
      <trkpt lat="45.977957965806127" lon="4.60337701253593">
        <ele>391.38999999999999</ele>
        <time>2025-04-24T10:28:09Z</time>
      </trkpt>
      <trkpt lat="45.977694019675255" lon="4.603969026356936">
        <ele>394.27999999999997</ele>
        <time>2025-04-24T10:28:13Z</time>
      </trkpt>
      <trkpt lat="45.97761900164187" lon="4.604134988039732">
        <ele>395.24000000000001</ele>
        <time>2025-04-24T10:28:14Z</time>
      </trkpt>
      <trkpt lat="45.976733034476638" lon="4.605902982875705">
        <ele>400.52999999999997</ele>
        <time>2025-04-24T10:28:24Z</time>
      </trkpt>
      <trkpt lat="45.976054016500711" lon="4.606718039140105">
        <ele>403.41000000000003</ele>
        <time>2025-04-24T10:28:31Z</time>
      </trkpt>
      <trkpt lat="45.975767020136118" lon="4.606902021914721">
        <ele>403.88999999999999</ele>
        <time>2025-04-24T10:28:34Z</time>
      </trkpt>
      <trkpt lat="45.975669035688043" lon="4.606945021077991">
        <ele>404.37</ele>
        <time>2025-04-24T10:28:35Z</time>
      </trkpt>
      <trkpt lat="45.975572979077697" lon="4.606977039948106">
        <ele>404.37</ele>
        <time>2025-04-24T10:28:36Z</time>
      </trkpt>
      <trkpt lat="45.975138964131474" lon="4.607046023011208">
        <ele>407.25999999999999</ele>
        <time>2025-04-24T10:28:42Z</time>
      </trkpt>
      <trkpt lat="45.975093031302094" lon="4.607022972777486">
        <ele>407.74000000000001</ele>
        <time>2025-04-24T10:28:43Z</time>
      </trkpt>
      <trkpt lat="45.97506201826036" lon="4.607006963342428">
        <ele>407.74000000000001</ele>
        <time>2025-04-24T10:28:44Z</time>
      </trkpt>
      <trkpt lat="45.975016001611948" lon="4.606983996927738">
        <ele>408.69999999999999</ele>
        <time>2025-04-24T10:28:49Z</time>
      </trkpt>
      <trkpt lat="45.975046008825302" lon="4.606924988329411">
        <ele>409.18000000000001</ele>
        <time>2025-04-24T10:28:50Z</time>
      </trkpt>
      <trkpt lat="45.975080039352179" lon="4.606859022751451">
        <ele>409.66000000000003</ele>
        <time>2025-04-24T10:28:51Z</time>
      </trkpt>
      <trkpt lat="45.975123960524797" lon="4.606773024424911">
        <ele>409.66000000000003</ele>
        <time>2025-04-24T10:28:52Z</time>
      </trkpt>
      <trkpt lat="45.97517198882997" lon="4.606678979471326">
        <ele>410.13999999999999</ele>
        <time>2025-04-24T10:28:53Z</time>
      </trkpt>
      <trkpt lat="45.975683033466339" lon="4.605670971795917">
        <ele>411.10000000000002</ele>
        <time>2025-04-24T10:29:03Z</time>
      </trkpt>
      <trkpt lat="45.975846983492374" lon="4.605342987924814">
        <ele>413.01999999999998</ele>
        <time>2025-04-24T10:29:10Z</time>
      </trkpt>
      <trkpt lat="45.975869027897716" lon="4.605297977104783">
        <ele>413.98000000000002</ele>
        <time>2025-04-24T10:29:24Z</time>
      </trkpt>
      <trkpt lat="45.9759889729321" lon="4.605046017095447">
        <ele>401.00999999999999</ele>
        <time>2025-04-24T10:37:18Z</time>
      </trkpt>
      <trkpt lat="45.975912027060986" lon="4.605212984606624">
        <ele>414.94999999999999</ele>
        <time>2025-04-24T10:37:34Z</time>
      </trkpt>
      <trkpt lat="45.976256020367146" lon="4.604477975517511">
        <ele>414.94999999999999</ele>
        <time>2025-04-24T10:37:41Z</time>
      </trkpt>
      <trkpt lat="45.976831018924713" lon="4.602706041187048">
        <ele>418.31</ele>
        <time>2025-04-24T10:37:51Z</time>
      </trkpt>
      <trkpt lat="45.977496039122343" lon="4.600231032818556">
        <ele>423.12</ele>
        <time>2025-04-24T10:38:03Z</time>
      </trkpt>
      <trkpt lat="45.977696031332016" lon="4.598682979121804">
        <ele>428.39999999999998</ele>
        <time>2025-04-24T10:38:11Z</time>
      </trkpt>
      <trkpt lat="45.977927036583424" lon="4.597193012014031">
        <ele>434.64999999999998</ele>
        <time>2025-04-24T10:38:18Z</time>
      </trkpt>
      <trkpt lat="45.9779869671911" lon="4.596943985670805">
        <ele>435.61000000000001</ele>
        <time>2025-04-24T10:38:19Z</time>
      </trkpt>
      <trkpt lat="45.978098027408123" lon="4.59674097597599">
        <ele>436.57999999999998</ele>
        <time>2025-04-24T10:38:20Z</time>
      </trkpt>
      <trkpt lat="45.978203974664211" lon="4.596547018736601">
        <ele>437.54000000000002</ele>
        <time>2025-04-24T10:38:21Z</time>
      </trkpt>
      <trkpt lat="45.978335989639163" lon="4.596411986276507">
        <ele>438.5</ele>
        <time>2025-04-24T10:38:22Z</time>
      </trkpt>
      <trkpt lat="45.978488037362695" lon="4.596293969079852">
        <ele>439.94</ele>
        <time>2025-04-24T10:38:23Z</time>
      </trkpt>
      <trkpt lat="45.978641007095575" lon="4.596182992681861">
        <ele>440.89999999999998</ele>
        <time>2025-04-24T10:38:24Z</time>
      </trkpt>
      <trkpt lat="45.978816021233797" lon="4.596119038760662">
        <ele>441.38</ele>
        <time>2025-04-24T10:38:25Z</time>
      </trkpt>
      <trkpt lat="45.978982988744974" lon="4.596057012677193">
        <ele>442.33999999999997</ele>
        <time>2025-04-24T10:38:26Z</time>
      </trkpt>
      <trkpt lat="45.979125984013081" lon="4.595961961895227">
        <ele>443.31</ele>
        <time>2025-04-24T10:38:27Z</time>
      </trkpt>
      <trkpt lat="45.979251964017749" lon="4.595850985497236">
        <ele>444.75</ele>
        <time>2025-04-24T10:38:28Z</time>
      </trkpt>
      <trkpt lat="45.97933704033494" lon="4.595697009935975">
        <ele>445.70999999999998</ele>
        <time>2025-04-24T10:38:29Z</time>
      </trkpt>
      <trkpt lat="45.979390013962984" lon="4.595507998019457">
        <ele>446.67000000000002</ele>
        <time>2025-04-24T10:38:30Z</time>
      </trkpt>
      <trkpt lat="45.979420021176338" lon="4.5953019708395">
        <ele>448.11000000000001</ele>
        <time>2025-04-24T10:38:31Z</time>
      </trkpt>
      <trkpt lat="45.979452962055802" lon="4.595081023871899">
        <ele>449.06999999999999</ele>
        <time>2025-04-24T10:38:32Z</time>
      </trkpt>
      <trkpt lat="45.979495039209723" lon="4.594857981428504">
        <ele>450.51999999999998</ele>
        <time>2025-04-24T10:38:33Z</time>
      </trkpt>
      <trkpt lat="45.979567961767316" lon="4.594660000875592">
        <ele>451.95999999999998</ele>
        <time>2025-04-24T10:38:34Z</time>
      </trkpt>
      <trkpt lat="45.979652032256126" lon="4.594477023929358">
        <ele>453.39999999999998</ele>
        <time>2025-04-24T10:38:35Z</time>
      </trkpt>
      <trkpt lat="45.979729983955622" lon="4.594306033104658">
        <ele>454.36000000000001</ele>
        <time>2025-04-24T10:38:36Z</time>
      </trkpt>
      <trkpt lat="45.979801984503865" lon="4.594147028401494">
        <ele>455.80000000000001</ele>
        <time>2025-04-24T10:38:37Z</time>
      </trkpt>
      <trkpt lat="45.979838026687503" lon="4.593965979292989">
        <ele>456.75999999999999</ele>
        <time>2025-04-24T10:38:38Z</time>
      </trkpt>
      <trkpt lat="45.979830985888839" lon="4.593767998740077">
        <ele>458.20999999999998</ele>
        <time>2025-04-24T10:38:39Z</time>
      </trkpt>
      <trkpt lat="45.979801984503865" lon="4.59356096573174">
        <ele>459.17000000000002</ele>
        <time>2025-04-24T10:38:40Z</time>
      </trkpt>
      <trkpt lat="45.979758985340595" lon="4.593346975743771">
        <ele>460.13</ele>
        <time>2025-04-24T10:38:41Z</time>
      </trkpt>
      <trkpt lat="45.979713974520564" lon="4.593127034604549">
        <ele>461.08999999999997</ele>
        <time>2025-04-24T10:38:42Z</time>
      </trkpt>
      <trkpt lat="45.979610960930586" lon="4.59254901856184">
        <ele>463.97000000000003</ele>
        <time>2025-04-24T10:38:45Z</time>
      </trkpt>
      <trkpt lat="45.979620013386011" lon="4.592379033565521">
        <ele>464.44999999999999</ele>
        <time>2025-04-24T10:38:46Z</time>
      </trkpt>
      <trkpt lat="45.979627976194024" lon="4.592212988063693">
        <ele>465.42000000000002</ele>
        <time>2025-04-24T10:38:47Z</time>
      </trkpt>
      <trkpt lat="45.979690002277493" lon="4.59205599501729">
        <ele>466.38</ele>
        <time>2025-04-24T10:38:48Z</time>
      </trkpt>
      <trkpt lat="45.979757979512215" lon="4.591899001970887">
        <ele>466.86000000000001</ele>
        <time>2025-04-24T10:38:49Z</time>
      </trkpt>
      <trkpt lat="45.979886977002025" lon="4.591790959239006">
        <ele>467.81999999999999</ele>
        <time>2025-04-24T10:38:50Z</time>
      </trkpt>
      <trkpt lat="45.980013962835073" lon="4.591686017811298">
        <ele>468.77999999999997</ele>
        <time>2025-04-24T10:38:51Z</time>
      </trkpt>
      <trkpt lat="45.980142038315535" lon="4.591578980907798">
        <ele>470.22000000000003</ele>
        <time>2025-04-24T10:38:52Z</time>
      </trkpt>
      <trkpt lat="45.980260977521539" lon="4.591449983417988">
        <ele>471.18000000000001</ele>
        <time>2025-04-24T10:38:53Z</time>
      </trkpt>
      <trkpt lat="45.980401961132884" lon="4.591298019513488">
        <ele>472.63</ele>
        <time>2025-04-24T10:38:54Z</time>
      </trkpt>
      <trkpt lat="45.980493994429708" lon="4.59113197401166">
        <ele>474.06999999999999</ele>
        <time>2025-04-24T10:38:55Z</time>
      </trkpt>
      <trkpt lat="45.980597008019686" lon="4.590945979580283">
        <ele>475.50999999999999</ele>
        <time>2025-04-24T10:38:56Z</time>
      </trkpt>
      <trkpt lat="45.980685018002987" lon="4.590746993198991">
        <ele>477.43000000000001</ele>
        <time>2025-04-24T10:38:57Z</time>
      </trkpt>
      <trkpt lat="45.980769004672766" lon="4.590548006817699">
        <ele>478.87</ele>
        <time>2025-04-24T10:38:58Z</time>
      </trkpt>
      <trkpt lat="45.98090797662735" lon="4.590183980762959">
        <ele>481.27999999999997</ele>
        <time>2025-04-24T10:39:00Z</time>
      </trkpt>
      <trkpt lat="45.980945024639368" lon="4.589997986331582">
        <ele>482.24000000000001</ele>
        <time>2025-04-24T10:39:01Z</time>
      </trkpt>
      <trkpt lat="45.980982994660735" lon="4.589808974415064">
        <ele>483.68000000000001</ele>
        <time>2025-04-24T10:39:02Z</time>
      </trkpt>
      <trkpt lat="45.981000009924173" lon="4.589619040489197">
        <ele>484.63999999999999</ele>
        <time>2025-04-24T10:39:03Z</time>
      </trkpt>
      <trkpt lat="45.98099498078227" lon="4.589416030794382">
        <ele>485.60000000000002</ele>
        <time>2025-04-24T10:39:04Z</time>
      </trkpt>
      <trkpt lat="45.980989029631019" lon="4.589212015271187">
        <ele>486.56</ele>
        <time>2025-04-24T10:39:05Z</time>
      </trkpt>
      <trkpt lat="45.981002021580935" lon="4.588814964517951">
        <ele>488.97000000000003</ele>
        <time>2025-04-24T10:39:07Z</time>
      </trkpt>
      <trkpt lat="45.981045020744205" lon="4.588653026148677">
        <ele>489.93000000000001</ele>
        <time>2025-04-24T10:39:08Z</time>
      </trkpt>
      <trkpt lat="45.981112997978926" lon="4.58853199146688">
        <ele>490.41000000000003</ele>
        <time>2025-04-24T10:39:09Z</time>
      </trkpt>
      <trkpt lat="45.981218023225665" lon="4.588437024503946">
        <ele>491.37</ele>
        <time>2025-04-24T10:39:10Z</time>
      </trkpt>
      <trkpt lat="45.981339979916811" lon="4.588327975943685">
        <ele>492.32999999999998</ele>
        <time>2025-04-24T10:39:11Z</time>
      </trkpt>
      <trkpt lat="45.98249601200223" lon="4.587293984368444">
        <ele>500.98000000000002</ele>
        <time>2025-04-24T10:39:19Z</time>
      </trkpt>
      <trkpt lat="45.983446016907692" lon="4.586451016366482">
        <ele>508.67000000000002</ele>
        <time>2025-04-24T10:39:27Z</time>
      </trkpt>
      <trkpt lat="45.983692025765777" lon="4.586206013336778">
        <ele>511.07999999999998</ele>
        <time>2025-04-24T10:39:30Z</time>
      </trkpt>
      <trkpt lat="45.983765032142401" lon="4.586132001131773">
        <ele>511.56</ele>
        <time>2025-04-24T10:39:31Z</time>
      </trkpt>
      <trkpt lat="45.983781041577458" lon="4.58603996783495">
        <ele>512.03999999999996</ele>
        <time>2025-04-24T10:39:32Z</time>
      </trkpt>
      <trkpt lat="45.983790010213852" lon="4.585945000872016">
        <ele>512.03999999999996</ele>
        <time>2025-04-24T10:39:33Z</time>
      </trkpt>
      <trkpt lat="45.983772994950414" lon="4.585840981453657">
        <ele>512.51999999999998</ele>
        <time>2025-04-24T10:39:34Z</time>
      </trkpt>
      <trkpt lat="45.983703006058931" lon="4.585800999775529">
        <ele>513</ele>
        <time>2025-04-24T10:39:35Z</time>
      </trkpt>
      <trkpt lat="45.983598986640573" lon="4.585762023925781">
        <ele>513.48000000000002</ele>
        <time>2025-04-24T10:39:36Z</time>
      </trkpt>
      <trkpt lat="45.983496978878975" lon="4.585776021704078">
        <ele>513.48000000000002</ele>
        <time>2025-04-24T10:39:37Z</time>
      </trkpt>
      <trkpt lat="45.983367981389165" lon="4.585794964805245">
        <ele>513.96000000000004</ele>
        <time>2025-04-24T10:39:38Z</time>
      </trkpt>
      <trkpt lat="45.982458963990211" lon="4.585813991725445">
        <ele>518.28999999999996</ele>
        <time>2025-04-24T10:39:44Z</time>
      </trkpt>
      <trkpt lat="45.980685018002987" lon="4.585504028946161">
        <ele>529.82000000000005</ele>
        <time>2025-04-24T10:39:54Z</time>
      </trkpt>
      <trkpt lat="45.979058006778359" lon="4.585493970662355">
        <ele>540.88</ele>
        <time>2025-04-24T10:40:03Z</time>
      </trkpt>
      <trkpt lat="45.978463981300592" lon="4.585483996197581">
        <ele>545.69000000000005</ele>
        <time>2025-04-24T10:40:07Z</time>
      </trkpt>
      <trkpt lat="45.978364991024137" lon="4.585440997034311">
        <ele>546.64999999999998</ele>
        <time>2025-04-24T10:40:08Z</time>
      </trkpt>
      <trkpt lat="45.978298019617796" lon="4.585322979837656">
        <ele>547.61000000000001</ele>
        <time>2025-04-24T10:40:09Z</time>
      </trkpt>
      <trkpt lat="45.978256026282907" lon="4.585247039794922">
        <ele>549.04999999999995</ele>
        <time>2025-04-24T10:40:10Z</time>
      </trkpt>
      <trkpt lat="45.978247979655862" lon="4.58505098707974">
        <ele>550.00999999999999</ele>
        <time>2025-04-24T10:40:11Z</time>
      </trkpt>
      <trkpt lat="45.978241022676229" lon="4.584886031225324">
        <ele>550.97000000000003</ele>
        <time>2025-04-24T10:40:12Z</time>
      </trkpt>
      <trkpt lat="45.978234987705946" lon="4.584720991551876">
        <ele>551.92999999999995</ele>
        <time>2025-04-24T10:40:13Z</time>
      </trkpt>
      <trkpt lat="45.978219984099269" lon="4.583328003063798">
        <ele>561.07000000000005</ele>
        <time>2025-04-24T10:40:23Z</time>
      </trkpt>
      <trkpt lat="45.978225013241172" lon="4.583236975595355">
        <ele>561.54999999999995</ele>
        <time>2025-04-24T10:40:24Z</time>
      </trkpt>
      <trkpt lat="45.978229036554694" lon="4.583150977268815">
        <ele>562.02999999999997</ele>
        <time>2025-04-24T10:40:25Z</time>
      </trkpt>
      <trkpt lat="45.978148989379406" lon="4.583015022799373">
        <ele>562.50999999999999</ele>
        <time>2025-04-24T10:40:26Z</time>
      </trkpt>
      <trkpt lat="45.977510958909988" lon="4.582284959033132">
        <ele>563.95000000000005</ele>
        <time>2025-04-24T10:40:33Z</time>
      </trkpt>
      <trkpt lat="45.977386990562081" lon="4.582204995676875">
        <ele>563.95000000000005</ele>
        <time>2025-04-24T10:40:34Z</time>
      </trkpt>
      <trkpt lat="45.977260004729033" lon="4.582123020663858">
        <ele>563.95000000000005</ele>
        <time>2025-04-24T10:40:35Z</time>
      </trkpt>
      <trkpt lat="45.975877996534109" lon="4.581685988232493">
        <ele>560.59000000000003</ele>
        <time>2025-04-24T10:40:44Z</time>
      </trkpt>
      <trkpt lat="45.975267039611936" lon="4.581530001014471">
        <ele>559.62</ele>
        <time>2025-04-24T10:40:48Z</time>
      </trkpt>
      <trkpt lat="45.974416024982929" lon="4.581038989126682">
        <ele>557.22000000000003</ele>
        <time>2025-04-24T10:40:54Z</time>
      </trkpt>
      <trkpt lat="45.974000031128526" lon="4.580607991665602">
        <ele>555.29999999999995</ele>
        <time>2025-04-24T10:40:58Z</time>
      </trkpt>
      <trkpt lat="45.973897017538548" lon="4.580545965582132">
        <ele>554.82000000000005</ele>
        <time>2025-04-24T10:40:59Z</time>
      </trkpt>
      <trkpt lat="45.973792998120189" lon="4.580483017489314">
        <ele>554.82000000000005</ele>
        <time>2025-04-24T10:41:00Z</time>
      </trkpt>
      <trkpt lat="45.97366701811552" lon="4.580501038581133">
        <ele>554.34000000000003</ele>
        <time>2025-04-24T10:41:01Z</time>
      </trkpt>
      <trkpt lat="45.973545983433723" lon="4.580517970025539">
        <ele>553.86000000000001</ele>
        <time>2025-04-24T10:41:02Z</time>
      </trkpt>
      <trkpt lat="45.973431989550591" lon="4.580575972795487">
        <ele>553.38</ele>
        <time>2025-04-24T10:41:03Z</time>
      </trkpt>
      <trkpt lat="45.973319001495838" lon="4.580670017749071">
        <ele>552.89999999999998</ele>
        <time>2025-04-24T10:41:04Z</time>
      </trkpt>
      <trkpt lat="45.973199978470802" lon="4.580768002197146">
        <ele>552.40999999999997</ele>
        <time>2025-04-24T10:41:05Z</time>
      </trkpt>
      <trkpt lat="45.973079027608037" lon="4.580867998301983">
        <ele>551.92999999999995</ele>
        <time>2025-04-24T10:41:06Z</time>
      </trkpt>
      <trkpt lat="45.972956987097859" lon="4.5809690002352">
        <ele>551.45000000000005</ele>
        <time>2025-04-24T10:41:07Z</time>
      </trkpt>
      <trkpt lat="45.972869982942939" lon="4.581041000783444">
        <ele>550.49000000000001</ele>
        <time>2025-04-24T10:41:08Z</time>
      </trkpt>
      <trkpt lat="45.972694968804717" lon="4.581041000783444">
        <ele>550.00999999999999</ele>
        <time>2025-04-24T10:41:09Z</time>
      </trkpt>
      <trkpt lat="45.972558008506894" lon="4.581041000783444">
        <ele>549.04999999999995</ele>
        <time>2025-04-24T10:41:10Z</time>
      </trkpt>
      <trkpt lat="45.972448037937284" lon="4.580994984135032">
        <ele>548.57000000000005</ele>
        <time>2025-04-24T10:41:11Z</time>
      </trkpt>
      <trkpt lat="45.972318034619093" lon="4.580916026607156">
        <ele>548.09000000000003</ele>
        <time>2025-04-24T10:41:12Z</time>
      </trkpt>
      <trkpt lat="45.972204962745309" lon="4.580789962783456">
        <ele>547.13</ele>
        <time>2025-04-24T10:41:13Z</time>
      </trkpt>
      <trkpt lat="45.972094992175698" lon="4.580662976950407">
        <ele>546.16999999999996</ele>
        <time>2025-04-24T10:41:14Z</time>
      </trkpt>
      <trkpt lat="45.971793998032808" lon="4.580317977815867">
        <ele>544.72000000000003</ele>
        <time>2025-04-24T10:41:17Z</time>
      </trkpt>
      <trkpt lat="45.971675980836153" lon="4.580219993367791">
        <ele>544.24000000000001</ele>
        <time>2025-04-24T10:41:18Z</time>
      </trkpt>
      <trkpt lat="45.971550000831485" lon="4.580159978941083">
        <ele>543.75999999999999</ele>
        <time>2025-04-24T10:41:19Z</time>
      </trkpt>
      <trkpt lat="45.971426032483578" lon="4.580100970342755">
        <ele>543.27999999999997</ele>
        <time>2025-04-24T10:41:20Z</time>
      </trkpt>
      <trkpt lat="45.97130298614502" lon="4.580041961744428">
        <ele>543.27999999999997</ele>
        <time>2025-04-24T10:41:21Z</time>
      </trkpt>
      <trkpt lat="45.971178011968732" lon="4.580016983672977">
        <ele>543.27999999999997</ele>
        <time>2025-04-24T10:41:22Z</time>
      </trkpt>
      <trkpt lat="45.971062006428838" lon="4.580028969794512">
        <ele>543.27999999999997</ele>
        <time>2025-04-24T10:41:23Z</time>
      </trkpt>
      <trkpt lat="45.97095999866724" lon="4.580102981999517">
        <ele>542.79999999999995</ele>
        <time>2025-04-24T10:41:24Z</time>
      </trkpt>
      <trkpt lat="45.970866959542036" lon="4.580203983932734">
        <ele>542.32000000000005</ele>
        <time>2025-04-24T10:41:25Z</time>
      </trkpt>
      <trkpt lat="45.970770986750722" lon="4.580314038321376">
        <ele>542.32000000000005</ele>
        <time>2025-04-24T10:41:26Z</time>
      </trkpt>
      <trkpt lat="45.970675013959408" lon="4.580443035811186">
        <ele>541.84000000000003</ele>
        <time>2025-04-24T10:41:27Z</time>
      </trkpt>
      <trkpt lat="45.97027201205492" lon="4.580986015498638">
        <ele>540.88</ele>
        <time>2025-04-24T10:41:31Z</time>
      </trkpt>
      <trkpt lat="45.970171010121703" lon="4.581086011603475">
        <ele>540.39999999999998</ele>
        <time>2025-04-24T10:41:32Z</time>
      </trkpt>
      <trkpt lat="45.970071014016867" lon="4.58116102963686">
        <ele>539.91999999999996</ele>
        <time>2025-04-24T10:41:33Z</time>
      </trkpt>
      <trkpt lat="45.969961965456605" lon="4.581197993829846">
        <ele>539.44000000000005</ele>
        <time>2025-04-24T10:41:34Z</time>
      </trkpt>
      <trkpt lat="45.969850989058614" lon="4.581189025193453">
        <ele>538.48000000000002</ele>
        <time>2025-04-24T10:41:35Z</time>
      </trkpt>
      <trkpt lat="45.969730960205197" lon="4.581136973574758">
        <ele>537.99000000000001</ele>
        <time>2025-04-24T10:41:36Z</time>
      </trkpt>
      <trkpt lat="45.969607997685671" lon="4.581083999946713">
        <ele>537.02999999999997</ele>
        <time>2025-04-24T10:41:37Z</time>
      </trkpt>
      <trkpt lat="45.969505989924073" lon="4.5809690002352">
        <ele>536.54999999999995</ele>
        <time>2025-04-24T10:41:38Z</time>
      </trkpt>
      <trkpt lat="45.969394007697701" lon="4.580843020230532">
        <ele>535.59000000000003</ele>
        <time>2025-04-24T10:41:39Z</time>
      </trkpt>
      <trkpt lat="45.968770980834961" lon="4.580256035551429">
        <ele>533.19000000000005</ele>
        <time>2025-04-24T10:41:44Z</time>
      </trkpt>
      <trkpt lat="45.968636032193899" lon="4.580215970054269">
        <ele>533.19000000000005</ele>
        <time>2025-04-24T10:41:45Z</time>
      </trkpt>
      <trkpt lat="45.968508962541819" lon="4.580179005861282">
        <ele>532.71000000000004</ele>
        <time>2025-04-24T10:41:46Z</time>
      </trkpt>
      <trkpt lat="45.968379965052009" lon="4.580186968669295">
        <ele>532.71000000000004</ele>
        <time>2025-04-24T10:41:47Z</time>
      </trkpt>
      <trkpt lat="45.968263037502766" lon="4.580228962004185">
        <ele>532.71000000000004</ele>
        <time>2025-04-24T10:41:48Z</time>
      </trkpt>
      <trkpt lat="45.968152983114123" lon="4.580316971987486">
        <ele>532.23000000000002</ele>
        <time>2025-04-24T10:41:49Z</time>
      </trkpt>
      <trkpt lat="45.968056004494429" lon="4.580429038032889">
        <ele>532.23000000000002</ele>
        <time>2025-04-24T10:41:50Z</time>
      </trkpt>
      <trkpt lat="45.967934969812632" lon="4.580569015815854">
        <ele>531.75</ele>
        <time>2025-04-24T10:41:51Z</time>
      </trkpt>
      <trkpt lat="45.967861041426659" lon="4.580706981942058">
        <ele>531.75</ele>
        <time>2025-04-24T10:41:52Z</time>
      </trkpt>
      <trkpt lat="45.967771019786596" lon="4.580876966938376">
        <ele>531.26999999999998</ele>
        <time>2025-04-24T10:41:53Z</time>
      </trkpt>
      <trkpt lat="45.967274978756905" lon="4.581904001533985">
        <ele>529.82000000000005</ele>
        <time>2025-04-24T10:41:59Z</time>
      </trkpt>
      <trkpt lat="45.967231979593635" lon="4.582084966823459">
        <ele>529.34000000000003</ele>
        <time>2025-04-24T10:42:00Z</time>
      </trkpt>
      <trkpt lat="45.967209013178945" lon="4.582269033417106">
        <ele>528.86000000000001</ele>
        <time>2025-04-24T10:42:01Z</time>
      </trkpt>
      <trkpt lat="45.967219993472099" lon="4.582444969564676">
        <ele>528.38</ele>
        <time>2025-04-24T10:42:02Z</time>
      </trkpt>
      <trkpt lat="45.967238014563918" lon="4.582604980096221">
        <ele>528.38</ele>
        <time>2025-04-24T10:42:03Z</time>
      </trkpt>
      <trkpt lat="45.967280007898808" lon="4.582759961485863">
        <ele>528.38</ele>
        <time>2025-04-24T10:42:04Z</time>
      </trkpt>
      <trkpt lat="45.967323007062078" lon="4.582917960360646">
        <ele>527.89999999999998</ele>
        <time>2025-04-24T10:42:05Z</time>
      </trkpt>
      <trkpt lat="45.967535991221666" lon="4.584045996889472">
        <ele>525.98000000000002</ele>
        <time>2025-04-24T10:42:11Z</time>
      </trkpt>
      <trkpt lat="45.967532973736525" lon="4.584240037947893">
        <ele>525.5</ele>
        <time>2025-04-24T10:42:12Z</time>
      </trkpt>
      <trkpt lat="45.967506989836693" lon="4.58442896604538">
        <ele>525.5</ele>
        <time>2025-04-24T10:42:13Z</time>
      </trkpt>
      <trkpt lat="45.96748000010848" lon="4.58462099544704">
        <ele>525.5</ele>
        <time>2025-04-24T10:42:14Z</time>
      </trkpt>
      <trkpt lat="45.967455022037029" lon="4.584803972393274">
        <ele>525.01999999999998</ele>
        <time>2025-04-24T10:42:15Z</time>
      </trkpt>
      <trkpt lat="45.96741596236825" lon="4.584974041208625">
        <ele>525.01999999999998</ele>
        <time>2025-04-24T10:42:16Z</time>
      </trkpt>
      <trkpt lat="45.967359971255064" lon="4.585132040083408">
        <ele>524.53999999999996</ele>
        <time>2025-04-24T10:42:17Z</time>
      </trkpt>
      <trkpt lat="45.96728403121233" lon="4.585262965410948">
        <ele>524.05999999999995</ele>
        <time>2025-04-24T10:42:18Z</time>
      </trkpt>
      <trkpt lat="45.967189986258745" lon="4.585362039506435">
        <ele>524.05999999999995</ele>
        <time>2025-04-24T10:42:19Z</time>
      </trkpt>
      <trkpt lat="45.967075992375612" lon="4.585419036448002">
        <ele>524.05999999999995</ele>
        <time>2025-04-24T10:42:20Z</time>
      </trkpt>
      <trkpt lat="45.966936014592648" lon="4.58541601896286">
        <ele>523.58000000000004</ele>
        <time>2025-04-24T10:42:21Z</time>
      </trkpt>
      <trkpt lat="45.966801987960935" lon="4.585381988435984">
        <ele>523.09000000000003</ele>
        <time>2025-04-24T10:42:22Z</time>
      </trkpt>
      <trkpt lat="45.966690005734563" lon="4.585353992879391">
        <ele>523.09000000000003</ele>
        <time>2025-04-24T10:42:23Z</time>
      </trkpt>
      <trkpt lat="45.966575006023049" lon="4.585233964025974">
        <ele>522.61000000000001</ele>
        <time>2025-04-24T10:42:24Z</time>
      </trkpt>
      <trkpt lat="45.966461012139916" lon="4.585116030648351">
        <ele>522.61000000000001</ele>
        <time>2025-04-24T10:42:25Z</time>
      </trkpt>
      <trkpt lat="45.966336959972978" lon="4.584987033158541">
        <ele>522.61000000000001</ele>
        <time>2025-04-24T10:42:26Z</time>
      </trkpt>
      <trkpt lat="45.966206034645438" lon="4.584849989041686">
        <ele>522.61000000000001</ele>
        <time>2025-04-24T10:42:27Z</time>
      </trkpt>
      <trkpt lat="45.966064967215061" lon="4.584729038178921">
        <ele>522.61000000000001</ele>
        <time>2025-04-24T10:42:28Z</time>
      </trkpt>
      <trkpt lat="45.965058971196413" lon="4.584067035466433">
        <ele>522.13</ele>
        <time>2025-04-24T10:42:36Z</time>
      </trkpt>
      <trkpt lat="45.964970961213112" lon="4.584080027416349">
        <ele>522.61000000000001</ele>
        <time>2025-04-24T10:42:37Z</time>
      </trkpt>
      <trkpt lat="45.964842969551682" lon="4.584099976345897">
        <ele>523.09000000000003</ele>
        <time>2025-04-24T10:42:44Z</time>
      </trkpt>
      <trkpt lat="45.964842969551682" lon="4.584099976345897">
        <ele>523.09000000000003</ele>
        <time>2025-04-24T10:43:01Z</time>
      </trkpt>
      <trkpt lat="45.964842969551682" lon="4.584099976345897">
        <ele>523.58000000000004</ele>
        <time>2025-04-24T10:43:39Z</time>
      </trkpt>
      <trkpt lat="45.964755965396762" lon="4.584055971354246">
        <ele>530.78999999999996</ele>
        <time>2025-04-24T11:03:10Z</time>
      </trkpt>
      <trkpt lat="45.964732998982072" lon="4.584024958312511">
        <ele>535.59000000000003</ele>
        <time>2025-04-24T11:03:45Z</time>
      </trkpt>
      <trkpt lat="45.964744985103607" lon="4.584022024646401">
        <ele>532.23000000000002</ele>
        <time>2025-04-24T11:04:28Z</time>
      </trkpt>
      <trkpt lat="45.964744985103607" lon="4.584034010767937">
        <ele>534.63</ele>
        <time>2025-04-24T11:05:14Z</time>
      </trkpt>
      <trkpt lat="45.964769041165709" lon="4.584122020751238">
        <ele>534.63</ele>
        <time>2025-04-24T11:05:33Z</time>
      </trkpt>
      <trkpt lat="45.964740039780736" lon="4.584153033792973">
        <ele>534.63</ele>
        <time>2025-04-24T11:05:34Z</time>
      </trkpt>
      <trkpt lat="45.964697040617466" lon="4.584199972450733">
        <ele>534.63</ele>
        <time>2025-04-24T11:05:35Z</time>
      </trkpt>
      <trkpt lat="45.96464297734201" lon="4.58425797522068">
        <ele>534.63</ele>
        <time>2025-04-24T11:05:36Z</time>
      </trkpt>
      <trkpt lat="45.964582962915301" lon="4.584323018789291">
        <ele>534.63</ele>
        <time>2025-04-24T11:05:37Z</time>
      </trkpt>
      <trkpt lat="45.963862035423517" lon="4.585104966536164">
        <ele>533.19000000000005</ele>
        <time>2025-04-24T11:05:46Z</time>
      </trkpt>
      <trkpt lat="45.963532961905003" lon="4.585384000092745">
        <ele>532.71000000000004</ele>
        <time>2025-04-24T11:05:49Z</time>
      </trkpt>
      <trkpt lat="45.963403964415193" lon="4.585404032841325">
        <ele>532.23000000000002</ele>
        <time>2025-04-24T11:05:50Z</time>
      </trkpt>
      <trkpt lat="45.963274966925383" lon="4.585411995649338">
        <ele>531.75</ele>
        <time>2025-04-24T11:05:51Z</time>
      </trkpt>
      <trkpt lat="45.963142029941082" lon="4.585405038669705">
        <ele>531.26999999999998</ele>
        <time>2025-04-24T11:05:52Z</time>
      </trkpt>
      <trkpt lat="45.963008003309369" lon="4.585339995101094">
        <ele>531.26999999999998</ele>
        <time>2025-04-24T11:05:53Z</time>
      </trkpt>
      <trkpt lat="45.962868025526404" lon="4.585272017866373">
        <ele>531.26999999999998</ele>
        <time>2025-04-24T11:05:54Z</time>
      </trkpt>
      <trkpt lat="45.962470974773169" lon="4.585078982636333">
        <ele>531.26999999999998</ele>
        <time>2025-04-24T11:05:57Z</time>
      </trkpt>
      <trkpt lat="45.962342983111739" lon="4.585086023434997">
        <ele>531.26999999999998</ele>
        <time>2025-04-24T11:05:58Z</time>
      </trkpt>
      <trkpt lat="45.962213985621929" lon="4.585104966536164">
        <ele>531.26999999999998</ele>
        <time>2025-04-24T11:05:59Z</time>
      </trkpt>
      <trkpt lat="45.962094040587544" lon="4.58518099039793">
        <ele>531.26999999999998</ele>
        <time>2025-04-24T11:06:00Z</time>
      </trkpt>
      <trkpt lat="45.961991026997566" lon="4.585247039794922">
        <ele>531.26999999999998</ele>
        <time>2025-04-24T11:06:01Z</time>
      </trkpt>
      <trkpt lat="45.961866974830627" lon="4.585403027012944">
        <ele>531.26999999999998</ele>
        <time>2025-04-24T11:06:02Z</time>
      </trkpt>
      <trkpt lat="45.961752980947495" lon="4.585547028109431">
        <ele>530.78999999999996</ele>
        <time>2025-04-24T11:06:03Z</time>
      </trkpt>
      <trkpt lat="45.96163596957922" lon="4.585693962872028">
        <ele>530.78999999999996</ele>
        <time>2025-04-24T11:06:04Z</time>
      </trkpt>
      <trkpt lat="45.96114001236856" lon="4.586208024993539">
        <ele>529.82000000000005</ele>
        <time>2025-04-24T11:06:08Z</time>
      </trkpt>
      <trkpt lat="45.961003974080086" lon="4.58629896864295">
        <ele>528.86000000000001</ele>
        <time>2025-04-24T11:06:09Z</time>
      </trkpt>
      <trkpt lat="45.960869025439024" lon="4.586311960592866">
        <ele>528.38</ele>
        <time>2025-04-24T11:06:10Z</time>
      </trkpt>
      <trkpt lat="45.96073298715055" lon="4.586303997784853">
        <ele>527.89999999999998</ele>
        <time>2025-04-24T11:06:11Z</time>
      </trkpt>
      <trkpt lat="45.960596026852727" lon="4.586265021935105">
        <ele>527.41999999999996</ele>
        <time>2025-04-24T11:06:12Z</time>
      </trkpt>
      <trkpt lat="45.960455965250731" lon="4.58621297031641">
        <ele>527.41999999999996</ele>
        <time>2025-04-24T11:06:13Z</time>
      </trkpt>
      <trkpt lat="45.960321016609669" lon="4.586124960333109">
        <ele>526.94000000000005</ele>
        <time>2025-04-24T11:06:14Z</time>
      </trkpt>
      <trkpt lat="45.960180032998323" lon="4.586033010855317">
        <ele>526.94000000000005</ele>
        <time>2025-04-24T11:06:15Z</time>
      </trkpt>
      <trkpt lat="45.960041983053088" lon="4.585942989215255">
        <ele>526.94000000000005</ele>
        <time>2025-04-24T11:06:16Z</time>
      </trkpt>
      <trkpt lat="45.959911979734898" lon="4.585870988667011">
        <ele>527.41999999999996</ele>
        <time>2025-04-24T11:06:17Z</time>
      </trkpt>
      <trkpt lat="45.95978700555861" lon="4.585822960361838">
        <ele>527.41999999999996</ele>
        <time>2025-04-24T11:06:18Z</time>
      </trkpt>
      <trkpt lat="45.959663959220052" lon="4.585810974240303">
        <ele>527.41999999999996</ele>
        <time>2025-04-24T11:06:19Z</time>
      </trkpt>
      <trkpt lat="45.959544014185667" lon="4.58584601059556">
        <ele>527.89999999999998</ele>
        <time>2025-04-24T11:06:20Z</time>
      </trkpt>
      <trkpt lat="45.959432031959295" lon="4.585918011143804">
        <ele>528.38</ele>
        <time>2025-04-24T11:06:21Z</time>
      </trkpt>
      <trkpt lat="45.959321977570653" lon="4.586027981713414">
        <ele>528.38</ele>
        <time>2025-04-24T11:06:22Z</time>
      </trkpt>
      <trkpt lat="45.959224998950958" lon="4.58616703748703">
        <ele>528.38</ele>
        <time>2025-04-24T11:06:23Z</time>
      </trkpt>
      <trkpt lat="45.959131959825754" lon="4.586325958371162">
        <ele>528.86000000000001</ele>
        <time>2025-04-24T11:06:24Z</time>
      </trkpt>
      <trkpt lat="45.959037998691201" lon="4.586489992216229">
        <ele>529.34000000000003</ele>
        <time>2025-04-24T11:06:25Z</time>
      </trkpt>
      <trkpt lat="45.958623010665178" lon="4.587185019627214">
        <ele>530.29999999999995</ele>
        <time>2025-04-24T11:06:29Z</time>
      </trkpt>
      <trkpt lat="45.958495019003749" lon="4.587336983531714">
        <ele>530.78999999999996</ele>
        <time>2025-04-24T11:06:30Z</time>
      </trkpt>
      <trkpt lat="45.958355041220784" lon="4.587462963536382">
        <ele>530.78999999999996</ele>
        <time>2025-04-24T11:06:31Z</time>
      </trkpt>
      <trkpt lat="45.957458009943366" lon="4.588063023984432">
        <ele>531.26999999999998</ele>
        <time>2025-04-24T11:06:37Z</time>
      </trkpt>
      <trkpt lat="45.957318032160401" lon="4.588175006210804">
        <ele>530.78999999999996</ele>
        <time>2025-04-24T11:06:38Z</time>
      </trkpt>
      <trkpt lat="45.95703799277544" lon="4.588401988148689">
        <ele>530.29999999999995</ele>
        <time>2025-04-24T11:06:40Z</time>
      </trkpt>
      <trkpt lat="45.95688502304256" lon="4.588462002575398">
        <ele>529.82000000000005</ele>
        <time>2025-04-24T11:06:41Z</time>
      </trkpt>
      <trkpt lat="45.956570031121373" lon="4.588559987023473">
        <ele>529.34000000000003</ele>
        <time>2025-04-24T11:06:43Z</time>
      </trkpt>
      <trkpt lat="45.955367982387543" lon="4.588555041700602">
        <ele>526.46000000000004</ele>
        <time>2025-04-24T11:06:51Z</time>
      </trkpt>
      <trkpt lat="45.955267986282706" lon="4.588440963998437">
        <ele>526.46000000000004</ele>
        <time>2025-04-24T11:06:52Z</time>
      </trkpt>
      <trkpt lat="45.955160027369857" lon="4.588310960680246">
        <ele>525.98000000000002</ele>
        <time>2025-04-24T11:06:53Z</time>
      </trkpt>
      <trkpt lat="45.955078974366188" lon="4.588120020925999">
        <ele>525.98000000000002</ele>
        <time>2025-04-24T11:06:54Z</time>
      </trkpt>
      <trkpt lat="45.955003034323454" lon="4.587923968210816">
        <ele>525.98000000000002</ele>
        <time>2025-04-24T11:06:55Z</time>
      </trkpt>
      <trkpt lat="45.95493103377521" lon="4.587735962122679">
        <ele>525.5</ele>
        <time>2025-04-24T11:06:56Z</time>
      </trkpt>
      <trkpt lat="45.954923992976546" lon="4.587568994611502">
        <ele>525.5</ele>
        <time>2025-04-24T11:06:57Z</time>
      </trkpt>
      <trkpt lat="45.954916030168533" lon="4.587375959381461">
        <ele>525.5</ele>
        <time>2025-04-24T11:06:58Z</time>
      </trkpt>
      <trkpt lat="45.954906977713108" lon="4.587184013798833">
        <ele>525.01999999999998</ele>
        <time>2025-04-24T11:06:59Z</time>
      </trkpt>
      <trkpt lat="45.954899014905095" lon="4.586992990225554">
        <ele>525.01999999999998</ele>
        <time>2025-04-24T11:07:00Z</time>
      </trkpt>
      <trkpt lat="45.95488996244967" lon="4.586796015501022">
        <ele>525.01999999999998</ele>
        <time>2025-04-24T11:07:01Z</time>
      </trkpt>
      <trkpt lat="45.954720983281732" lon="4.586005015298724">
        <ele>525.01999999999998</ele>
        <time>2025-04-24T11:07:05Z</time>
      </trkpt>
      <trkpt lat="45.9545240085572" lon="4.585431022569537">
        <ele>525.01999999999998</ele>
        <time>2025-04-24T11:07:08Z</time>
      </trkpt>
      <trkpt lat="45.954435998573899" lon="4.585248967632651">
        <ele>525.01999999999998</ele>
        <time>2025-04-24T11:07:09Z</time>
      </trkpt>
      <trkpt lat="45.954341031610966" lon="4.585079988464713">
        <ele>525.5</ele>
        <time>2025-04-24T11:07:10Z</time>
      </trkpt>
      <trkpt lat="45.953105036169291" lon="4.58378498442471">
        <ele>527.41999999999996</ele>
        <time>2025-04-24T11:07:20Z</time>
      </trkpt>
      <trkpt lat="45.952964974567294" lon="4.583689011633396">
        <ele>527.89999999999998</ele>
        <time>2025-04-24T11:07:21Z</time>
      </trkpt>
      <trkpt lat="45.951571986079216" lon="4.583233958110213">
        <ele>529.82000000000005</ele>
        <time>2025-04-24T11:07:30Z</time>
      </trkpt>
      <trkpt lat="45.950198024511337" lon="4.583029020577669">
        <ele>531.26999999999998</ele>
        <time>2025-04-24T11:07:40Z</time>
      </trkpt>
      <trkpt lat="45.949931982904673" lon="4.582993984222412">
        <ele>531.26999999999998</ele>
        <time>2025-04-24T11:07:44Z</time>
      </trkpt>
      <trkpt lat="45.949889989569783" lon="4.582999013364315">
        <ele>531.75</ele>
        <time>2025-04-24T11:07:45Z</time>
      </trkpt>
      <trkpt lat="45.949842967092991" lon="4.583004964515567">
        <ele>531.75</ele>
        <time>2025-04-24T11:07:46Z</time>
      </trkpt>
      <trkpt lat="45.949679017066956" lon="4.583032038062811">
        <ele>531.75</ele>
        <time>2025-04-24T11:07:49Z</time>
      </trkpt>
      <trkpt lat="45.949617996811867" lon="4.583044024184346">
        <ele>532.23000000000002</ele>
        <time>2025-04-24T11:07:50Z</time>
      </trkpt>
      <trkpt lat="45.94955999404192" lon="4.583055004477501">
        <ele>532.23000000000002</ele>
        <time>2025-04-24T11:07:51Z</time>
      </trkpt>
      <trkpt lat="45.94932203181088" lon="4.583146031945944">
        <ele>531.75</ele>
        <time>2025-04-24T11:07:55Z</time>
      </trkpt>
      <trkpt lat="45.949099995195866" lon="4.583273017778993">
        <ele>531.75</ele>
        <time>2025-04-24T11:07:59Z</time>
      </trkpt>
      <trkpt lat="45.949063031002879" lon="4.583293972536922">
        <ele>531.75</ele>
        <time>2025-04-24T11:08:00Z</time>
      </trkpt>
      <trkpt lat="45.949033023789525" lon="4.58331098780036">
        <ele>531.75</ele>
        <time>2025-04-24T11:08:01Z</time>
      </trkpt>
      <trkpt lat="45.948972003534436" lon="4.583253990858793">
        <ele>531.26999999999998</ele>
        <time>2025-04-24T11:08:02Z</time>
      </trkpt>
      <trkpt lat="45.948960017412901" lon="4.583190958946943">
        <ele>530.78999999999996</ele>
        <time>2025-04-24T11:08:03Z</time>
      </trkpt>
      <trkpt lat="45.948946019634604" lon="4.583114013075829">
        <ele>530.78999999999996</ele>
        <time>2025-04-24T11:08:04Z</time>
      </trkpt>
      <trkpt lat="45.948922969400883" lon="4.582993984222412">
        <ele>530.29999999999995</ele>
        <time>2025-04-24T11:08:05Z</time>
      </trkpt>
      <trkpt lat="45.948781985789537" lon="4.582170965149999">
        <ele>526.94000000000005</ele>
        <time>2025-04-24T11:08:14Z</time>
      </trkpt>
      <trkpt lat="45.948759019374847" lon="4.582059988752008">
        <ele>526.94000000000005</ele>
        <time>2025-04-24T11:08:15Z</time>
      </trkpt>
      <trkpt lat="45.948717026039958" lon="4.581876005977392">
        <ele>526.94000000000005</ele>
        <time>2025-04-24T11:08:17Z</time>
      </trkpt>
      <trkpt lat="45.948663968592882" lon="4.581779027357698">
        <ele>526.94000000000005</ele>
        <time>2025-04-24T11:08:18Z</time>
      </trkpt>
      <trkpt lat="45.948609989136457" lon="4.581681964918971">
        <ele>526.46000000000004</ele>
        <time>2025-04-24T11:08:19Z</time>
      </trkpt>
      <trkpt lat="45.948555003851652" lon="4.581580962985754">
        <ele>526.46000000000004</ele>
        <time>2025-04-24T11:08:20Z</time>
      </trkpt>
      <trkpt lat="45.948493983596563" lon="4.581470992416143">
        <ele>525.98000000000002</ele>
        <time>2025-04-24T11:08:21Z</time>
      </trkpt>
      <trkpt lat="45.948426006361842" lon="4.581411983817816">
        <ele>525.01999999999998</ele>
        <time>2025-04-24T11:08:22Z</time>
      </trkpt>
      <trkpt lat="45.948263984173536" lon="4.581274017691612">
        <ele>522.61000000000001</ele>
        <time>2025-04-24T11:08:24Z</time>
      </trkpt>
      <trkpt lat="45.948188966140151" lon="4.581210985779762">
        <ele>521.64999999999998</ele>
        <time>2025-04-24T11:08:25Z</time>
      </trkpt>
      <trkpt lat="45.948097016662359" lon="4.581177039071918">
        <ele>520.21000000000004</ele>
        <time>2025-04-24T11:08:26Z</time>
      </trkpt>
      <trkpt lat="45.947850001975894" lon="4.581083999946713">
        <ele>516.85000000000002</ele>
        <time>2025-04-24T11:08:29Z</time>
      </trkpt>
      <trkpt lat="45.947091020643711" lon="4.581039994955063">
        <ele>509.16000000000003</ele>
        <time>2025-04-24T11:08:39Z</time>
      </trkpt>
      <trkpt lat="45.946176974102855" lon="4.581369990482926">
        <ele>504.82999999999998</ele>
        <time>2025-04-24T11:08:48Z</time>
      </trkpt>
      <trkpt lat="45.94526301138103" lon="4.581617005169392">
        <ele>501.45999999999998</ele>
        <time>2025-04-24T11:08:56Z</time>
      </trkpt>
      <trkpt lat="45.945135019719601" lon="4.581600995734334">
        <ele>500.98000000000002</ele>
        <time>2025-04-24T11:08:57Z</time>
      </trkpt>
      <trkpt lat="45.943870022892952" lon="4.581220960244536">
        <ele>493.76999999999998</ele>
        <time>2025-04-24T11:09:06Z</time>
      </trkpt>
      <trkpt lat="45.942160030826926" lon="4.580557029694319">
        <ele>483.19999999999999</ele>
        <time>2025-04-24T11:09:17Z</time>
      </trkpt>
      <trkpt lat="45.940977009013295" lon="4.579695034772158">
        <ele>472.63</ele>
        <time>2025-04-24T11:09:24Z</time>
      </trkpt>
      <trkpt lat="45.94010503962636" lon="4.579093968495727">
        <ele>465.42000000000002</ele>
        <time>2025-04-24T11:09:29Z</time>
      </trkpt>
      <trkpt lat="45.939188981428742" lon="4.578789034858346">
        <ele>460.13</ele>
        <time>2025-04-24T11:09:34Z</time>
      </trkpt>
      <trkpt lat="45.939006004482508" lon="4.578803032636643">
        <ele>459.64999999999998</ele>
        <time>2025-04-24T11:09:35Z</time>
      </trkpt>
      <trkpt lat="45.936866020783782" lon="4.579072007909417">
        <ele>448.11000000000001</ele>
        <time>2025-04-24T11:09:47Z</time>
      </trkpt>
      <trkpt lat="45.934772975742817" lon="4.579757982864976">
        <ele>437.54000000000002</ele>
        <time>2025-04-24T11:09:59Z</time>
      </trkpt>
      <trkpt lat="45.933181000873446" lon="4.58038997836411">
        <ele>432.25</ele>
        <time>2025-04-24T11:10:08Z</time>
      </trkpt>
      <trkpt lat="45.932379020377994" lon="4.580664988607168">
        <ele>427.44</ele>
        <time>2025-04-24T11:10:15Z</time>
      </trkpt>
      <trkpt lat="45.93228698708117" lon="4.580687033012509">
        <ele>426.95999999999998</ele>
        <time>2025-04-24T11:10:16Z</time>
      </trkpt>
      <trkpt lat="45.932191014289856" lon="4.580709999427199">
        <ele>426</ele>
        <time>2025-04-24T11:10:17Z</time>
      </trkpt>
      <trkpt lat="45.932095963507891" lon="4.580731960013509">
        <ele>425.51999999999998</ele>
        <time>2025-04-24T11:10:18Z</time>
      </trkpt>
      <trkpt lat="45.932004014030099" lon="4.58075400441885">
        <ele>425.04000000000002</ele>
        <time>2025-04-24T11:10:19Z</time>
      </trkpt>
      <trkpt lat="45.931914998218417" lon="4.580748975276947">
        <ele>425.04000000000002</ele>
        <time>2025-04-24T11:10:20Z</time>
      </trkpt>
      <trkpt lat="45.931825982406735" lon="4.580728020519018">
        <ele>424.56</ele>
        <time>2025-04-24T11:10:21Z</time>
      </trkpt>
      <trkpt lat="45.931573016569018" lon="4.580667000263929">
        <ele>423.60000000000002</ele>
        <time>2025-04-24T11:10:24Z</time>
      </trkpt>
      <trkpt lat="45.931499004364014" lon="4.580648979172111">
        <ele>423.60000000000002</ele>
        <time>2025-04-24T11:10:25Z</time>
      </trkpt>
      <trkpt lat="45.930829038843513" lon="4.580429960042238">
        <ele>419.75</ele>
        <time>2025-04-24T11:10:32Z</time>
      </trkpt>
      <trkpt lat="45.930702975019813" lon="4.580419985577464">
        <ele>418.31</ele>
        <time>2025-04-24T11:10:33Z</time>
      </trkpt>
      <trkpt lat="45.930573977530003" lon="4.580435995012522">
        <ele>417.35000000000002</ele>
        <time>2025-04-24T11:10:34Z</time>
      </trkpt>
      <trkpt lat="45.929077975451946" lon="4.580895993858576">
        <ele>407.74000000000001</ele>
        <time>2025-04-24T11:10:44Z</time>
      </trkpt>
      <trkpt lat="45.927173020318151" lon="4.581593032926321">
        <ele>396.19999999999999</ele>
        <time>2025-04-24T11:10:56Z</time>
      </trkpt>
      <trkpt lat="45.926267020404339" lon="4.581891009584069">
        <ele>388.99000000000001</ele>
        <time>2025-04-24T11:11:04Z</time>
      </trkpt>
      <trkpt lat="45.926042972132564" lon="4.581954041495919">
        <ele>386.11000000000001</ele>
        <time>2025-04-24T11:11:07Z</time>
      </trkpt>
      <trkpt lat="45.925898971036077" lon="4.581985976547003">
        <ele>384.18000000000001</ele>
        <time>2025-04-24T11:11:09Z</time>
      </trkpt>
      <trkpt lat="45.925839962437749" lon="4.582014977931976">
        <ele>383.22000000000003</ele>
        <time>2025-04-24T11:11:10Z</time>
      </trkpt>
      <trkpt lat="45.925763016566634" lon="4.582054037600756">
        <ele>382.25999999999999</ele>
        <time>2025-04-24T11:11:11Z</time>
      </trkpt>
      <trkpt lat="45.925676012411714" lon="4.582097036764026">
        <ele>381.30000000000001</ele>
        <time>2025-04-24T11:11:12Z</time>
      </trkpt>
      <trkpt lat="45.92558397911489" lon="4.582142969593406">
        <ele>380.33999999999997</ele>
        <time>2025-04-24T11:11:13Z</time>
      </trkpt>
      <trkpt lat="45.925062960013747" lon="4.582403982058168">
        <ele>377.44999999999999</ele>
        <time>2025-04-24T11:11:19Z</time>
      </trkpt>
      <trkpt lat="45.924935974180698" lon="4.58247397094965">
        <ele>376.97000000000003</ele>
        <time>2025-04-24T11:11:21Z</time>
      </trkpt>
      <trkpt lat="45.92438000254333" lon="4.582895999774337">
        <ele>377.94</ele>
        <time>2025-04-24T11:11:31Z</time>
      </trkpt>
      <trkpt lat="45.924325017258525" lon="4.582943022251129">
        <ele>377.94</ele>
        <time>2025-04-24T11:11:32Z</time>
      </trkpt>
      <trkpt lat="45.9242710378021" lon="4.582989038899541">
        <ele>377.94</ele>
        <time>2025-04-24T11:11:33Z</time>
      </trkpt>
      <trkpt lat="45.923697967082262" lon="4.5835040230304">
        <ele>376.97000000000003</ele>
        <time>2025-04-24T11:11:42Z</time>
      </trkpt>
      <trkpt lat="45.923518007621169" lon="4.583673002198339">
        <ele>376.49000000000001</ele>
        <time>2025-04-24T11:11:45Z</time>
      </trkpt>
      <trkpt lat="45.923223970457911" lon="4.583961004391313">
        <ele>376.97000000000003</ele>
        <time>2025-04-24T11:11:50Z</time>
      </trkpt>
      <trkpt lat="45.922850975766778" lon="4.584444975480437">
        <ele>376.97000000000003</ele>
        <time>2025-04-24T11:11:57Z</time>
      </trkpt>
      <trkpt lat="45.922790039330721" lon="4.584520999342203">
        <ele>376.97000000000003</ele>
        <time>2025-04-24T11:11:58Z</time>
      </trkpt>
      <trkpt lat="45.922731030732393" lon="4.584588976576924">
        <ele>377.44999999999999</ele>
        <time>2025-04-24T11:11:59Z</time>
      </trkpt>
      <trkpt lat="45.922157038003206" lon="4.585160035640001">
        <ele>377.44999999999999</ele>
        <time>2025-04-24T11:12:10Z</time>
      </trkpt>
      <trkpt lat="45.922005996108055" lon="4.585302025079727">
        <ele>376.97000000000003</ele>
        <time>2025-04-24T11:12:13Z</time>
      </trkpt>
      <trkpt lat="45.921956961974502" lon="4.585348041728139">
        <ele>376.97000000000003</ele>
        <time>2025-04-24T11:12:14Z</time>
      </trkpt>
      <trkpt lat="45.921843973919749" lon="4.585376037284732">
        <ele>376.49000000000001</ele>
        <time>2025-04-24T11:12:16Z</time>
      </trkpt>
      <trkpt lat="45.921833999454975" lon="4.585359022021294">
        <ele>376.00999999999999</ele>
        <time>2025-04-24T11:12:17Z</time>
      </trkpt>
      <trkpt lat="45.921799968928099" lon="4.585304036736488">
        <ele>376.00999999999999</ele>
        <time>2025-04-24T11:12:18Z</time>
      </trkpt>
      <trkpt lat="45.921767028048635" lon="4.585236981511116">
        <ele>376.00999999999999</ele>
        <time>2025-04-24T11:12:19Z</time>
      </trkpt>
      <trkpt lat="45.921731991693377" lon="4.585147965699434">
        <ele>376.00999999999999</ele>
        <time>2025-04-24T11:12:20Z</time>
      </trkpt>
      <trkpt lat="45.921658985316753" lon="4.584958031773567">
        <ele>375.52999999999997</ele>
        <time>2025-04-24T11:12:22Z</time>
      </trkpt>
      <trkpt lat="45.921628978103399" lon="4.584882007911801">
        <ele>375.05000000000001</ele>
        <time>2025-04-24T11:12:23Z</time>
      </trkpt>
      <trkpt lat="45.921581033617258" lon="4.584804978221655">
        <ele>374.56999999999999</ele>
        <time>2025-04-24T11:12:24Z</time>
      </trkpt>
      <trkpt lat="45.921539962291718" lon="4.584740018472076">
        <ele>374.08999999999997</ele>
        <time>2025-04-24T11:12:25Z</time>
      </trkpt>
      <trkpt lat="45.921497968956828" lon="4.584674974903464">
        <ele>374.08999999999997</ele>
        <time>2025-04-24T11:12:26Z</time>
      </trkpt>
      <trkpt lat="45.921454969793558" lon="4.584610015153885">
        <ele>373.61000000000001</ele>
        <time>2025-04-24T11:12:27Z</time>
      </trkpt>
      <trkpt lat="45.921351034194231" lon="4.584455033764243">
        <ele>372.64999999999998</ele>
        <time>2025-04-24T11:12:29Z</time>
      </trkpt>
      <trkpt lat="45.921299988403916" lon="4.584378004074097">
        <ele>372.17000000000002</ele>
        <time>2025-04-24T11:12:30Z</time>
      </trkpt>
      <trkpt lat="45.921250032261014" lon="4.584303991869092">
        <ele>371.69</ele>
        <time>2025-04-24T11:12:31Z</time>
      </trkpt>
      <trkpt lat="45.921194963157177" lon="4.584244983270764">
        <ele>371.20999999999998</ele>
        <time>2025-04-24T11:12:32Z</time>
      </trkpt>
      <trkpt lat="45.921132015064359" lon="4.584208019077778">
        <ele>371.20999999999998</ele>
        <time>2025-04-24T11:12:33Z</time>
      </trkpt>
      <trkpt lat="45.921067977324128" lon="4.58417097106576">
        <ele>370.73000000000002</ele>
        <time>2025-04-24T11:12:34Z</time>
      </trkpt>
      <trkpt lat="45.921002011746168" lon="4.584131995216012">
        <ele>370.24000000000001</ele>
        <time>2025-04-24T11:12:35Z</time>
      </trkpt>
      <trkpt lat="45.920931017026305" lon="4.584101988002658">
        <ele>369.27999999999997</ele>
        <time>2025-04-24T11:12:36Z</time>
      </trkpt>
      <trkpt lat="45.920866979286075" lon="4.584087990224361">
        <ele>368.80000000000001</ele>
        <time>2025-04-24T11:12:37Z</time>
      </trkpt>
      <trkpt lat="45.920801013708115" lon="4.584071980789304">
        <ele>367.83999999999997</ele>
        <time>2025-04-24T11:12:38Z</time>
      </trkpt>
      <trkpt lat="45.920736975967884" lon="4.584056977182627">
        <ele>366.39999999999998</ele>
        <time>2025-04-24T11:12:39Z</time>
      </trkpt>
      <trkpt lat="45.920666987076402" lon="4.584048008546233">
        <ele>364.95999999999998</ele>
        <time>2025-04-24T11:12:40Z</time>
      </trkpt>
      <trkpt lat="45.9205980040133" lon="4.584056977182627">
        <ele>363.51999999999998</ele>
        <time>2025-04-24T11:12:41Z</time>
      </trkpt>
      <trkpt lat="45.920483004301786" lon="4.584072986617684">
        <ele>360.63</ele>
        <time>2025-04-24T11:12:43Z</time>
      </trkpt>
      <trkpt lat="45.920129036530852" lon="4.584055971354246">
        <ele>353.89999999999998</ele>
        <time>2025-04-24T11:12:49Z</time>
      </trkpt>
      <trkpt lat="45.920072039589286" lon="4.58402001298964">
        <ele>352.94</ele>
        <time>2025-04-24T11:12:50Z</time>
      </trkpt>
      <trkpt lat="45.920016970485449" lon="4.583984976634383">
        <ele>352.45999999999998</ele>
        <time>2025-04-24T11:12:51Z</time>
      </trkpt>
      <trkpt lat="45.919918986037374" lon="4.583878023549914">
        <ele>351.01999999999998</ele>
        <time>2025-04-24T11:12:53Z</time>
      </trkpt>
      <trkpt lat="45.919696027413011" lon="4.583545010536909">
        <ele>349.10000000000002</ele>
        <time>2025-04-24T11:12:57Z</time>
      </trkpt>
      <trkpt lat="45.919643975794315" lon="4.583455994725227">
        <ele>348.62</ele>
        <time>2025-04-24T11:12:58Z</time>
      </trkpt>
      <trkpt lat="45.919430991634727" lon="4.583056010305882">
        <ele>345.25</ele>
        <time>2025-04-24T11:13:03Z</time>
      </trkpt>
      <trkpt lat="45.918946014717221" lon="4.582060994580388">
        <ele>335.16000000000003</ele>
        <time>2025-04-24T11:13:16Z</time>
      </trkpt>
      <trkpt lat="45.91853303834796" lon="4.581168992444873">
        <ele>329.87</ele>
        <time>2025-04-24T11:13:27Z</time>
      </trkpt>
      <trkpt lat="45.918078990653157" lon="4.580212030559778">
        <ele>327.47000000000003</ele>
        <time>2025-04-24T11:13:38Z</time>
      </trkpt>
      <trkpt lat="45.917752012610435" lon="4.579569976776838">
        <ele>326.01999999999998</ele>
        <time>2025-04-24T11:13:44Z</time>
      </trkpt>
      <trkpt lat="45.917686969041824" lon="4.579460006207228">
        <ele>325.54000000000002</ele>
        <time>2025-04-24T11:13:45Z</time>
      </trkpt>
      <trkpt lat="45.917544979602098" lon="4.579220032319427">
        <ele>325.06</ele>
        <time>2025-04-24T11:13:47Z</time>
      </trkpt>
      <trkpt lat="45.917456969618797" lon="4.579112995415926">
        <ele>324.10000000000002</ele>
        <time>2025-04-24T11:13:48Z</time>
      </trkpt>
      <trkpt lat="45.917360996827483" lon="4.579005958512425">
        <ele>323.62</ele>
        <time>2025-04-24T11:13:49Z</time>
      </trkpt>
      <trkpt lat="45.916974004358053" lon="4.578570015728474">
        <ele>321.69999999999999</ele>
        <time>2025-04-24T11:13:53Z</time>
      </trkpt>
      <trkpt lat="45.916049983352423" lon="4.577179038897157">
        <ele>316.88999999999999</ele>
        <time>2025-04-24T11:14:02Z</time>
      </trkpt>
      <trkpt lat="45.914964023977518" lon="4.57611202262342">
        <ele>309.19999999999999</ele>
        <time>2025-04-24T11:14:10Z</time>
      </trkpt>
      <trkpt lat="45.91393799521029" lon="4.574847025796771">
        <ele>301.99000000000001</ele>
        <time>2025-04-24T11:14:18Z</time>
      </trkpt>
      <trkpt lat="45.913423011079431" lon="4.573854021728039">
        <ele>295.74000000000001</ele>
        <time>2025-04-24T11:14:23Z</time>
      </trkpt>
      <trkpt lat="45.913288984447718" lon="4.573731981217861">
        <ele>294.30000000000001</ele>
        <time>2025-04-24T11:14:24Z</time>
      </trkpt>
      <trkpt lat="45.913174990564585" lon="4.573638020083308">
        <ele>292.86000000000001</ele>
        <time>2025-04-24T11:14:25Z</time>
      </trkpt>
      <trkpt lat="45.912997964769602" lon="4.573575993999839">
        <ele>291.42000000000002</ele>
        <time>2025-04-24T11:14:26Z</time>
      </trkpt>
      <trkpt lat="45.91284298337996" lon="4.573537018150091">
        <ele>289.97000000000003</ele>
        <time>2025-04-24T11:14:27Z</time>
      </trkpt>
      <trkpt lat="45.912679033353925" lon="4.573566019535065">
        <ele>288.52999999999997</ele>
        <time>2025-04-24T11:14:28Z</time>
      </trkpt>
      <trkpt lat="45.912509970366955" lon="4.573597032576799">
        <ele>287.08999999999997</ele>
        <time>2025-04-24T11:14:29Z</time>
      </trkpt>
      <trkpt lat="45.911495005711913" lon="4.573780009523034">
        <ele>280.83999999999997</ele>
        <time>2025-04-24T11:14:35Z</time>
      </trkpt>
      <trkpt lat="45.910551035776734" lon="4.574105981737375">
        <ele>276.51999999999998</ele>
        <time>2025-04-24T11:14:41Z</time>
      </trkpt>
      <trkpt lat="45.910387001931667" lon="4.574132971465588">
        <ele>275.56</ele>
        <time>2025-04-24T11:14:42Z</time>
      </trkpt>
      <trkpt lat="45.909585021436214" lon="4.574106987565756">
        <ele>271.23000000000002</ele>
        <time>2025-04-24T11:14:48Z</time>
      </trkpt>
      <trkpt lat="45.909251002594829" lon="4.573980001732707">
        <ele>268.35000000000002</ele>
        <time>2025-04-24T11:14:51Z</time>
      </trkpt>
      <trkpt lat="45.909070959314704" lon="4.573885034769774">
        <ele>266.89999999999998</ele>
        <time>2025-04-24T11:14:53Z</time>
      </trkpt>
      <trkpt lat="45.908982027322054" lon="4.573838012292981">
        <ele>265.94</ele>
        <time>2025-04-24T11:14:54Z</time>
      </trkpt>
      <trkpt lat="45.908526973798871" lon="4.573527965694666">
        <ele>260.64999999999998</ele>
        <time>2025-04-24T11:15:00Z</time>
      </trkpt>
      <trkpt lat="45.90848003514111" lon="4.573460994288325">
        <ele>260.17000000000002</ele>
        <time>2025-04-24T11:15:01Z</time>
      </trkpt>
      <trkpt lat="45.908453967422247" lon="4.573424030095339">
        <ele>259.20999999999998</ele>
        <time>2025-04-24T11:15:02Z</time>
      </trkpt>
      <trkpt lat="45.90846000239253" lon="4.573326967656612">
        <ele>258.73000000000002</ele>
        <time>2025-04-24T11:15:03Z</time>
      </trkpt>
      <trkpt lat="45.908462014049292" lon="4.573290003463626">
        <ele>257.76999999999998</ele>
        <time>2025-04-24T11:15:04Z</time>
      </trkpt>
      <trkpt lat="45.908462014049292" lon="4.573290003463626">
        <ele>257.29000000000002</ele>
        <time>2025-04-24T11:15:05Z</time>
      </trkpt>
      <trkpt lat="45.908464025706053" lon="4.573263013735414">
        <ele>256.32999999999998</ele>
        <time>2025-04-24T11:15:18Z</time>
      </trkpt>
      <trkpt lat="45.908408034592867" lon="4.573085987940431">
        <ele>255.84999999999999</ele>
        <time>2025-04-24T11:15:19Z</time>
      </trkpt>
      <trkpt lat="45.90835296548903" lon="4.573091017082334">
        <ele>255.37</ele>
        <time>2025-04-24T11:15:20Z</time>
      </trkpt>
      <trkpt lat="45.908268978819251" lon="4.573097974061966">
        <ele>254.88999999999999</ele>
        <time>2025-04-24T11:15:21Z</time>
      </trkpt>
      <trkpt lat="45.908165965229273" lon="4.573107026517391">
        <ele>254.41</ele>
        <time>2025-04-24T11:15:22Z</time>
      </trkpt>
      <trkpt lat="45.908050965517759" lon="4.573117000982165">
        <ele>253.93000000000001</ele>
        <time>2025-04-24T11:15:23Z</time>
      </trkpt>
      <trkpt lat="45.907920962199569" lon="4.573146002367139">
        <ele>253.44</ele>
        <time>2025-04-24T11:15:24Z</time>
      </trkpt>
      <trkpt lat="45.907778972759843" lon="4.573218002915382">
        <ele>252.96000000000001</ele>
        <time>2025-04-24T11:15:25Z</time>
      </trkpt>
      <trkpt lat="45.907661039382219" lon="4.573327973484993">
        <ele>252.47999999999999</ele>
        <time>2025-04-24T11:15:26Z</time>
      </trkpt>
      <trkpt lat="45.907548973336816" lon="4.573434004560113">
        <ele>252</ele>
        <time>2025-04-24T11:15:27Z</time>
      </trkpt>
      <trkpt lat="45.907439002767205" lon="4.573541963472962">
        <ele>251.52000000000001</ele>
        <time>2025-04-24T11:15:28Z</time>
      </trkpt>
      <trkpt lat="45.907368008047342" lon="4.573654029518366">
        <ele>251.03999999999999</ele>
        <time>2025-04-24T11:15:29Z</time>
      </trkpt>
      <trkpt lat="45.907307993620634" lon="4.573747990652919">
        <ele>250.56</ele>
        <time>2025-04-24T11:15:30Z</time>
      </trkpt>
      <trkpt lat="45.907215038314462" lon="4.573896015062928">
        <ele>249.59999999999999</ele>
        <time>2025-04-24T11:15:32Z</time>
      </trkpt>
      <trkpt lat="45.907172961160541" lon="4.57394203171134">
        <ele>249.12</ele>
        <time>2025-04-24T11:15:33Z</time>
      </trkpt>
      <trkpt lat="45.907081011682749" lon="4.573959968984127">
        <ele>249.12</ele>
        <time>2025-04-24T11:15:34Z</time>
      </trkpt>
      <trkpt lat="45.907030971720815" lon="4.573953012004495">
        <ele>248.63999999999999</ele>
        <time>2025-04-24T11:15:35Z</time>
      </trkpt>
      <trkpt lat="45.906959977000952" lon="4.573928033933044">
        <ele>248.16</ele>
        <time>2025-04-24T11:15:36Z</time>
      </trkpt>
      <trkpt lat="45.906896023079753" lon="4.573876988142729">
        <ele>248.16</ele>
        <time>2025-04-24T11:15:37Z</time>
      </trkpt>
      <trkpt lat="45.906822010874748" lon="4.573824014514685">
        <ele>248.16</ele>
        <time>2025-04-24T11:15:38Z</time>
      </trkpt>
      <trkpt lat="45.906242989003658" lon="4.573448002338409">
        <ele>250.08000000000001</ele>
        <time>2025-04-24T11:15:45Z</time>
      </trkpt>
      <trkpt lat="45.906162019819021" lon="4.573414977639914">
        <ele>250.08000000000001</ele>
        <time>2025-04-24T11:15:46Z</time>
      </trkpt>
      <trkpt lat="45.906070992350578" lon="4.573394022881985">
        <ele>250.56</ele>
        <time>2025-04-24T11:15:47Z</time>
      </trkpt>
      <trkpt lat="45.905824983492494" lon="4.573338031768799">
        <ele>250.56</ele>
        <time>2025-04-24T11:15:50Z</time>
      </trkpt>
      <trkpt lat="45.90572901070118" lon="4.573316993191838">
        <ele>251.03999999999999</ele>
        <time>2025-04-24T11:15:51Z</time>
      </trkpt>
      <trkpt lat="45.905664972960949" lon="4.573101997375488">
        <ele>251.03999999999999</ele>
        <time>2025-04-24T11:15:52Z</time>
      </trkpt>
      <trkpt lat="45.905664972960949" lon="4.573101997375488">
        <ele>251.03999999999999</ele>
        <time>2025-04-24T11:15:53Z</time>
      </trkpt>
      <trkpt lat="45.90562398545444" lon="4.573021028190851">
        <ele>251.52000000000001</ele>
        <time>2025-04-24T11:15:54Z</time>
      </trkpt>
      <trkpt lat="45.905522983521223" lon="4.57299898378551">
        <ele>252</ele>
        <time>2025-04-24T11:15:55Z</time>
      </trkpt>
      <trkpt lat="45.90547101572156" lon="4.573015999048948">
        <ele>252.47999999999999</ele>
        <time>2025-04-24T11:15:56Z</time>
      </trkpt>
      <trkpt lat="45.90534201823175" lon="4.573046006262302">
        <ele>252.47999999999999</ele>
        <time>2025-04-24T11:15:57Z</time>
      </trkpt>
      <trkpt lat="45.905253002420068" lon="4.572969982400537">
        <ele>252.96000000000001</ele>
        <time>2025-04-24T11:15:58Z</time>
      </trkpt>
      <trkpt lat="45.905162980780005" lon="4.572879038751125">
        <ele>253.93000000000001</ele>
        <time>2025-04-24T11:15:59Z</time>
      </trkpt>
      <trkpt lat="45.905059967190027" lon="4.572777030989528">
        <ele>254.41</ele>
        <time>2025-04-24T11:16:00Z</time>
      </trkpt>
      <trkpt lat="45.904949996620417" lon="4.572659013792872">
        <ele>254.88999999999999</ele>
        <time>2025-04-24T11:16:01Z</time>
      </trkpt>
      <trkpt lat="45.904281958937645" lon="4.571754019707441">
        <ele>260.17000000000002</ele>
        <time>2025-04-24T11:16:07Z</time>
      </trkpt>
      <trkpt lat="45.904194032773376" lon="4.571550004184246">
        <ele>261.13999999999999</ele>
        <time>2025-04-24T11:16:08Z</time>
      </trkpt>
      <trkpt lat="45.904142986983061" lon="4.571320004761219">
        <ele>262.57999999999998</ele>
        <time>2025-04-24T11:16:09Z</time>
      </trkpt>
      <trkpt lat="45.90401298366487" lon="4.570854976773262">
        <ele>264.5</ele>
        <time>2025-04-24T11:16:11Z</time>
      </trkpt>
      <trkpt lat="45.903927991166711" lon="4.570631012320519">
        <ele>265.94</ele>
        <time>2025-04-24T11:16:12Z</time>
      </trkpt>
      <trkpt lat="45.90383998118341" lon="4.570401012897492">
        <ele>266.89999999999998</ele>
        <time>2025-04-24T11:16:13Z</time>
      </trkpt>
      <trkpt lat="45.903675025328994" lon="4.569894997403026">
        <ele>269.79000000000002</ele>
        <time>2025-04-24T11:16:15Z</time>
      </trkpt>
      <trkpt lat="45.903519038110971" lon="4.56938998773694">
        <ele>272.67000000000002</ele>
        <time>2025-04-24T11:16:17Z</time>
      </trkpt>
      <trkpt lat="45.903370007872581" lon="4.569181026890874">
        <ele>273.63</ele>
        <time>2025-04-24T11:16:18Z</time>
      </trkpt>
      <trkpt lat="45.903246961534023" lon="4.569010036066175">
        <ele>275.06999999999999</ele>
        <time>2025-04-24T11:16:19Z</time>
      </trkpt>
      <trkpt lat="45.903099020943046" lon="4.568907022476196">
        <ele>276.04000000000002</ele>
        <time>2025-04-24T11:16:20Z</time>
      </trkpt>
      <trkpt lat="45.902925012633204" lon="4.568848013877869">
        <ele>277</ele>
        <time>2025-04-24T11:16:21Z</time>
      </trkpt>
      <trkpt lat="45.902736000716686" lon="4.568785987794399">
        <ele>278.44</ele>
        <time>2025-04-24T11:16:22Z</time>
      </trkpt>
      <trkpt lat="45.902559980750084" lon="4.568664031103253">
        <ele>279.39999999999998</ele>
        <time>2025-04-24T11:16:23Z</time>
      </trkpt>
      <trkpt lat="45.902397036552429" lon="4.568523969501257">
        <ele>280.83999999999997</ele>
        <time>2025-04-24T11:16:24Z</time>
      </trkpt>
      <trkpt lat="45.902251023799181" lon="4.56833403557539">
        <ele>281.80000000000001</ele>
        <time>2025-04-24T11:16:25Z</time>
      </trkpt>
      <trkpt lat="45.90212102048099" lon="4.568118033930659">
        <ele>282.76999999999998</ele>
        <time>2025-04-24T11:16:26Z</time>
      </trkpt>
      <trkpt lat="45.902000991627574" lon="4.567878982052207">
        <ele>283.73000000000002</ele>
        <time>2025-04-24T11:16:27Z</time>
      </trkpt>
      <trkpt lat="45.901882974430919" lon="4.567641019821167">
        <ele>284.69</ele>
        <time>2025-04-24T11:16:28Z</time>
      </trkpt>
      <trkpt lat="45.901141008362174" lon="4.566351966932416">
        <ele>289.49000000000001</ele>
        <time>2025-04-24T11:16:34Z</time>
      </trkpt>
      <trkpt lat="45.900988038629293" lon="4.566214000806212">
        <ele>289.97000000000003</ele>
        <time>2025-04-24T11:16:35Z</time>
      </trkpt>
      <trkpt lat="45.900813024491072" lon="4.566148035228252">
        <ele>290.94</ele>
        <time>2025-04-24T11:16:36Z</time>
      </trkpt>
      <trkpt lat="45.900627030059695" lon="4.566093971952796">
        <ele>291.42000000000002</ele>
        <time>2025-04-24T11:16:37Z</time>
      </trkpt>
      <trkpt lat="45.900442041456699" lon="4.566039992496371">
        <ele>292.38</ele>
        <time>2025-04-24T11:16:38Z</time>
      </trkpt>
      <trkpt lat="45.900096958503127" lon="4.565938990563154">
        <ele>293.81999999999999</ele>
        <time>2025-04-24T11:16:40Z</time>
      </trkpt>
      <trkpt lat="45.899935020133853" lon="4.565985007211566">
        <ele>294.77999999999997</ele>
        <time>2025-04-24T11:16:41Z</time>
      </trkpt>
      <trkpt lat="45.899766040965915" lon="4.566040998324752">
        <ele>295.25999999999999</ele>
        <time>2025-04-24T11:16:42Z</time>
      </trkpt>
      <trkpt lat="45.899425987154245" lon="4.566243002191186">
        <ele>297.18000000000001</ele>
        <time>2025-04-24T11:16:44Z</time>
      </trkpt>
      <trkpt lat="45.899239992722869" lon="4.566326988860965">
        <ele>298.14999999999998</ele>
        <time>2025-04-24T11:16:45Z</time>
      </trkpt>
      <trkpt lat="45.897686993703246" lon="4.566517006605864">
        <ele>302.94999999999999</ele>
        <time>2025-04-24T11:16:53Z</time>
      </trkpt>
      <trkpt lat="45.897519020363688" lon="4.566504014655948">
        <ele>303.43000000000001</ele>
        <time>2025-04-24T11:16:54Z</time>
      </trkpt>
      <trkpt lat="45.897364960983396" lon="4.566479036584497">
        <ele>303.91000000000003</ele>
        <time>2025-04-24T11:16:55Z</time>
      </trkpt>
      <trkpt lat="45.897239986807108" lon="4.566376022994518">
        <ele>304.38999999999999</ele>
        <time>2025-04-24T11:16:56Z</time>
      </trkpt>
      <trkpt lat="45.89711501263082" lon="4.566274015232921">
        <ele>304.38999999999999</ele>
        <time>2025-04-24T11:16:57Z</time>
      </trkpt>
      <trkpt lat="45.896989032626152" lon="4.566147029399872">
        <ele>304.38999999999999</ele>
        <time>2025-04-24T11:16:58Z</time>
      </trkpt>
      <trkpt lat="45.896885013207793" lon="4.565976960584521">
        <ele>304.38999999999999</ele>
        <time>2025-04-24T11:16:59Z</time>
      </trkpt>
      <trkpt lat="45.896788034588099" lon="4.565818961709738">
        <ele>304.88</ele>
        <time>2025-04-24T11:17:00Z</time>
      </trkpt>
      <trkpt lat="45.896708993241191" lon="4.565688958391547">
        <ele>304.88</ele>
        <time>2025-04-24T11:17:01Z</time>
      </trkpt>
      <trkpt lat="45.896645961329341" lon="4.565587034448981">
        <ele>304.38999999999999</ele>
        <time>2025-04-24T11:17:02Z</time>
      </trkpt>
      <trkpt lat="45.896608997136354" lon="4.565527020022273">
        <ele>304.38999999999999</ele>
        <time>2025-04-24T11:17:03Z</time>
      </trkpt>
      <trkpt lat="45.896561974659562" lon="4.565544035285711">
        <ele>304.88</ele>
        <time>2025-04-24T11:17:04Z</time>
      </trkpt>
      <trkpt lat="45.896495003253222" lon="4.565568007528782">
        <ele>304.88</ele>
        <time>2025-04-24T11:17:05Z</time>
      </trkpt>
      <trkpt lat="45.896409004926682" lon="4.565598014742136">
        <ele>304.88</ele>
        <time>2025-04-24T11:17:06Z</time>
      </trkpt>
      <trkpt lat="45.896302973851562" lon="4.565634978935123">
        <ele>304.88</ele>
        <time>2025-04-24T11:17:07Z</time>
      </trkpt>
      <trkpt lat="45.896170036867261" lon="4.565666997805238">
        <ele>305.36000000000001</ele>
        <time>2025-04-24T11:17:08Z</time>
      </trkpt>
      <trkpt lat="45.896026035770774" lon="4.565688036382198">
        <ele>305.36000000000001</ele>
        <time>2025-04-24T11:17:09Z</time>
      </trkpt>
      <trkpt lat="45.895877005532384" lon="4.565709996968508">
        <ele>305.83999999999997</ele>
        <time>2025-04-24T11:17:10Z</time>
      </trkpt>
      <trkpt lat="45.895723029971123" lon="4.565732041373849">
        <ele>306.31999999999999</ele>
        <time>2025-04-24T11:17:11Z</time>
      </trkpt>
      <trkpt lat="45.894227027893066" lon="4.565942008048296">
        <ele>306.80000000000001</ele>
        <time>2025-04-24T11:17:20Z</time>
      </trkpt>
      <trkpt lat="45.894046984612942" lon="4.566017026081681">
        <ele>306.31999999999999</ele>
        <time>2025-04-24T11:17:21Z</time>
      </trkpt>
      <trkpt lat="45.893867025151849" lon="4.566091038286686">
        <ele>305.36000000000001</ele>
        <time>2025-04-24T11:17:22Z</time>
      </trkpt>
      <trkpt lat="45.893714977428317" lon="4.566190028563142">
        <ele>304.38999999999999</ele>
        <time>2025-04-24T11:17:23Z</time>
      </trkpt>
      <trkpt lat="45.893574999645352" lon="4.566331012174487">
        <ele>303.91000000000003</ele>
        <time>2025-04-24T11:17:24Z</time>
      </trkpt>
      <trkpt lat="45.893439967185259" lon="4.566465960815549">
        <ele>302.94999999999999</ele>
        <time>2025-04-24T11:17:25Z</time>
      </trkpt>
      <trkpt lat="45.893325973302126" lon="4.566579032689333">
        <ele>302.47000000000003</ele>
        <time>2025-04-24T11:17:26Z</time>
      </trkpt>
      <trkpt lat="45.893179960548878" lon="4.56663703545928">
        <ele>301.02999999999997</ele>
        <time>2025-04-24T11:17:27Z</time>
      </trkpt>
      <trkpt lat="45.893049035221338" lon="4.566662013530731">
        <ele>300.06999999999999</ele>
        <time>2025-04-24T11:17:28Z</time>
      </trkpt>
      <trkpt lat="45.892906039953232" lon="4.566656984388828">
        <ele>299.11000000000001</ele>
        <time>2025-04-24T11:17:29Z</time>
      </trkpt>
      <trkpt lat="45.892756003886461" lon="4.566651033237577">
        <ele>298.14999999999998</ele>
        <time>2025-04-24T11:17:30Z</time>
      </trkpt>
      <trkpt lat="45.892598005011678" lon="4.566643992438912">
        <ele>297.18000000000001</ele>
        <time>2025-04-24T11:17:31Z</time>
      </trkpt>
      <trkpt lat="45.892425002530217" lon="4.566632006317377">
        <ele>296.69999999999999</ele>
        <time>2025-04-24T11:17:32Z</time>
      </trkpt>
      <trkpt lat="45.891272993758321" lon="4.566473001614213">
        <ele>293.33999999999997</ele>
        <time>2025-04-24T11:17:39Z</time>
      </trkpt>
      <trkpt lat="45.891171991825104" lon="4.5663580019027">
        <ele>293.33999999999997</ele>
        <time>2025-04-24T11:17:40Z</time>
      </trkpt>
      <trkpt lat="45.891074007377028" lon="4.566240990534425">
        <ele>292.86000000000001</ele>
        <time>2025-04-24T11:17:41Z</time>
      </trkpt>
      <trkpt lat="45.891021033748984" lon="4.566099001094699">
        <ele>292.86000000000001</ele>
        <time>2025-04-24T11:17:42Z</time>
      </trkpt>
      <trkpt lat="45.890975017100573" lon="4.565924992784858">
        <ele>292.38</ele>
        <time>2025-04-24T11:17:43Z</time>
      </trkpt>
      <trkpt lat="45.8909269887954" lon="4.565741010010243">
        <ele>292.86000000000001</ele>
        <time>2025-04-24T11:17:44Z</time>
      </trkpt>
      <trkpt lat="45.890875020995736" lon="4.565545963123441">
        <ele>292.86000000000001</ele>
        <time>2025-04-24T11:17:45Z</time>
      </trkpt>
      <trkpt lat="45.890752980485559" lon="4.565359968692064">
        <ele>292.86000000000001</ele>
        <time>2025-04-24T11:17:46Z</time>
      </trkpt>
      <trkpt lat="45.890618031844497" lon="4.56519995816052">
        <ele>292.86000000000001</ele>
        <time>2025-04-24T11:17:47Z</time>
      </trkpt>
      <trkpt lat="45.89047403074801" lon="4.565030978992581">
        <ele>293.33999999999997</ele>
        <time>2025-04-24T11:17:48Z</time>
      </trkpt>
      <trkpt lat="45.890333969146013" lon="4.564859988167882">
        <ele>293.81999999999999</ele>
        <time>2025-04-24T11:17:49Z</time>
      </trkpt>
      <trkpt lat="45.890076979994774" lon="4.564536027610302">
        <ele>295.25999999999999</ele>
        <time>2025-04-24T11:17:51Z</time>
      </trkpt>
      <trkpt lat="45.889940019696951" lon="4.564390014857054">
        <ele>295.74000000000001</ele>
        <time>2025-04-24T11:17:52Z</time>
      </trkpt>
      <trkpt lat="45.889790989458561" lon="4.564307034015656">
        <ele>296.69999999999999</ele>
        <time>2025-04-24T11:17:53Z</time>
      </trkpt>
      <trkpt lat="45.889618992805481" lon="4.564304016530514">
        <ele>297.67000000000002</ele>
        <time>2025-04-24T11:17:54Z</time>
      </trkpt>
      <trkpt lat="45.889451019465923" lon="4.564348021522164">
        <ele>298.63</ele>
        <time>2025-04-24T11:17:55Z</time>
      </trkpt>
      <trkpt lat="45.889283968135715" lon="4.564398983493447">
        <ele>299.11000000000001</ele>
        <time>2025-04-24T11:17:56Z</time>
      </trkpt>
      <trkpt lat="45.88903502561152" lon="4.564476013183594">
        <ele>300.55000000000001</ele>
        <time>2025-04-24T11:17:58Z</time>
      </trkpt>
      <trkpt lat="45.88886596262455" lon="4.564420022070408">
        <ele>301.02999999999997</ele>
        <time>2025-04-24T11:17:59Z</time>
      </trkpt>
      <trkpt lat="45.888748029246926" lon="4.564365036785603">
        <ele>301.50999999999999</ele>
        <time>2025-04-24T11:18:00Z</time>
      </trkpt>
      <trkpt lat="45.888617020100355" lon="4.564250037074089">
        <ele>301.99000000000001</ele>
        <time>2025-04-24T11:18:01Z</time>
      </trkpt>
      <trkpt lat="45.888552982360125" lon="4.56412497907877">
        <ele>302.47000000000003</ele>
        <time>2025-04-24T11:18:02Z</time>
      </trkpt>
      <trkpt lat="45.888476958498359" lon="4.563961029052734">
        <ele>302.94999999999999</ele>
        <time>2025-04-24T11:18:03Z</time>
      </trkpt>
      <trkpt lat="45.888439994305372" lon="4.563723988831043">
        <ele>302.94999999999999</ele>
        <time>2025-04-24T11:18:04Z</time>
      </trkpt>
      <trkpt lat="45.888404035940766" lon="4.563496001064777">
        <ele>303.43000000000001</ele>
        <time>2025-04-24T11:18:05Z</time>
      </trkpt>
      <trkpt lat="45.888287024572492" lon="4.562859982252121">
        <ele>304.88</ele>
        <time>2025-04-24T11:18:08Z</time>
      </trkpt>
      <trkpt lat="45.888228015974164" lon="4.562660995870829">
        <ele>305.36000000000001</ele>
        <time>2025-04-24T11:18:09Z</time>
      </trkpt>
      <trkpt lat="45.888143023476005" lon="4.562477013096213">
        <ele>305.83999999999997</ele>
        <time>2025-04-24T11:18:10Z</time>
      </trkpt>
      <trkpt lat="45.888058030977845" lon="4.562304010614753">
        <ele>306.31999999999999</ele>
        <time>2025-04-24T11:18:11Z</time>
      </trkpt>
      <trkpt lat="45.887971026822925" lon="4.562128996476531">
        <ele>307.27999999999997</ele>
        <time>2025-04-24T11:18:12Z</time>
      </trkpt>
      <trkpt lat="45.887602977454662" lon="4.561387030407786">
        <ele>310.16000000000003</ele>
        <time>2025-04-24T11:18:16Z</time>
      </trkpt>
      <trkpt lat="45.886809965595603" lon="4.559932015836239">
        <ele>318.81</ele>
        <time>2025-04-24T11:18:24Z</time>
      </trkpt>
      <trkpt lat="45.885816039517522" lon="4.558960972353816">
        <ele>327.94999999999999</ele>
        <time>2025-04-24T11:18:31Z</time>
      </trkpt>
      <trkpt lat="45.884938035160303" lon="4.558371976017952">
        <ele>335.16000000000003</ele>
        <time>2025-04-24T11:18:37Z</time>
      </trkpt>
      <trkpt lat="45.88478296995163" lon="4.558339035138488">
        <ele>336.60000000000002</ele>
        <time>2025-04-24T11:18:38Z</time>
      </trkpt>
      <trkpt lat="45.884617008268833" lon="4.558339035138488">
        <ele>338.04000000000002</ele>
        <time>2025-04-24T11:18:39Z</time>
      </trkpt>
      <trkpt lat="45.884128008037806" lon="4.55840801820159">
        <ele>341.88999999999999</ele>
        <time>2025-04-24T11:18:42Z</time>
      </trkpt>
      <trkpt lat="45.883979983627796" lon="4.558496028184891">
        <ele>342.85000000000002</ele>
        <time>2025-04-24T11:18:43Z</time>
      </trkpt>
      <trkpt lat="45.883842017501593" lon="4.55862301401794">
        <ele>344.29000000000002</ele>
        <time>2025-04-24T11:18:44Z</time>
      </trkpt>
      <trkpt lat="45.882671987637877" lon="4.559634039178491">
        <ele>354.38</ele>
        <time>2025-04-24T11:18:53Z</time>
      </trkpt>
      <trkpt lat="45.882537038996816" lon="4.559707967564464">
        <ele>355.33999999999997</ele>
        <time>2025-04-24T11:18:54Z</time>
      </trkpt>
      <trkpt lat="45.882243001833558" lon="4.559774016961455">
        <ele>357.26999999999998</ele>
        <time>2025-04-24T11:18:56Z</time>
      </trkpt>
      <trkpt lat="45.882093971595168" lon="4.559765970334411">
        <ele>357.75</ele>
        <time>2025-04-24T11:18:57Z</time>
      </trkpt>
      <trkpt lat="45.881159976124763" lon="4.559669997543097">
        <ele>363.04000000000002</ele>
        <time>2025-04-24T11:19:05Z</time>
      </trkpt>
      <trkpt lat="45.881043970584869" lon="4.559675026685">
        <ele>363.51999999999998</ele>
        <time>2025-04-24T11:19:06Z</time>
      </trkpt>
      <trkpt lat="45.880529992282391" lon="4.559705033898354">
        <ele>365.92000000000002</ele>
        <time>2025-04-24T11:19:12Z</time>
      </trkpt>
      <trkpt lat="45.880450028926134" lon="4.559711990877986">
        <ele>365.92000000000002</ele>
        <time>2025-04-24T11:19:13Z</time>
      </trkpt>
      <trkpt lat="45.880367970094085" lon="4.559711990877986">
        <ele>366.39999999999998</ele>
        <time>2025-04-24T11:19:14Z</time>
      </trkpt>
      <trkpt lat="45.880288006737828" lon="4.559711990877986">
        <ele>366.88</ele>
        <time>2025-04-24T11:19:15Z</time>
      </trkpt>
      <trkpt lat="45.880210977047682" lon="4.559711990877986">
        <ele>367.36000000000001</ele>
        <time>2025-04-24T11:19:16Z</time>
      </trkpt>
      <trkpt lat="45.880130007863045" lon="4.559711990877986">
        <ele>367.83999999999997</ele>
        <time>2025-04-24T11:19:17Z</time>
      </trkpt>
      <trkpt lat="45.880066975951195" lon="4.559711990877986">
        <ele>368.31999999999999</ele>
        <time>2025-04-24T11:19:18Z</time>
      </trkpt>
      <trkpt lat="45.879932027310133" lon="4.55971903167665">
        <ele>369.27999999999997</ele>
        <time>2025-04-24T11:19:20Z</time>
      </trkpt>
      <trkpt lat="45.879873018711805" lon="4.559734035283327">
        <ele>369.75999999999999</ele>
        <time>2025-04-24T11:19:21Z</time>
      </trkpt>
      <trkpt lat="45.879823984578252" lon="4.559746021404862">
        <ele>370.24000000000001</ele>
        <time>2025-04-24T11:19:22Z</time>
      </trkpt>
      <trkpt lat="45.879779979586601" lon="4.559757001698017">
        <ele>370.73000000000002</ele>
        <time>2025-04-24T11:19:23Z</time>
      </trkpt>
      <trkpt lat="45.879729017615318" lon="4.559774016961455">
        <ele>371.20999999999998</ele>
        <time>2025-04-24T11:19:24Z</time>
      </trkpt>
      <trkpt lat="45.879680989310145" lon="4.559790026396513">
        <ele>371.69</ele>
        <time>2025-04-24T11:19:25Z</time>
      </trkpt>
      <trkpt lat="45.879609994590282" lon="4.559736968949437">
        <ele>372.17000000000002</ele>
        <time>2025-04-24T11:19:26Z</time>
      </trkpt>
      <trkpt lat="45.879564983770251" lon="4.55967896617949">
        <ele>372.17000000000002</ele>
        <time>2025-04-24T11:19:27Z</time>
      </trkpt>
      <trkpt lat="45.879517961293459" lon="4.559619035571814">
        <ele>372.64999999999998</ele>
        <time>2025-04-24T11:19:28Z</time>
      </trkpt>
      <trkpt lat="45.879305982962251" lon="4.559346958994865">
        <ele>373.61000000000001</ele>
        <time>2025-04-24T11:19:32Z</time>
      </trkpt>
      <trkpt lat="45.879247980192304" lon="4.559272024780512">
        <ele>374.08999999999997</ele>
        <time>2025-04-24T11:19:33Z</time>
      </trkpt>
      <trkpt lat="45.879188971593976" lon="4.559176973998547">
        <ele>374.08999999999997</ele>
        <time>2025-04-24T11:19:34Z</time>
      </trkpt>
      <trkpt lat="45.879145972430706" lon="4.55907597206533">
        <ele>374.08999999999997</ele>
        <time>2025-04-24T11:19:35Z</time>
      </trkpt>
      <trkpt lat="45.879100961610675" lon="4.558971030637622">
        <ele>374.08999999999997</ele>
        <time>2025-04-24T11:19:36Z</time>
      </trkpt>
      <trkpt lat="45.879057962447405" lon="4.558830969035626">
        <ele>373.61000000000001</ele>
        <time>2025-04-24T11:19:37Z</time>
      </trkpt>
      <trkpt lat="45.87898001074791" lon="4.558418998494744">
        <ele>373.13</ele>
        <time>2025-04-24T11:19:40Z</time>
      </trkpt>
      <trkpt lat="45.878967018797994" lon="4.558276003226638">
        <ele>372.64999999999998</ele>
        <time>2025-04-24T11:19:41Z</time>
      </trkpt>
      <trkpt lat="45.878927959129214" lon="4.557282999157906">
        <ele>369.75999999999999</ele>
        <time>2025-04-24T11:19:50Z</time>
      </trkpt>
      <trkpt lat="45.878927959129214" lon="4.557108990848064">
        <ele>368.31999999999999</ele>
        <time>2025-04-24T11:19:57Z</time>
      </trkpt>
      <trkpt lat="45.878927959129214" lon="4.557094993069768">
        <ele>368.31999999999999</ele>
        <time>2025-04-24T11:19:58Z</time>
      </trkpt>
      <trkpt lat="45.87889401242137" lon="4.557086024433374">
        <ele>368.31999999999999</ele>
        <time>2025-04-24T11:19:59Z</time>
      </trkpt>
      <trkpt lat="45.878355978056788" lon="4.556869016960263">
        <ele>365.92000000000002</ele>
        <time>2025-04-24T11:20:05Z</time>
      </trkpt>
      <trkpt lat="45.877313017845154" lon="4.556120010092855">
        <ele>364</ele>
        <time>2025-04-24T11:20:14Z</time>
      </trkpt>
      <trkpt lat="45.876683034002781" lon="4.555679038167">
        <ele>361.58999999999997</ele>
        <time>2025-04-24T11:20:22Z</time>
      </trkpt>
      <trkpt lat="45.875961016863585" lon="4.555144021287561">
        <ele>358.23000000000002</ele>
        <time>2025-04-24T11:20:30Z</time>
      </trkpt>
      <trkpt lat="45.875033978372812" lon="4.554485036060214">
        <ele>354.86000000000001</ele>
        <time>2025-04-24T11:20:40Z</time>
      </trkpt>
      <trkpt lat="45.873720031231642" lon="4.553564032539725">
        <ele>349.57999999999998</ele>
        <time>2025-04-24T11:20:51Z</time>
      </trkpt>
      <trkpt lat="45.873587010428309" lon="4.553464036434889">
        <ele>349.10000000000002</ele>
        <time>2025-04-24T11:20:52Z</time>
      </trkpt>
      <trkpt lat="45.872365012764931" lon="4.55258603207767">
        <ele>344.76999999999998</ele>
        <time>2025-04-24T11:21:00Z</time>
      </trkpt>
      <trkpt lat="45.871638972312212" lon="4.551873989403248">
        <ele>342.37</ele>
        <time>2025-04-24T11:21:05Z</time>
      </trkpt>
      <trkpt lat="45.871368991211057" lon="4.551529996097088">
        <ele>341.41000000000003</ele>
        <time>2025-04-24T11:21:07Z</time>
      </trkpt>
      <trkpt lat="45.86993602104485" lon="4.549783961847425">
        <ele>337.56</ele>
        <time>2025-04-24T11:21:17Z</time>
      </trkpt>
      <trkpt lat="45.868355026468635" lon="4.547879006713629">
        <ele>329.38999999999999</ele>
        <time>2025-04-24T11:21:29Z</time>
      </trkpt>
      <trkpt lat="45.867438968271017" lon="4.546806961297989">
        <ele>326.01999999999998</ele>
        <time>2025-04-24T11:21:37Z</time>
      </trkpt>
      <trkpt lat="45.867094974964857" lon="4.546405971050263">
        <ele>324.10000000000002</ele>
        <time>2025-04-24T11:21:43Z</time>
      </trkpt>
      <trkpt lat="45.867076031863689" lon="4.546384010463953">
        <ele>324.10000000000002</ele>
        <time>2025-04-24T11:21:52Z</time>
      </trkpt>
      <trkpt lat="45.867001013830304" lon="4.546283008530736">
        <ele>323.62</ele>
        <time>2025-04-24T11:22:01Z</time>
      </trkpt>
      <trkpt lat="45.866945022717118" lon="4.54622701741755">
        <ele>323.62</ele>
        <time>2025-04-24T11:22:02Z</time>
      </trkpt>
      <trkpt lat="45.866876039654016" lon="4.546159040182829">
        <ele>323.13999999999999</ele>
        <time>2025-04-24T11:22:03Z</time>
      </trkpt>
      <trkpt lat="45.866127032786608" lon="4.54549502581358">
        <ele>318.32999999999998</ele>
        <time>2025-04-24T11:22:10Z</time>
      </trkpt>
      <trkpt lat="45.864982986822724" lon="4.544847020879388">
        <ele>310.63999999999999</ele>
        <time>2025-04-24T11:22:18Z</time>
      </trkpt>
      <trkpt lat="45.864829011261463" lon="4.544798992574215">
        <ele>309.68000000000001</ele>
        <time>2025-04-24T11:22:19Z</time>
      </trkpt>
      <trkpt lat="45.863264026120305" lon="4.544456005096436">
        <ele>302.47000000000003</ele>
        <time>2025-04-24T11:22:29Z</time>
      </trkpt>
      <trkpt lat="45.862844008952379" lon="4.544286020100117">
        <ele>304.38999999999999</ele>
        <time>2025-04-24T11:22:32Z</time>
      </trkpt>
      <trkpt lat="45.862300023436546" lon="4.543929034844041">
        <ele>309.68000000000001</ele>
        <time>2025-04-24T11:22:38Z</time>
      </trkpt>
      <trkpt lat="45.861589992418885" lon="4.543315982446075">
        <ele>319.77999999999997</ele>
        <time>2025-04-24T11:22:49Z</time>
      </trkpt>
      <trkpt lat="45.861054975539446" lon="4.542724974453449">
        <ele>325.54000000000002</ele>
        <time>2025-04-24T11:22:58Z</time>
      </trkpt>
      <trkpt lat="45.861006025224924" lon="4.542638976126909">
        <ele>326.01999999999998</ele>
        <time>2025-04-24T11:22:59Z</time>
      </trkpt>
      <trkpt lat="45.860980963334441" lon="4.542535040527582">
        <ele>326.5</ele>
        <time>2025-04-24T11:23:00Z</time>
      </trkpt>
      <trkpt lat="45.860968977212906" lon="4.542421968653798">
        <ele>326.5</ele>
        <time>2025-04-24T11:23:01Z</time>
      </trkpt>
      <trkpt lat="45.860982974991202" lon="4.542301017791033">
        <ele>326.99000000000001</ele>
        <time>2025-04-24T11:23:02Z</time>
      </trkpt>
      <trkpt lat="45.86099898442626" lon="4.542171014472842">
        <ele>327.47000000000003</ele>
        <time>2025-04-24T11:23:03Z</time>
      </trkpt>
      <trkpt lat="45.861010970547795" lon="4.541889969259501">
        <ele>328.43000000000001</ele>
        <time>2025-04-24T11:23:05Z</time>
      </trkpt>
      <trkpt lat="45.860986998304725" lon="4.541743034496903">
        <ele>329.38999999999999</ele>
        <time>2025-04-24T11:23:06Z</time>
      </trkpt>
      <trkpt lat="45.860909968614578" lon="4.541444974020124">
        <ele>330.35000000000002</ele>
        <time>2025-04-24T11:23:08Z</time>
      </trkpt>
      <trkpt lat="45.86086998693645" lon="4.541289992630482">
        <ele>330.82999999999998</ele>
        <time>2025-04-24T11:23:09Z</time>
      </trkpt>
      <trkpt lat="45.860830005258322" lon="4.541134005412459">
        <ele>331.31</ele>
        <time>2025-04-24T11:23:10Z</time>
      </trkpt>
      <trkpt lat="45.860444018617272" lon="4.539580000564456">
        <ele>335.63999999999999</ele>
        <time>2025-04-24T11:23:20Z</time>
      </trkpt>
      <trkpt lat="45.860243020579219" lon="4.538960997015238">
        <ele>337.07999999999998</ele>
        <time>2025-04-24T11:23:24Z</time>
      </trkpt>
      <trkpt lat="45.860141012817621" lon="4.538484988734126">
        <ele>338.51999999999998</ele>
        <time>2025-04-24T11:23:27Z</time>
      </trkpt>
      <trkpt lat="45.860114023089409" lon="4.538332019001246">
        <ele>338.51999999999998</ele>
        <time>2025-04-24T11:23:28Z</time>
      </trkpt>
      <trkpt lat="45.859990976750851" lon="4.53767403960228">
        <ele>340.44</ele>
        <time>2025-04-24T11:23:34Z</time>
      </trkpt>
      <trkpt lat="45.859818980097771" lon="4.536886978894472">
        <ele>342.85000000000002</ele>
        <time>2025-04-24T11:23:41Z</time>
      </trkpt>
      <trkpt lat="45.859803976491094" lon="4.536809027194977">
        <ele>342.85000000000002</ele>
        <time>2025-04-24T11:23:42Z</time>
      </trkpt>
      <trkpt lat="45.859790984541178" lon="4.536745995283127">
        <ele>342.85000000000002</ele>
        <time>2025-04-24T11:23:43Z</time>
      </trkpt>
      <trkpt lat="45.859827026724815" lon="4.536669971421361">
        <ele>342.85000000000002</ele>
        <time>2025-04-24T11:23:44Z</time>
      </trkpt>
      <trkpt lat="45.85986097343266" lon="4.536615991964936">
        <ele>342.85000000000002</ele>
        <time>2025-04-24T11:23:45Z</time>
      </trkpt>
      <trkpt lat="45.85990296676755" lon="4.536550026386976">
        <ele>342.85000000000002</ele>
        <time>2025-04-24T11:23:46Z</time>
      </trkpt>
      <trkpt lat="45.859938003122807" lon="4.536495041102171">
        <ele>343.32999999999998</ele>
        <time>2025-04-24T11:23:47Z</time>
      </trkpt>
      <trkpt lat="45.860011009499431" lon="4.536427985876799">
        <ele>343.32999999999998</ele>
        <time>2025-04-24T11:23:48Z</time>
      </trkpt>
      <trkpt lat="45.860072029754519" lon="4.536371994763613">
        <ele>343.32999999999998</ele>
        <time>2025-04-24T11:23:49Z</time>
      </trkpt>
      <trkpt lat="45.860585002228618" lon="4.535891963168979">
        <ele>347.17000000000002</ele>
        <time>2025-04-24T11:23:57Z</time>
      </trkpt>
      <trkpt lat="45.860649039968848" lon="4.535817028954625">
        <ele>347.64999999999998</ele>
        <time>2025-04-24T11:23:58Z</time>
      </trkpt>
      <trkpt lat="45.860662031918764" lon="4.535689959302545">
        <ele>348.62</ele>
        <time>2025-04-24T11:23:59Z</time>
      </trkpt>
      <trkpt lat="45.860640993341804" lon="4.535562973469496">
        <ele>348.62</ele>
        <time>2025-04-24T11:24:00Z</time>
      </trkpt>
      <trkpt lat="45.860615009441972" lon="4.535411009564996">
        <ele>349.10000000000002</ele>
        <time>2025-04-24T11:24:01Z</time>
      </trkpt>
      <trkpt lat="45.860375035554171" lon="4.533988013863564">
        <ele>351.01999999999998</ele>
        <time>2025-04-24T11:24:08Z</time>
      </trkpt>
      <trkpt lat="45.860336981713772" lon="4.531712997704744">
        <ele>351.01999999999998</ele>
        <time>2025-04-24T11:24:18Z</time>
      </trkpt>
      <trkpt lat="45.860345028340816" lon="4.531469000503421">
        <ele>351.5</ele>
        <time>2025-04-24T11:24:19Z</time>
      </trkpt>
      <trkpt lat="45.86029096506536" lon="4.531254004687071">
        <ele>351.98000000000002</ele>
        <time>2025-04-24T11:24:20Z</time>
      </trkpt>
      <trkpt lat="45.860236985608935" lon="4.53103800304234">
        <ele>351.98000000000002</ele>
        <time>2025-04-24T11:24:21Z</time>
      </trkpt>
      <trkpt lat="45.860183006152511" lon="4.530820995569229">
        <ele>352.45999999999998</ele>
        <time>2025-04-24T11:24:22Z</time>
      </trkpt>
      <trkpt lat="45.859901960939169" lon="4.528839010745287">
        <ele>356.79000000000002</ele>
        <time>2025-04-24T11:24:31Z</time>
      </trkpt>
      <trkpt lat="45.859919982030988" lon="4.528516978025436">
        <ele>356.79000000000002</ele>
        <time>2025-04-24T11:24:33Z</time>
      </trkpt>
      <trkpt lat="45.859939008951187" lon="4.528392003849149">
        <ele>356.79000000000002</ele>
        <time>2025-04-24T11:24:34Z</time>
      </trkpt>
      <trkpt lat="45.859954012557864" lon="4.528285972774029">
        <ele>356.79000000000002</ele>
        <time>2025-04-24T11:24:35Z</time>
      </trkpt>
      <trkpt lat="45.859983013942838" lon="4.528083968907595">
        <ele>356.79000000000002</ele>
        <time>2025-04-24T11:24:37Z</time>
      </trkpt>
      <trkpt lat="45.859996005892754" lon="4.527963018044829">
        <ele>356.79000000000002</ele>
        <time>2025-04-24T11:24:38Z</time>
      </trkpt>
      <trkpt lat="45.860012015327811" lon="4.527823040261865">
        <ele>356.79000000000002</ele>
        <time>2025-04-24T11:24:39Z</time>
      </trkpt>
      <trkpt lat="45.860180994495749" lon="4.526250008493662">
        <ele>358.23000000000002</ele>
        <time>2025-04-24T11:24:47Z</time>
      </trkpt>
      <trkpt lat="45.860390961170197" lon="4.523765025660396">
        <ele>368.80000000000001</ele>
        <time>2025-04-24T11:24:58Z</time>
      </trkpt>
      <trkpt lat="45.860365983098745" lon="4.523563021793962">
        <ele>370.24000000000001</ele>
        <time>2025-04-24T11:24:59Z</time>
      </trkpt>
      <trkpt lat="45.860339999198914" lon="4.523360012099147">
        <ele>371.20999999999998</ele>
        <time>2025-04-24T11:25:00Z</time>
      </trkpt>
      <trkpt lat="45.860162973403931" lon="4.522300958633423">
        <ele>376.49000000000001</ele>
        <time>2025-04-24T11:25:05Z</time>
      </trkpt>
      <trkpt lat="45.860152998939157" lon="4.522070037201047">
        <ele>377.44999999999999</ele>
        <time>2025-04-24T11:25:06Z</time>
      </trkpt>
      <trkpt lat="45.860178982838988" lon="4.52184003777802">
        <ele>377.94</ele>
        <time>2025-04-24T11:25:07Z</time>
      </trkpt>
      <trkpt lat="45.86033103056252" lon="4.519554963335395">
        <ele>379.86000000000001</ele>
        <time>2025-04-24T11:25:17Z</time>
      </trkpt>
      <trkpt lat="45.860385010018945" lon="4.518699003383517">
        <ele>379.86000000000001</ele>
        <time>2025-04-24T11:25:21Z</time>
      </trkpt>
      <trkpt lat="45.86037402972579" lon="4.518509991466999">
        <ele>380.33999999999997</ele>
        <time>2025-04-24T11:25:22Z</time>
      </trkpt>
      <trkpt lat="45.860343016684055" lon="4.518322991207242">
        <ele>380.81999999999999</ele>
        <time>2025-04-24T11:25:23Z</time>
      </trkpt>
      <trkpt lat="45.860270010307431" lon="4.518136996775866">
        <ele>381.30000000000001</ele>
        <time>2025-04-24T11:25:24Z</time>
      </trkpt>
      <trkpt lat="45.860195998102427" lon="4.517948990687728">
        <ele>381.30000000000001</ele>
        <time>2025-04-24T11:25:25Z</time>
      </trkpt>
      <trkpt lat="45.860114023089409" lon="4.517770037055016">
        <ele>381.77999999999997</ele>
        <time>2025-04-24T11:25:26Z</time>
      </trkpt>
      <trkpt lat="45.859992988407612" lon="4.517670040950179">
        <ele>382.25999999999999</ele>
        <time>2025-04-24T11:25:27Z</time>
      </trkpt>
      <trkpt lat="45.859863990917802" lon="4.517563004046679">
        <ele>382.25999999999999</ele>
        <time>2025-04-24T11:25:28Z</time>
      </trkpt>
      <trkpt lat="45.859734993427992" lon="4.517456972971559">
        <ele>382.74000000000001</ele>
        <time>2025-04-24T11:25:29Z</time>
      </trkpt>
      <trkpt lat="45.859615970402956" lon="4.517340967431665">
        <ele>382.74000000000001</ele>
        <time>2025-04-24T11:25:30Z</time>
      </trkpt>
      <trkpt lat="45.859524020925164" lon="4.517186991870403">
        <ele>383.22000000000003</ele>
        <time>2025-04-24T11:25:31Z</time>
      </trkpt>
      <trkpt lat="45.859444979578257" lon="4.517054976895452">
        <ele>383.22000000000003</ele>
        <time>2025-04-24T11:25:32Z</time>
      </trkpt>
      <trkpt lat="45.859384965151548" lon="4.516842998564243">
        <ele>383.69999999999999</ele>
        <time>2025-04-24T11:25:33Z</time>
      </trkpt>
      <trkpt lat="45.859330985695124" lon="4.516649041324854">
        <ele>383.69999999999999</ele>
        <time>2025-04-24T11:25:34Z</time>
      </trkpt>
      <trkpt lat="45.859288992360234" lon="4.516451982781291">
        <ele>383.69999999999999</ele>
        <time>2025-04-24T11:25:35Z</time>
      </trkpt>
      <trkpt lat="45.859269965440035" lon="4.516245033591986">
        <ele>384.18000000000001</ele>
        <time>2025-04-24T11:25:36Z</time>
      </trkpt>
      <trkpt lat="45.859178015962243" lon="4.515227973461151">
        <ele>387.55000000000001</ele>
        <time>2025-04-24T11:25:42Z</time>
      </trkpt>
      <trkpt lat="45.859139040112495" lon="4.514862019568682">
        <ele>391.38999999999999</ele>
        <time>2025-04-24T11:25:48Z</time>
      </trkpt>
      <trkpt lat="45.859137028455734" lon="4.514848021790385">
        <ele>391.38999999999999</ele>
        <time>2025-04-24T11:25:51Z</time>
      </trkpt>
      <trkpt lat="45.859113978222013" lon="4.514607964083552">
        <ele>392.36000000000001</ele>
        <time>2025-04-24T11:25:54Z</time>
      </trkpt>
      <trkpt lat="45.859072990715504" lon="4.5143430121243">
        <ele>393.31999999999999</ele>
        <time>2025-04-24T11:25:56Z</time>
      </trkpt>
      <trkpt lat="45.859033009037375" lon="4.514187024906278">
        <ele>393.31999999999999</ele>
        <time>2025-04-24T11:25:57Z</time>
      </trkpt>
      <trkpt lat="45.858995039016008" lon="4.514031037688255">
        <ele>393.80000000000001</ele>
        <time>2025-04-24T11:25:58Z</time>
      </trkpt>
      <trkpt lat="45.858951034024358" lon="4.513857029378414">
        <ele>394.27999999999997</ele>
        <time>2025-04-24T11:25:59Z</time>
      </trkpt>
      <trkpt lat="45.858951034024358" lon="4.513695007190108">
        <ele>394.27999999999997</ele>
        <time>2025-04-24T11:26:00Z</time>
      </trkpt>
      <trkpt lat="45.858951034024358" lon="4.513519993051887">
        <ele>394.27999999999997</ele>
        <time>2025-04-24T11:26:01Z</time>
      </trkpt>
      <trkpt lat="45.858951034024358" lon="4.513346990570426">
        <ele>394.27999999999997</ele>
        <time>2025-04-24T11:26:02Z</time>
      </trkpt>
      <trkpt lat="45.858951034024358" lon="4.512235969305039">
        <ele>395.72000000000003</ele>
        <time>2025-04-24T11:26:09Z</time>
      </trkpt>
      <trkpt lat="45.858921026811004" lon="4.511595005169511">
        <ele>396.68000000000001</ele>
        <time>2025-04-24T11:26:13Z</time>
      </trkpt>
      <trkpt lat="45.85887098684907" lon="4.511436000466347">
        <ele>396.68000000000001</ele>
        <time>2025-04-24T11:26:14Z</time>
      </trkpt>
      <trkpt lat="45.858816001564264" lon="4.511261992156506">
        <ele>397.16000000000003</ele>
        <time>2025-04-24T11:26:15Z</time>
      </trkpt>
      <trkpt lat="45.858466979116201" lon="4.509836984798312">
        <ele>402.93000000000001</ele>
        <time>2025-04-24T11:26:23Z</time>
      </trkpt>
      <trkpt lat="45.858411993831396" lon="4.509674040600658">
        <ele>404.37</ele>
        <time>2025-04-24T11:26:24Z</time>
      </trkpt>
      <trkpt lat="45.858343010768294" lon="4.509512018412352">
        <ele>405.32999999999998</ele>
        <time>2025-04-24T11:26:25Z</time>
      </trkpt>
      <trkpt lat="45.857979990541935" lon="4.508667038753629">
        <ele>408.69999999999999</ele>
        <time>2025-04-24T11:26:30Z</time>
      </trkpt>
      <trkpt lat="45.857896003872156" lon="4.50832799077034">
        <ele>409.66000000000003</ele>
        <time>2025-04-24T11:26:32Z</time>
      </trkpt>
      <trkpt lat="45.85786297917366" lon="4.508149959146977">
        <ele>410.13999999999999</ele>
        <time>2025-04-24T11:26:33Z</time>
      </trkpt>
      <trkpt lat="45.857764994725585" lon="4.507635980844498">
        <ele>412.06</ele>
        <time>2025-04-24T11:26:36Z</time>
      </trkpt>
      <trkpt lat="45.857715960592031" lon="4.507473958656192">
        <ele>412.54000000000002</ele>
        <time>2025-04-24T11:26:37Z</time>
      </trkpt>
      <trkpt lat="45.857614036649466" lon="4.507141029462218">
        <ele>413.5</ele>
        <time>2025-04-24T11:26:39Z</time>
      </trkpt>
      <trkpt lat="45.8575189858675" lon="4.506827965378761">
        <ele>413.98000000000002</ele>
        <time>2025-04-24T11:26:41Z</time>
      </trkpt>
      <trkpt lat="45.857473975047469" lon="4.506679018959403">
        <ele>414.47000000000003</ele>
        <time>2025-04-24T11:26:42Z</time>
      </trkpt>
      <trkpt lat="45.857471041381359" lon="4.506515990942717">
        <ele>414.94999999999999</ele>
        <time>2025-04-24T11:26:43Z</time>
      </trkpt>
      <trkpt lat="45.857471041381359" lon="4.506368972361088">
        <ele>415.43000000000001</ele>
        <time>2025-04-24T11:26:44Z</time>
      </trkpt>
      <trkpt lat="45.85749601945281" lon="4.50622396543622">
        <ele>415.91000000000003</ele>
        <time>2025-04-24T11:26:45Z</time>
      </trkpt>
      <trkpt lat="45.857530971989036" lon="4.506084993481636">
        <ele>416.38999999999999</ele>
        <time>2025-04-24T11:26:46Z</time>
      </trkpt>
      <trkpt lat="45.857567014172673" lon="4.50594199821353">
        <ele>416.87</ele>
        <time>2025-04-24T11:26:47Z</time>
      </trkpt>
      <trkpt lat="45.857605990022421" lon="4.50579397380352">
        <ele>417.35000000000002</ele>
        <time>2025-04-24T11:26:48Z</time>
      </trkpt>
      <trkpt lat="45.857659969478846" lon="4.505665982142091">
        <ele>418.31</ele>
        <time>2025-04-24T11:26:49Z</time>
      </trkpt>
      <trkpt lat="45.857706991955638" lon="4.5055550057441">
        <ele>418.79000000000002</ele>
        <time>2025-04-24T11:26:50Z</time>
      </trkpt>
      <trkpt lat="45.857750996947289" lon="4.505450986325741">
        <ele>419.26999999999998</ele>
        <time>2025-04-24T11:26:51Z</time>
      </trkpt>
      <trkpt lat="45.857773963361979" lon="4.505336992442608">
        <ele>420.23000000000002</ele>
        <time>2025-04-24T11:26:52Z</time>
      </trkpt>
      <trkpt lat="45.857781004160643" lon="4.505209000781179">
        <ele>420.70999999999998</ele>
        <time>2025-04-24T11:26:53Z</time>
      </trkpt>
      <trkpt lat="45.857787961140275" lon="4.50508201494813">
        <ele>421.68000000000001</ele>
        <time>2025-04-24T11:26:54Z</time>
      </trkpt>
      <trkpt lat="45.857793996110559" lon="4.504959974437952">
        <ele>422.63999999999999</ele>
        <time>2025-04-24T11:26:55Z</time>
      </trkpt>
      <trkpt lat="45.857800031080842" lon="4.504842041060329">
        <ele>423.60000000000002</ele>
        <time>2025-04-24T11:26:56Z</time>
      </trkpt>
      <trkpt lat="45.857811011373997" lon="4.504649005830288">
        <ele>425.51999999999998</ele>
        <time>2025-04-24T11:26:58Z</time>
      </trkpt>
      <trkpt lat="45.857808999717236" lon="4.504580022767186">
        <ele>426</ele>
        <time>2025-04-24T11:26:59Z</time>
      </trkpt>
      <trkpt lat="45.85777698084712" lon="4.504528976976872">
        <ele>426.95999999999998</ele>
        <time>2025-04-24T11:27:00Z</time>
      </trkpt>
      <trkpt lat="45.857741022482514" lon="4.504469968378544">
        <ele>427.92000000000002</ele>
        <time>2025-04-24T11:27:01Z</time>
      </trkpt>
      <trkpt lat="45.857685031369328" lon="4.504434010013938">
        <ele>427.92000000000002</ele>
        <time>2025-04-24T11:27:02Z</time>
      </trkpt>
      <trkpt lat="45.857629962265491" lon="4.504482038319111">
        <ele>428.39999999999998</ele>
        <time>2025-04-24T11:27:03Z</time>
      </trkpt>
      <trkpt lat="45.857556033879519" lon="4.504544986411929">
        <ele>429.37</ele>
        <time>2025-04-24T11:27:04Z</time>
      </trkpt>
      <trkpt lat="45.857508005574346" lon="4.504621010273695">
        <ele>429.85000000000002</ele>
        <time>2025-04-24T11:27:05Z</time>
      </trkpt>
      <trkpt lat="45.857407003641129" lon="4.504779009148479">
        <ele>431.29000000000002</ele>
        <time>2025-04-24T11:27:07Z</time>
      </trkpt>
      <trkpt lat="45.857322011142969" lon="4.50478102080524">
        <ele>431.29000000000002</ele>
        <time>2025-04-24T11:27:08Z</time>
      </trkpt>
      <trkpt lat="45.857251016423106" lon="4.50478102080524">
        <ele>431.76999999999998</ele>
        <time>2025-04-24T11:27:09Z</time>
      </trkpt>
      <trkpt lat="45.857169963419437" lon="4.50478102080524">
        <ele>432.73000000000002</ele>
        <time>2025-04-24T11:27:10Z</time>
      </trkpt>
      <trkpt lat="45.857097962871194" lon="4.504720000550151">
        <ele>433.20999999999998</ele>
        <time>2025-04-24T11:27:11Z</time>
      </trkpt>
      <trkpt lat="45.857029985636473" lon="4.504661997780204">
        <ele>433.69</ele>
        <time>2025-04-24T11:27:12Z</time>
      </trkpt>
      <trkpt lat="45.856973994523287" lon="4.504614975303412">
        <ele>434.17000000000002</ele>
        <time>2025-04-24T11:27:13Z</time>
      </trkpt>
      <trkpt lat="45.856930995360017" lon="4.504578011110425">
        <ele>434.64999999999998</ele>
        <time>2025-04-24T11:27:14Z</time>
      </trkpt>
      <trkpt lat="45.856891013681889" lon="4.504544986411929">
        <ele>435.13</ele>
        <time>2025-04-24T11:27:15Z</time>
      </trkpt>
      <trkpt lat="45.856923032552004" lon="4.504463011398912">
        <ele>435.61000000000001</ele>
        <time>2025-04-24T11:27:16Z</time>
      </trkpt>
      <trkpt lat="45.856947004795074" lon="4.504402996972203">
        <ele>435.61000000000001</ele>
        <time>2025-04-24T11:27:17Z</time>
      </trkpt>
      <trkpt lat="45.856978017836809" lon="4.504324039444327">
        <ele>436.57999999999998</ele>
        <time>2025-04-24T11:27:18Z</time>
      </trkpt>
      <trkpt lat="45.857011964544654" lon="4.504237035289407">
        <ele>437.06</ele>
        <time>2025-04-24T11:27:19Z</time>
      </trkpt>
      <trkpt lat="45.85713098756969" lon="4.503929000347853">
        <ele>438.5</ele>
        <time>2025-04-24T11:27:22Z</time>
      </trkpt>
      <trkpt lat="45.857451008632779" lon="4.502668026834726">
        <ele>445.23000000000002</ele>
        <time>2025-04-24T11:27:31Z</time>
      </trkpt>
      <trkpt lat="45.857471963390708" lon="4.502522014081478">
        <ele>445.70999999999998</ele>
        <time>2025-04-24T11:27:32Z</time>
      </trkpt>
      <trkpt lat="45.857473975047469" lon="4.502356974408031">
        <ele>446.19</ele>
        <time>2025-04-24T11:27:33Z</time>
      </trkpt>
      <trkpt lat="45.857456959784031" lon="4.500820990651846">
        <ele>455.31999999999999</ele>
        <time>2025-04-24T11:27:42Z</time>
      </trkpt>
      <trkpt lat="45.857352018356323" lon="4.499743999913335">
        <ele>462.05000000000001</ele>
        <time>2025-04-24T11:27:48Z</time>
      </trkpt>
      <trkpt lat="45.857342965900898" lon="4.499555993825197">
        <ele>463.49000000000001</ele>
        <time>2025-04-24T11:27:49Z</time>
      </trkpt>
      <trkpt lat="45.857371967285872" lon="4.499361030757427">
        <ele>464.44999999999999</ele>
        <time>2025-04-24T11:27:50Z</time>
      </trkpt>
      <trkpt lat="45.85747598670423" lon="4.497791016474366">
        <ele>474.55000000000001</ele>
        <time>2025-04-24T11:27:58Z</time>
      </trkpt>
      <trkpt lat="45.857450002804399" lon="4.496628027409315">
        <ele>482.24000000000001</ele>
        <time>2025-04-24T11:28:04Z</time>
      </trkpt>
      <trkpt lat="45.857472969219089" lon="4.496414037421346">
        <ele>483.19999999999999</ele>
        <time>2025-04-24T11:28:05Z</time>
      </trkpt>
      <trkpt lat="45.85760397836566" lon="4.495353978127241">
        <ele>486.07999999999998</ele>
        <time>2025-04-24T11:28:11Z</time>
      </trkpt>
      <trkpt lat="45.85764697752893" lon="4.494076995179057">
        <ele>485.60000000000002</ele>
        <time>2025-04-24T11:28:18Z</time>
      </trkpt>
      <trkpt lat="45.857694000005722" lon="4.493906004354358">
        <ele>485.12</ele>
        <time>2025-04-24T11:28:19Z</time>
      </trkpt>
      <trkpt lat="45.858114017173648" lon="4.492357028648257">
        <ele>475.50999999999999</ele>
        <time>2025-04-24T11:28:28Z</time>
      </trkpt>
      <trkpt lat="45.858216024935246" lon="4.49221302755177">
        <ele>474.55000000000001</ele>
        <time>2025-04-24T11:28:29Z</time>
      </trkpt>
      <trkpt lat="45.858379974961281" lon="4.491970036178827">
        <ele>472.13999999999999</ele>
        <time>2025-04-24T11:28:31Z</time>
      </trkpt>
      <trkpt lat="45.858494974672794" lon="4.491660995408893">
        <ele>469.74000000000001</ele>
        <time>2025-04-24T11:28:33Z</time>
      </trkpt>
      <trkpt lat="45.858553983271122" lon="4.491500984877348">
        <ele>468.77999999999997</ele>
        <time>2025-04-24T11:28:34Z</time>
      </trkpt>
      <trkpt lat="45.858653979375958" lon="4.491195967420936">
        <ele>465.89999999999998</ele>
        <time>2025-04-24T11:28:36Z</time>
      </trkpt>
      <trkpt lat="45.858665965497494" lon="4.491040986031294">
        <ele>464.93000000000001</ele>
        <time>2025-04-24T11:28:37Z</time>
      </trkpt>
      <trkpt lat="45.858779959380627" lon="4.48952897451818">
        <ele>451.48000000000002</ele>
        <time>2025-04-24T11:28:45Z</time>
      </trkpt>
      <trkpt lat="45.858788006007671" lon="4.489325964823365">
        <ele>449.55000000000001</ele>
        <time>2025-04-24T11:28:46Z</time>
      </trkpt>
      <trkpt lat="45.859050024300814" lon="4.487391002476215">
        <ele>429.85000000000002</ele>
        <time>2025-04-24T11:28:55Z</time>
      </trkpt>
      <trkpt lat="45.859500970691442" lon="4.48583004064858">
        <ele>410.62</ele>
        <time>2025-04-24T11:29:03Z</time>
      </trkpt>
      <trkpt lat="45.859892992302775" lon="4.484366979449987">
        <ele>391.87</ele>
        <time>2025-04-24T11:29:11Z</time>
      </trkpt>
      <trkpt lat="45.859914030879736" lon="4.484217027202249">
        <ele>389.94999999999999</ele>
        <time>2025-04-24T11:29:12Z</time>
      </trkpt>
      <trkpt lat="45.859901960939169" lon="4.484062967821956">
        <ele>388.50999999999999</ele>
        <time>2025-04-24T11:29:13Z</time>
      </trkpt>
      <trkpt lat="45.859868014231324" lon="4.483911003917456">
        <ele>387.06999999999999</ele>
        <time>2025-04-24T11:29:14Z</time>
      </trkpt>
      <trkpt lat="45.859811017289758" lon="4.483746970072389">
        <ele>385.63</ele>
        <time>2025-04-24T11:29:15Z</time>
      </trkpt>
      <trkpt lat="45.859747985377908" lon="4.483568016439676">
        <ele>383.69999999999999</ele>
        <time>2025-04-24T11:29:16Z</time>
      </trkpt>
      <trkpt lat="45.859683025628328" lon="4.48338302783668">
        <ele>382.25999999999999</ele>
        <time>2025-04-24T11:29:17Z</time>
      </trkpt>
      <trkpt lat="45.85957900620997" lon="4.483010033145547">
        <ele>379.38</ele>
        <time>2025-04-24T11:29:19Z</time>
      </trkpt>
      <trkpt lat="45.85936401039362" lon="4.482153989374638">
        <ele>373.61000000000001</ele>
        <time>2025-04-24T11:29:24Z</time>
      </trkpt>
      <trkpt lat="45.858915997669101" lon="4.480595039203763">
        <ele>364.95999999999998</ele>
        <time>2025-04-24T11:29:33Z</time>
      </trkpt>
      <trkpt lat="45.858717011287808" lon="4.479905962944031">
        <ele>364</ele>
        <time>2025-04-24T11:29:37Z</time>
      </trkpt>
      <trkpt lat="45.858659008517861" lon="4.479737989604473">
        <ele>364</ele>
        <time>2025-04-24T11:29:38Z</time>
      </trkpt>
      <trkpt lat="45.858578961342573" lon="4.47960002347827">
        <ele>364</ele>
        <time>2025-04-24T11:29:39Z</time>
      </trkpt>
      <trkpt lat="45.857686959207058" lon="4.478081976994872">
        <ele>366.88</ele>
        <time>2025-04-24T11:29:49Z</time>
      </trkpt>
      <trkpt lat="45.857405997812748" lon="4.477588031440973">
        <ele>368.80000000000001</ele>
        <time>2025-04-24T11:29:53Z</time>
      </trkpt>
      <trkpt lat="45.857351012527943" lon="4.477445036172867">
        <ele>369.27999999999997</ele>
        <time>2025-04-24T11:29:54Z</time>
      </trkpt>
      <trkpt lat="45.857263002544641" lon="4.47717497125268">
        <ele>368.80000000000001</ele>
        <time>2025-04-24T11:29:56Z</time>
      </trkpt>
      <trkpt lat="45.857239030301571" lon="4.477047985419631">
        <ele>368.80000000000001</ele>
        <time>2025-04-24T11:29:57Z</time>
      </trkpt>
      <trkpt lat="45.85721698589623" lon="4.47678797878325">
        <ele>368.31999999999999</ele>
        <time>2025-04-24T11:29:59Z</time>
      </trkpt>
      <trkpt lat="45.857222015038133" lon="4.47665898129344">
        <ele>368.31999999999999</ele>
        <time>2025-04-24T11:30:00Z</time>
      </trkpt>
      <trkpt lat="45.857252022251487" lon="4.475811989977956">
        <ele>367.83999999999997</ele>
        <time>2025-04-24T11:30:07Z</time>
      </trkpt>
      <trkpt lat="45.857253028079867" lon="4.475693972781301">
        <ele>367.83999999999997</ele>
        <time>2025-04-24T11:30:08Z</time>
      </trkpt>
      <trkpt lat="45.857226960361004" lon="4.475580984726548">
        <ele>367.83999999999997</ele>
        <time>2025-04-24T11:30:09Z</time>
      </trkpt>
      <trkpt lat="45.857030991464853" lon="4.474701974540949">
        <ele>371.20999999999998</ele>
        <time>2025-04-24T11:30:16Z</time>
      </trkpt>
      <trkpt lat="45.857034008949995" lon="4.474582029506564">
        <ele>372.64999999999998</ele>
        <time>2025-04-24T11:30:17Z</time>
      </trkpt>
      <trkpt lat="45.857058987021446" lon="4.47444599121809">
        <ele>373.13</ele>
        <time>2025-04-24T11:30:18Z</time>
      </trkpt>
      <trkpt lat="45.85708798840642" lon="4.474301990121603">
        <ele>373.61000000000001</ele>
        <time>2025-04-24T11:30:19Z</time>
      </trkpt>
      <trkpt lat="45.857156971469522" lon="4.474157989025116">
        <ele>374.08999999999997</ele>
        <time>2025-04-24T11:30:20Z</time>
      </trkpt>
      <trkpt lat="45.857226038351655" lon="4.474009964615107">
        <ele>374.56999999999999</ele>
        <time>2025-04-24T11:30:21Z</time>
      </trkpt>
      <trkpt lat="45.857296027243137" lon="4.47386302985251">
        <ele>375.05000000000001</ele>
        <time>2025-04-24T11:30:22Z</time>
      </trkpt>
      <trkpt lat="45.857916958630085" lon="4.472543969750404">
        <ele>378.89999999999998</ele>
        <time>2025-04-24T11:30:31Z</time>
      </trkpt>
      <trkpt lat="45.858735032379627" lon="4.470804976299405">
        <ele>386.58999999999997</ele>
        <time>2025-04-24T11:30:42Z</time>
      </trkpt>
      <trkpt lat="45.858951034024358" lon="4.47034397162497">
        <ele>388.50999999999999</ele>
        <time>2025-04-24T11:30:45Z</time>
      </trkpt>
      <trkpt lat="45.858994033187628" lon="4.470196031033993">
        <ele>388.50999999999999</ele>
        <time>2025-04-24T11:30:46Z</time>
      </trkpt>
      <trkpt lat="45.859024962410331" lon="4.470049012452364">
        <ele>388.99000000000001</ele>
        <time>2025-04-24T11:30:47Z</time>
      </trkpt>
      <trkpt lat="45.859073996543884" lon="4.469820018857718">
        <ele>388.99000000000001</ele>
        <time>2025-04-24T11:30:49Z</time>
      </trkpt>
      <trkpt lat="45.859229983761907" lon="4.469739971682429">
        <ele>388.99000000000001</ele>
        <time>2025-04-24T11:30:50Z</time>
      </trkpt>
      <trkpt lat="45.859229983761907" lon="4.469739971682429">
        <ele>388.99000000000001</ele>
        <time>2025-04-24T11:30:51Z</time>
      </trkpt>
      <trkpt lat="45.859297038987279" lon="4.469764027744532">
        <ele>389.47000000000003</ele>
        <time>2025-04-24T11:30:52Z</time>
      </trkpt>
      <trkpt lat="45.859383037313819" lon="4.469795040786266">
        <ele>389.47000000000003</ele>
        <time>2025-04-24T11:30:53Z</time>
      </trkpt>
      <trkpt lat="45.859538018703461" lon="4.469851031899452">
        <ele>389.94999999999999</ele>
        <time>2025-04-24T11:30:55Z</time>
      </trkpt>
      <trkpt lat="45.859604990109801" lon="4.469875004142523">
        <ele>390.43000000000001</ele>
        <time>2025-04-24T11:30:56Z</time>
      </trkpt>
      <trkpt lat="45.859765000641346" lon="4.469915991649032">
        <ele>391.87</ele>
        <time>2025-04-24T11:31:03Z</time>
      </trkpt>
      <trkpt lat="45.859758965671062" lon="4.469861006364226">
        <ele>391.38999999999999</ele>
        <time>2025-04-24T11:31:04Z</time>
      </trkpt>
      <trkpt lat="45.859749997034669" lon="4.469770984724164">
        <ele>391.38999999999999</ele>
        <time>2025-04-24T11:31:05Z</time>
      </trkpt>
      <trkpt lat="45.859654024243355" lon="4.46849400177598">
        <ele>391.87</ele>
        <time>2025-04-24T11:31:14Z</time>
      </trkpt>
      <trkpt lat="45.85964497178793" lon="4.468328962102532">
        <ele>392.36000000000001</ele>
        <time>2025-04-24T11:31:15Z</time>
      </trkpt>
      <trkpt lat="45.859591998159885" lon="4.468037020415068">
        <ele>392.83999999999997</ele>
        <time>2025-04-24T11:31:17Z</time>
      </trkpt>
      <trkpt lat="45.859552016481757" lon="4.467895030975342">
        <ele>393.31999999999999</ele>
        <time>2025-04-24T11:31:18Z</time>
      </trkpt>
      <trkpt lat="45.859484039247036" lon="4.467793023213744">
        <ele>393.80000000000001</ele>
        <time>2025-04-24T11:31:19Z</time>
      </trkpt>
      <trkpt lat="45.859411032870412" lon="4.467682968825102">
        <ele>393.80000000000001</ele>
        <time>2025-04-24T11:31:20Z</time>
      </trkpt>
      <trkpt lat="45.859337020665407" lon="4.467572998255491">
        <ele>393.80000000000001</ele>
        <time>2025-04-24T11:31:21Z</time>
      </trkpt>
      <trkpt lat="45.858880961313844" lon="4.467166978865862">
        <ele>395.24000000000001</ele>
        <time>2025-04-24T11:31:26Z</time>
      </trkpt>
      <trkpt lat="45.858788006007671" lon="4.467085003852844">
        <ele>395.72000000000003</ele>
        <time>2025-04-24T11:31:27Z</time>
      </trkpt>
      <trkpt lat="45.858171014115214" lon="4.466568008065224">
        <ele>398.12</ele>
        <time>2025-04-24T11:31:33Z</time>
      </trkpt>
      <trkpt lat="45.858091972768307" lon="4.466440016403794">
        <ele>398.60000000000002</ele>
        <time>2025-04-24T11:31:34Z</time>
      </trkpt>
      <trkpt lat="45.858017038553953" lon="4.466317975893617">
        <ele>399.07999999999998</ele>
        <time>2025-04-24T11:31:35Z</time>
      </trkpt>
      <trkpt lat="45.857701040804386" lon="4.465862000361085">
        <ele>400.05000000000001</ele>
        <time>2025-04-24T11:31:39Z</time>
      </trkpt>
      <trkpt lat="45.857627028599381" lon="4.465771978721023">
        <ele>400.52999999999997</ele>
        <time>2025-04-24T11:31:40Z</time>
      </trkpt>
      <trkpt lat="45.857557039707899" lon="4.465693021193147">
        <ele>400.52999999999997</ele>
        <time>2025-04-24T11:31:41Z</time>
      </trkpt>
      <trkpt lat="45.857494007796049" lon="4.465621020644903">
        <ele>401.00999999999999</ele>
        <time>2025-04-24T11:31:42Z</time>
      </trkpt>
      <trkpt lat="45.857437010854483" lon="4.465556982904673">
        <ele>401.00999999999999</ele>
        <time>2025-04-24T11:31:43Z</time>
      </trkpt>
      <trkpt lat="45.857379008084536" lon="4.465490011498332">
        <ele>401.00999999999999</ele>
        <time>2025-04-24T11:31:44Z</time>
      </trkpt>
      <trkpt lat="45.857179015874863" lon="4.465261017903686">
        <ele>401.97000000000003</ele>
        <time>2025-04-24T11:31:47Z</time>
      </trkpt>
      <trkpt lat="45.857114978134632" lon="4.465178959071636">
        <ele>401.97000000000003</ele>
        <time>2025-04-24T11:31:48Z</time>
      </trkpt>
      <trkpt lat="45.85698296315968" lon="4.465007968246937">
        <ele>402.93000000000001</ele>
        <time>2025-04-24T11:31:50Z</time>
      </trkpt>
      <trkpt lat="45.856649028137326" lon="4.464575964957476">
        <ele>405.81</ele>
        <time>2025-04-24T11:31:55Z</time>
      </trkpt>
      <trkpt lat="45.856565041467547" lon="4.464468006044626">
        <ele>405.81</ele>
        <time>2025-04-24T11:31:56Z</time>
      </trkpt>
      <trkpt lat="45.856478037312627" lon="4.464355017989874">
        <ele>406.29000000000002</ele>
        <time>2025-04-24T11:31:57Z</time>
      </trkpt>
      <trkpt lat="45.856382986530662" lon="4.464232977479696">
        <ele>406.76999999999998</ele>
        <time>2025-04-24T11:31:58Z</time>
      </trkpt>
      <trkpt lat="45.856269998475909" lon="4.464086964726448">
        <ele>406.76999999999998</ele>
        <time>2025-04-24T11:31:59Z</time>
      </trkpt>
      <trkpt lat="45.856136977672577" lon="4.46393902413547">
        <ele>406.76999999999998</ele>
        <time>2025-04-24T11:32:00Z</time>
      </trkpt>
      <trkpt lat="45.855981996282935" lon="4.463893007487059">
        <ele>406.76999999999998</ele>
        <time>2025-04-24T11:32:01Z</time>
      </trkpt>
      <trkpt lat="45.855808993801475" lon="4.463876998052001">
        <ele>406.76999999999998</ele>
        <time>2025-04-24T11:32:02Z</time>
      </trkpt>
      <trkpt lat="45.855632973834872" lon="4.463870963081718">
        <ele>406.76999999999998</ele>
        <time>2025-04-24T11:32:03Z</time>
      </trkpt>
      <trkpt lat="45.85528202354908" lon="4.463825030252338">
        <ele>406.29000000000002</ele>
        <time>2025-04-24T11:32:05Z</time>
      </trkpt>
      <trkpt lat="45.85511103272438" lon="4.463768033310771">
        <ele>406.29000000000002</ele>
        <time>2025-04-24T11:32:06Z</time>
      </trkpt>
      <trkpt lat="45.854790005832911" lon="4.463691003620625">
        <ele>406.76999999999998</ele>
        <time>2025-04-24T11:32:08Z</time>
      </trkpt>
      <trkpt lat="45.854624966159463" lon="4.463653033599258">
        <ele>407.25999999999999</ele>
        <time>2025-04-24T11:32:09Z</time>
      </trkpt>
      <trkpt lat="45.854454981163144" lon="4.463677005842328">
        <ele>407.74000000000001</ele>
        <time>2025-04-24T11:32:10Z</time>
      </trkpt>
      <trkpt lat="45.854288013651967" lon="4.463712964206934">
        <ele>408.22000000000003</ele>
        <time>2025-04-24T11:32:11Z</time>
      </trkpt>
      <trkpt lat="45.854130014777184" lon="4.46374699473381">
        <ele>408.69999999999999</ele>
        <time>2025-04-24T11:32:12Z</time>
      </trkpt>
      <trkpt lat="45.853980984538794" lon="4.463779013603926">
        <ele>409.18000000000001</ele>
        <time>2025-04-24T11:32:13Z</time>
      </trkpt>
      <trkpt lat="45.853844024240971" lon="4.46380902081728">
        <ele>409.66000000000003</ele>
        <time>2025-04-24T11:32:14Z</time>
      </trkpt>
      <trkpt lat="45.853713015094399" lon="4.463799968361855">
        <ele>410.62</ele>
        <time>2025-04-24T11:32:15Z</time>
      </trkpt>
      <trkpt lat="45.853596003726125" lon="4.463777001947165">
        <ele>411.10000000000002</ele>
        <time>2025-04-24T11:32:16Z</time>
      </trkpt>
      <trkpt lat="45.853514028713107" lon="4.463676000013948">
        <ele>411.57999999999998</ele>
        <time>2025-04-24T11:32:17Z</time>
      </trkpt>
      <trkpt lat="45.853415038436651" lon="4.463539039716125">
        <ele>412.06</ele>
        <time>2025-04-24T11:32:18Z</time>
      </trkpt>
      <trkpt lat="45.853363992646337" lon="4.46338196285069">
        <ele>412.54000000000002</ele>
        <time>2025-04-24T11:32:19Z</time>
      </trkpt>
      <trkpt lat="45.853299032896757" lon="4.463184988126159">
        <ele>413.01999999999998</ele>
        <time>2025-04-24T11:32:20Z</time>
      </trkpt>
      <trkpt lat="45.853084037080407" lon="4.462527008727193">
        <ele>413.98000000000002</ele>
        <time>2025-04-24T11:32:23Z</time>
      </trkpt>
      <trkpt lat="45.852993009611964" lon="4.462320981547236">
        <ele>414.47000000000003</ele>
        <time>2025-04-24T11:32:24Z</time>
      </trkpt>
      <trkpt lat="45.852863006293774" lon="4.462144961580634">
        <ele>414.94999999999999</ele>
        <time>2025-04-24T11:32:25Z</time>
      </trkpt>
      <trkpt lat="45.852710958570242" lon="4.461981011554599">
        <ele>415.43000000000001</ele>
        <time>2025-04-24T11:32:26Z</time>
      </trkpt>
      <trkpt lat="45.852552959695458" lon="4.461812032386661">
        <ele>415.43000000000001</ele>
        <time>2025-04-24T11:32:27Z</time>
      </trkpt>
      <trkpt lat="45.851315958425403" lon="4.460732024163008">
        <ele>417.35000000000002</ele>
        <time>2025-04-24T11:32:34Z</time>
      </trkpt>
      <trkpt lat="45.851142033934593" lon="4.460562039166689">
        <ele>417.35000000000002</ele>
        <time>2025-04-24T11:32:35Z</time>
      </trkpt>
      <trkpt lat="45.85098504088819" lon="4.46037202142179">
        <ele>417.82999999999998</ele>
        <time>2025-04-24T11:32:36Z</time>
      </trkpt>
      <trkpt lat="45.850237039849162" lon="4.459567023441196">
        <ele>418.79000000000002</ele>
        <time>2025-04-24T11:32:41Z</time>
      </trkpt>
      <trkpt lat="45.850102007389069" lon="4.459438025951386">
        <ele>418.79000000000002</ele>
        <time>2025-04-24T11:32:42Z</time>
      </trkpt>
      <trkpt lat="45.849934034049511" lon="4.459369964897633">
        <ele>419.26999999999998</ele>
        <time>2025-04-24T11:32:43Z</time>
      </trkpt>
      <trkpt lat="45.849772011861205" lon="4.459345992654562">
        <ele>419.75</ele>
        <time>2025-04-24T11:32:44Z</time>
      </trkpt>
      <trkpt lat="45.849600015208125" lon="4.459335012361407">
        <ele>420.23000000000002</ele>
        <time>2025-04-24T11:32:45Z</time>
      </trkpt>
      <trkpt lat="45.849427012726665" lon="4.459323026239872">
        <ele>420.70999999999998</ele>
        <time>2025-04-24T11:32:46Z</time>
      </trkpt>
      <trkpt lat="45.848119016736746" lon="4.459152035415173">
        <ele>424.07999999999998</ele>
        <time>2025-04-24T11:32:53Z</time>
      </trkpt>
      <trkpt lat="45.84793696179986" lon="4.459081962704659">
        <ele>425.04000000000002</ele>
        <time>2025-04-24T11:32:54Z</time>
      </trkpt>
      <trkpt lat="45.847774017602205" lon="4.458949025720358">
        <ele>425.51999999999998</ele>
        <time>2025-04-24T11:32:55Z</time>
      </trkpt>
      <trkpt lat="45.847651977092028" lon="4.45876001380384">
        <ele>426.48000000000002</ele>
        <time>2025-04-24T11:32:56Z</time>
      </trkpt>
      <trkpt lat="45.847525997087359" lon="4.458563039079309">
        <ele>427.44</ele>
        <time>2025-04-24T11:32:57Z</time>
      </trkpt>
      <trkpt lat="45.847414014860988" lon="4.458358017727733">
        <ele>427.92000000000002</ele>
        <time>2025-04-24T11:32:58Z</time>
      </trkpt>
      <trkpt lat="45.847341008484364" lon="4.45809499360621">
        <ele>428.88999999999999</ele>
        <time>2025-04-24T11:32:59Z</time>
      </trkpt>
      <trkpt lat="45.847263978794217" lon="4.457819983363152">
        <ele>429.85000000000002</ele>
        <time>2025-04-24T11:33:00Z</time>
      </trkpt>
      <trkpt lat="45.847186027094722" lon="4.45753701031208">
        <ele>430.32999999999998</ele>
        <time>2025-04-24T11:33:01Z</time>
      </trkpt>
      <trkpt lat="45.846999026834965" lon="4.457038035616279">
        <ele>432.25</ele>
        <time>2025-04-24T11:33:03Z</time>
      </trkpt>
      <trkpt lat="45.846870029345155" lon="4.456823039799929">
        <ele>432.73000000000002</ele>
        <time>2025-04-24T11:33:04Z</time>
      </trkpt>
      <trkpt lat="45.846713036298752" lon="4.456680966541171">
        <ele>433.20999999999998</ele>
        <time>2025-04-24T11:33:05Z</time>
      </trkpt>
      <trkpt lat="45.84653802216053" lon="4.456576025113463">
        <ele>434.17000000000002</ele>
        <time>2025-04-24T11:33:06Z</time>
      </trkpt>
      <trkpt lat="45.846349010244012" lon="4.456490026786923">
        <ele>435.13</ele>
        <time>2025-04-24T11:33:07Z</time>
      </trkpt>
      <trkpt lat="45.846154969185591" lon="4.4563979934901">
        <ele>435.61000000000001</ele>
        <time>2025-04-24T11:33:08Z</time>
      </trkpt>
      <trkpt lat="45.845966963097453" lon="4.456287017092109">
        <ele>436.57999999999998</ele>
        <time>2025-04-24T11:33:09Z</time>
      </trkpt>
      <trkpt lat="45.844173990190029" lon="4.455296024680138">
        <ele>443.79000000000002</ele>
        <time>2025-04-24T11:33:18Z</time>
      </trkpt>
      <trkpt lat="45.842596013098955" lon="4.454402010887861">
        <ele>449.06999999999999</ele>
        <time>2025-04-24T11:33:26Z</time>
      </trkpt>
      <trkpt lat="45.842034006491303" lon="4.454046031460166">
        <ele>451</ele>
        <time>2025-04-24T11:33:29Z</time>
      </trkpt>
      <trkpt lat="45.841867960989475" lon="4.453914016485214">
        <ele>451.95999999999998</ele>
        <time>2025-04-24T11:33:30Z</time>
      </trkpt>
      <trkpt lat="45.841732006520033" lon="4.453728022053838">
        <ele>452.92000000000002</ele>
        <time>2025-04-24T11:33:31Z</time>
      </trkpt>
      <trkpt lat="45.841636033728719" lon="4.453505985438824">
        <ele>453.88</ele>
        <time>2025-04-24T11:33:32Z</time>
      </trkpt>
      <trkpt lat="45.841537965461612" lon="4.453271040692926">
        <ele>454.83999999999997</ele>
        <time>2025-04-24T11:33:33Z</time>
      </trkpt>
      <trkpt lat="45.841458002105355" lon="4.453040035441518">
        <ele>456.27999999999997</ele>
        <time>2025-04-24T11:33:34Z</time>
      </trkpt>
      <trkpt lat="45.841431012377143" lon="4.45276795886457">
        <ele>458.20999999999998</ele>
        <time>2025-04-24T11:33:35Z</time>
      </trkpt>
      <trkpt lat="45.841426989063621" lon="4.452480040490627">
        <ele>459.64999999999998</ele>
        <time>2025-04-24T11:33:36Z</time>
      </trkpt>
      <trkpt lat="45.841438975185156" lon="4.452178040519357">
        <ele>461.08999999999997</ele>
        <time>2025-04-24T11:33:37Z</time>
      </trkpt>
      <trkpt lat="45.841450039297342" lon="4.451876962557435">
        <ele>462.52999999999997</ele>
        <time>2025-04-24T11:33:38Z</time>
      </trkpt>
      <trkpt lat="45.841484991833568" lon="4.450965011492372">
        <ele>465.89999999999998</ele>
        <time>2025-04-24T11:33:41Z</time>
      </trkpt>
      <trkpt lat="45.841424977406859" lon="4.450694024562836">
        <ele>467.33999999999997</ele>
        <time>2025-04-24T11:33:42Z</time>
      </trkpt>
      <trkpt lat="45.841355994343758" lon="4.450385989621282">
        <ele>468.30000000000001</ele>
        <time>2025-04-24T11:33:43Z</time>
      </trkpt>
      <trkpt lat="45.841245017945766" lon="4.450176022946835">
        <ele>469.25999999999999</ele>
        <time>2025-04-24T11:33:44Z</time>
      </trkpt>
      <trkpt lat="45.841116020455956" lon="4.449942000210285">
        <ele>470.22000000000003</ele>
        <time>2025-04-24T11:33:45Z</time>
      </trkpt>
      <trkpt lat="45.840967996045947" lon="4.449736978858709">
        <ele>471.18000000000001</ele>
        <time>2025-04-24T11:33:46Z</time>
      </trkpt>
      <trkpt lat="45.840532975271344" lon="4.449133984744549">
        <ele>474.55000000000001</ele>
        <time>2025-04-24T11:33:49Z</time>
      </trkpt>
      <trkpt lat="45.840381011366844" lon="4.448959976434708">
        <ele>475.50999999999999</ele>
        <time>2025-04-24T11:33:50Z</time>
      </trkpt>
      <trkpt lat="45.840209014713764" lon="4.448861991986632">
        <ele>476.47000000000003</ele>
        <time>2025-04-24T11:33:51Z</time>
      </trkpt>
      <trkpt lat="45.840038023889065" lon="4.448798960074782">
        <ele>477.43000000000001</ele>
        <time>2025-04-24T11:33:52Z</time>
      </trkpt>
      <trkpt lat="45.839882036671042" lon="4.448755038902164">
        <ele>478.38999999999999</ele>
        <time>2025-04-24T11:33:53Z</time>
      </trkpt>
      <trkpt lat="45.839730994775891" lon="4.448742968961597">
        <ele>478.87</ele>
        <time>2025-04-24T11:33:54Z</time>
      </trkpt>
      <trkpt lat="45.839076032862067" lon="4.448657976463437">
        <ele>481.27999999999997</ele>
        <time>2025-04-24T11:33:59Z</time>
      </trkpt>
      <trkpt lat="45.838951980695128" lon="4.448603997007012">
        <ele>481.75999999999999</ele>
        <time>2025-04-24T11:34:00Z</time>
      </trkpt>
      <trkpt lat="45.838823989033699" lon="4.448549011722207">
        <ele>482.72000000000003</ele>
        <time>2025-04-24T11:34:01Z</time>
      </trkpt>
      <trkpt lat="45.83871603012085" lon="4.448381960391998">
        <ele>483.19999999999999</ele>
        <time>2025-04-24T11:34:02Z</time>
      </trkpt>
      <trkpt lat="45.838620979338884" lon="4.448207030072808">
        <ele>483.68000000000001</ele>
        <time>2025-04-24T11:34:03Z</time>
      </trkpt>
      <trkpt lat="45.83852500654757" lon="4.448019023984671">
        <ele>484.63999999999999</ele>
        <time>2025-04-24T11:34:04Z</time>
      </trkpt>
      <trkpt lat="45.838436996564269" lon="4.447796987369657">
        <ele>485.12</ele>
        <time>2025-04-24T11:34:05Z</time>
      </trkpt>
      <trkpt lat="45.838344963267446" lon="4.447568999603391">
        <ele>486.07999999999998</ele>
        <time>2025-04-24T11:34:06Z</time>
      </trkpt>
      <trkpt lat="45.838243961334229" lon="4.447317039594054">
        <ele>487.05000000000001</ele>
        <time>2025-04-24T11:34:07Z</time>
      </trkpt>
      <trkpt lat="45.838139019906521" lon="4.447148982435465">
        <ele>488.00999999999999</ele>
        <time>2025-04-24T11:34:08Z</time>
      </trkpt>
      <trkpt lat="45.837973980233073" lon="4.44703096523881">
        <ele>488.49000000000001</ele>
        <time>2025-04-24T11:34:09Z</time>
      </trkpt>
      <trkpt lat="45.837811036035419" lon="4.446924012154341">
        <ele>489.93000000000001</ele>
        <time>2025-04-24T11:34:10Z</time>
      </trkpt>
      <trkpt lat="45.837645996361971" lon="4.446818986907601">
        <ele>490.88999999999999</ele>
        <time>2025-04-24T11:34:11Z</time>
      </trkpt>
      <trkpt lat="45.83704300224781" lon="4.446415985003114">
        <ele>494.74000000000001</ele>
        <time>2025-04-24T11:34:15Z</time>
      </trkpt>
      <trkpt lat="45.83693403750658" lon="4.44623501971364">
        <ele>495.69999999999999</ele>
        <time>2025-04-24T11:34:16Z</time>
      </trkpt>
      <trkpt lat="45.836834963411093" lon="4.446066040545702">
        <ele>496.66000000000003</ele>
        <time>2025-04-24T11:34:17Z</time>
      </trkpt>
      <trkpt lat="45.836758017539978" lon="4.445876022800803">
        <ele>497.62</ele>
        <time>2025-04-24T11:34:18Z</time>
      </trkpt>
      <trkpt lat="45.836728010326624" lon="4.445638982579112">
        <ele>498.57999999999998</ele>
        <time>2025-04-24T11:34:19Z</time>
      </trkpt>
      <trkpt lat="45.836694985628128" lon="4.445379981771112">
        <ele>499.06</ele>
        <time>2025-04-24T11:34:20Z</time>
      </trkpt>
      <trkpt lat="45.836660033091903" lon="4.445103965699673">
        <ele>499.06</ele>
        <time>2025-04-24T11:34:21Z</time>
      </trkpt>
      <trkpt lat="45.83656900562346" lon="4.444561991840601">
        <ele>499.54000000000002</ele>
        <time>2025-04-24T11:34:23Z</time>
      </trkpt>
      <trkpt lat="45.836482001468539" lon="4.444308020174503">
        <ele>500.01999999999998</ele>
        <time>2025-04-24T11:34:24Z</time>
      </trkpt>
      <trkpt lat="45.835181968286633" lon="4.4417679682374">
        <ele>505.79000000000002</ele>
        <time>2025-04-24T11:34:34Z</time>
      </trkpt>
      <trkpt lat="45.834423992782831" lon="4.44019703194499">
        <ele>509.16000000000003</ele>
        <time>2025-04-24T11:34:41Z</time>
      </trkpt>
      <trkpt lat="45.834412006661296" lon="4.439982958137989">
        <ele>509.63999999999999</ele>
        <time>2025-04-24T11:34:42Z</time>
      </trkpt>
      <trkpt lat="45.834416029974818" lon="4.439755976200104">
        <ele>510.12</ele>
        <time>2025-04-24T11:34:43Z</time>
      </trkpt>
      <trkpt lat="45.834457017481327" lon="4.439524970948696">
        <ele>511.07999999999998</ele>
        <time>2025-04-24T11:34:44Z</time>
      </trkpt>
      <trkpt lat="45.834535975009203" lon="4.439293965697289">
        <ele>511.56</ele>
        <time>2025-04-24T11:34:45Z</time>
      </trkpt>
      <trkpt lat="45.834625996649265" lon="4.439066983759403">
        <ele>512.03999999999996</ele>
        <time>2025-04-24T11:34:46Z</time>
      </trkpt>
      <trkpt lat="45.834724986925721" lon="4.438819969072938">
        <ele>513</ele>
        <time>2025-04-24T11:34:47Z</time>
      </trkpt>
      <trkpt lat="45.83510703407228" lon="4.437885973602533">
        <ele>515.39999999999998</ele>
        <time>2025-04-24T11:34:51Z</time>
      </trkpt>
      <trkpt lat="45.835161013528705" lon="4.437624039128423">
        <ele>515.88</ele>
        <time>2025-04-24T11:34:52Z</time>
      </trkpt>
      <trkpt lat="45.835211975499988" lon="4.437058009207249">
        <ele>518.28999999999996</ele>
        <time>2025-04-24T11:34:54Z</time>
      </trkpt>
      <trkpt lat="45.835303002968431" lon="4.435654040426016">
        <ele>523.09000000000003</ele>
        <time>2025-04-24T11:34:59Z</time>
      </trkpt>
      <trkpt lat="45.835348013788462" lon="4.43538598716259">
        <ele>524.05999999999995</ele>
        <time>2025-04-24T11:35:00Z</time>
      </trkpt>
      <trkpt lat="45.835454966872931" lon="4.434607978910208">
        <ele>526.94000000000005</ele>
        <time>2025-04-24T11:35:03Z</time>
      </trkpt>
      <trkpt lat="45.835454966872931" lon="4.434361970052123">
        <ele>528.38</ele>
        <time>2025-04-24T11:35:04Z</time>
      </trkpt>
      <trkpt lat="45.835413979366422" lon="4.434130964800715">
        <ele>529.34000000000003</ele>
        <time>2025-04-24T11:35:05Z</time>
      </trkpt>
      <trkpt lat="45.835355976596475" lon="4.433898031711578">
        <ele>530.29999999999995</ele>
        <time>2025-04-24T11:35:06Z</time>
      </trkpt>
      <trkpt lat="45.835262015461922" lon="4.433685969561338">
        <ele>531.75</ele>
        <time>2025-04-24T11:35:07Z</time>
      </trkpt>
      <trkpt lat="45.835031010210514" lon="4.433270981535316">
        <ele>534.14999999999998</ele>
        <time>2025-04-24T11:35:09Z</time>
      </trkpt>
      <trkpt lat="45.834907963871956" lon="4.433070989325643">
        <ele>535.11000000000001</ele>
        <time>2025-04-24T11:35:10Z</time>
      </trkpt>
      <trkpt lat="45.834789024665952" lon="4.432878037914634">
        <ele>536.07000000000005</ele>
        <time>2025-04-24T11:35:11Z</time>
      </trkpt>
      <trkpt lat="45.834682993590832" lon="4.432705035433173">
        <ele>537.02999999999997</ele>
        <time>2025-04-24T11:35:12Z</time>
      </trkpt>
      <trkpt lat="45.834557013586164" lon="4.432566985487938">
        <ele>537.99000000000001</ele>
        <time>2025-04-24T11:35:13Z</time>
      </trkpt>
      <trkpt lat="45.834428016096354" lon="4.432438993826509">
        <ele>538.96000000000004</ele>
        <time>2025-04-24T11:35:14Z</time>
      </trkpt>
      <trkpt lat="45.834279991686344" lon="4.432331034913659">
        <ele>539.91999999999996</ele>
        <time>2025-04-24T11:35:15Z</time>
      </trkpt>
      <trkpt lat="45.834145965054631" lon="4.432231960818172">
        <ele>541.36000000000001</ele>
        <time>2025-04-24T11:35:16Z</time>
      </trkpt>
      <trkpt lat="45.833722008392215" lon="4.431737009435892">
        <ele>545.20000000000005</ele>
        <time>2025-04-24T11:35:19Z</time>
      </trkpt>
      <trkpt lat="45.83360499702394" lon="4.431549003347755">
        <ele>546.64999999999998</ele>
        <time>2025-04-24T11:35:20Z</time>
      </trkpt>
      <trkpt lat="45.833483962342143" lon="4.431352028623223">
        <ele>547.61000000000001</ele>
        <time>2025-04-24T11:35:21Z</time>
      </trkpt>
      <trkpt lat="45.833352031186223" lon="4.431138960644603">
        <ele>549.04999999999995</ele>
        <time>2025-04-24T11:35:22Z</time>
      </trkpt>
      <trkpt lat="45.833206018432975" lon="4.430919019505382">
        <ele>550.00999999999999</ele>
        <time>2025-04-24T11:35:23Z</time>
      </trkpt>
      <trkpt lat="45.832721963524818" lon="4.430333962664008">
        <ele>553.38</ele>
        <time>2025-04-24T11:35:26Z</time>
      </trkpt>
      <trkpt lat="45.832403032109141" lon="4.429947976022959">
        <ele>555.29999999999995</ele>
        <time>2025-04-24T11:35:28Z</time>
      </trkpt>
      <trkpt lat="45.832278979942203" lon="4.42975502461195">
        <ele>556.25999999999999</ele>
        <time>2025-04-24T11:35:29Z</time>
      </trkpt>
      <trkpt lat="45.832175966352224" lon="4.429527958855033">
        <ele>557.22000000000003</ele>
        <time>2025-04-24T11:35:30Z</time>
      </trkpt>
      <trkpt lat="45.832076976075768" lon="4.429308017715812">
        <ele>558.17999999999995</ele>
        <time>2025-04-24T11:35:31Z</time>
      </trkpt>
      <trkpt lat="45.832011010497808" lon="4.429067960008979">
        <ele>558.65999999999997</ele>
        <time>2025-04-24T11:35:32Z</time>
      </trkpt>
      <trkpt lat="45.831987038254738" lon="4.428795967251062">
        <ele>559.62</ele>
        <time>2025-04-24T11:35:33Z</time>
      </trkpt>
      <trkpt lat="45.831962982192636" lon="4.428522968664765">
        <ele>560.11000000000001</ele>
        <time>2025-04-24T11:35:34Z</time>
      </trkpt>
      <trkpt lat="45.831880001351237" lon="4.428032962605357">
        <ele>562.50999999999999</ele>
        <time>2025-04-24T11:35:36Z</time>
      </trkpt>
      <trkpt lat="45.831806994974613" lon="4.427790977060795">
        <ele>563.95000000000005</ele>
        <time>2025-04-24T11:35:37Z</time>
      </trkpt>
      <trkpt lat="45.831711022183299" lon="4.427589979022741">
        <ele>565.38999999999999</ele>
        <time>2025-04-24T11:35:38Z</time>
      </trkpt>
      <trkpt lat="45.831410028040409" lon="4.42706803791225">
        <ele>569.24000000000001</ele>
        <time>2025-04-24T11:35:41Z</time>
      </trkpt>
      <trkpt lat="45.831313971430063" lon="4.426931999623776">
        <ele>570.20000000000005</ele>
        <time>2025-04-24T11:35:42Z</time>
      </trkpt>
      <trkpt lat="45.831192014738917" lon="4.426914984360337">
        <ele>571.15999999999997</ele>
        <time>2025-04-24T11:35:43Z</time>
      </trkpt>
      <trkpt lat="45.831053964793682" lon="4.426929987967014">
        <ele>572.60000000000002</ele>
        <time>2025-04-24T11:35:44Z</time>
      </trkpt>
      <trkpt lat="45.830903006717563" lon="4.426956977695227">
        <ele>573.55999999999995</ele>
        <time>2025-04-24T11:35:45Z</time>
      </trkpt>
      <trkpt lat="45.830744002014399" lon="4.426970975473523">
        <ele>574.52999999999997</ele>
        <time>2025-04-24T11:35:46Z</time>
      </trkpt>
      <trkpt lat="45.830579968169332" lon="4.426955971866846">
        <ele>575.49000000000001</ele>
        <time>2025-04-24T11:35:47Z</time>
      </trkpt>
      <trkpt lat="45.830305041745305" lon="4.426931999623776">
        <ele>576.92999999999995</ele>
        <time>2025-04-24T11:35:49Z</time>
      </trkpt>
      <trkpt lat="45.830143019556999" lon="4.426816999912262">
        <ele>577.88999999999999</ele>
        <time>2025-04-24T11:35:50Z</time>
      </trkpt>
      <trkpt lat="45.828979024663568" lon="4.425831036642194">
        <ele>584.13999999999999</ele>
        <time>2025-04-24T11:35:57Z</time>
      </trkpt>
      <trkpt lat="45.8281259983778" lon="4.425113964825869">
        <ele>588.95000000000005</ele>
        <time>2025-04-24T11:36:02Z</time>
      </trkpt>
      <trkpt lat="45.827999012544751" lon="4.424972981214523">
        <ele>590.38999999999999</ele>
        <time>2025-04-24T11:36:03Z</time>
      </trkpt>
      <trkpt lat="45.827920977026224" lon="4.424779023975134">
        <ele>591.35000000000002</ele>
        <time>2025-04-24T11:36:04Z</time>
      </trkpt>
      <trkpt lat="45.827855011448264" lon="4.424550030380487">
        <ele>592.30999999999995</ele>
        <time>2025-04-24T11:36:05Z</time>
      </trkpt>
      <trkpt lat="45.827784016728401" lon="4.424305027350783">
        <ele>593.75</ele>
        <time>2025-04-24T11:36:06Z</time>
      </trkpt>
      <trkpt lat="45.827642027288675" lon="4.423809992149472">
        <ele>596.63999999999999</ele>
        <time>2025-04-24T11:36:08Z</time>
      </trkpt>
      <trkpt lat="45.827596010640264" lon="4.423564989119768">
        <ele>598.08000000000004</ele>
        <time>2025-04-24T11:36:09Z</time>
      </trkpt>
      <trkpt lat="45.827580001205206" lon="4.423262989148498">
        <ele>599.03999999999996</ele>
        <time>2025-04-24T11:36:10Z</time>
      </trkpt>
      <trkpt lat="45.82763004116714" lon="4.422484980896115">
        <ele>601.91999999999996</ele>
        <time>2025-04-24T11:36:13Z</time>
      </trkpt>
      <trkpt lat="45.827591987326741" lon="4.422223968431354">
        <ele>602.88</ele>
        <time>2025-04-24T11:36:14Z</time>
      </trkpt>
      <trkpt lat="45.827542031183839" lon="4.421963039785624">
        <ele>603.36000000000001</ele>
        <time>2025-04-24T11:36:15Z</time>
      </trkpt>
      <trkpt lat="45.827486040070653" lon="4.4214600417763">
        <ele>604.80999999999995</ele>
        <time>2025-04-24T11:36:17Z</time>
      </trkpt>
      <trkpt lat="45.827478999271989" lon="4.421246973797679">
        <ele>605.76999999999998</ele>
        <time>2025-04-24T11:36:18Z</time>
      </trkpt>
      <trkpt lat="45.827494002878666" lon="4.421014962717891">
        <ele>606.25</ele>
        <time>2025-04-24T11:36:19Z</time>
      </trkpt>
      <trkpt lat="45.827563991770148" lon="4.420816982164979">
        <ele>607.21000000000004</ele>
        <time>2025-04-24T11:36:20Z</time>
      </trkpt>
      <trkpt lat="45.827635992318392" lon="4.420611038804054">
        <ele>607.69000000000005</ele>
        <time>2025-04-24T11:36:21Z</time>
      </trkpt>
      <trkpt lat="45.827712016180158" lon="4.420395959168673">
        <ele>608.64999999999998</ele>
        <time>2025-04-24T11:36:22Z</time>
      </trkpt>
      <trkpt lat="45.827800026163459" lon="4.420168977230787">
        <ele>609.13</ele>
        <time>2025-04-24T11:36:23Z</time>
      </trkpt>
      <trkpt lat="45.828594965860248" lon="4.418586976826191">
        <ele>616.34000000000003</ele>
        <time>2025-04-24T11:36:30Z</time>
      </trkpt>
      <trkpt lat="45.828739972785115" lon="4.418396959081292">
        <ele>616.82000000000005</ele>
        <time>2025-04-24T11:36:31Z</time>
      </trkpt>
      <trkpt lat="45.830186018720269" lon="4.417334971949458">
        <ele>621.14999999999998</ele>
        <time>2025-04-24T11:36:39Z</time>
      </trkpt>
      <trkpt lat="45.831038039177656" lon="4.416755028069019">
        <ele>623.54999999999995</ele>
        <time>2025-04-24T11:36:44Z</time>
      </trkpt>
      <trkpt lat="45.831265021115541" lon="4.416510025039315">
        <ele>624.02999999999997</ele>
        <time>2025-04-24T11:36:46Z</time>
      </trkpt>
      <trkpt lat="45.831320006400347" lon="4.416372980922461">
        <ele>624.50999999999999</ele>
        <time>2025-04-24T11:36:47Z</time>
      </trkpt>
      <trkpt lat="45.831360993906856" lon="4.416228979825974">
        <ele>624.02999999999997</ele>
        <time>2025-04-24T11:36:48Z</time>
      </trkpt>
      <trkpt lat="45.831361999735236" lon="4.416081039234996">
        <ele>624.50999999999999</ele>
        <time>2025-04-24T11:36:49Z</time>
      </trkpt>
      <trkpt lat="45.831320006400347" lon="4.415914993733168">
        <ele>624.99000000000001</ele>
        <time>2025-04-24T11:36:50Z</time>
      </trkpt>
      <trkpt lat="45.83124197088182" lon="4.415760012343526">
        <ele>625.47000000000003</ele>
        <time>2025-04-24T11:36:51Z</time>
      </trkpt>
      <trkpt lat="45.831149015575647" lon="4.415643000975251">
        <ele>625.96000000000004</ele>
        <time>2025-04-24T11:36:52Z</time>
      </trkpt>
      <trkpt lat="45.831022029742599" lon="4.415590027347207">
        <ele>625.96000000000004</ele>
        <time>2025-04-24T11:36:53Z</time>
      </trkpt>
      <trkpt lat="45.830841986462474" lon="4.415560020133853">
        <ele>625.47000000000003</ele>
        <time>2025-04-24T11:36:54Z</time>
      </trkpt>
      <trkpt lat="45.830678958445787" lon="4.415576029568911">
        <ele>625.47000000000003</ele>
        <time>2025-04-24T11:36:55Z</time>
      </trkpt>
      <trkpt lat="45.830479972064495" lon="4.415595978498459">
        <ele>625.96000000000004</ele>
        <time>2025-04-24T11:36:56Z</time>
      </trkpt>
      <trkpt lat="45.829921988770366" lon="4.415655992925167">
        <ele>627.39999999999998</ele>
        <time>2025-04-24T11:36:59Z</time>
      </trkpt>
      <trkpt lat="45.82976097241044" lon="4.415598995983601">
        <ele>627.88</ele>
        <time>2025-04-24T11:37:00Z</time>
      </trkpt>
      <trkpt lat="45.829597022384405" lon="4.4154919590801">
        <ele>628.84000000000003</ele>
        <time>2025-04-24T11:37:01Z</time>
      </trkpt>
      <trkpt lat="45.828961003571749" lon="4.414945039898157">
        <ele>633.64999999999998</ele>
        <time>2025-04-24T11:37:05Z</time>
      </trkpt>
      <trkpt lat="45.828851033002138" lon="4.414769019931555">
        <ele>634.61000000000001</ele>
        <time>2025-04-24T11:37:06Z</time>
      </trkpt>
      <trkpt lat="45.828772997483611" lon="4.414580008015037">
        <ele>635.57000000000005</ele>
        <time>2025-04-24T11:37:07Z</time>
      </trkpt>
      <trkpt lat="45.828747013583779" lon="4.414358977228403">
        <ele>636.52999999999997</ele>
        <time>2025-04-24T11:37:08Z</time>
      </trkpt>
      <trkpt lat="45.828717006370425" lon="4.414100982248783">
        <ele>637.49000000000001</ele>
        <time>2025-04-24T11:37:09Z</time>
      </trkpt>
      <trkpt lat="45.828739972785115" lon="4.413869976997376">
        <ele>638.45000000000005</ele>
        <time>2025-04-24T11:37:10Z</time>
      </trkpt>
      <trkpt lat="45.828779032453895" lon="4.413603013381362">
        <ele>639.40999999999997</ele>
        <time>2025-04-24T11:37:11Z</time>
      </trkpt>
      <trkpt lat="45.828851033002138" lon="4.413334038108587">
        <ele>640.38</ele>
        <time>2025-04-24T11:37:12Z</time>
      </trkpt>
      <trkpt lat="45.828924039378762" lon="4.413057016208768">
        <ele>641.82000000000005</ele>
        <time>2025-04-24T11:37:13Z</time>
      </trkpt>
      <trkpt lat="45.829166024923325" lon="4.412155961617827">
        <ele>646.13999999999999</ele>
        <time>2025-04-24T11:37:17Z</time>
      </trkpt>
      <trkpt lat="45.829125037416816" lon="4.41200802102685">
        <ele>646.62</ele>
        <time>2025-04-24T11:37:18Z</time>
      </trkpt>
      <trkpt lat="45.829082038253546" lon="4.411868965253234">
        <ele>648.07000000000005</ele>
        <time>2025-04-24T11:37:19Z</time>
      </trkpt>
      <trkpt lat="45.829000985249877" lon="4.411767963320017">
        <ele>649.50999999999999</ele>
        <time>2025-04-24T11:37:20Z</time>
      </trkpt>
      <trkpt lat="45.828866958618164" lon="4.411736028268933">
        <ele>650.47000000000003</ele>
        <time>2025-04-24T11:37:21Z</time>
      </trkpt>
      <trkpt lat="45.828729998320341" lon="4.411740973591805">
        <ele>651.42999999999995</ele>
        <time>2025-04-24T11:37:22Z</time>
      </trkpt>
      <trkpt lat="45.828571999445558" lon="4.411807022988796">
        <ele>651.90999999999997</ele>
        <time>2025-04-24T11:37:23Z</time>
      </trkpt>
      <trkpt lat="45.828405031934381" lon="4.411878017708659">
        <ele>652.87</ele>
        <time>2025-04-24T11:37:24Z</time>
      </trkpt>
      <trkpt lat="45.827505989000201" lon="4.412256963551045">
        <ele>657.67999999999995</ele>
        <time>2025-04-24T11:37:29Z</time>
      </trkpt>
      <trkpt lat="45.827348995953798" lon="4.412282025441527">
        <ele>658.15999999999997</ele>
        <time>2025-04-24T11:37:30Z</time>
      </trkpt>
      <trkpt lat="45.827216980978847" lon="4.41224598325789">
        <ele>659.12</ele>
        <time>2025-04-24T11:37:31Z</time>
      </trkpt>
      <trkpt lat="45.827109022065997" lon="4.412156967446208">
        <ele>659.60000000000002</ele>
        <time>2025-04-24T11:37:32Z</time>
      </trkpt>
      <trkpt lat="45.827017994597554" lon="4.412044985219836">
        <ele>660.55999999999995</ele>
        <time>2025-04-24T11:37:33Z</time>
      </trkpt>
      <trkpt lat="45.826966026797891" lon="4.411888998001814">
        <ele>661.51999999999998</ele>
        <time>2025-04-24T11:37:34Z</time>
      </trkpt>
      <trkpt lat="45.826940964907408" lon="4.411695040762425">
        <ele>662.00999999999999</ele>
        <time>2025-04-24T11:37:35Z</time>
      </trkpt>
      <trkpt lat="45.826914981007576" lon="4.411484990268946">
        <ele>662.49000000000001</ele>
        <time>2025-04-24T11:37:36Z</time>
      </trkpt>
      <trkpt lat="45.826893020421267" lon="4.411310981959105">
        <ele>662.97000000000003</ele>
        <time>2025-04-24T11:37:37Z</time>
      </trkpt>
      <trkpt lat="45.826819008216262" lon="4.411100009456277">
        <ele>663.45000000000005</ele>
        <time>2025-04-24T11:37:38Z</time>
      </trkpt>
      <trkpt lat="45.82674901932478" lon="4.410938993096352">
        <ele>663.92999999999995</ele>
        <time>2025-04-24T11:37:39Z</time>
      </trkpt>
      <trkpt lat="45.82662396132946" lon="4.410875961184502">
        <ele>664.40999999999997</ele>
        <time>2025-04-24T11:37:40Z</time>
      </trkpt>
      <trkpt lat="45.826489012688398" lon="4.410817036405206">
        <ele>664.40999999999997</ele>
        <time>2025-04-24T11:37:41Z</time>
      </trkpt>
      <trkpt lat="45.826325984671712" lon="4.4108069781214">
        <ele>664.88999999999999</ele>
        <time>2025-04-24T11:37:42Z</time>
      </trkpt>
      <trkpt lat="45.826148958876729" lon="4.410795997828245">
        <ele>665.37</ele>
        <time>2025-04-24T11:37:43Z</time>
      </trkpt>
      <trkpt lat="45.825456026941538" lon="4.410752998664975">
        <ele>668.25</ele>
        <time>2025-04-24T11:37:47Z</time>
      </trkpt>
      <trkpt lat="45.825313031673431" lon="4.410643028095365">
        <ele>668.73000000000002</ele>
        <time>2025-04-24T11:37:48Z</time>
      </trkpt>
      <trkpt lat="45.825184034183621" lon="4.410544037818909">
        <ele>669.70000000000005</ele>
        <time>2025-04-24T11:37:49Z</time>
      </trkpt>
      <trkpt lat="45.825092000886798" lon="4.410360977053642">
        <ele>670.17999999999995</ele>
        <time>2025-04-24T11:37:50Z</time>
      </trkpt>
      <trkpt lat="45.824997033923864" lon="4.410164002329111">
        <ele>670.65999999999997</ele>
        <time>2025-04-24T11:37:51Z</time>
      </trkpt>
      <trkpt lat="45.82492402754724" lon="4.409949006512761">
        <ele>671.62</ele>
        <time>2025-04-24T11:37:52Z</time>
      </trkpt>
      <trkpt lat="45.824883040040731" lon="4.409716995432973">
        <ele>672.58000000000004</ele>
        <time>2025-04-24T11:37:53Z</time>
      </trkpt>
      <trkpt lat="45.824875999242067" lon="4.409486996009946">
        <ele>673.53999999999996</ele>
        <time>2025-04-24T11:37:54Z</time>
      </trkpt>
      <trkpt lat="45.82488396205008" lon="4.409245010465384">
        <ele>674.5</ele>
        <time>2025-04-24T11:37:55Z</time>
      </trkpt>
      <trkpt lat="45.824920004233718" lon="4.408997995778918">
        <ele>675.94000000000005</ele>
        <time>2025-04-24T11:37:56Z</time>
      </trkpt>
      <trkpt lat="45.824957974255085" lon="4.40874201245606">
        <ele>676.90999999999997</ele>
        <time>2025-04-24T11:37:57Z</time>
      </trkpt>
      <trkpt lat="45.825086971744895" lon="4.407434016466141">
        <ele>681.71000000000004</ele>
        <time>2025-04-24T11:38:02Z</time>
      </trkpt>
      <trkpt lat="45.825067022815347" lon="4.407179038971663">
        <ele>682.66999999999996</ele>
        <time>2025-04-24T11:38:03Z</time>
      </trkpt>
      <trkpt lat="45.825021006166935" lon="4.40691702067852">
        <ele>683.63</ele>
        <time>2025-04-24T11:38:04Z</time>
      </trkpt>
      <trkpt lat="45.824523959308863" lon="4.405023967847228">
        <ele>690.84000000000003</ele>
        <time>2025-04-24T11:38:11Z</time>
      </trkpt>
      <trkpt lat="45.824441984295845" lon="4.404834033921361">
        <ele>691.80999999999995</ele>
        <time>2025-04-24T11:38:12Z</time>
      </trkpt>
      <trkpt lat="45.824339976534247" lon="4.404702018946409">
        <ele>692.76999999999998</ele>
        <time>2025-04-24T11:38:13Z</time>
      </trkpt>
      <trkpt lat="45.824190024286509" lon="4.404627000913024">
        <ele>693.25</ele>
        <time>2025-04-24T11:38:14Z</time>
      </trkpt>
      <trkpt lat="45.824038982391357" lon="4.404551982879639">
        <ele>694.69000000000005</ele>
        <time>2025-04-24T11:38:15Z</time>
      </trkpt>
      <trkpt lat="45.823910990729928" lon="4.40448802895844">
        <ele>695.64999999999998</ele>
        <time>2025-04-24T11:38:16Z</time>
      </trkpt>
      <trkpt lat="45.823746034875512" lon="4.404343022033572">
        <ele>696.61000000000001</ele>
        <time>2025-04-24T11:38:17Z</time>
      </trkpt>
      <trkpt lat="45.823602033779025" lon="4.404216958209872">
        <ele>697.57000000000005</ele>
        <time>2025-04-24T11:38:18Z</time>
      </trkpt>
      <trkpt lat="45.823462978005409" lon="4.404056025668979">
        <ele>698.52999999999997</ele>
        <time>2025-04-24T11:38:19Z</time>
      </trkpt>
      <trkpt lat="45.82331595942378" lon="4.403871037065983">
        <ele>699.5</ele>
        <time>2025-04-24T11:38:20Z</time>
      </trkpt>
      <trkpt lat="45.822915975004435" lon="4.403368039056659">
        <ele>702.38</ele>
        <time>2025-04-24T11:38:23Z</time>
      </trkpt>
      <trkpt lat="45.822770968079567" lon="4.403312969952822">
        <ele>702.86000000000001</ele>
        <time>2025-04-24T11:38:24Z</time>
      </trkpt>
      <trkpt lat="45.822601988911629" lon="4.403265025466681">
        <ele>702.86000000000001</ele>
        <time>2025-04-24T11:38:25Z</time>
      </trkpt>
      <trkpt lat="45.82245203666389" lon="4.40330701880157">
        <ele>702.38</ele>
        <time>2025-04-24T11:38:26Z</time>
      </trkpt>
      <trkpt lat="45.82234701141715" lon="4.403395028784871">
        <ele>702.38</ele>
        <time>2025-04-24T11:38:27Z</time>
      </trkpt>
      <trkpt lat="45.822207033634186" lon="4.403512962162495">
        <ele>702.38</ele>
        <time>2025-04-24T11:38:28Z</time>
      </trkpt>
      <trkpt lat="45.821417039260268" lon="4.40423296764493">
        <ele>700.94000000000005</ele>
        <time>2025-04-24T11:38:33Z</time>
      </trkpt>
      <trkpt lat="45.82127102650702" lon="4.40444502979517">
        <ele>700.46000000000004</ele>
        <time>2025-04-24T11:38:34Z</time>
      </trkpt>
      <trkpt lat="45.821172958239913" lon="4.404667988419533">
        <ele>700.46000000000004</ele>
        <time>2025-04-24T11:38:35Z</time>
      </trkpt>
      <trkpt lat="45.820981012657285" lon="4.405063027516007">
        <ele>700.94000000000005</ele>
        <time>2025-04-24T11:38:37Z</time>
      </trkpt>
      <trkpt lat="45.820885961875319" lon="4.405206022784114">
        <ele>700.94000000000005</ele>
        <time>2025-04-24T11:38:38Z</time>
      </trkpt>
      <trkpt lat="45.820766016840935" lon="4.405249021947384">
        <ele>701.89999999999998</ele>
        <time>2025-04-24T11:38:39Z</time>
      </trkpt>
      <trkpt lat="45.820644982159138" lon="4.405246004462242">
        <ele>702.86000000000001</ele>
        <time>2025-04-24T11:38:40Z</time>
      </trkpt>
      <trkpt lat="45.820528976619244" lon="4.405183978378773">
        <ele>703.82000000000005</ele>
        <time>2025-04-24T11:38:41Z</time>
      </trkpt>
      <trkpt lat="45.820396039634943" lon="4.405110972002149">
        <ele>704.77999999999997</ele>
        <time>2025-04-24T11:38:42Z</time>
      </trkpt>
      <trkpt lat="45.820251032710075" lon="4.405033020302653">
        <ele>705.25999999999999</ele>
        <time>2025-04-24T11:38:43Z</time>
      </trkpt>
      <trkpt lat="45.820093033835292" lon="4.404977029189467">
        <ele>706.23000000000002</ele>
        <time>2025-04-24T11:38:44Z</time>
      </trkpt>
      <trkpt lat="45.819911984726787" lon="4.404964037239552">
        <ele>707.19000000000005</ele>
        <time>2025-04-24T11:38:45Z</time>
      </trkpt>
      <trkpt lat="45.819739988073707" lon="4.405006030574441">
        <ele>708.14999999999998</ele>
        <time>2025-04-24T11:38:46Z</time>
      </trkpt>
      <trkpt lat="45.819550976157188" lon="4.405080964788795">
        <ele>709.11000000000001</ele>
        <time>2025-04-24T11:38:47Z</time>
      </trkpt>
      <trkpt lat="45.819390965625644" lon="4.405197976157069">
        <ele>710.07000000000005</ele>
        <time>2025-04-24T11:38:48Z</time>
      </trkpt>
      <trkpt lat="45.81923003308475" lon="4.405335020273924">
        <ele>711.02999999999997</ele>
        <time>2025-04-24T11:38:49Z</time>
      </trkpt>
      <trkpt lat="45.819090977311134" lon="4.405525038018823">
        <ele>712.47000000000003</ele>
        <time>2025-04-24T11:38:50Z</time>
      </trkpt>
      <trkpt lat="45.818960973992944" lon="4.405699968338013">
        <ele>713.44000000000005</ele>
        <time>2025-04-24T11:38:51Z</time>
      </trkpt>
      <trkpt lat="45.818811021745205" lon="4.405832989141345">
        <ele>714.39999999999998</ele>
        <time>2025-04-24T11:38:52Z</time>
      </trkpt>
      <trkpt lat="45.818656040355563" lon="4.405905995517969">
        <ele>715.36000000000001</ele>
        <time>2025-04-24T11:38:53Z</time>
      </trkpt>
      <trkpt lat="45.818485971540213" lon="4.405932985246182">
        <ele>716.79999999999995</ele>
        <time>2025-04-24T11:38:54Z</time>
      </trkpt>
      <trkpt lat="45.818311963230371" lon="4.405901972204447">
        <ele>717.27999999999997</ele>
        <time>2025-04-24T11:38:55Z</time>
      </trkpt>
      <trkpt lat="45.818130997940898" lon="4.405870959162712">
        <ele>718.24000000000001</ele>
        <time>2025-04-24T11:38:56Z</time>
      </trkpt>
      <trkpt lat="45.817970987409353" lon="4.405772974714637">
        <ele>719.67999999999995</ele>
        <time>2025-04-24T11:38:57Z</time>
      </trkpt>
      <trkpt lat="45.817825980484486" lon="4.40565001219511">
        <ele>720.64999999999998</ele>
        <time>2025-04-24T11:38:58Z</time>
      </trkpt>
      <trkpt lat="45.817689020186663" lon="4.405533000826836">
        <ele>721.13</ele>
        <time>2025-04-24T11:38:59Z</time>
      </trkpt>
      <trkpt lat="45.817559016868472" lon="4.4054139778018">
        <ele>722.09000000000003</ele>
        <time>2025-04-24T11:39:00Z</time>
      </trkpt>
      <trkpt lat="45.817442005500197" lon="4.405303001403809">
        <ele>722.57000000000005</ele>
        <time>2025-04-24T11:39:01Z</time>
      </trkpt>
      <trkpt lat="45.817241007462144" lon="4.405111977830529">
        <ele>724.00999999999999</ele>
        <time>2025-04-24T11:39:03Z</time>
      </trkpt>
      <trkpt lat="45.817175041884184" lon="4.405022962018848">
        <ele>724.49000000000001</ele>
        <time>2025-04-24T11:39:04Z</time>
      </trkpt>
      <trkpt lat="45.817142017185688" lon="4.404950039461255">
        <ele>725.45000000000005</ele>
        <time>2025-04-24T11:39:05Z</time>
      </trkpt>
      <trkpt lat="45.817117039114237" lon="4.404892036691308">
        <ele>726.40999999999997</ele>
        <time>2025-04-24T11:39:06Z</time>
      </trkpt>
      <trkpt lat="45.817064987495542" lon="4.404868986457586">
        <ele>727.37</ele>
        <time>2025-04-24T11:39:07Z</time>
      </trkpt>
      <trkpt lat="45.81699600443244" lon="4.404861023649573">
        <ele>728.34000000000003</ele>
        <time>2025-04-24T11:39:08Z</time>
      </trkpt>
      <trkpt lat="45.8169100061059" lon="4.404850965365768">
        <ele>728.82000000000005</ele>
        <time>2025-04-24T11:39:09Z</time>
      </trkpt>
      <trkpt lat="45.81602999009192" lon="4.404804026708007">
        <ele>727.86000000000001</ele>
        <time>2025-04-24T11:39:16Z</time>
      </trkpt>
      <trkpt lat="45.815187022089958" lon="4.40476999618113">
        <ele>724.97000000000003</ele>
        <time>2025-04-24T11:39:21Z</time>
      </trkpt>
      <trkpt lat="45.815015025436878" lon="4.404718028381467">
        <ele>724.49000000000001</ele>
        <time>2025-04-24T11:39:22Z</time>
      </trkpt>
      <trkpt lat="45.814853003248572" lon="4.404636975377798">
        <ele>724.00999999999999</ele>
        <time>2025-04-24T11:39:23Z</time>
      </trkpt>
      <trkpt lat="45.814703973010182" lon="4.404562041163445">
        <ele>723.52999999999997</ele>
        <time>2025-04-24T11:39:24Z</time>
      </trkpt>
      <trkpt lat="45.814574975520372" lon="4.404498003423214">
        <ele>723.52999999999997</ele>
        <time>2025-04-24T11:39:25Z</time>
      </trkpt>
      <trkpt lat="45.814260989427567" lon="4.404405970126391">
        <ele>723.52999999999997</ele>
        <time>2025-04-24T11:39:28Z</time>
      </trkpt>
      <trkpt lat="45.814085975289345" lon="4.404379986226559">
        <ele>724.00999999999999</ele>
        <time>2025-04-24T11:39:30Z</time>
      </trkpt>
      <trkpt lat="45.814011041074991" lon="4.4043830037117">
        <ele>724.97000000000003</ele>
        <time>2025-04-24T11:39:31Z</time>
      </trkpt>
      <trkpt lat="45.813867039978504" lon="4.40442600287497">
        <ele>725.92999999999995</ele>
        <time>2025-04-24T11:39:33Z</time>
      </trkpt>
      <trkpt lat="45.813283994793892" lon="4.404736971482635">
        <ele>728.82000000000005</ele>
        <time>2025-04-24T11:39:42Z</time>
      </trkpt>
      <trkpt lat="45.812950981780887" lon="4.404976023361087">
        <ele>731.70000000000005</ele>
        <time>2025-04-24T11:39:47Z</time>
      </trkpt>
      <trkpt lat="45.812901025637984" lon="4.405036959797144">
        <ele>731.70000000000005</ele>
        <time>2025-04-24T11:39:48Z</time>
      </trkpt>
      <trkpt lat="45.812878981232643" lon="4.405148020014167">
        <ele>732.17999999999995</ele>
        <time>2025-04-24T11:39:49Z</time>
      </trkpt>
      <trkpt lat="45.812817038968205" lon="4.405474998056889">
        <ele>731.70000000000005</ele>
        <time>2025-04-24T11:39:52Z</time>
      </trkpt>
      <trkpt lat="45.812803963199258" lon="4.405578011646867">
        <ele>731.70000000000005</ele>
        <time>2025-04-24T11:39:53Z</time>
      </trkpt>
      <trkpt lat="45.812775967642665" lon="4.40580197609961">
        <ele>731.70000000000005</ele>
        <time>2025-04-24T11:39:55Z</time>
      </trkpt>
      <trkpt lat="45.812745960429311" lon="4.406041027978063">
        <ele>732.65999999999997</ele>
        <time>2025-04-24T11:39:57Z</time>
      </trkpt>
      <trkpt lat="45.812730034813285" lon="4.406172037124634">
        <ele>732.65999999999997</ele>
        <time>2025-04-24T11:39:58Z</time>
      </trkpt>
      <trkpt lat="45.812716037034988" lon="4.406287958845496">
        <ele>732.65999999999997</ele>
        <time>2025-04-24T11:39:59Z</time>
      </trkpt>
      <trkpt lat="45.812672032043338" lon="4.406633963808417">
        <ele>733.62</ele>
        <time>2025-04-24T11:40:02Z</time>
      </trkpt>
      <trkpt lat="45.812659040093422" lon="4.406742006540299">
        <ele>734.10000000000002</ele>
        <time>2025-04-24T11:40:03Z</time>
      </trkpt>
      <trkpt lat="45.812644958496094" lon="4.406848037615418">
        <ele>734.10000000000002</ele>
        <time>2025-04-24T11:40:04Z</time>
      </trkpt>
      <trkpt lat="45.81254999153316" lon="4.407039983198047">
        <ele>735.54999999999995</ele>
        <time>2025-04-24T11:40:06Z</time>
      </trkpt>
      <trkpt lat="45.812501963227987" lon="4.407136039808393">
        <ele>736.02999999999997</ele>
        <time>2025-04-24T11:40:07Z</time>
      </trkpt>
      <trkpt lat="45.812452007085085" lon="4.407234024256468">
        <ele>736.50999999999999</ele>
        <time>2025-04-24T11:40:08Z</time>
      </trkpt>
      <trkpt lat="45.812402972951531" lon="4.407333014532924">
        <ele>737.47000000000003</ele>
        <time>2025-04-24T11:40:09Z</time>
      </trkpt>
      <trkpt lat="45.81235502846539" lon="4.407427981495857">
        <ele>737.95000000000005</ele>
        <time>2025-04-24T11:40:10Z</time>
      </trkpt>
      <trkpt lat="45.81190399825573" lon="4.408225016668439">
        <ele>742.75999999999999</ele>
        <time>2025-04-24T11:40:19Z</time>
      </trkpt>
      <trkpt lat="45.811850018799305" lon="4.408302968367934">
        <ele>743.24000000000001</ele>
        <time>2025-04-24T11:40:20Z</time>
      </trkpt>
      <trkpt lat="45.811676010489464" lon="4.408555012196302">
        <ele>745.15999999999997</ele>
        <time>2025-04-24T11:40:23Z</time>
      </trkpt>
      <trkpt lat="45.811615996062756" lon="4.408641010522842">
        <ele>745.63999999999999</ele>
        <time>2025-04-24T11:40:24Z</time>
      </trkpt>
      <trkpt lat="45.811141999438405" lon="4.409282980486751">
        <ele>747.08000000000004</ele>
        <time>2025-04-24T11:40:32Z</time>
      </trkpt>
      <trkpt lat="45.811085002496839" lon="4.409363027662039">
        <ele>747.08000000000004</ele>
        <time>2025-04-24T11:40:33Z</time>
      </trkpt>
      <trkpt lat="45.810967991128564" lon="4.409527983516455">
        <ele>747.08000000000004</ele>
        <time>2025-04-24T11:40:35Z</time>
      </trkpt>
      <trkpt lat="45.810907976701856" lon="4.409612976014614">
        <ele>747.55999999999995</ele>
        <time>2025-04-24T11:40:36Z</time>
      </trkpt>
      <trkpt lat="45.809973981231451" lon="4.41089297644794">
        <ele>747.55999999999995</ele>
        <time>2025-04-24T11:40:50Z</time>
      </trkpt>
      <trkpt lat="45.809915978461504" lon="4.410996995866299">
        <ele>747.55999999999995</ele>
        <time>2025-04-24T11:40:51Z</time>
      </trkpt>
      <trkpt lat="45.809855964034796" lon="4.41110503859818">
        <ele>747.08000000000004</ele>
        <time>2025-04-24T11:40:52Z</time>
      </trkpt>
      <trkpt lat="45.809801984578371" lon="4.411216014996171">
        <ele>747.08000000000004</ele>
        <time>2025-04-24T11:40:53Z</time>
      </trkpt>
      <trkpt lat="45.809386996552348" lon="4.412601962685585">
        <ele>743.72000000000003</ele>
        <time>2025-04-24T11:41:02Z</time>
      </trkpt>
      <trkpt lat="45.809040991589427" lon="4.413779033347964">
        <ele>740.83000000000004</ele>
        <time>2025-04-24T11:41:08Z</time>
      </trkpt>
      <trkpt lat="45.809027999639511" lon="4.414011966437101">
        <ele>740.83000000000004</ele>
        <time>2025-04-24T11:41:09Z</time>
      </trkpt>
      <trkpt lat="45.809032022953033" lon="4.414202990010381">
        <ele>740.35000000000002</ele>
        <time>2025-04-24T11:41:10Z</time>
      </trkpt>
      <trkpt lat="45.809092959389091" lon="4.414385966956615">
        <ele>739.87</ele>
        <time>2025-04-24T11:41:11Z</time>
      </trkpt>
      <trkpt lat="45.809155991300941" lon="4.414560981094837">
        <ele>739.87</ele>
        <time>2025-04-24T11:41:12Z</time>
      </trkpt>
      <trkpt lat="45.809264034032822" lon="4.414700036868453">
        <ele>739.87</ele>
        <time>2025-04-24T11:41:13Z</time>
      </trkpt>
      <trkpt lat="45.80939101986587" lon="4.414830962195993">
        <ele>739.87</ele>
        <time>2025-04-24T11:41:14Z</time>
      </trkpt>
      <trkpt lat="45.809529991820455" lon="4.414960965514183">
        <ele>739.87</ele>
        <time>2025-04-24T11:41:15Z</time>
      </trkpt>
      <trkpt lat="45.810146983712912" lon="4.415493970736861">
        <ele>738.42999999999995</ele>
        <time>2025-04-24T11:41:19Z</time>
      </trkpt>
      <trkpt lat="45.810327026993036" lon="4.415567982941866">
        <ele>737.95000000000005</ele>
        <time>2025-04-24T11:41:20Z</time>
      </trkpt>
      <trkpt lat="45.810513021424413" lon="4.415632020682097">
        <ele>737.95000000000005</ele>
        <time>2025-04-24T11:41:21Z</time>
      </trkpt>
      <trkpt lat="45.81087302416563" lon="4.415787002071738">
        <ele>736.50999999999999</ele>
        <time>2025-04-24T11:41:23Z</time>
      </trkpt>
      <trkpt lat="45.811017025262117" lon="4.415897978469729">
        <ele>736.02999999999997</ele>
        <time>2025-04-24T11:41:24Z</time>
      </trkpt>
      <trkpt lat="45.811108974739909" lon="4.416060000658035">
        <ele>735.54999999999995</ele>
        <time>2025-04-24T11:41:25Z</time>
      </trkpt>
      <trkpt lat="45.811160020530224" lon="4.416255969554186">
        <ele>735.07000000000005</ele>
        <time>2025-04-24T11:41:26Z</time>
      </trkpt>
      <trkpt lat="45.811211988329887" lon="4.416472977027297">
        <ele>734.58000000000004</ele>
        <time>2025-04-24T11:41:27Z</time>
      </trkpt>
      <trkpt lat="45.811244007200003" lon="4.416722003370524">
        <ele>733.62</ele>
        <time>2025-04-24T11:41:28Z</time>
      </trkpt>
      <trkpt lat="45.811276026070118" lon="4.416981004178524">
        <ele>733.13999999999999</ele>
        <time>2025-04-24T11:41:29Z</time>
      </trkpt>
      <trkpt lat="45.81147400662303" lon="4.418656965717673">
        <ele>730.74000000000001</ele>
        <time>2025-04-24T11:41:35Z</time>
      </trkpt>
      <trkpt lat="45.811485992744565" lon="4.418923007324338">
        <ele>730.74000000000001</ele>
        <time>2025-04-24T11:41:36Z</time>
      </trkpt>
      <trkpt lat="45.811465037986636" lon="4.4191649928689">
        <ele>730.25999999999999</ele>
        <time>2025-04-24T11:41:37Z</time>
      </trkpt>
      <trkpt lat="45.811376022174954" lon="4.419387029483914">
        <ele>729.77999999999997</ele>
        <time>2025-04-24T11:41:38Z</time>
      </trkpt>
      <trkpt lat="45.811287006363273" lon="4.419610993936658">
        <ele>729.29999999999995</ele>
        <time>2025-04-24T11:41:39Z</time>
      </trkpt>
      <trkpt lat="45.811175024136901" lon="4.419815009459853">
        <ele>729.29999999999995</ele>
        <time>2025-04-24T11:41:40Z</time>
      </trkpt>
      <trkpt lat="45.81104502081871" lon="4.420009972527623">
        <ele>728.82000000000005</ele>
        <time>2025-04-24T11:41:41Z</time>
      </trkpt>
      <trkpt lat="45.810914011672139" lon="4.420206025242806">
        <ele>728.82000000000005</ele>
        <time>2025-04-24T11:41:42Z</time>
      </trkpt>
      <trkpt lat="45.809337040409446" lon="4.422570979222655">
        <ele>725.45000000000005</ele>
        <time>2025-04-24T11:41:53Z</time>
      </trkpt>
      <trkpt lat="45.809194967150688" lon="4.422783963382244">
        <ele>724.97000000000003</ele>
        <time>2025-04-24T11:41:54Z</time>
      </trkpt>
      <trkpt lat="45.809020958840847" lon="4.422938022762537">
        <ele>724.49000000000001</ele>
        <time>2025-04-24T11:41:55Z</time>
      </trkpt>
      <trkpt lat="45.808844016864896" lon="4.423080012202263">
        <ele>724.49000000000001</ele>
        <time>2025-04-24T11:41:56Z</time>
      </trkpt>
      <trkpt lat="45.808652993291616" lon="4.423154024407268">
        <ele>724.00999999999999</ele>
        <time>2025-04-24T11:41:57Z</time>
      </trkpt>
      <trkpt lat="45.808454006910324" lon="4.42322401329875">
        <ele>724.00999999999999</ele>
        <time>2025-04-24T11:41:58Z</time>
      </trkpt>
      <trkpt lat="45.808253008872271" lon="4.423253014683723">
        <ele>723.52999999999997</ele>
        <time>2025-04-24T11:41:59Z</time>
      </trkpt>
      <trkpt lat="45.807462008669972" lon="4.423366002738476">
        <ele>722.57000000000005</ele>
        <time>2025-04-24T11:42:03Z</time>
      </trkpt>
      <trkpt lat="45.807304009795189" lon="4.423444038257003">
        <ele>722.09000000000003</ele>
        <time>2025-04-24T11:42:04Z</time>
      </trkpt>
      <trkpt lat="45.807149028405547" lon="4.42354504019022">
        <ele>722.09000000000003</ele>
        <time>2025-04-24T11:42:05Z</time>
      </trkpt>
      <trkpt lat="45.806998992338777" lon="4.423689963296056">
        <ele>721.61000000000001</ele>
        <time>2025-04-24T11:42:06Z</time>
      </trkpt>
      <trkpt lat="45.806843005120754" lon="4.423841005191207">
        <ele>721.13</ele>
        <time>2025-04-24T11:42:07Z</time>
      </trkpt>
      <trkpt lat="45.80492103472352" lon="4.425670020282269">
        <ele>717.27999999999997</ele>
        <time>2025-04-24T11:42:18Z</time>
      </trkpt>
      <trkpt lat="45.804091980680823" lon="4.426526986062527">
        <ele>717.27999999999997</ele>
        <time>2025-04-24T11:42:23Z</time>
      </trkpt>
      <trkpt lat="45.803970023989677" lon="4.426750028505921">
        <ele>717.75999999999999</ele>
        <time>2025-04-24T11:42:24Z</time>
      </trkpt>
      <trkpt lat="45.803731977939606" lon="4.427175996825099">
        <ele>718.72000000000003</ele>
        <time>2025-04-24T11:42:26Z</time>
      </trkpt>
      <trkpt lat="45.803571967408061" lon="4.427311029285193">
        <ele>719.20000000000005</ele>
        <time>2025-04-24T11:42:27Z</time>
      </trkpt>
      <trkpt lat="45.803406005725265" lon="4.427452012896538">
        <ele>720.15999999999997</ele>
        <time>2025-04-24T11:42:28Z</time>
      </trkpt>
      <trkpt lat="45.803243983536959" lon="4.427589979022741">
        <ele>721.13</ele>
        <time>2025-04-24T11:42:29Z</time>
      </trkpt>
      <trkpt lat="45.803095959126949" lon="4.427715037018061">
        <ele>722.09000000000003</ele>
        <time>2025-04-24T11:42:30Z</time>
      </trkpt>
      <trkpt lat="45.802995041012764" lon="4.427883010357618">
        <ele>723.04999999999995</ele>
        <time>2025-04-24T11:42:31Z</time>
      </trkpt>
      <trkpt lat="45.80292496830225" lon="4.428090965375304">
        <ele>723.52999999999997</ele>
        <time>2025-04-24T11:42:32Z</time>
      </trkpt>
      <trkpt lat="45.80290300771594" lon="4.428336974233389">
        <ele>724.49000000000001</ele>
        <time>2025-04-24T11:42:33Z</time>
      </trkpt>
      <trkpt lat="45.80287903547287" lon="4.428599998354912">
        <ele>725.45000000000005</ele>
        <time>2025-04-24T11:42:34Z</time>
      </trkpt>
      <trkpt lat="45.802805023267865" lon="4.4294139649719">
        <ele>727.86000000000001</ele>
        <time>2025-04-24T11:42:37Z</time>
      </trkpt>
      <trkpt lat="45.802736962214112" lon="4.429656034335494">
        <ele>728.34000000000003</ele>
        <time>2025-04-24T11:42:38Z</time>
      </trkpt>
      <trkpt lat="45.802647024393082" lon="4.429879998788238">
        <ele>729.29999999999995</ele>
        <time>2025-04-24T11:42:39Z</time>
      </trkpt>
      <trkpt lat="45.802387017756701" lon="4.430571002885699">
        <ele>731.70000000000005</ele>
        <time>2025-04-24T11:42:42Z</time>
      </trkpt>
      <trkpt lat="45.802329014986753" lon="4.430817011743784">
        <ele>732.17999999999995</ele>
        <time>2025-04-24T11:42:43Z</time>
      </trkpt>
      <trkpt lat="45.802332032471895" lon="4.431074000895023">
        <ele>733.13999999999999</ele>
        <time>2025-04-24T11:42:44Z</time>
      </trkpt>
      <trkpt lat="45.802341001108289" lon="4.431339958682656">
        <ele>733.62</ele>
        <time>2025-04-24T11:42:45Z</time>
      </trkpt>
      <trkpt lat="45.802362961694598" lon="4.431600971147418">
        <ele>734.58000000000004</ele>
        <time>2025-04-24T11:42:46Z</time>
      </trkpt>
      <trkpt lat="45.802400009706616" lon="4.431847985833883">
        <ele>735.07000000000005</ele>
        <time>2025-04-24T11:42:47Z</time>
      </trkpt>
      <trkpt lat="45.802432028576732" lon="4.432060969993472">
        <ele>735.07000000000005</ele>
        <time>2025-04-24T11:42:48Z</time>
      </trkpt>
      <trkpt lat="45.802404033020139" lon="4.432278983294964">
        <ele>735.54999999999995</ele>
        <time>2025-04-24T11:42:49Z</time>
      </trkpt>
      <trkpt lat="45.802364973351359" lon="4.432462966069579">
        <ele>735.54999999999995</ele>
        <time>2025-04-24T11:42:50Z</time>
      </trkpt>
      <trkpt lat="45.802292972803116" lon="4.43263697437942">
        <ele>735.54999999999995</ele>
        <time>2025-04-24T11:42:51Z</time>
      </trkpt>
      <trkpt lat="45.802208986133337" lon="4.432791033759713">
        <ele>735.54999999999995</ele>
        <time>2025-04-24T11:42:52Z</time>
      </trkpt>
      <trkpt lat="45.802076971158385" lon="4.432890024036169">
        <ele>735.54999999999995</ele>
        <time>2025-04-24T11:42:53Z</time>
      </trkpt>
      <trkpt lat="45.801924001425505" lon="4.432945009320974">
        <ele>735.54999999999995</ele>
        <time>2025-04-24T11:42:54Z</time>
      </trkpt>
      <trkpt lat="45.80176399089396" lon="4.432998988777399">
        <ele>736.02999999999997</ele>
        <time>2025-04-24T11:42:55Z</time>
      </trkpt>
      <trkpt lat="45.801266022026539" lon="4.43321499042213">
        <ele>736.02999999999997</ele>
        <time>2025-04-24T11:42:58Z</time>
      </trkpt>
      <trkpt lat="45.800206968560815" lon="4.434011019766331">
        <ele>736.02999999999997</ele>
        <time>2025-04-24T11:43:04Z</time>
      </trkpt>
      <trkpt lat="45.80004402436316" lon="4.434188967570663">
        <ele>736.02999999999997</ele>
        <time>2025-04-24T11:43:05Z</time>
      </trkpt>
      <trkpt lat="45.799750993028283" lon="4.434532960876823">
        <ele>736.50999999999999</ele>
        <time>2025-04-24T11:43:07Z</time>
      </trkpt>
      <trkpt lat="45.799587965011597" lon="4.434666987508535">
        <ele>736.50999999999999</ele>
        <time>2025-04-24T11:43:08Z</time>
      </trkpt>
      <trkpt lat="45.799413034692407" lon="4.43473999388516">
        <ele>736.50999999999999</ele>
        <time>2025-04-24T11:43:09Z</time>
      </trkpt>
      <trkpt lat="45.79922997392714" lon="4.434733036905527">
        <ele>736.50999999999999</ele>
        <time>2025-04-24T11:43:10Z</time>
      </trkpt>
      <trkpt lat="45.799055965617299" lon="4.434721972793341">
        <ele>736.50999999999999</ele>
        <time>2025-04-24T11:43:11Z</time>
      </trkpt>
      <trkpt lat="45.798892015591264" lon="4.434721972793341">
        <ele>736.50999999999999</ele>
        <time>2025-04-24T11:43:12Z</time>
      </trkpt>
      <trkpt lat="45.798742985352874" lon="4.434746028855443">
        <ele>736.02999999999997</ele>
        <time>2025-04-24T11:43:13Z</time>
      </trkpt>
      <trkpt lat="45.798597978428006" lon="4.434833033010364">
        <ele>736.02999999999997</ele>
        <time>2025-04-24T11:43:14Z</time>
      </trkpt>
      <trkpt lat="45.798479039222002" lon="4.434958007186651">
        <ele>736.02999999999997</ele>
        <time>2025-04-24T11:43:15Z</time>
      </trkpt>
      <trkpt lat="45.798354987055063" lon="4.43510795943439">
        <ele>736.02999999999997</ele>
        <time>2025-04-24T11:43:16Z</time>
      </trkpt>
      <trkpt lat="45.798290027305484" lon="4.435314992442727">
        <ele>736.02999999999997</ele>
        <time>2025-04-24T11:43:17Z</time>
      </trkpt>
      <trkpt lat="45.798234036192298" lon="4.435536023229361">
        <ele>736.50999999999999</ele>
        <time>2025-04-24T11:43:18Z</time>
      </trkpt>
      <trkpt lat="45.798195982351899" lon="4.435774991288781">
        <ele>736.99000000000001</ele>
        <time>2025-04-24T11:43:19Z</time>
      </trkpt>
      <trkpt lat="45.798148037865758" lon="4.436022005975246">
        <ele>736.50999999999999</ele>
        <time>2025-04-24T11:43:20Z</time>
      </trkpt>
      <trkpt lat="45.798059022054076" lon="4.436243958771229">
        <ele>736.50999999999999</ele>
        <time>2025-04-24T11:43:21Z</time>
      </trkpt>
      <trkpt lat="45.79796296544373" lon="4.436483010649681">
        <ele>736.02999999999997</ele>
        <time>2025-04-24T11:43:22Z</time>
      </trkpt>
      <trkpt lat="45.797842014580965" lon="4.436718039214611">
        <ele>736.02999999999997</ele>
        <time>2025-04-24T11:43:23Z</time>
      </trkpt>
      <trkpt lat="45.797714022919536" lon="4.43695398978889">
        <ele>735.54999999999995</ele>
        <time>2025-04-24T11:43:24Z</time>
      </trkpt>
      <trkpt lat="45.797197027131915" lon="4.437889996916056">
        <ele>735.07000000000005</ele>
        <time>2025-04-24T11:43:28Z</time>
      </trkpt>
      <trkpt lat="45.797047996893525" lon="4.438090994954109">
        <ele>734.58000000000004</ele>
        <time>2025-04-24T11:43:29Z</time>
      </trkpt>
      <trkpt lat="45.796450031921268" lon="4.43867202848196">
        <ele>732.17999999999995</ele>
        <time>2025-04-24T11:43:33Z</time>
      </trkpt>
      <trkpt lat="45.796380965039134" lon="4.438733970746398">
        <ele>731.70000000000005</ele>
        <time>2025-04-24T11:43:34Z</time>
      </trkpt>
      <trkpt lat="45.796082988381386" lon="4.438776969909668">
        <ele>730.74000000000001</ele>
        <time>2025-04-24T11:43:36Z</time>
      </trkpt>
      <trkpt lat="45.795156033709645" lon="4.438915019854903">
        <ele>726.88999999999999</ele>
        <time>2025-04-24T11:43:41Z</time>
      </trkpt>
      <trkpt lat="45.79499501734972" lon="4.438981991261244">
        <ele>725.92999999999995</ele>
        <time>2025-04-24T11:43:42Z</time>
      </trkpt>
      <trkpt lat="45.794796030968428" lon="4.439194975420833">
        <ele>724.49000000000001</ele>
        <time>2025-04-24T11:43:43Z</time>
      </trkpt>
      <trkpt lat="45.794679019600153" lon="4.439364960417152">
        <ele>724.00999999999999</ele>
        <time>2025-04-24T11:43:44Z</time>
      </trkpt>
      <trkpt lat="45.794570976868272" lon="4.439521031454206">
        <ele>723.04999999999995</ele>
        <time>2025-04-24T11:43:45Z</time>
      </trkpt>
      <trkpt lat="45.794271994382143" lon="4.439936019480228">
        <ele>722.57000000000005</ele>
        <time>2025-04-24T11:43:48Z</time>
      </trkpt>
      <trkpt lat="45.794159006327391" lon="4.44002402946353">
        <ele>722.57000000000005</ele>
        <time>2025-04-24T11:43:49Z</time>
      </trkpt>
      <trkpt lat="45.793723985552788" lon="4.44036802276969">
        <ele>723.04999999999995</ele>
        <time>2025-04-24T11:43:55Z</time>
      </trkpt>
      <trkpt lat="45.793678974732757" lon="4.440402975305915">
        <ele>723.04999999999995</ele>
        <time>2025-04-24T11:43:56Z</time>
      </trkpt>
      <trkpt lat="45.793590964749455" lon="4.440471958369017">
        <ele>723.52999999999997</ele>
        <time>2025-04-24T11:43:57Z</time>
      </trkpt>
      <trkpt lat="45.793581996113062" lon="4.440550999715924">
        <ele>723.52999999999997</ele>
        <time>2025-04-24T11:43:58Z</time>
      </trkpt>
      <trkpt lat="45.793564980849624" lon="4.44069198332727">
        <ele>724.00999999999999</ele>
        <time>2025-04-24T11:43:59Z</time>
      </trkpt>
      <trkpt lat="45.793408993631601" lon="4.442034009844065">
        <ele>728.34000000000003</ele>
        <time>2025-04-24T11:44:08Z</time>
      </trkpt>
      <trkpt lat="45.793357025831938" lon="4.44219502620399">
        <ele>728.34000000000003</ele>
        <time>2025-04-24T11:44:09Z</time>
      </trkpt>
      <trkpt lat="45.793296005576849" lon="4.442298039793968">
        <ele>728.82000000000005</ele>
        <time>2025-04-24T11:44:10Z</time>
      </trkpt>
      <trkpt lat="45.792669039219618" lon="4.443418029695749">
        <ele>731.22000000000003</ele>
        <time>2025-04-24T11:44:19Z</time>
      </trkpt>
      <trkpt lat="45.792552027851343" lon="4.443572005257011">
        <ele>731.70000000000005</ele>
        <time>2025-04-24T11:44:20Z</time>
      </trkpt>
      <trkpt lat="45.792421018704772" lon="4.443702008575201">
        <ele>731.70000000000005</ele>
        <time>2025-04-24T11:44:21Z</time>
      </trkpt>
      <trkpt lat="45.792240975424647" lon="4.443795969709754">
        <ele>731.70000000000005</ele>
        <time>2025-04-24T11:44:22Z</time>
      </trkpt>
      <trkpt lat="45.792076019570231" lon="4.443865036591888">
        <ele>731.70000000000005</ele>
        <time>2025-04-24T11:44:23Z</time>
      </trkpt>
      <trkpt lat="45.79056903719902" lon="4.444222021847963">
        <ele>731.22000000000003</ele>
        <time>2025-04-24T11:44:32Z</time>
      </trkpt>
      <trkpt lat="45.790397962555289" lon="4.444211041554809">
        <ele>731.70000000000005</ele>
        <time>2025-04-24T11:44:33Z</time>
      </trkpt>
      <trkpt lat="45.79022403806448" lon="4.444161001592875">
        <ele>731.70000000000005</ele>
        <time>2025-04-24T11:44:34Z</time>
      </trkpt>
      <trkpt lat="45.790064027532935" lon="4.444076009094715">
        <ele>732.17999999999995</ele>
        <time>2025-04-24T11:44:35Z</time>
      </trkpt>
      <trkpt lat="45.789433959871531" lon="4.443797981366515">
        <ele>733.62</ele>
        <time>2025-04-24T11:44:39Z</time>
      </trkpt>
      <trkpt lat="45.789277972653508" lon="4.443754982203245">
        <ele>733.62</ele>
        <time>2025-04-24T11:44:40Z</time>
      </trkpt>
      <trkpt lat="45.789117040112615" lon="4.44378599524498">
        <ele>733.62</ele>
        <time>2025-04-24T11:44:41Z</time>
      </trkpt>
      <trkpt lat="45.788950994610786" lon="4.443818014115095">
        <ele>733.62</ele>
        <time>2025-04-24T11:44:42Z</time>
      </trkpt>
      <trkpt lat="45.788780003786087" lon="4.443856989964843">
        <ele>733.13999999999999</ele>
        <time>2025-04-24T11:44:43Z</time>
      </trkpt>
      <trkpt lat="45.787871992215514" lon="4.444157984107733">
        <ele>731.22000000000003</ele>
        <time>2025-04-24T11:44:48Z</time>
      </trkpt>
      <trkpt lat="45.787679962813854" lon="4.444178016856313">
        <ele>730.74000000000001</ele>
        <time>2025-04-24T11:44:49Z</time>
      </trkpt>
      <trkpt lat="45.787493968382478" lon="4.444138035178185">
        <ele>730.25999999999999</ele>
        <time>2025-04-24T11:44:50Z</time>
      </trkpt>
      <trkpt lat="45.787128014490008" lon="4.44410802796483">
        <ele>730.74000000000001</ele>
        <time>2025-04-24T11:44:52Z</time>
      </trkpt>
      <trkpt lat="45.786946965381503" lon="4.444099981337786">
        <ele>731.22000000000003</ele>
        <time>2025-04-24T11:44:53Z</time>
      </trkpt>
      <trkpt lat="45.786768011748791" lon="4.444137029349804">
        <ele>731.70000000000005</ele>
        <time>2025-04-24T11:44:54Z</time>
      </trkpt>
      <trkpt lat="45.785814989358187" lon="4.444335009902716">
        <ele>734.10000000000002</ele>
        <time>2025-04-24T11:44:59Z</time>
      </trkpt>
      <trkpt lat="45.785622959956527" lon="4.444300979375839">
        <ele>734.58000000000004</ele>
        <time>2025-04-24T11:45:00Z</time>
      </trkpt>
      <trkpt lat="45.785430008545518" lon="4.444253034889698">
        <ele>735.07000000000005</ele>
        <time>2025-04-24T11:45:01Z</time>
      </trkpt>
      <trkpt lat="45.785250971093774" lon="4.444177011027932">
        <ele>735.54999999999995</ele>
        <time>2025-04-24T11:45:02Z</time>
      </trkpt>
      <trkpt lat="45.78509003855288" lon="4.444072991609573">
        <ele>736.50999999999999</ele>
        <time>2025-04-24T11:45:03Z</time>
      </trkpt>
      <trkpt lat="45.784949976950884" lon="4.443919016048312">
        <ele>737.47000000000003</ele>
        <time>2025-04-24T11:45:04Z</time>
      </trkpt>
      <trkpt lat="45.784809999167919" lon="4.443747019395232">
        <ele>738.42999999999995</ele>
        <time>2025-04-24T11:45:05Z</time>
      </trkpt>
      <trkpt lat="45.784668009728193" lon="4.443557001650333">
        <ele>738.90999999999997</ele>
        <time>2025-04-24T11:45:06Z</time>
      </trkpt>
      <trkpt lat="45.784111032262444" lon="4.44271101616323">
        <ele>740.83000000000004</ele>
        <time>2025-04-24T11:45:10Z</time>
      </trkpt>
      <trkpt lat="45.784006007015705" lon="4.442448997870088">
        <ele>741.30999999999995</ele>
        <time>2025-04-24T11:45:11Z</time>
      </trkpt>
      <trkpt lat="45.783576015383005" lon="4.441460017114878">
        <ele>742.75999999999999</ele>
        <time>2025-04-24T11:45:15Z</time>
      </trkpt>
      <trkpt lat="45.783433020114899" lon="4.441268993541598">
        <ele>743.24000000000001</ele>
        <time>2025-04-24T11:45:16Z</time>
      </trkpt>
      <trkpt lat="45.782871013507247" lon="4.440599028021097">
        <ele>744.20000000000005</ele>
        <time>2025-04-24T11:45:20Z</time>
      </trkpt>
      <trkpt lat="45.782715026289225" lon="4.440485034137964">
        <ele>743.72000000000003</ele>
        <time>2025-04-24T11:45:21Z</time>
      </trkpt>
      <trkpt lat="45.782538000494242" lon="4.440403981134296">
        <ele>743.72000000000003</ele>
        <time>2025-04-24T11:45:22Z</time>
      </trkpt>
      <trkpt lat="45.782356029376388" lon="4.440371040254831">
        <ele>744.20000000000005</ele>
        <time>2025-04-24T11:45:23Z</time>
      </trkpt>
      <trkpt lat="45.782188978046179" lon="4.440361987799406">
        <ele>744.67999999999995</ele>
        <time>2025-04-24T11:45:24Z</time>
      </trkpt>
      <trkpt lat="45.782040031626821" lon="4.440418984740973">
        <ele>744.67999999999995</ele>
        <time>2025-04-24T11:45:25Z</time>
      </trkpt>
      <trkpt lat="45.781897958368063" lon="4.440514035522938">
        <ele>745.15999999999997</ele>
        <time>2025-04-24T11:45:26Z</time>
      </trkpt>
      <trkpt lat="45.781765021383762" lon="4.440633980557323">
        <ele>745.15999999999997</ele>
        <time>2025-04-24T11:45:27Z</time>
      </trkpt>
      <trkpt lat="45.781477019190788" lon="4.440877977758646">
        <ele>745.15999999999997</ele>
        <time>2025-04-24T11:45:29Z</time>
      </trkpt>
      <trkpt lat="45.781311979517341" lon="4.440948972478509">
        <ele>744.67999999999995</ele>
        <time>2025-04-24T11:45:30Z</time>
      </trkpt>
      <trkpt lat="45.781146017834544" lon="4.440960958600044">
        <ele>744.20000000000005</ele>
        <time>2025-04-24T11:45:31Z</time>
      </trkpt>
      <trkpt lat="45.780430035665631" lon="4.440887030214071">
        <ele>742.75999999999999</ele>
        <time>2025-04-24T11:45:35Z</time>
      </trkpt>
      <trkpt lat="45.780258039012551" lon="4.44082098081708">
        <ele>742.27999999999997</ele>
        <time>2025-04-24T11:45:36Z</time>
      </trkpt>
      <trkpt lat="45.780119989067316" lon="4.440702041611075">
        <ele>741.30999999999995</ele>
        <time>2025-04-24T11:45:37Z</time>
      </trkpt>
      <trkpt lat="45.779996020719409" lon="4.440587041899562">
        <ele>740.83000000000004</ele>
        <time>2025-04-24T11:45:38Z</time>
      </trkpt>
      <trkpt lat="45.779921002686024" lon="4.440424013882875">
        <ele>740.35000000000002</ele>
        <time>2025-04-24T11:45:39Z</time>
      </trkpt>
      <trkpt lat="45.779843972995877" lon="4.440241036936641">
        <ele>739.87</ele>
        <time>2025-04-24T11:45:40Z</time>
      </trkpt>
      <trkpt lat="45.77976300381124" lon="4.4400480017066">
        <ele>739.38999999999999</ele>
        <time>2025-04-24T11:45:41Z</time>
      </trkpt>
      <trkpt lat="45.779678011313081" lon="4.439845997840166">
        <ele>738.90999999999997</ele>
        <time>2025-04-24T11:45:42Z</time>
      </trkpt>
      <trkpt lat="45.779564017429948" lon="4.439676012843847">
        <ele>738.42999999999995</ele>
        <time>2025-04-24T11:45:43Z</time>
      </trkpt>
      <trkpt lat="45.77944197691977" lon="4.439538968726993">
        <ele>737.95000000000005</ele>
        <time>2025-04-24T11:45:44Z</time>
      </trkpt>
      <trkpt lat="45.779326977208257" lon="4.439410977065563">
        <ele>737.47000000000003</ele>
        <time>2025-04-24T11:45:45Z</time>
      </trkpt>
      <trkpt lat="45.779181970283389" lon="4.439332019537687">
        <ele>736.50999999999999</ele>
        <time>2025-04-24T11:45:46Z</time>
      </trkpt>
      <trkpt lat="45.779025983065367" lon="4.439322967082262">
        <ele>736.02999999999997</ele>
        <time>2025-04-24T11:45:47Z</time>
      </trkpt>
      <trkpt lat="45.778855998069048" lon="4.439344005659223">
        <ele>735.07000000000005</ele>
        <time>2025-04-24T11:45:48Z</time>
      </trkpt>
      <trkpt lat="45.778500018641353" lon="4.439387004822493">
        <ele>733.13999999999999</ele>
        <time>2025-04-24T11:45:50Z</time>
      </trkpt>
      <trkpt lat="45.778028033673763" lon="4.439569981768727">
        <ele>730.74000000000001</ele>
        <time>2025-04-24T11:45:53Z</time>
      </trkpt>
      <trkpt lat="45.777911022305489" lon="4.439657991752029">
        <ele>729.77999999999997</ele>
        <time>2025-04-24T11:45:54Z</time>
      </trkpt>
      <trkpt lat="45.777831980958581" lon="4.439791012555361">
        <ele>728.82000000000005</ele>
        <time>2025-04-24T11:45:55Z</time>
      </trkpt>
      <trkpt lat="45.777758974581957" lon="4.439946999773383">
        <ele>728.34000000000003</ele>
        <time>2025-04-24T11:45:56Z</time>
      </trkpt>
      <trkpt lat="45.777681022882462" lon="4.440115978941321">
        <ele>727.37</ele>
        <time>2025-04-24T11:45:57Z</time>
      </trkpt>
      <trkpt lat="45.777604999020696" lon="4.440279006958008">
        <ele>726.40999999999997</ele>
        <time>2025-04-24T11:45:58Z</time>
      </trkpt>
      <trkpt lat="45.777472984045744" lon="4.440367016941309">
        <ele>725.92999999999995</ele>
        <time>2025-04-24T11:45:59Z</time>
      </trkpt>
      <trkpt lat="45.777348009869456" lon="4.440451003611088">
        <ele>724.97000000000003</ele>
        <time>2025-04-24T11:46:00Z</time>
      </trkpt>
      <trkpt lat="45.777196967974305" lon="4.440467013046145">
        <ele>724.49000000000001</ele>
        <time>2025-04-24T11:46:01Z</time>
      </trkpt>
      <trkpt lat="45.777039974927902" lon="4.440485034137964">
        <ele>724.00999999999999</ele>
        <time>2025-04-24T11:46:02Z</time>
      </trkpt>
      <trkpt lat="45.776885999366641" lon="4.440469024702907">
        <ele>724.00999999999999</ele>
        <time>2025-04-24T11:46:03Z</time>
      </trkpt>
      <trkpt lat="45.776747027412057" lon="4.44041102193296">
        <ele>723.52999999999997</ele>
        <time>2025-04-24T11:46:04Z</time>
      </trkpt>
      <trkpt lat="45.776628004387021" lon="4.44030499085784">
        <ele>723.04999999999995</ele>
        <time>2025-04-24T11:46:05Z</time>
      </trkpt>
      <trkpt lat="45.776528008282185" lon="4.440161995589733">
        <ele>722.57000000000005</ele>
        <time>2025-04-24T11:46:06Z</time>
      </trkpt>
      <trkpt lat="45.776452990248799" lon="4.440012965351343">
        <ele>722.57000000000005</ele>
        <time>2025-04-24T11:46:07Z</time>
      </trkpt>
      <trkpt lat="45.776357017457485" lon="4.439910035580397">
        <ele>722.09000000000003</ele>
        <time>2025-04-24T11:46:08Z</time>
      </trkpt>
      <trkpt lat="45.776242017745972" lon="4.439844992011786">
        <ele>721.61000000000001</ele>
        <time>2025-04-24T11:46:09Z</time>
      </trkpt>
      <trkpt lat="45.77611000277102" lon="4.43983300589025">
        <ele>721.61000000000001</ele>
        <time>2025-04-24T11:46:10Z</time>
      </trkpt>
      <trkpt lat="45.775962984189391" lon="4.439896959811449">
        <ele>721.61000000000001</ele>
        <time>2025-04-24T11:46:11Z</time>
      </trkpt>
      <trkpt lat="45.775824012234807" lon="4.439994022250176">
        <ele>721.61000000000001</ele>
        <time>2025-04-24T11:46:12Z</time>
      </trkpt>
      <trkpt lat="45.77568001113832" lon="4.440095024183393">
        <ele>721.13</ele>
        <time>2025-04-24T11:46:13Z</time>
      </trkpt>
      <trkpt lat="45.775562999770045" lon="4.440273977816105">
        <ele>720.64999999999998</ele>
        <time>2025-04-24T11:46:14Z</time>
      </trkpt>
      <trkpt lat="45.77546501532197" lon="4.440481010824442">
        <ele>720.64999999999998</ele>
        <time>2025-04-24T11:46:15Z</time>
      </trkpt>
      <trkpt lat="45.775363007560372" lon="4.440698018297553">
        <ele>720.15999999999997</ele>
        <time>2025-04-24T11:46:16Z</time>
      </trkpt>
      <trkpt lat="45.775258988142014" lon="4.440919971093535">
        <ele>719.67999999999995</ele>
        <time>2025-04-24T11:46:17Z</time>
      </trkpt>
      <trkpt lat="45.775058995932341" lon="4.441381981596351">
        <ele>718.72000000000003</ele>
        <time>2025-04-24T11:46:19Z</time>
      </trkpt>
      <trkpt lat="45.774991018697619" lon="4.441640982404351">
        <ele>718.24000000000001</ele>
        <time>2025-04-24T11:46:20Z</time>
      </trkpt>
      <trkpt lat="45.774951037019491" lon="4.441910963505507">
        <ele>717.75999999999999</ele>
        <time>2025-04-24T11:46:21Z</time>
      </trkpt>
      <trkpt lat="45.774907032027841" lon="4.442183962091804">
        <ele>717.27999999999997</ele>
        <time>2025-04-24T11:46:22Z</time>
      </trkpt>
      <trkpt lat="45.774862021207809" lon="4.442458972334862">
        <ele>716.79999999999995</ele>
        <time>2025-04-24T11:46:23Z</time>
      </trkpt>
      <trkpt lat="45.774816004559398" lon="4.442746974527836">
        <ele>715.84000000000003</ele>
        <time>2025-04-24T11:46:24Z</time>
      </trkpt>
      <trkpt lat="45.77473402954638" lon="4.44299197755754">
        <ele>715.36000000000001</ele>
        <time>2025-04-24T11:46:25Z</time>
      </trkpt>
      <trkpt lat="45.774621963500977" lon="4.443261958658695">
        <ele>714.88</ele>
        <time>2025-04-24T11:46:26Z</time>
      </trkpt>
      <trkpt lat="45.774390958249569" lon="4.443964026868343">
        <ele>712.95000000000005</ele>
        <time>2025-04-24T11:46:29Z</time>
      </trkpt>
      <trkpt lat="45.774289034307003" lon="4.444429976865649">
        <ele>711.50999999999999</ele>
        <time>2025-04-24T11:46:31Z</time>
      </trkpt>
      <trkpt lat="45.77422097325325" lon="4.444617982953787">
        <ele>711.02999999999997</ele>
        <time>2025-04-24T11:46:32Z</time>
      </trkpt>
      <trkpt lat="45.77408803626895" lon="4.444714039564133">
        <ele>710.54999999999995</ele>
        <time>2025-04-24T11:46:33Z</time>
      </trkpt>
      <trkpt lat="45.773951997980475" lon="4.444777993485332">
        <ele>710.07000000000005</ele>
        <time>2025-04-24T11:46:34Z</time>
      </trkpt>
      <trkpt lat="45.773801961913705" lon="4.444837002083659">
        <ele>710.07000000000005</ele>
        <time>2025-04-24T11:46:35Z</time>
      </trkpt>
      <trkpt lat="45.773644968867302" lon="4.444899028167129">
        <ele>709.59000000000003</ele>
        <time>2025-04-24T11:46:36Z</time>
      </trkpt>
      <trkpt lat="45.772228008136153" lon="4.445520965382457">
        <ele>711.02999999999997</ele>
        <time>2025-04-24T11:46:44Z</time>
      </trkpt>
      <trkpt lat="45.772046959027648" lon="4.445638982579112">
        <ele>711.02999999999997</ele>
        <time>2025-04-24T11:46:45Z</time>
      </trkpt>
      <trkpt lat="45.771875968202949" lon="4.445750964805484">
        <ele>711.50999999999999</ele>
        <time>2025-04-24T11:46:46Z</time>
      </trkpt>
      <trkpt lat="45.771688967943192" lon="4.445818020030856">
        <ele>711.02999999999997</ele>
        <time>2025-04-24T11:46:47Z</time>
      </trkpt>
      <trkpt lat="45.771500961855054" lon="4.445858001708984">
        <ele>710.54999999999995</ele>
        <time>2025-04-24T11:46:48Z</time>
      </trkpt>
      <trkpt lat="45.771299963817" lon="4.445858001708984">
        <ele>709.59000000000003</ele>
        <time>2025-04-24T11:46:49Z</time>
      </trkpt>
      <trkpt lat="45.771089997142553" lon="4.445858001708984">
        <ele>709.11000000000001</ele>
        <time>2025-04-24T11:46:50Z</time>
      </trkpt>
      <trkpt lat="45.770293967798352" lon="4.445815002545714">
        <ele>706.23000000000002</ele>
        <time>2025-04-24T11:46:54Z</time>
      </trkpt>
      <trkpt lat="45.77013898640871" lon="4.445724980905652">
        <ele>705.75</ele>
        <time>2025-04-24T11:46:55Z</time>
      </trkpt>
      <trkpt lat="45.770010994747281" lon="4.445594977587462">
        <ele>705.25999999999999</ele>
        <time>2025-04-24T11:46:56Z</time>
      </trkpt>
      <trkpt lat="45.769898006692529" lon="4.445429015904665">
        <ele>704.77999999999997</ele>
        <time>2025-04-24T11:46:57Z</time>
      </trkpt>
      <trkpt lat="45.769777977839112" lon="4.445254001766443">
        <ele>704.29999999999995</ele>
        <time>2025-04-24T11:46:58Z</time>
      </trkpt>
      <trkpt lat="45.769410012289882" lon="4.444749997928739">
        <ele>703.34000000000003</ele>
        <time>2025-04-24T11:47:01Z</time>
      </trkpt>
      <trkpt lat="45.769280008971691" lon="4.444630974903703">
        <ele>702.38</ele>
        <time>2025-04-24T11:47:02Z</time>
      </trkpt>
      <trkpt lat="45.769135002046824" lon="4.44460398517549">
        <ele>701.89999999999998</ele>
        <time>2025-04-24T11:47:03Z</time>
      </trkpt>
      <trkpt lat="45.768975997343659" lon="4.444622006267309">
        <ele>701.41999999999996</ele>
        <time>2025-04-24T11:47:04Z</time>
      </trkpt>
      <trkpt lat="45.768810035660863" lon="4.444641033187509">
        <ele>700.94000000000005</ele>
        <time>2025-04-24T11:47:05Z</time>
      </trkpt>
      <trkpt lat="45.768641978502274" lon="4.444682020694017">
        <ele>700.46000000000004</ele>
        <time>2025-04-24T11:47:06Z</time>
      </trkpt>
      <trkpt lat="45.768477022647858" lon="4.44479500874877">
        <ele>700.46000000000004</ele>
        <time>2025-04-24T11:47:07Z</time>
      </trkpt>
      <trkpt lat="45.768312988802791" lon="4.444918977096677">
        <ele>699.5</ele>
        <time>2025-04-24T11:47:08Z</time>
      </trkpt>
      <trkpt lat="45.768165970221162" lon="4.44509600289166">
        <ele>699.01999999999998</ele>
        <time>2025-04-24T11:47:09Z</time>
      </trkpt>
      <trkpt lat="45.768047031015158" lon="4.445304963737726">
        <ele>698.04999999999995</ele>
        <time>2025-04-24T11:47:10Z</time>
      </trkpt>
      <trkpt lat="45.767932031303644" lon="4.445544015616179">
        <ele>697.57000000000005</ele>
        <time>2025-04-24T11:47:11Z</time>
      </trkpt>
      <trkpt lat="45.767817031592131" lon="4.44578398950398">
        <ele>696.61000000000001</ele>
        <time>2025-04-24T11:47:12Z</time>
      </trkpt>
      <trkpt lat="45.767574962228537" lon="4.446230996400118">
        <ele>695.16999999999996</ele>
        <time>2025-04-24T11:47:14Z</time>
      </trkpt>
      <trkpt lat="45.767430039122701" lon="4.446415985003114">
        <ele>694.69000000000005</ele>
        <time>2025-04-24T11:47:15Z</time>
      </trkpt>
      <trkpt lat="45.767286960035563" lon="4.446598961949348">
        <ele>693.73000000000002</ele>
        <time>2025-04-24T11:47:16Z</time>
      </trkpt>
      <trkpt lat="45.767103983089328" lon="4.446715973317623">
        <ele>693.25</ele>
        <time>2025-04-24T11:47:17Z</time>
      </trkpt>
      <trkpt lat="45.766916982829571" lon="4.446817981079221">
        <ele>692.76999999999998</ele>
        <time>2025-04-24T11:47:18Z</time>
      </trkpt>
      <trkpt lat="45.766724031418562" lon="4.44692300632596">
        <ele>692.28999999999996</ele>
        <time>2025-04-24T11:47:19Z</time>
      </trkpt>
      <trkpt lat="45.765613010153174" lon="4.447457017377019">
        <ele>690.36000000000001</ele>
        <time>2025-04-24T11:47:25Z</time>
      </trkpt>
      <trkpt lat="45.765417041257024" lon="4.447509991005063">
        <ele>689.88</ele>
        <time>2025-04-24T11:47:26Z</time>
      </trkpt>
      <trkpt lat="45.765232974663377" lon="4.447509991005063">
        <ele>689.88</ele>
        <time>2025-04-24T11:47:27Z</time>
      </trkpt>
      <trkpt lat="45.765043962746859" lon="4.447466991841793">
        <ele>690.36000000000001</ele>
        <time>2025-04-24T11:47:28Z</time>
      </trkpt>
      <trkpt lat="45.764866014942527" lon="4.447390967980027">
        <ele>690.84000000000003</ele>
        <time>2025-04-24T11:47:29Z</time>
      </trkpt>
      <trkpt lat="45.764692006632686" lon="4.447296001017094">
        <ele>691.33000000000004</ele>
        <time>2025-04-24T11:47:30Z</time>
      </trkpt>
      <trkpt lat="45.764522021636367" lon="4.44720396772027">
        <ele>692.28999999999996</ele>
        <time>2025-04-24T11:47:31Z</time>
      </trkpt>
      <trkpt lat="45.764375003054738" lon="4.447048986330628">
        <ele>692.76999999999998</ele>
        <time>2025-04-24T11:47:32Z</time>
      </trkpt>
      <trkpt lat="45.764240976423025" lon="4.446892999112606">
        <ele>693.25</ele>
        <time>2025-04-24T11:47:33Z</time>
      </trkpt>
      <trkpt lat="45.764151038601995" lon="4.446719996631146">
        <ele>693.73000000000002</ele>
        <time>2025-04-24T11:47:34Z</time>
      </trkpt>
      <trkpt lat="45.764065962284803" lon="4.44655504077673">
        <ele>693.73000000000002</ele>
        <time>2025-04-24T11:47:35Z</time>
      </trkpt>
      <trkpt lat="45.763982981443405" lon="4.446394024416804">
        <ele>694.21000000000004</ele>
        <time>2025-04-24T11:47:36Z</time>
      </trkpt>
      <trkpt lat="45.763900000602007" lon="4.446229990571737">
        <ele>694.21000000000004</ele>
        <time>2025-04-24T11:47:37Z</time>
      </trkpt>
      <trkpt lat="45.763820959255099" lon="4.446076015010476">
        <ele>694.69000000000005</ele>
        <time>2025-04-24T11:47:38Z</time>
      </trkpt>
      <trkpt lat="45.763720041140914" lon="4.445975013077259">
        <ele>694.69000000000005</ele>
        <time>2025-04-24T11:47:39Z</time>
      </trkpt>
      <trkpt lat="45.763618033379316" lon="4.445884991437197">
        <ele>694.69000000000005</ele>
        <time>2025-04-24T11:47:40Z</time>
      </trkpt>
      <trkpt lat="45.763515019789338" lon="4.445794969797134">
        <ele>694.69000000000005</ele>
        <time>2025-04-24T11:47:41Z</time>
      </trkpt>
      <trkpt lat="45.763394990935922" lon="4.445726992562413">
        <ele>694.21000000000004</ele>
        <time>2025-04-24T11:47:42Z</time>
      </trkpt>
      <trkpt lat="45.763270016759634" lon="4.445684999227524">
        <ele>694.21000000000004</ele>
        <time>2025-04-24T11:47:43Z</time>
      </trkpt>
      <trkpt lat="45.761941988021135" lon="4.445286020636559">
        <ele>692.76999999999998</ele>
        <time>2025-04-24T11:47:52Z</time>
      </trkpt>
      <trkpt lat="45.761783989146352" lon="4.44531200453639">
        <ele>692.28999999999996</ele>
        <time>2025-04-24T11:47:53Z</time>
      </trkpt>
      <trkpt lat="45.761634958907962" lon="4.445381993427873">
        <ele>692.28999999999996</ele>
        <time>2025-04-24T11:47:54Z</time>
      </trkpt>
      <trkpt lat="45.761499004438519" lon="4.445473020896316">
        <ele>691.80999999999995</ele>
        <time>2025-04-24T11:47:55Z</time>
      </trkpt>
      <trkpt lat="45.761381993070245" lon="4.445605035871267">
        <ele>691.80999999999995</ele>
        <time>2025-04-24T11:47:56Z</time>
      </trkpt>
      <trkpt lat="45.761293983086944" lon="4.445770997554064">
        <ele>692.28999999999996</ele>
        <time>2025-04-24T11:47:57Z</time>
      </trkpt>
      <trkpt lat="45.761236986145377" lon="4.445959003642201">
        <ele>692.28999999999996</ele>
        <time>2025-04-24T11:47:58Z</time>
      </trkpt>
      <trkpt lat="45.761179989203811" lon="4.4461490213871">
        <ele>692.28999999999996</ele>
        <time>2025-04-24T11:47:59Z</time>
      </trkpt>
      <trkpt lat="45.761120980605483" lon="4.446345996111631">
        <ele>692.28999999999996</ele>
        <time>2025-04-24T11:48:00Z</time>
      </trkpt>
      <trkpt lat="45.761061972007155" lon="4.446541965007782">
        <ele>691.80999999999995</ele>
        <time>2025-04-24T11:48:01Z</time>
      </trkpt>
      <trkpt lat="45.760968010872602" lon="4.446705998852849">
        <ele>691.80999999999995</ele>
        <time>2025-04-24T11:48:02Z</time>
      </trkpt>
      <trkpt lat="45.760852005332708" lon="4.446828961372376">
        <ele>691.33000000000004</ele>
        <time>2025-04-24T11:48:03Z</time>
      </trkpt>
      <trkpt lat="45.760731976479292" lon="4.446957958862186">
        <ele>691.33000000000004</ele>
        <time>2025-04-24T11:48:04Z</time>
      </trkpt>
      <trkpt lat="45.760580012574792" lon="4.44705200381577">
        <ele>691.33000000000004</ele>
        <time>2025-04-24T11:48:05Z</time>
      </trkpt>
      <trkpt lat="45.760391000658274" lon="4.447145964950323">
        <ele>691.33000000000004</ele>
        <time>2025-04-24T11:48:06Z</time>
      </trkpt>
      <trkpt lat="45.76016996987164" lon="4.447254007682204">
        <ele>691.33000000000004</ele>
        <time>2025-04-24T11:48:07Z</time>
      </trkpt>
      <trkpt lat="45.759280985221267" lon="4.447660027071834">
        <ele>690.84000000000003</ele>
        <time>2025-04-24T11:48:11Z</time>
      </trkpt>
      <trkpt lat="45.759099014103413" lon="4.447604035958648">
        <ele>690.36000000000001</ele>
        <time>2025-04-24T11:48:12Z</time>
      </trkpt>
      <trkpt lat="45.758926011621952" lon="4.447533041238785">
        <ele>689.88</ele>
        <time>2025-04-24T11:48:13Z</time>
      </trkpt>
      <trkpt lat="45.758748985826969" lon="4.447457017377019">
        <ele>689.88</ele>
        <time>2025-04-24T11:48:14Z</time>
      </trkpt>
      <trkpt lat="45.75857900083065" lon="4.447347968816757">
        <ele>689.88</ele>
        <time>2025-04-24T11:48:15Z</time>
      </trkpt>
      <trkpt lat="45.758253028616309" lon="4.44713800214231">
        <ele>689.88</ele>
        <time>2025-04-24T11:48:17Z</time>
      </trkpt>
      <trkpt lat="45.7581050042063" lon="4.447076981887221">
        <ele>689.39999999999998</ele>
        <time>2025-04-24T11:48:18Z</time>
      </trkpt>
      <trkpt lat="45.757939964532852" lon="4.447066001594067">
        <ele>688.91999999999996</ele>
        <time>2025-04-24T11:48:19Z</time>
      </trkpt>
      <trkpt lat="45.757775008678436" lon="4.447070024907589">
        <ele>688.44000000000005</ele>
        <time>2025-04-24T11:48:20Z</time>
      </trkpt>
      <trkpt lat="45.757594965398312" lon="4.447098020464182">
        <ele>687.48000000000002</ele>
        <time>2025-04-24T11:48:21Z</time>
      </trkpt>
      <trkpt lat="45.757406959310174" lon="4.447128027677536">
        <ele>687</ele>
        <time>2025-04-24T11:48:22Z</time>
      </trkpt>
      <trkpt lat="45.757215013727546" lon="4.44715803489089">
        <ele>686.03999999999996</ele>
        <time>2025-04-24T11:48:23Z</time>
      </trkpt>
      <trkpt lat="45.757023990154266" lon="4.44711402989924">
        <ele>684.60000000000002</ele>
        <time>2025-04-24T11:48:24Z</time>
      </trkpt>
      <trkpt lat="45.756833972409368" lon="4.447038006037474">
        <ele>683.63</ele>
        <time>2025-04-24T11:48:25Z</time>
      </trkpt>
      <trkpt lat="45.7566440384835" lon="4.446931974962354">
        <ele>682.66999999999996</ele>
        <time>2025-04-24T11:48:26Z</time>
      </trkpt>
      <trkpt lat="45.755423968657851" lon="4.446313977241516">
        <ele>679.30999999999995</ele>
        <time>2025-04-24T11:48:33Z</time>
      </trkpt>
      <trkpt lat="45.754075990989804" lon="4.446060005575419">
        <ele>676.41999999999996</ele>
        <time>2025-04-24T11:48:41Z</time>
      </trkpt>
      <trkpt lat="45.753922015428543" lon="4.446068974211812">
        <ele>676.41999999999996</ele>
        <time>2025-04-24T11:48:42Z</time>
      </trkpt>
      <trkpt lat="45.753763010725379" lon="4.446118008345366">
        <ele>675.94000000000005</ele>
        <time>2025-04-24T11:48:43Z</time>
      </trkpt>
      <trkpt lat="45.753616997972131" lon="4.446184979751706">
        <ele>675.94000000000005</ele>
        <time>2025-04-24T11:48:44Z</time>
      </trkpt>
      <trkpt lat="45.753488000482321" lon="4.446285981684923">
        <ele>675.94000000000005</ele>
        <time>2025-04-24T11:48:45Z</time>
      </trkpt>
      <trkpt lat="45.753379035741091" lon="4.446427971124649">
        <ele>675.46000000000004</ele>
        <time>2025-04-24T11:48:46Z</time>
      </trkpt>
      <trkpt lat="45.753289014101028" lon="4.446608014404774">
        <ele>674.98000000000002</ele>
        <time>2025-04-24T11:48:47Z</time>
      </trkpt>
      <trkpt lat="45.753193963319063" lon="4.44681303575635">
        <ele>674.98000000000002</ele>
        <time>2025-04-24T11:48:48Z</time>
      </trkpt>
      <trkpt lat="45.753094973042607" lon="4.447027025744319">
        <ele>674.5</ele>
        <time>2025-04-24T11:48:49Z</time>
      </trkpt>
      <trkpt lat="45.752737987786531" lon="4.448016006499529">
        <ele>674.5</ele>
        <time>2025-04-24T11:48:53Z</time>
      </trkpt>
      <trkpt lat="45.752679985016584" lon="4.448301997035742">
        <ele>674.01999999999998</ele>
        <time>2025-04-24T11:48:54Z</time>
      </trkpt>
      <trkpt lat="45.752657018601894" lon="4.448583964258432">
        <ele>673.53999999999996</ele>
        <time>2025-04-24T11:48:55Z</time>
      </trkpt>
      <trkpt lat="45.752637991681695" lon="4.448875989764929">
        <ele>673.53999999999996</ele>
        <time>2025-04-24T11:48:56Z</time>
      </trkpt>
      <trkpt lat="45.75264997780323" lon="4.449159968644381">
        <ele>673.05999999999995</ele>
        <time>2025-04-24T11:48:57Z</time>
      </trkpt>
      <trkpt lat="45.752699011936784" lon="4.449443025514484">
        <ele>672.58000000000004</ele>
        <time>2025-04-24T11:48:58Z</time>
      </trkpt>
      <trkpt lat="45.752747962251306" lon="4.449729016050696">
        <ele>672.58000000000004</ele>
        <time>2025-04-24T11:48:59Z</time>
      </trkpt>
      <trkpt lat="45.752796996384859" lon="4.450014000758529">
        <ele>672.58000000000004</ele>
        <time>2025-04-24T11:49:00Z</time>
      </trkpt>
      <trkpt lat="45.753020038828254" lon="4.45149902254343">
        <ele>671.13999999999999</ele>
        <time>2025-04-24T11:49:06Z</time>
      </trkpt>
      <trkpt lat="45.753032024949789" lon="4.451732961460948">
        <ele>670.65999999999997</ele>
        <time>2025-04-24T11:49:07Z</time>
      </trkpt>
      <trkpt lat="45.753007968887687" lon="4.451987016946077">
        <ele>670.17999999999995</ele>
        <time>2025-04-24T11:49:08Z</time>
      </trkpt>
      <trkpt lat="45.752958012744784" lon="4.452238976955414">
        <ele>669.22000000000003</ele>
        <time>2025-04-24T11:49:09Z</time>
      </trkpt>
      <trkpt lat="45.752870002761483" lon="4.452472999691963">
        <ele>668.73000000000002</ele>
        <time>2025-04-24T11:49:10Z</time>
      </trkpt>
      <trkpt lat="45.752773024141788" lon="4.452696964144707">
        <ele>668.25</ele>
        <time>2025-04-24T11:49:11Z</time>
      </trkpt>
      <trkpt lat="45.752635980024934" lon="4.452885976061225">
        <ele>667.76999999999998</ele>
        <time>2025-04-24T11:49:12Z</time>
      </trkpt>
      <trkpt lat="45.752494996413589" lon="4.453079011291266">
        <ele>667.28999999999996</ele>
        <time>2025-04-24T11:49:13Z</time>
      </trkpt>
      <trkpt lat="45.752352001145482" lon="4.453274980187416">
        <ele>667.28999999999996</ele>
        <time>2025-04-24T11:49:14Z</time>
      </trkpt>
      <trkpt lat="45.752063998952508" lon="4.45366901345551">
        <ele>666.80999999999995</ele>
        <time>2025-04-24T11:49:16Z</time>
      </trkpt>
      <trkpt lat="45.751943970099092" lon="4.453900018706918">
        <ele>666.80999999999995</ele>
        <time>2025-04-24T11:49:17Z</time>
      </trkpt>
      <trkpt lat="45.751160010695457" lon="4.455629037693143">
        <ele>665.85000000000002</ele>
        <time>2025-04-24T11:49:25Z</time>
      </trkpt>
      <trkpt lat="45.750917019322515" lon="4.456306966021657">
        <ele>666.80999999999995</ele>
        <time>2025-04-24T11:49:28Z</time>
      </trkpt>
      <trkpt lat="45.750362975522876" lon="4.457889972254634">
        <ele>670.65999999999997</ele>
        <time>2025-04-24T11:49:35Z</time>
      </trkpt>
      <trkpt lat="45.749667026102543" lon="4.459139965474606">
        <ele>669.70000000000005</ele>
        <time>2025-04-24T11:49:42Z</time>
      </trkpt>
      <trkpt lat="45.749410036951303" lon="4.45942603982985">
        <ele>669.70000000000005</ele>
        <time>2025-04-24T11:49:44Z</time>
      </trkpt>
      <trkpt lat="45.749276010319591" lon="4.459572974592447">
        <ele>669.22000000000003</ele>
        <time>2025-04-24T11:49:45Z</time>
      </trkpt>
      <trkpt lat="45.749128991737962" lon="4.459681017324328">
        <ele>669.22000000000003</ele>
        <time>2025-04-24T11:49:46Z</time>
      </trkpt>
      <trkpt lat="45.748982978984714" lon="4.459787970408797">
        <ele>669.22000000000003</ele>
        <time>2025-04-24T11:49:47Z</time>
      </trkpt>
      <trkpt lat="45.74882498010993" lon="4.459866005927324">
        <ele>668.73000000000002</ele>
        <time>2025-04-24T11:49:48Z</time>
      </trkpt>
      <trkpt lat="45.747478008270264" lon="4.460427006706595">
        <ele>668.25</ele>
        <time>2025-04-24T11:49:56Z</time>
      </trkpt>
      <trkpt lat="45.747278016060591" lon="4.46045701391995">
        <ele>667.76999999999998</ele>
        <time>2025-04-24T11:49:57Z</time>
      </trkpt>
      <trkpt lat="45.747069977223873" lon="4.460469000041485">
        <ele>667.28999999999996</ele>
        <time>2025-04-24T11:49:58Z</time>
      </trkpt>
      <trkpt lat="45.746860010549426" lon="4.46045801974833">
        <ele>666.80999999999995</ele>
        <time>2025-04-24T11:49:59Z</time>
      </trkpt>
      <trkpt lat="45.746644008904696" lon="4.460444021970034">
        <ele>666.80999999999995</ele>
        <time>2025-04-24T11:50:00Z</time>
      </trkpt>
      <trkpt lat="45.745509015396237" lon="4.460482997819781">
        <ele>667.28999999999996</ele>
        <time>2025-04-24T11:50:06Z</time>
      </trkpt>
      <trkpt lat="45.744405034929514" lon="4.460830008611083">
        <ele>670.17999999999995</ele>
        <time>2025-04-24T11:50:14Z</time>
      </trkpt>
      <trkpt lat="45.743739008903503" lon="4.461108036339283">
        <ele>671.62</ele>
        <time>2025-04-24T11:50:21Z</time>
      </trkpt>
      <trkpt lat="45.743423011153936" lon="4.461285984143615">
        <ele>670.65999999999997</ele>
        <time>2025-04-24T11:50:27Z</time>
      </trkpt>
      <trkpt lat="45.743374982848763" lon="4.461335018277168">
        <ele>670.17999999999995</ele>
        <time>2025-04-24T11:50:28Z</time>
      </trkpt>
      <trkpt lat="45.743315974250436" lon="4.461393021047115">
        <ele>670.17999999999995</ele>
        <time>2025-04-24T11:50:29Z</time>
      </trkpt>
      <trkpt lat="45.743260988965631" lon="4.461431996896863">
        <ele>669.70000000000005</ele>
        <time>2025-04-24T11:50:30Z</time>
      </trkpt>
      <trkpt lat="45.743200974538922" lon="4.461474996060133">
        <ele>669.70000000000005</ele>
        <time>2025-04-24T11:50:31Z</time>
      </trkpt>
      <trkpt lat="45.742628993466496" lon="4.461886966601014">
        <ele>665.37</ele>
        <time>2025-04-24T11:50:40Z</time>
      </trkpt>
      <trkpt lat="45.742581970989704" lon="4.461917979642749">
        <ele>664.88999999999999</ele>
        <time>2025-04-24T11:50:41Z</time>
      </trkpt>
      <trkpt lat="45.742522040382028" lon="4.461957961320877">
        <ele>664.40999999999997</ele>
        <time>2025-04-24T11:50:42Z</time>
      </trkpt>
      <trkpt lat="45.742324981838465" lon="4.462089976295829">
        <ele>662.97000000000003</ele>
        <time>2025-04-24T11:50:45Z</time>
      </trkpt>
      <trkpt lat="45.741971014067531" lon="4.462334979325533">
        <ele>659.60000000000002</ele>
        <time>2025-04-24T11:50:50Z</time>
      </trkpt>
      <trkpt lat="45.741900019347668" lon="4.462386025115848">
        <ele>659.12</ele>
        <time>2025-04-24T11:50:51Z</time>
      </trkpt>
      <trkpt lat="45.741831036284566" lon="4.462436987087131">
        <ele>658.63999999999999</ele>
        <time>2025-04-24T11:50:52Z</time>
      </trkpt>
      <trkpt lat="45.741760963574052" lon="4.462487027049065">
        <ele>658.15999999999997</ele>
        <time>2025-04-24T11:50:53Z</time>
      </trkpt>
      <trkpt lat="45.741688963025808" lon="4.462540000677109">
        <ele>658.15999999999997</ele>
        <time>2025-04-24T11:50:54Z</time>
      </trkpt>
      <trkpt lat="45.741617968305945" lon="4.462591968476772">
        <ele>658.15999999999997</ele>
        <time>2025-04-24T11:50:55Z</time>
      </trkpt>
      <trkpt lat="45.741001982241869" lon="4.463041992858052">
        <ele>654.30999999999995</ele>
        <time>2025-04-24T11:51:03Z</time>
      </trkpt>
      <trkpt lat="45.740576013922691" lon="4.46329596452415">
        <ele>652.87</ele>
        <time>2025-04-24T11:51:09Z</time>
      </trkpt>
      <trkpt lat="45.740431006997824" lon="4.463322032243013">
        <ele>652.38999999999999</ele>
        <time>2025-04-24T11:51:11Z</time>
      </trkpt>
      <trkpt lat="45.740218022838235" lon="4.46331599727273">
        <ele>651.90999999999997</ele>
        <time>2025-04-24T11:51:14Z</time>
      </trkpt>
      <trkpt lat="45.739828012883663" lon="4.463304011151195">
        <ele>650.47000000000003</ele>
        <time>2025-04-24T11:51:20Z</time>
      </trkpt>
      <trkpt lat="45.73979901149869" lon="4.463225975632668">
        <ele>650.47000000000003</ele>
        <time>2025-04-24T11:51:21Z</time>
      </trkpt>
      <trkpt lat="45.739802028983831" lon="4.463148023933172">
        <ele>649.99000000000001</ele>
        <time>2025-04-24T11:51:22Z</time>
      </trkpt>
      <trkpt lat="45.739804962649941" lon="4.463055990636349">
        <ele>649.50999999999999</ele>
        <time>2025-04-24T11:51:23Z</time>
      </trkpt>
      <trkpt lat="45.739808985963464" lon="4.462957000359893">
        <ele>649.50999999999999</ele>
        <time>2025-04-24T11:51:24Z</time>
      </trkpt>
      <trkpt lat="45.739812003448606" lon="4.462851975113154">
        <ele>649.02999999999997</ele>
        <time>2025-04-24T11:51:25Z</time>
      </trkpt>
      <trkpt lat="45.739816026762128" lon="4.462743010371923">
        <ele>648.54999999999995</ele>
        <time>2025-04-24T11:51:26Z</time>
      </trkpt>
      <trkpt lat="45.739834969863296" lon="4.46262801066041">
        <ele>647.59000000000003</ele>
        <time>2025-04-24T11:51:27Z</time>
      </trkpt>
      <trkpt lat="45.739899007603526" lon="4.462426006793976">
        <ele>646.13999999999999</ele>
        <time>2025-04-24T11:51:29Z</time>
      </trkpt>
      <trkpt lat="45.73992901481688" lon="4.462329028174281">
        <ele>645.65999999999997</ele>
        <time>2025-04-24T11:51:30Z</time>
      </trkpt>
      <trkpt lat="45.739978970959783" lon="4.462245041504502">
        <ele>644.70000000000005</ele>
        <time>2025-04-24T11:51:31Z</time>
      </trkpt>
      <trkpt lat="45.74003697372973" lon="4.462192989885807">
        <ele>643.74000000000001</ele>
        <time>2025-04-24T11:51:32Z</time>
      </trkpt>
      <trkpt lat="45.74010000564158" lon="4.462136998772621">
        <ele>643.25999999999999</ele>
        <time>2025-04-24T11:51:33Z</time>
      </trkpt>
      <trkpt lat="45.740172006189823" lon="4.462086036801338">
        <ele>642.77999999999997</ele>
        <time>2025-04-24T11:51:34Z</time>
      </trkpt>
      <trkpt lat="45.740243000909686" lon="4.462049994617701">
        <ele>642.29999999999995</ele>
        <time>2025-04-24T11:51:35Z</time>
      </trkpt>
      <trkpt lat="45.740317013114691" lon="4.461991991847754">
        <ele>641.82000000000005</ele>
        <time>2025-04-24T11:51:36Z</time>
      </trkpt>
      <trkpt lat="45.74033796787262" lon="4.461900964379311">
        <ele>642.29999999999995</ele>
        <time>2025-04-24T11:51:37Z</time>
      </trkpt>
      <trkpt lat="45.740356994792819" lon="4.461818989366293">
        <ele>642.29999999999995</ele>
        <time>2025-04-24T11:51:38Z</time>
      </trkpt>
      <trkpt lat="45.740370992571115" lon="4.461756963282824">
        <ele>642.77999999999997</ele>
        <time>2025-04-24T11:51:39Z</time>
      </trkpt>
      <trkpt lat="45.740376021713018" lon="4.461737014353275">
        <ele>642.77999999999997</ele>
        <time>2025-04-24T11:51:40Z</time>
      </trkpt>
      <trkpt lat="45.740376021713018" lon="4.461737014353275">
        <ele>642.77999999999997</ele>
        <time>2025-04-24T11:51:41Z</time>
      </trkpt>
      <trkpt lat="45.740376021713018" lon="4.461737014353275">
        <ele>643.25999999999999</ele>
        <time>2025-04-24T11:51:42Z</time>
      </trkpt>
      <trkpt lat="45.740475011989474" lon="4.461579015478492">
        <ele>643.25999999999999</ele>
        <time>2025-04-24T11:51:43Z</time>
      </trkpt>
      <trkpt lat="45.740462020039558" lon="4.461457980796695">
        <ele>643.74000000000001</ele>
        <time>2025-04-24T11:51:44Z</time>
      </trkpt>
      <trkpt lat="45.740462020039558" lon="4.461385980248451">
        <ele>643.74000000000001</ele>
        <time>2025-04-24T11:51:45Z</time>
      </trkpt>
      <trkpt lat="45.74046696536243" lon="4.461142988875508">
        <ele>644.70000000000005</ele>
        <time>2025-04-24T11:51:47Z</time>
      </trkpt>
      <trkpt lat="45.740505019202828" lon="4.461022038012743">
        <ele>645.17999999999995</ele>
        <time>2025-04-24T11:51:48Z</time>
      </trkpt>
      <trkpt lat="45.740546006709337" lon="4.460893962532282">
        <ele>645.65999999999997</ele>
        <time>2025-04-24T11:51:49Z</time>
      </trkpt>
      <trkpt lat="45.740783968940377" lon="4.460099022835493">
        <ele>645.65999999999997</ele>
        <time>2025-04-24T11:51:55Z</time>
      </trkpt>
      <trkpt lat="45.740783968940377" lon="4.459999026730657">
        <ele>645.65999999999997</ele>
        <time>2025-04-24T11:51:56Z</time>
      </trkpt>
      <trkpt lat="45.740743987262249" lon="4.459919985383749">
        <ele>645.65999999999997</ele>
        <time>2025-04-24T11:51:57Z</time>
      </trkpt>
      <trkpt lat="45.740704005584121" lon="4.459861982613802">
        <ele>645.65999999999997</ele>
        <time>2025-04-24T11:51:58Z</time>
      </trkpt>
      <trkpt lat="45.740635022521019" lon="4.459823006764054">
        <ele>645.17999999999995</ele>
        <time>2025-04-24T11:51:59Z</time>
      </trkpt>
      <trkpt lat="45.740556987002492" lon="4.459780007600784">
        <ele>645.17999999999995</ele>
        <time>2025-04-24T11:52:00Z</time>
      </trkpt>
      <trkpt lat="45.740482974797487" lon="4.459757963195443">
        <ele>644.70000000000005</ele>
        <time>2025-04-24T11:52:01Z</time>
      </trkpt>
      <trkpt lat="45.740396976470947" lon="4.45975000038743">
        <ele>644.70000000000005</ele>
        <time>2025-04-24T11:52:02Z</time>
      </trkpt>
      <trkpt lat="45.740311983972788" lon="4.459741031751037">
        <ele>643.74000000000001</ele>
        <time>2025-04-24T11:52:03Z</time>
      </trkpt>
      <trkpt lat="45.740225985646248" lon="4.459759974852204">
        <ele>643.74000000000001</ele>
        <time>2025-04-24T11:52:04Z</time>
      </trkpt>
      <trkpt lat="45.740119032561779" lon="4.459784030914307">
        <ele>643.25999999999999</ele>
        <time>2025-04-24T11:52:05Z</time>
      </trkpt>
      <trkpt lat="45.740046026185155" lon="4.459808003157377">
        <ele>642.77999999999997</ele>
        <time>2025-04-24T11:52:06Z</time>
      </trkpt>
      <trkpt lat="45.739697003737092" lon="4.459982011467218">
        <ele>641.34000000000003</ele>
        <time>2025-04-24T11:52:10Z</time>
      </trkpt>
      <trkpt lat="45.739616034552455" lon="4.460056023672223">
        <ele>640.86000000000001</ele>
        <time>2025-04-24T11:52:11Z</time>
      </trkpt>
      <trkpt lat="45.739545039832592" lon="4.46013699285686">
        <ele>640.38</ele>
        <time>2025-04-24T11:52:12Z</time>
      </trkpt>
      <trkpt lat="45.739487037062645" lon="4.460252998396754">
        <ele>639.88999999999999</ele>
        <time>2025-04-24T11:52:13Z</time>
      </trkpt>
      <trkpt lat="45.739430040121078" lon="4.460367998108268">
        <ele>638.92999999999995</ele>
        <time>2025-04-24T11:52:14Z</time>
      </trkpt>
      <trkpt lat="45.739383017644286" lon="4.460484003648162">
        <ele>637.97000000000003</ele>
        <time>2025-04-24T11:52:15Z</time>
      </trkpt>
      <trkpt lat="45.739210015162826" lon="4.460970992222428">
        <ele>634.61000000000001</ele>
        <time>2025-04-24T11:52:22Z</time>
      </trkpt>
      <trkpt lat="45.739141032099724" lon="4.460990019142628">
        <ele>634.61000000000001</ele>
        <time>2025-04-24T11:52:23Z</time>
      </trkpt>
      <trkpt lat="45.739122005179524" lon="4.460944002494216">
        <ele>634.13</ele>
        <time>2025-04-24T11:52:24Z</time>
      </trkpt>
      <trkpt lat="45.739098032936454" lon="4.460885999724269">
        <ele>633.64999999999998</ele>
        <time>2025-04-24T11:52:25Z</time>
      </trkpt>
      <trkpt lat="45.73907196521759" lon="4.460822967812419">
        <ele>633.16999999999996</ele>
        <time>2025-04-24T11:52:26Z</time>
      </trkpt>
      <trkpt lat="45.739044975489378" lon="4.46075800806284">
        <ele>632.67999999999995</ele>
        <time>2025-04-24T11:52:27Z</time>
      </trkpt>
      <trkpt lat="45.739015974104404" lon="4.460686007514596">
        <ele>632.20000000000005</ele>
        <time>2025-04-24T11:52:28Z</time>
      </trkpt>
      <trkpt lat="45.738840037956834" lon="4.460172029212117">
        <ele>628.36000000000001</ele>
        <time>2025-04-24T11:52:34Z</time>
      </trkpt>
      <trkpt lat="45.738822016865015" lon="4.460082007572055">
        <ele>627.88</ele>
        <time>2025-04-24T11:52:35Z</time>
      </trkpt>
      <trkpt lat="45.73881003074348" lon="4.45998502895236">
        <ele>626.91999999999996</ele>
        <time>2025-04-24T11:52:36Z</time>
      </trkpt>
      <trkpt lat="45.73881003074348" lon="4.459881009534001">
        <ele>626.44000000000005</ele>
        <time>2025-04-24T11:52:37Z</time>
      </trkpt>
      <trkpt lat="45.73881003074348" lon="4.459766009822488">
        <ele>625.96000000000004</ele>
        <time>2025-04-24T11:52:38Z</time>
      </trkpt>
      <trkpt lat="45.73881003074348" lon="4.459369964897633">
        <ele>623.54999999999995</ele>
        <time>2025-04-24T11:52:41Z</time>
      </trkpt>
      <trkpt lat="45.738870967179537" lon="4.458835031837225">
        <ele>619.71000000000004</ele>
        <time>2025-04-24T11:52:45Z</time>
      </trkpt>
      <trkpt lat="45.738966017961502" lon="4.458172023296356">
        <ele>612.98000000000002</ele>
        <time>2025-04-24T11:52:51Z</time>
      </trkpt>
      <trkpt lat="45.738975992426276" lon="4.458103040233254">
        <ele>611.53999999999996</ele>
        <time>2025-04-24T11:52:52Z</time>
      </trkpt>
      <trkpt lat="45.738981021568179" lon="4.458065992221236">
        <ele>610.57000000000005</ele>
        <time>2025-04-24T11:52:53Z</time>
      </trkpt>
      <trkpt lat="45.738970041275024" lon="4.458027016371489">
        <ele>609.61000000000001</ele>
        <time>2025-04-24T11:52:54Z</time>
      </trkpt>
      <trkpt lat="45.738960988819599" lon="4.457997009158135">
        <ele>608.64999999999998</ele>
        <time>2025-04-24T11:52:55Z</time>
      </trkpt>
      <trkpt lat="45.738953026011586" lon="4.457969013601542">
        <ele>607.69000000000005</ele>
        <time>2025-04-24T11:52:56Z</time>
      </trkpt>
      <trkpt lat="45.73891899548471" lon="4.457849990576506">
        <ele>604.80999999999995</ele>
        <time>2025-04-24T11:53:04Z</time>
      </trkpt>
      <trkpt lat="45.738863004371524" lon="4.457810008898377">
        <ele>604.33000000000004</ele>
        <time>2025-04-24T11:53:05Z</time>
      </trkpt>
      <trkpt lat="45.738820005208254" lon="4.457868011668325">
        <ele>604.33000000000004</ele>
        <time>2025-04-24T11:53:06Z</time>
      </trkpt>
      <trkpt lat="45.738762002438307" lon="4.45794596336782">
        <ele>603.85000000000002</ele>
        <time>2025-04-24T11:53:07Z</time>
      </trkpt>
      <trkpt lat="45.738694025203586" lon="4.458036990836263">
        <ele>603.85000000000002</ele>
        <time>2025-04-24T11:53:08Z</time>
      </trkpt>
      <trkpt lat="45.738615989685059" lon="4.458142016083002">
        <ele>603.85000000000002</ele>
        <time>2025-04-24T11:53:09Z</time>
      </trkpt>
      <trkpt lat="45.737787019461393" lon="4.45925303734839">
        <ele>603.36000000000001</ele>
        <time>2025-04-24T11:53:17Z</time>
      </trkpt>
      <trkpt lat="45.736538032069802" lon="4.460917012766004">
        <ele>603.36000000000001</ele>
        <time>2025-04-24T11:53:28Z</time>
      </trkpt>
      <trkpt lat="45.735796988010406" lon="4.462290974333882">
        <ele>601.91999999999996</ele>
        <time>2025-04-24T11:53:35Z</time>
      </trkpt>
      <trkpt lat="45.735374037176371" lon="4.463996021077037">
        <ele>602.39999999999998</ele>
        <time>2025-04-24T11:53:42Z</time>
      </trkpt>
      <trkpt lat="45.735290972515941" lon="4.465439971536398">
        <ele>602.88</ele>
        <time>2025-04-24T11:53:49Z</time>
      </trkpt>
      <trkpt lat="45.735316034406424" lon="4.465634012594819">
        <ele>603.36000000000001</ele>
        <time>2025-04-24T11:53:50Z</time>
      </trkpt>
      <trkpt lat="45.735355010256171" lon="4.465816989541054">
        <ele>603.36000000000001</ele>
        <time>2025-04-24T11:53:51Z</time>
      </trkpt>
      <trkpt lat="45.735397003591061" lon="4.465969037264586">
        <ele>603.85000000000002</ele>
        <time>2025-04-24T11:53:52Z</time>
      </trkpt>
      <trkpt lat="45.7353759650141" lon="4.466140028089285">
        <ele>604.33000000000004</ele>
        <time>2025-04-24T11:53:53Z</time>
      </trkpt>
      <trkpt lat="45.7353759650141" lon="4.466220997273922">
        <ele>604.80999999999995</ele>
        <time>2025-04-24T11:53:54Z</time>
      </trkpt>
      <trkpt lat="45.735365990549326" lon="4.466327028349042">
        <ele>604.80999999999995</ele>
        <time>2025-04-24T11:53:55Z</time>
      </trkpt>
      <trkpt lat="45.735355010256171" lon="4.466435993090272">
        <ele>605.28999999999996</ele>
        <time>2025-04-24T11:53:56Z</time>
      </trkpt>
      <trkpt lat="45.735302958637476" lon="4.466455020010471">
        <ele>605.76999999999998</ele>
        <time>2025-04-24T11:53:57Z</time>
      </trkpt>
      <trkpt lat="45.735216038301587" lon="4.466486033052206">
        <ele>605.76999999999998</ele>
        <time>2025-04-24T11:53:58Z</time>
      </trkpt>
      <trkpt lat="45.735109001398087" lon="4.466521991416812">
        <ele>606.25</ele>
        <time>2025-04-24T11:53:59Z</time>
      </trkpt>
      <trkpt lat="45.734986960887909" lon="4.466521991416812">
        <ele>606.73000000000002</ele>
        <time>2025-04-24T11:54:00Z</time>
      </trkpt>
      <trkpt lat="45.734857963398099" lon="4.466521991416812">
        <ele>606.73000000000002</ele>
        <time>2025-04-24T11:54:01Z</time>
      </trkpt>
      <trkpt lat="45.734725026413798" lon="4.46655803360045">
        <ele>606.25</ele>
        <time>2025-04-24T11:54:02Z</time>
      </trkpt>
      <trkpt lat="45.734587982296944" lon="4.466611007228494">
        <ele>606.73000000000002</ele>
        <time>2025-04-24T11:54:03Z</time>
      </trkpt>
      <trkpt lat="45.734451021999121" lon="4.466664986684918">
        <ele>606.25</ele>
        <time>2025-04-24T11:54:04Z</time>
      </trkpt>
      <trkpt lat="45.734325964003801" lon="4.466757019981742">
        <ele>605.28999999999996</ele>
        <time>2025-04-24T11:54:05Z</time>
      </trkpt>
      <trkpt lat="45.734207024797797" lon="4.466851986944675">
        <ele>604.80999999999995</ele>
        <time>2025-04-24T11:54:06Z</time>
      </trkpt>
      <trkpt lat="45.734094958752394" lon="4.466949971392751">
        <ele>604.33000000000004</ele>
        <time>2025-04-24T11:54:07Z</time>
      </trkpt>
      <trkpt lat="45.734000997617841" lon="4.467072011902928">
        <ele>603.85000000000002</ele>
        <time>2025-04-24T11:54:08Z</time>
      </trkpt>
      <trkpt lat="45.733895972371101" lon="4.467207966372371">
        <ele>603.36000000000001</ele>
        <time>2025-04-24T11:54:09Z</time>
      </trkpt>
      <trkpt lat="45.733818020671606" lon="4.46733201853931">
        <ele>602.39999999999998</ele>
        <time>2025-04-24T11:54:10Z</time>
      </trkpt>
      <trkpt lat="45.733471009880304" lon="4.467895030975342">
        <ele>599.51999999999998</ele>
        <time>2025-04-24T11:54:14Z</time>
      </trkpt>
      <trkpt lat="45.733366990461946" lon="4.468015981838107">
        <ele>598.55999999999995</ele>
        <time>2025-04-24T11:54:15Z</time>
      </trkpt>
      <trkpt lat="45.73324897326529" lon="4.468103991821408">
        <ele>597.60000000000002</ele>
        <time>2025-04-24T11:54:16Z</time>
      </trkpt>
      <trkpt lat="45.7331189699471" lon="4.468146990984678">
        <ele>596.14999999999998</ele>
        <time>2025-04-24T11:54:17Z</time>
      </trkpt>
      <trkpt lat="45.732992989942431" lon="4.468163000419736">
        <ele>595.19000000000005</ele>
        <time>2025-04-24T11:54:18Z</time>
      </trkpt>
      <trkpt lat="45.732862986624241" lon="4.46812896989286">
        <ele>593.75</ele>
        <time>2025-04-24T11:54:19Z</time>
      </trkpt>
      <trkpt lat="45.732746981084347" lon="4.468041965737939">
        <ele>592.78999999999996</ele>
        <time>2025-04-24T11:54:20Z</time>
      </trkpt>
      <trkpt lat="45.732651008293033" lon="4.467925960198045">
        <ele>591.35000000000002</ele>
        <time>2025-04-24T11:54:21Z</time>
      </trkpt>
      <trkpt lat="45.732570039108396" lon="4.467778019607067">
        <ele>590.87</ele>
        <time>2025-04-24T11:54:22Z</time>
      </trkpt>
      <trkpt lat="45.732484962791204" lon="4.467624966055155">
        <ele>589.90999999999997</ele>
        <time>2025-04-24T11:54:23Z</time>
      </trkpt>
      <trkpt lat="45.732402987778187" lon="4.467463027685881">
        <ele>588.95000000000005</ele>
        <time>2025-04-24T11:54:24Z</time>
      </trkpt>
      <trkpt lat="45.732243983075023" lon="4.467144012451172">
        <ele>587.01999999999998</ele>
        <time>2025-04-24T11:54:26Z</time>
      </trkpt>
      <trkpt lat="45.732115991413593" lon="4.466997999697924">
        <ele>586.53999999999996</ele>
        <time>2025-04-24T11:54:27Z</time>
      </trkpt>
      <trkpt lat="45.731989005580544" lon="4.466889034956694">
        <ele>585.58000000000004</ele>
        <time>2025-04-24T11:54:28Z</time>
      </trkpt>
      <trkpt lat="45.731846010312438" lon="4.466846035793424">
        <ele>584.62</ele>
        <time>2025-04-24T11:54:29Z</time>
      </trkpt>
      <trkpt lat="45.731692034751177" lon="4.466800019145012">
        <ele>584.13999999999999</ele>
        <time>2025-04-24T11:54:30Z</time>
      </trkpt>
      <trkpt lat="45.731519032269716" lon="4.466775041073561">
        <ele>583.17999999999995</ele>
        <time>2025-04-24T11:54:31Z</time>
      </trkpt>
      <trkpt lat="45.730065023526549" lon="4.466744028031826">
        <ele>576.45000000000005</ele>
        <time>2025-04-24T11:54:38Z</time>
      </trkpt>
      <trkpt lat="45.729907024651766" lon="4.466821979731321">
        <ele>575.49000000000001</ele>
        <time>2025-04-24T11:54:39Z</time>
      </trkpt>
      <trkpt lat="45.729796970263124" lon="4.466907978057861">
        <ele>575.00999999999999</ele>
        <time>2025-04-24T11:54:40Z</time>
      </trkpt>
      <trkpt lat="45.72968197055161" lon="4.467091960832477">
        <ele>574.03999999999996</ele>
        <time>2025-04-24T11:54:41Z</time>
      </trkpt>
      <trkpt lat="45.729580968618393" lon="4.467261023819447">
        <ele>573.55999999999995</ele>
        <time>2025-04-24T11:54:42Z</time>
      </trkpt>
      <trkpt lat="45.729535035789013" lon="4.467500997707248">
        <ele>573.08000000000004</ele>
        <time>2025-04-24T11:54:43Z</time>
      </trkpt>
      <trkpt lat="45.729483989998698" lon="4.46776301600039">
        <ele>572.60000000000002</ele>
        <time>2025-04-24T11:54:44Z</time>
      </trkpt>
      <trkpt lat="45.729304030537605" lon="4.468545969575644">
        <ele>570.67999999999995</ele>
        <time>2025-04-24T11:54:47Z</time>
      </trkpt>
      <trkpt lat="45.729196993634105" lon="4.468746967613697">
        <ele>569.72000000000003</ele>
        <time>2025-04-24T11:54:48Z</time>
      </trkpt>
      <trkpt lat="45.729063972830772" lon="4.468893986195326">
        <ele>568.27999999999997</ele>
        <time>2025-04-24T11:54:49Z</time>
      </trkpt>
      <trkpt lat="45.728902034461498" lon="4.468969004228711">
        <ele>567.32000000000005</ele>
        <time>2025-04-24T11:54:50Z</time>
      </trkpt>
      <trkpt lat="45.728716962039471" lon="4.46903295814991">
        <ele>566.35000000000002</ele>
        <time>2025-04-24T11:54:51Z</time>
      </trkpt>
      <trkpt lat="45.728515964001417" lon="4.469081992283464">
        <ele>565.38999999999999</ele>
        <time>2025-04-24T11:54:52Z</time>
      </trkpt>
      <trkpt lat="45.727465962991118" lon="4.469361025840044">
        <ele>559.62</ele>
        <time>2025-04-24T11:54:57Z</time>
      </trkpt>
      <trkpt lat="45.727294972166419" lon="4.469453981146216">
        <ele>558.65999999999997</ele>
        <time>2025-04-24T11:54:58Z</time>
      </trkpt>
      <trkpt lat="45.727149965241551" lon="4.469597982242703">
        <ele>558.17999999999995</ele>
        <time>2025-04-24T11:54:59Z</time>
      </trkpt>
      <trkpt lat="45.727009987458587" lon="4.469778025522828">
        <ele>557.22000000000003</ele>
        <time>2025-04-24T11:55:00Z</time>
      </trkpt>
      <trkpt lat="45.726867998018861" lon="4.469983968883753">
        <ele>555.77999999999997</ele>
        <time>2025-04-24T11:55:01Z</time>
      </trkpt>
      <trkpt lat="45.725762005895376" lon="4.471704019233584">
        <ele>546.64999999999998</ele>
        <time>2025-04-24T11:55:09Z</time>
      </trkpt>
      <trkpt lat="45.725596966221929" lon="4.471860006451607">
        <ele>545.20000000000005</ele>
        <time>2025-04-24T11:55:10Z</time>
      </trkpt>
      <trkpt lat="45.725420024245977" lon="4.472007025033236">
        <ele>544.24000000000001</ele>
        <time>2025-04-24T11:55:11Z</time>
      </trkpt>
      <trkpt lat="45.723715983331203" lon="4.47302701883018">
        <ele>533.19000000000005</ele>
        <time>2025-04-24T11:55:20Z</time>
      </trkpt>
      <trkpt lat="45.723192030563951" lon="4.473299011588097">
        <ele>529.82000000000005</ele>
        <time>2025-04-24T11:55:23Z</time>
      </trkpt>
      <trkpt lat="45.723025985062122" lon="4.47332801297307">
        <ele>528.86000000000001</ele>
        <time>2025-04-24T11:55:24Z</time>
      </trkpt>
      <trkpt lat="45.722876032814384" lon="4.473314015194774">
        <ele>527.89999999999998</ele>
        <time>2025-04-24T11:55:25Z</time>
      </trkpt>
      <trkpt lat="45.722728008404374" lon="4.473231034353375">
        <ele>526.94000000000005</ele>
        <time>2025-04-24T11:55:26Z</time>
      </trkpt>
      <trkpt lat="45.722584007307887" lon="4.473148975521326">
        <ele>525.98000000000002</ele>
        <time>2025-04-24T11:55:27Z</time>
      </trkpt>
      <trkpt lat="45.722452998161316" lon="4.473002962768078">
        <ele>525.01999999999998</ele>
        <time>2025-04-24T11:55:28Z</time>
      </trkpt>
      <trkpt lat="45.722345039248466" lon="4.472810011357069">
        <ele>524.05999999999995</ele>
        <time>2025-04-24T11:55:29Z</time>
      </trkpt>
      <trkpt lat="45.722259962931275" lon="4.472589986398816">
        <ele>523.09000000000003</ele>
        <time>2025-04-24T11:55:30Z</time>
      </trkpt>
      <trkpt lat="45.722175976261497" lon="4.472374990582466">
        <ele>522.61000000000001</ele>
        <time>2025-04-24T11:55:31Z</time>
      </trkpt>
      <trkpt lat="45.722094001248479" lon="4.472165023908019">
        <ele>521.64999999999998</ele>
        <time>2025-04-24T11:55:32Z</time>
      </trkpt>
      <trkpt lat="45.721982019022107" lon="4.472024962306023">
        <ele>520.69000000000005</ele>
        <time>2025-04-24T11:55:33Z</time>
      </trkpt>
      <trkpt lat="45.721858972683549" lon="4.47193200699985">
        <ele>520.21000000000004</ele>
        <time>2025-04-24T11:55:34Z</time>
      </trkpt>
      <trkpt lat="45.721724024042487" lon="4.471894036978483">
        <ele>519.73000000000002</ele>
        <time>2025-04-24T11:55:35Z</time>
      </trkpt>
      <trkpt lat="45.721580022946" lon="4.471878027543426">
        <ele>519.25</ele>
        <time>2025-04-24T11:55:36Z</time>
      </trkpt>
      <trkpt lat="45.721415989100933" lon="4.471927983686328">
        <ele>518.76999999999998</ele>
        <time>2025-04-24T11:55:37Z</time>
      </trkpt>
      <trkpt lat="45.721231000497937" lon="4.471984980627894">
        <ele>518.28999999999996</ele>
        <time>2025-04-24T11:55:38Z</time>
      </trkpt>
      <trkpt lat="45.720845013856888" lon="4.472182039171457">
        <ele>517.80999999999995</ele>
        <time>2025-04-24T11:55:40Z</time>
      </trkpt>
      <trkpt lat="45.720653990283608" lon="4.472337020561099">
        <ele>517.33000000000004</ele>
        <time>2025-04-24T11:55:41Z</time>
      </trkpt>
      <trkpt lat="45.720462966710329" lon="4.472496025264263">
        <ele>516.85000000000002</ele>
        <time>2025-04-24T11:55:42Z</time>
      </trkpt>
      <trkpt lat="45.719697028398514" lon="4.473402025178075">
        <ele>515.88</ele>
        <time>2025-04-24T11:55:47Z</time>
      </trkpt>
      <trkpt lat="45.719592003151774" lon="4.473618026822805">
        <ele>515.39999999999998</ele>
        <time>2025-04-24T11:55:48Z</time>
      </trkpt>
      <trkpt lat="45.719170980155468" lon="4.47448899038136">
        <ele>512.03999999999996</ele>
        <time>2025-04-24T11:55:52Z</time>
      </trkpt>
      <trkpt lat="45.719051035121083" lon="4.474678002297878">
        <ele>511.56</ele>
        <time>2025-04-24T11:55:53Z</time>
      </trkpt>
      <trkpt lat="45.718327006325126" lon="4.47569296695292">
        <ele>510.60000000000002</ele>
        <time>2025-04-24T11:55:58Z</time>
      </trkpt>
      <trkpt lat="45.718194991350174" lon="4.475908968597651">
        <ele>510.12</ele>
        <time>2025-04-24T11:55:59Z</time>
      </trkpt>
      <trkpt lat="45.718087032437325" lon="4.476134022697806">
        <ele>509.16000000000003</ele>
        <time>2025-04-24T11:56:00Z</time>
      </trkpt>
      <trkpt lat="45.717987036332488" lon="4.476339966058731">
        <ele>508.67000000000002</ele>
        <time>2025-04-24T11:56:01Z</time>
      </trkpt>
      <trkpt lat="45.717910006642342" lon="4.476499976590276">
        <ele>508.19</ele>
        <time>2025-04-24T11:56:02Z</time>
      </trkpt>
      <trkpt lat="45.717803975567222" lon="4.476628974080086">
        <ele>507.70999999999998</ele>
        <time>2025-04-24T11:56:03Z</time>
      </trkpt>
      <trkpt lat="45.71771303191781" lon="4.476735005155206">
        <ele>506.75</ele>
        <time>2025-04-24T11:56:04Z</time>
      </trkpt>
      <trkpt lat="45.717616975307465" lon="4.476725030690432">
        <ele>506.26999999999998</ele>
        <time>2025-04-24T11:56:05Z</time>
      </trkpt>
      <trkpt lat="45.717514967545867" lon="4.476704997941852">
        <ele>505.31</ele>
        <time>2025-04-24T11:56:06Z</time>
      </trkpt>
      <trkpt lat="45.717415977269411" lon="4.476607013493776">
        <ele>504.35000000000002</ele>
        <time>2025-04-24T11:56:07Z</time>
      </trkpt>
      <trkpt lat="45.71732503362" lon="4.476453959941864">
        <ele>503.38999999999999</ele>
        <time>2025-04-24T11:56:08Z</time>
      </trkpt>
      <trkpt lat="45.717222020030022" lon="4.476281963288784">
        <ele>501.94999999999999</ele>
        <time>2025-04-24T11:56:09Z</time>
      </trkpt>
      <trkpt lat="45.716652972623706" lon="4.475286025553942">
        <ele>496.18000000000001</ele>
        <time>2025-04-24T11:56:14Z</time>
      </trkpt>
      <trkpt lat="45.716570997610688" lon="4.475036999210715">
        <ele>495.22000000000003</ele>
        <time>2025-04-24T11:56:15Z</time>
      </trkpt>
      <trkpt lat="45.716515006497502" lon="4.474785961210728">
        <ele>493.76999999999998</ele>
        <time>2025-04-24T11:56:16Z</time>
      </trkpt>
      <trkpt lat="45.716458009555936" lon="4.474532995373011">
        <ele>492.81</ele>
        <time>2025-04-24T11:56:17Z</time>
      </trkpt>
      <trkpt lat="45.71640201844275" lon="4.474281035363674">
        <ele>491.85000000000002</ele>
        <time>2025-04-24T11:56:18Z</time>
      </trkpt>
      <trkpt lat="45.716172019019723" lon="4.472786961123347">
        <ele>484.16000000000003</ele>
        <time>2025-04-24T11:56:25Z</time>
      </trkpt>
      <trkpt lat="45.716119967401028" lon="4.472623011097312">
        <ele>483.19999999999999</ele>
        <time>2025-04-24T11:56:26Z</time>
      </trkpt>
      <trkpt lat="45.716064982116222" lon="4.472443973645568">
        <ele>481.75999999999999</ele>
        <time>2025-04-24T11:56:27Z</time>
      </trkpt>
      <trkpt lat="45.715982001274824" lon="4.472293015569449">
        <ele>480.80000000000001</ele>
        <time>2025-04-24T11:56:28Z</time>
      </trkpt>
      <trkpt lat="45.715887034311891" lon="4.472120013087988">
        <ele>479.83999999999997</ele>
        <time>2025-04-24T11:56:29Z</time>
      </trkpt>
      <trkpt lat="45.714929988607764" lon="4.470466012135148">
        <ele>471.18000000000001</ele>
        <time>2025-04-24T11:56:38Z</time>
      </trkpt>
      <trkpt lat="45.714587001129985" lon="4.469958990812302">
        <ele>468.30000000000001</ele>
        <time>2025-04-24T11:56:41Z</time>
      </trkpt>
      <trkpt lat="45.714462026953697" lon="4.469811972230673">
        <ele>467.81999999999999</ele>
        <time>2025-04-24T11:56:42Z</time>
      </trkpt>
      <trkpt lat="45.714305033907294" lon="4.46965497918427">
        <ele>466.86000000000001</ele>
        <time>2025-04-24T11:56:43Z</time>
      </trkpt>
      <trkpt lat="45.714181987568736" lon="4.469547020271421">
        <ele>466.38</ele>
        <time>2025-04-24T11:56:44Z</time>
      </trkpt>
      <trkpt lat="45.714030023664236" lon="4.469424979761243">
        <ele>465.42000000000002</ele>
        <time>2025-04-24T11:56:45Z</time>
      </trkpt>
      <trkpt lat="45.712311984971166" lon="4.468089994043112">
        <ele>451.95999999999998</ele>
        <time>2025-04-24T11:56:57Z</time>
      </trkpt>
      <trkpt lat="45.711024021729827" lon="4.467323971912265">
        <ele>443.31</ele>
        <time>2025-04-24T11:57:06Z</time>
      </trkpt>
      <trkpt lat="45.710283983498812" lon="4.466956006363034">
        <ele>437.54000000000002</ele>
        <time>2025-04-24T11:57:13Z</time>
      </trkpt>
      <trkpt lat="45.710048032924533" lon="4.46698802523315">
        <ele>434.64999999999998</ele>
        <time>2025-04-24T11:57:18Z</time>
      </trkpt>
      <trkpt lat="45.709998998790979" lon="4.466880988329649">
        <ele>434.17000000000002</ele>
        <time>2025-04-24T11:57:19Z</time>
      </trkpt>
      <trkpt lat="45.709985001012683" lon="4.466833965852857">
        <ele>433.69</ele>
        <time>2025-04-24T11:57:20Z</time>
      </trkpt>
      <trkpt lat="45.709972009062767" lon="4.466790966689587">
        <ele>433.69</ele>
        <time>2025-04-24T11:57:21Z</time>
      </trkpt>
      <trkpt lat="45.709958011284471" lon="4.466743022203445">
        <ele>433.20999999999998</ele>
        <time>2025-04-24T11:57:22Z</time>
      </trkpt>
      <trkpt lat="45.709948958829045" lon="4.466715026646853">
        <ele>432.73000000000002</ele>
        <time>2025-04-24T11:57:23Z</time>
      </trkpt>
      <trkpt lat="45.709894979372621" lon="4.466671021655202">
        <ele>432.73000000000002</ele>
        <time>2025-04-24T11:57:24Z</time>
      </trkpt>
      <trkpt lat="45.709862960502505" lon="4.466645959764719">
        <ele>432.25</ele>
        <time>2025-04-24T11:57:25Z</time>
      </trkpt>
      <trkpt lat="45.709842005744576" lon="4.466629028320313">
        <ele>431.76999999999998</ele>
        <time>2025-04-24T11:57:26Z</time>
      </trkpt>
      <trkpt lat="45.70982800796628" lon="4.466648977249861">
        <ele>431.76999999999998</ele>
        <time>2025-04-24T11:57:27Z</time>
      </trkpt>
      <trkpt lat="45.709799006581306" lon="4.466692982241511">
        <ele>431.29000000000002</ele>
        <time>2025-04-24T11:57:28Z</time>
      </trkpt>
      <trkpt lat="45.70980504155159" lon="4.466765988618136">
        <ele>431.29000000000002</ele>
        <time>2025-04-24T11:57:29Z</time>
      </trkpt>
      <trkpt lat="45.709811998531222" lon="4.466850981116295">
        <ele>430.81</ele>
        <time>2025-04-24T11:57:30Z</time>
      </trkpt>
      <trkpt lat="45.709830019623041" lon="4.466973021626473">
        <ele>430.81</ele>
        <time>2025-04-24T11:57:31Z</time>
      </trkpt>
      <trkpt lat="45.709873018786311" lon="4.46707402355969">
        <ele>430.81</ele>
        <time>2025-04-24T11:57:32Z</time>
      </trkpt>
      <trkpt lat="45.709986006841063" lon="4.46712096221745">
        <ele>430.32999999999998</ele>
        <time>2025-04-24T11:57:33Z</time>
      </trkpt>
      <trkpt lat="45.710125984624028" lon="4.467303017154336">
        <ele>429.37</ele>
        <time>2025-04-24T11:57:35Z</time>
      </trkpt>
      <trkpt lat="45.710378028452396" lon="4.467770978808403">
        <ele>427.44</ele>
        <time>2025-04-24T11:57:39Z</time>
      </trkpt>
      <trkpt lat="45.710556982085109" lon="4.468141039833427">
        <ele>426.48000000000002</ele>
        <time>2025-04-24T11:57:42Z</time>
      </trkpt>
      <trkpt lat="45.710695032030344" lon="4.468534989282489">
        <ele>426</ele>
        <time>2025-04-24T11:57:45Z</time>
      </trkpt>
      <trkpt lat="45.711249997839332" lon="4.470138028264046">
        <ele>424.56</ele>
        <time>2025-04-24T11:57:56Z</time>
      </trkpt>
      <trkpt lat="45.712173013016582" lon="4.472613036632538">
        <ele>425.04000000000002</ele>
        <time>2025-04-24T11:58:13Z</time>
      </trkpt>
      <trkpt lat="45.712202014401555" lon="4.472696017473936">
        <ele>425.04000000000002</ele>
        <time>2025-04-24T11:58:14Z</time>
      </trkpt>
      <trkpt lat="45.712226992473006" lon="4.472762988880277">
        <ele>425.51999999999998</ele>
        <time>2025-04-24T11:58:15Z</time>
      </trkpt>
      <trkpt lat="45.712175024673343" lon="4.472907995805144">
        <ele>425.51999999999998</ele>
        <time>2025-04-24T11:58:16Z</time>
      </trkpt>
      <trkpt lat="45.712117021903396" lon="4.472930962219834">
        <ele>426</ele>
        <time>2025-04-24T11:58:17Z</time>
      </trkpt>
      <trkpt lat="45.712039992213249" lon="4.472959963604808">
        <ele>426</ele>
        <time>2025-04-24T11:58:18Z</time>
      </trkpt>
      <trkpt lat="45.71195600554347" lon="4.472987959161401">
        <ele>426</ele>
        <time>2025-04-24T11:58:19Z</time>
      </trkpt>
      <trkpt lat="45.711867995560169" lon="4.473008997738361">
        <ele>426</ele>
        <time>2025-04-24T11:58:20Z</time>
      </trkpt>
      <trkpt lat="45.711061991751194" lon="4.473043028265238">
        <ele>424.56</ele>
        <time>2025-04-24T11:58:28Z</time>
      </trkpt>
      <trkpt lat="45.710886977612972" lon="4.472944037988782">
        <ele>424.07999999999998</ele>
        <time>2025-04-24T11:58:30Z</time>
      </trkpt>
      <trkpt lat="45.710813971236348" lon="4.47287698276341">
        <ele>424.56</ele>
        <time>2025-04-24T11:58:31Z</time>
      </trkpt>
      <trkpt lat="45.710248025134206" lon="4.472273988649249">
        <ele>426</ele>
        <time>2025-04-24T11:58:40Z</time>
      </trkpt>
      <trkpt lat="45.709819961339235" lon="4.47177903726697">
        <ele>429.37</ele>
        <time>2025-04-24T11:58:48Z</time>
      </trkpt>
      <trkpt lat="45.709778973832726" lon="4.471723968163133">
        <ele>429.85000000000002</ele>
        <time>2025-04-24T11:58:49Z</time>
      </trkpt>
      <trkpt lat="45.709756007418036" lon="4.47169303894043">
        <ele>429.85000000000002</ele>
        <time>2025-04-24T11:58:50Z</time>
      </trkpt>
      <trkpt lat="45.709791965782642" lon="4.471620032563806">
        <ele>430.32999999999998</ele>
        <time>2025-04-24T11:58:51Z</time>
      </trkpt>
      <trkpt lat="45.709829013794661" lon="4.471530010923743">
        <ele>430.32999999999998</ele>
        <time>2025-04-24T11:58:52Z</time>
      </trkpt>
      <trkpt lat="45.709820967167616" lon="4.471405958756805">
        <ele>430.32999999999998</ele>
        <time>2025-04-24T11:58:53Z</time>
      </trkpt>
      <trkpt lat="45.709790037944913" lon="4.471301017329097">
        <ele>430.81</ele>
        <time>2025-04-24T11:58:54Z</time>
      </trkpt>
      <trkpt lat="45.709757013246417" lon="4.471189035102725">
        <ele>430.81</ele>
        <time>2025-04-24T11:58:55Z</time>
      </trkpt>
      <trkpt lat="45.709680989384651" lon="4.470853004604578">
        <ele>430.81</ele>
        <time>2025-04-24T11:58:58Z</time>
      </trkpt>
      <trkpt lat="45.709671014919877" lon="4.470760971307755">
        <ele>431.29000000000002</ele>
        <time>2025-04-24T11:58:59Z</time>
      </trkpt>
      <trkpt lat="45.709670009091496" lon="4.470748985186219">
        <ele>431.29000000000002</ele>
        <time>2025-04-24T11:59:00Z</time>
      </trkpt>
      <trkpt lat="45.709747960790992" lon="4.470656029880047">
        <ele>430.81</ele>
        <time>2025-04-24T11:59:01Z</time>
      </trkpt>
      <trkpt lat="45.709803029894829" lon="4.470588974654675">
        <ele>430.81</ele>
        <time>2025-04-24T11:59:02Z</time>
      </trkpt>
      <trkpt lat="45.709885004907846" lon="4.470490990206599">
        <ele>430.81</ele>
        <time>2025-04-24T11:59:03Z</time>
      </trkpt>
      <trkpt lat="45.709948036819696" lon="4.470457965508103">
        <ele>430.32999999999998</ele>
        <time>2025-04-24T11:59:04Z</time>
      </trkpt>
      <trkpt lat="45.710232015699148" lon="4.470308013260365">
        <ele>428.88999999999999</ele>
        <time>2025-04-24T11:59:08Z</time>
      </trkpt>
      <trkpt lat="45.710264034569263" lon="4.470226960256696">
        <ele>428.39999999999998</ele>
        <time>2025-04-24T11:59:09Z</time>
      </trkpt>
      <trkpt lat="45.710265962406993" lon="4.470135010778904">
        <ele>427.92000000000002</ele>
        <time>2025-04-24T11:59:10Z</time>
      </trkpt>
      <trkpt lat="45.71025799959898" lon="4.470038032159209">
        <ele>427.44</ele>
        <time>2025-04-24T11:59:11Z</time>
      </trkpt>
      <trkpt lat="45.710247019305825" lon="4.469927977770567">
        <ele>427.44</ele>
        <time>2025-04-24T11:59:12Z</time>
      </trkpt>
      <trkpt lat="45.710212988778949" lon="4.469841979444027">
        <ele>426.95999999999998</ele>
        <time>2025-04-24T11:59:13Z</time>
      </trkpt>
      <trkpt lat="45.710146017372608" lon="4.469775008037686">
        <ele>426.48000000000002</ele>
        <time>2025-04-24T11:59:14Z</time>
      </trkpt>
      <trkpt lat="45.710076028481126" lon="4.469717005267739">
        <ele>426.48000000000002</ele>
        <time>2025-04-24T11:59:15Z</time>
      </trkpt>
      <trkpt lat="45.709476973861456" lon="4.46931098587811">
        <ele>428.88999999999999</ele>
        <time>2025-04-24T11:59:25Z</time>
      </trkpt>
      <trkpt lat="45.709476973861456" lon="4.46931098587811">
        <ele>429.85000000000002</ele>
        <time>2025-04-24T11:59:31Z</time>
      </trkpt>
      <trkpt lat="45.709373960271478" lon="4.469260023906827">
        <ele>430.32999999999998</ele>
        <time>2025-04-24T11:59:32Z</time>
      </trkpt>
      <trkpt lat="45.709361974149942" lon="4.469311991706491">
        <ele>431.29000000000002</ele>
        <time>2025-04-24T11:59:33Z</time>
      </trkpt>
      <trkpt lat="45.709344036877155" lon="4.469390027225018">
        <ele>431.76999999999998</ele>
        <time>2025-04-24T11:59:34Z</time>
      </trkpt>
      <trkpt lat="45.709324004128575" lon="4.469479965046048">
        <ele>432.25</ele>
        <time>2025-04-24T11:59:35Z</time>
      </trkpt>
      <trkpt lat="45.709301959723234" lon="4.469577027484775">
        <ele>432.73000000000002</ele>
        <time>2025-04-24T11:59:36Z</time>
      </trkpt>
      <trkpt lat="45.709186038002372" lon="4.470093017444015">
        <ele>434.64999999999998</ele>
        <time>2025-04-24T11:59:41Z</time>
      </trkpt>
      <trkpt lat="45.709139015525579" lon="4.47029996663332">
        <ele>435.13</ele>
        <time>2025-04-24T11:59:43Z</time>
      </trkpt>
      <trkpt lat="45.709115965291858" lon="4.470401974394918">
        <ele>435.13</ele>
        <time>2025-04-24T11:59:44Z</time>
      </trkpt>
      <trkpt lat="45.708983028307557" lon="4.4710280187428">
        <ele>437.06</ele>
        <time>2025-04-24T11:59:51Z</time>
      </trkpt>
      <trkpt lat="45.708910021930933" lon="4.471000023186207">
        <ele>437.06</ele>
        <time>2025-04-24T11:59:52Z</time>
      </trkpt>
      <trkpt lat="45.708859981968999" lon="4.470982002094388">
        <ele>437.54000000000002</ele>
        <time>2025-04-24T11:59:53Z</time>
      </trkpt>
      <trkpt lat="45.708812037482858" lon="4.470963981002569">
        <ele>437.54000000000002</ele>
        <time>2025-04-24T11:59:54Z</time>
      </trkpt>
      <trkpt lat="45.708747999742627" lon="4.470951994881034">
        <ele>438.01999999999998</ele>
        <time>2025-04-24T11:59:55Z</time>
      </trkpt>
      <trkpt lat="45.708683039993048" lon="4.470939002931118">
        <ele>438.01999999999998</ele>
        <time>2025-04-24T11:59:56Z</time>
      </trkpt>
      <trkpt lat="45.708611961454153" lon="4.470926010981202">
        <ele>438.01999999999998</ele>
        <time>2025-04-24T11:59:57Z</time>
      </trkpt>
      <trkpt lat="45.708311973139644" lon="4.470838000997901">
        <ele>438.5</ele>
        <time>2025-04-24T12:00:01Z</time>
      </trkpt>
      <trkpt lat="45.708267968147993" lon="4.470912013202906">
        <ele>438.98000000000002</ele>
        <time>2025-04-24T12:00:02Z</time>
      </trkpt>
      <trkpt lat="45.70821700617671" lon="4.470995999872685">
        <ele>439.45999999999998</ele>
        <time>2025-04-24T12:00:03Z</time>
      </trkpt>
      <trkpt lat="45.707982983440161" lon="4.471195992082357">
        <ele>440.42000000000002</ele>
        <time>2025-04-24T12:00:06Z</time>
      </trkpt>
      <trkpt lat="45.70789597928524" lon="4.471238991245627">
        <ele>440.89999999999998</ele>
        <time>2025-04-24T12:00:07Z</time>
      </trkpt>
      <trkpt lat="45.707274964079261" lon="4.471535962074995">
        <ele>443.31</ele>
        <time>2025-04-24T12:00:14Z</time>
      </trkpt>
      <trkpt lat="45.707182008773088" lon="4.471578961238265">
        <ele>444.26999999999998</ele>
        <time>2025-04-24T12:00:15Z</time>
      </trkpt>
      <trkpt lat="45.707089975476265" lon="4.471621960401535">
        <ele>444.75</ele>
        <time>2025-04-24T12:00:16Z</time>
      </trkpt>
      <trkpt lat="45.707003977149725" lon="4.471672000363469">
        <ele>444.75</ele>
        <time>2025-04-24T12:00:17Z</time>
      </trkpt>
      <trkpt lat="45.706923007965088" lon="4.47173897176981">
        <ele>445.23000000000002</ele>
        <time>2025-04-24T12:00:18Z</time>
      </trkpt>
      <trkpt lat="45.706689991056919" lon="4.47193100117147">
        <ele>445.70999999999998</ele>
        <time>2025-04-24T12:00:21Z</time>
      </trkpt>
      <trkpt lat="45.706650009378791" lon="4.471998978406191">
        <ele>445.70999999999998</ele>
        <time>2025-04-24T12:00:22Z</time>
      </trkpt>
      <trkpt lat="45.706616984680295" lon="4.472098974511027">
        <ele>445.70999999999998</ele>
        <time>2025-04-24T12:00:23Z</time>
      </trkpt>
      <trkpt lat="45.706572979688644" lon="4.472229983657599">
        <ele>447.63</ele>
        <time>2025-04-24T12:00:28Z</time>
      </trkpt>
      <trkpt lat="45.706601981073618" lon="4.472400974482298">
        <ele>448.11000000000001</ele>
        <time>2025-04-24T12:00:37Z</time>
      </trkpt>
      <trkpt lat="45.706609021872282" lon="4.472413966432214">
        <ele>447.63</ele>
        <time>2025-04-24T12:00:38Z</time>
      </trkpt>
      <trkpt lat="45.706660989671946" lon="4.472497031092644">
        <ele>448.11000000000001</ele>
        <time>2025-04-24T12:00:39Z</time>
      </trkpt>
      <trkpt lat="45.7069690246135" lon="4.473025007173419">
        <ele>448.11000000000001</ele>
        <time>2025-04-24T12:00:44Z</time>
      </trkpt>
      <trkpt lat="45.707009006291628" lon="4.473136989399791">
        <ele>448.11000000000001</ele>
        <time>2025-04-24T12:00:45Z</time>
      </trkpt>
      <trkpt lat="45.707046976312995" lon="4.473243020474911">
        <ele>448.11000000000001</ele>
        <time>2025-04-24T12:00:46Z</time>
      </trkpt>
      <trkpt lat="45.707146972417831" lon="4.473531022667885">
        <ele>448.11000000000001</ele>
        <time>2025-04-24T12:00:49Z</time>
      </trkpt>
      <trkpt lat="45.707169016823173" lon="4.473623977974057">
        <ele>448.58999999999997</ele>
        <time>2025-04-24T12:00:50Z</time>
      </trkpt>
      <trkpt lat="45.707588028162718" lon="4.474653024226427">
        <ele>449.55000000000001</ele>
        <time>2025-04-24T12:01:02Z</time>
      </trkpt>
      <trkpt lat="45.707893967628479" lon="4.475184017792344">
        <ele>450.51999999999998</ele>
        <time>2025-04-24T12:01:08Z</time>
      </trkpt>
      <trkpt lat="45.707867983728647" lon="4.475341010838747">
        <ele>450.51999999999998</ele>
        <time>2025-04-24T12:01:09Z</time>
      </trkpt>
      <trkpt lat="45.707931015640497" lon="4.475594982504845">
        <ele>450.02999999999997</ele>
        <time>2025-04-24T12:01:12Z</time>
      </trkpt>
      <trkpt lat="45.707911988720298" lon="4.475686009973288">
        <ele>450.02999999999997</ele>
        <time>2025-04-24T12:01:13Z</time>
      </trkpt>
      <trkpt lat="45.70789203979075" lon="4.475780976936221">
        <ele>450.02999999999997</ele>
        <time>2025-04-24T12:01:14Z</time>
      </trkpt>
      <trkpt lat="45.707642007619143" lon="4.476951006799936">
        <ele>452.44</ele>
        <time>2025-04-24T12:01:25Z</time>
      </trkpt>
      <trkpt lat="45.707604037597775" lon="4.477123003453016">
        <ele>453.88</ele>
        <time>2025-04-24T12:01:27Z</time>
      </trkpt>
      <trkpt lat="45.707585010677576" lon="4.477210007607937">
        <ele>454.36000000000001</ele>
        <time>2025-04-24T12:01:28Z</time>
      </trkpt>
      <trkpt lat="45.707564977928996" lon="4.477302962914109">
        <ele>454.83999999999997</ele>
        <time>2025-04-24T12:01:29Z</time>
      </trkpt>
      <trkpt lat="45.707363979890943" lon="4.478168981149793">
        <ele>457.24000000000001</ele>
        <time>2025-04-24T12:01:37Z</time>
      </trkpt>
      <trkpt lat="45.707171028479934" lon="4.47895897552371">
        <ele>458.69</ele>
        <time>2025-04-24T12:01:47Z</time>
      </trkpt>
      <trkpt lat="45.707171028479934" lon="4.47895897552371">
        <ele>459.17000000000002</ele>
        <time>2025-04-24T12:01:59Z</time>
      </trkpt>
      <trkpt lat="45.707171028479934" lon="4.47895897552371">
        <ele>459.17000000000002</ele>
        <time>2025-04-24T12:02:52Z</time>
      </trkpt>
      <trkpt lat="45.707165999338031" lon="4.478982025757432">
        <ele>459.64999999999998</ele>
        <time>2025-04-24T12:02:58Z</time>
      </trkpt>
      <trkpt lat="45.70716398768127" lon="4.478993006050587">
        <ele>459.64999999999998</ele>
        <time>2025-04-24T12:02:59Z</time>
      </trkpt>
      <trkpt lat="45.707165999338031" lon="4.478984959423542">
        <ele>459.64999999999998</ele>
        <time>2025-04-24T12:03:00Z</time>
      </trkpt>
      <trkpt lat="45.707171028479934" lon="4.47895796969533">
        <ele>459.17000000000002</ele>
        <time>2025-04-24T12:03:01Z</time>
      </trkpt>
      <trkpt lat="45.707179997116327" lon="4.478910025209189">
        <ele>459.17000000000002</ele>
        <time>2025-04-24T12:03:02Z</time>
      </trkpt>
      <trkpt lat="45.707197012379766" lon="4.478840958327055">
        <ele>458.69</ele>
        <time>2025-04-24T12:03:03Z</time>
      </trkpt>
      <trkpt lat="45.707216039299965" lon="4.478762000799179">
        <ele>458.69</ele>
        <time>2025-04-24T12:03:04Z</time>
      </trkpt>
      <trkpt lat="45.707471016794443" lon="4.477744018658996">
        <ele>454.36000000000001</ele>
        <time>2025-04-24T12:03:14Z</time>
      </trkpt>
      <trkpt lat="45.707589033991098" lon="4.47719500400126">
        <ele>452.44</ele>
        <time>2025-04-24T12:03:19Z</time>
      </trkpt>
      <trkpt lat="45.707689030095935" lon="4.476731987670064">
        <ele>452.44</ele>
        <time>2025-04-24T12:03:23Z</time>
      </trkpt>
      <trkpt lat="45.707939984276891" lon="4.475553994998336">
        <ele>449.55000000000001</ele>
        <time>2025-04-24T12:03:33Z</time>
      </trkpt>
      <trkpt lat="45.708038974553347" lon="4.475490963086486">
        <ele>449.06999999999999</ele>
        <time>2025-04-24T12:03:34Z</time>
      </trkpt>
      <trkpt lat="45.708061018958688" lon="4.475414017215371">
        <ele>448.58999999999997</ele>
        <time>2025-04-24T12:03:35Z</time>
      </trkpt>
      <trkpt lat="45.708079040050507" lon="4.475332964211702">
        <ele>448.58999999999997</ele>
        <time>2025-04-24T12:03:36Z</time>
      </trkpt>
      <trkpt lat="45.708056995645165" lon="4.475263981148601">
        <ele>448.11000000000001</ele>
        <time>2025-04-24T12:03:37Z</time>
      </trkpt>
      <trkpt lat="45.708025982603431" lon="4.475212013348937">
        <ele>447.63</ele>
        <time>2025-04-24T12:03:38Z</time>
      </trkpt>
      <trkpt lat="45.707972003147006" lon="4.475212013348937">
        <ele>447.63</ele>
        <time>2025-04-24T12:03:39Z</time>
      </trkpt>
      <trkpt lat="45.707877958193421" lon="4.475157028064132">
        <ele>447.63</ele>
        <time>2025-04-24T12:03:40Z</time>
      </trkpt>
      <trkpt lat="45.707828002050519" lon="4.475071029737592">
        <ele>447.14999999999998</ele>
        <time>2025-04-24T12:03:41Z</time>
      </trkpt>
      <trkpt lat="45.707773016765714" lon="4.474977990612388">
        <ele>447.14999999999998</ele>
        <time>2025-04-24T12:03:42Z</time>
      </trkpt>
      <trkpt lat="45.707714008167386" lon="4.474879000335932">
        <ele>447.14999999999998</ele>
        <time>2025-04-24T12:03:43Z</time>
      </trkpt>
      <trkpt lat="45.707653993740678" lon="4.474771963432431">
        <ele>446.67000000000002</ele>
        <time>2025-04-24T12:03:44Z</time>
      </trkpt>
      <trkpt lat="45.707259038463235" lon="4.473976017907262">
        <ele>443.79000000000002</ele>
        <time>2025-04-24T12:03:51Z</time>
      </trkpt>
      <trkpt lat="45.707220984622836" lon="4.473845008760691">
        <ele>443.31</ele>
        <time>2025-04-24T12:03:52Z</time>
      </trkpt>
      <trkpt lat="45.707188965752721" lon="4.473710982128978">
        <ele>442.81999999999999</ele>
        <time>2025-04-24T12:03:53Z</time>
      </trkpt>
      <trkpt lat="45.707008000463247" lon="4.47313497774303">
        <ele>443.31</ele>
        <time>2025-04-24T12:03:58Z</time>
      </trkpt>
      <trkpt lat="45.706804990768433" lon="4.472731975838542">
        <ele>443.79000000000002</ele>
        <time>2025-04-24T12:04:02Z</time>
      </trkpt>
      <trkpt lat="45.706680016592145" lon="4.472527960315347">
        <ele>443.79000000000002</ele>
        <time>2025-04-24T12:04:04Z</time>
      </trkpt>
      <trkpt lat="45.706611033529043" lon="4.472416983917356">
        <ele>443.79000000000002</ele>
        <time>2025-04-24T12:04:05Z</time>
      </trkpt>
      <trkpt lat="45.706442976370454" lon="4.472260996699333">
        <ele>443.79000000000002</ele>
        <time>2025-04-24T12:04:07Z</time>
      </trkpt>
      <trkpt lat="45.706354966387153" lon="4.47218899615109">
        <ele>443.79000000000002</ele>
        <time>2025-04-24T12:04:08Z</time>
      </trkpt>
      <trkpt lat="45.70551099255681" lon="4.471623972058296">
        <ele>441.38</ele>
        <time>2025-04-24T12:04:19Z</time>
      </trkpt>
      <trkpt lat="45.70488603785634" lon="4.471083004027605">
        <ele>439.45999999999998</ele>
        <time>2025-04-24T12:04:32Z</time>
      </trkpt>
      <trkpt lat="45.70479903370142" lon="4.470920981839299">
        <ele>439.45999999999998</ele>
        <time>2025-04-24T12:04:36Z</time>
      </trkpt>
      <trkpt lat="45.704714963212609" lon="4.470920981839299">
        <ele>438.98000000000002</ele>
        <time>2025-04-24T12:04:37Z</time>
      </trkpt>
      <trkpt lat="45.704656038433313" lon="4.470920981839299">
        <ele>438.98000000000002</ele>
        <time>2025-04-24T12:04:38Z</time>
      </trkpt>
      <trkpt lat="45.704528968781233" lon="4.470920981839299">
        <ele>438.5</ele>
        <time>2025-04-24T12:04:40Z</time>
      </trkpt>
      <trkpt lat="45.704461997374892" lon="4.470896003767848">
        <ele>438.01999999999998</ele>
        <time>2025-04-24T12:04:41Z</time>
      </trkpt>
      <trkpt lat="45.704407012090087" lon="4.470858033746481">
        <ele>438.01999999999998</ele>
        <time>2025-04-24T12:04:42Z</time>
      </trkpt>
      <trkpt lat="45.704301986843348" lon="4.470786033198237">
        <ele>438.01999999999998</ele>
        <time>2025-04-24T12:04:44Z</time>
      </trkpt>
      <trkpt lat="45.703782979398966" lon="4.470436004921794">
        <ele>437.54000000000002</ele>
        <time>2025-04-24T12:04:53Z</time>
      </trkpt>
      <trkpt lat="45.703189037740231" lon="4.470037026330829">
        <ele>438.01999999999998</ele>
        <time>2025-04-24T12:05:02Z</time>
      </trkpt>
      <trkpt lat="45.702471965923905" lon="4.469565041363239">
        <ele>438.5</ele>
        <time>2025-04-24T12:05:12Z</time>
      </trkpt>
      <trkpt lat="45.701691024005413" lon="4.469034969806671">
        <ele>436.10000000000002</ele>
        <time>2025-04-24T12:05:23Z</time>
      </trkpt>
      <trkpt lat="45.701609971001744" lon="4.469004962593317">
        <ele>436.10000000000002</ele>
        <time>2025-04-24T12:05:24Z</time>
      </trkpt>
      <trkpt lat="45.701522966846824" lon="4.468975039198995">
        <ele>436.10000000000002</ele>
        <time>2025-04-24T12:05:25Z</time>
      </trkpt>
      <trkpt lat="45.701423976570368" lon="4.468940002843738">
        <ele>436.10000000000002</ele>
        <time>2025-04-24T12:05:26Z</time>
      </trkpt>
      <trkpt lat="45.701304031535983" lon="4.468898009508848">
        <ele>436.57999999999998</ele>
        <time>2025-04-24T12:05:27Z</time>
      </trkpt>
      <trkpt lat="45.700178006663918" lon="4.468799019232392">
        <ele>440.89999999999998</ele>
        <time>2025-04-24T12:05:34Z</time>
      </trkpt>
      <trkpt lat="45.698598017916083" lon="4.468582011759281">
        <ele>447.14999999999998</ele>
        <time>2025-04-24T12:05:43Z</time>
      </trkpt>
      <trkpt lat="45.698456028476357" lon="4.468483021482825">
        <ele>447.63</ele>
        <time>2025-04-24T12:05:44Z</time>
      </trkpt>
      <trkpt lat="45.698301969096065" lon="4.468369027599692">
        <ele>448.58999999999997</ele>
        <time>2025-04-24T12:05:45Z</time>
      </trkpt>
      <trkpt lat="45.698166014626622" lon="4.468210022896528">
        <ele>449.55000000000001</ele>
        <time>2025-04-24T12:05:46Z</time>
      </trkpt>
      <trkpt lat="45.698036011308432" lon="4.468039032071829">
        <ele>450.51999999999998</ele>
        <time>2025-04-24T12:05:47Z</time>
      </trkpt>
      <trkpt lat="45.697931991890073" lon="4.467836022377014">
        <ele>451</ele>
        <time>2025-04-24T12:05:48Z</time>
      </trkpt>
      <trkpt lat="45.697828978300095" lon="4.467636030167341">
        <ele>451.95999999999998</ele>
        <time>2025-04-24T12:05:49Z</time>
      </trkpt>
      <trkpt lat="45.697730993852019" lon="4.467444000765681">
        <ele>452.44</ele>
        <time>2025-04-24T12:05:50Z</time>
      </trkpt>
      <trkpt lat="45.697630997747183" lon="4.46726898662746">
        <ele>453.39999999999998</ele>
        <time>2025-04-24T12:05:51Z</time>
      </trkpt>
      <trkpt lat="45.697507029399276" lon="4.467129008844495">
        <ele>453.88</ele>
        <time>2025-04-24T12:05:52Z</time>
      </trkpt>
      <trkpt lat="45.69736797362566" lon="4.46701199747622">
        <ele>454.83999999999997</ele>
        <time>2025-04-24T12:05:53Z</time>
      </trkpt>
      <trkpt lat="45.697223972529173" lon="4.466900015249848">
        <ele>455.80000000000001</ele>
        <time>2025-04-24T12:05:54Z</time>
      </trkpt>
      <trkpt lat="45.696312021464109" lon="4.466271959245205">
        <ele>460.61000000000001</ele>
        <time>2025-04-24T12:06:00Z</time>
      </trkpt>
      <trkpt lat="45.696152010932565" lon="4.466210016980767">
        <ele>461.08999999999997</ele>
        <time>2025-04-24T12:06:01Z</time>
      </trkpt>
      <trkpt lat="45.695984037593007" lon="4.466180009767413">
        <ele>462.05000000000001</ele>
        <time>2025-04-24T12:06:02Z</time>
      </trkpt>
      <trkpt lat="45.695662004873157" lon="4.466122006997466">
        <ele>463.00999999999999</ele>
        <time>2025-04-24T12:06:04Z</time>
      </trkpt>
      <trkpt lat="45.695539964362979" lon="4.466030979529023">
        <ele>463.97000000000003</ele>
        <time>2025-04-24T12:06:05Z</time>
      </trkpt>
      <trkpt lat="45.695435022935271" lon="4.465917991474271">
        <ele>464.44999999999999</ele>
        <time>2025-04-24T12:06:06Z</time>
      </trkpt>
      <trkpt lat="45.695360004901886" lon="4.465782959014177">
        <ele>464.93000000000001</ele>
        <time>2025-04-24T12:06:07Z</time>
      </trkpt>
      <trkpt lat="45.695308959111571" lon="4.465594030916691">
        <ele>465.42000000000002</ele>
        <time>2025-04-24T12:06:08Z</time>
      </trkpt>
      <trkpt lat="45.695255985483527" lon="4.465394038707018">
        <ele>465.89999999999998</ele>
        <time>2025-04-24T12:06:09Z</time>
      </trkpt>
      <trkpt lat="45.695194965228438" lon="4.465187005698681">
        <ele>466.38</ele>
        <time>2025-04-24T12:06:10Z</time>
      </trkpt>
      <trkpt lat="45.695101004093885" lon="4.465010985732079">
        <ele>466.38</ele>
        <time>2025-04-24T12:06:11Z</time>
      </trkpt>
      <trkpt lat="45.694987010210752" lon="4.464848963543773">
        <ele>466.86000000000001</ele>
        <time>2025-04-24T12:06:12Z</time>
      </trkpt>
      <trkpt lat="45.69485298357904" lon="4.464709991589189">
        <ele>467.33999999999997</ele>
        <time>2025-04-24T12:06:13Z</time>
      </trkpt>
      <trkpt lat="45.694709988310933" lon="4.464569007977843">
        <ele>467.33999999999997</ele>
        <time>2025-04-24T12:06:14Z</time>
      </trkpt>
      <trkpt lat="45.693147014826536" lon="4.463131008669734">
        <ele>471.66000000000003</ele>
        <time>2025-04-24T12:06:24Z</time>
      </trkpt>
      <trkpt lat="45.692864041775465" lon="4.462936967611313">
        <ele>472.63</ele>
        <time>2025-04-24T12:06:26Z</time>
      </trkpt>
      <trkpt lat="45.692773014307022" lon="4.462837977334857">
        <ele>472.63</ele>
        <time>2025-04-24T12:06:27Z</time>
      </trkpt>
      <trkpt lat="45.692696990445256" lon="4.462702022865415">
        <ele>472.63</ele>
        <time>2025-04-24T12:06:28Z</time>
      </trkpt>
      <trkpt lat="45.692676035687327" lon="4.462574031203985">
        <ele>473.11000000000001</ele>
        <time>2025-04-24T12:06:29Z</time>
      </trkpt>
      <trkpt lat="45.692710988223553" lon="4.462469005957246">
        <ele>473.11000000000001</ele>
        <time>2025-04-24T12:06:30Z</time>
      </trkpt>
      <trkpt lat="45.692781982943416" lon="4.462344031780958">
        <ele>473.11000000000001</ele>
        <time>2025-04-24T12:06:31Z</time>
      </trkpt>
      <trkpt lat="45.692884996533394" lon="4.462255015969276">
        <ele>473.11000000000001</ele>
        <time>2025-04-24T12:06:32Z</time>
      </trkpt>
      <trkpt lat="45.692995972931385" lon="4.462158959358931">
        <ele>473.11000000000001</ele>
        <time>2025-04-24T12:06:33Z</time>
      </trkpt>
      <trkpt lat="45.693079037591815" lon="4.462043959647417">
        <ele>473.11000000000001</ele>
        <time>2025-04-24T12:06:34Z</time>
      </trkpt>
      <trkpt lat="45.693125976249576" lon="4.461886966601014">
        <ele>473.58999999999997</ele>
        <time>2025-04-24T12:06:35Z</time>
      </trkpt>
      <trkpt lat="45.693080965429544" lon="4.461752017959952">
        <ele>473.58999999999997</ele>
        <time>2025-04-24T12:06:36Z</time>
      </trkpt>
      <trkpt lat="45.693014999851584" lon="4.461608016863465">
        <ele>474.06999999999999</ele>
        <time>2025-04-24T12:06:37Z</time>
      </trkpt>
      <trkpt lat="45.692895976826549" lon="4.461509026587009">
        <ele>474.06999999999999</ele>
        <time>2025-04-24T12:06:38Z</time>
      </trkpt>
      <trkpt lat="45.692761028185487" lon="4.461396960541606">
        <ele>474.06999999999999</ele>
        <time>2025-04-24T12:06:39Z</time>
      </trkpt>
      <trkpt lat="45.692615015432239" lon="4.461277015507221">
        <ele>474.55000000000001</ele>
        <time>2025-04-24T12:06:40Z</time>
      </trkpt>
      <trkpt lat="45.692476965487003" lon="4.461131002753973">
        <ele>475.02999999999997</ele>
        <time>2025-04-24T12:06:41Z</time>
      </trkpt>
      <trkpt lat="45.692343022674322" lon="4.460956994444132">
        <ele>475.02999999999997</ele>
        <time>2025-04-24T12:06:42Z</time>
      </trkpt>
      <trkpt lat="45.692220982164145" lon="4.460760019719601">
        <ele>475.50999999999999</ele>
        <time>2025-04-24T12:06:43Z</time>
      </trkpt>
      <trkpt lat="45.692095002159476" lon="4.460553992539644">
        <ele>475.50999999999999</ele>
        <time>2025-04-24T12:06:44Z</time>
      </trkpt>
      <trkpt lat="45.691618993878365" lon="4.459722004830837">
        <ele>478.38999999999999</ele>
        <time>2025-04-24T12:06:48Z</time>
      </trkpt>
      <trkpt lat="45.691513968631625" lon="4.459537016227841">
        <ele>478.87</ele>
        <time>2025-04-24T12:06:49Z</time>
      </trkpt>
      <trkpt lat="45.691379019990563" lon="4.459388991817832">
        <ele>479.83999999999997</ele>
        <time>2025-04-24T12:06:50Z</time>
      </trkpt>
      <trkpt lat="45.690881973132491" lon="4.458908960223198">
        <ele>484.16000000000003</ele>
        <time>2025-04-24T12:06:54Z</time>
      </trkpt>
      <trkpt lat="45.690763033926487" lon="4.458808964118362">
        <ele>486.07999999999998</ele>
        <time>2025-04-24T12:06:55Z</time>
      </trkpt>
      <trkpt lat="45.690640993416309" lon="4.458713997155428">
        <ele>487.05000000000001</ele>
        <time>2025-04-24T12:06:56Z</time>
      </trkpt>
      <trkpt lat="45.690511995926499" lon="4.45865398272872">
        <ele>488.49000000000001</ele>
        <time>2025-04-24T12:06:57Z</time>
      </trkpt>
      <trkpt lat="45.690366989001632" lon="4.45861198939383">
        <ele>489.44999999999999</ele>
        <time>2025-04-24T12:06:58Z</time>
      </trkpt>
      <trkpt lat="45.690220976248384" lon="4.458645014092326">
        <ele>490.41000000000003</ele>
        <time>2025-04-24T12:06:59Z</time>
      </trkpt>
      <trkpt lat="45.690065994858742" lon="4.458680972456932">
        <ele>491.37</ele>
        <time>2025-04-24T12:07:00Z</time>
      </trkpt>
      <trkpt lat="45.688880039379001" lon="4.458967968821526">
        <ele>496.18000000000001</ele>
        <time>2025-04-24T12:07:07Z</time>
      </trkpt>
      <trkpt lat="45.688739977777004" lon="4.459029994904995">
        <ele>496.66000000000003</ele>
        <time>2025-04-24T12:07:08Z</time>
      </trkpt>
      <trkpt lat="45.688595976680517" lon="4.459095038473606">
        <ele>497.13999999999999</ele>
        <time>2025-04-24T12:07:09Z</time>
      </trkpt>
      <trkpt lat="45.688455998897552" lon="4.459157986566424">
        <ele>497.62</ele>
        <time>2025-04-24T12:07:10Z</time>
      </trkpt>
      <trkpt lat="45.688330018892884" lon="4.45921397767961">
        <ele>498.10000000000002</ele>
        <time>2025-04-24T12:07:11Z</time>
      </trkpt>
      <trkpt lat="45.688204038888216" lon="4.459222024306655">
        <ele>498.10000000000002</ele>
        <time>2025-04-24T12:07:12Z</time>
      </trkpt>
      <trkpt lat="45.6880840100348" lon="4.459162009879947">
        <ele>498.57999999999998</ele>
        <time>2025-04-24T12:07:13Z</time>
      </trkpt>
      <trkpt lat="45.688034975901246" lon="4.459065031260252">
        <ele>499.06</ele>
        <time>2025-04-24T12:07:14Z</time>
      </trkpt>
      <trkpt lat="45.68799801170826" lon="4.458892028778791">
        <ele>499.54000000000002</ele>
        <time>2025-04-24T12:07:15Z</time>
      </trkpt>
      <trkpt lat="45.68799801170826" lon="4.458735035732389">
        <ele>499.54000000000002</ele>
        <time>2025-04-24T12:07:16Z</time>
      </trkpt>
      <trkpt lat="45.688061965629458" lon="4.458591034635902">
        <ele>500.01999999999998</ele>
        <time>2025-04-24T12:07:17Z</time>
      </trkpt>
      <trkpt lat="45.688124997541308" lon="4.45846002548933">
        <ele>500.5</ele>
        <time>2025-04-24T12:07:18Z</time>
      </trkpt>
      <trkpt lat="45.688200015574694" lon="4.458321975544095">
        <ele>500.98000000000002</ele>
        <time>2025-04-24T12:07:19Z</time>
      </trkpt>
      <trkpt lat="45.688270004466176" lon="4.45815802551806">
        <ele>501.45999999999998</ele>
        <time>2025-04-24T12:07:20Z</time>
      </trkpt>
      <trkpt lat="45.688332030549645" lon="4.45798602886498">
        <ele>502.43000000000001</ele>
        <time>2025-04-24T12:07:21Z</time>
      </trkpt>
      <trkpt lat="45.688361031934619" lon="4.457784024998546">
        <ele>502.91000000000003</ele>
        <time>2025-04-24T12:07:22Z</time>
      </trkpt>
      <trkpt lat="45.688381986692548" lon="4.457595013082027">
        <ele>503.87</ele>
        <time>2025-04-24T12:07:23Z</time>
      </trkpt>
      <trkpt lat="45.688367988914251" lon="4.457414969801903">
        <ele>504.82999999999998</ele>
        <time>2025-04-24T12:07:24Z</time>
      </trkpt>
      <trkpt lat="45.688348961994052" lon="4.457237021997571">
        <ele>505.31</ele>
        <time>2025-04-24T12:07:25Z</time>
      </trkpt>
      <trkpt lat="45.688331024721265" lon="4.457057984545827">
        <ele>506.26999999999998</ele>
        <time>2025-04-24T12:07:26Z</time>
      </trkpt>
      <trkpt lat="45.688291965052485" lon="4.456882970407605">
        <ele>506.75</ele>
        <time>2025-04-24T12:07:27Z</time>
      </trkpt>
      <trkpt lat="45.688227005302906" lon="4.45671902038157">
        <ele>507.70999999999998</ele>
        <time>2025-04-24T12:07:28Z</time>
      </trkpt>
      <trkpt lat="45.688159028068185" lon="4.456550963222981">
        <ele>508.67000000000002</ele>
        <time>2025-04-24T12:07:29Z</time>
      </trkpt>
      <trkpt lat="45.688054002821445" lon="4.45641802623868">
        <ele>509.63999999999999</ele>
        <time>2025-04-24T12:07:30Z</time>
      </trkpt>
      <trkpt lat="45.687937997281551" lon="4.456288022920489">
        <ele>510.60000000000002</ele>
        <time>2025-04-24T12:07:31Z</time>
      </trkpt>
      <trkpt lat="45.687816962599754" lon="4.456152990460396">
        <ele>511.07999999999998</ele>
        <time>2025-04-24T12:07:32Z</time>
      </trkpt>
      <trkpt lat="45.687473975121975" lon="4.455672036856413">
        <ele>513.96000000000004</ele>
        <time>2025-04-24T12:07:35Z</time>
      </trkpt>
      <trkpt lat="45.687372973188758" lon="4.455473972484469">
        <ele>514.91999999999996</ele>
        <time>2025-04-24T12:07:36Z</time>
      </trkpt>
      <trkpt lat="45.687058987095952" lon="4.454855974763632">
        <ele>517.80999999999995</ele>
        <time>2025-04-24T12:07:39Z</time>
      </trkpt>
      <trkpt lat="45.686938958242536" lon="4.454666962847114">
        <ele>518.76999999999998</ele>
        <time>2025-04-24T12:07:40Z</time>
      </trkpt>
      <trkpt lat="45.686788000166416" lon="4.454507036134601">
        <ele>519.73000000000002</ele>
        <time>2025-04-24T12:07:41Z</time>
      </trkpt>
      <trkpt lat="45.6855299603194" lon="4.45326098240912">
        <ele>527.41999999999996</ele>
        <time>2025-04-24T12:07:49Z</time>
      </trkpt>
      <trkpt lat="45.685394005849957" lon="4.453036012127996">
        <ele>528.38</ele>
        <time>2025-04-24T12:07:50Z</time>
      </trkpt>
      <trkpt lat="45.685281017795205" lon="4.452849011868238">
        <ele>529.34000000000003</ele>
        <time>2025-04-24T12:07:51Z</time>
      </trkpt>
      <trkpt lat="45.685170963406563" lon="4.452667962759733">
        <ele>530.29999999999995</ele>
        <time>2025-04-24T12:07:52Z</time>
      </trkpt>
      <trkpt lat="45.685044983401895" lon="4.452495966106653">
        <ele>530.78999999999996</ele>
        <time>2025-04-24T12:07:53Z</time>
      </trkpt>
      <trkpt lat="45.684895031154156" lon="4.452347019687295">
        <ele>531.26999999999998</ele>
        <time>2025-04-24T12:07:54Z</time>
      </trkpt>
      <trkpt lat="45.684724962338805" lon="4.452247023582459">
        <ele>531.75</ele>
        <time>2025-04-24T12:07:55Z</time>
      </trkpt>
      <trkpt lat="45.684542991220951" lon="4.452145015820861">
        <ele>532.71000000000004</ele>
        <time>2025-04-24T12:07:56Z</time>
      </trkpt>
      <trkpt lat="45.684353979304433" lon="4.45210101082921">
        <ele>533.19000000000005</ele>
        <time>2025-04-24T12:07:57Z</time>
      </trkpt>
      <trkpt lat="45.684160022065043" lon="4.45205700583756">
        <ele>534.14999999999998</ele>
        <time>2025-04-24T12:07:58Z</time>
      </trkpt>
      <trkpt lat="45.683957012370229" lon="4.452035967260599">
        <ele>534.63</ele>
        <time>2025-04-24T12:07:59Z</time>
      </trkpt>
      <trkpt lat="45.683771017938852" lon="4.452016018331051">
        <ele>535.59000000000003</ele>
        <time>2025-04-24T12:08:00Z</time>
      </trkpt>
      <trkpt lat="45.681710997596383" lon="4.452184997498989">
        <ele>545.20000000000005</ele>
        <time>2025-04-24T12:08:10Z</time>
      </trkpt>
      <trkpt lat="45.681140022352338" lon="4.452293962240219">
        <ele>548.57000000000005</ele>
        <time>2025-04-24T12:08:14Z</time>
      </trkpt>
      <trkpt lat="45.68105704151094" lon="4.452241994440556">
        <ele>549.52999999999997</ele>
        <time>2025-04-24T12:08:15Z</time>
      </trkpt>
      <trkpt lat="45.680979005992413" lon="4.45216597057879">
        <ele>550.00999999999999</ele>
        <time>2025-04-24T12:08:16Z</time>
      </trkpt>
      <trkpt lat="45.680965008214116" lon="4.452042002230883">
        <ele>550.97000000000003</ele>
        <time>2025-04-24T12:08:17Z</time>
      </trkpt>
      <trkpt lat="45.680982023477554" lon="4.451896995306015">
        <ele>551.45000000000005</ele>
        <time>2025-04-24T12:08:18Z</time>
      </trkpt>
      <trkpt lat="45.681015970185399" lon="4.451747965067625">
        <ele>551.92999999999995</ele>
        <time>2025-04-24T12:08:19Z</time>
      </trkpt>
      <trkpt lat="45.681054024025798" lon="4.45158401504159">
        <ele>552.40999999999997</ele>
        <time>2025-04-24T12:08:20Z</time>
      </trkpt>
      <trkpt lat="45.681095011532307" lon="4.451402965933085">
        <ele>552.89999999999998</ele>
        <time>2025-04-24T12:08:21Z</time>
      </trkpt>
      <trkpt lat="45.681139016523957" lon="4.451210014522076">
        <ele>553.38</ele>
        <time>2025-04-24T12:08:22Z</time>
      </trkpt>
      <trkpt lat="45.681183021515608" lon="4.451008010655642">
        <ele>553.86000000000001</ele>
        <time>2025-04-24T12:08:23Z</time>
      </trkpt>
      <trkpt lat="45.681226020678878" lon="4.450808018445969">
        <ele>554.34000000000003</ele>
        <time>2025-04-24T12:08:24Z</time>
      </trkpt>
      <trkpt lat="45.681268014013767" lon="4.450616994872689">
        <ele>554.82000000000005</ele>
        <time>2025-04-24T12:08:25Z</time>
      </trkpt>
      <trkpt lat="45.681307995691895" lon="4.450429994612932">
        <ele>555.77999999999997</ele>
        <time>2025-04-24T12:08:26Z</time>
      </trkpt>
      <trkpt lat="45.681345965713263" lon="4.45025397464633">
        <ele>556.74000000000001</ele>
        <time>2025-04-24T12:08:27Z</time>
      </trkpt>
      <trkpt lat="45.681340014562011" lon="4.450054988265038">
        <ele>557.22000000000003</ele>
        <time>2025-04-24T12:08:28Z</time>
      </trkpt>
      <trkpt lat="45.681329034268856" lon="4.449685011059046">
        <ele>558.65999999999997</ele>
        <time>2025-04-24T12:08:30Z</time>
      </trkpt>
      <trkpt lat="45.681347977370024" lon="4.449511002749205">
        <ele>559.13999999999999</ele>
        <time>2025-04-24T12:08:31Z</time>
      </trkpt>
      <trkpt lat="45.681411009281874" lon="4.449412012472749">
        <ele>559.62</ele>
        <time>2025-04-24T12:08:32Z</time>
      </trkpt>
      <trkpt lat="45.68149097263813" lon="4.449311010539532">
        <ele>559.62</ele>
        <time>2025-04-24T12:08:33Z</time>
      </trkpt>
      <trkpt lat="45.681603038683534" lon="4.449298018589616">
        <ele>560.11000000000001</ele>
        <time>2025-04-24T12:08:34Z</time>
      </trkpt>
      <trkpt lat="45.681732958182693" lon="4.449284020811319">
        <ele>559.62</ele>
        <time>2025-04-24T12:08:35Z</time>
      </trkpt>
      <trkpt lat="45.681862961500883" lon="4.449269017204642">
        <ele>559.13999999999999</ele>
        <time>2025-04-24T12:08:36Z</time>
      </trkpt>
      <trkpt lat="45.681998999789357" lon="4.449185030534864">
        <ele>559.13999999999999</ele>
        <time>2025-04-24T12:08:37Z</time>
      </trkpt>
      <trkpt lat="45.682139983400702" lon="4.449098026379943">
        <ele>559.13999999999999</ele>
        <time>2025-04-24T12:08:38Z</time>
      </trkpt>
      <trkpt lat="45.682223970070481" lon="4.448930975049734">
        <ele>559.62</ele>
        <time>2025-04-24T12:08:39Z</time>
      </trkpt>
      <trkpt lat="45.682312985882163" lon="4.44874900393188">
        <ele>559.62</ele>
        <time>2025-04-24T12:08:40Z</time>
      </trkpt>
      <trkpt lat="45.682368976995349" lon="4.448549011722207">
        <ele>560.11000000000001</ele>
        <time>2025-04-24T12:08:41Z</time>
      </trkpt>
      <trkpt lat="45.682417005300522" lon="4.448335021734238">
        <ele>560.59000000000003</ele>
        <time>2025-04-24T12:08:42Z</time>
      </trkpt>
      <trkpt lat="45.682405019178987" lon="4.448124971240759">
        <ele>561.54999999999995</ele>
        <time>2025-04-24T12:08:43Z</time>
      </trkpt>
      <trkpt lat="45.682351039722562" lon="4.44791098125279">
        <ele>562.02999999999997</ele>
        <time>2025-04-24T12:08:44Z</time>
      </trkpt>
      <trkpt lat="45.682253977283835" lon="4.447745019569993">
        <ele>562.99000000000001</ele>
        <time>2025-04-24T12:08:45Z</time>
      </trkpt>
      <trkpt lat="45.682135038077831" lon="4.447602024301887">
        <ele>563.95000000000005</ele>
        <time>2025-04-24T12:08:46Z</time>
      </trkpt>
      <trkpt lat="45.682010985910892" lon="4.447451988235116">
        <ele>564.42999999999995</ele>
        <time>2025-04-24T12:08:47Z</time>
      </trkpt>
      <trkpt lat="45.681029967963696" lon="4.446353036910296">
        <ele>570.20000000000005</ele>
        <time>2025-04-24T12:08:54Z</time>
      </trkpt>
      <trkpt lat="45.680744983255863" lon="4.446115996688604">
        <ele>572.60000000000002</ele>
        <time>2025-04-24T12:08:56Z</time>
      </trkpt>
      <trkpt lat="45.680606011301279" lon="4.446088001132011">
        <ele>573.55999999999995</ele>
        <time>2025-04-24T12:08:57Z</time>
      </trkpt>
      <trkpt lat="45.680454969406128" lon="4.44608498364687">
        <ele>574.03999999999996</ele>
        <time>2025-04-24T12:08:58Z</time>
      </trkpt>
      <trkpt lat="45.680296970531344" lon="4.446110967546701">
        <ele>575.00999999999999</ele>
        <time>2025-04-24T12:08:59Z</time>
      </trkpt>
      <trkpt lat="45.680160010233521" lon="4.446204006671906">
        <ele>575.97000000000003</ele>
        <time>2025-04-24T12:09:00Z</time>
      </trkpt>
      <trkpt lat="45.680019026622176" lon="4.446314983069897">
        <ele>576.45000000000005</ele>
        <time>2025-04-24T12:09:01Z</time>
      </trkpt>
      <trkpt lat="45.679902015253901" lon="4.446454038843513">
        <ele>577.40999999999997</ele>
        <time>2025-04-24T12:09:02Z</time>
      </trkpt>
      <trkpt lat="45.679785003885627" lon="4.446623018011451">
        <ele>578.37</ele>
        <time>2025-04-24T12:09:03Z</time>
      </trkpt>
      <trkpt lat="45.679678972810507" lon="4.446786968037486">
        <ele>578.85000000000002</ele>
        <time>2025-04-24T12:09:04Z</time>
      </trkpt>
      <trkpt lat="45.679586017504334" lon="4.446930969133973">
        <ele>579.33000000000004</ele>
        <time>2025-04-24T12:09:05Z</time>
      </trkpt>
      <trkpt lat="45.679421983659267" lon="4.446978997439146">
        <ele>579.80999999999995</ele>
        <time>2025-04-24T12:09:06Z</time>
      </trkpt>
      <trkpt lat="45.679274965077639" lon="4.447023002430797">
        <ele>580.28999999999996</ele>
        <time>2025-04-24T12:09:07Z</time>
      </trkpt>
      <trkpt lat="45.679114032536745" lon="4.44703096523881">
        <ele>580.76999999999998</ele>
        <time>2025-04-24T12:09:08Z</time>
      </trkpt>
      <trkpt lat="45.678943041712046" lon="4.447019984945655">
        <ele>581.25</ele>
        <time>2025-04-24T12:09:09Z</time>
      </trkpt>
      <trkpt lat="45.67843702621758" lon="4.446930969133973">
        <ele>583.17999999999995</ele>
        <time>2025-04-24T12:09:12Z</time>
      </trkpt>
      <trkpt lat="45.678296964615583" lon="4.44685603491962">
        <ele>583.65999999999997</ele>
        <time>2025-04-24T12:09:13Z</time>
      </trkpt>
      <trkpt lat="45.678194034844637" lon="4.446698036044836">
        <ele>584.13999999999999</ele>
        <time>2025-04-24T12:09:14Z</time>
      </trkpt>
      <trkpt lat="45.678088003769517" lon="4.446512963622809">
        <ele>584.62</ele>
        <time>2025-04-24T12:09:15Z</time>
      </trkpt>
      <trkpt lat="45.677997982129455" lon="4.446312971413136">
        <ele>585.58000000000004</ele>
        <time>2025-04-24T12:09:16Z</time>
      </trkpt>
      <trkpt lat="45.677937967702746" lon="4.44608498364687">
        <ele>586.05999999999995</ele>
        <time>2025-04-24T12:09:17Z</time>
      </trkpt>
      <trkpt lat="45.677878959104419" lon="4.445862025022507">
        <ele>587.01999999999998</ele>
        <time>2025-04-24T12:09:18Z</time>
      </trkpt>
      <trkpt lat="45.677826991304755" lon="4.445664966478944">
        <ele>587.98000000000002</ele>
        <time>2025-04-24T12:09:19Z</time>
      </trkpt>
      <trkpt lat="45.677728001028299" lon="4.445465980097652">
        <ele>588.95000000000005</ele>
        <time>2025-04-24T12:09:20Z</time>
      </trkpt>
      <trkpt lat="45.677597997710109" lon="4.445317033678293">
        <ele>589.42999999999995</ele>
        <time>2025-04-24T12:09:21Z</time>
      </trkpt>
      <trkpt lat="45.677457014098763" lon="4.445165991783142">
        <ele>589.90999999999997</ele>
        <time>2025-04-24T12:09:22Z</time>
      </trkpt>
      <trkpt lat="45.6772789824754" lon="4.445073958486319">
        <ele>590.38999999999999</ele>
        <time>2025-04-24T12:09:23Z</time>
      </trkpt>
      <trkpt lat="45.677089970558882" lon="4.444985026493669">
        <ele>591.35000000000002</ele>
        <time>2025-04-24T12:09:24Z</time>
      </trkpt>
      <trkpt lat="45.67689199000597" lon="4.444962982088327">
        <ele>591.83000000000004</ele>
        <time>2025-04-24T12:09:25Z</time>
      </trkpt>
      <trkpt lat="45.676693003624678" lon="4.44494697265327">
        <ele>592.30999999999995</ele>
        <time>2025-04-24T12:09:26Z</time>
      </trkpt>
      <trkpt lat="45.676329983398318" lon="4.444917971268296">
        <ele>593.26999999999998</ele>
        <time>2025-04-24T12:09:28Z</time>
      </trkpt>
      <trkpt lat="45.676182964816689" lon="4.444958036765456">
        <ele>593.75</ele>
        <time>2025-04-24T12:09:29Z</time>
      </trkpt>
      <trkpt lat="45.676067965105176" lon="4.44503397680819">
        <ele>594.23000000000002</ele>
        <time>2025-04-24T12:09:30Z</time>
      </trkpt>
      <trkpt lat="45.675979033112526" lon="4.445187030360103">
        <ele>594.71000000000004</ele>
        <time>2025-04-24T12:09:31Z</time>
      </trkpt>
      <trkpt lat="45.675885993987322" lon="4.445345029234886">
        <ele>595.19000000000005</ele>
        <time>2025-04-24T12:09:32Z</time>
      </trkpt>
      <trkpt lat="45.67579597234726" lon="4.445491963997483">
        <ele>595.66999999999996</ele>
        <time>2025-04-24T12:09:33Z</time>
      </trkpt>
      <trkpt lat="45.675716008991003" lon="4.445621967315674">
        <ele>595.66999999999996</ele>
        <time>2025-04-24T12:09:34Z</time>
      </trkpt>
      <trkpt lat="45.675621964037418" lon="4.445643005892634">
        <ele>595.19000000000005</ele>
        <time>2025-04-24T12:09:35Z</time>
      </trkpt>
      <trkpt lat="45.675536971539259" lon="4.445643005892634">
        <ele>595.66999999999996</ele>
        <time>2025-04-24T12:09:36Z</time>
      </trkpt>
      <trkpt lat="45.675447033718228" lon="4.445602018386126">
        <ele>595.66999999999996</ele>
        <time>2025-04-24T12:09:37Z</time>
      </trkpt>
      <trkpt lat="45.675348965451121" lon="4.445500010624528">
        <ele>596.14999999999998</ele>
        <time>2025-04-24T12:09:38Z</time>
      </trkpt>
      <trkpt lat="45.67523698322475" lon="4.445385010913014">
        <ele>596.63999999999999</ele>
        <time>2025-04-24T12:09:39Z</time>
      </trkpt>
      <trkpt lat="45.675111003220081" lon="4.445254001766443">
        <ele>597.12</ele>
        <time>2025-04-24T12:09:40Z</time>
      </trkpt>
      <trkpt lat="45.674972031265497" lon="4.445111006498337">
        <ele>597.12</ele>
        <time>2025-04-24T12:09:41Z</time>
      </trkpt>
      <trkpt lat="45.674832975491881" lon="4.44496700540185">
        <ele>597.12</ele>
        <time>2025-04-24T12:09:42Z</time>
      </trkpt>
      <trkpt lat="45.674685034900904" lon="4.444883018732071">
        <ele>597.60000000000002</ele>
        <time>2025-04-24T12:09:43Z</time>
      </trkpt>
      <trkpt lat="45.674543967470527" lon="4.444806994870305">
        <ele>597.60000000000002</ele>
        <time>2025-04-24T12:09:44Z</time>
      </trkpt>
      <trkpt lat="45.674393009394407" lon="4.444806994870305">
        <ele>597.60000000000002</ele>
        <time>2025-04-24T12:09:45Z</time>
      </trkpt>
      <trkpt lat="45.674246996641159" lon="4.444826021790505">
        <ele>597.60000000000002</ele>
        <time>2025-04-24T12:09:46Z</time>
      </trkpt>
      <trkpt lat="45.674102995544672" lon="4.444898022338748">
        <ele>597.60000000000002</ele>
        <time>2025-04-24T12:09:47Z</time>
      </trkpt>
      <trkpt lat="45.673979027196765" lon="4.445012016221881">
        <ele>598.08000000000004</ele>
        <time>2025-04-24T12:09:48Z</time>
      </trkpt>
      <trkpt lat="45.673852041363716" lon="4.445147970691323">
        <ele>598.55999999999995</ele>
        <time>2025-04-24T12:09:49Z</time>
      </trkpt>
      <trkpt lat="45.673719020560384" lon="4.445289960131049">
        <ele>598.55999999999995</ele>
        <time>2025-04-24T12:09:50Z</time>
      </trkpt>
      <trkpt lat="45.673210993409157" lon="4.445824977010489">
        <ele>600.48000000000002</ele>
        <time>2025-04-24T12:09:54Z</time>
      </trkpt>
      <trkpt lat="45.673100017011166" lon="4.44589396007359">
        <ele>600.96000000000004</ele>
        <time>2025-04-24T12:09:55Z</time>
      </trkpt>
      <trkpt lat="45.673015024513006" lon="4.445940982550383">
        <ele>601.44000000000005</ele>
        <time>2025-04-24T12:09:56Z</time>
      </trkpt>
      <trkpt lat="45.672930032014847" lon="4.445898989215493">
        <ele>601.44000000000005</ele>
        <time>2025-04-24T12:09:57Z</time>
      </trkpt>
      <trkpt lat="45.672864988446236" lon="4.445832017809153">
        <ele>601.44000000000005</ele>
        <time>2025-04-24T12:09:58Z</time>
      </trkpt>
      <trkpt lat="45.672805979847908" lon="4.445724980905652">
        <ele>601.44000000000005</ele>
        <time>2025-04-24T12:09:59Z</time>
      </trkpt>
      <trkpt lat="45.672805979847908" lon="4.445573017001152">
        <ele>601.44000000000005</ele>
        <time>2025-04-24T12:10:00Z</time>
      </trkpt>
      <trkpt lat="45.672805979847908" lon="4.445388028398156">
        <ele>601.44000000000005</ele>
        <time>2025-04-24T12:10:01Z</time>
      </trkpt>
      <trkpt lat="45.672805979847908" lon="4.445214020088315">
        <ele>601.44000000000005</ele>
        <time>2025-04-24T12:10:02Z</time>
      </trkpt>
      <trkpt lat="45.672749988734722" lon="4.444961976259947">
        <ele>601.91999999999996</ele>
        <time>2025-04-24T12:10:03Z</time>
      </trkpt>
      <trkpt lat="45.672673964872956" lon="4.444525027647615">
        <ele>602.88</ele>
        <time>2025-04-24T12:10:05Z</time>
      </trkpt>
      <trkpt lat="45.672668013721704" lon="4.444326963275671">
        <ele>603.85000000000002</ele>
        <time>2025-04-24T12:10:06Z</time>
      </trkpt>
      <trkpt lat="45.672662984579802" lon="4.444127976894379">
        <ele>604.33000000000004</ele>
        <time>2025-04-24T12:10:07Z</time>
      </trkpt>
      <trkpt lat="45.672656027600169" lon="4.443883979693055">
        <ele>604.80999999999995</ele>
        <time>2025-04-24T12:10:08Z</time>
      </trkpt>
      <trkpt lat="45.672581009566784" lon="4.443728998303413">
        <ele>605.28999999999996</ele>
        <time>2025-04-24T12:10:09Z</time>
      </trkpt>
      <trkpt lat="45.672492999583483" lon="4.443546021357179">
        <ele>605.76999999999998</ele>
        <time>2025-04-24T12:10:10Z</time>
      </trkpt>
      <trkpt lat="45.672353021800518" lon="4.443212002515793">
        <ele>606.25</ele>
        <time>2025-04-24T12:10:12Z</time>
      </trkpt>
      <trkpt lat="45.672312034294009" lon="4.443046962842345">
        <ele>606.73000000000002</ele>
        <time>2025-04-24T12:10:13Z</time>
      </trkpt>
      <trkpt lat="45.672333994880319" lon="4.442918971180916">
        <ele>607.21000000000004</ele>
        <time>2025-04-24T12:10:14Z</time>
      </trkpt>
      <trkpt lat="45.672384034842253" lon="4.442745968699455">
        <ele>607.69000000000005</ele>
        <time>2025-04-24T12:10:15Z</time>
      </trkpt>
      <trkpt lat="45.672504985705018" lon="4.442575983703136">
        <ele>608.16999999999996</ele>
        <time>2025-04-24T12:10:16Z</time>
      </trkpt>
      <trkpt lat="45.672656027600169" lon="4.442430976778269">
        <ele>608.64999999999998</ele>
        <time>2025-04-24T12:10:17Z</time>
      </trkpt>
      <trkpt lat="45.672799022868276" lon="4.442293010652065">
        <ele>609.13</ele>
        <time>2025-04-24T12:10:18Z</time>
      </trkpt>
      <trkpt lat="45.673062968999147" lon="4.442039038985968">
        <ele>610.09000000000003</ele>
        <time>2025-04-24T12:10:20Z</time>
      </trkpt>
      <trkpt lat="45.673137987032533" lon="4.441908029839397">
        <ele>610.57000000000005</ele>
        <time>2025-04-24T12:10:21Z</time>
      </trkpt>
      <trkpt lat="45.673163970932364" lon="4.441740978509188">
        <ele>610.57000000000005</ele>
        <time>2025-04-24T12:10:22Z</time>
      </trkpt>
      <trkpt lat="45.673129018396139" lon="4.441564036533237">
        <ele>610.57000000000005</ele>
        <time>2025-04-24T12:10:23Z</time>
      </trkpt>
      <trkpt lat="45.673062968999147" lon="4.441394973546267">
        <ele>611.05999999999995</ele>
        <time>2025-04-24T12:10:24Z</time>
      </trkpt>
      <trkpt lat="45.67293799482286" lon="4.44122800603509">
        <ele>611.53999999999996</ele>
        <time>2025-04-24T12:10:25Z</time>
      </trkpt>
      <trkpt lat="45.672805979847908" lon="4.441051986068487">
        <ele>612.01999999999998</ele>
        <time>2025-04-24T12:10:26Z</time>
      </trkpt>
      <trkpt lat="45.67263800650835" lon="4.440917037427425">
        <ele>612.5</ele>
        <time>2025-04-24T12:10:27Z</time>
      </trkpt>
      <trkpt lat="45.671321963891387" lon="4.439864018931985">
        <ele>616.34000000000003</ele>
        <time>2025-04-24T12:10:34Z</time>
      </trkpt>
      <trkpt lat="45.670248996466398" lon="4.438863974064589">
        <ele>620.19000000000005</ele>
        <time>2025-04-24T12:10:41Z</time>
      </trkpt>
      <trkpt lat="45.67008001729846" lon="4.438754003494978">
        <ele>620.66999999999996</ele>
        <time>2025-04-24T12:10:42Z</time>
      </trkpt>
      <trkpt lat="45.669916989281774" lon="4.438648978248239">
        <ele>620.66999999999996</ele>
        <time>2025-04-24T12:10:43Z</time>
      </trkpt>
      <trkpt lat="45.669761002063751" lon="4.438548982143402">
        <ele>621.14999999999998</ele>
        <time>2025-04-24T12:10:44Z</time>
      </trkpt>
      <trkpt lat="45.669633010402322" lon="4.438397018238902">
        <ele>621.14999999999998</ele>
        <time>2025-04-24T12:10:45Z</time>
      </trkpt>
      <trkpt lat="45.669514993205667" lon="4.438223009929061">
        <ele>621.63</ele>
        <time>2025-04-24T12:10:46Z</time>
      </trkpt>
      <trkpt lat="45.669391024857759" lon="4.438040032982826">
        <ele>622.11000000000001</ele>
        <time>2025-04-24T12:10:47Z</time>
      </trkpt>
      <trkpt lat="45.669259009882808" lon="4.437846997752786">
        <ele>622.59000000000003</ele>
        <time>2025-04-24T12:10:48Z</time>
      </trkpt>
      <trkpt lat="45.669101011008024" lon="4.437672989442945">
        <ele>622.59000000000003</ele>
        <time>2025-04-24T12:10:49Z</time>
      </trkpt>
      <trkpt lat="45.667775999754667" lon="4.436300033703446">
        <ele>624.99000000000001</ele>
        <time>2025-04-24T12:10:57Z</time>
      </trkpt>
      <trkpt lat="45.666623990982771" lon="4.435650017112494">
        <ele>626.91999999999996</ele>
        <time>2025-04-24T12:11:04Z</time>
      </trkpt>
      <trkpt lat="45.666503040120006" lon="4.435582961887121">
        <ele>626.91999999999996</ele>
        <time>2025-04-24T12:11:05Z</time>
      </trkpt>
      <trkpt lat="45.666434979066253" lon="4.435430997982621">
        <ele>627.39999999999998</ele>
        <time>2025-04-24T12:11:06Z</time>
      </trkpt>
      <trkpt lat="45.666389968246222" lon="4.435269981622696">
        <ele>627.39999999999998</ele>
        <time>2025-04-24T12:11:07Z</time>
      </trkpt>
      <trkpt lat="45.666389968246222" lon="4.435079963877797">
        <ele>627.88</ele>
        <time>2025-04-24T12:11:08Z</time>
      </trkpt>
      <trkpt lat="45.66640798933804" lon="4.434874020516872">
        <ele>628.36000000000001</ele>
        <time>2025-04-24T12:11:09Z</time>
      </trkpt>
      <trkpt lat="45.666440008208156" lon="4.434647960588336">
        <ele>628.36000000000001</ele>
        <time>2025-04-24T12:11:10Z</time>
      </trkpt>
      <trkpt lat="45.666615022346377" lon="4.433631990104914">
        <ele>629.79999999999995</ele>
        <time>2025-04-24T12:11:14Z</time>
      </trkpt>
      <trkpt lat="45.666694985702634" lon="4.433379024267197">
        <ele>630.75999999999999</ele>
        <time>2025-04-24T12:11:15Z</time>
      </trkpt>
      <trkpt lat="45.666854996234179" lon="4.432876026257873">
        <ele>631.72000000000003</ele>
        <time>2025-04-24T12:11:17Z</time>
      </trkpt>
      <trkpt lat="45.666903024539351" lon="4.432587018236518">
        <ele>631.72000000000003</ele>
        <time>2025-04-24T12:11:18Z</time>
      </trkpt>
      <trkpt lat="45.666945017874241" lon="4.432307984679937">
        <ele>632.20000000000005</ele>
        <time>2025-04-24T12:11:19Z</time>
      </trkpt>
      <trkpt lat="45.666961027309299" lon="4.43121800199151">
        <ele>633.16999999999996</ele>
        <time>2025-04-24T12:11:23Z</time>
      </trkpt>
      <trkpt lat="45.666914004832506" lon="4.430974004790187">
        <ele>633.16999999999996</ele>
        <time>2025-04-24T12:11:24Z</time>
      </trkpt>
      <trkpt lat="45.666867988184094" lon="4.430731013417244">
        <ele>633.16999999999996</ele>
        <time>2025-04-24T12:11:25Z</time>
      </trkpt>
      <trkpt lat="45.666744019836187" lon="4.428560016676784">
        <ele>634.13</ele>
        <time>2025-04-24T12:11:33Z</time>
      </trkpt>
      <trkpt lat="45.666722981259227" lon="4.428114015609026">
        <ele>634.13</ele>
        <time>2025-04-24T12:11:35Z</time>
      </trkpt>
      <trkpt lat="45.666679982095957" lon="4.427941013127565">
        <ele>634.13</ele>
        <time>2025-04-24T12:11:36Z</time>
      </trkpt>
      <trkpt lat="45.666586020961404" lon="4.427810003980994">
        <ele>634.61000000000001</ele>
        <time>2025-04-24T12:11:37Z</time>
      </trkpt>
      <trkpt lat="45.666465992107987" lon="4.427682012319565">
        <ele>634.61000000000001</ele>
        <time>2025-04-24T12:11:38Z</time>
      </trkpt>
      <trkpt lat="45.666326014325023" lon="4.427532982081175">
        <ele>634.61000000000001</ele>
        <time>2025-04-24T12:11:39Z</time>
      </trkpt>
      <trkpt lat="45.666170027107" lon="4.427428962662816">
        <ele>635.09000000000003</ele>
        <time>2025-04-24T12:11:40Z</time>
      </trkpt>
      <trkpt lat="45.665466031059623" lon="4.426959995180368">
        <ele>637.49000000000001</ele>
        <time>2025-04-24T12:11:44Z</time>
      </trkpt>
      <trkpt lat="45.664117969572544" lon="4.42593002691865">
        <ele>643.74000000000001</ele>
        <time>2025-04-24T12:11:52Z</time>
      </trkpt>
      <trkpt lat="45.663942033424973" lon="4.425865989178419">
        <ele>644.22000000000003</ele>
        <time>2025-04-24T12:11:53Z</time>
      </trkpt>
      <trkpt lat="45.663269972428679" lon="4.425682006403804">
        <ele>646.13999999999999</ele>
        <time>2025-04-24T12:11:57Z</time>
      </trkpt>
      <trkpt lat="45.663186991587281" lon="4.425607994198799">
        <ele>646.13999999999999</ele>
        <time>2025-04-24T12:11:58Z</time>
      </trkpt>
      <trkpt lat="45.663129994645715" lon="4.425484025850892">
        <ele>646.13999999999999</ele>
        <time>2025-04-24T12:11:59Z</time>
      </trkpt>
      <trkpt lat="45.663086995482445" lon="4.425348993390799">
        <ele>646.62</ele>
        <time>2025-04-24T12:12:00Z</time>
      </trkpt>
      <trkpt lat="45.663096969947219" lon="4.425149001181126">
        <ele>646.62</ele>
        <time>2025-04-24T12:12:01Z</time>
      </trkpt>
      <trkpt lat="45.663107028231025" lon="4.42494397982955">
        <ele>646.62</ele>
        <time>2025-04-24T12:12:02Z</time>
      </trkpt>
      <trkpt lat="45.663058999925852" lon="4.424727978184819">
        <ele>647.10000000000002</ele>
        <time>2025-04-24T12:12:03Z</time>
      </trkpt>
      <trkpt lat="45.662973001599312" lon="4.424520023167133">
        <ele>647.10000000000002</ele>
        <time>2025-04-24T12:12:04Z</time>
      </trkpt>
      <trkpt lat="45.662867976352572" lon="4.424315001815558">
        <ele>647.59000000000003</ele>
        <time>2025-04-24T12:12:05Z</time>
      </trkpt>
      <trkpt lat="45.662756999954581" lon="4.424097994342446">
        <ele>648.07000000000005</ele>
        <time>2025-04-24T12:12:06Z</time>
      </trkpt>
      <trkpt lat="45.661861980333924" lon="4.422466037794948">
        <ele>650.95000000000005</ele>
        <time>2025-04-24T12:12:14Z</time>
      </trkpt>
      <trkpt lat="45.661737006157637" lon="4.422339973971248">
        <ele>650.95000000000005</ele>
        <time>2025-04-24T12:12:15Z</time>
      </trkpt>
      <trkpt lat="45.661603985354304" lon="4.422236038371921">
        <ele>651.42999999999995</ele>
        <time>2025-04-24T12:12:16Z</time>
      </trkpt>
      <trkpt lat="45.660883979871869" lon="4.421725999563932">
        <ele>653.35000000000002</ele>
        <time>2025-04-24T12:12:22Z</time>
      </trkpt>
      <trkpt lat="45.660778032615781" lon="4.421670008450747">
        <ele>653.83000000000004</ele>
        <time>2025-04-24T12:12:23Z</time>
      </trkpt>
      <trkpt lat="45.660658003762364" lon="4.421649975702167">
        <ele>654.30999999999995</ele>
        <time>2025-04-24T12:12:24Z</time>
      </trkpt>
      <trkpt lat="45.660534035414457" lon="4.421629020944238">
        <ele>654.79999999999995</ele>
        <time>2025-04-24T12:12:25Z</time>
      </trkpt>
      <trkpt lat="45.660405037924647" lon="4.421607982367277">
        <ele>655.27999999999997</ele>
        <time>2025-04-24T12:12:26Z</time>
      </trkpt>
      <trkpt lat="45.658794036135077" lon="4.421350993216038">
        <ele>662.49000000000001</ele>
        <time>2025-04-24T12:12:38Z</time>
      </trkpt>
      <trkpt lat="45.657682009041309" lon="4.421362979337573">
        <ele>665.37</ele>
        <time>2025-04-24T12:12:48Z</time>
      </trkpt>
      <trkpt lat="45.656985975801945" lon="4.42163203842938">
        <ele>669.22000000000003</ele>
        <time>2025-04-24T12:12:57Z</time>
      </trkpt>
      <trkpt lat="45.656940964981914" lon="4.421650981530547">
        <ele>669.22000000000003</ele>
        <time>2025-04-24T12:12:58Z</time>
      </trkpt>
      <trkpt lat="45.656904000788927" lon="4.421666990965605">
        <ele>669.22000000000003</ele>
        <time>2025-04-24T12:12:59Z</time>
      </trkpt>
      <trkpt lat="45.656841974705458" lon="4.421573029831052">
        <ele>669.70000000000005</ele>
        <time>2025-04-24T12:13:00Z</time>
      </trkpt>
      <trkpt lat="45.656813979148865" lon="4.42150597460568">
        <ele>669.70000000000005</ele>
        <time>2025-04-24T12:13:01Z</time>
      </trkpt>
      <trkpt lat="45.656777014955878" lon="4.421417964622378">
        <ele>669.70000000000005</ele>
        <time>2025-04-24T12:13:02Z</time>
      </trkpt>
      <trkpt lat="45.656755976378918" lon="4.42135401070118">
        <ele>669.70000000000005</ele>
        <time>2025-04-24T12:13:03Z</time>
      </trkpt>
      <trkpt lat="45.656460011377931" lon="4.42043200135231">
        <ele>671.13999999999999</ele>
        <time>2025-04-24T12:13:14Z</time>
      </trkpt>
      <trkpt lat="45.656340988352895" lon="4.419992035254836">
        <ele>673.05999999999995</ele>
        <time>2025-04-24T12:13:19Z</time>
      </trkpt>
      <trkpt lat="45.656289020553231" lon="4.419491970911622">
        <ele>675.94000000000005</ele>
        <time>2025-04-24T12:13:24Z</time>
      </trkpt>
      <trkpt lat="45.65633000805974" lon="4.418951002880931">
        <ele>677.38999999999999</ele>
        <time>2025-04-24T12:13:29Z</time>
      </trkpt>
      <trkpt lat="45.656340988352895" lon="4.418831979855895">
        <ele>677.87</ele>
        <time>2025-04-24T12:13:30Z</time>
      </trkpt>
      <trkpt lat="45.656389016658068" lon="4.417931009083986">
        <ele>676.41999999999996</ele>
        <time>2025-04-24T12:13:38Z</time>
      </trkpt>
      <trkpt lat="45.656369989737868" lon="4.417823972180486">
        <ele>675.94000000000005</ele>
        <time>2025-04-24T12:13:39Z</time>
      </trkpt>
      <trkpt lat="45.656321039423347" lon="4.417696986347437">
        <ele>674.98000000000002</ele>
        <time>2025-04-24T12:13:40Z</time>
      </trkpt>
      <trkpt lat="45.656264964491129" lon="4.417562037706375">
        <ele>674.5</ele>
        <time>2025-04-24T12:13:41Z</time>
      </trkpt>
      <trkpt lat="45.656194975599647" lon="4.417420970275998">
        <ele>673.53999999999996</ele>
        <time>2025-04-24T12:13:42Z</time>
      </trkpt>
      <trkpt lat="45.656120041385293" lon="4.41727202385664">
        <ele>673.05999999999995</ele>
        <time>2025-04-24T12:13:43Z</time>
      </trkpt>
      <trkpt lat="45.655850982293487" lon="4.416873967275024">
        <ele>669.22000000000003</ele>
        <time>2025-04-24T12:13:46Z</time>
      </trkpt>
      <trkpt lat="45.654702996835113" lon="4.415086023509502">
        <ele>664.88999999999999</ele>
        <time>2025-04-24T12:13:58Z</time>
      </trkpt>
      <trkpt lat="45.653710998594761" lon="4.413546016439796">
        <ele>662.97000000000003</ele>
        <time>2025-04-24T12:14:06Z</time>
      </trkpt>
      <trkpt lat="45.65325703471899" lon="4.412836991250515">
        <ele>661.51999999999998</ele>
        <time>2025-04-24T12:14:11Z</time>
      </trkpt>
      <trkpt lat="45.653215041384101" lon="4.412770019844174">
        <ele>661.03999999999996</ele>
        <time>2025-04-24T12:14:12Z</time>
      </trkpt>
      <trkpt lat="45.65319400280714" lon="4.412734983488917">
        <ele>661.03999999999996</ele>
        <time>2025-04-24T12:14:13Z</time>
      </trkpt>
      <trkpt lat="45.653218980878592" lon="4.412578996270895">
        <ele>660.55999999999995</ele>
        <time>2025-04-24T12:14:14Z</time>
      </trkpt>
      <trkpt lat="45.653263991698623" lon="4.41252501681447">
        <ele>660.08000000000004</ele>
        <time>2025-04-24T12:14:15Z</time>
      </trkpt>
      <trkpt lat="45.653320988640189" lon="4.412455027922988">
        <ele>659.60000000000002</ele>
        <time>2025-04-24T12:14:16Z</time>
      </trkpt>
      <trkpt lat="45.65338502638042" lon="4.41237598657608">
        <ele>659.60000000000002</ele>
        <time>2025-04-24T12:14:17Z</time>
      </trkpt>
      <trkpt lat="45.653584012761712" lon="4.412089996039867">
        <ele>658.63999999999999</ele>
        <time>2025-04-24T12:14:20Z</time>
      </trkpt>
      <trkpt lat="45.65364302136004" lon="4.411964016035199">
        <ele>658.63999999999999</ele>
        <time>2025-04-24T12:14:21Z</time>
      </trkpt>
      <trkpt lat="45.65368702635169" lon="4.411819009110332">
        <ele>658.63999999999999</ele>
        <time>2025-04-24T12:14:22Z</time>
      </trkpt>
      <trkpt lat="45.653690965846181" lon="4.411652963608503">
        <ele>658.63999999999999</ele>
        <time>2025-04-24T12:14:23Z</time>
      </trkpt>
      <trkpt lat="45.653698006644845" lon="4.411482978612185">
        <ele>658.63999999999999</ele>
        <time>2025-04-24T12:14:24Z</time>
      </trkpt>
      <trkpt lat="45.653718039393425" lon="4.410979980602861">
        <ele>657.20000000000005</ele>
        <time>2025-04-24T12:14:27Z</time>
      </trkpt>
      <trkpt lat="45.653724996373057" lon="4.410803960636258">
        <ele>657.20000000000005</ele>
        <time>2025-04-24T12:14:28Z</time>
      </trkpt>
      <trkpt lat="45.653755003586411" lon="4.410630958154798">
        <ele>656.72000000000003</ele>
        <time>2025-04-24T12:14:29Z</time>
      </trkpt>
      <trkpt lat="45.653819963335991" lon="4.410477988421917">
        <ele>656.72000000000003</ele>
        <time>2025-04-24T12:14:30Z</time>
      </trkpt>
      <trkpt lat="45.653887018561363" lon="4.410323007032275">
        <ele>656.24000000000001</ele>
        <time>2025-04-24T12:14:31Z</time>
      </trkpt>
      <trkpt lat="45.653953989967704" lon="4.410167019814253">
        <ele>655.75999999999999</ele>
        <time>2025-04-24T12:14:32Z</time>
      </trkpt>
      <trkpt lat="45.654172003269196" lon="4.409741973504424">
        <ele>656.72000000000003</ele>
        <time>2025-04-24T12:14:35Z</time>
      </trkpt>
      <trkpt lat="45.654265964403749" lon="4.409572994336486">
        <ele>656.72000000000003</ele>
        <time>2025-04-24T12:14:36Z</time>
      </trkpt>
      <trkpt lat="45.654323967173696" lon="4.409280968829989">
        <ele>656.72000000000003</ele>
        <time>2025-04-24T12:14:38Z</time>
      </trkpt>
      <trkpt lat="45.654432009905577" lon="4.40788202919066">
        <ele>652.87</ele>
        <time>2025-04-24T12:14:46Z</time>
      </trkpt>
      <trkpt lat="45.654435027390718" lon="4.407773986458778">
        <ele>651.90999999999997</ele>
        <time>2025-04-24T12:14:47Z</time>
      </trkpt>
      <trkpt lat="45.65443703904748" lon="4.407682958990336">
        <ele>650.95000000000005</ele>
        <time>2025-04-24T12:14:48Z</time>
      </trkpt>
      <trkpt lat="45.654499987140298" lon="4.407591009512544">
        <ele>650.47000000000003</ele>
        <time>2025-04-24T12:14:49Z</time>
      </trkpt>
      <trkpt lat="45.654565030708909" lon="4.407559996470809">
        <ele>649.50999999999999</ele>
        <time>2025-04-24T12:14:50Z</time>
      </trkpt>
      <trkpt lat="45.654643988236785" lon="4.407522026449442">
        <ele>649.02999999999997</ele>
        <time>2025-04-24T12:14:51Z</time>
      </trkpt>
      <trkpt lat="45.654726969078183" lon="4.407481960952282">
        <ele>648.54999999999995</ele>
        <time>2025-04-24T12:14:52Z</time>
      </trkpt>
      <trkpt lat="45.655403975397348" lon="4.407298984006047">
        <ele>644.22000000000003</ele>
        <time>2025-04-24T12:14:59Z</time>
      </trkpt>
      <trkpt lat="45.655472036451101" lon="4.4072600081563">
        <ele>643.25999999999999</ele>
        <time>2025-04-24T12:15:00Z</time>
      </trkpt>
      <trkpt lat="45.655635986477137" lon="4.407167974859476">
        <ele>641.82000000000005</ele>
        <time>2025-04-24T12:15:02Z</time>
      </trkpt>
      <trkpt lat="45.655717039480805" lon="4.407121958211064">
        <ele>640.86000000000001</ele>
        <time>2025-04-24T12:15:03Z</time>
      </trkpt>
      <trkpt lat="45.655817035585642" lon="4.407119024544954">
        <ele>639.88999999999999</ele>
        <time>2025-04-24T12:15:04Z</time>
      </trkpt>
      <trkpt lat="45.655918037518859" lon="4.407137967646122">
        <ele>638.92999999999995</ele>
        <time>2025-04-24T12:15:05Z</time>
      </trkpt>
      <trkpt lat="45.656023984774947" lon="4.407158000394702">
        <ele>637.49000000000001</ele>
        <time>2025-04-24T12:15:06Z</time>
      </trkpt>
      <trkpt lat="45.656124986708164" lon="4.407177027314901">
        <ele>636.04999999999995</ele>
        <time>2025-04-24T12:15:07Z</time>
      </trkpt>
      <trkpt lat="45.656226994469762" lon="4.407219020649791">
        <ele>634.13</ele>
        <time>2025-04-24T12:15:08Z</time>
      </trkpt>
      <trkpt lat="45.65630997531116" lon="4.407297978177667">
        <ele>632.20000000000005</ele>
        <time>2025-04-24T12:15:09Z</time>
      </trkpt>
      <trkpt lat="45.656402008607984" lon="4.407385988160968">
        <ele>630.27999999999997</ele>
        <time>2025-04-24T12:15:10Z</time>
      </trkpt>
      <trkpt lat="45.656492030248046" lon="4.407471986487508">
        <ele>628.36000000000001</ele>
        <time>2025-04-24T12:15:11Z</time>
      </trkpt>
      <trkpt lat="45.656571993604302" lon="4.407548010349274">
        <ele>626.91999999999996</ele>
        <time>2025-04-24T12:15:12Z</time>
      </trkpt>
      <trkpt lat="45.656644999980927" lon="4.407616993412376">
        <ele>624.99000000000001</ele>
        <time>2025-04-24T12:15:13Z</time>
      </trkpt>
      <trkpt lat="45.656730998307467" lon="4.407625962048769">
        <ele>623.07000000000005</ele>
        <time>2025-04-24T12:15:14Z</time>
      </trkpt>
      <trkpt lat="45.65682303160429" lon="4.407633002847433">
        <ele>621.63</ele>
        <time>2025-04-24T12:15:15Z</time>
      </trkpt>
      <trkpt lat="45.656914981082082" lon="4.407639037817717">
        <ele>620.66999999999996</ele>
        <time>2025-04-24T12:15:16Z</time>
      </trkpt>
      <trkpt lat="45.657000979408622" lon="4.40760400146246">
        <ele>619.23000000000002</ele>
        <time>2025-04-24T12:15:17Z</time>
      </trkpt>
      <trkpt lat="45.657077003270388" lon="4.407549016177654">
        <ele>617.77999999999997</ele>
        <time>2025-04-24T12:15:18Z</time>
      </trkpt>
      <trkpt lat="45.657142968848348" lon="4.407500987872481">
        <ele>616.82000000000005</ele>
        <time>2025-04-24T12:15:19Z</time>
      </trkpt>
      <trkpt lat="45.657198037952185" lon="4.407421024516225">
        <ele>615.86000000000001</ele>
        <time>2025-04-24T12:15:20Z</time>
      </trkpt>
      <trkpt lat="45.657224021852016" lon="4.407321028411388">
        <ele>614.89999999999998</ele>
        <time>2025-04-24T12:15:21Z</time>
      </trkpt>
      <trkpt lat="45.657251011580229" lon="4.407219020649791">
        <ele>613.94000000000005</ele>
        <time>2025-04-24T12:15:22Z</time>
      </trkpt>
      <trkpt lat="45.657313037663698" lon="4.406984997913241">
        <ele>612.5</ele>
        <time>2025-04-24T12:15:24Z</time>
      </trkpt>
      <trkpt lat="45.657377997413278" lon="4.406741000711918">
        <ele>611.53999999999996</ele>
        <time>2025-04-24T12:15:26Z</time>
      </trkpt>
      <trkpt lat="45.657396018505096" lon="4.406584007665515">
        <ele>611.05999999999995</ele>
        <time>2025-04-24T12:15:27Z</time>
      </trkpt>
      <trkpt lat="45.657411022111773" lon="4.406457021832466">
        <ele>610.57000000000005</ele>
        <time>2025-04-24T12:15:28Z</time>
      </trkpt>
      <trkpt lat="45.657412027940154" lon="4.406311009079218">
        <ele>610.57000000000005</ele>
        <time>2025-04-24T12:15:29Z</time>
      </trkpt>
      <trkpt lat="45.657393001019955" lon="4.406173964962363">
        <ele>610.09000000000003</ele>
        <time>2025-04-24T12:15:30Z</time>
      </trkpt>
      <trkpt lat="45.657373974099755" lon="4.406031975522637">
        <ele>610.09000000000003</ele>
        <time>2025-04-24T12:15:31Z</time>
      </trkpt>
      <trkpt lat="45.657281018793583" lon="4.405616987496615">
        <ele>609.13</ele>
        <time>2025-04-24T12:15:34Z</time>
      </trkpt>
      <trkpt lat="45.657106004655361" lon="4.404864041134715">
        <ele>607.21000000000004</ele>
        <time>2025-04-24T12:15:39Z</time>
      </trkpt>
      <trkpt lat="45.656999973580241" lon="4.403308024629951">
        <ele>601.91999999999996</ele>
        <time>2025-04-24T12:15:47Z</time>
      </trkpt>
      <trkpt lat="45.656838035210967" lon="4.401182038709521">
        <ele>599.51999999999998</ele>
        <time>2025-04-24T12:15:57Z</time>
      </trkpt>
      <trkpt lat="45.656495969742537" lon="4.399649994447827">
        <ele>600.48000000000002</ele>
        <time>2025-04-24T12:16:05Z</time>
      </trkpt>
      <trkpt lat="45.655696000903845" lon="4.397474974393845">
        <ele>600</ele>
        <time>2025-04-24T12:16:17Z</time>
      </trkpt>
      <trkpt lat="45.65478103235364" lon="4.395179003477097">
        <ele>597.60000000000002</ele>
        <time>2025-04-24T12:16:29Z</time>
      </trkpt>
      <trkpt lat="45.654187006875873" lon="4.394037974998355">
        <ele>591.83000000000004</ele>
        <time>2025-04-24T12:16:36Z</time>
      </trkpt>
      <trkpt lat="45.653982991352677" lon="4.393758019432426">
        <ele>588.46000000000004</ele>
        <time>2025-04-24T12:16:38Z</time>
      </trkpt>
      <trkpt lat="45.653885006904602" lon="4.393622986972332">
        <ele>587.01999999999998</ele>
        <time>2025-04-24T12:16:39Z</time>
      </trkpt>
      <trkpt lat="45.653841001912951" lon="4.393448978662491">
        <ele>585.58000000000004</ele>
        <time>2025-04-24T12:16:40Z</time>
      </trkpt>
      <trkpt lat="45.6538160238415" lon="4.393266001716256">
        <ele>584.62</ele>
        <time>2025-04-24T12:16:41Z</time>
      </trkpt>
      <trkpt lat="45.653791967779398" lon="4.393077995628119">
        <ele>583.65999999999997</ele>
        <time>2025-04-24T12:16:42Z</time>
      </trkpt>
      <trkpt lat="45.653766989707947" lon="4.3928889837116">
        <ele>582.70000000000005</ele>
        <time>2025-04-24T12:16:43Z</time>
      </trkpt>
      <trkpt lat="45.653720973059535" lon="4.392711035907269">
        <ele>581.73000000000002</ele>
        <time>2025-04-24T12:16:44Z</time>
      </trkpt>
      <trkpt lat="45.653647966682911" lon="4.392551025375724">
        <ele>581.73000000000002</ele>
        <time>2025-04-24T12:16:45Z</time>
      </trkpt>
      <trkpt lat="45.65357998944819" lon="4.392366036772728">
        <ele>581.73000000000002</ele>
        <time>2025-04-24T12:16:46Z</time>
      </trkpt>
      <trkpt lat="45.652886973693967" lon="4.390697032213211">
        <ele>585.10000000000002</ele>
        <time>2025-04-24T12:16:54Z</time>
      </trkpt>
      <trkpt lat="45.652303006500006" lon="4.389221984893084">
        <ele>587.5</ele>
        <time>2025-04-24T12:17:02Z</time>
      </trkpt>
      <trkpt lat="45.652122041210532" lon="4.388699037954211">
        <ele>588.46000000000004</ele>
        <time>2025-04-24T12:17:05Z</time>
      </trkpt>
      <trkpt lat="45.652110977098346" lon="4.388499967753887">
        <ele>588.46000000000004</ele>
        <time>2025-04-24T12:17:06Z</time>
      </trkpt>
      <trkpt lat="45.65209899097681" lon="4.38826602883637">
        <ele>588.46000000000004</ele>
        <time>2025-04-24T12:17:07Z</time>
      </trkpt>
      <trkpt lat="45.651975022628903" lon="4.386379010975361">
        <ele>591.35000000000002</ele>
        <time>2025-04-24T12:17:16Z</time>
      </trkpt>
      <trkpt lat="45.651652989909053" lon="4.38481000252068">
        <ele>588.95000000000005</ele>
        <time>2025-04-24T12:17:24Z</time>
      </trkpt>
      <trkpt lat="45.65164502710104" lon="4.384587965905666">
        <ele>588.46000000000004</ele>
        <time>2025-04-24T12:17:25Z</time>
      </trkpt>
      <trkpt lat="45.651629017665982" lon="4.383536959066987">
        <ele>584.13999999999999</ele>
        <time>2025-04-24T12:17:30Z</time>
      </trkpt>
      <trkpt lat="45.651676962152123" lon="4.383362028747797">
        <ele>583.17999999999995</ele>
        <time>2025-04-24T12:17:31Z</time>
      </trkpt>
      <trkpt lat="45.651736976578832" lon="4.383195983245969">
        <ele>582.22000000000003</ele>
        <time>2025-04-24T12:17:32Z</time>
      </trkpt>
      <trkpt lat="45.652182977646589" lon="4.382089991122484">
        <ele>572.12</ele>
        <time>2025-04-24T12:17:40Z</time>
      </trkpt>
      <trkpt lat="45.652202004566789" lon="4.382042968645692">
        <ele>568.27999999999997</ele>
        <time>2025-04-24T12:17:46Z</time>
      </trkpt>
      <trkpt lat="45.652202004566789" lon="4.382042968645692">
        <ele>566.35000000000002</ele>
        <time>2025-04-24T12:18:01Z</time>
      </trkpt>
      <trkpt lat="45.652202004566789" lon="4.382042968645692">
        <ele>566.83000000000004</ele>
        <time>2025-04-24T12:18:48Z</time>
      </trkpt>
      <trkpt lat="45.652202004566789" lon="4.382042968645692">
        <ele>566.83000000000004</ele>
        <time>2025-04-24T12:19:37Z</time>
      </trkpt>
      <trkpt lat="45.652202004566789" lon="4.382042968645692">
        <ele>566.83000000000004</ele>
        <time>2025-04-24T12:19:40Z</time>
      </trkpt>
      <trkpt lat="45.652202004566789" lon="4.382042968645692">
        <ele>566.83000000000004</ele>
        <time>2025-04-24T12:20:31Z</time>
      </trkpt>
      <trkpt lat="45.652202004566789" lon="4.382042968645692">
        <ele>566.83000000000004</ele>
        <time>2025-04-24T12:21:20Z</time>
      </trkpt>
      <trkpt lat="45.652202004566789" lon="4.382042968645692">
        <ele>567.32000000000005</ele>
        <time>2025-04-24T12:22:13Z</time>
      </trkpt>
      <trkpt lat="45.652202004566789" lon="4.382042968645692">
        <ele>567.79999999999995</ele>
        <time>2025-04-24T12:23:05Z</time>
      </trkpt>
      <trkpt lat="45.652202004566789" lon="4.382042968645692">
        <ele>567.79999999999995</ele>
        <time>2025-04-24T12:24:05Z</time>
      </trkpt>
      <trkpt lat="45.65222798846662" lon="4.381979014724493">
        <ele>567.79999999999995</ele>
        <time>2025-04-24T12:24:06Z</time>
      </trkpt>
      <trkpt lat="45.652233017608523" lon="4.381970968097448">
        <ele>568.27999999999997</ele>
        <time>2025-04-24T12:24:07Z</time>
      </trkpt>
      <trkpt lat="45.652254978194833" lon="4.381939033046365">
        <ele>568.27999999999997</ele>
        <time>2025-04-24T12:24:08Z</time>
      </trkpt>
      <trkpt lat="45.652281967923045" lon="4.381898967549205">
        <ele>568.27999999999997</ele>
        <time>2025-04-24T12:24:09Z</time>
      </trkpt>
      <trkpt lat="45.652317004278302" lon="4.381846999749541">
        <ele>568.27999999999997</ele>
        <time>2025-04-24T12:24:10Z</time>
      </trkpt>
      <trkpt lat="45.652353968471289" lon="4.381792014464736">
        <ele>568.27999999999997</ele>
        <time>2025-04-24T12:24:11Z</time>
      </trkpt>
      <trkpt lat="45.652389004826546" lon="4.381739962846041">
        <ele>568.75999999999999</ele>
        <time>2025-04-24T12:24:12Z</time>
      </trkpt>
      <trkpt lat="45.652683963999152" lon="4.381303014233708">
        <ele>567.32000000000005</ele>
        <time>2025-04-24T12:24:24Z</time>
      </trkpt>
      <trkpt lat="45.65295503474772" lon="4.380771014839411">
        <ele>567.32000000000005</ele>
        <time>2025-04-24T12:24:31Z</time>
      </trkpt>
      <trkpt lat="45.653258040547371" lon="4.380069030448794">
        <ele>569.72000000000003</ele>
        <time>2025-04-24T12:24:39Z</time>
      </trkpt>
      <trkpt lat="45.653354013338685" lon="4.379749009385705">
        <ele>571.15999999999997</ele>
        <time>2025-04-24T12:24:43Z</time>
      </trkpt>
      <trkpt lat="45.65336599946022" lon="4.379672985523939">
        <ele>571.63999999999999</ele>
        <time>2025-04-24T12:24:44Z</time>
      </trkpt>
      <trkpt lat="45.653376979753375" lon="4.379606014117599">
        <ele>571.63999999999999</ele>
        <time>2025-04-24T12:24:45Z</time>
      </trkpt>
      <trkpt lat="45.6533860322088" lon="4.37954499386251">
        <ele>571.63999999999999</ele>
        <time>2025-04-24T12:24:46Z</time>
      </trkpt>
      <trkpt lat="45.653396006673574" lon="4.37948296777904">
        <ele>571.63999999999999</ele>
        <time>2025-04-24T12:24:47Z</time>
      </trkpt>
      <trkpt lat="45.653405981138349" lon="4.379420019686222">
        <ele>571.15999999999997</ele>
        <time>2025-04-24T12:24:48Z</time>
      </trkpt>
      <trkpt lat="45.653416039422154" lon="4.379360005259514">
        <ele>570.67999999999995</ele>
        <time>2025-04-24T12:24:49Z</time>
      </trkpt>
      <trkpt lat="45.653430037200451" lon="4.379275012761354">
        <ele>570.20000000000005</ele>
        <time>2025-04-24T12:24:51Z</time>
      </trkpt>
      <trkpt lat="45.65355802886188" lon="4.37913897447288">
        <ele>568.27999999999997</ele>
        <time>2025-04-24T12:24:55Z</time>
      </trkpt>
      <trkpt lat="45.653597004711628" lon="4.379167975857854">
        <ele>567.79999999999995</ele>
        <time>2025-04-24T12:24:56Z</time>
      </trkpt>
      <trkpt lat="45.653641009703279" lon="4.37920100055635">
        <ele>566.83000000000004</ele>
        <time>2025-04-24T12:24:57Z</time>
      </trkpt>
      <trkpt lat="45.653691971674562" lon="4.379237964749336">
        <ele>566.83000000000004</ele>
        <time>2025-04-24T12:24:58Z</time>
      </trkpt>
      <trkpt lat="45.653747040778399" lon="4.379279036074877">
        <ele>566.35000000000002</ele>
        <time>2025-04-24T12:24:59Z</time>
      </trkpt>
      <trkpt lat="45.653918031603098" lon="4.379405016079545">
        <ele>565.38999999999999</ele>
        <time>2025-04-24T12:25:02Z</time>
      </trkpt>
      <trkpt lat="45.653975028544664" lon="4.379447009414434">
        <ele>564.90999999999997</ele>
        <time>2025-04-24T12:25:03Z</time>
      </trkpt>
      <trkpt lat="45.654469979926944" lon="4.379808017984033">
        <ele>562.02999999999997</ele>
        <time>2025-04-24T12:25:11Z</time>
      </trkpt>
      <trkpt lat="45.654594032093883" lon="4.379907008260489">
        <ele>561.07000000000005</ele>
        <time>2025-04-24T12:25:13Z</time>
      </trkpt>
      <trkpt lat="45.655263997614384" lon="4.380419980734587">
        <ele>560.11000000000001</ele>
        <time>2025-04-24T12:25:21Z</time>
      </trkpt>
      <trkpt lat="45.655726008117199" lon="4.380733966827393">
        <ele>555.77999999999997</ele>
        <time>2025-04-24T12:25:26Z</time>
      </trkpt>
      <trkpt lat="45.655812006443739" lon="4.380859024822712">
        <ele>554.82000000000005</ele>
        <time>2025-04-24T12:25:27Z</time>
      </trkpt>
      <trkpt lat="45.655965982005" lon="4.381081983447075">
        <ele>553.86000000000001</ele>
        <time>2025-04-24T12:25:29Z</time>
      </trkpt>
      <trkpt lat="45.656593032181263" lon="4.382656021043658">
        <ele>542.32000000000005</ele>
        <time>2025-04-24T12:25:39Z</time>
      </trkpt>
      <trkpt lat="45.657055964693427" lon="4.384467015042901">
        <ele>534.14999999999998</ele>
        <time>2025-04-24T12:25:49Z</time>
      </trkpt>
      <trkpt lat="45.657635992392898" lon="4.385961005464196">
        <ele>525.5</ele>
        <time>2025-04-24T12:25:59Z</time>
      </trkpt>
      <trkpt lat="45.658398997038603" lon="4.38712902367115">
        <ele>515.88</ele>
        <time>2025-04-24T12:26:08Z</time>
      </trkpt>
      <trkpt lat="45.659094024449587" lon="4.387900996953249">
        <ele>504.82999999999998</ele>
        <time>2025-04-24T12:26:14Z</time>
      </trkpt>
      <trkpt lat="45.659217992797494" lon="4.387984983623028">
        <ele>502.43000000000001</ele>
        <time>2025-04-24T12:26:15Z</time>
      </trkpt>
      <trkpt lat="45.659637004137039" lon="4.38826896250248">
        <ele>495.22000000000003</ele>
        <time>2025-04-24T12:26:19Z</time>
      </trkpt>
      <trkpt lat="45.659695006906986" lon="4.38830902799964">
        <ele>493.76999999999998</ele>
        <time>2025-04-24T12:26:20Z</time>
      </trkpt>
      <trkpt lat="45.659763989970088" lon="4.388285977765918">
        <ele>492.32999999999998</ele>
        <time>2025-04-24T12:26:21Z</time>
      </trkpt>
      <trkpt lat="45.659835990518332" lon="4.388241972774267">
        <ele>490.88999999999999</ele>
        <time>2025-04-24T12:26:22Z</time>
      </trkpt>
      <trkpt lat="45.659885024651885" lon="4.388138959184289">
        <ele>489.93000000000001</ele>
        <time>2025-04-24T12:26:23Z</time>
      </trkpt>
      <trkpt lat="45.659936992451549" lon="4.388029994443059">
        <ele>488.00999999999999</ele>
        <time>2025-04-24T12:26:24Z</time>
      </trkpt>
      <trkpt lat="45.659992983564734" lon="4.387914994731545">
        <ele>486.56</ele>
        <time>2025-04-24T12:26:25Z</time>
      </trkpt>
      <trkpt lat="45.660103037953377" lon="4.387686001136899">
        <ele>483.68000000000001</ele>
        <time>2025-04-24T12:26:27Z</time>
      </trkpt>
      <trkpt lat="45.660184007138014" lon="4.387637972831726">
        <ele>482.24000000000001</ele>
        <time>2025-04-24T12:26:28Z</time>
      </trkpt>
      <trkpt lat="45.660264976322651" lon="4.387589022517204">
        <ele>481.27999999999997</ele>
        <time>2025-04-24T12:26:29Z</time>
      </trkpt>
      <trkpt lat="45.660344017669559" lon="4.38755800947547">
        <ele>480.31999999999999</ele>
        <time>2025-04-24T12:26:30Z</time>
      </trkpt>
      <trkpt lat="45.660442002117634" lon="4.38755800947547">
        <ele>479.35000000000002</ele>
        <time>2025-04-24T12:26:31Z</time>
      </trkpt>
      <trkpt lat="45.660534035414457" lon="4.387569995597005">
        <ele>479.35000000000002</ele>
        <time>2025-04-24T12:26:32Z</time>
      </trkpt>
      <trkpt lat="45.660630008205771" lon="4.387622969225049">
        <ele>479.35000000000002</ele>
        <time>2025-04-24T12:26:33Z</time>
      </trkpt>
      <trkpt lat="45.660723969340324" lon="4.387675020843744">
        <ele>479.35000000000002</ele>
        <time>2025-04-24T12:26:34Z</time>
      </trkpt>
      <trkpt lat="45.66081902012229" lon="4.387726988643408">
        <ele>479.35000000000002</ele>
        <time>2025-04-24T12:26:35Z</time>
      </trkpt>
      <trkpt lat="45.660907030105591" lon="4.387775016948581">
        <ele>479.83999999999997</ele>
        <time>2025-04-24T12:26:36Z</time>
      </trkpt>
      <trkpt lat="45.660995040088892" lon="4.387784991413355">
        <ele>480.31999999999999</ele>
        <time>2025-04-24T12:26:37Z</time>
      </trkpt>
      <trkpt lat="45.661086989566684" lon="4.387735035270453">
        <ele>481.27999999999997</ele>
        <time>2025-04-24T12:26:38Z</time>
      </trkpt>
      <trkpt lat="45.661133006215096" lon="4.38764400780201">
        <ele>481.75999999999999</ele>
        <time>2025-04-24T12:26:39Z</time>
      </trkpt>
      <trkpt lat="45.661196960136294" lon="4.3875150103122">
        <ele>483.19999999999999</ele>
        <time>2025-04-24T12:26:40Z</time>
      </trkpt>
      <trkpt lat="45.661225039511919" lon="4.387397998943925">
        <ele>484.16000000000003</ele>
        <time>2025-04-24T12:26:41Z</time>
      </trkpt>
      <trkpt lat="45.661369040608406" lon="4.386739013716579">
        <ele>488.00999999999999</ele>
        <time>2025-04-24T12:26:45Z</time>
      </trkpt>
      <trkpt lat="45.661369040608406" lon="4.386595012620091">
        <ele>488.97000000000003</ele>
        <time>2025-04-24T12:26:46Z</time>
      </trkpt>
      <trkpt lat="45.661334004253149" lon="4.386481018736959">
        <ele>489.93000000000001</ele>
        <time>2025-04-24T12:26:47Z</time>
      </trkpt>
      <trkpt lat="45.66129301674664" lon="4.386374987661839">
        <ele>490.88999999999999</ele>
        <time>2025-04-24T12:26:48Z</time>
      </trkpt>
      <trkpt lat="45.661255968734622" lon="4.386280020698905">
        <ele>491.37</ele>
        <time>2025-04-24T12:26:49Z</time>
      </trkpt>
      <trkpt lat="45.661211963742971" lon="4.3860989715904">
        <ele>492.32999999999998</ele>
        <time>2025-04-24T12:26:51Z</time>
      </trkpt>
      <trkpt lat="45.661205006763339" lon="4.386016996577382">
        <ele>492.81</ele>
        <time>2025-04-24T12:26:52Z</time>
      </trkpt>
      <trkpt lat="45.661197965964675" lon="4.385940972715616">
        <ele>492.81</ele>
        <time>2025-04-24T12:26:53Z</time>
      </trkpt>
      <trkpt lat="45.661226967349648" lon="4.385866960510612">
        <ele>492.81</ele>
        <time>2025-04-24T12:26:54Z</time>
      </trkpt>
      <trkpt lat="45.661269966512918" lon="4.385843994095922">
        <ele>493.29000000000002</ele>
        <time>2025-04-24T12:26:55Z</time>
      </trkpt>
      <trkpt lat="45.661334004253149" lon="4.385850029066205">
        <ele>493.29000000000002</ele>
        <time>2025-04-24T12:26:56Z</time>
      </trkpt>
      <trkpt lat="45.661408016458154" lon="4.385856986045837">
        <ele>493.29000000000002</ele>
        <time>2025-04-24T12:26:57Z</time>
      </trkpt>
      <trkpt lat="45.66148404031992" lon="4.385864026844502">
        <ele>493.76999999999998</ele>
        <time>2025-04-24T12:26:58Z</time>
      </trkpt>
      <trkpt lat="45.661686966195703" lon="4.385882969945669">
        <ele>497.13999999999999</ele>
        <time>2025-04-24T12:27:04Z</time>
      </trkpt>
      <trkpt lat="45.661698030307889" lon="4.385828990489245">
        <ele>497.62</ele>
        <time>2025-04-24T12:27:05Z</time>
      </trkpt>
      <trkpt lat="45.661711022257805" lon="4.385734023526311">
        <ele>498.10000000000002</ele>
        <time>2025-04-24T12:27:06Z</time>
      </trkpt>
      <trkpt lat="45.661726025864482" lon="4.385621035471559">
        <ele>498.57999999999998</ele>
        <time>2025-04-24T12:27:07Z</time>
      </trkpt>
      <trkpt lat="45.661753015592694" lon="4.385492037981749">
        <ele>499.06</ele>
        <time>2025-04-24T12:27:08Z</time>
      </trkpt>
      <trkpt lat="45.6617889739573" lon="4.385360023006797">
        <ele>499.54000000000002</ele>
        <time>2025-04-24T12:27:09Z</time>
      </trkpt>
      <trkpt lat="45.662232963368297" lon="4.384106006473303">
        <ele>502.43000000000001</ele>
        <time>2025-04-24T12:27:16Z</time>
      </trkpt>
      <trkpt lat="45.663106022402644" lon="4.382751993834972">
        <ele>505.79000000000002</ele>
        <time>2025-04-24T12:27:23Z</time>
      </trkpt>
      <trkpt lat="45.663364017382264" lon="4.382386039942503">
        <ele>507.23000000000002</ele>
        <time>2025-04-24T12:27:25Z</time>
      </trkpt>
      <trkpt lat="45.663425959646702" lon="4.382186969742179">
        <ele>507.70999999999998</ele>
        <time>2025-04-24T12:27:26Z</time>
      </trkpt>
      <trkpt lat="45.663441969081759" lon="4.381960993632674">
        <ele>508.19</ele>
        <time>2025-04-24T12:27:27Z</time>
      </trkpt>
      <trkpt lat="45.663428977131844" lon="4.381730994209647">
        <ele>508.67000000000002</ele>
        <time>2025-04-24T12:27:28Z</time>
      </trkpt>
      <trkpt lat="45.663371980190277" lon="4.381509041413665">
        <ele>509.16000000000003</ele>
        <time>2025-04-24T12:27:29Z</time>
      </trkpt>
      <trkpt lat="45.663307020440698" lon="4.381272001191974">
        <ele>509.63999999999999</ele>
        <time>2025-04-24T12:27:30Z</time>
      </trkpt>
      <trkpt lat="45.662825983017683" lon="4.379563014954329">
        <ele>513.48000000000002</ele>
        <time>2025-04-24T12:27:37Z</time>
      </trkpt>
      <trkpt lat="45.662717018276453" lon="4.379375008866191">
        <ele>513.48000000000002</ele>
        <time>2025-04-24T12:27:38Z</time>
      </trkpt>
      <trkpt lat="45.662571005523205" lon="4.379219021648169">
        <ele>513.96000000000004</ele>
        <time>2025-04-24T12:27:39Z</time>
      </trkpt>
      <trkpt lat="45.662429016083479" lon="4.379084995016456">
        <ele>513.96000000000004</ele>
        <time>2025-04-24T12:27:40Z</time>
      </trkpt>
      <trkpt lat="45.66225903108716" lon="4.378992039710283">
        <ele>514.44000000000005</ele>
        <time>2025-04-24T12:27:41Z</time>
      </trkpt>
      <trkpt lat="45.662097008898854" lon="4.378883996978402">
        <ele>514.44000000000005</ele>
        <time>2025-04-24T12:27:42Z</time>
      </trkpt>
      <trkpt lat="45.661945967003703" lon="4.378748964518309">
        <ele>515.39999999999998</ele>
        <time>2025-04-24T12:27:43Z</time>
      </trkpt>
      <trkpt lat="45.661801965907216" lon="4.378588031977415">
        <ele>515.88</ele>
        <time>2025-04-24T12:27:44Z</time>
      </trkpt>
      <trkpt lat="45.661655031144619" lon="4.37842701561749">
        <ele>516.37</ele>
        <time>2025-04-24T12:27:45Z</time>
      </trkpt>
      <trkpt lat="45.661490997299552" lon="4.37829801812768">
        <ele>516.85000000000002</ele>
        <time>2025-04-24T12:27:46Z</time>
      </trkpt>
      <trkpt lat="45.661176005378366" lon="4.378052009269595">
        <ele>517.80999999999995</ele>
        <time>2025-04-24T12:27:48Z</time>
      </trkpt>
      <trkpt lat="45.661047007888556" lon="4.377879006788135">
        <ele>517.80999999999995</ele>
        <time>2025-04-24T12:27:49Z</time>
      </trkpt>
      <trkpt lat="45.660936031490564" lon="4.377665016800165">
        <ele>518.28999999999996</ele>
        <time>2025-04-24T12:27:50Z</time>
      </trkpt>
      <trkpt lat="45.66082295961678" lon="4.377445997670293">
        <ele>519.25</ele>
        <time>2025-04-24T12:27:51Z</time>
      </trkpt>
      <trkpt lat="45.660704020410776" lon="4.377214992418885">
        <ele>520.21000000000004</ele>
        <time>2025-04-24T12:27:52Z</time>
      </trkpt>
      <trkpt lat="45.660547027364373" lon="4.377073002979159">
        <ele>520.69000000000005</ele>
        <time>2025-04-24T12:27:53Z</time>
      </trkpt>
      <trkpt lat="45.66036899574101" lon="4.37694501131773">
        <ele>521.16999999999996</ele>
        <time>2025-04-24T12:27:54Z</time>
      </trkpt>
      <trkpt lat="45.660184007138014" lon="4.376835040748119">
        <ele>521.64999999999998</ele>
        <time>2025-04-24T12:27:55Z</time>
      </trkpt>
      <trkpt lat="45.659065023064613" lon="4.376076981425285">
        <ele>524.53999999999996</ele>
        <time>2025-04-24T12:28:01Z</time>
      </trkpt>
      <trkpt lat="45.658895038068295" lon="4.375906996428967">
        <ele>525.01999999999998</ele>
        <time>2025-04-24T12:28:02Z</time>
      </trkpt>
      <trkpt lat="45.65875899977982" lon="4.375680014491081">
        <ele>525.5</ele>
        <time>2025-04-24T12:28:03Z</time>
      </trkpt>
      <trkpt lat="45.658641988411546" lon="4.375436017289758">
        <ele>526.46000000000004</ele>
        <time>2025-04-24T12:28:04Z</time>
      </trkpt>
      <trkpt lat="45.6585200317204" lon="4.375199982896447">
        <ele>526.94000000000005</ele>
        <time>2025-04-24T12:28:05Z</time>
      </trkpt>
      <trkpt lat="45.658392962068319" lon="4.374971995130181">
        <ele>527.41999999999996</ele>
        <time>2025-04-24T12:28:06Z</time>
      </trkpt>
      <trkpt lat="45.65826203674078" lon="4.374749036505818">
        <ele>527.89999999999998</ele>
        <time>2025-04-24T12:28:07Z</time>
      </trkpt>
      <trkpt lat="45.658100014552474" lon="4.374563964083791">
        <ele>528.38</ele>
        <time>2025-04-24T12:28:08Z</time>
      </trkpt>
      <trkpt lat="45.657333992421627" lon="4.373527960851789">
        <ele>530.78999999999996</ele>
        <time>2025-04-24T12:28:13Z</time>
      </trkpt>
      <trkpt lat="45.657222010195255" lon="4.373268038034439">
        <ele>531.26999999999998</ele>
        <time>2025-04-24T12:28:14Z</time>
      </trkpt>
      <trkpt lat="45.657139029353857" lon="4.372983975335956">
        <ele>532.23000000000002</ele>
        <time>2025-04-24T12:28:15Z</time>
      </trkpt>
      <trkpt lat="45.657055964693427" lon="4.372687004506588">
        <ele>532.71000000000004</ele>
        <time>2025-04-24T12:28:16Z</time>
      </trkpt>
      <trkpt lat="45.657020006328821" lon="4.372408976778388">
        <ele>532.71000000000004</ele>
        <time>2025-04-24T12:28:17Z</time>
      </trkpt>
      <trkpt lat="45.656984969973564" lon="4.372137989848852">
        <ele>533.19000000000005</ele>
        <time>2025-04-24T12:28:18Z</time>
      </trkpt>
      <trkpt lat="45.656855972483754" lon="4.371183039620519">
        <ele>535.11000000000001</ele>
        <time>2025-04-24T12:28:22Z</time>
      </trkpt>
      <trkpt lat="45.656797969713807" lon="4.370988998562098">
        <ele>535.59000000000003</ele>
        <time>2025-04-24T12:28:23Z</time>
      </trkpt>
      <trkpt lat="45.656738961115479" lon="4.370794035494328">
        <ele>536.07000000000005</ele>
        <time>2025-04-24T12:28:24Z</time>
      </trkpt>
      <trkpt lat="45.656612981110811" lon="4.370662020519376">
        <ele>536.07000000000005</ele>
        <time>2025-04-24T12:28:25Z</time>
      </trkpt>
      <trkpt lat="45.656477026641369" lon="4.370532017201185">
        <ele>536.54999999999995</ele>
        <time>2025-04-24T12:28:26Z</time>
      </trkpt>
      <trkpt lat="45.656335037201643" lon="4.370396984741092">
        <ele>537.02999999999997</ele>
        <time>2025-04-24T12:28:27Z</time>
      </trkpt>
      <trkpt lat="45.655286964029074" lon="4.369237013161182">
        <ele>540.39999999999998</ele>
        <time>2025-04-24T12:28:35Z</time>
      </trkpt>
      <trkpt lat="45.654987981542945" lon="4.368942975997925">
        <ele>541.36000000000001</ele>
        <time>2025-04-24T12:28:38Z</time>
      </trkpt>
      <trkpt lat="45.654883040115237" lon="4.368893019855022">
        <ele>541.36000000000001</ele>
        <time>2025-04-24T12:28:39Z</time>
      </trkpt>
      <trkpt lat="45.654767034575343" lon="4.368843985721469">
        <ele>541.36000000000001</ele>
        <time>2025-04-24T12:28:40Z</time>
      </trkpt>
      <trkpt lat="45.653722984716296" lon="4.368634019047022">
        <ele>541.84000000000003</ele>
        <time>2025-04-24T12:28:49Z</time>
      </trkpt>
      <trkpt lat="45.652758982032537" lon="4.368354985490441">
        <ele>542.32000000000005</ele>
        <time>2025-04-24T12:28:58Z</time>
      </trkpt>
      <trkpt lat="45.651221992447972" lon="4.367812005802989">
        <ele>538.48000000000002</ele>
        <time>2025-04-24T12:29:07Z</time>
      </trkpt>
      <trkpt lat="45.649675028398633" lon="4.367218986153603">
        <ele>532.71000000000004</ele>
        <time>2025-04-24T12:29:15Z</time>
      </trkpt>
      <trkpt lat="45.649546030908823" lon="4.367108009755611">
        <ele>531.75</ele>
        <time>2025-04-24T12:29:16Z</time>
      </trkpt>
      <trkpt lat="45.649414015933871" lon="4.366893013939261">
        <ele>531.26999999999998</ele>
        <time>2025-04-24T12:29:17Z</time>
      </trkpt>
      <trkpt lat="45.649309996515512" lon="4.366722023114562">
        <ele>530.78999999999996</ele>
        <time>2025-04-24T12:29:18Z</time>
      </trkpt>
      <trkpt lat="45.64913397654891" lon="4.366592019796372">
        <ele>529.82000000000005</ele>
        <time>2025-04-24T12:29:19Z</time>
      </trkpt>
      <trkpt lat="45.648985030129552" lon="4.366481965407729">
        <ele>529.34000000000003</ele>
        <time>2025-04-24T12:29:20Z</time>
      </trkpt>
      <trkpt lat="45.648835999891162" lon="4.366371994838119">
        <ele>528.38</ele>
        <time>2025-04-24T12:29:21Z</time>
      </trkpt>
      <trkpt lat="45.648693004623055" lon="4.366248026490212">
        <ele>527.41999999999996</ele>
        <time>2025-04-24T12:29:22Z</time>
      </trkpt>
      <trkpt lat="45.648566018790007" lon="4.36609597876668">
        <ele>526.94000000000005</ele>
        <time>2025-04-24T12:29:23Z</time>
      </trkpt>
      <trkpt lat="45.648483037948608" lon="4.365919958800077">
        <ele>525.98000000000002</ele>
        <time>2025-04-24T12:29:24Z</time>
      </trkpt>
      <trkpt lat="45.648429980501533" lon="4.365734970197082">
        <ele>525.01999999999998</ele>
        <time>2025-04-24T12:29:25Z</time>
      </trkpt>
      <trkpt lat="45.648417994379997" lon="4.365513017401099">
        <ele>524.53999999999996</ele>
        <time>2025-04-24T12:29:26Z</time>
      </trkpt>
      <trkpt lat="45.648406008258462" lon="4.365274971351028">
        <ele>523.58000000000004</ele>
        <time>2025-04-24T12:29:27Z</time>
      </trkpt>
      <trkpt lat="45.648393016308546" lon="4.365025022998452">
        <ele>523.09000000000003</ele>
        <time>2025-04-24T12:29:28Z</time>
      </trkpt>
      <trkpt lat="45.648349011316895" lon="4.364769039675593">
        <ele>522.13</ele>
        <time>2025-04-24T12:29:29Z</time>
      </trkpt>
      <trkpt lat="45.648279022425413" lon="4.364524036645889">
        <ele>521.16999999999996</ele>
        <time>2025-04-24T12:29:30Z</time>
      </trkpt>
      <trkpt lat="45.648086993023753" lon="4.364061020314694">
        <ele>519.25</ele>
        <time>2025-04-24T12:29:32Z</time>
      </trkpt>
      <trkpt lat="45.64805899746716" lon="4.363815011456609">
        <ele>517.80999999999995</ele>
        <time>2025-04-24T12:29:33Z</time>
      </trkpt>
      <trkpt lat="45.647894963622093" lon="4.362349016591907">
        <ele>512.51999999999998</ele>
        <time>2025-04-24T12:29:38Z</time>
      </trkpt>
      <trkpt lat="45.647919019684196" lon="4.36205699108541">
        <ele>511.56</ele>
        <time>2025-04-24T12:29:39Z</time>
      </trkpt>
      <trkpt lat="45.648000994697213" lon="4.36126297339797">
        <ele>508.19</ele>
        <time>2025-04-24T12:29:42Z</time>
      </trkpt>
      <trkpt lat="45.647989008575678" lon="4.361026016995311">
        <ele>506.75</ele>
        <time>2025-04-24T12:29:43Z</time>
      </trkpt>
      <trkpt lat="45.647936034947634" lon="4.360886039212346">
        <ele>505.31</ele>
        <time>2025-04-24T12:29:44Z</time>
      </trkpt>
      <trkpt lat="45.647826986387372" lon="4.36070297844708">
        <ele>503.87</ele>
        <time>2025-04-24T12:29:45Z</time>
      </trkpt>
      <trkpt lat="45.647709975019097" lon="4.360556965693831">
        <ele>502.43000000000001</ele>
        <time>2025-04-24T12:29:46Z</time>
      </trkpt>
      <trkpt lat="45.647574020549655" lon="4.360397960990667">
        <ele>500.98000000000002</ele>
        <time>2025-04-24T12:29:47Z</time>
      </trkpt>
      <trkpt lat="45.647420966997743" lon="4.360220013186336">
        <ele>500.01999999999998</ele>
        <time>2025-04-24T12:29:48Z</time>
      </trkpt>
      <trkpt lat="45.647304961457849" lon="4.360000994056463">
        <ele>498.57999999999998</ele>
        <time>2025-04-24T12:29:49Z</time>
      </trkpt>
      <trkpt lat="45.64707001671195" lon="4.359560022130609">
        <ele>495.69999999999999</ele>
        <time>2025-04-24T12:29:51Z</time>
      </trkpt>
      <trkpt lat="45.646989969536662" lon="4.359345026314259">
        <ele>494.25999999999999</ele>
        <time>2025-04-24T12:29:52Z</time>
      </trkpt>
      <trkpt lat="45.646928027272224" lon="4.359146961942315">
        <ele>493.29000000000002</ele>
        <time>2025-04-24T12:29:53Z</time>
      </trkpt>
      <trkpt lat="45.646936995908618" lon="4.358948981389403">
        <ele>491.85000000000002</ele>
        <time>2025-04-24T12:29:54Z</time>
      </trkpt>
      <trkpt lat="45.647000027820468" lon="4.358759969472885">
        <ele>490.88999999999999</ele>
        <time>2025-04-24T12:29:55Z</time>
      </trkpt>
      <trkpt lat="45.647071022540331" lon="4.358547991141677">
        <ele>489.93000000000001</ele>
        <time>2025-04-24T12:29:56Z</time>
      </trkpt>
      <trkpt lat="45.647141011431813" lon="4.358326038345695">
        <ele>489.44999999999999</ele>
        <time>2025-04-24T12:29:57Z</time>
      </trkpt>
      <trkpt lat="45.647189039736986" lon="4.358110036700964">
        <ele>488.00999999999999</ele>
        <time>2025-04-24T12:29:58Z</time>
      </trkpt>
      <trkpt lat="45.647202031686902" lon="4.35786796733737">
        <ele>487.05000000000001</ele>
        <time>2025-04-24T12:29:59Z</time>
      </trkpt>
      <trkpt lat="45.6471779756248" lon="4.357623970136046">
        <ele>486.07999999999998</ele>
        <time>2025-04-24T12:30:00Z</time>
      </trkpt>
      <trkpt lat="45.647120978683233" lon="4.357323981821537">
        <ele>485.12</ele>
        <time>2025-04-24T12:30:01Z</time>
      </trkpt>
      <trkpt lat="45.647056018933654" lon="4.357103034853935">
        <ele>484.16000000000003</ele>
        <time>2025-04-24T12:30:02Z</time>
      </trkpt>
      <trkpt lat="45.64689802005887" lon="4.356613028794527">
        <ele>482.24000000000001</ele>
        <time>2025-04-24T12:30:04Z</time>
      </trkpt>
      <trkpt lat="45.646841023117304" lon="4.356372971087694">
        <ele>481.27999999999997</ele>
        <time>2025-04-24T12:30:05Z</time>
      </trkpt>
      <trkpt lat="45.646801041439176" lon="4.356134003028274">
        <ele>480.31999999999999</ele>
        <time>2025-04-24T12:30:06Z</time>
      </trkpt>
      <trkpt lat="45.646806992590427" lon="4.355904003605247">
        <ele>479.35000000000002</ele>
        <time>2025-04-24T12:30:07Z</time>
      </trkpt>
      <trkpt lat="45.646813027560711" lon="4.355682972818613">
        <ele>478.38999999999999</ele>
        <time>2025-04-24T12:30:08Z</time>
      </trkpt>
      <trkpt lat="45.646820990368724" lon="4.355273013934493">
        <ele>476.94999999999999</ele>
        <time>2025-04-24T12:30:10Z</time>
      </trkpt>
      <trkpt lat="45.646799029782414" lon="4.355070004239678">
        <ele>475.99000000000001</ele>
        <time>2025-04-24T12:30:11Z</time>
      </trkpt>
      <trkpt lat="45.646474985405803" lon="4.35361297801137">
        <ele>473.58999999999997</ele>
        <time>2025-04-24T12:30:18Z</time>
      </trkpt>
      <trkpt lat="45.646412959322333" lon="4.3534180149436">
        <ele>473.11000000000001</ele>
        <time>2025-04-24T12:30:19Z</time>
      </trkpt>
      <trkpt lat="45.646351017057896" lon="4.353211987763643">
        <ele>473.11000000000001</ele>
        <time>2025-04-24T12:30:20Z</time>
      </trkpt>
      <trkpt lat="45.64608003012836" lon="4.352636989206076">
        <ele>473.11000000000001</ele>
        <time>2025-04-24T12:30:23Z</time>
      </trkpt>
      <trkpt lat="45.645923037081957" lon="4.352198028936982">
        <ele>472.63</ele>
        <time>2025-04-24T12:30:25Z</time>
      </trkpt>
      <trkpt lat="45.645874002948403" lon="4.351961994543672">
        <ele>472.13999999999999</ele>
        <time>2025-04-24T12:30:26Z</time>
      </trkpt>
      <trkpt lat="45.645839972421527" lon="4.351713974028826">
        <ele>472.13999999999999</ele>
        <time>2025-04-24T12:30:27Z</time>
      </trkpt>
      <trkpt lat="45.645816000178456" lon="4.351464025676251">
        <ele>471.66000000000003</ele>
        <time>2025-04-24T12:30:28Z</time>
      </trkpt>
      <trkpt lat="45.645817006006837" lon="4.351192032918334">
        <ele>471.66000000000003</ele>
        <time>2025-04-24T12:30:29Z</time>
      </trkpt>
      <trkpt lat="45.645823962986469" lon="4.350923979654908">
        <ele>471.18000000000001</ele>
        <time>2025-04-24T12:30:30Z</time>
      </trkpt>
      <trkpt lat="45.645913984626532" lon="4.347463008016348">
        <ele>467.81999999999999</ele>
        <time>2025-04-24T12:30:43Z</time>
      </trkpt>
      <trkpt lat="45.645693959668279" lon="4.344726987183094">
        <ele>463.49000000000001</ele>
        <time>2025-04-24T12:30:53Z</time>
      </trkpt>
      <trkpt lat="45.645549958571792" lon="4.343921989202499">
        <ele>462.05000000000001</ele>
        <time>2025-04-24T12:30:56Z</time>
      </trkpt>
      <trkpt lat="45.645449962466955" lon="4.343683021143079">
        <ele>461.56999999999999</ele>
        <time>2025-04-24T12:30:57Z</time>
      </trkpt>
      <trkpt lat="45.645349966362119" lon="4.343440029770136">
        <ele>461.08999999999997</ele>
        <time>2025-04-24T12:30:58Z</time>
      </trkpt>
      <trkpt lat="45.644456036388874" lon="4.341460978612304">
        <ele>457.24000000000001</ele>
        <time>2025-04-24T12:31:06Z</time>
      </trkpt>
      <trkpt lat="45.644083041697741" lon="4.340437967330217">
        <ele>456.27999999999997</ele>
        <time>2025-04-24T12:31:10Z</time>
      </trkpt>
      <trkpt lat="45.644038030877709" lon="4.340165974572301">
        <ele>456.27999999999997</ele>
        <time>2025-04-24T12:31:11Z</time>
      </trkpt>
      <trkpt lat="45.644000982865691" lon="4.339891970157623">
        <ele>456.27999999999997</ele>
        <time>2025-04-24T12:31:12Z</time>
      </trkpt>
      <trkpt lat="45.643736030906439" lon="4.336689999327064">
        <ele>453.39999999999998</ele>
        <time>2025-04-24T12:31:23Z</time>
      </trkpt>
      <trkpt lat="45.64378397539258" lon="4.33642596937716">
        <ele>453.39999999999998</ele>
        <time>2025-04-24T12:31:24Z</time>
      </trkpt>
      <trkpt lat="45.643862010911107" lon="4.336175015196204">
        <ele>452.92000000000002</ele>
        <time>2025-04-24T12:31:25Z</time>
      </trkpt>
      <trkpt lat="45.643944991752505" lon="4.335910985246301">
        <ele>452.92000000000002</ele>
        <time>2025-04-24T12:31:26Z</time>
      </trkpt>
      <trkpt lat="45.644081030040979" lon="4.335678974166513">
        <ele>452.92000000000002</ele>
        <time>2025-04-24T12:31:27Z</time>
      </trkpt>
      <trkpt lat="45.644223019480705" lon="4.335440006107092">
        <ele>453.39999999999998</ele>
        <time>2025-04-24T12:31:28Z</time>
      </trkpt>
      <trkpt lat="45.644371965900064" lon="4.335214029997587">
        <ele>453.39999999999998</ele>
        <time>2025-04-24T12:31:29Z</time>
      </trkpt>
      <trkpt lat="45.644529964774847" lon="4.334997022524476">
        <ele>453.39999999999998</ele>
        <time>2025-04-24T12:31:30Z</time>
      </trkpt>
      <trkpt lat="45.644690981134772" lon="4.334773980081081">
        <ele>452.92000000000002</ele>
        <time>2025-04-24T12:31:31Z</time>
      </trkpt>
      <trkpt lat="45.644811009988189" lon="4.33449100703001">
        <ele>452.92000000000002</ele>
        <time>2025-04-24T12:31:32Z</time>
      </trkpt>
      <trkpt lat="45.644906982779503" lon="4.334204010665417">
        <ele>452.92000000000002</ele>
        <time>2025-04-24T12:31:33Z</time>
      </trkpt>
      <trkpt lat="45.644994992762804" lon="4.333907039836049">
        <ele>453.39999999999998</ele>
        <time>2025-04-24T12:31:34Z</time>
      </trkpt>
      <trkpt lat="45.64505198970437" lon="4.333595987409353">
        <ele>453.39999999999998</ele>
        <time>2025-04-24T12:31:35Z</time>
      </trkpt>
      <trkpt lat="45.645089037716389" lon="4.333294993266463">
        <ele>453.39999999999998</ele>
        <time>2025-04-24T12:31:36Z</time>
      </trkpt>
      <trkpt lat="45.645124996080995" lon="4.333001039922237">
        <ele>453.39999999999998</ele>
        <time>2025-04-24T12:31:37Z</time>
      </trkpt>
      <trkpt lat="45.645133964717388" lon="4.332699039950967">
        <ele>452.92000000000002</ele>
        <time>2025-04-24T12:31:38Z</time>
      </trkpt>
      <trkpt lat="45.645103035494685" lon="4.332398967817426">
        <ele>452.92000000000002</ele>
        <time>2025-04-24T12:31:39Z</time>
      </trkpt>
      <trkpt lat="45.64507101662457" lon="4.332087999209762">
        <ele>452.92000000000002</ele>
        <time>2025-04-24T12:31:40Z</time>
      </trkpt>
      <trkpt lat="45.644888039678335" lon="4.32914100587368">
        <ele>451</ele>
        <time>2025-04-24T12:31:49Z</time>
      </trkpt>
      <trkpt lat="45.644971020519733" lon="4.327641986310482">
        <ele>450.02999999999997</ele>
        <time>2025-04-24T12:31:54Z</time>
      </trkpt>
      <trkpt lat="45.644999016076326" lon="4.327372005209327">
        <ele>450.02999999999997</ele>
        <time>2025-04-24T12:31:55Z</time>
      </trkpt>
      <trkpt lat="45.645009996369481" lon="4.327101018279791">
        <ele>450.02999999999997</ele>
        <time>2025-04-24T12:31:56Z</time>
      </trkpt>
      <trkpt lat="45.644945036619902" lon="4.326256038621068">
        <ele>449.55000000000001</ele>
        <time>2025-04-24T12:31:59Z</time>
      </trkpt>
      <trkpt lat="45.644812015816569" lon="4.325081985443831">
        <ele>448.11000000000001</ele>
        <time>2025-04-24T12:32:03Z</time>
      </trkpt>
      <trkpt lat="45.644811009988189" lon="4.324781997129321">
        <ele>447.63</ele>
        <time>2025-04-24T12:32:04Z</time>
      </trkpt>
      <trkpt lat="45.644819978624582" lon="4.324487037956715">
        <ele>447.14999999999998</ele>
        <time>2025-04-24T12:32:05Z</time>
      </trkpt>
      <trkpt lat="45.644848980009556" lon="4.324188977479935">
        <ele>447.14999999999998</ele>
        <time>2025-04-24T12:32:06Z</time>
      </trkpt>
      <trkpt lat="45.64490002579987" lon="4.323903992772102">
        <ele>446.67000000000002</ele>
        <time>2025-04-24T12:32:07Z</time>
      </trkpt>
      <trkpt lat="45.644970014691353" lon="4.323618002235889">
        <ele>446.19</ele>
        <time>2025-04-24T12:32:08Z</time>
      </trkpt>
      <trkpt lat="45.645064981654286" lon="4.323355983942747">
        <ele>445.23000000000002</ele>
        <time>2025-04-24T12:32:09Z</time>
      </trkpt>
      <trkpt lat="45.645159026607871" lon="4.323097988963127">
        <ele>444.75</ele>
        <time>2025-04-24T12:32:10Z</time>
      </trkpt>
      <trkpt lat="45.645401012152433" lon="4.322636984288693">
        <ele>443.79000000000002</ele>
        <time>2025-04-24T12:32:12Z</time>
      </trkpt>
      <trkpt lat="45.646356968209147" lon="4.321108963340521">
        <ele>442.33999999999997</ele>
        <time>2025-04-24T12:32:19Z</time>
      </trkpt>
      <trkpt lat="45.647161966189742" lon="4.319824017584324">
        <ele>439.45999999999998</ele>
        <time>2025-04-24T12:32:26Z</time>
      </trkpt>
      <trkpt lat="45.647378973662853" lon="4.319477006793022">
        <ele>438.5</ele>
        <time>2025-04-24T12:32:28Z</time>
      </trkpt>
      <trkpt lat="45.648175003007054" lon="4.31820597499609">
        <ele>435.13</ele>
        <time>2025-04-24T12:32:35Z</time>
      </trkpt>
      <trkpt lat="45.649245958775282" lon="4.316477039828897">
        <ele>431.76999999999998</ele>
        <time>2025-04-24T12:32:44Z</time>
      </trkpt>
      <trkpt lat="45.649815006181598" lon="4.31541396304965">
        <ele>429.37</ele>
        <time>2025-04-24T12:32:50Z</time>
      </trkpt>
      <trkpt lat="45.649962024763227" lon="4.315009033307433">
        <ele>429.37</ele>
        <time>2025-04-24T12:32:52Z</time>
      </trkpt>
      <trkpt lat="45.650004018098116" lon="4.314786996692419">
        <ele>428.88999999999999</ele>
        <time>2025-04-24T12:32:53Z</time>
      </trkpt>
      <trkpt lat="45.650318004190922" lon="4.313067030161619">
        <ele>427.44</ele>
        <time>2025-04-24T12:33:01Z</time>
      </trkpt>
      <trkpt lat="45.650318004190922" lon="4.312844993546605">
        <ele>427.92000000000002</ele>
        <time>2025-04-24T12:33:02Z</time>
      </trkpt>
      <trkpt lat="45.650299983099103" lon="4.312624968588352">
        <ele>427.44</ele>
        <time>2025-04-24T12:33:03Z</time>
      </trkpt>
      <trkpt lat="45.650243991985917" lon="4.312423970550299">
        <ele>427.44</ele>
        <time>2025-04-24T12:33:04Z</time>
      </trkpt>
      <trkpt lat="45.650171991437674" lon="4.312235964462161">
        <ele>427.44</ele>
        <time>2025-04-24T12:33:05Z</time>
      </trkpt>
      <trkpt lat="45.650071995332837" lon="4.312060028314591">
        <ele>427.44</ele>
        <time>2025-04-24T12:33:06Z</time>
      </trkpt>
      <trkpt lat="45.649973005056381" lon="4.311884008347988">
        <ele>427.44</ele>
        <time>2025-04-24T12:33:07Z</time>
      </trkpt>
      <trkpt lat="45.649103969335556" lon="4.31038498878479">
        <ele>427.92000000000002</ele>
        <time>2025-04-24T12:33:15Z</time>
      </trkpt>
      <trkpt lat="45.647979034110904" lon="4.308765018358827">
        <ele>428.39999999999998</ele>
        <time>2025-04-24T12:33:24Z</time>
      </trkpt>
      <trkpt lat="45.647235978394747" lon="4.307838985696435">
        <ele>426.95999999999998</ele>
        <time>2025-04-24T12:33:30Z</time>
      </trkpt>
      <trkpt lat="45.647172024473548" lon="4.307660032063723">
        <ele>426.95999999999998</ele>
        <time>2025-04-24T12:33:31Z</time>
      </trkpt>
      <trkpt lat="45.647127013653517" lon="4.307480994611979">
        <ele>426.48000000000002</ele>
        <time>2025-04-24T12:33:32Z</time>
      </trkpt>
      <trkpt lat="45.647082002833486" lon="4.307301035150886">
        <ele>426.48000000000002</ele>
        <time>2025-04-24T12:33:33Z</time>
      </trkpt>
      <trkpt lat="45.64707001671195" lon="4.307129960507155">
        <ele>426.48000000000002</ele>
        <time>2025-04-24T12:33:34Z</time>
      </trkpt>
      <trkpt lat="45.647059958428144" lon="4.306928962469101">
        <ele>426.48000000000002</ele>
        <time>2025-04-24T12:33:35Z</time>
      </trkpt>
      <trkpt lat="45.647016959264874" lon="4.306298978626728">
        <ele>426</ele>
        <time>2025-04-24T12:33:38Z</time>
      </trkpt>
      <trkpt lat="45.646921992301941" lon="4.305738983675838">
        <ele>426</ele>
        <time>2025-04-24T12:33:41Z</time>
      </trkpt>
      <trkpt lat="45.646686963737011" lon="4.305135989561677">
        <ele>427.92000000000002</ele>
        <time>2025-04-24T12:33:45Z</time>
      </trkpt>
      <trkpt lat="45.64661898650229" lon="4.304992994293571">
        <ele>428.39999999999998</ele>
        <time>2025-04-24T12:33:46Z</time>
      </trkpt>
      <trkpt lat="45.646521002054214" lon="4.304899033159018">
        <ele>428.88999999999999</ele>
        <time>2025-04-24T12:33:47Z</time>
      </trkpt>
      <trkpt lat="45.64621003344655" lon="4.304646989330649">
        <ele>430.32999999999998</ele>
        <time>2025-04-24T12:33:50Z</time>
      </trkpt>
      <trkpt lat="45.645999982953072" lon="4.304478010162711">
        <ele>431.29000000000002</ele>
        <time>2025-04-24T12:33:52Z</time>
      </trkpt>
      <trkpt lat="45.645907027646899" lon="4.304378014057875">
        <ele>431.76999999999998</ele>
        <time>2025-04-24T12:33:53Z</time>
      </trkpt>
      <trkpt lat="45.64582597464323" lon="4.304253039881587">
        <ele>432.25</ele>
        <time>2025-04-24T12:33:54Z</time>
      </trkpt>
      <trkpt lat="45.645742993801832" lon="4.304125970229507">
        <ele>432.73000000000002</ele>
        <time>2025-04-24T12:33:55Z</time>
      </trkpt>
      <trkpt lat="45.645662024617195" lon="4.304000996053219">
        <ele>432.73000000000002</ele>
        <time>2025-04-24T12:33:56Z</time>
      </trkpt>
      <trkpt lat="45.645605027675629" lon="4.303860012441874">
        <ele>433.20999999999998</ele>
        <time>2025-04-24T12:33:57Z</time>
      </trkpt>
      <trkpt lat="45.645447028800845" lon="4.303464973345399">
        <ele>433.20999999999998</ele>
        <time>2025-04-24T12:34:00Z</time>
      </trkpt>
      <trkpt lat="45.645406963303685" lon="4.303255006670952">
        <ele>433.20999999999998</ele>
        <time>2025-04-24T12:34:01Z</time>
      </trkpt>
      <trkpt lat="45.645376034080982" lon="4.303088039159775">
        <ele>433.20999999999998</ele>
        <time>2025-04-24T12:34:02Z</time>
      </trkpt>
      <trkpt lat="45.645377961918712" lon="4.302946971729398">
        <ele>433.20999999999998</ele>
        <time>2025-04-24T12:34:03Z</time>
      </trkpt>
      <trkpt lat="45.645418027415872" lon="4.302788972854614">
        <ele>433.20999999999998</ele>
        <time>2025-04-24T12:34:04Z</time>
      </trkpt>
      <trkpt lat="45.64545901492238" lon="4.302652012556791">
        <ele>433.20999999999998</ele>
        <time>2025-04-24T12:34:05Z</time>
      </trkpt>
      <trkpt lat="45.645540989935398" lon="4.302525026723743">
        <ele>433.20999999999998</ele>
        <time>2025-04-24T12:34:06Z</time>
      </trkpt>
      <trkpt lat="45.645622964948416" lon="4.302396029233933">
        <ele>433.20999999999998</ele>
        <time>2025-04-24T12:34:07Z</time>
      </trkpt>
      <trkpt lat="45.645857993513346" lon="4.301989004015923">
        <ele>432.73000000000002</ele>
        <time>2025-04-24T12:34:10Z</time>
      </trkpt>
      <trkpt lat="45.645991014316678" lon="4.30170401930809">
        <ele>432.25</ele>
        <time>2025-04-24T12:34:12Z</time>
      </trkpt>
      <trkpt lat="45.646153036504984" lon="4.301256006583571">
        <ele>430.32999999999998</ele>
        <time>2025-04-24T12:34:15Z</time>
      </trkpt>
      <trkpt lat="45.646431986242533" lon="4.300109026953578">
        <ele>425.51999999999998</ele>
        <time>2025-04-24T12:34:23Z</time>
      </trkpt>
      <trkpt lat="45.646649999544024" lon="4.298918964341283">
        <ele>420.23000000000002</ele>
        <time>2025-04-24T12:34:34Z</time>
      </trkpt>
      <trkpt lat="45.646752007305622" lon="4.298099968582392">
        <ele>417.35000000000002</ele>
        <time>2025-04-24T12:34:41Z</time>
      </trkpt>
      <trkpt lat="45.646754018962383" lon="4.297984968870878">
        <ele>416.87</ele>
        <time>2025-04-24T12:34:42Z</time>
      </trkpt>
      <trkpt lat="45.646715965121984" lon="4.296903032809496">
        <ele>413.5</ele>
        <time>2025-04-24T12:34:53Z</time>
      </trkpt>
      <trkpt lat="45.646703979000449" lon="4.296673033386469">
        <ele>409.66000000000003</ele>
        <time>2025-04-24T12:35:03Z</time>
      </trkpt>
      <trkpt lat="45.646691992878914" lon="4.296531965956092">
        <ele>407.25999999999999</ele>
        <time>2025-04-24T12:35:21Z</time>
      </trkpt>
      <trkpt lat="45.64666299149394" lon="4.29568899795413">
        <ele>403.88999999999999</ele>
        <time>2025-04-24T12:35:32Z</time>
      </trkpt>
      <trkpt lat="45.646607000380754" lon="4.294415032491088">
        <ele>397.63999999999999</ele>
        <time>2025-04-24T12:35:46Z</time>
      </trkpt>
      <trkpt lat="45.64659702591598" lon="4.29422702640295">
        <ele>395.72000000000003</ele>
        <time>2025-04-24T12:35:50Z</time>
      </trkpt>
      <trkpt lat="45.646587973460555" lon="4.294068021699786">
        <ele>394.75999999999999</ele>
        <time>2025-04-24T12:35:52Z</time>
      </trkpt>
      <trkpt lat="45.646547991782427" lon="4.292999999597669">
        <ele>392.83999999999997</ele>
        <time>2025-04-24T12:36:00Z</time>
      </trkpt>
      <trkpt lat="45.646501975134015" lon="4.291698960587382">
        <ele>389.94999999999999</ele>
        <time>2025-04-24T12:36:10Z</time>
      </trkpt>
      <trkpt lat="45.646461993455887" lon="4.290965963155031">
        <ele>387.55000000000001</ele>
        <time>2025-04-24T12:36:18Z</time>
      </trkpt>
      <trkpt lat="45.646433997899294" lon="4.290298009291291">
        <ele>386.58999999999997</ele>
        <time>2025-04-24T12:36:23Z</time>
      </trkpt>
      <trkpt lat="45.646433997899294" lon="4.290164988487959">
        <ele>386.58999999999997</ele>
        <time>2025-04-24T12:36:24Z</time>
      </trkpt>
      <trkpt lat="45.646392004564404" lon="4.288996970281005">
        <ele>386.11000000000001</ele>
        <time>2025-04-24T12:36:34Z</time>
      </trkpt>
      <trkpt lat="45.64634196460247" lon="4.287714036181569">
        <ele>386.58999999999997</ele>
        <time>2025-04-24T12:36:45Z</time>
      </trkpt>
      <trkpt lat="45.646282033994794" lon="4.286176040768623">
        <ele>386.58999999999997</ele>
        <time>2025-04-24T12:36:54Z</time>
      </trkpt>
      <trkpt lat="45.646227970719337" lon="4.284742986783385">
        <ele>384.66000000000003</ele>
        <time>2025-04-24T12:37:03Z</time>
      </trkpt>
      <trkpt lat="45.646143984049559" lon="4.282601997256279">
        <ele>381.77999999999997</ele>
        <time>2025-04-24T12:37:15Z</time>
      </trkpt>
      <trkpt lat="45.646051028743386" lon="4.280548011884093">
        <ele>379.86000000000001</ele>
        <time>2025-04-24T12:37:24Z</time>
      </trkpt>
      <trkpt lat="45.645981039851904" lon="4.278636015951634">
        <ele>377.94</ele>
        <time>2025-04-24T12:37:33Z</time>
      </trkpt>
      <trkpt lat="45.645971987396479" lon="4.278438035398722">
        <ele>378.42000000000002</ele>
        <time>2025-04-24T12:37:34Z</time>
      </trkpt>
      <trkpt lat="45.645874002948403" lon="4.27609495818615">
        <ele>376.49000000000001</ele>
        <time>2025-04-24T12:37:46Z</time>
      </trkpt>
      <trkpt lat="45.64580300822854" lon="4.27418002858758">
        <ele>376.00999999999999</ele>
        <time>2025-04-24T12:37:55Z</time>
      </trkpt>
      <trkpt lat="45.64569697715342" lon="4.271436966955662">
        <ele>375.05000000000001</ele>
        <time>2025-04-24T12:38:06Z</time>
      </trkpt>
      <trkpt lat="45.645576026290655" lon="4.268425013870001">
        <ele>372.17000000000002</ele>
        <time>2025-04-24T12:38:18Z</time>
      </trkpt>
      <trkpt lat="45.645474018529058" lon="4.265751019120216">
        <ele>372.17000000000002</ele>
        <time>2025-04-24T12:38:29Z</time>
      </trkpt>
      <trkpt lat="45.645381985232234" lon="4.263177020475268">
        <ele>370.24000000000001</ele>
        <time>2025-04-24T12:38:40Z</time>
      </trkpt>
      <trkpt lat="45.645345021039248" lon="4.261857960373163">
        <ele>369.27999999999997</ele>
        <time>2025-04-24T12:38:48Z</time>
      </trkpt>
      <trkpt lat="45.645291041582823" lon="4.260592963546515">
        <ele>369.27999999999997</ele>
        <time>2025-04-24T12:38:56Z</time>
      </trkpt>
      <trkpt lat="45.645285006612539" lon="4.260470001026988">
        <ele>369.27999999999997</ele>
        <time>2025-04-24T12:38:57Z</time>
      </trkpt>
      <trkpt lat="45.645279977470636" lon="4.260357012972236">
        <ele>369.27999999999997</ele>
        <time>2025-04-24T12:38:58Z</time>
      </trkpt>
      <trkpt lat="45.645276037976146" lon="4.260249976068735">
        <ele>369.27999999999997</ele>
        <time>2025-04-24T12:38:59Z</time>
      </trkpt>
      <trkpt lat="45.645260028541088" lon="4.260154003277421">
        <ele>368.80000000000001</ele>
        <time>2025-04-24T12:39:00Z</time>
      </trkpt>
      <trkpt lat="45.645253993570805" lon="4.26004596054554">
        <ele>368.80000000000001</ele>
        <time>2025-04-24T12:39:01Z</time>
      </trkpt>
      <trkpt lat="45.645212000235915" lon="4.258951032534242">
        <ele>369.27999999999997</ele>
        <time>2025-04-24T12:39:11Z</time>
      </trkpt>
      <trkpt lat="45.645190039649606" lon="4.25849799066782">
        <ele>369.75999999999999</ele>
        <time>2025-04-24T12:39:15Z</time>
      </trkpt>
      <trkpt lat="45.645190039649606" lon="4.258380979299545">
        <ele>370.24000000000001</ele>
        <time>2025-04-24T12:39:16Z</time>
      </trkpt>
      <trkpt lat="45.645127007737756" lon="4.25682102330029">
        <ele>370.24000000000001</ele>
        <time>2025-04-24T12:39:29Z</time>
      </trkpt>
      <trkpt lat="45.645070010796189" lon="4.255135003477335">
        <ele>369.27999999999997</ele>
        <time>2025-04-24T12:39:39Z</time>
      </trkpt>
      <trkpt lat="45.64496498554945" lon="4.252415997907519">
        <ele>366.88</ele>
        <time>2025-04-24T12:39:54Z</time>
      </trkpt>
      <trkpt lat="45.644876975566149" lon="4.250493021681905">
        <ele>364</ele>
        <time>2025-04-24T12:40:05Z</time>
      </trkpt>
      <trkpt lat="45.644817966967821" lon="4.248715974390507">
        <ele>363.51999999999998</ele>
        <time>2025-04-24T12:40:16Z</time>
      </trkpt>
      <trkpt lat="45.644760970026255" lon="4.247511997818947">
        <ele>362.55000000000001</ele>
        <time>2025-04-24T12:40:25Z</time>
      </trkpt>
      <trkpt lat="45.644735991954803" lon="4.246527040377259">
        <ele>361.58999999999997</ele>
        <time>2025-04-24T12:40:31Z</time>
      </trkpt>
      <trkpt lat="45.644730040803552" lon="4.246366024017334">
        <ele>361.11000000000001</ele>
        <time>2025-04-24T12:40:32Z</time>
      </trkpt>
      <trkpt lat="45.644724005833268" lon="4.246210036799312">
        <ele>360.63</ele>
        <time>2025-04-24T12:40:33Z</time>
      </trkpt>
      <trkpt lat="45.644658962264657" lon="4.244520999491215">
        <ele>359.67000000000002</ele>
        <time>2025-04-24T12:40:44Z</time>
      </trkpt>
      <trkpt lat="45.64457799308002" lon="4.242718974128366">
        <ele>357.26999999999998</ele>
        <time>2025-04-24T12:40:56Z</time>
      </trkpt>
      <trkpt lat="45.644500041380525" lon="4.240855006501079">
        <ele>356.31</ele>
        <time>2025-04-24T12:41:08Z</time>
      </trkpt>
      <trkpt lat="45.644422005861998" lon="4.238646039739251">
        <ele>357.26999999999998</ele>
        <time>2025-04-24T12:41:21Z</time>
      </trkpt>
      <trkpt lat="45.644345982000232" lon="4.236621977761388">
        <ele>357.75</ele>
        <time>2025-04-24T12:41:33Z</time>
      </trkpt>
      <trkpt lat="45.644267024472356" lon="4.23561598174274">
        <ele>357.75</ele>
        <time>2025-04-24T12:41:41Z</time>
      </trkpt>
      <trkpt lat="45.644247997552156" lon="4.234302034601569">
        <ele>357.75</ele>
        <time>2025-04-24T12:41:52Z</time>
      </trkpt>
      <trkpt lat="45.644194018095732" lon="4.233098980039358">
        <ele>356.79000000000002</ele>
        <time>2025-04-24T12:42:03Z</time>
      </trkpt>
      <trkpt lat="45.644173985347152" lon="4.232662031427026">
        <ele>356.79000000000002</ele>
        <time>2025-04-24T12:42:11Z</time>
      </trkpt>
      <trkpt lat="45.644173985347152" lon="4.232662031427026">
        <ele>356.79000000000002</ele>
        <time>2025-04-24T12:42:22Z</time>
      </trkpt>
      <trkpt lat="45.644173985347152" lon="4.232659013941884">
        <ele>356.79000000000002</ele>
        <time>2025-04-24T12:42:23Z</time>
      </trkpt>
      <trkpt lat="45.644173985347152" lon="4.232676029205322">
        <ele>356.79000000000002</ele>
        <time>2025-04-24T12:42:24Z</time>
      </trkpt>
      <trkpt lat="45.644174991175532" lon="4.232693966478109">
        <ele>356.79000000000002</ele>
        <time>2025-04-24T12:42:25Z</time>
      </trkpt>
      <trkpt lat="45.644175997003913" lon="4.23271500505507">
        <ele>356.79000000000002</ele>
        <time>2025-04-24T12:42:26Z</time>
      </trkpt>
      <trkpt lat="45.644175997003913" lon="4.23271500505507">
        <ele>356.79000000000002</ele>
        <time>2025-04-24T12:42:34Z</time>
      </trkpt>
      <trkpt lat="45.644175997003913" lon="4.23271500505507">
        <ele>355.82999999999998</ele>
        <time>2025-04-24T12:42:45Z</time>
      </trkpt>
      <trkpt lat="45.644285967573524" lon="4.232815001159906">
        <ele>341.88999999999999</ele>
        <time>2025-04-24T13:24:22Z</time>
      </trkpt>
      <trkpt lat="45.644344976171851" lon="4.232788011431694">
        <ele>346.20999999999998</ele>
        <time>2025-04-24T13:24:36Z</time>
      </trkpt>
      <trkpt lat="45.644175997003913" lon="4.232717016711831">
        <ele>345.73000000000002</ele>
        <time>2025-04-24T13:24:40Z</time>
      </trkpt>
      <trkpt lat="45.644175997003913" lon="4.232717016711831">
        <ele>345.73000000000002</ele>
        <time>2025-04-24T13:24:41Z</time>
      </trkpt>
      <trkpt lat="45.644169040024281" lon="4.232544014230371">
        <ele>347.17000000000002</ele>
        <time>2025-04-24T13:24:51Z</time>
      </trkpt>
      <trkpt lat="45.644163005053997" lon="4.232423985376954">
        <ele>351.5</ele>
        <time>2025-04-24T13:25:01Z</time>
      </trkpt>
      <trkpt lat="45.644159987568855" lon="4.232184011489153">
        <ele>355.33999999999997</ele>
        <time>2025-04-24T13:25:29Z</time>
      </trkpt>
      <trkpt lat="45.644159987568855" lon="4.231981001794338">
        <ele>355.33999999999997</ele>
        <time>2025-04-24T13:25:33Z</time>
      </trkpt>
      <trkpt lat="45.644159987568855" lon="4.231946971267462">
        <ele>356.31</ele>
        <time>2025-04-24T13:25:34Z</time>
      </trkpt>
      <trkpt lat="45.644158981740475" lon="4.231911012902856">
        <ele>356.31</ele>
        <time>2025-04-24T13:25:35Z</time>
      </trkpt>
      <trkpt lat="45.644156970083714" lon="4.231870025396347">
        <ele>356.79000000000002</ele>
        <time>2025-04-24T13:25:36Z</time>
      </trkpt>
      <trkpt lat="45.644155964255333" lon="4.231832977384329">
        <ele>356.79000000000002</ele>
        <time>2025-04-24T13:25:37Z</time>
      </trkpt>
      <trkpt lat="45.644154958426952" lon="4.231802970170975">
        <ele>356.79000000000002</ele>
        <time>2025-04-24T13:25:38Z</time>
      </trkpt>
      <trkpt lat="45.644154036417603" lon="4.231774974614382">
        <ele>356.79000000000002</ele>
        <time>2025-04-24T13:25:39Z</time>
      </trkpt>
      <trkpt lat="45.644153030589223" lon="4.231743961572647">
        <ele>356.79000000000002</ele>
        <time>2025-04-24T13:25:40Z</time>
      </trkpt>
      <trkpt lat="45.644152024760842" lon="4.231703979894519">
        <ele>356.79000000000002</ele>
        <time>2025-04-24T13:25:41Z</time>
      </trkpt>
      <trkpt lat="45.644150013104081" lon="4.231657963246107">
        <ele>356.79000000000002</ele>
        <time>2025-04-24T13:25:42Z</time>
      </trkpt>
      <trkpt lat="45.64414800144732" lon="4.231608007103205">
        <ele>356.79000000000002</ele>
        <time>2025-04-24T13:25:43Z</time>
      </trkpt>
      <trkpt lat="45.644145989790559" lon="4.231545981019735">
        <ele>357.26999999999998</ele>
        <time>2025-04-24T13:25:44Z</time>
      </trkpt>
      <trkpt lat="45.644142972305417" lon="4.231467023491859">
        <ele>357.26999999999998</ele>
        <time>2025-04-24T13:25:45Z</time>
      </trkpt>
      <trkpt lat="45.644140038639307" lon="4.231377001851797">
        <ele>357.75</ele>
        <time>2025-04-24T13:25:46Z</time>
      </trkpt>
      <trkpt lat="45.644136015325785" lon="4.231288991868496">
        <ele>357.26999999999998</ele>
        <time>2025-04-24T13:25:47Z</time>
      </trkpt>
      <trkpt lat="45.644129980355501" lon="4.231195030733943">
        <ele>357.26999999999998</ele>
        <time>2025-04-24T13:25:48Z</time>
      </trkpt>
      <trkpt lat="45.644063008949161" lon="4.230288024991751">
        <ele>355.33999999999997</ele>
        <time>2025-04-24T13:25:58Z</time>
      </trkpt>
      <trkpt lat="45.644033001735806" lon="4.230145029723644">
        <ele>354.86000000000001</ele>
        <time>2025-04-24T13:26:00Z</time>
      </trkpt>
      <trkpt lat="45.644017998129129" lon="4.230076968669891">
        <ele>354.38</ele>
        <time>2025-04-24T13:26:01Z</time>
      </trkpt>
      <trkpt lat="45.643986985087395" lon="4.229933973401785">
        <ele>352.94</ele>
        <time>2025-04-24T13:26:03Z</time>
      </trkpt>
      <trkpt lat="45.643970975652337" lon="4.229859039187431">
        <ele>351.98000000000002</ele>
        <time>2025-04-24T13:26:04Z</time>
      </trkpt>
      <trkpt lat="45.643859999254346" lon="4.229345982894301">
        <ele>347.64999999999998</ele>
        <time>2025-04-24T13:26:10Z</time>
      </trkpt>
      <trkpt lat="45.643770983442664" lon="4.228996960446239">
        <ele>346.20999999999998</ele>
        <time>2025-04-24T13:26:14Z</time>
      </trkpt>
      <trkpt lat="45.643533021211624" lon="4.228092972189188">
        <ele>346.20999999999998</ele>
        <time>2025-04-24T13:26:24Z</time>
      </trkpt>
      <trkpt lat="45.643493039533496" lon="4.227943019941449">
        <ele>346.20999999999998</ele>
        <time>2025-04-24T13:26:26Z</time>
      </trkpt>
      <trkpt lat="45.643387008458376" lon="4.227547980844975">
        <ele>347.17000000000002</ele>
        <time>2025-04-24T13:26:30Z</time>
      </trkpt>
      <trkpt lat="45.643364964053035" lon="4.227468017488718">
        <ele>347.17000000000002</ele>
        <time>2025-04-24T13:26:31Z</time>
      </trkpt>
      <trkpt lat="45.643162038177252" lon="4.226694032549858">
        <ele>350.06</ele>
        <time>2025-04-24T13:26:38Z</time>
      </trkpt>
      <trkpt lat="45.643012002110481" lon="4.226096989586949">
        <ele>350.54000000000002</ele>
        <time>2025-04-24T13:26:42Z</time>
      </trkpt>
      <trkpt lat="45.642575975507498" lon="4.22435699030757">
        <ele>347.17000000000002</ele>
        <time>2025-04-24T13:26:52Z</time>
      </trkpt>
      <trkpt lat="45.642079012468457" lon="4.222363019362092">
        <ele>342.37</ele>
        <time>2025-04-24T13:27:02Z</time>
      </trkpt>
      <trkpt lat="45.641473000869155" lon="4.219968980178237">
        <ele>341.41000000000003</ele>
        <time>2025-04-24T13:27:13Z</time>
      </trkpt>
      <trkpt lat="45.640722988173366" lon="4.217007989063859">
        <ele>340.92000000000002</ele>
        <time>2025-04-24T13:27:24Z</time>
      </trkpt>
      <trkpt lat="45.639878008514643" lon="4.213661011308432">
        <ele>339.95999999999998</ele>
        <time>2025-04-24T13:27:36Z</time>
      </trkpt>
      <trkpt lat="45.639174012467265" lon="4.210874028503895">
        <ele>338.04000000000002</ele>
        <time>2025-04-24T13:27:46Z</time>
      </trkpt>
      <trkpt lat="45.638473033905029" lon="4.208101965487003">
        <ele>339.95999999999998</ele>
        <time>2025-04-24T13:27:57Z</time>
      </trkpt>
      <trkpt lat="45.638216966763139" lon="4.206920033320785">
        <ele>341.41000000000003</ele>
        <time>2025-04-24T13:28:04Z</time>
      </trkpt>
      <trkpt lat="45.638155024498701" lon="4.20624696649611">
        <ele>341.41000000000003</ele>
        <time>2025-04-24T13:28:10Z</time>
      </trkpt>
      <trkpt lat="45.638159969821572" lon="4.206162979826331">
        <ele>341.41000000000003</ele>
        <time>2025-04-24T13:28:11Z</time>
      </trkpt>
      <trkpt lat="45.638195006176829" lon="4.205944966524839">
        <ele>341.41000000000003</ele>
        <time>2025-04-24T13:28:13Z</time>
      </trkpt>
      <trkpt lat="45.638145972043276" lon="4.205815969035029">
        <ele>341.88999999999999</ele>
        <time>2025-04-24T13:28:14Z</time>
      </trkpt>
      <trkpt lat="45.638023009523749" lon="4.205725025385618">
        <ele>341.41000000000003</ele>
        <time>2025-04-24T13:28:15Z</time>
      </trkpt>
      <trkpt lat="45.637985961511731" lon="4.2056879773736">
        <ele>341.41000000000003</ele>
        <time>2025-04-24T13:28:16Z</time>
      </trkpt>
      <trkpt lat="45.637913960963488" lon="4.205571971833706">
        <ele>341.41000000000003</ele>
        <time>2025-04-24T13:28:17Z</time>
      </trkpt>
      <trkpt lat="45.637851012870669" lon="4.205444986000657">
        <ele>341.41000000000003</ele>
        <time>2025-04-24T13:28:18Z</time>
      </trkpt>
      <trkpt lat="45.637783035635948" lon="4.205310037359595">
        <ele>341.41000000000003</ele>
        <time>2025-04-24T13:28:19Z</time>
      </trkpt>
      <trkpt lat="45.637726960703731" lon="4.205136029049754">
        <ele>341.41000000000003</ele>
        <time>2025-04-24T13:28:20Z</time>
      </trkpt>
      <trkpt lat="45.637245001271367" lon="4.203321011736989">
        <ele>340.92000000000002</ele>
        <time>2025-04-24T13:28:29Z</time>
      </trkpt>
      <trkpt lat="45.636555003002286" lon="4.200580967590213">
        <ele>341.41000000000003</ele>
        <time>2025-04-24T13:28:41Z</time>
      </trkpt>
      <trkpt lat="45.636285021901131" lon="4.19898496940732">
        <ele>341.41000000000003</ele>
        <time>2025-04-24T13:28:49Z</time>
      </trkpt>
      <trkpt lat="45.636285021901131" lon="4.19883300550282">
        <ele>341.41000000000003</ele>
        <time>2025-04-24T13:28:50Z</time>
      </trkpt>
      <trkpt lat="45.636285021901131" lon="4.198772991076112">
        <ele>341.41000000000003</ele>
        <time>2025-04-24T13:28:51Z</time>
      </trkpt>
      <trkpt lat="45.63643497414887" lon="4.198569981381297">
        <ele>341.41000000000003</ele>
        <time>2025-04-24T13:28:52Z</time>
      </trkpt>
      <trkpt lat="45.636416031047702" lon="4.198391027748585">
        <ele>341.41000000000003</ele>
        <time>2025-04-24T13:28:53Z</time>
      </trkpt>
      <trkpt lat="45.636331960558891" lon="4.198278039693832">
        <ele>341.41000000000003</ele>
        <time>2025-04-24T13:28:54Z</time>
      </trkpt>
      <trkpt lat="45.63626297749579" lon="4.198236968368292">
        <ele>341.41000000000003</ele>
        <time>2025-04-24T13:28:55Z</time>
      </trkpt>
      <trkpt lat="45.63613398000598" lon="4.198223976418376">
        <ele>341.41000000000003</ele>
        <time>2025-04-24T13:28:56Z</time>
      </trkpt>
      <trkpt lat="45.636058961972594" lon="4.198113000020385">
        <ele>341.41000000000003</ele>
        <time>2025-04-24T13:28:57Z</time>
      </trkpt>
      <trkpt lat="45.635988973081112" lon="4.197975033894181">
        <ele>341.41000000000003</ele>
        <time>2025-04-24T13:28:58Z</time>
      </trkpt>
      <trkpt lat="45.635924013331532" lon="4.19782298617065">
        <ele>341.41000000000003</ele>
        <time>2025-04-24T13:28:59Z</time>
      </trkpt>
      <trkpt lat="45.63585695810616" lon="4.197665993124247">
        <ele>340.92000000000002</ele>
        <time>2025-04-24T13:29:00Z</time>
      </trkpt>
      <trkpt lat="45.635293023660779" lon="4.196081981062889">
        <ele>341.41000000000003</ele>
        <time>2025-04-24T13:29:08Z</time>
      </trkpt>
      <trkpt lat="45.634542005136609" lon="4.193737981840968">
        <ele>344.76999999999998</ele>
        <time>2025-04-24T13:29:18Z</time>
      </trkpt>
      <trkpt lat="45.634060967713594" lon="4.191520968452096">
        <ele>342.37</ele>
        <time>2025-04-24T13:29:27Z</time>
      </trkpt>
      <trkpt lat="45.633634999394417" lon="4.189195996150374">
        <ele>339.95999999999998</ele>
        <time>2025-04-24T13:29:36Z</time>
      </trkpt>
      <trkpt lat="45.633538020774722" lon="4.188687968999147">
        <ele>340.44</ele>
        <time>2025-04-24T13:29:38Z</time>
      </trkpt>
      <trkpt lat="45.632966039702296" lon="4.186411025002599">
        <ele>343.81</ele>
        <time>2025-04-24T13:29:47Z</time>
      </trkpt>
      <trkpt lat="45.632043024525046" lon="4.182794988155365">
        <ele>350.06</ele>
        <time>2025-04-24T13:30:01Z</time>
      </trkpt>
      <trkpt lat="45.631393007934093" lon="4.180233981460333">
        <ele>349.57999999999998</ele>
        <time>2025-04-24T13:30:12Z</time>
      </trkpt>
      <trkpt lat="45.630984976887703" lon="4.178644018247724">
        <ele>350.06</ele>
        <time>2025-04-24T13:30:21Z</time>
      </trkpt>
      <trkpt lat="45.630963016301394" lon="4.178560031577945">
        <ele>350.06</ele>
        <time>2025-04-24T13:30:22Z</time>
      </trkpt>
      <trkpt lat="45.631112968549132" lon="4.178301030769944">
        <ele>350.06</ele>
        <time>2025-04-24T13:30:23Z</time>
      </trkpt>
      <trkpt lat="45.631094025447965" lon="4.178168009966612">
        <ele>350.06</ele>
        <time>2025-04-24T13:30:24Z</time>
      </trkpt>
      <trkpt lat="45.631074998527765" lon="4.17803498916328">
        <ele>350.54000000000002</ele>
        <time>2025-04-24T13:30:25Z</time>
      </trkpt>
      <trkpt lat="45.630958992987871" lon="4.177871961146593">
        <ele>351.01999999999998</ele>
        <time>2025-04-24T13:30:26Z</time>
      </trkpt>
      <trkpt lat="45.630941977724433" lon="4.177852012217045">
        <ele>351.5</ele>
        <time>2025-04-24T13:30:27Z</time>
      </trkpt>
      <trkpt lat="45.630757994949818" lon="4.177737012505531">
        <ele>351.5</ele>
        <time>2025-04-24T13:30:28Z</time>
      </trkpt>
      <trkpt lat="45.630718013271689" lon="4.177570967003703">
        <ele>351.5</ele>
        <time>2025-04-24T13:30:29Z</time>
      </trkpt>
      <trkpt lat="45.630674008280039" lon="4.177393019199371">
        <ele>351.98000000000002</ele>
        <time>2025-04-24T13:30:30Z</time>
      </trkpt>
      <trkpt lat="45.630200011655688" lon="4.175476999953389">
        <ele>351.98000000000002</ele>
        <time>2025-04-24T13:30:39Z</time>
      </trkpt>
      <trkpt lat="45.629489980638027" lon="4.172698985785246">
        <ele>354.86000000000001</ele>
        <time>2025-04-24T13:30:50Z</time>
      </trkpt>
      <trkpt lat="45.628298996016383" lon="4.167986009269953">
        <ele>355.82999999999998</ele>
        <time>2025-04-24T13:31:07Z</time>
      </trkpt>
      <trkpt lat="45.627248995006084" lon="4.163829004392028">
        <ele>358.23000000000002</ele>
        <time>2025-04-24T13:31:22Z</time>
      </trkpt>
      <trkpt lat="45.626290021464229" lon="4.160033008083701">
        <ele>360.14999999999998</ele>
        <time>2025-04-24T13:31:36Z</time>
      </trkpt>
      <trkpt lat="45.625697001814842" lon="4.157684985548258">
        <ele>361.58999999999997</ele>
        <time>2025-04-24T13:31:46Z</time>
      </trkpt>
      <trkpt lat="45.625159973278642" lon="4.155558999627829">
        <ele>363.51999999999998</ele>
        <time>2025-04-24T13:31:57Z</time>
      </trkpt>
      <trkpt lat="45.624395962804556" lon="4.152540005743504">
        <ele>366.88</ele>
        <time>2025-04-24T13:32:10Z</time>
      </trkpt>
      <trkpt lat="45.62382398173213" lon="4.150239005684853">
        <ele>368.80000000000001</ele>
        <time>2025-04-24T13:32:20Z</time>
      </trkpt>
      <trkpt lat="45.623164996504784" lon="4.147650003433228">
        <ele>371.20999999999998</ele>
        <time>2025-04-24T13:32:32Z</time>
      </trkpt>
      <trkpt lat="45.622953018173575" lon="4.146820027381182">
        <ele>371.20999999999998</ele>
        <time>2025-04-24T13:32:36Z</time>
      </trkpt>
      <trkpt lat="45.622456977143884" lon="4.144879030063748">
        <ele>370.73000000000002</ele>
        <time>2025-04-24T13:32:45Z</time>
      </trkpt>
      <trkpt lat="45.62169698998332" lon="4.141828017309308">
        <ele>370.24000000000001</ele>
        <time>2025-04-24T13:32:58Z</time>
      </trkpt>
      <trkpt lat="45.621140012517571" lon="4.139637993648648">
        <ele>370.73000000000002</ele>
        <time>2025-04-24T13:33:08Z</time>
      </trkpt>
      <trkpt lat="45.620982013642788" lon="4.139015972614288">
        <ele>370.73000000000002</ele>
        <time>2025-04-24T13:33:14Z</time>
      </trkpt>
      <trkpt lat="45.620744973421097" lon="4.138091029599309">
        <ele>371.69</ele>
        <time>2025-04-24T13:33:22Z</time>
      </trkpt>
      <trkpt lat="45.620282040908933" lon="4.136287998408079">
        <ele>373.13</ele>
        <time>2025-04-24T13:33:31Z</time>
      </trkpt>
      <trkpt lat="45.619476037099957" lon="4.133090972900391">
        <ele>374.08999999999997</ele>
        <time>2025-04-24T13:33:44Z</time>
      </trkpt>
      <trkpt lat="45.619049984961748" lon="4.131401013582945">
        <ele>374.56999999999999</ele>
        <time>2025-04-24T13:33:51Z</time>
      </trkpt>
      <trkpt lat="45.61898997053504" lon="4.131161961704493">
        <ele>374.56999999999999</ele>
        <time>2025-04-24T13:33:52Z</time>
      </trkpt>
      <trkpt lat="45.618186984211206" lon="4.127978011965752">
        <ele>373.61000000000001</ele>
        <time>2025-04-24T13:34:05Z</time>
      </trkpt>
      <trkpt lat="45.617375029250979" lon="4.124692976474762">
        <ele>373.61000000000001</ele>
        <time>2025-04-24T13:34:18Z</time>
      </trkpt>
      <trkpt lat="45.616434998810291" lon="4.120975015684962">
        <ele>374.08999999999997</ele>
        <time>2025-04-24T13:34:32Z</time>
      </trkpt>
      <trkpt lat="45.615296987816691" lon="4.116500001400709">
        <ele>374.56999999999999</ele>
        <time>2025-04-24T13:34:49Z</time>
      </trkpt>
      <trkpt lat="45.614500036463141" lon="4.113383023068309">
        <ele>375.05000000000001</ele>
        <time>2025-04-24T13:35:01Z</time>
      </trkpt>
      <trkpt lat="45.613755974918604" lon="4.110450027510524">
        <ele>374.56999999999999</ele>
        <time>2025-04-24T13:35:12Z</time>
      </trkpt>
      <trkpt lat="45.612975033000112" lon="4.107369007542729">
        <ele>371.20999999999998</ele>
        <time>2025-04-24T13:35:24Z</time>
      </trkpt>
      <trkpt lat="45.612360974773765" lon="4.104945966973901">
        <ele>369.75999999999999</ele>
        <time>2025-04-24T13:35:34Z</time>
      </trkpt>
      <trkpt lat="45.611636023968458" lon="4.10212897695601">
        <ele>369.75999999999999</ele>
        <time>2025-04-24T13:35:46Z</time>
      </trkpt>
      <trkpt lat="45.611226987093687" lon="4.100494002923369">
        <ele>371.69</ele>
        <time>2025-04-24T13:35:55Z</time>
      </trkpt>
      <trkpt lat="45.610726000741124" lon="4.098544958978891">
        <ele>375.05000000000001</ele>
        <time>2025-04-24T13:36:07Z</time>
      </trkpt>
      <trkpt lat="45.610343031585217" lon="4.096963964402676">
        <ele>376.97000000000003</ele>
        <time>2025-04-24T13:36:18Z</time>
      </trkpt>
      <trkpt lat="45.610242029651999" lon="4.096445962786675">
        <ele>376.97000000000003</ele>
        <time>2025-04-24T13:36:25Z</time>
      </trkpt>
      <trkpt lat="45.610216967761517" lon="4.096261980012059">
        <ele>376.97000000000003</ele>
        <time>2025-04-24T13:36:29Z</time>
      </trkpt>
      <trkpt lat="45.610204981639981" lon="4.096172964200378">
        <ele>377.94</ele>
        <time>2025-04-24T13:36:30Z</time>
      </trkpt>
      <trkpt lat="45.610192995518446" lon="4.096071040257812">
        <ele>378.42000000000002</ele>
        <time>2025-04-24T13:36:31Z</time>
      </trkpt>
      <trkpt lat="45.610212022438645" lon="4.095976995304227">
        <ele>378.89999999999998</ele>
        <time>2025-04-24T13:36:32Z</time>
      </trkpt>
      <trkpt lat="45.610182015225291" lon="4.095906000584364">
        <ele>379.38</ele>
        <time>2025-04-24T13:36:33Z</time>
      </trkpt>
      <trkpt lat="45.610142033547163" lon="4.095826959237456">
        <ele>379.38</ele>
        <time>2025-04-24T13:36:34Z</time>
      </trkpt>
      <trkpt lat="45.610104985535145" lon="4.095754958689213">
        <ele>379.38</ele>
        <time>2025-04-24T13:36:35Z</time>
      </trkpt>
      <trkpt lat="45.610031979158521" lon="4.095754958689213">
        <ele>379.86000000000001</ele>
        <time>2025-04-24T13:36:36Z</time>
      </trkpt>
      <trkpt lat="45.609976993873715" lon="4.095798963680863">
        <ele>379.86000000000001</ele>
        <time>2025-04-24T13:36:37Z</time>
      </trkpt>
      <trkpt lat="45.609913039952517" lon="4.095861995592713">
        <ele>380.33999999999997</ele>
        <time>2025-04-24T13:36:38Z</time>
      </trkpt>
      <trkpt lat="45.609897030517459" lon="4.095976995304227">
        <ele>380.81999999999999</ele>
        <time>2025-04-24T13:36:39Z</time>
      </trkpt>
      <trkpt lat="45.609829975292087" lon="4.096101969480515">
        <ele>380.81999999999999</ele>
        <time>2025-04-24T13:36:40Z</time>
      </trkpt>
      <trkpt lat="45.609761998057365" lon="4.096200037747622">
        <ele>380.81999999999999</ele>
        <time>2025-04-24T13:36:41Z</time>
      </trkpt>
      <trkpt lat="45.60968304052949" lon="4.096307996660471">
        <ele>381.30000000000001</ele>
        <time>2025-04-24T13:36:42Z</time>
      </trkpt>
      <trkpt lat="45.609592013061047" lon="4.096407992765307">
        <ele>381.30000000000001</ele>
        <time>2025-04-24T13:36:43Z</time>
      </trkpt>
      <trkpt lat="45.608587022870779" lon="4.097196981310844">
        <ele>381.30000000000001</ele>
        <time>2025-04-24T13:36:51Z</time>
      </trkpt>
      <trkpt lat="45.606869990006089" lon="4.098081020638347">
        <ele>383.69999999999999</ele>
        <time>2025-04-24T13:37:03Z</time>
      </trkpt>
      <trkpt lat="45.606761025264859" lon="4.098155032843351">
        <ele>383.69999999999999</ele>
        <time>2025-04-24T13:37:04Z</time>
      </trkpt>
      <trkpt lat="45.606664968654513" lon="4.098224015906453">
        <ele>383.69999999999999</ele>
        <time>2025-04-24T13:37:05Z</time>
      </trkpt>
      <trkpt lat="45.606502024456859" lon="4.098114967346191">
        <ele>384.18000000000001</ele>
        <time>2025-04-24T13:37:06Z</time>
      </trkpt>
      <trkpt lat="45.606434969231486" lon="4.098082026466727">
        <ele>384.18000000000001</ele>
        <time>2025-04-24T13:37:07Z</time>
      </trkpt>
      <trkpt lat="45.606322987005115" lon="4.09815201535821">
        <ele>384.66000000000003</ele>
        <time>2025-04-24T13:37:08Z</time>
      </trkpt>
      <trkpt lat="45.606265990063548" lon="4.098200965672731">
        <ele>385.14999999999998</ele>
        <time>2025-04-24T13:37:09Z</time>
      </trkpt>
      <trkpt lat="45.606134980916977" lon="4.09836801700294">
        <ele>385.14999999999998</ele>
        <time>2025-04-24T13:37:10Z</time>
      </trkpt>
      <trkpt lat="45.60601101256907" lon="4.098392995074391">
        <ele>385.14999999999998</ele>
        <time>2025-04-24T13:37:11Z</time>
      </trkpt>
      <trkpt lat="45.605880003422499" lon="4.098418978974223">
        <ele>385.14999999999998</ele>
        <time>2025-04-24T13:37:12Z</time>
      </trkpt>
      <trkpt lat="45.605737008154392" lon="4.098431970924139">
        <ele>385.14999999999998</ele>
        <time>2025-04-24T13:37:13Z</time>
      </trkpt>
      <trkpt lat="45.605592001229525" lon="4.098419984802604">
        <ele>385.14999999999998</ele>
        <time>2025-04-24T13:37:14Z</time>
      </trkpt>
      <trkpt lat="45.604494977742434" lon="4.097996028140187">
        <ele>385.63</ele>
        <time>2025-04-24T13:37:21Z</time>
      </trkpt>
      <trkpt lat="45.603502979502082" lon="4.09692800603807">
        <ele>386.11000000000001</ele>
        <time>2025-04-24T13:37:28Z</time>
      </trkpt>
      <trkpt lat="45.602084007114172" lon="4.094875026494265">
        <ele>388.50999999999999</ele>
        <time>2025-04-24T13:37:40Z</time>
      </trkpt>
      <trkpt lat="45.601652003824711" lon="4.0939009655267">
        <ele>387.55000000000001</ele>
        <time>2025-04-24T13:37:48Z</time>
      </trkpt>
      <trkpt lat="45.601485958322883" lon="4.093571975827217">
        <ele>386.11000000000001</ele>
        <time>2025-04-24T13:37:54Z</time>
      </trkpt>
      <trkpt lat="45.601385040208697" lon="4.093381036072969">
        <ele>385.14999999999998</ele>
        <time>2025-04-24T13:37:58Z</time>
      </trkpt>
      <trkpt lat="45.601321002468467" lon="4.093260001391172">
        <ele>384.66000000000003</ele>
        <time>2025-04-24T13:38:00Z</time>
      </trkpt>
      <trkpt lat="45.6012830324471" lon="4.093188000842929">
        <ele>384.18000000000001</ele>
        <time>2025-04-24T13:38:01Z</time>
      </trkpt>
      <trkpt lat="45.601244978606701" lon="4.092944003641605">
        <ele>384.66000000000003</ele>
        <time>2025-04-24T13:38:03Z</time>
      </trkpt>
      <trkpt lat="45.601213965564966" lon="4.092882983386517">
        <ele>384.66000000000003</ele>
        <time>2025-04-24T13:38:04Z</time>
      </trkpt>
      <trkpt lat="45.601158980280161" lon="4.092772006988525">
        <ele>384.66000000000003</ele>
        <time>2025-04-24T13:38:05Z</time>
      </trkpt>
      <trkpt lat="45.60109100304544" lon="4.092761026695371">
        <ele>384.66000000000003</ele>
        <time>2025-04-24T13:38:06Z</time>
      </trkpt>
      <trkpt lat="45.601029982790351" lon="4.092750968411565">
        <ele>384.18000000000001</ele>
        <time>2025-04-24T13:38:07Z</time>
      </trkpt>
      <trkpt lat="45.600943984463811" lon="4.092686008661985">
        <ele>384.18000000000001</ele>
        <time>2025-04-24T13:38:08Z</time>
      </trkpt>
      <trkpt lat="45.600861003622413" lon="4.092619959264994">
        <ele>384.18000000000001</ele>
        <time>2025-04-24T13:38:09Z</time>
      </trkpt>
      <trkpt lat="45.600777016952634" lon="4.092552987858653">
        <ele>384.18000000000001</ele>
        <time>2025-04-24T13:38:10Z</time>
      </trkpt>
      <trkpt lat="45.59991099871695" lon="4.091329984366894">
        <ele>386.11000000000001</ele>
        <time>2025-04-24T13:38:20Z</time>
      </trkpt>
      <trkpt lat="45.598624041303992" lon="4.089025966823101">
        <ele>387.55000000000001</ele>
        <time>2025-04-24T13:38:34Z</time>
      </trkpt>
      <trkpt lat="45.597860030829906" lon="4.08745301887393">
        <ele>388.02999999999997</ele>
        <time>2025-04-24T13:38:43Z</time>
      </trkpt>
      <trkpt lat="45.597753999754786" lon="4.087188988924027">
        <ele>387.06999999999999</ele>
        <time>2025-04-24T13:38:49Z</time>
      </trkpt>
      <trkpt lat="45.597691973671317" lon="4.086924036964774">
        <ele>386.11000000000001</ele>
        <time>2025-04-24T13:38:55Z</time>
      </trkpt>
      <trkpt lat="45.597669007256627" lon="4.086820017546415">
        <ele>385.63</ele>
        <time>2025-04-24T13:38:56Z</time>
      </trkpt>
      <trkpt lat="45.597660960629582" lon="4.086708035320044">
        <ele>385.14999999999998</ele>
        <time>2025-04-24T13:38:57Z</time>
      </trkpt>
      <trkpt lat="45.597659032791853" lon="4.086584988981485">
        <ele>385.14999999999998</ele>
        <time>2025-04-24T13:38:58Z</time>
      </trkpt>
      <trkpt lat="45.597632965072989" lon="4.086494967341423">
        <ele>385.14999999999998</ele>
        <time>2025-04-24T13:38:59Z</time>
      </trkpt>
      <trkpt lat="45.597563982009888" lon="4.086419027298689">
        <ele>385.14999999999998</ele>
        <time>2025-04-24T13:39:00Z</time>
      </trkpt>
      <trkpt lat="45.597500028088689" lon="4.086391031742096">
        <ele>385.14999999999998</ele>
        <time>2025-04-24T13:39:01Z</time>
      </trkpt>
      <trkpt lat="45.597438002005219" lon="4.086345015093684">
        <ele>385.14999999999998</ele>
        <time>2025-04-24T13:39:02Z</time>
      </trkpt>
      <trkpt lat="45.597379999235272" lon="4.086280977353454">
        <ele>385.14999999999998</ele>
        <time>2025-04-24T13:39:03Z</time>
      </trkpt>
      <trkpt lat="45.597320990636945" lon="4.086217023432255">
        <ele>385.14999999999998</ele>
        <time>2025-04-24T13:39:04Z</time>
      </trkpt>
      <trkpt lat="45.597259970381856" lon="4.086150974035263">
        <ele>385.14999999999998</ele>
        <time>2025-04-24T13:39:05Z</time>
      </trkpt>
      <trkpt lat="45.597197022289038" lon="4.086046032607555">
        <ele>384.66000000000003</ele>
        <time>2025-04-24T13:39:06Z</time>
      </trkpt>
      <trkpt lat="45.596571983769536" lon="4.08496200107038">
        <ele>384.66000000000003</ele>
        <time>2025-04-24T13:39:15Z</time>
      </trkpt>
      <trkpt lat="45.595716023817658" lon="4.08427401445806">
        <ele>386.11000000000001</ele>
        <time>2025-04-24T13:39:24Z</time>
      </trkpt>
      <trkpt lat="45.594721008092165" lon="4.083760036155582">
        <ele>388.99000000000001</ele>
        <time>2025-04-24T13:39:35Z</time>
      </trkpt>
      <trkpt lat="45.59451699256897" lon="4.083677977323532">
        <ele>389.94999999999999</ele>
        <time>2025-04-24T13:39:42Z</time>
      </trkpt>
      <trkpt lat="45.59434600174427" lon="4.083610000088811">
        <ele>390.91000000000003</ele>
        <time>2025-04-24T13:39:50Z</time>
      </trkpt>
      <trkpt lat="45.594292022287846" lon="4.083438003435731">
        <ele>391.38999999999999</ele>
        <time>2025-04-24T13:39:51Z</time>
      </trkpt>
      <trkpt lat="45.594256985932589" lon="4.083311017602682">
        <ele>391.38999999999999</ele>
        <time>2025-04-24T13:39:53Z</time>
      </trkpt>
      <trkpt lat="45.594170987606049" lon="4.083257960155606">
        <ele>391.38999999999999</ele>
        <time>2025-04-24T13:39:54Z</time>
      </trkpt>
      <trkpt lat="45.594078032299876" lon="4.08324496820569">
        <ele>391.38999999999999</ele>
        <time>2025-04-24T13:39:55Z</time>
      </trkpt>
      <trkpt lat="45.59400200843811" lon="4.083319986239076">
        <ele>390.91000000000003</ele>
        <time>2025-04-24T13:39:56Z</time>
      </trkpt>
      <trkpt lat="45.593969989567995" lon="4.0833739656955">
        <ele>390.91000000000003</ele>
        <time>2025-04-24T13:39:57Z</time>
      </trkpt>
      <trkpt lat="45.593949034810066" lon="4.083502041175962">
        <ele>390.43000000000001</ele>
        <time>2025-04-24T13:39:58Z</time>
      </trkpt>
      <trkpt lat="45.593977030366659" lon="4.083685018122196">
        <ele>390.43000000000001</ele>
        <time>2025-04-24T13:39:59Z</time>
      </trkpt>
      <trkpt lat="45.593882985413074" lon="4.083884004503489">
        <ele>389.47000000000003</ele>
        <time>2025-04-24T13:40:01Z</time>
      </trkpt>
      <trkpt lat="45.59331402182579" lon="4.084948003292084">
        <ele>388.50999999999999</ele>
        <time>2025-04-24T13:40:09Z</time>
      </trkpt>
      <trkpt lat="45.592329986393452" lon="4.086794033646584">
        <ele>388.50999999999999</ele>
        <time>2025-04-24T13:40:20Z</time>
      </trkpt>
      <trkpt lat="45.590977985411882" lon="4.089321009814739">
        <ele>394.27999999999997</ele>
        <time>2025-04-24T13:40:34Z</time>
      </trkpt>
      <trkpt lat="45.590766007080674" lon="4.089726023375988">
        <ele>395.72000000000003</ele>
        <time>2025-04-24T13:40:37Z</time>
      </trkpt>
      <trkpt lat="45.590714039281011" lon="4.089824007824063">
        <ele>395.72000000000003</ele>
        <time>2025-04-24T13:40:38Z</time>
      </trkpt>
      <trkpt lat="45.590611025691032" lon="4.089853009209037">
        <ele>396.19999999999999</ele>
        <time>2025-04-24T13:40:39Z</time>
      </trkpt>
      <trkpt lat="45.590538019314408" lon="4.089832976460457">
        <ele>396.19999999999999</ele>
        <time>2025-04-24T13:40:40Z</time>
      </trkpt>
      <trkpt lat="45.590488985180855" lon="4.089718982577324">
        <ele>396.19999999999999</ele>
        <time>2025-04-24T13:40:41Z</time>
      </trkpt>
      <trkpt lat="45.590439029037952" lon="4.08960398286581">
        <ele>396.68000000000001</ele>
        <time>2025-04-24T13:40:42Z</time>
      </trkpt>
      <trkpt lat="45.590385971590877" lon="4.089480014517903">
        <ele>396.68000000000001</ele>
        <time>2025-04-24T13:40:43Z</time>
      </trkpt>
      <trkpt lat="45.590341966599226" lon="4.089313969016075">
        <ele>397.16000000000003</ele>
        <time>2025-04-24T13:40:44Z</time>
      </trkpt>
      <trkpt lat="45.590337021276355" lon="4.089136021211743">
        <ele>397.16000000000003</ele>
        <time>2025-04-24T13:40:45Z</time>
      </trkpt>
      <trkpt lat="45.590331992134452" lon="4.088943991810083">
        <ele>397.63999999999999</ele>
        <time>2025-04-24T13:40:46Z</time>
      </trkpt>
      <trkpt lat="45.590326962992549" lon="4.088737964630127">
        <ele>399.07999999999998</ele>
        <time>2025-04-24T13:40:47Z</time>
      </trkpt>
      <trkpt lat="45.59032796882093" lon="4.088530009612441">
        <ele>399.56999999999999</ele>
        <time>2025-04-24T13:40:48Z</time>
      </trkpt>
      <trkpt lat="45.590447997674346" lon="4.087192006409168">
        <ele>401.49000000000001</ele>
        <time>2025-04-24T13:40:54Z</time>
      </trkpt>
      <trkpt lat="45.590172987431288" lon="4.085245979949832">
        <ele>402.93000000000001</ele>
        <time>2025-04-24T13:41:02Z</time>
      </trkpt>
      <trkpt lat="45.590028986334801" lon="4.084784975275397">
        <ele>402.44999999999999</ele>
        <time>2025-04-24T13:41:04Z</time>
      </trkpt>
      <trkpt lat="45.589953968301415" lon="4.084547013044357">
        <ele>402.44999999999999</ele>
        <time>2025-04-24T13:41:05Z</time>
      </trkpt>
      <trkpt lat="45.589028019458055" lon="4.082817994058132">
        <ele>399.56999999999999</ele>
        <time>2025-04-24T13:41:13Z</time>
      </trkpt>
      <trkpt lat="45.587784983217716" lon="4.080659989267588">
        <ele>398.12</ele>
        <time>2025-04-24T13:41:23Z</time>
      </trkpt>
      <trkpt lat="45.586603973060846" lon="4.078275002539158">
        <ele>398.60000000000002</ele>
        <time>2025-04-24T13:41:34Z</time>
      </trkpt>
      <trkpt lat="45.585562018677592" lon="4.075606036931276">
        <ele>409.66000000000003</ele>
        <time>2025-04-24T13:41:47Z</time>
      </trkpt>
      <trkpt lat="45.585340987890959" lon="4.074845965951681">
        <ele>413.5</ele>
        <time>2025-04-24T13:41:52Z</time>
      </trkpt>
      <trkpt lat="45.585321038961411" lon="4.074697019532323">
        <ele>413.98000000000002</ele>
        <time>2025-04-24T13:41:53Z</time>
      </trkpt>
      <trkpt lat="45.585301006212831" lon="4.074425026774406">
        <ele>414.47000000000003</ele>
        <time>2025-04-24T13:41:55Z</time>
      </trkpt>
      <trkpt lat="45.585249038413167" lon="4.074240960180759">
        <ele>414.94999999999999</ele>
        <time>2025-04-24T13:41:56Z</time>
      </trkpt>
      <trkpt lat="45.585177037864923" lon="4.074192009866238">
        <ele>415.43000000000001</ele>
        <time>2025-04-24T13:41:57Z</time>
      </trkpt>
      <trkpt lat="45.58506497181952" lon="4.074189998209477">
        <ele>415.91000000000003</ele>
        <time>2025-04-24T13:41:58Z</time>
      </trkpt>
      <trkpt lat="45.585004035383463" lon="4.074142975732684">
        <ele>416.38999999999999</ele>
        <time>2025-04-24T13:41:59Z</time>
      </trkpt>
      <trkpt lat="45.584920970723033" lon="4.074081033468247">
        <ele>416.87</ele>
        <time>2025-04-24T13:42:00Z</time>
      </trkpt>
      <trkpt lat="45.584807982668281" lon="4.073996962979436">
        <ele>417.82999999999998</ele>
        <time>2025-04-24T13:42:01Z</time>
      </trkpt>
      <trkpt lat="45.584733970463276" lon="4.073903001844883">
        <ele>418.79000000000002</ele>
        <time>2025-04-24T13:42:02Z</time>
      </trkpt>
      <trkpt lat="45.58381799608469" lon="4.072634987533093">
        <ele>427.44</ele>
        <time>2025-04-24T13:42:11Z</time>
      </trkpt>
      <trkpt lat="45.582729019224644" lon="4.071182990446687">
        <ele>437.54000000000002</ele>
        <time>2025-04-24T13:42:20Z</time>
      </trkpt>
      <trkpt lat="45.58242199011147" lon="4.070926001295447">
        <ele>439.94</ele>
        <time>2025-04-24T13:42:22Z</time>
      </trkpt>
      <trkpt lat="45.582255022600293" lon="4.070835979655385">
        <ele>440.89999999999998</ele>
        <time>2025-04-24T13:42:23Z</time>
      </trkpt>
      <trkpt lat="45.581413982436061" lon="4.070382015779614">
        <ele>449.55000000000001</ele>
        <time>2025-04-24T13:42:28Z</time>
      </trkpt>
      <trkpt lat="45.581254977732897" lon="4.07028797082603">
        <ele>451.48000000000002</ele>
        <time>2025-04-24T13:42:29Z</time>
      </trkpt>
      <trkpt lat="45.579845979809761" lon="4.069394962862134">
        <ele>464.93000000000001</ele>
        <time>2025-04-24T13:42:38Z</time>
      </trkpt>
      <trkpt lat="45.579718993976712" lon="4.069254985079169">
        <ele>466.38</ele>
        <time>2025-04-24T13:42:39Z</time>
      </trkpt>
      <trkpt lat="45.579045005142689" lon="4.068273967131972">
        <ele>472.13999999999999</ele>
        <time>2025-04-24T13:42:45Z</time>
      </trkpt>
      <trkpt lat="45.578963030129671" lon="4.068067017942667">
        <ele>473.11000000000001</ele>
        <time>2025-04-24T13:42:46Z</time>
      </trkpt>
      <trkpt lat="45.578892035409808" lon="4.067849004641175">
        <ele>474.06999999999999</ele>
        <time>2025-04-24T13:42:47Z</time>
      </trkpt>
      <trkpt lat="45.578609984368086" lon="4.06697602942586">
        <ele>476.94999999999999</ele>
        <time>2025-04-24T13:42:51Z</time>
      </trkpt>
      <trkpt lat="45.578409992158413" lon="4.066318972036243">
        <ele>478.87</ele>
        <time>2025-04-24T13:42:54Z</time>
      </trkpt>
      <trkpt lat="45.578363975510001" lon="4.066077992320061">
        <ele>479.83999999999997</ele>
        <time>2025-04-24T13:42:55Z</time>
      </trkpt>
      <trkpt lat="45.578347966074944" lon="4.065832989290357">
        <ele>480.80000000000001</ele>
        <time>2025-04-24T13:42:56Z</time>
      </trkpt>
      <trkpt lat="45.578332040458918" lon="4.06558396294713">
        <ele>481.75999999999999</ele>
        <time>2025-04-24T13:42:57Z</time>
      </trkpt>
      <trkpt lat="45.578366992995143" lon="4.065312976017594">
        <ele>483.19999999999999</ele>
        <time>2025-04-24T13:42:58Z</time>
      </trkpt>
      <trkpt lat="45.578438993543386" lon="4.065063027665019">
        <ele>484.16000000000003</ele>
        <time>2025-04-24T13:42:59Z</time>
      </trkpt>
      <trkpt lat="45.57853396050632" lon="4.06483001075685">
        <ele>485.60000000000002</ele>
        <time>2025-04-24T13:43:00Z</time>
      </trkpt>
      <trkpt lat="45.578892035409808" lon="4.063923005014658">
        <ele>490.88999999999999</ele>
        <time>2025-04-24T13:43:04Z</time>
      </trkpt>
      <trkpt lat="45.579036036506295" lon="4.063225965946913">
        <ele>494.74000000000001</ele>
        <time>2025-04-24T13:43:07Z</time>
      </trkpt>
      <trkpt lat="45.579036036506295" lon="4.063011975958943">
        <ele>496.18000000000001</ele>
        <time>2025-04-24T13:43:08Z</time>
      </trkpt>
      <trkpt lat="45.578993037343025" lon="4.062818018719554">
        <ele>497.13999999999999</ele>
        <time>2025-04-24T13:43:09Z</time>
      </trkpt>
      <trkpt lat="45.578923970460892" lon="4.062608974054456">
        <ele>498.10000000000002</ele>
        <time>2025-04-24T13:43:10Z</time>
      </trkpt>
      <trkpt lat="45.578864039853215" lon="4.062431026250124">
        <ele>499.06</ele>
        <time>2025-04-24T13:43:11Z</time>
      </trkpt>
      <trkpt lat="45.57872598990798" lon="4.062327006831765">
        <ele>500.01999999999998</ele>
        <time>2025-04-24T13:43:12Z</time>
      </trkpt>
      <trkpt lat="45.578605039045215" lon="4.062237991020083">
        <ele>500.98000000000002</ele>
        <time>2025-04-24T13:43:13Z</time>
      </trkpt>
      <trkpt lat="45.578452991321683" lon="4.062230028212071">
        <ele>501.45999999999998</ele>
        <time>2025-04-24T13:43:14Z</time>
      </trkpt>
      <trkpt lat="45.57829599827528" lon="4.062220975756645">
        <ele>502.43000000000001</ele>
        <time>2025-04-24T13:43:15Z</time>
      </trkpt>
      <trkpt lat="45.578126013278961" lon="4.062192980200052">
        <ele>503.87</ele>
        <time>2025-04-24T13:43:16Z</time>
      </trkpt>
      <trkpt lat="45.577944964170456" lon="4.062135983258486">
        <ele>504.82999999999998</ele>
        <time>2025-04-24T13:43:17Z</time>
      </trkpt>
      <trkpt lat="45.57775997556746" lon="4.062076974660158">
        <ele>505.79000000000002</ele>
        <time>2025-04-24T13:43:18Z</time>
      </trkpt>
      <trkpt lat="45.577567024156451" lon="4.062089966610074">
        <ele>507.23000000000002</ele>
        <time>2025-04-24T13:43:19Z</time>
      </trkpt>
      <trkpt lat="45.577365020290017" lon="4.062119973823428">
        <ele>508.67000000000002</ele>
        <time>2025-04-24T13:43:20Z</time>
      </trkpt>
      <trkpt lat="45.577158993110061" lon="4.062149981036782">
        <ele>509.63999999999999</ele>
        <time>2025-04-24T13:43:21Z</time>
      </trkpt>
      <trkpt lat="45.576948020607233" lon="4.062164984643459">
        <ele>511.07999999999998</ele>
        <time>2025-04-24T13:43:22Z</time>
      </trkpt>
      <trkpt lat="45.576735036447644" lon="4.062178982421756">
        <ele>512.51999999999998</ele>
        <time>2025-04-24T13:43:23Z</time>
      </trkpt>
      <trkpt lat="45.576518028974533" lon="4.062193986028433">
        <ele>513.96000000000004</ele>
        <time>2025-04-24T13:43:24Z</time>
      </trkpt>
      <trkpt lat="45.576307978481054" lon="4.062207983806729">
        <ele>515.39999999999998</ele>
        <time>2025-04-24T13:43:25Z</time>
      </trkpt>
      <trkpt lat="45.576101029291749" lon="4.062200020998716">
        <ele>516.37</ele>
        <time>2025-04-24T13:43:26Z</time>
      </trkpt>
      <trkpt lat="45.574535960331559" lon="4.06182199716568">
        <ele>527.89999999999998</ele>
        <time>2025-04-24T13:43:34Z</time>
      </trkpt>
      <trkpt lat="45.574176041409373" lon="4.061737004667521">
        <ele>530.78999999999996</ele>
        <time>2025-04-24T13:43:36Z</time>
      </trkpt>
      <trkpt lat="45.573992980644107" lon="4.061657963320613">
        <ele>531.75</ele>
        <time>2025-04-24T13:43:37Z</time>
      </trkpt>
      <trkpt lat="45.573850991204381" lon="4.06154103577137">
        <ele>533.19000000000005</ele>
        <time>2025-04-24T13:43:38Z</time>
      </trkpt>
      <trkpt lat="45.572898974642158" lon="4.060756992548704">
        <ele>540.88</ele>
        <time>2025-04-24T13:43:45Z</time>
      </trkpt>
      <trkpt lat="45.572782969102263" lon="4.060592958703637">
        <ele>541.84000000000003</ele>
        <time>2025-04-24T13:43:46Z</time>
      </trkpt>
      <trkpt lat="45.572670986875892" lon="4.060433031991124">
        <ele>542.32000000000005</ele>
        <time>2025-04-24T13:43:47Z</time>
      </trkpt>
      <trkpt lat="45.572246024385095" lon="4.059830959886313">
        <ele>546.16999999999996</ele>
        <time>2025-04-24T13:43:51Z</time>
      </trkpt>
      <trkpt lat="45.572185004130006" lon="4.059667009860277">
        <ele>547.13</ele>
        <time>2025-04-24T13:43:52Z</time>
      </trkpt>
      <trkpt lat="45.572143010795116" lon="4.05947900377214">
        <ele>548.09000000000003</ele>
        <time>2025-04-24T13:43:53Z</time>
      </trkpt>
      <trkpt lat="45.572130018845201" lon="4.059281023219228">
        <ele>548.57000000000005</ele>
        <time>2025-04-24T13:43:54Z</time>
      </trkpt>
      <trkpt lat="45.572117026895285" lon="4.059094022959471">
        <ele>549.52999999999997</ele>
        <time>2025-04-24T13:43:55Z</time>
      </trkpt>
      <trkpt lat="45.572103029116988" lon="4.05890098772943">
        <ele>550.00999999999999</ele>
        <time>2025-04-24T13:43:56Z</time>
      </trkpt>
      <trkpt lat="45.57206598110497" lon="4.058714993298054">
        <ele>550.97000000000003</ele>
        <time>2025-04-24T13:43:57Z</time>
      </trkpt>
      <trkpt lat="45.57200001552701" lon="4.058510977774859">
        <ele>551.45000000000005</ele>
        <time>2025-04-24T13:43:58Z</time>
      </trkpt>
      <trkpt lat="45.571900019422174" lon="4.058316014707089">
        <ele>552.40999999999997</ele>
        <time>2025-04-24T13:43:59Z</time>
      </trkpt>
      <trkpt lat="45.571790970861912" lon="4.058101018890739">
        <ele>552.89999999999998</ele>
        <time>2025-04-24T13:44:00Z</time>
      </trkpt>
      <trkpt lat="45.571672031655908" lon="4.057870013639331">
        <ele>553.38</ele>
        <time>2025-04-24T13:44:01Z</time>
      </trkpt>
      <trkpt lat="45.571556026116014" lon="4.057616963982582">
        <ele>554.34000000000003</ele>
        <time>2025-04-24T13:44:02Z</time>
      </trkpt>
      <trkpt lat="45.57148402556777" lon="4.057328961789608">
        <ele>555.29999999999995</ele>
        <time>2025-04-24T13:44:03Z</time>
      </trkpt>
      <trkpt lat="45.571412025019526" lon="4.057040037587285">
        <ele>556.25999999999999</ele>
        <time>2025-04-24T13:44:04Z</time>
      </trkpt>
      <trkpt lat="45.570775000378489" lon="4.054964007809758">
        <ele>566.83000000000004</ele>
        <time>2025-04-24T13:44:12Z</time>
      </trkpt>
      <trkpt lat="45.570750022307038" lon="4.054686985909939">
        <ele>567.32000000000005</ele>
        <time>2025-04-24T13:44:13Z</time>
      </trkpt>
      <trkpt lat="45.570725966244936" lon="4.054415998980403">
        <ele>568.75999999999999</ele>
        <time>2025-04-24T13:44:14Z</time>
      </trkpt>
      <trkpt lat="45.57071196846664" lon="4.054143000394106">
        <ele>569.72000000000003</ele>
        <time>2025-04-24T13:44:15Z</time>
      </trkpt>
      <trkpt lat="45.570719009265304" lon="4.053861033171415">
        <ele>570.67999999999995</ele>
        <time>2025-04-24T13:44:16Z</time>
      </trkpt>
      <trkpt lat="45.570787992328405" lon="4.053014041855931">
        <ele>572.60000000000002</ele>
        <time>2025-04-24T13:44:19Z</time>
      </trkpt>
      <trkpt lat="45.570851024240255" lon="4.052749006077647">
        <ele>572.60000000000002</ele>
        <time>2025-04-24T13:44:20Z</time>
      </trkpt>
      <trkpt lat="45.570935010910034" lon="4.052504003047943">
        <ele>573.08000000000004</ele>
        <time>2025-04-24T13:44:21Z</time>
      </trkpt>
      <trkpt lat="45.571326026692986" lon="4.051580987870693">
        <ele>574.52999999999997</ele>
        <time>2025-04-24T13:44:25Z</time>
      </trkpt>
      <trkpt lat="45.571536999195814" lon="4.050871962681413">
        <ele>575.00999999999999</ele>
        <time>2025-04-24T13:44:28Z</time>
      </trkpt>
      <trkpt lat="45.571589972823858" lon="4.050694014877081">
        <ele>575.00999999999999</ele>
        <time>2025-04-24T13:44:29Z</time>
      </trkpt>
      <trkpt lat="45.571710001677275" lon="4.050573986023665">
        <ele>575.49000000000001</ele>
        <time>2025-04-24T13:44:30Z</time>
      </trkpt>
      <trkpt lat="45.571817038580775" lon="4.050474995747209">
        <ele>575.49000000000001</ele>
        <time>2025-04-24T13:44:31Z</time>
      </trkpt>
      <trkpt lat="45.571940001100302" lon="4.050438031554222">
        <ele>575.49000000000001</ele>
        <time>2025-04-24T13:44:32Z</time>
      </trkpt>
      <trkpt lat="45.572076039388776" lon="4.050397966057062">
        <ele>575.49000000000001</ele>
        <time>2025-04-24T13:44:33Z</time>
      </trkpt>
      <trkpt lat="45.572234038263559" lon="4.050350021570921">
        <ele>575.97000000000003</ele>
        <time>2025-04-24T13:44:34Z</time>
      </trkpt>
      <trkpt lat="45.572380973026156" lon="4.050252037122846">
        <ele>575.97000000000003</ele>
        <time>2025-04-24T13:44:35Z</time>
      </trkpt>
      <trkpt lat="45.572520028799772" lon="4.050107030197978">
        <ele>575.97000000000003</ele>
        <time>2025-04-24T13:44:36Z</time>
      </trkpt>
      <trkpt lat="45.572652965784073" lon="4.049942996352911">
        <ele>575.97000000000003</ele>
        <time>2025-04-24T13:44:37Z</time>
      </trkpt>
      <trkpt lat="45.572765031829476" lon="4.049752978608012">
        <ele>575.97000000000003</ele>
        <time>2025-04-24T13:44:38Z</time>
      </trkpt>
      <trkpt lat="45.572854969650507" lon="4.049562038853765">
        <ele>575.97000000000003</ele>
        <time>2025-04-24T13:44:39Z</time>
      </trkpt>
      <trkpt lat="45.57296703569591" lon="4.049423988908529">
        <ele>575.97000000000003</ele>
        <time>2025-04-24T13:44:40Z</time>
      </trkpt>
      <trkpt lat="45.573105001822114" lon="4.04935902915895">
        <ele>576.45000000000005</ele>
        <time>2025-04-24T13:44:41Z</time>
      </trkpt>
      <trkpt lat="45.573255037888885" lon="4.049349976703525">
        <ele>576.92999999999995</ele>
        <time>2025-04-24T13:44:42Z</time>
      </trkpt>
      <trkpt lat="45.573422005400062" lon="4.049340002238751">
        <ele>577.40999999999997</ele>
        <time>2025-04-24T13:44:43Z</time>
      </trkpt>
      <trkpt lat="45.573597019538283" lon="4.049330027773976">
        <ele>577.88999999999999</ele>
        <time>2025-04-24T13:44:44Z</time>
      </trkpt>
      <trkpt lat="45.573773039504886" lon="4.04931602999568">
        <ele>578.37</ele>
        <time>2025-04-24T13:44:45Z</time>
      </trkpt>
      <trkpt lat="45.573947969824076" lon="4.049262972548604">
        <ele>578.85000000000002</ele>
        <time>2025-04-24T13:44:46Z</time>
      </trkpt>
      <trkpt lat="45.574306966736913" lon="4.049184015020728">
        <ele>580.28999999999996</ele>
        <time>2025-04-24T13:44:48Z</time>
      </trkpt>
      <trkpt lat="45.574488015845418" lon="4.049173034727573">
        <ele>581.25</ele>
        <time>2025-04-24T13:44:49Z</time>
      </trkpt>
      <trkpt lat="45.574660012498498" lon="4.049162976443768">
        <ele>581.73000000000002</ele>
        <time>2025-04-24T13:44:50Z</time>
      </trkpt>
      <trkpt lat="45.574962012469769" lon="4.049106985330582">
        <ele>583.17999999999995</ele>
        <time>2025-04-24T13:44:52Z</time>
      </trkpt>
      <trkpt lat="45.575088998302817" lon="4.049029033631086">
        <ele>584.13999999999999</ele>
        <time>2025-04-24T13:44:53Z</time>
      </trkpt>
      <trkpt lat="45.575192011892796" lon="4.048921996727586">
        <ele>584.62</ele>
        <time>2025-04-24T13:44:54Z</time>
      </trkpt>
      <trkpt lat="45.575240040197968" lon="4.048756035044789">
        <ele>584.62</ele>
        <time>2025-04-24T13:44:55Z</time>
      </trkpt>
      <trkpt lat="45.575258983299136" lon="4.048547996208072">
        <ele>585.10000000000002</ele>
        <time>2025-04-24T13:44:56Z</time>
      </trkpt>
      <trkpt lat="45.575229981914163" lon="4.048337023705244">
        <ele>585.58000000000004</ele>
        <time>2025-04-24T13:44:57Z</time>
      </trkpt>
      <trkpt lat="45.575197963044047" lon="4.048097971826792">
        <ele>586.05999999999995</ele>
        <time>2025-04-24T13:44:58Z</time>
      </trkpt>
      <trkpt lat="45.57503099553287" lon="4.046510020270944">
        <ele>588.95000000000005</ele>
        <time>2025-04-24T13:45:04Z</time>
      </trkpt>
      <trkpt lat="45.575024038553238" lon="4.046272980049253">
        <ele>589.42999999999995</ele>
        <time>2025-04-24T13:45:05Z</time>
      </trkpt>
      <trkpt lat="45.575081035494804" lon="4.046070976182818">
        <ele>589.90999999999997</ele>
        <time>2025-04-24T13:45:06Z</time>
      </trkpt>
      <trkpt lat="45.575168039649725" lon="4.045910965651274">
        <ele>590.38999999999999</ele>
        <time>2025-04-24T13:45:07Z</time>
      </trkpt>
      <trkpt lat="45.575283961370587" lon="4.045797977596521">
        <ele>591.35000000000002</ele>
        <time>2025-04-24T13:45:08Z</time>
      </trkpt>
      <trkpt lat="45.575407007709146" lon="4.045713990926743">
        <ele>591.83000000000004</ele>
        <time>2025-04-24T13:45:09Z</time>
      </trkpt>
      <trkpt lat="45.575527036562562" lon="4.045632015913725">
        <ele>592.30999999999995</ele>
        <time>2025-04-24T13:45:10Z</time>
      </trkpt>
      <trkpt lat="45.575641030445695" lon="4.045522967353463">
        <ele>593.26999999999998</ele>
        <time>2025-04-24T13:45:11Z</time>
      </trkpt>
      <trkpt lat="45.575711019337177" lon="4.045332027599216">
        <ele>593.75</ele>
        <time>2025-04-24T13:45:12Z</time>
      </trkpt>
      <trkpt lat="45.575720993801951" lon="4.045118037611246">
        <ele>594.23000000000002</ele>
        <time>2025-04-24T13:45:13Z</time>
      </trkpt>
      <trkpt lat="45.575731974095106" lon="4.044880997389555">
        <ele>595.19000000000005</ele>
        <time>2025-04-24T13:45:14Z</time>
      </trkpt>
      <trkpt lat="45.575791988521814" lon="4.043620023876429">
        <ele>599.51999999999998</ele>
        <time>2025-04-24T13:45:19Z</time>
      </trkpt>
      <trkpt lat="45.575849991291761" lon="4.04341097921133">
        <ele>600.48000000000002</ele>
        <time>2025-04-24T13:45:20Z</time>
      </trkpt>
      <trkpt lat="45.575920986011624" lon="4.043229008093476">
        <ele>601.91999999999996</ele>
        <time>2025-04-24T13:45:21Z</time>
      </trkpt>
      <trkpt lat="45.575984017923474" lon="4.043067991733551">
        <ele>602.88</ele>
        <time>2025-04-24T13:45:22Z</time>
      </trkpt>
      <trkpt lat="45.576028022915125" lon="4.042900018393993">
        <ele>603.85000000000002</ele>
        <time>2025-04-24T13:45:23Z</time>
      </trkpt>
      <trkpt lat="45.576013019308448" lon="4.042720980942249">
        <ele>604.80999999999995</ele>
        <time>2025-04-24T13:45:24Z</time>
      </trkpt>
      <trkpt lat="45.575949987396598" lon="4.042536998167634">
        <ele>605.76999999999998</ele>
        <time>2025-04-24T13:45:25Z</time>
      </trkpt>
      <trkpt lat="45.575869018211961" lon="4.042328959330916">
        <ele>606.73000000000002</ele>
        <time>2025-04-24T13:45:26Z</time>
      </trkpt>
      <trkpt lat="45.575677994638681" lon="4.041919000446796">
        <ele>608.16999999999996</ele>
        <time>2025-04-24T13:45:28Z</time>
      </trkpt>
      <trkpt lat="45.575543968006968" lon="4.041729988530278">
        <ele>609.13</ele>
        <time>2025-04-24T13:45:29Z</time>
      </trkpt>
      <trkpt lat="45.575377000495791" lon="4.041594034060836">
        <ele>610.09000000000003</ele>
        <time>2025-04-24T13:45:30Z</time>
      </trkpt>
      <trkpt lat="45.57466596364975" lon="4.041108973324299">
        <ele>613.94000000000005</ele>
        <time>2025-04-24T13:45:34Z</time>
      </trkpt>
      <trkpt lat="45.574504025280476" lon="4.040973018854857">
        <ele>614.41999999999996</ele>
        <time>2025-04-24T13:45:35Z</time>
      </trkpt>
      <trkpt lat="45.574378967285156" lon="4.040762968361378">
        <ele>615.38</ele>
        <time>2025-04-24T13:45:36Z</time>
      </trkpt>
      <trkpt lat="45.573619985952973" lon="4.039492020383477">
        <ele>621.63</ele>
        <time>2025-04-24T13:45:42Z</time>
      </trkpt>
      <trkpt lat="45.573529964312911" lon="4.039279036223888">
        <ele>623.07000000000005</ele>
        <time>2025-04-24T13:45:43Z</time>
      </trkpt>
      <trkpt lat="45.573477996513247" lon="4.039056999608874">
        <ele>623.54999999999995</ele>
        <time>2025-04-24T13:45:44Z</time>
      </trkpt>
      <trkpt lat="45.573477996513247" lon="4.038891959935427">
        <ele>624.50999999999999</ele>
        <time>2025-04-24T13:45:45Z</time>
      </trkpt>
      <trkpt lat="45.573563994839787" lon="4.03870596550405">
        <ele>625.47000000000003</ele>
        <time>2025-04-24T13:45:46Z</time>
      </trkpt>
      <trkpt lat="45.573643958196044" lon="4.038589959964156">
        <ele>626.44000000000005</ele>
        <time>2025-04-24T13:45:47Z</time>
      </trkpt>
      <trkpt lat="45.573759963735938" lon="4.038517959415913">
        <ele>627.39999999999998</ele>
        <time>2025-04-24T13:45:48Z</time>
      </trkpt>
      <trkpt lat="45.573882004246116" lon="4.03844403102994">
        <ele>628.36000000000001</ele>
        <time>2025-04-24T13:45:49Z</time>
      </trkpt>
      <trkpt lat="45.573958028107882" lon="4.038310004398227">
        <ele>628.84000000000003</ele>
        <time>2025-04-24T13:45:50Z</time>
      </trkpt>
      <trkpt lat="45.574017958715558" lon="4.038170026615262">
        <ele>628.84000000000003</ele>
        <time>2025-04-24T13:45:51Z</time>
      </trkpt>
      <trkpt lat="45.574034973978996" lon="4.037984032183886">
        <ele>629.79999999999995</ele>
        <time>2025-04-24T13:45:52Z</time>
      </trkpt>
      <trkpt lat="45.574009995907545" lon="4.037770964205265">
        <ele>630.27999999999997</ele>
        <time>2025-04-24T13:45:53Z</time>
      </trkpt>
      <trkpt lat="45.573982000350952" lon="4.037540964782238">
        <ele>630.75999999999999</ele>
        <time>2025-04-24T13:45:54Z</time>
      </trkpt>
      <trkpt lat="45.573954004794359" lon="4.037311971187592">
        <ele>631.72000000000003</ele>
        <time>2025-04-24T13:45:55Z</time>
      </trkpt>
      <trkpt lat="45.573988035321236" lon="4.037064034491777">
        <ele>632.67999999999995</ele>
        <time>2025-04-24T13:45:56Z</time>
      </trkpt>
      <trkpt lat="45.574031034484506" lon="4.036810984835029">
        <ele>633.64999999999998</ele>
        <time>2025-04-24T13:45:57Z</time>
      </trkpt>
      <trkpt lat="45.574075961485505" lon="4.036551984027028">
        <ele>634.61000000000001</ele>
        <time>2025-04-24T13:45:58Z</time>
      </trkpt>
      <trkpt lat="45.574229015037417" lon="4.035440962761641">
        <ele>638.45000000000005</ele>
        <time>2025-04-24T13:46:02Z</time>
      </trkpt>
      <trkpt lat="45.574198001995683" lon="4.03517902828753">
        <ele>639.40999999999997</ele>
        <time>2025-04-24T13:46:03Z</time>
      </trkpt>
      <trkpt lat="45.574165983125567" lon="4.034912986680865">
        <ele>640.38</ele>
        <time>2025-04-24T13:46:04Z</time>
      </trkpt>
      <trkpt lat="45.574065987020731" lon="4.034673012793064">
        <ele>641.34000000000003</ele>
        <time>2025-04-24T13:46:05Z</time>
      </trkpt>
      <trkpt lat="45.57395601645112" lon="4.034419963136315">
        <ele>642.77999999999997</ele>
        <time>2025-04-24T13:46:06Z</time>
      </trkpt>
      <trkpt lat="45.573843028396368" lon="4.034161968156695">
        <ele>643.25999999999999</ele>
        <time>2025-04-24T13:46:07Z</time>
      </trkpt>
      <trkpt lat="45.573241040110588" lon="4.032631013542414">
        <ele>649.02999999999997</ele>
        <time>2025-04-24T13:46:13Z</time>
      </trkpt>
      <trkpt lat="45.57320399209857" lon="4.032378969714046">
        <ele>649.99000000000001</ele>
        <time>2025-04-24T13:46:14Z</time>
      </trkpt>
      <trkpt lat="45.573179014027119" lon="4.032114017754793">
        <ele>651.42999999999995</ele>
        <time>2025-04-24T13:46:15Z</time>
      </trkpt>
      <trkpt lat="45.573157975450158" lon="4.03184998780489">
        <ele>652.38999999999999</ele>
        <time>2025-04-24T13:46:16Z</time>
      </trkpt>
      <trkpt lat="45.573172979056835" lon="4.03159199282527">
        <ele>653.35000000000002</ele>
        <time>2025-04-24T13:46:17Z</time>
      </trkpt>
      <trkpt lat="45.573241962119937" lon="4.030373012647033">
        <ele>657.67999999999995</ele>
        <time>2025-04-24T13:46:22Z</time>
      </trkpt>
      <trkpt lat="45.573198962956667" lon="4.030142007395625">
        <ele>658.63999999999999</ele>
        <time>2025-04-24T13:46:23Z</time>
      </trkpt>
      <trkpt lat="45.572941973805428" lon="4.028850020840764">
        <ele>662.97000000000003</ele>
        <time>2025-04-24T13:46:28Z</time>
      </trkpt>
      <trkpt lat="45.572838960215449" lon="4.028657991439104">
        <ele>663.92999999999995</ele>
        <time>2025-04-24T13:46:29Z</time>
      </trkpt>
      <trkpt lat="45.572577025741339" lon="4.028099002316594">
        <ele>667.76999999999998</ele>
        <time>2025-04-24T13:46:32Z</time>
      </trkpt>
      <trkpt lat="45.572546012699604" lon="4.027866991236806">
        <ele>668.73000000000002</ele>
        <time>2025-04-24T13:46:33Z</time>
      </trkpt>
      <trkpt lat="45.57253897190094" lon="4.027641015127301">
        <ele>669.22000000000003</ele>
        <time>2025-04-24T13:46:34Z</time>
      </trkpt>
      <trkpt lat="45.572557998821139" lon="4.027118990197778">
        <ele>670.65999999999997</ele>
        <time>2025-04-24T13:46:36Z</time>
      </trkpt>
      <trkpt lat="45.572567973285913" lon="4.026840040460229">
        <ele>671.13999999999999</ele>
        <time>2025-04-24T13:46:37Z</time>
      </trkpt>
      <trkpt lat="45.572583982720971" lon="4.026558995246887">
        <ele>672.10000000000002</ele>
        <time>2025-04-24T13:46:38Z</time>
      </trkpt>
      <trkpt lat="45.572637962177396" lon="4.026281973347068">
        <ele>673.05999999999995</ele>
        <time>2025-04-24T13:46:39Z</time>
      </trkpt>
      <trkpt lat="45.572695964947343" lon="4.026000006124377">
        <ele>673.53999999999996</ele>
        <time>2025-04-24T13:46:40Z</time>
      </trkpt>
      <trkpt lat="45.57320499792695" lon="4.024209966883063">
        <ele>680.26999999999998</ele>
        <time>2025-04-24T13:46:47Z</time>
      </trkpt>
      <trkpt lat="45.573221007362008" lon="4.023978961631656">
        <ele>681.71000000000004</ele>
        <time>2025-04-24T13:46:48Z</time>
      </trkpt>
      <trkpt lat="45.573191000148654" lon="4.023766983300448">
        <ele>682.19000000000005</ele>
        <time>2025-04-24T13:46:49Z</time>
      </trkpt>
      <trkpt lat="45.57311899960041" lon="4.023546958342195">
        <ele>683.14999999999998</ele>
        <time>2025-04-24T13:46:50Z</time>
      </trkpt>
      <trkpt lat="45.573015986010432" lon="4.023316036909819">
        <ele>684.12</ele>
        <time>2025-04-24T13:46:51Z</time>
      </trkpt>
      <trkpt lat="45.572907021269202" lon="4.023072961717844">
        <ele>684.60000000000002</ele>
        <time>2025-04-24T13:46:52Z</time>
      </trkpt>
      <trkpt lat="45.572698982432485" lon="4.022628972306848">
        <ele>686.03999999999996</ele>
        <time>2025-04-24T13:46:54Z</time>
      </trkpt>
      <trkpt lat="45.572574008256197" lon="4.022449012845755">
        <ele>686.51999999999998</ele>
        <time>2025-04-24T13:46:55Z</time>
      </trkpt>
      <trkpt lat="45.572413997724652" lon="4.022310962900519">
        <ele>687.48000000000002</ele>
        <time>2025-04-24T13:46:56Z</time>
      </trkpt>
      <trkpt lat="45.572224985808134" lon="4.02222597040236">
        <ele>688.44000000000005</ele>
        <time>2025-04-24T13:46:57Z</time>
      </trkpt>
      <trkpt lat="45.572032034397125" lon="4.022166961804032">
        <ele>688.91999999999996</ele>
        <time>2025-04-24T13:46:58Z</time>
      </trkpt>
      <trkpt lat="45.571627020835876" lon="4.022016003727913">
        <ele>690.36000000000001</ele>
        <time>2025-04-24T13:47:00Z</time>
      </trkpt>
      <trkpt lat="45.571430968120694" lon="4.021903015673161">
        <ele>691.33000000000004</ele>
        <time>2025-04-24T13:47:01Z</time>
      </trkpt>
      <trkpt lat="45.571051016449928" lon="4.021568996831775">
        <ele>693.73000000000002</ele>
        <time>2025-04-24T13:47:03Z</time>
      </trkpt>
      <trkpt lat="45.570146022364497" lon="4.020647993311286">
        <ele>699.01999999999998</ele>
        <time>2025-04-24T13:47:08Z</time>
      </trkpt>
      <trkpt lat="45.570014007389545" lon="4.020467028021812">
        <ele>699.98000000000002</ele>
        <time>2025-04-24T13:47:09Z</time>
      </trkpt>
      <trkpt lat="45.569918034598231" lon="4.02022697031498">
        <ele>700.46000000000004</ele>
        <time>2025-04-24T13:47:10Z</time>
      </trkpt>
      <trkpt lat="45.569856008514762" lon="4.019985990598798">
        <ele>701.41999999999996</ele>
        <time>2025-04-24T13:47:11Z</time>
      </trkpt>
      <trkpt lat="45.569818960502744" lon="4.019708968698978">
        <ele>702.38</ele>
        <time>2025-04-24T13:47:12Z</time>
      </trkpt>
      <trkpt lat="45.569776967167854" lon="4.019423983991146">
        <ele>702.86000000000001</ele>
        <time>2025-04-24T13:47:13Z</time>
      </trkpt>
      <trkpt lat="45.569721981883049" lon="4.019159032031894">
        <ele>703.34000000000003</ele>
        <time>2025-04-24T13:47:14Z</time>
      </trkpt>
      <trkpt lat="45.569669008255005" lon="4.018905982375145">
        <ele>704.29999999999995</ele>
        <time>2025-04-24T13:47:15Z</time>
      </trkpt>
      <trkpt lat="45.569436997175217" lon="4.01779999025166">
        <ele>709.59000000000003</ele>
        <time>2025-04-24T13:47:20Z</time>
      </trkpt>
      <trkpt lat="45.56944202631712" lon="4.017566973343492">
        <ele>710.54999999999995</ele>
        <time>2025-04-24T13:47:21Z</time>
      </trkpt>
      <trkpt lat="45.569470021873713" lon="4.017330016940832">
        <ele>711.50999999999999</ele>
        <time>2025-04-24T13:47:22Z</time>
      </trkpt>
      <trkpt lat="45.569559037685394" lon="4.016562988981605">
        <ele>715.36000000000001</ele>
        <time>2025-04-24T13:47:25Z</time>
      </trkpt>
      <trkpt lat="45.56989498436451" lon="4.015288017690182">
        <ele>720.64999999999998</ele>
        <time>2025-04-24T13:47:30Z</time>
      </trkpt>
      <trkpt lat="45.569911999627948" lon="4.015053994953632">
        <ele>721.13</ele>
        <time>2025-04-24T13:47:31Z</time>
      </trkpt>
      <trkpt lat="45.569876041263342" lon="4.014857020229101">
        <ele>722.09000000000003</ele>
        <time>2025-04-24T13:47:32Z</time>
      </trkpt>
      <trkpt lat="45.569807980209589" lon="4.014635989442468">
        <ele>723.52999999999997</ele>
        <time>2025-04-24T13:47:33Z</time>
      </trkpt>
      <trkpt lat="45.569738997146487" lon="4.014412024989724">
        <ele>724.97000000000003</ele>
        <time>2025-04-24T13:47:34Z</time>
      </trkpt>
      <trkpt lat="45.569671019911766" lon="4.014192000031471">
        <ele>725.92999999999995</ele>
        <time>2025-04-24T13:47:35Z</time>
      </trkpt>
      <trkpt lat="45.569639001041651" lon="4.013938028365374">
        <ele>727.37</ele>
        <time>2025-04-24T13:47:36Z</time>
      </trkpt>
      <trkpt lat="45.5696140229702" lon="4.013670980930328">
        <ele>728.34000000000003</ele>
        <time>2025-04-24T13:47:37Z</time>
      </trkpt>
      <trkpt lat="45.569578986614943" lon="4.01309497654438">
        <ele>730.25999999999999</ele>
        <time>2025-04-24T13:47:39Z</time>
      </trkpt>
      <trkpt lat="45.569560965523124" lon="4.012794988229871">
        <ele>731.70000000000005</ele>
        <time>2025-04-24T13:47:40Z</time>
      </trkpt>
      <trkpt lat="45.569543028250337" lon="4.012501034885645">
        <ele>732.65999999999997</ele>
        <time>2025-04-24T13:47:41Z</time>
      </trkpt>
      <trkpt lat="45.569547973573208" lon="4.012188976630569">
        <ele>734.58000000000004</ele>
        <time>2025-04-24T13:47:42Z</time>
      </trkpt>
      <trkpt lat="45.569602958858013" lon="4.011899968609214">
        <ele>736.02999999999997</ele>
        <time>2025-04-24T13:47:43Z</time>
      </trkpt>
      <trkpt lat="45.569655010476708" lon="4.011624036356807">
        <ele>736.99000000000001</ele>
        <time>2025-04-24T13:47:44Z</time>
      </trkpt>
      <trkpt lat="45.569735979661345" lon="4.011369980871677">
        <ele>737.95000000000005</ele>
        <time>2025-04-24T13:47:45Z</time>
      </trkpt>
      <trkpt lat="45.569863971322775" lon="4.011161020025611">
        <ele>738.90999999999997</ele>
        <time>2025-04-24T13:47:46Z</time>
      </trkpt>
      <trkpt lat="45.570021970197558" lon="4.011017018929124">
        <ele>739.87</ele>
        <time>2025-04-24T13:47:47Z</time>
      </trkpt>
      <trkpt lat="45.570187009871006" lon="4.010864971205592">
        <ele>740.83000000000004</ele>
        <time>2025-04-24T13:47:48Z</time>
      </trkpt>
      <trkpt lat="45.570817999541759" lon="4.010288966819644">
        <ele>745.63999999999999</ele>
        <time>2025-04-24T13:47:52Z</time>
      </trkpt>
      <trkpt lat="45.570940040051937" lon="4.010076988488436">
        <ele>747.08000000000004</ele>
        <time>2025-04-24T13:47:53Z</time>
      </trkpt>
      <trkpt lat="45.571397021412849" lon="4.009217005223036">
        <ele>751.88999999999999</ele>
        <time>2025-04-24T13:47:57Z</time>
      </trkpt>
      <trkpt lat="45.571481008082628" lon="4.008958004415035">
        <ele>753.33000000000004</ele>
        <time>2025-04-24T13:47:58Z</time>
      </trkpt>
      <trkpt lat="45.57152995839715" lon="4.008680982515216">
        <ele>754.28999999999996</ele>
        <time>2025-04-24T13:47:59Z</time>
      </trkpt>
      <trkpt lat="45.571567006409168" lon="4.008427010849118">
        <ele>755.73000000000002</ele>
        <time>2025-04-24T13:48:00Z</time>
      </trkpt>
      <trkpt lat="45.571556026116014" lon="4.008165998384357">
        <ele>757.17999999999995</ele>
        <time>2025-04-24T13:48:01Z</time>
      </trkpt>
      <trkpt lat="45.571532975882292" lon="4.007911020889878">
        <ele>758.13999999999999</ele>
        <time>2025-04-24T13:48:02Z</time>
      </trkpt>
      <trkpt lat="45.571476984769106" lon="4.007664006203413">
        <ele>759.10000000000002</ele>
        <time>2025-04-24T13:48:03Z</time>
      </trkpt>
      <trkpt lat="45.571423005312681" lon="4.007429983466864">
        <ele>760.53999999999996</ele>
        <time>2025-04-24T13:48:04Z</time>
      </trkpt>
      <trkpt lat="45.571402972564101" lon="4.006945006549358">
        <ele>762.46000000000004</ele>
        <time>2025-04-24T13:48:06Z</time>
      </trkpt>
      <trkpt lat="45.571428034454584" lon="4.006693968549371">
        <ele>763.89999999999998</ele>
        <time>2025-04-24T13:48:07Z</time>
      </trkpt>
      <trkpt lat="45.571454018354416" lon="4.006437985226512">
        <ele>764.87</ele>
        <time>2025-04-24T13:48:08Z</time>
      </trkpt>
      <trkpt lat="45.571507997810841" lon="4.006198011338711">
        <ele>765.83000000000004</ele>
        <time>2025-04-24T13:48:09Z</time>
      </trkpt>
      <trkpt lat="45.571575975045562" lon="4.0059619769454">
        <ele>766.78999999999996</ele>
        <time>2025-04-24T13:48:10Z</time>
      </trkpt>
      <trkpt lat="45.571640012785792" lon="4.005738012492657">
        <ele>767.26999999999998</ele>
        <time>2025-04-24T13:48:11Z</time>
      </trkpt>
      <trkpt lat="45.571715030819178" lon="4.005536008626223">
        <ele>768.71000000000004</ele>
        <time>2025-04-24T13:48:12Z</time>
      </trkpt>
      <trkpt lat="45.57180798612535" lon="4.00535898283124">
        <ele>769.66999999999996</ele>
        <time>2025-04-24T13:48:13Z</time>
      </trkpt>
      <trkpt lat="45.57189398445189" lon="4.005194026976824">
        <ele>770.14999999999998</ele>
        <time>2025-04-24T13:48:14Z</time>
      </trkpt>
      <trkpt lat="45.571994986385107" lon="4.005067963153124">
        <ele>771.60000000000002</ele>
        <time>2025-04-24T13:48:15Z</time>
      </trkpt>
      <trkpt lat="45.572105040773749" lon="4.004946006461978">
        <ele>772.55999999999995</ele>
        <time>2025-04-24T13:48:16Z</time>
      </trkpt>
      <trkpt lat="45.572245018556714" lon="4.004855984821916">
        <ele>774</ele>
        <time>2025-04-24T13:48:17Z</time>
      </trkpt>
      <trkpt lat="45.572402011603117" lon="4.004753977060318">
        <ele>775.44000000000005</ele>
        <time>2025-04-24T13:48:18Z</time>
      </trkpt>
      <trkpt lat="45.572701999917626" lon="4.004560019820929">
        <ele>777.84000000000003</ele>
        <time>2025-04-24T13:48:20Z</time>
      </trkpt>
      <trkpt lat="45.572827979922295" lon="4.004418030381203">
        <ele>778.80999999999995</ele>
        <time>2025-04-24T13:48:21Z</time>
      </trkpt>
      <trkpt lat="45.57292403653264" lon="4.004236981272697">
        <ele>780.25</ele>
        <time>2025-04-24T13:48:22Z</time>
      </trkpt>
      <trkpt lat="45.572957983240485" lon="4.004032965749502">
        <ele>781.21000000000004</ele>
        <time>2025-04-24T13:48:23Z</time>
      </trkpt>
      <trkpt lat="45.572934010997415" lon="4.003809001296759">
        <ele>782.64999999999998</ele>
        <time>2025-04-24T13:48:24Z</time>
      </trkpt>
      <trkpt lat="45.572900986298919" lon="4.003599034622312">
        <ele>783.61000000000001</ele>
        <time>2025-04-24T13:48:25Z</time>
      </trkpt>
      <trkpt lat="45.572877014055848" lon="4.003443969413638">
        <ele>785.04999999999995</ele>
        <time>2025-04-24T13:48:26Z</time>
      </trkpt>
      <trkpt lat="45.572887994349003" lon="4.003210030496121">
        <ele>786.01999999999998</ele>
        <time>2025-04-24T13:48:27Z</time>
      </trkpt>
      <trkpt lat="45.572896962985396" lon="4.003006014972925">
        <ele>787.46000000000004</ele>
        <time>2025-04-24T13:48:28Z</time>
      </trkpt>
      <trkpt lat="45.572944991290569" lon="4.002821026369929">
        <ele>788.41999999999996</ele>
        <time>2025-04-24T13:48:29Z</time>
      </trkpt>
      <trkpt lat="45.573011040687561" lon="4.002608964219689">
        <ele>789.38</ele>
        <time>2025-04-24T13:48:30Z</time>
      </trkpt>
      <trkpt lat="45.573084969073534" lon="4.002382988110185">
        <ele>790.34000000000003</ele>
        <time>2025-04-24T13:48:31Z</time>
      </trkpt>
      <trkpt lat="45.573394009843469" lon="4.001715034246445">
        <ele>792.74000000000001</ele>
        <time>2025-04-24T13:48:34Z</time>
      </trkpt>
      <trkpt lat="45.573606994003057" lon="4.001255035400391">
        <ele>794.66999999999996</ele>
        <time>2025-04-24T13:48:36Z</time>
      </trkpt>
      <trkpt lat="45.573666002601385" lon="4.001003997400403">
        <ele>796.11000000000001</ele>
        <time>2025-04-24T13:48:37Z</time>
      </trkpt>
      <trkpt lat="45.573706990107894" lon="4.000750025734305">
        <ele>797.07000000000005</ele>
        <time>2025-04-24T13:48:38Z</time>
      </trkpt>
      <trkpt lat="45.573759963735938" lon="4.000203022733331">
        <ele>799.47000000000003</ele>
        <time>2025-04-24T13:48:40Z</time>
      </trkpt>
      <trkpt lat="45.573795000091195" lon="3.999927006661892">
        <ele>800.44000000000005</ele>
        <time>2025-04-24T13:48:41Z</time>
      </trkpt>
      <trkpt lat="45.573853002861142" lon="3.999654008075595">
        <ele>801.88</ele>
        <time>2025-04-24T13:48:42Z</time>
      </trkpt>
      <trkpt lat="45.573942018672824" lon="3.999402970075607">
        <ele>802.84000000000003</ele>
        <time>2025-04-24T13:48:43Z</time>
      </trkpt>
      <trkpt lat="45.57404100894928" lon="3.999162996187806">
        <ele>803.79999999999995</ele>
        <time>2025-04-24T13:48:44Z</time>
      </trkpt>
      <trkpt lat="45.574141005054116" lon="3.998918998986483">
        <ele>805.24000000000001</ele>
        <time>2025-04-24T13:48:45Z</time>
      </trkpt>
      <trkpt lat="45.574237983673811" lon="3.998683970421553">
        <ele>806.67999999999995</ele>
        <time>2025-04-24T13:48:46Z</time>
      </trkpt>
      <trkpt lat="45.57466403581202" lon="3.997820969671011">
        <ele>811.97000000000003</ele>
        <time>2025-04-24T13:48:50Z</time>
      </trkpt>
      <trkpt lat="45.574810970574617" lon="3.997631035745144">
        <ele>813.88999999999999</ele>
        <time>2025-04-24T13:48:51Z</time>
      </trkpt>
      <trkpt lat="45.575281027704477" lon="3.997206995263696">
        <ele>817.74000000000001</ele>
        <time>2025-04-24T13:48:54Z</time>
      </trkpt>
      <trkpt lat="45.575414970517159" lon="3.99708503857255">
        <ele>818.70000000000005</ele>
        <time>2025-04-24T13:48:55Z</time>
      </trkpt>
      <trkpt lat="45.575560983270407" lon="3.997071040794253">
        <ele>819.65999999999997</ele>
        <time>2025-04-24T13:48:56Z</time>
      </trkpt>
      <trkpt lat="45.575700961053371" lon="3.997075986117125">
        <ele>820.62</ele>
        <time>2025-04-24T13:48:57Z</time>
      </trkpt>
      <trkpt lat="45.575843034312129" lon="3.997139018028975">
        <ele>821.58000000000004</ele>
        <time>2025-04-24T13:48:58Z</time>
      </trkpt>
      <trkpt lat="45.575988041236997" lon="3.997203977778554">
        <ele>822.54999999999995</ele>
        <time>2025-04-24T13:48:59Z</time>
      </trkpt>
      <trkpt lat="45.576121984049678" lon="3.99723800830543">
        <ele>823.50999999999999</ele>
        <time>2025-04-24T13:49:00Z</time>
      </trkpt>
      <trkpt lat="45.576249975711107" lon="3.997225016355515">
        <ele>824.47000000000003</ele>
        <time>2025-04-24T13:49:01Z</time>
      </trkpt>
      <trkpt lat="45.576350977644324" lon="3.997142035514116">
        <ele>825.42999999999995</ele>
        <time>2025-04-24T13:49:02Z</time>
      </trkpt>
      <trkpt lat="45.576445022597909" lon="3.997012032195926">
        <ele>826.38999999999999</ele>
        <time>2025-04-24T13:49:03Z</time>
      </trkpt>
      <trkpt lat="45.576506964862347" lon="3.996842969208956">
        <ele>827.35000000000002</ele>
        <time>2025-04-24T13:49:04Z</time>
      </trkpt>
      <trkpt lat="45.576560022309422" lon="3.996697962284088">
        <ele>827.83000000000004</ele>
        <time>2025-04-24T13:49:05Z</time>
      </trkpt>
      <trkpt lat="45.576647026464343" lon="3.996460000053048">
        <ele>829.26999999999998</ele>
        <time>2025-04-24T13:49:07Z</time>
      </trkpt>
      <trkpt lat="45.576698994264007" lon="3.996314993128181">
        <ele>829.75999999999999</ele>
        <time>2025-04-24T13:49:08Z</time>
      </trkpt>
      <trkpt lat="45.577055979520082" lon="3.994925022125244">
        <ele>834.08000000000004</ele>
        <time>2025-04-24T13:49:14Z</time>
      </trkpt>
      <trkpt lat="45.577144995331764" lon="3.994410037994385">
        <ele>835.51999999999998</ele>
        <time>2025-04-24T13:49:16Z</time>
      </trkpt>
      <trkpt lat="45.577182965353131" lon="3.994158999994397">
        <ele>836</ele>
        <time>2025-04-24T13:49:17Z</time>
      </trkpt>
      <trkpt lat="45.577220013365149" lon="3.993919026106596">
        <ele>836.96000000000004</ele>
        <time>2025-04-24T13:49:18Z</time>
      </trkpt>
      <trkpt lat="45.577309029176831" lon="3.993704030290246">
        <ele>836.96000000000004</ele>
        <time>2025-04-24T13:49:19Z</time>
      </trkpt>
      <trkpt lat="45.577423023059964" lon="3.993513006716967">
        <ele>837.45000000000005</ele>
        <time>2025-04-24T13:49:20Z</time>
      </trkpt>
      <trkpt lat="45.577541962265968" lon="3.993313014507294">
        <ele>838.40999999999997</ele>
        <time>2025-04-24T13:49:21Z</time>
      </trkpt>
      <trkpt lat="45.578282000496984" lon="3.99220802821219">
        <ele>842.25</ele>
        <time>2025-04-24T13:49:27Z</time>
      </trkpt>
      <trkpt lat="45.578399011865258" lon="3.992049023509026">
        <ele>842.73000000000002</ele>
        <time>2025-04-24T13:49:28Z</time>
      </trkpt>
      <trkpt lat="45.578453997150064" lon="3.991850037127733">
        <ele>843.21000000000004</ele>
        <time>2025-04-24T13:49:29Z</time>
      </trkpt>
      <trkpt lat="45.578502025455236" lon="3.991637974977493">
        <ele>844.17999999999995</ele>
        <time>2025-04-24T13:49:30Z</time>
      </trkpt>
      <trkpt lat="45.578499007970095" lon="3.99143798276782">
        <ele>845.13999999999999</ele>
        <time>2025-04-24T13:49:31Z</time>
      </trkpt>
      <trkpt lat="45.578462965786457" lon="3.991240002214909">
        <ele>845.62</ele>
        <time>2025-04-24T13:49:32Z</time>
      </trkpt>
      <trkpt lat="45.578427007421851" lon="3.991039004176855">
        <ele>846.58000000000004</ele>
        <time>2025-04-24T13:49:33Z</time>
      </trkpt>
      <trkpt lat="45.578389037400484" lon="3.990821996703744">
        <ele>847.53999999999996</ele>
        <time>2025-04-24T13:49:34Z</time>
      </trkpt>
      <trkpt lat="45.57836196385324" lon="3.990587973967195">
        <ele>848.5</ele>
        <time>2025-04-24T13:49:35Z</time>
      </trkpt>
      <trkpt lat="45.578303961083293" lon="3.990086987614632">
        <ele>850.89999999999998</ele>
        <time>2025-04-24T13:49:37Z</time>
      </trkpt>
      <trkpt lat="45.578258028253913" lon="3.989843996241689">
        <ele>851.87</ele>
        <time>2025-04-24T13:49:38Z</time>
      </trkpt>
      <trkpt lat="45.578179992735386" lon="3.989609973505139">
        <ele>852.83000000000004</ele>
        <time>2025-04-24T13:49:39Z</time>
      </trkpt>
      <trkpt lat="45.578077984973788" lon="3.989397995173931">
        <ele>853.78999999999996</ele>
        <time>2025-04-24T13:49:40Z</time>
      </trkpt>
      <trkpt lat="45.577915962785482" lon="3.989236978814006">
        <ele>854.75</ele>
        <time>2025-04-24T13:49:41Z</time>
      </trkpt>
      <trkpt lat="45.577742038294673" lon="3.989092977717519">
        <ele>855.71000000000004</ele>
        <time>2025-04-24T13:49:42Z</time>
      </trkpt>
      <trkpt lat="45.577563000842929" lon="3.988972026854754">
        <ele>856.19000000000005</ele>
        <time>2025-04-24T13:49:43Z</time>
      </trkpt>
      <trkpt lat="45.577380023896694" lon="3.988860966637731">
        <ele>857.63</ele>
        <time>2025-04-24T13:49:44Z</time>
      </trkpt>
      <trkpt lat="45.57610203512013" lon="3.987943986430764">
        <ele>865.79999999999995</ele>
        <time>2025-04-24T13:49:51Z</time>
      </trkpt>
      <trkpt lat="45.575927020981908" lon="3.987787999212742">
        <ele>867.25</ele>
        <time>2025-04-24T13:49:52Z</time>
      </trkpt>
      <trkpt lat="45.575061002746224" lon="3.987039998173714">
        <ele>874.46000000000004</ele>
        <time>2025-04-24T13:49:57Z</time>
      </trkpt>
      <trkpt lat="45.574896968901157" lon="3.986871019005776">
        <ele>875.89999999999998</ele>
        <time>2025-04-24T13:49:58Z</time>
      </trkpt>
      <trkpt lat="45.574228009209037" lon="3.986246986314654">
        <ele>882.63</ele>
        <time>2025-04-24T13:50:02Z</time>
      </trkpt>
      <trkpt lat="45.573709001764655" lon="3.985797967761755">
        <ele>887.90999999999997</ele>
        <time>2025-04-24T13:50:05Z</time>
      </trkpt>
      <trkpt lat="45.573551002889872" lon="3.985595963895321">
        <ele>889.36000000000001</ele>
        <time>2025-04-24T13:50:06Z</time>
      </trkpt>
      <trkpt lat="45.573394009843469" lon="3.985396977514029">
        <ele>891.27999999999997</ele>
        <time>2025-04-24T13:50:07Z</time>
      </trkpt>
      <trkpt lat="45.573078012093902" lon="3.984995987266302">
        <ele>895.12</ele>
        <time>2025-04-24T13:50:09Z</time>
      </trkpt>
      <trkpt lat="45.572899980470538" lon="3.984829019755125">
        <ele>896.57000000000005</ele>
        <time>2025-04-24T13:50:10Z</time>
      </trkpt>
      <trkpt lat="45.571886021643877" lon="3.983972975984216">
        <ele>906.65999999999997</ele>
        <time>2025-04-24T13:50:16Z</time>
      </trkpt>
      <trkpt lat="45.571793988347054" lon="3.983816988766193">
        <ele>908.10000000000002</ele>
        <time>2025-04-24T13:50:17Z</time>
      </trkpt>
      <trkpt lat="45.571725005283952" lon="3.983604004606605">
        <ele>910.02999999999997</ele>
        <time>2025-04-24T13:50:18Z</time>
      </trkpt>
      <trkpt lat="45.571654010564089" lon="3.983385991305113">
        <ele>911.47000000000003</ele>
        <time>2025-04-24T13:50:19Z</time>
      </trkpt>
      <trkpt lat="45.571589972823858" lon="3.983188010752201">
        <ele>913.38999999999999</ele>
        <time>2025-04-24T13:50:20Z</time>
      </trkpt>
      <trkpt lat="45.571574969217181" lon="3.98295097053051">
        <ele>914.83000000000004</ele>
        <time>2025-04-24T13:50:21Z</time>
      </trkpt>
      <trkpt lat="45.571558037772775" lon="3.982699010521174">
        <ele>916.26999999999998</ele>
        <time>2025-04-24T13:50:22Z</time>
      </trkpt>
      <trkpt lat="45.571541022509336" lon="3.982435986399651">
        <ele>917.72000000000003</ele>
        <time>2025-04-24T13:50:23Z</time>
      </trkpt>
      <trkpt lat="45.571487965062261" lon="3.98161699064076">
        <ele>922.51999999999998</ele>
        <time>2025-04-24T13:50:26Z</time>
      </trkpt>
      <trkpt lat="45.571474973112345" lon="3.9813800342381">
        <ele>924.45000000000005</ele>
        <time>2025-04-24T13:50:27Z</time>
      </trkpt>
      <trkpt lat="45.571462986990809" lon="3.98116797208786">
        <ele>925.88999999999999</ele>
        <time>2025-04-24T13:50:28Z</time>
      </trkpt>
      <trkpt lat="45.571505986154079" lon="3.981010979041457">
        <ele>926.85000000000002</ele>
        <time>2025-04-24T13:50:29Z</time>
      </trkpt>
      <trkpt lat="45.571569018065929" lon="3.980849040672183">
        <ele>927.80999999999995</ele>
        <time>2025-04-24T13:50:30Z</time>
      </trkpt>
      <trkpt lat="45.571662979200482" lon="3.98073697462678">
        <ele>929.25</ele>
        <time>2025-04-24T13:50:31Z</time>
      </trkpt>
      <trkpt lat="45.571777978911996" lon="3.980602025985718">
        <ele>930.21000000000004</ele>
        <time>2025-04-24T13:50:32Z</time>
      </trkpt>
      <trkpt lat="45.571875963360071" lon="3.980427011847496">
        <ele>930.69000000000005</ele>
        <time>2025-04-24T13:50:33Z</time>
      </trkpt>
      <trkpt lat="45.571941006928682" lon="3.980216961354017">
        <ele>931.64999999999998</ele>
        <time>2025-04-24T13:50:34Z</time>
      </trkpt>
      <trkpt lat="45.571950981393456" lon="3.979980004951358">
        <ele>932.62</ele>
        <time>2025-04-24T13:50:35Z</time>
      </trkpt>
      <trkpt lat="45.571932960301638" lon="3.979722009971738">
        <ele>933.10000000000002</ele>
        <time>2025-04-24T13:50:36Z</time>
      </trkpt>
      <trkpt lat="45.571915023028851" lon="3.979462003335357">
        <ele>934.05999999999995</ele>
        <time>2025-04-24T13:50:37Z</time>
      </trkpt>
      <trkpt lat="45.571855008602142" lon="3.979022959247232">
        <ele>935.98000000000002</ele>
        <time>2025-04-24T13:50:39Z</time>
      </trkpt>
      <trkpt lat="45.571783008053899" lon="3.978841993957758">
        <ele>936.94000000000005</ele>
        <time>2025-04-24T13:50:40Z</time>
      </trkpt>
      <trkpt lat="45.571683011949062" lon="3.978709978982806">
        <ele>937.41999999999996</ele>
        <time>2025-04-24T13:50:41Z</time>
      </trkpt>
      <trkpt lat="45.571562983095646" lon="3.978590033948422">
        <ele>938.38</ele>
        <time>2025-04-24T13:50:42Z</time>
      </trkpt>
      <trkpt lat="45.571457035839558" lon="3.978484002873302">
        <ele>938.86000000000001</ele>
        <time>2025-04-24T13:50:43Z</time>
      </trkpt>
      <trkpt lat="45.57137799449265" lon="3.978338995948434">
        <ele>939.83000000000004</ele>
        <time>2025-04-24T13:50:44Z</time>
      </trkpt>
      <trkpt lat="45.571372965350747" lon="3.978161970153451">
        <ele>940.30999999999995</ele>
        <time>2025-04-24T13:50:45Z</time>
      </trkpt>
      <trkpt lat="45.571418981999159" lon="3.977992990985513">
        <ele>941.26999999999998</ele>
        <time>2025-04-24T13:50:46Z</time>
      </trkpt>
      <trkpt lat="45.571483019739389" lon="3.977758968248963">
        <ele>941.75</ele>
        <time>2025-04-24T13:50:47Z</time>
      </trkpt>
      <trkpt lat="45.571553008630872" lon="3.977602981030941">
        <ele>942.71000000000004</ele>
        <time>2025-04-24T13:50:48Z</time>
      </trkpt>
      <trkpt lat="45.571642024442554" lon="3.977405000478029">
        <ele>943.66999999999996</ele>
        <time>2025-04-24T13:50:49Z</time>
      </trkpt>
      <trkpt lat="45.571726011112332" lon="3.977221017703414">
        <ele>944.63</ele>
        <time>2025-04-24T13:50:50Z</time>
      </trkpt>
      <trkpt lat="45.571780996397138" lon="3.977055978029966">
        <ele>946.07000000000005</ele>
        <time>2025-04-24T13:50:51Z</time>
      </trkpt>
      <trkpt lat="45.571770016103983" lon="3.976884987205267">
        <ele>947.03999999999996</ele>
        <time>2025-04-24T13:50:52Z</time>
      </trkpt>
      <trkpt lat="45.571743026375771" lon="3.976732017472386">
        <ele>948</ele>
        <time>2025-04-24T13:50:53Z</time>
      </trkpt>
      <trkpt lat="45.571634983643889" lon="3.976623974740505">
        <ele>948.48000000000002</ele>
        <time>2025-04-24T13:50:54Z</time>
      </trkpt>
      <trkpt lat="45.57150699198246" lon="3.976519033312798">
        <ele>949.44000000000005</ele>
        <time>2025-04-24T13:50:55Z</time>
      </trkpt>
      <trkpt lat="45.571358967572451" lon="3.976425994187594">
        <ele>950.39999999999998</ele>
        <time>2025-04-24T13:50:56Z</time>
      </trkpt>
      <trkpt lat="45.570849012583494" lon="3.976090969517827">
        <ele>953.27999999999997</ele>
        <time>2025-04-24T13:50:59Z</time>
      </trkpt>
      <trkpt lat="45.570695037022233" lon="3.975918972864747">
        <ele>954.25</ele>
        <time>2025-04-24T13:51:00Z</time>
      </trkpt>
      <trkpt lat="45.570274014025927" lon="3.975403988733888">
        <ele>957.61000000000001</ele>
        <time>2025-04-24T13:51:03Z</time>
      </trkpt>
      <trkpt lat="45.570181980729103" lon="3.975221011787653">
        <ele>959.04999999999995</ele>
        <time>2025-04-24T13:51:04Z</time>
      </trkpt>
      <trkpt lat="45.570123977959156" lon="3.975015990436077">
        <ele>960.00999999999999</ele>
        <time>2025-04-24T13:51:05Z</time>
      </trkpt>
      <trkpt lat="45.569985006004572" lon="3.974587004631758">
        <ele>961.46000000000004</ele>
        <time>2025-04-24T13:51:07Z</time>
      </trkpt>
      <trkpt lat="45.56989498436451" lon="3.974368991330266">
        <ele>962.41999999999996</ele>
        <time>2025-04-24T13:51:08Z</time>
      </trkpt>
      <trkpt lat="45.569756012409925" lon="3.974193977192044">
        <ele>963.38</ele>
        <time>2025-04-24T13:51:09Z</time>
      </trkpt>
      <trkpt lat="45.569628020748496" lon="3.97403203882277">
        <ele>964.34000000000003</ele>
        <time>2025-04-24T13:51:10Z</time>
      </trkpt>
      <trkpt lat="45.56950899772346" lon="3.973880996927619">
        <ele>965.29999999999995</ele>
        <time>2025-04-24T13:51:11Z</time>
      </trkpt>
      <trkpt lat="45.569397015497088" lon="3.973718974739313">
        <ele>966.25999999999999</ele>
        <time>2025-04-24T13:51:12Z</time>
      </trkpt>
      <trkpt lat="45.56929400190711" lon="3.973563993349671">
        <ele>967.22000000000003</ele>
        <time>2025-04-24T13:51:13Z</time>
      </trkpt>
      <trkpt lat="45.569192999973893" lon="3.973442958667874">
        <ele>967.70000000000005</ele>
        <time>2025-04-24T13:51:14Z</time>
      </trkpt>
      <trkpt lat="45.56910096667707" lon="3.973382022231817">
        <ele>968.17999999999995</ele>
        <time>2025-04-24T13:51:15Z</time>
      </trkpt>
      <trkpt lat="45.568973980844021" lon="3.973423009738326">
        <ele>968.66999999999996</ele>
        <time>2025-04-24T13:51:16Z</time>
      </trkpt>
      <trkpt lat="45.56884397752583" lon="3.973487969487906">
        <ele>969.63</ele>
        <time>2025-04-24T13:51:17Z</time>
      </trkpt>
      <trkpt lat="45.568707017228007" lon="3.973557036370039">
        <ele>970.59000000000003</ele>
        <time>2025-04-24T13:51:18Z</time>
      </trkpt>
      <trkpt lat="45.568544995039701" lon="3.973611015826464">
        <ele>971.54999999999995</ele>
        <time>2025-04-24T13:51:19Z</time>
      </trkpt>
      <trkpt lat="45.568385990336537" lon="3.973586037755013">
        <ele>972.50999999999999</ele>
        <time>2025-04-24T13:51:20Z</time>
      </trkpt>
      <trkpt lat="45.568209970369935" lon="3.973557958379388">
        <ele>973.95000000000005</ele>
        <time>2025-04-24T13:51:21Z</time>
      </trkpt>
      <trkpt lat="45.567497005686164" lon="3.973413035273552">
        <ele>979.24000000000001</ele>
        <time>2025-04-24T13:51:25Z</time>
      </trkpt>
      <trkpt lat="45.567387035116553" lon="3.973319996148348">
        <ele>980.67999999999995</ele>
        <time>2025-04-24T13:51:26Z</time>
      </trkpt>
      <trkpt lat="45.567291984334588" lon="3.973215976729989">
        <ele>982.60000000000002</ele>
        <time>2025-04-24T13:51:27Z</time>
      </trkpt>
      <trkpt lat="45.567217972129583" lon="3.973048003390431">
        <ele>983.57000000000005</ele>
        <time>2025-04-24T13:51:28Z</time>
      </trkpt>
      <trkpt lat="45.567147983238101" lon="3.972887992858887">
        <ele>984.52999999999997</ele>
        <time>2025-04-24T13:51:29Z</time>
      </trkpt>
      <trkpt lat="45.567031977698207" lon="3.97242397069931">
        <ele>986.92999999999995</ele>
        <time>2025-04-24T13:51:31Z</time>
      </trkpt>
      <trkpt lat="45.566986966878176" lon="3.972194977104664">
        <ele>988.37</ele>
        <time>2025-04-24T13:51:32Z</time>
      </trkpt>
      <trkpt lat="45.566958971321583" lon="3.971953997388482">
        <ele>989.33000000000004</ele>
        <time>2025-04-24T13:51:33Z</time>
      </trkpt>
      <trkpt lat="45.56693198159337" lon="3.971720980480313">
        <ele>990.29999999999995</ele>
        <time>2025-04-24T13:51:34Z</time>
      </trkpt>
      <trkpt lat="45.566897029057145" lon="3.971515037119389">
        <ele>991.25999999999999</ele>
        <time>2025-04-24T13:51:35Z</time>
      </trkpt>
      <trkpt lat="45.566827962175012" lon="3.971323007717729">
        <ele>992.22000000000003</ele>
        <time>2025-04-24T13:51:36Z</time>
      </trkpt>
      <trkpt lat="45.566761996597052" lon="3.971139024943113">
        <ele>992.70000000000005</ele>
        <time>2025-04-24T13:51:37Z</time>
      </trkpt>
      <trkpt lat="45.566711034625769" lon="3.970923023298383">
        <ele>993.65999999999997</ele>
        <time>2025-04-24T13:51:38Z</time>
      </trkpt>
      <trkpt lat="45.566691001877189" lon="3.970692018046975">
        <ele>994.13999999999999</ele>
        <time>2025-04-24T13:51:39Z</time>
      </trkpt>
      <trkpt lat="45.566646996885538" lon="3.970174016430974">
        <ele>996.05999999999995</ele>
        <time>2025-04-24T13:51:41Z</time>
      </trkpt>
      <trkpt lat="45.566624030470848" lon="3.969904035329819">
        <ele>997.01999999999998</ele>
        <time>2025-04-24T13:51:42Z</time>
      </trkpt>
      <trkpt lat="45.566488998010755" lon="3.969373041763902">
        <ele>999.42999999999995</ele>
        <time>2025-04-24T13:51:44Z</time>
      </trkpt>
      <trkpt lat="45.566400988027453" lon="3.969114040955901">
        <ele>1000.39</ele>
        <time>2025-04-24T13:51:45Z</time>
      </trkpt>
      <trkpt lat="45.566298980265856" lon="3.968881024047732">
        <ele>1000.87</ele>
        <time>2025-04-24T13:51:46Z</time>
      </trkpt>
      <trkpt lat="45.566180041059852" lon="3.968693017959595">
        <ele>1001.83</ele>
        <time>2025-04-24T13:51:47Z</time>
      </trkpt>
      <trkpt lat="45.566044002771378" lon="3.968582041561604">
        <ele>1002.79</ele>
        <time>2025-04-24T13:51:48Z</time>
      </trkpt>
      <trkpt lat="45.565924979746342" lon="3.968510963022709">
        <ele>1004.23</ele>
        <time>2025-04-24T13:51:49Z</time>
      </trkpt>
      <trkpt lat="45.565764969214797" lon="3.968510963022709">
        <ele>1004.72</ele>
        <time>2025-04-24T13:51:50Z</time>
      </trkpt>
      <trkpt lat="45.565599007532001" lon="3.968510963022709">
        <ele>1005.6799999999999</ele>
        <time>2025-04-24T13:51:51Z</time>
      </trkpt>
      <trkpt lat="45.565273035317659" lon="3.968452960252762">
        <ele>1007.12</ele>
        <time>2025-04-24T13:51:53Z</time>
      </trkpt>
      <trkpt lat="45.56514797732234" lon="3.96836101077497">
        <ele>1007.12</ele>
        <time>2025-04-24T13:51:54Z</time>
      </trkpt>
      <trkpt lat="45.565067008137703" lon="3.968252968043089">
        <ele>1007.6</ele>
        <time>2025-04-24T13:51:55Z</time>
      </trkpt>
      <trkpt lat="45.565020991489291" lon="3.968062028288841">
        <ele>1007.6</ele>
        <time>2025-04-24T13:51:56Z</time>
      </trkpt>
      <trkpt lat="45.564973969012499" lon="3.967863041907549">
        <ele>1008.08</ele>
        <time>2025-04-24T13:51:57Z</time>
      </trkpt>
      <trkpt lat="45.5649100150913" lon="3.967648968100548">
        <ele>1008.5599999999999</ele>
        <time>2025-04-24T13:51:58Z</time>
      </trkpt>
      <trkpt lat="45.564834997057915" lon="3.967416035011411">
        <ele>1009.04</ele>
        <time>2025-04-24T13:51:59Z</time>
      </trkpt>
      <trkpt lat="45.564524028450251" lon="3.966500982642174">
        <ele>1009.04</ele>
        <time>2025-04-24T13:52:03Z</time>
      </trkpt>
      <trkpt lat="45.564424032345414" lon="3.966371985152364">
        <ele>1009.04</ele>
        <time>2025-04-24T13:52:04Z</time>
      </trkpt>
      <trkpt lat="45.564307020977139" lon="3.966334015130997">
        <ele>1009.04</ele>
        <time>2025-04-24T13:52:05Z</time>
      </trkpt>
      <trkpt lat="45.564194032922387" lon="3.966323034837842">
        <ele>1008.5599999999999</ele>
        <time>2025-04-24T13:52:06Z</time>
      </trkpt>
      <trkpt lat="45.564131001010537" lon="3.966378020122647">
        <ele>1008.08</ele>
        <time>2025-04-24T13:52:07Z</time>
      </trkpt>
      <trkpt lat="45.56407299824059" lon="3.966445997357369">
        <ele>1008.08</ele>
        <time>2025-04-24T13:52:08Z</time>
      </trkpt>
      <trkpt lat="45.564037039875984" lon="3.966542975977063">
        <ele>1007.6</ele>
        <time>2025-04-24T13:52:09Z</time>
      </trkpt>
      <trkpt lat="45.564045002683997" lon="3.966715978458524">
        <ele>1007.6</ele>
        <time>2025-04-24T13:52:10Z</time>
      </trkpt>
      <trkpt lat="45.564053971320391" lon="3.966908007860184">
        <ele>1007.12</ele>
        <time>2025-04-24T13:52:11Z</time>
      </trkpt>
      <trkpt lat="45.564039973542094" lon="3.967138007283211">
        <ele>1006.64</ele>
        <time>2025-04-24T13:52:12Z</time>
      </trkpt>
      <trkpt lat="45.564014995470643" lon="3.96730899810791">
        <ele>1006.64</ele>
        <time>2025-04-24T13:52:13Z</time>
      </trkpt>
      <trkpt lat="45.563927991315722" lon="3.967538997530937">
        <ele>1006.64</ele>
        <time>2025-04-24T13:52:14Z</time>
      </trkpt>
      <trkpt lat="45.563850039616227" lon="3.967745024710894">
        <ele>1006.64</ele>
        <time>2025-04-24T13:52:15Z</time>
      </trkpt>
      <trkpt lat="45.563778961077332" lon="3.96793101914227">
        <ele>1007.12</ele>
        <time>2025-04-24T13:52:16Z</time>
      </trkpt>
      <trkpt lat="45.563645018264651" lon="3.96814500913024">
        <ele>1007.6</ele>
        <time>2025-04-24T13:52:17Z</time>
      </trkpt>
      <trkpt lat="45.56353404186666" lon="3.968320023268461">
        <ele>1007.6</ele>
        <time>2025-04-24T13:52:18Z</time>
      </trkpt>
      <trkpt lat="45.563432034105062" lon="3.96838397718966">
        <ele>1007.6</ele>
        <time>2025-04-24T13:52:19Z</time>
      </trkpt>
      <trkpt lat="45.563306976109743" lon="3.96844600327313">
        <ele>1008.08</ele>
        <time>2025-04-24T13:52:20Z</time>
      </trkpt>
      <trkpt lat="45.563165992498398" lon="3.968450026586652">
        <ele>1008.5599999999999</ele>
        <time>2025-04-24T13:52:21Z</time>
      </trkpt>
      <trkpt lat="45.563005981966853" lon="3.968454971909523">
        <ele>1008.5599999999999</ele>
        <time>2025-04-24T13:52:22Z</time>
      </trkpt>
      <trkpt lat="45.562814958393574" lon="3.968460001051426">
        <ele>1009.04</ele>
        <time>2025-04-24T13:52:23Z</time>
      </trkpt>
      <trkpt lat="45.561401015147567" lon="3.968774992972612">
        <ele>1010</ele>
        <time>2025-04-24T13:52:30Z</time>
      </trkpt>
      <trkpt lat="45.561204962432384" lon="3.968787984922528">
        <ele>1010.48</ele>
        <time>2025-04-24T13:52:31Z</time>
      </trkpt>
      <trkpt lat="45.561030032113194" lon="3.968732999637723">
        <ele>1010.96</ele>
        <time>2025-04-24T13:52:32Z</time>
      </trkpt>
      <trkpt lat="45.560854012146592" lon="3.968667034059763">
        <ele>1010.96</ele>
        <time>2025-04-24T13:52:33Z</time>
      </trkpt>
      <trkpt lat="45.559723963961005" lon="3.968596961349249">
        <ele>1010.48</ele>
        <time>2025-04-24T13:52:40Z</time>
      </trkpt>
      <trkpt lat="45.559688005596399" lon="3.968685977160931">
        <ele>1010</ele>
        <time>2025-04-24T13:52:41Z</time>
      </trkpt>
      <trkpt lat="45.55964601226151" lon="3.96879100240767">
        <ele>1010.48</ele>
        <time>2025-04-24T13:52:42Z</time>
      </trkpt>
      <trkpt lat="45.559584992006421" lon="3.96894296631217">
        <ele>1011.4400000000001</ele>
        <time>2025-04-24T13:52:43Z</time>
      </trkpt>
      <trkpt lat="45.559507962316275" lon="3.969136001542211">
        <ele>1011.4400000000001</ele>
        <time>2025-04-24T13:52:44Z</time>
      </trkpt>
      <trkpt lat="45.559287015348673" lon="3.969689039513469">
        <ele>1011.9299999999999</ele>
        <time>2025-04-24T13:52:47Z</time>
      </trkpt>
      <trkpt lat="45.559206968173385" lon="3.969889031723142">
        <ele>1012.41</ele>
        <time>2025-04-24T13:52:48Z</time>
      </trkpt>
      <trkpt lat="45.558912009000778" lon="3.970549022778869">
        <ele>1013.85</ele>
        <time>2025-04-24T13:52:51Z</time>
      </trkpt>
      <trkpt lat="45.55857103317976" lon="3.971188981086016">
        <ele>1016.25</ele>
        <time>2025-04-24T13:52:54Z</time>
      </trkpt>
      <trkpt lat="45.55848503485322" lon="3.971373969689012">
        <ele>1017.6900000000001</ele>
        <time>2025-04-24T13:52:55Z</time>
      </trkpt>
      <trkpt lat="45.558300968259573" lon="3.971912004053593">
        <ele>1021.54</ele>
        <time>2025-04-24T13:52:58Z</time>
      </trkpt>
      <trkpt lat="45.558170964941382" lon="3.97203697822988">
        <ele>1022.5</ele>
        <time>2025-04-24T13:52:59Z</time>
      </trkpt>
      <trkpt lat="45.558051019906998" lon="3.972066985443234">
        <ele>1024.4200000000001</ele>
        <time>2025-04-24T13:53:00Z</time>
      </trkpt>
      <trkpt lat="45.557916993275285" lon="3.972060028463602">
        <ele>1025.3800000000001</ele>
        <time>2025-04-24T13:53:01Z</time>
      </trkpt>
      <trkpt lat="45.557785984128714" lon="3.972045024856925">
        <ele>1026.8299999999999</ele>
        <time>2025-04-24T13:53:02Z</time>
      </trkpt>
      <trkpt lat="45.557188019156456" lon="3.971976963803172">
        <ele>1032.1099999999999</ele>
        <time>2025-04-24T13:53:06Z</time>
      </trkpt>
      <trkpt lat="45.557018034160137" lon="3.971915021538734">
        <ele>1033.0699999999999</ele>
        <time>2025-04-24T13:53:07Z</time>
      </trkpt>
      <trkpt lat="45.556866992264986" lon="3.971801027655602">
        <ele>1034.52</ele>
        <time>2025-04-24T13:53:08Z</time>
      </trkpt>
      <trkpt lat="45.555677013471723" lon="3.970706015825272">
        <ele>1042.6900000000001</ele>
        <time>2025-04-24T13:53:15Z</time>
      </trkpt>
      <trkpt lat="45.555550027638674" lon="3.970485990867019">
        <ele>1044.6099999999999</ele>
        <time>2025-04-24T13:53:16Z</time>
      </trkpt>
      <trkpt lat="45.555468974635005" lon="3.97027300670743">
        <ele>1046.53</ele>
        <time>2025-04-24T13:53:17Z</time>
      </trkpt>
      <trkpt lat="45.555416001006961" lon="3.970134034752846">
        <ele>1050.8599999999999</ele>
        <time>2025-04-24T13:53:18Z</time>
      </trkpt>
      <trkpt lat="45.555402003228664" lon="3.96992901340127">
        <ele>1053.74</ele>
        <time>2025-04-24T13:53:19Z</time>
      </trkpt>
      <trkpt lat="45.55539202876389" lon="3.969703959301114">
        <ele>1056.1500000000001</ele>
        <time>2025-04-24T13:53:20Z</time>
      </trkpt>
      <trkpt lat="45.555396974086761" lon="3.969459040090442">
        <ele>1058.0699999999999</ele>
        <time>2025-04-24T13:53:21Z</time>
      </trkpt>
      <trkpt lat="45.555407032370567" lon="3.96919802762568">
        <ele>1060.95</ele>
        <time>2025-04-24T13:53:22Z</time>
      </trkpt>
      <trkpt lat="45.555466962978244" lon="3.968265037983656">
        <ele>1069.5999999999999</ele>
        <time>2025-04-24T13:53:26Z</time>
      </trkpt>
      <trkpt lat="45.555464029312134" lon="3.968078037723899">
        <ele>1071.53</ele>
        <time>2025-04-24T13:53:27Z</time>
      </trkpt>
      <trkpt lat="45.555425975471735" lon="3.967880979180336">
        <ele>1073.45</ele>
        <time>2025-04-24T13:53:28Z</time>
      </trkpt>
      <trkpt lat="45.555335031822324" lon="3.967775031924248">
        <ele>1075.8499999999999</ele>
        <time>2025-04-24T13:53:29Z</time>
      </trkpt>
      <trkpt lat="45.555210979655385" lon="3.967699008062482">
        <ele>1077.29</ele>
        <time>2025-04-24T13:53:30Z</time>
      </trkpt>
      <trkpt lat="45.555057004094124" lon="3.967686016112566">
        <ele>1078.74</ele>
        <time>2025-04-24T13:53:31Z</time>
      </trkpt>
      <trkpt lat="45.554900011047721" lon="3.967734966427088">
        <ele>1079.7</ele>
        <time>2025-04-24T13:53:32Z</time>
      </trkpt>
      <trkpt lat="45.55474603548646" lon="3.967807972803712">
        <ele>1080.1800000000001</ele>
        <time>2025-04-24T13:53:33Z</time>
      </trkpt>
      <trkpt lat="45.554589964449406" lon="3.967883996665478">
        <ele>1081.1400000000001</ele>
        <time>2025-04-24T13:53:34Z</time>
      </trkpt>
      <trkpt lat="45.553879011422396" lon="3.967969994992018">
        <ele>1084.5</ele>
        <time>2025-04-24T13:53:38Z</time>
      </trkpt>
      <trkpt lat="45.55335103534162" lon="3.96769498474896">
        <ele>1086.4300000000001</ele>
        <time>2025-04-24T13:53:41Z</time>
      </trkpt>
      <trkpt lat="45.552763966843486" lon="3.967764973640442">
        <ele>1087.8699999999999</ele>
        <time>2025-04-24T13:53:44Z</time>
      </trkpt>
      <trkpt lat="45.552430031821132" lon="3.968005031347275">
        <ele>1088.8299999999999</ele>
        <time>2025-04-24T13:53:46Z</time>
      </trkpt>
      <trkpt lat="45.552259963005781" lon="3.968141991645098">
        <ele>1089.3099999999999</ele>
        <time>2025-04-24T13:53:47Z</time>
      </trkpt>
      <trkpt lat="45.551854027435184" lon="3.968651024624705">
        <ele>1089.79</ele>
        <time>2025-04-24T13:53:50Z</time>
      </trkpt>
      <trkpt lat="45.551725029945374" lon="3.968836013227701">
        <ele>1089.79</ele>
        <time>2025-04-24T13:53:51Z</time>
      </trkpt>
      <trkpt lat="45.55135496892035" lon="3.969132984057069">
        <ele>1090.75</ele>
        <time>2025-04-24T13:53:55Z</time>
      </trkpt>
      <trkpt lat="45.551106026396155" lon="3.969118986278772">
        <ele>1090.75</ele>
        <time>2025-04-24T13:53:56Z</time>
      </trkpt>
      <trkpt lat="45.550968982279301" lon="3.969111023470759">
        <ele>1090.75</ele>
        <time>2025-04-24T13:53:57Z</time>
      </trkpt>
      <trkpt lat="45.550968982279301" lon="3.969111023470759">
        <ele>1090.75</ele>
        <time>2025-04-24T13:53:58Z</time>
      </trkpt>
      <trkpt lat="45.550783993676305" lon="3.969054026529193">
        <ele>1090.75</ele>
        <time>2025-04-24T13:53:59Z</time>
      </trkpt>
      <trkpt lat="45.55066597647965" lon="3.969016978517175">
        <ele>1090.27</ele>
        <time>2025-04-24T13:54:00Z</time>
      </trkpt>
      <trkpt lat="45.550625994801521" lon="3.969003986567259">
        <ele>1090.27</ele>
        <time>2025-04-24T13:54:01Z</time>
      </trkpt>
      <trkpt lat="45.550625994801521" lon="3.969003986567259">
        <ele>1089.79</ele>
        <time>2025-04-24T13:54:02Z</time>
      </trkpt>
      <trkpt lat="45.550328018143773" lon="3.968773987144232">
        <ele>1088.8299999999999</ele>
        <time>2025-04-24T13:54:04Z</time>
      </trkpt>
      <trkpt lat="45.549601977691054" lon="3.968195971101522">
        <ele>1089.79</ele>
        <time>2025-04-24T13:54:09Z</time>
      </trkpt>
      <trkpt lat="45.548291970044374" lon="3.967060977593064">
        <ele>1097</ele>
        <time>2025-04-24T13:54:17Z</time>
      </trkpt>
      <trkpt lat="45.548222986981273" lon="3.966923011466861">
        <ele>1097.48</ele>
        <time>2025-04-24T13:54:18Z</time>
      </trkpt>
      <trkpt lat="45.548160038888454" lon="3.966636015102267">
        <ele>1098.4400000000001</ele>
        <time>2025-04-24T13:54:19Z</time>
      </trkpt>
      <trkpt lat="45.548112010583282" lon="3.966414984315634">
        <ele>1099.4000000000001</ele>
        <time>2025-04-24T13:54:20Z</time>
      </trkpt>
      <trkpt lat="45.548072028905153" lon="3.966236030682921">
        <ele>1100.3699999999999</ele>
        <time>2025-04-24T13:54:21Z</time>
      </trkpt>
      <trkpt lat="45.548060964792967" lon="3.965960014611483">
        <ele>1101.8099999999999</ele>
        <time>2025-04-24T13:54:22Z</time>
      </trkpt>
      <trkpt lat="45.548051996156573" lon="3.965716017410159">
        <ele>1103.73</ele>
        <time>2025-04-24T13:54:23Z</time>
      </trkpt>
      <trkpt lat="45.548007991164923" lon="3.965506972745061">
        <ele>1106.1300000000001</ele>
        <time>2025-04-24T13:54:24Z</time>
      </trkpt>
      <trkpt lat="45.547901038080454" lon="3.965399013832212">
        <ele>1109.02</ele>
        <time>2025-04-24T13:54:25Z</time>
      </trkpt>
      <trkpt lat="45.54780799895525" lon="3.965360959991813">
        <ele>1110.9400000000001</ele>
        <time>2025-04-24T13:54:26Z</time>
      </trkpt>
      <trkpt lat="45.547712026163936" lon="3.965321984142065">
        <ele>1112.8599999999999</ele>
        <time>2025-04-24T13:54:27Z</time>
      </trkpt>
      <trkpt lat="45.54761596955359" lon="3.965282002463937">
        <ele>1112.8599999999999</ele>
        <time>2025-04-24T13:54:28Z</time>
      </trkpt>
      <trkpt lat="45.54746501147747" lon="3.965189969167113">
        <ele>1113.3399999999999</ele>
        <time>2025-04-24T13:54:29Z</time>
      </trkpt>
      <trkpt lat="45.547340959310532" lon="3.965087039396167">
        <ele>1113.3399999999999</ele>
        <time>2025-04-24T13:54:30Z</time>
      </trkpt>
      <trkpt lat="45.547091010957956" lon="3.964658975601196">
        <ele>1113.8199999999999</ele>
        <time>2025-04-24T13:54:32Z</time>
      </trkpt>
      <trkpt lat="45.546997971832752" lon="3.9644739869982">
        <ele>1114.79</ele>
        <time>2025-04-24T13:54:33Z</time>
      </trkpt>
      <trkpt lat="45.546850031241775" lon="3.964097974821925">
        <ele>1116.23</ele>
        <time>2025-04-24T13:54:35Z</time>
      </trkpt>
      <trkpt lat="45.546804014593363" lon="3.963923966512084">
        <ele>1117.1900000000001</ele>
        <time>2025-04-24T13:54:36Z</time>
      </trkpt>
      <trkpt lat="45.54673695936799" lon="3.963523982092738">
        <ele>1117.6700000000001</ele>
        <time>2025-04-24T13:54:38Z</time>
      </trkpt>
      <trkpt lat="45.5467139929533" lon="3.963315021246672">
        <ele>1118.1500000000001</ele>
        <time>2025-04-24T13:54:39Z</time>
      </trkpt>
      <trkpt lat="45.546612991020083" lon="3.961258018389344">
        <ele>1124.4000000000001</ele>
        <time>2025-04-24T13:54:48Z</time>
      </trkpt>
      <trkpt lat="45.546555994078517" lon="3.961040005087853">
        <ele>1124.8800000000001</ele>
        <time>2025-04-24T13:54:49Z</time>
      </trkpt>
      <trkpt lat="45.546506037935615" lon="3.960849987342954">
        <ele>1124.8800000000001</ele>
        <time>2025-04-24T13:54:50Z</time>
      </trkpt>
      <trkpt lat="45.546442000195384" lon="3.960700035095215">
        <ele>1125.3599999999999</ele>
        <time>2025-04-24T13:54:51Z</time>
      </trkpt>
      <trkpt lat="45.546336974948645" lon="3.960498031228781">
        <ele>1125.8399999999999</ele>
        <time>2025-04-24T13:54:52Z</time>
      </trkpt>
      <trkpt lat="45.546237984672189" lon="3.960307007655501">
        <ele>1126.3199999999999</ele>
        <time>2025-04-24T13:54:53Z</time>
      </trkpt>
      <trkpt lat="45.546141006052494" lon="3.960121013224125">
        <ele>1126.3199999999999</ele>
        <time>2025-04-24T13:54:54Z</time>
      </trkpt>
      <trkpt lat="45.546040004119277" lon="3.959971982985735">
        <ele>1126.8</ele>
        <time>2025-04-24T13:54:55Z</time>
      </trkpt>
      <trkpt lat="45.545399039983749" lon="3.959028013050556">
        <ele>1127.76</ele>
        <time>2025-04-24T13:55:01Z</time>
      </trkpt>
      <trkpt lat="45.54529401473701" lon="3.958829026669264">
        <ele>1128.24</ele>
        <time>2025-04-24T13:55:02Z</time>
      </trkpt>
      <trkpt lat="45.544863017275929" lon="3.957646004855633">
        <ele>1128.73</ele>
        <time>2025-04-24T13:55:08Z</time>
      </trkpt>
      <trkpt lat="45.544853964820504" lon="3.957503009587526">
        <ele>1128.73</ele>
        <time>2025-04-24T13:55:09Z</time>
      </trkpt>
      <trkpt lat="45.544887995347381" lon="3.957270998507738">
        <ele>1128.73</ele>
        <time>2025-04-24T13:55:10Z</time>
      </trkpt>
      <trkpt lat="45.544915990903974" lon="3.957077041268349">
        <ele>1129.21</ele>
        <time>2025-04-24T13:55:11Z</time>
      </trkpt>
      <trkpt lat="45.544945998117328" lon="3.956875037401915">
        <ele>1129.21</ele>
        <time>2025-04-24T13:55:12Z</time>
      </trkpt>
      <trkpt lat="45.545327039435506" lon="3.954212022945285">
        <ele>1130.6500000000001</ele>
        <time>2025-04-24T13:55:24Z</time>
      </trkpt>
      <trkpt lat="45.545487971976399" lon="3.952421983703971">
        <ele>1131.1300000000001</ele>
        <time>2025-04-24T13:55:32Z</time>
      </trkpt>
      <trkpt lat="45.545447990298271" lon="3.952230038121343">
        <ele>1131.6099999999999</ele>
        <time>2025-04-24T13:55:33Z</time>
      </trkpt>
      <trkpt lat="45.545390993356705" lon="3.952057035639882">
        <ele>1132.0899999999999</ele>
        <time>2025-04-24T13:55:34Z</time>
      </trkpt>
      <trkpt lat="45.545312035828829" lon="3.951862994581461">
        <ele>1132.5699999999999</ele>
        <time>2025-04-24T13:55:35Z</time>
      </trkpt>
      <trkpt lat="45.545232994481921" lon="3.95166995935142">
        <ele>1132.5699999999999</ele>
        <time>2025-04-24T13:55:36Z</time>
      </trkpt>
      <trkpt lat="45.544497985392809" lon="3.950173035264015">
        <ele>1135.9400000000001</ele>
        <time>2025-04-24T13:55:43Z</time>
      </trkpt>
      <trkpt lat="45.543822990730405" lon="3.948813993483782">
        <ele>1138.8199999999999</ele>
        <time>2025-04-24T13:55:49Z</time>
      </trkpt>
      <trkpt lat="45.543712014332414" lon="3.948589023202658">
        <ele>1139.3</ele>
        <time>2025-04-24T13:55:50Z</time>
      </trkpt>
      <trkpt lat="45.54359600879252" lon="3.94835801795125">
        <ele>1139.78</ele>
        <time>2025-04-24T13:55:51Z</time>
      </trkpt>
      <trkpt lat="45.543485032394528" lon="3.948134975507855">
        <ele>1140.26</ele>
        <time>2025-04-24T13:55:52Z</time>
      </trkpt>
      <trkpt lat="45.543374978005886" lon="3.947915034368634">
        <ele>1140.74</ele>
        <time>2025-04-24T13:55:53Z</time>
      </trkpt>
      <trkpt lat="45.543270036578178" lon="3.947704983875155">
        <ele>1141.22</ele>
        <time>2025-04-24T13:55:54Z</time>
      </trkpt>
      <trkpt lat="45.542883966118097" lon="3.947044992819428">
        <ele>1143.6300000000001</ele>
        <time>2025-04-24T13:55:58Z</time>
      </trkpt>
      <trkpt lat="45.542777013033628" lon="3.946935022249818">
        <ele>1143.6300000000001</ele>
        <time>2025-04-24T13:55:59Z</time>
      </trkpt>
      <trkpt lat="45.541650988161564" lon="3.945985017344356">
        <ele>1140.74</ele>
        <time>2025-04-24T13:56:07Z</time>
      </trkpt>
      <trkpt lat="45.540325976908207" lon="3.945314968004823">
        <ele>1134.01</ele>
        <time>2025-04-24T13:56:15Z</time>
      </trkpt>
      <trkpt lat="45.540033029392362" lon="3.945021014660597">
        <ele>1132.5699999999999</ele>
        <time>2025-04-24T13:56:17Z</time>
      </trkpt>
      <trkpt lat="45.539942001923919" lon="3.94485698081553">
        <ele>1132.0899999999999</ele>
        <time>2025-04-24T13:56:18Z</time>
      </trkpt>
      <trkpt lat="45.539882993325591" lon="3.944689007475972">
        <ele>1131.1300000000001</ele>
        <time>2025-04-24T13:56:19Z</time>
      </trkpt>
      <trkpt lat="45.539846029132605" lon="3.944503013044596">
        <ele>1130.6500000000001</ele>
        <time>2025-04-24T13:56:20Z</time>
      </trkpt>
      <trkpt lat="45.539848962798715" lon="3.944329004734755">
        <ele>1130.1700000000001</ele>
        <time>2025-04-24T13:56:21Z</time>
      </trkpt>
      <trkpt lat="45.53988098166883" lon="3.944129012525082">
        <ele>1129.21</ele>
        <time>2025-04-24T13:56:22Z</time>
      </trkpt>
      <trkpt lat="45.539921969175339" lon="3.943944023922086">
        <ele>1128.24</ele>
        <time>2025-04-24T13:56:23Z</time>
      </trkpt>
      <trkpt lat="45.539997993037105" lon="3.943776972591877">
        <ele>1127.76</ele>
        <time>2025-04-24T13:56:24Z</time>
      </trkpt>
      <trkpt lat="45.540118021890521" lon="3.943656021729112">
        <ele>1126.8</ele>
        <time>2025-04-24T13:56:25Z</time>
      </trkpt>
      <trkpt lat="45.540250036865473" lon="3.943573962897062">
        <ele>1125.8399999999999</ele>
        <time>2025-04-24T13:56:26Z</time>
      </trkpt>
      <trkpt lat="45.540391020476818" lon="3.943555019795895">
        <ele>1124.8800000000001</ele>
        <time>2025-04-24T13:56:27Z</time>
      </trkpt>
      <trkpt lat="45.540551031008363" lon="3.943555019795895">
        <ele>1123.9200000000001</ele>
        <time>2025-04-24T13:56:28Z</time>
      </trkpt>
      <trkpt lat="45.540716992691159" lon="3.943555019795895">
        <ele>1122.96</ele>
        <time>2025-04-24T13:56:29Z</time>
      </trkpt>
      <trkpt lat="45.540892006829381" lon="3.943555019795895">
        <ele>1122.48</ele>
        <time>2025-04-24T13:56:30Z</time>
      </trkpt>
      <trkpt lat="45.541070960462093" lon="3.943544961512089">
        <ele>1122</ele>
        <time>2025-04-24T13:56:31Z</time>
      </trkpt>
      <trkpt lat="45.541253015398979" lon="3.943495005369186">
        <ele>1121.03</ele>
        <time>2025-04-24T13:56:32Z</time>
      </trkpt>
      <trkpt lat="45.541439009830356" lon="3.943433985114098">
        <ele>1120.55</ele>
        <time>2025-04-24T13:56:33Z</time>
      </trkpt>
      <trkpt lat="45.541610000655055" lon="3.943303981795907">
        <ele>1119.5899999999999</ele>
        <time>2025-04-24T13:56:34Z</time>
      </trkpt>
      <trkpt lat="45.541783003136516" lon="3.943171966820955">
        <ele>1118.6300000000001</ele>
        <time>2025-04-24T13:56:35Z</time>
      </trkpt>
      <trkpt lat="45.543190995231271" lon="3.942089024931192">
        <ele>1109.98</ele>
        <time>2025-04-24T13:56:43Z</time>
      </trkpt>
      <trkpt lat="45.543921981006861" lon="3.941431967541575">
        <ele>1105.1700000000001</ele>
        <time>2025-04-24T13:56:48Z</time>
      </trkpt>
      <trkpt lat="45.544032035395503" lon="3.94131001085043">
        <ele>1104.6900000000001</ele>
        <time>2025-04-24T13:56:49Z</time>
      </trkpt>
      <trkpt lat="45.544100012630224" lon="3.941125022247434">
        <ele>1103.73</ele>
        <time>2025-04-24T13:56:50Z</time>
      </trkpt>
      <trkpt lat="45.544159021228552" lon="3.940958976745606">
        <ele>1103.25</ele>
        <time>2025-04-24T13:56:51Z</time>
      </trkpt>
      <trkpt lat="45.544189028441906" lon="3.94077398814261">
        <ele>1102.29</ele>
        <time>2025-04-24T13:56:52Z</time>
      </trkpt>
      <trkpt lat="45.544189028441906" lon="3.940575001761317">
        <ele>1101.3299999999999</ele>
        <time>2025-04-24T13:56:53Z</time>
      </trkpt>
      <trkpt lat="45.54415499791503" lon="3.940380960702896">
        <ele>1100.8499999999999</ele>
        <time>2025-04-24T13:56:54Z</time>
      </trkpt>
      <trkpt lat="45.54411199875176" lon="3.940188009291887">
        <ele>1099.8900000000001</ele>
        <time>2025-04-24T13:56:55Z</time>
      </trkpt>
      <trkpt lat="45.544053995981812" lon="3.939995979890227">
        <ele>1098.9200000000001</ele>
        <time>2025-04-24T13:56:56Z</time>
      </trkpt>
      <trkpt lat="45.543995993211865" lon="3.93980797380209">
        <ele>1097.96</ele>
        <time>2025-04-24T13:56:57Z</time>
      </trkpt>
      <trkpt lat="45.54394100792706" lon="3.939624996855855">
        <ele>1097.48</ele>
        <time>2025-04-24T13:56:58Z</time>
      </trkpt>
      <trkpt lat="45.543914018198848" lon="3.93942098133266">
        <ele>1096.52</ele>
        <time>2025-04-24T13:56:59Z</time>
      </trkpt>
      <trkpt lat="45.543923992663622" lon="3.939215037971735">
        <ele>1095.0799999999999</ele>
        <time>2025-04-24T13:57:00Z</time>
      </trkpt>
      <trkpt lat="45.543949976563454" lon="3.939005993306637">
        <ele>1094.1199999999999</ele>
        <time>2025-04-24T13:57:01Z</time>
      </trkpt>
      <trkpt lat="45.54400596767664" lon="3.938808012753725">
        <ele>1093.1600000000001</ele>
        <time>2025-04-24T13:57:02Z</time>
      </trkpt>
      <trkpt lat="45.544101018458605" lon="3.938638027757406">
        <ele>1091.71</ele>
        <time>2025-04-24T13:57:03Z</time>
      </trkpt>
      <trkpt lat="45.54421802982688" lon="3.938500983640552">
        <ele>1090.75</ele>
        <time>2025-04-24T13:57:04Z</time>
      </trkpt>
      <trkpt lat="45.544363958761096" lon="3.938402999192476">
        <ele>1089.79</ele>
        <time>2025-04-24T13:57:05Z</time>
      </trkpt>
      <trkpt lat="45.544521035626531" lon="3.938298979774118">
        <ele>1088.8299999999999</ele>
        <time>2025-04-24T13:57:06Z</time>
      </trkpt>
      <trkpt lat="45.546070011332631" lon="3.937386022880673">
        <ele>1077.78</ele>
        <time>2025-04-24T13:57:15Z</time>
      </trkpt>
      <trkpt lat="45.546247037127614" lon="3.937346041202545">
        <ele>1076.3299999999999</ele>
        <time>2025-04-24T13:57:16Z</time>
      </trkpt>
      <trkpt lat="45.546425990760326" lon="3.93731402233243">
        <ele>1074.8900000000001</ele>
        <time>2025-04-24T13:57:17Z</time>
      </trkpt>
      <trkpt lat="45.546596981585026" lon="3.937333971261978">
        <ele>1073.9300000000001</ele>
        <time>2025-04-24T13:57:18Z</time>
      </trkpt>
      <trkpt lat="45.546760009601712" lon="3.937351992353797">
        <ele>1072.49</ele>
        <time>2025-04-24T13:57:19Z</time>
      </trkpt>
      <trkpt lat="45.547054968774319" lon="3.937386022880673">
        <ele>1070.0799999999999</ele>
        <time>2025-04-24T13:57:21Z</time>
      </trkpt>
      <trkpt lat="45.547182960435748" lon="3.937376970425248">
        <ele>1069.1199999999999</ele>
        <time>2025-04-24T13:57:22Z</time>
      </trkpt>
      <trkpt lat="45.54729301482439" lon="3.937311004847288">
        <ele>1068.1600000000001</ele>
        <time>2025-04-24T13:57:23Z</time>
      </trkpt>
      <trkpt lat="45.547392005100846" lon="3.937201034277678">
        <ele>1067.2</ele>
        <time>2025-04-24T13:57:24Z</time>
      </trkpt>
      <trkpt lat="45.547455037012696" lon="3.937047980725765">
        <ele>1066.72</ele>
        <time>2025-04-24T13:57:25Z</time>
      </trkpt>
      <trkpt lat="45.547513961791992" lon="3.936872966587544">
        <ele>1065.76</ele>
        <time>2025-04-24T13:57:26Z</time>
      </trkpt>
      <trkpt lat="45.547513961791992" lon="3.936688983812928">
        <ele>1065.28</ele>
        <time>2025-04-24T13:57:27Z</time>
      </trkpt>
      <trkpt lat="45.547498036175966" lon="3.936510030180216">
        <ele>1063.8399999999999</ele>
        <time>2025-04-24T13:57:28Z</time>
      </trkpt>
      <trkpt lat="45.5474220123142" lon="3.936376003548503">
        <ele>1063.3599999999999</ele>
        <time>2025-04-24T13:57:29Z</time>
      </trkpt>
      <trkpt lat="45.547342970967293" lon="3.936238037422299">
        <ele>1062.3900000000001</ele>
        <time>2025-04-24T13:57:30Z</time>
      </trkpt>
      <trkpt lat="45.547214979305863" lon="3.936139969155192">
        <ele>1061.4300000000001</ele>
        <time>2025-04-24T13:57:31Z</time>
      </trkpt>
      <trkpt lat="45.547076007351279" lon="3.936033016070724">
        <ele>1060.47</ele>
        <time>2025-04-24T13:57:32Z</time>
      </trkpt>
      <trkpt lat="45.546926977112889" lon="3.935919022187591">
        <ele>1059.51</ele>
        <time>2025-04-24T13:57:33Z</time>
      </trkpt>
      <trkpt lat="45.546140000224113" lon="3.935207985341549">
        <ele>1055.1800000000001</ele>
        <time>2025-04-24T13:57:38Z</time>
      </trkpt>
      <trkpt lat="45.545742027461529" lon="3.934706998988986">
        <ele>1054.7</ele>
        <time>2025-04-24T13:57:41Z</time>
      </trkpt>
      <trkpt lat="45.545605989173055" lon="3.93460800871253">
        <ele>1054.7</ele>
        <time>2025-04-24T13:57:42Z</time>
      </trkpt>
      <trkpt lat="45.545468023046851" lon="3.93460800871253">
        <ele>1054.22</ele>
        <time>2025-04-24T13:57:43Z</time>
      </trkpt>
      <trkpt lat="45.545327039435506" lon="3.93460800871253">
        <ele>1053.74</ele>
        <time>2025-04-24T13:57:44Z</time>
      </trkpt>
      <trkpt lat="45.545206004753709" lon="3.934671962633729">
        <ele>1053.26</ele>
        <time>2025-04-24T13:57:45Z</time>
      </trkpt>
      <trkpt lat="45.545071978121996" lon="3.934784028679133">
        <ele>1052.78</ele>
        <time>2025-04-24T13:57:46Z</time>
      </trkpt>
      <trkpt lat="45.544934011995792" lon="3.934900034219027">
        <ele>1051.8199999999999</ele>
        <time>2025-04-24T13:57:47Z</time>
      </trkpt>
      <trkpt lat="45.544798979535699" lon="3.93501402810216">
        <ele>1050.8599999999999</ele>
        <time>2025-04-24T13:57:48Z</time>
      </trkpt>
      <trkpt lat="45.544648021459579" lon="3.9351000264287">
        <ele>1049.9000000000001</ele>
        <time>2025-04-24T13:57:49Z</time>
      </trkpt>
      <trkpt lat="45.544485999271274" lon="3.935136990621686">
        <ele>1048.9400000000001</ele>
        <time>2025-04-24T13:57:50Z</time>
      </trkpt>
      <trkpt lat="45.544320037588477" lon="3.935159035027027">
        <ele>1047.97</ele>
        <time>2025-04-24T13:57:51Z</time>
      </trkpt>
      <trkpt lat="45.544157009571791" lon="3.935104971751571">
        <ele>1047.01</ele>
        <time>2025-04-24T13:57:52Z</time>
      </trkpt>
      <trkpt lat="45.543989036232233" lon="3.93501696176827">
        <ele>1045.5699999999999</ele>
        <time>2025-04-24T13:57:53Z</time>
      </trkpt>
      <trkpt lat="45.543808992952108" lon="3.934923000633717">
        <ele>1044.6099999999999</ele>
        <time>2025-04-24T13:57:54Z</time>
      </trkpt>
      <trkpt lat="45.543622998520732" lon="3.934827027842403">
        <ele>1043.6500000000001</ele>
        <time>2025-04-24T13:57:55Z</time>
      </trkpt>
      <trkpt lat="45.541468011215329" lon="3.933665966615081">
        <ele>1031.1500000000001</ele>
        <time>2025-04-24T13:58:06Z</time>
      </trkpt>
      <trkpt lat="45.541289979591966" lon="3.933521965518594">
        <ele>1030.1900000000001</ele>
        <time>2025-04-24T13:58:07Z</time>
      </trkpt>
      <trkpt lat="45.541140027344227" lon="3.933362038806081">
        <ele>1028.75</ele>
        <time>2025-04-24T13:58:08Z</time>
      </trkpt>
      <trkpt lat="45.540998037904501" lon="3.93318903632462">
        <ele>1027.79</ele>
        <time>2025-04-24T13:58:09Z</time>
      </trkpt>
      <trkpt lat="45.540281971916556" lon="3.932369034737349">
        <ele>1022.98</ele>
        <time>2025-04-24T13:58:14Z</time>
      </trkpt>
      <trkpt lat="45.540136964991689" lon="3.93228898756206">
        <ele>1022.5</ele>
        <time>2025-04-24T13:58:15Z</time>
      </trkpt>
      <trkpt lat="45.539976032450795" lon="3.932243976742029">
        <ele>1021.54</ele>
        <time>2025-04-24T13:58:16Z</time>
      </trkpt>
      <trkpt lat="45.539456019178033" lon="3.932098969817162">
        <ele>1017.6900000000001</ele>
        <time>2025-04-24T13:58:19Z</time>
      </trkpt>
      <trkpt lat="45.53927899338305" lon="3.932038033381105">
        <ele>1016.25</ele>
        <time>2025-04-24T13:58:20Z</time>
      </trkpt>
      <trkpt lat="45.539129041135311" lon="3.93190098926425">
        <ele>1015.29</ele>
        <time>2025-04-24T13:58:21Z</time>
      </trkpt>
      <trkpt lat="45.538137964904308" lon="3.931044023483992">
        <ele>1009.04</ele>
        <time>2025-04-24T13:58:27Z</time>
      </trkpt>
      <trkpt lat="45.537969991564751" lon="3.930945033207536">
        <ele>1008.08</ele>
        <time>2025-04-24T13:58:28Z</time>
      </trkpt>
      <trkpt lat="45.537805035710335" lon="3.93084897659719">
        <ele>1007.12</ele>
        <time>2025-04-24T13:58:29Z</time>
      </trkpt>
      <trkpt lat="45.537664974108338" lon="3.930767001584172">
        <ele>1006.16</ele>
        <time>2025-04-24T13:58:30Z</time>
      </trkpt>
      <trkpt lat="45.537526002153754" lon="3.930627023801208">
        <ele>1005.2</ele>
        <time>2025-04-24T13:58:31Z</time>
      </trkpt>
      <trkpt lat="45.537421982735395" lon="3.930497020483017">
        <ele>1004.23</ele>
        <time>2025-04-24T13:58:32Z</time>
      </trkpt>
      <trkpt lat="45.537333972752094" lon="3.93033298663795">
        <ele>1003.27</ele>
        <time>2025-04-24T13:58:33Z</time>
      </trkpt>
      <trkpt lat="45.537259038537741" lon="3.930166019126773">
        <ele>1001.83</ele>
        <time>2025-04-24T13:58:34Z</time>
      </trkpt>
      <trkpt lat="45.537188965827227" lon="3.929946999996901">
        <ele>1000.87</ele>
        <time>2025-04-24T13:58:35Z</time>
      </trkpt>
      <trkpt lat="45.536574991419911" lon="3.928642021492124">
        <ele>994.13999999999999</ele>
        <time>2025-04-24T13:58:40Z</time>
      </trkpt>
      <trkpt lat="45.536060007289052" lon="3.927650023251772">
        <ele>988.37</ele>
        <time>2025-04-24T13:58:44Z</time>
      </trkpt>
      <trkpt lat="45.535989012569189" lon="3.92738800495863">
        <ele>986.92999999999995</ele>
        <time>2025-04-24T13:58:45Z</time>
      </trkpt>
      <trkpt lat="45.535930003970861" lon="3.927127998322249">
        <ele>985.00999999999999</ele>
        <time>2025-04-24T13:58:46Z</time>
      </trkpt>
      <trkpt lat="45.535880969837308" lon="3.926862040534616">
        <ele>983.09000000000003</ele>
        <time>2025-04-24T13:58:47Z</time>
      </trkpt>
      <trkpt lat="45.535866972059011" lon="3.926587030291557">
        <ele>981.15999999999997</ele>
        <time>2025-04-24T13:58:48Z</time>
      </trkpt>
      <trkpt lat="45.53588398732245" lon="3.926304979249835">
        <ele>979.72000000000003</ele>
        <time>2025-04-24T13:58:49Z</time>
      </trkpt>
      <trkpt lat="45.535911982879043" lon="3.926028041169047">
        <ele>977.79999999999995</ele>
        <time>2025-04-24T13:58:50Z</time>
      </trkpt>
      <trkpt lat="45.535938972607255" lon="3.92575697042048">
        <ele>976.36000000000001</ele>
        <time>2025-04-24T13:58:51Z</time>
      </trkpt>
      <trkpt lat="45.535935033112764" lon="3.925501992926002">
        <ele>974.90999999999997</ele>
        <time>2025-04-24T13:58:52Z</time>
      </trkpt>
      <trkpt lat="45.535912988707423" lon="3.925265036523342">
        <ele>973.47000000000003</ele>
        <time>2025-04-24T13:58:53Z</time>
      </trkpt>
      <trkpt lat="45.535859009250998" lon="3.925070995464921">
        <ele>972.50999999999999</ele>
        <time>2025-04-24T13:58:54Z</time>
      </trkpt>
      <trkpt lat="45.535779967904091" lon="3.92487402074039">
        <ele>971.07000000000005</ele>
        <time>2025-04-24T13:58:55Z</time>
      </trkpt>
      <trkpt lat="45.535691035911441" lon="3.924650978296995">
        <ele>970.11000000000001</ele>
        <time>2025-04-24T13:58:56Z</time>
      </trkpt>
      <trkpt lat="45.535597996786237" lon="3.924468001350761">
        <ele>968.66999999999996</ele>
        <time>2025-04-24T13:58:57Z</time>
      </trkpt>
      <trkpt lat="45.534499967470765" lon="3.922603027895093">
        <ele>957.61000000000001</ele>
        <time>2025-04-24T13:59:06Z</time>
      </trkpt>
      <trkpt lat="45.533752972260118" lon="3.921789983287454">
        <ele>951.84000000000003</ele>
        <time>2025-04-24T13:59:11Z</time>
      </trkpt>
      <trkpt lat="45.533591033890843" lon="3.921697027981281">
        <ele>951.36000000000001</ele>
        <time>2025-04-24T13:59:12Z</time>
      </trkpt>
      <trkpt lat="45.533430017530918" lon="3.921629972755909">
        <ele>950.39999999999998</ele>
        <time>2025-04-24T13:59:13Z</time>
      </trkpt>
      <trkpt lat="45.533264977857471" lon="3.921592002734542">
        <ele>949.44000000000005</ele>
        <time>2025-04-24T13:59:14Z</time>
      </trkpt>
      <trkpt lat="45.533114019781351" lon="3.921590996906161">
        <ele>948.96000000000004</ele>
        <time>2025-04-24T13:59:15Z</time>
      </trkpt>
      <trkpt lat="45.532969012856483" lon="3.921601977199316">
        <ele>948.48000000000002</ele>
        <time>2025-04-24T13:59:16Z</time>
      </trkpt>
      <trkpt lat="45.532834986224771" lon="3.921613041311503">
        <ele>948</ele>
        <time>2025-04-24T13:59:17Z</time>
      </trkpt>
      <trkpt lat="45.532141970470548" lon="3.921598037704825">
        <ele>944.63</ele>
        <time>2025-04-24T13:59:23Z</time>
      </trkpt>
      <trkpt lat="45.532015990465879" lon="3.921572975814343">
        <ele>943.19000000000005</ele>
        <time>2025-04-24T13:59:24Z</time>
      </trkpt>
      <trkpt lat="45.531909037381411" lon="3.921512039378285">
        <ele>942.23000000000002</ele>
        <time>2025-04-24T13:59:25Z</time>
      </trkpt>
      <trkpt lat="45.531807029619813" lon="3.921410031616688">
        <ele>940.78999999999996</ele>
        <time>2025-04-24T13:59:26Z</time>
      </trkpt>
      <trkpt lat="45.531720025464892" lon="3.92130802385509">
        <ele>939.83000000000004</ele>
        <time>2025-04-24T13:59:27Z</time>
      </trkpt>
      <trkpt lat="45.531649030745029" lon="3.921187995001674">
        <ele>939.35000000000002</ele>
        <time>2025-04-24T13:59:28Z</time>
      </trkpt>
      <trkpt lat="45.531575018540025" lon="3.921063020825386">
        <ele>938.86000000000001</ele>
        <time>2025-04-24T13:59:29Z</time>
      </trkpt>
      <trkpt lat="45.531159024685621" lon="3.920474024489522">
        <ele>935.98000000000002</ele>
        <time>2025-04-24T13:59:34Z</time>
      </trkpt>
      <trkpt lat="45.531062968075275" lon="3.920373022556305">
        <ele>935.5</ele>
        <time>2025-04-24T13:59:35Z</time>
      </trkpt>
      <trkpt lat="45.530968001112342" lon="3.920272020623088">
        <ele>935.01999999999998</ele>
        <time>2025-04-24T13:59:36Z</time>
      </trkpt>
      <trkpt lat="45.530863981693983" lon="3.920218041166663">
        <ele>934.05999999999995</ele>
        <time>2025-04-24T13:59:37Z</time>
      </trkpt>
      <trkpt lat="45.530744958668947" lon="3.920171018689871">
        <ele>934.05999999999995</ele>
        <time>2025-04-24T13:59:38Z</time>
      </trkpt>
      <trkpt lat="45.530628031119704" lon="3.920123996213079">
        <ele>934.05999999999995</ele>
        <time>2025-04-24T13:59:39Z</time>
      </trkpt>
      <trkpt lat="45.530513031408191" lon="3.920077979564667">
        <ele>934.05999999999995</ele>
        <time>2025-04-24T13:59:40Z</time>
      </trkpt>
      <trkpt lat="45.530397025868297" lon="3.920042021200061">
        <ele>934.53999999999996</ele>
        <time>2025-04-24T13:59:41Z</time>
      </trkpt>
      <trkpt lat="45.529968962073326" lon="3.919859966263175">
        <ele>937.41999999999996</ele>
        <time>2025-04-24T13:59:45Z</time>
      </trkpt>
      <trkpt lat="45.529877012595534" lon="3.919801041483879">
        <ele>937.89999999999998</ele>
        <time>2025-04-24T13:59:46Z</time>
      </trkpt>
      <trkpt lat="45.529786990955472" lon="3.919717976823449">
        <ele>938.86000000000001</ele>
        <time>2025-04-24T13:59:47Z</time>
      </trkpt>
      <trkpt lat="45.529726976528764" lon="3.919620998203754">
        <ele>939.35000000000002</ele>
        <time>2025-04-24T13:59:48Z</time>
      </trkpt>
      <trkpt lat="45.5296750087291" lon="3.919536005705595">
        <ele>940.78999999999996</ele>
        <time>2025-04-24T13:59:49Z</time>
      </trkpt>
      <trkpt lat="45.52963100373745" lon="3.919443972408772">
        <ele>941.75</ele>
        <time>2025-04-24T13:59:50Z</time>
      </trkpt>
      <trkpt lat="45.529605019837618" lon="3.919339030981064">
        <ele>942.71000000000004</ele>
        <time>2025-04-24T13:59:51Z</time>
      </trkpt>
      <trkpt lat="45.529367979615927" lon="3.918065987527371">
        <ele>946.55999999999995</ele>
        <time>2025-04-24T14:00:02Z</time>
      </trkpt>
      <trkpt lat="45.529087018221617" lon="3.917132997885346">
        <ele>946.07000000000005</ele>
        <time>2025-04-24T14:00:11Z</time>
      </trkpt>
      <trkpt lat="45.529056005179882" lon="3.917041970416904">
        <ele>945.59000000000003</ele>
        <time>2025-04-24T14:00:12Z</time>
      </trkpt>
      <trkpt lat="45.528792981058359" lon="3.916489016264677">
        <ele>945.11000000000001</ele>
        <time>2025-04-24T14:00:19Z</time>
      </trkpt>
      <trkpt lat="45.528737995773554" lon="3.916413998231292">
        <ele>944.63</ele>
        <time>2025-04-24T14:00:20Z</time>
      </trkpt>
      <trkpt lat="45.528415041044354" lon="3.916133036836982">
        <ele>944.14999999999998</ele>
        <time>2025-04-24T14:00:25Z</time>
      </trkpt>
      <trkpt lat="45.528349997475743" lon="3.916105041280389">
        <ele>944.63</ele>
        <time>2025-04-24T14:00:26Z</time>
      </trkpt>
      <trkpt lat="45.528270034119487" lon="3.91608702018857">
        <ele>944.63</ele>
        <time>2025-04-24T14:00:27Z</time>
      </trkpt>
      <trkpt lat="45.528182024136186" lon="3.91606698743999">
        <ele>944.14999999999998</ele>
        <time>2025-04-24T14:00:28Z</time>
      </trkpt>
      <trkpt lat="45.528095019981265" lon="3.916047038510442">
        <ele>944.14999999999998</ele>
        <time>2025-04-24T14:00:29Z</time>
      </trkpt>
      <trkpt lat="45.527725964784622" lon="3.915990963578224">
        <ele>942.71000000000004</ele>
        <time>2025-04-24T14:00:33Z</time>
      </trkpt>
      <trkpt lat="45.527629991993308" lon="3.915950981900096">
        <ele>942.23000000000002</ele>
        <time>2025-04-24T14:00:34Z</time>
      </trkpt>
      <trkpt lat="45.527552040293813" lon="3.915885016322136">
        <ele>941.75</ele>
        <time>2025-04-24T14:00:35Z</time>
      </trkpt>
      <trkpt lat="45.527474004775286" lon="3.915770016610622">
        <ele>941.26999999999998</ele>
        <time>2025-04-24T14:00:36Z</time>
      </trkpt>
      <trkpt lat="45.527406027540565" lon="3.915630960837007">
        <ele>940.78999999999996</ele>
        <time>2025-04-24T14:00:37Z</time>
      </trkpt>
      <trkpt lat="45.527360010892153" lon="3.915480002760887">
        <ele>940.30999999999995</ele>
        <time>2025-04-24T14:00:38Z</time>
      </trkpt>
      <trkpt lat="45.52731298841536" lon="3.915328960865736">
        <ele>939.83000000000004</ele>
        <time>2025-04-24T14:00:39Z</time>
      </trkpt>
      <trkpt lat="45.526970000937581" lon="3.91426001675427">
        <ele>937.89999999999998</ele>
        <time>2025-04-24T14:00:46Z</time>
      </trkpt>
      <trkpt lat="45.526478989049792" lon="3.912926958873868">
        <ele>937.41999999999996</ele>
        <time>2025-04-24T14:00:55Z</time>
      </trkpt>
      <trkpt lat="45.526390979066491" lon="3.912809025496244">
        <ele>937.41999999999996</ele>
        <time>2025-04-24T14:00:56Z</time>
      </trkpt>
      <trkpt lat="45.525966016575694" lon="3.912246013060212">
        <ele>936.46000000000004</ele>
        <time>2025-04-24T14:01:01Z</time>
      </trkpt>
      <trkpt lat="45.52589301019907" lon="3.912150962278247">
        <ele>936.46000000000004</ele>
        <time>2025-04-24T14:01:02Z</time>
      </trkpt>
      <trkpt lat="45.525838024914265" lon="3.911883998662233">
        <ele>936.46000000000004</ele>
        <time>2025-04-24T14:01:04Z</time>
      </trkpt>
      <trkpt lat="45.525754038244486" lon="3.911846028640866">
        <ele>935.98000000000002</ele>
        <time>2025-04-24T14:01:05Z</time>
      </trkpt>
      <trkpt lat="45.525735011324286" lon="3.911840999498963">
        <ele>935.5</ele>
        <time>2025-04-24T14:01:06Z</time>
      </trkpt>
      <trkpt lat="45.525552034378052" lon="3.911872012540698">
        <ele>935.5</ele>
        <time>2025-04-24T14:01:07Z</time>
      </trkpt>
      <trkpt lat="45.525454971939325" lon="3.911808980628848">
        <ele>935.5</ele>
        <time>2025-04-24T14:01:08Z</time>
      </trkpt>
      <trkpt lat="45.525351958349347" lon="3.911743015050888">
        <ele>935.01999999999998</ele>
        <time>2025-04-24T14:01:09Z</time>
      </trkpt>
      <trkpt lat="45.524342022836208" lon="3.911194000393152">
        <ele>935.01999999999998</ele>
        <time>2025-04-24T14:01:18Z</time>
      </trkpt>
      <trkpt lat="45.523134022951126" lon="3.911178996786475">
        <ele>937.89999999999998</ele>
        <time>2025-04-24T14:01:28Z</time>
      </trkpt>
      <trkpt lat="45.522067006677389" lon="3.911603959277272">
        <ele>941.75</ele>
        <time>2025-04-24T14:01:37Z</time>
      </trkpt>
      <trkpt lat="45.52052297629416" lon="3.912275014445186">
        <ele>948</ele>
        <time>2025-04-24T14:01:50Z</time>
      </trkpt>
      <trkpt lat="45.520281996577978" lon="3.912304015830159">
        <ele>948.96000000000004</ele>
        <time>2025-04-24T14:01:52Z</time>
      </trkpt>
      <trkpt lat="45.520162973552942" lon="3.912291023880243">
        <ele>949.44000000000005</ele>
        <time>2025-04-24T14:01:53Z</time>
      </trkpt>
      <trkpt lat="45.520039005205035" lon="3.912278031930327">
        <ele>949.44000000000005</ele>
        <time>2025-04-24T14:01:54Z</time>
      </trkpt>
      <trkpt lat="45.518994033336639" lon="3.912059012800455">
        <ele>952.32000000000005</ele>
        <time>2025-04-24T14:02:01Z</time>
      </trkpt>
      <trkpt lat="45.518827987834811" lon="3.911992041394115">
        <ele>953.27999999999997</ele>
        <time>2025-04-24T14:02:02Z</time>
      </trkpt>
      <trkpt lat="45.518661020323634" lon="3.911913000047207">
        <ele>953.76999999999998</ele>
        <time>2025-04-24T14:02:03Z</time>
      </trkpt>
      <trkpt lat="45.517312958836555" lon="3.91110397875309">
        <ele>957.13</ele>
        <time>2025-04-24T14:02:11Z</time>
      </trkpt>
      <trkpt lat="45.517140040174127" lon="3.9110810123384">
        <ele>957.61000000000001</ele>
        <time>2025-04-24T14:02:12Z</time>
      </trkpt>
      <trkpt lat="45.516966031864285" lon="3.911082018166781">
        <ele>958.09000000000003</ele>
        <time>2025-04-24T14:02:13Z</time>
      </trkpt>
      <trkpt lat="45.516792023554444" lon="3.911113031208515">
        <ele>959.04999999999995</ele>
        <time>2025-04-24T14:02:14Z</time>
      </trkpt>
      <trkpt lat="45.516614997759461" lon="3.911143038421869">
        <ele>959.52999999999997</ele>
        <time>2025-04-24T14:02:15Z</time>
      </trkpt>
      <trkpt lat="45.516075035557151" lon="3.911196012049913">
        <ele>960.98000000000002</ele>
        <time>2025-04-24T14:02:18Z</time>
      </trkpt>
      <trkpt lat="45.515894992277026" lon="3.911157958209515">
        <ele>961.94000000000005</ele>
        <time>2025-04-24T14:02:19Z</time>
      </trkpt>
      <trkpt lat="45.515713021159172" lon="3.911119988188148">
        <ele>962.41999999999996</ele>
        <time>2025-04-24T14:02:20Z</time>
      </trkpt>
      <trkpt lat="45.515543958172202" lon="3.911020997911692">
        <ele>962.89999999999998</ele>
        <time>2025-04-24T14:02:21Z</time>
      </trkpt>
      <trkpt lat="45.515376990661025" lon="3.910900969058275">
        <ele>963.86000000000001</ele>
        <time>2025-04-24T14:02:22Z</time>
      </trkpt>
      <trkpt lat="45.515212034806609" lon="3.910784041509032">
        <ele>964.34000000000003</ele>
        <time>2025-04-24T14:02:23Z</time>
      </trkpt>
      <trkpt lat="45.515046995133162" lon="3.910653032362461">
        <ele>964.82000000000005</ele>
        <time>2025-04-24T14:02:24Z</time>
      </trkpt>
      <trkpt lat="45.514903999865055" lon="3.910480029881001">
        <ele>965.29999999999995</ele>
        <time>2025-04-24T14:02:25Z</time>
      </trkpt>
      <trkpt lat="45.514769973233342" lon="3.910317001864314">
        <ele>966.25999999999999</ele>
        <time>2025-04-24T14:02:26Z</time>
      </trkpt>
      <trkpt lat="45.514681041240692" lon="3.910106029361486">
        <ele>967.22000000000003</ele>
        <time>2025-04-24T14:02:27Z</time>
      </trkpt>
      <trkpt lat="45.51459202542901" lon="3.909896984696388">
        <ele>967.70000000000005</ele>
        <time>2025-04-24T14:02:28Z</time>
      </trkpt>
      <trkpt lat="45.514504015445709" lon="3.909689029678702">
        <ele>968.17999999999995</ele>
        <time>2025-04-24T14:02:29Z</time>
      </trkpt>
      <trkpt lat="45.51433403044939" lon="3.909288039430976">
        <ele>969.63</ele>
        <time>2025-04-24T14:02:31Z</time>
      </trkpt>
      <trkpt lat="45.514277033507824" lon="3.909093998372555">
        <ele>970.59000000000003</ele>
        <time>2025-04-24T14:02:32Z</time>
      </trkpt>
      <trkpt lat="45.514238979667425" lon="3.908858969807625">
        <ele>971.07000000000005</ele>
        <time>2025-04-24T14:02:33Z</time>
      </trkpt>
      <trkpt lat="45.513976039364934" lon="3.906561993062496">
        <ele>975.38999999999999</ele>
        <time>2025-04-24T14:02:42Z</time>
      </trkpt>
      <trkpt lat="45.513959024101496" lon="3.906287988647819">
        <ele>975.88</ele>
        <time>2025-04-24T14:02:43Z</time>
      </trkpt>
      <trkpt lat="45.513976961374283" lon="3.906019013375044">
        <ele>976.36000000000001</ele>
        <time>2025-04-24T14:02:44Z</time>
      </trkpt>
      <trkpt lat="45.514027001336217" lon="3.905771998688579">
        <ele>976.84000000000003</ele>
        <time>2025-04-24T14:02:45Z</time>
      </trkpt>
      <trkpt lat="45.514130014926195" lon="3.90556002035737">
        <ele>977.32000000000005</ele>
        <time>2025-04-24T14:02:46Z</time>
      </trkpt>
      <trkpt lat="45.514232022687793" lon="3.905347036197782">
        <ele>978.27999999999997</ele>
        <time>2025-04-24T14:02:47Z</time>
      </trkpt>
      <trkpt lat="45.514344004914165" lon="3.905143020674586">
        <ele>978.75999999999999</ele>
        <time>2025-04-24T14:02:48Z</time>
      </trkpt>
      <trkpt lat="45.514479959383607" lon="3.904944034293294">
        <ele>979.72000000000003</ele>
        <time>2025-04-24T14:02:49Z</time>
      </trkpt>
      <trkpt lat="45.515221003443003" lon="3.903622962534428">
        <ele>984.04999999999995</ele>
        <time>2025-04-24T14:02:55Z</time>
      </trkpt>
      <trkpt lat="45.515281017869711" lon="3.903336971998215">
        <ele>985.00999999999999</ele>
        <time>2025-04-24T14:02:56Z</time>
      </trkpt>
      <trkpt lat="45.515341032296419" lon="3.903050981462002">
        <ele>985.49000000000001</ele>
        <time>2025-04-24T14:02:57Z</time>
      </trkpt>
      <trkpt lat="45.51564403809607" lon="3.901604013517499">
        <ele>990.29999999999995</ele>
        <time>2025-04-24T14:03:02Z</time>
      </trkpt>
      <trkpt lat="45.515749985352159" lon="3.901320034638047">
        <ele>990.77999999999997</ele>
        <time>2025-04-24T14:03:03Z</time>
      </trkpt>
      <trkpt lat="45.516104958951473" lon="3.900608997792006">
        <ele>992.70000000000005</ele>
        <time>2025-04-24T14:03:06Z</time>
      </trkpt>
      <trkpt lat="45.516192968934774" lon="3.900391990318894">
        <ele>992.70000000000005</ele>
        <time>2025-04-24T14:03:07Z</time>
      </trkpt>
      <trkpt lat="45.516272010281682" lon="3.900169031694531">
        <ele>992.70000000000005</ele>
        <time>2025-04-24T14:03:08Z</time>
      </trkpt>
      <trkpt lat="45.516299000009894" lon="3.899949006736279">
        <ele>993.17999999999995</ele>
        <time>2025-04-24T14:03:09Z</time>
      </trkpt>
      <trkpt lat="45.516329007223248" lon="3.899710960686207">
        <ele>993.65999999999997</ele>
        <time>2025-04-24T14:03:10Z</time>
      </trkpt>
      <trkpt lat="45.516317021101713" lon="3.899488002061844">
        <ele>993.65999999999997</ele>
        <time>2025-04-24T14:03:11Z</time>
      </trkpt>
      <trkpt lat="45.51628801971674" lon="3.899239981546998">
        <ele>994.13999999999999</ele>
        <time>2025-04-24T14:03:12Z</time>
      </trkpt>
      <trkpt lat="45.516258012503386" lon="3.898990033194423">
        <ele>995.10000000000002</ele>
        <time>2025-04-24T14:03:13Z</time>
      </trkpt>
      <trkpt lat="45.516228005290031" lon="3.898738995194435">
        <ele>995.58000000000004</ele>
        <time>2025-04-24T14:03:14Z</time>
      </trkpt>
      <trkpt lat="45.516147036105394" lon="3.897974984720349">
        <ele>997.01999999999998</ele>
        <time>2025-04-24T14:03:17Z</time>
      </trkpt>
      <trkpt lat="45.516164973378181" lon="3.897722018882632">
        <ele>997.99000000000001</ele>
        <time>2025-04-24T14:03:18Z</time>
      </trkpt>
      <trkpt lat="45.516221970319748" lon="3.89748296700418">
        <ele>998.95000000000005</ele>
        <time>2025-04-24T14:03:19Z</time>
      </trkpt>
      <trkpt lat="45.516281984746456" lon="3.897242993116379">
        <ele>999.90999999999997</ele>
        <time>2025-04-24T14:03:20Z</time>
      </trkpt>
      <trkpt lat="45.516372006386518" lon="3.897004025056958">
        <ele>1000.39</ele>
        <time>2025-04-24T14:03:21Z</time>
      </trkpt>
      <trkpt lat="45.516537968069315" lon="3.896556012332439">
        <ele>1002.3099999999999</ele>
        <time>2025-04-24T14:03:23Z</time>
      </trkpt>
      <trkpt lat="45.516650034114718" lon="3.896401030942798">
        <ele>1003.27</ele>
        <time>2025-04-24T14:03:24Z</time>
      </trkpt>
      <trkpt lat="45.516766039654613" lon="3.896262980997562">
        <ele>1004.72</ele>
        <time>2025-04-24T14:03:25Z</time>
      </trkpt>
      <trkpt lat="45.5169100407511" lon="3.896190980449319">
        <ele>1006.16</ele>
        <time>2025-04-24T14:03:26Z</time>
      </trkpt>
      <trkpt lat="45.517057981342077" lon="3.896144041791558">
        <ele>1007.6</ele>
        <time>2025-04-24T14:03:27Z</time>
      </trkpt>
      <trkpt lat="45.517232995480299" lon="3.896116968244314">
        <ele>1009.04</ele>
        <time>2025-04-24T14:03:28Z</time>
      </trkpt>
      <trkpt lat="45.518356002867222" lon="3.895874982699752">
        <ele>1015.29</ele>
        <time>2025-04-24T14:03:34Z</time>
      </trkpt>
      <trkpt lat="45.519137028604746" lon="3.895520009100437">
        <ele>1019.13</ele>
        <time>2025-04-24T14:03:38Z</time>
      </trkpt>
      <trkpt lat="45.520230028778315" lon="3.895300989970565">
        <ele>1024.4200000000001</ele>
        <time>2025-04-24T14:03:44Z</time>
      </trkpt>
      <trkpt lat="45.520369000732899" lon="3.895205017179251">
        <ele>1025.8599999999999</ele>
        <time>2025-04-24T14:03:45Z</time>
      </trkpt>
      <trkpt lat="45.52047997713089" lon="3.895050035789609">
        <ele>1026.8299999999999</ele>
        <time>2025-04-24T14:03:46Z</time>
      </trkpt>
      <trkpt lat="45.520580979064107" lon="3.894880972802639">
        <ele>1027.3099999999999</ele>
        <time>2025-04-24T14:03:47Z</time>
      </trkpt>
      <trkpt lat="45.520648034289479" lon="3.894679974764586">
        <ele>1027.79</ele>
        <time>2025-04-24T14:03:48Z</time>
      </trkpt>
      <trkpt lat="45.520671000704169" lon="3.894476965069771">
        <ele>1028.75</ele>
        <time>2025-04-24T14:03:49Z</time>
      </trkpt>
      <trkpt lat="45.520671000704169" lon="3.894263980910182">
        <ele>1029.71</ele>
        <time>2025-04-24T14:03:50Z</time>
      </trkpt>
      <trkpt lat="45.520632024854422" lon="3.89406499452889">
        <ele>1029.71</ele>
        <time>2025-04-24T14:03:51Z</time>
      </trkpt>
      <trkpt lat="45.520585002377629" lon="3.893901966512203">
        <ele>1029.71</ele>
        <time>2025-04-24T14:03:52Z</time>
      </trkpt>
      <trkpt lat="45.520464973524213" lon="3.893714966252446">
        <ele>1029.71</ele>
        <time>2025-04-24T14:03:53Z</time>
      </trkpt>
      <trkpt lat="45.520355002954602" lon="3.893580017611384">
        <ele>1029.71</ele>
        <time>2025-04-24T14:03:54Z</time>
      </trkpt>
      <trkpt lat="45.520197004079819" lon="3.893487984314561">
        <ele>1029.71</ele>
        <time>2025-04-24T14:03:55Z</time>
      </trkpt>
      <trkpt lat="45.520025007426739" lon="3.893425036221743">
        <ele>1030.1900000000001</ele>
        <time>2025-04-24T14:03:56Z</time>
      </trkpt>
      <trkpt lat="45.519831972196698" lon="3.89337801374495">
        <ele>1030.6700000000001</ele>
        <time>2025-04-24T14:03:57Z</time>
      </trkpt>
      <trkpt lat="45.518339993432164" lon="3.892780970782042">
        <ele>1033.0699999999999</ele>
        <time>2025-04-24T14:04:04Z</time>
      </trkpt>
      <trkpt lat="45.517538012936711" lon="3.892507972195745">
        <ele>1033.0699999999999</ele>
        <time>2025-04-24T14:04:08Z</time>
      </trkpt>
      <trkpt lat="45.517382025718689" lon="3.892351984977722">
        <ele>1033.0699999999999</ele>
        <time>2025-04-24T14:04:09Z</time>
      </trkpt>
      <trkpt lat="45.517201982438564" lon="3.892171019688249">
        <ele>1033.0699999999999</ele>
        <time>2025-04-24T14:04:10Z</time>
      </trkpt>
      <trkpt lat="45.517056975513697" lon="3.891994999721646">
        <ele>1033.0699999999999</ele>
        <time>2025-04-24T14:04:11Z</time>
      </trkpt>
      <trkpt lat="45.517023028805852" lon="3.891949988901615">
        <ele>1033.0699999999999</ele>
        <time>2025-04-24T14:04:12Z</time>
      </trkpt>
      <trkpt lat="45.516896964982152" lon="3.891608007252216">
        <ele>1032.5899999999999</ele>
        <time>2025-04-24T14:04:13Z</time>
      </trkpt>
      <trkpt lat="45.516853965818882" lon="3.891429975628853">
        <ele>1033.0699999999999</ele>
        <time>2025-04-24T14:04:14Z</time>
      </trkpt>
      <trkpt lat="45.516807027161121" lon="3.891149014234543">
        <ele>1033.55</ele>
        <time>2025-04-24T14:04:15Z</time>
      </trkpt>
      <trkpt lat="45.516758998855948" lon="3.890860006213188">
        <ele>1034.04</ele>
        <time>2025-04-24T14:04:16Z</time>
      </trkpt>
      <trkpt lat="45.516711976379156" lon="3.890578038990498">
        <ele>1034.52</ele>
        <time>2025-04-24T14:04:17Z</time>
      </trkpt>
      <trkpt lat="45.516622960567474" lon="3.890247037634254">
        <ele>1034.52</ele>
        <time>2025-04-24T14:04:18Z</time>
      </trkpt>
      <trkpt lat="45.516541991382837" lon="3.889970015734434">
        <ele>1035</ele>
        <time>2025-04-24T14:04:19Z</time>
      </trkpt>
      <trkpt lat="45.51646001636982" lon="3.889692993834615">
        <ele>1035.48</ele>
        <time>2025-04-24T14:04:20Z</time>
      </trkpt>
      <trkpt lat="45.516378963366151" lon="3.889417983591557">
        <ele>1035.96</ele>
        <time>2025-04-24T14:04:21Z</time>
      </trkpt>
      <trkpt lat="45.516360020264983" lon="3.889171974733472">
        <ele>1036.9200000000001</ele>
        <time>2025-04-24T14:04:22Z</time>
      </trkpt>
      <trkpt lat="45.516335964202881" lon="3.888881038874388">
        <ele>1037.4000000000001</ele>
        <time>2025-04-24T14:04:23Z</time>
      </trkpt>
      <trkpt lat="45.516421962529421" lon="3.887703968212009">
        <ele>1040.28</ele>
        <time>2025-04-24T14:04:27Z</time>
      </trkpt>
      <trkpt lat="45.51648398861289" lon="3.887417977675796">
        <ele>1041.25</ele>
        <time>2025-04-24T14:04:28Z</time>
      </trkpt>
      <trkpt lat="45.516668977215886" lon="3.886572998017073">
        <ele>1044.1300000000001</ele>
        <time>2025-04-24T14:04:31Z</time>
      </trkpt>
      <trkpt lat="45.516648022457957" lon="3.886264963075519">
        <ele>1045.0899999999999</ele>
        <time>2025-04-24T14:04:32Z</time>
      </trkpt>
      <trkpt lat="45.516608962789178" lon="3.885974027216435">
        <ele>1045.5699999999999</ele>
        <time>2025-04-24T14:04:33Z</time>
      </trkpt>
      <trkpt lat="45.516462028026581" lon="3.885199958458543">
        <ele>1048.9400000000001</ele>
        <time>2025-04-24T14:04:36Z</time>
      </trkpt>
      <trkpt lat="45.516523970291018" lon="3.88474197126925">
        <ele>1050.8599999999999</ele>
        <time>2025-04-24T14:04:38Z</time>
      </trkpt>
      <trkpt lat="45.516623966395855" lon="3.88456704095006">
        <ele>1052.78</ele>
        <time>2025-04-24T14:04:39Z</time>
      </trkpt>
      <trkpt lat="45.516734020784497" lon="3.884389009326696">
        <ele>1053.74</ele>
        <time>2025-04-24T14:04:40Z</time>
      </trkpt>
      <trkpt lat="45.517129981890321" lon="3.88375299051404">
        <ele>1057.5899999999999</ele>
        <time>2025-04-24T14:04:43Z</time>
      </trkpt>
      <trkpt lat="45.518389027565718" lon="3.882629983127117">
        <ele>1064.8</ele>
        <time>2025-04-24T14:04:50Z</time>
      </trkpt>
      <trkpt lat="45.518968971446157" lon="3.882042998448014">
        <ele>1068.6400000000001</ele>
        <time>2025-04-24T14:04:54Z</time>
      </trkpt>
      <trkpt lat="45.519062010571361" lon="3.881886005401611">
        <ele>1069.1199999999999</ele>
        <time>2025-04-24T14:04:55Z</time>
      </trkpt>
      <trkpt lat="45.519078020006418" lon="3.88169196434319">
        <ele>1070.0799999999999</ele>
        <time>2025-04-24T14:04:56Z</time>
      </trkpt>
      <trkpt lat="45.519096963107586" lon="3.881464982405305">
        <ele>1071.05</ele>
        <time>2025-04-24T14:04:57Z</time>
      </trkpt>
      <trkpt lat="45.519091011956334" lon="3.881263984367251">
        <ele>1071.53</ele>
        <time>2025-04-24T14:04:58Z</time>
      </trkpt>
      <trkpt lat="45.519058993086219" lon="3.881008001044393">
        <ele>1072.49</ele>
        <time>2025-04-24T14:04:59Z</time>
      </trkpt>
      <trkpt lat="45.519024962559342" lon="3.880738019943237">
        <ele>1073.45</ele>
        <time>2025-04-24T14:05:00Z</time>
      </trkpt>
      <trkpt lat="45.518950028344989" lon="3.879825985059142">
        <ele>1076.3299999999999</ele>
        <time>2025-04-24T14:05:03Z</time>
      </trkpt>
      <trkpt lat="45.518981963396072" lon="3.879517028108239">
        <ele>1077.29</ele>
        <time>2025-04-24T14:05:04Z</time>
      </trkpt>
      <trkpt lat="45.519110038876534" lon="3.878276003524661">
        <ele>1080.6600000000001</ele>
        <time>2025-04-24T14:05:08Z</time>
      </trkpt>
      <trkpt lat="45.519128981977701" lon="3.877462958917022">
        <ele>1082.5799999999999</ele>
        <time>2025-04-24T14:05:11Z</time>
      </trkpt>
      <trkpt lat="45.519085982814431" lon="3.877202030271292">
        <ele>1083.0599999999999</ele>
        <time>2025-04-24T14:05:12Z</time>
      </trkpt>
      <trkpt lat="45.519025968387723" lon="3.876961972564459">
        <ele>1083.54</ele>
        <time>2025-04-24T14:05:13Z</time>
      </trkpt>
      <trkpt lat="45.518933013081551" lon="3.876708000898361">
        <ele>1084.02</ele>
        <time>2025-04-24T14:05:14Z</time>
      </trkpt>
      <trkpt lat="45.518838968127966" lon="3.876450005918741">
        <ele>1084.5</ele>
        <time>2025-04-24T14:05:15Z</time>
      </trkpt>
      <trkpt lat="45.518466979265213" lon="3.875142009928823">
        <ele>1087.8699999999999</ele>
        <time>2025-04-24T14:05:20Z</time>
      </trkpt>
      <trkpt lat="45.518443007022142" lon="3.874890971928835">
        <ele>1088.3499999999999</ele>
        <time>2025-04-24T14:05:21Z</time>
      </trkpt>
      <trkpt lat="45.518452981486917" lon="3.874652003869414">
        <ele>1089.3099999999999</ele>
        <time>2025-04-24T14:05:22Z</time>
      </trkpt>
      <trkpt lat="45.518621960654855" lon="3.87260003015399">
        <ele>1093.1600000000001</ele>
        <time>2025-04-24T14:05:29Z</time>
      </trkpt>
      <trkpt lat="45.519125964492559" lon="3.870428027585149">
        <ele>1098.9200000000001</ele>
        <time>2025-04-24T14:05:37Z</time>
      </trkpt>
      <trkpt lat="45.51936199888587" lon="3.869955958798528">
        <ele>1100.3699999999999</ele>
        <time>2025-04-24T14:05:39Z</time>
      </trkpt>
      <trkpt lat="45.519487978890538" lon="3.869800977408886">
        <ele>1101.3299999999999</ele>
        <time>2025-04-24T14:05:40Z</time>
      </trkpt>
      <trkpt lat="45.519628962501884" lon="3.869626969099045">
        <ele>1101.8099999999999</ele>
        <time>2025-04-24T14:05:41Z</time>
      </trkpt>
      <trkpt lat="45.520040011033416" lon="3.868989022448659">
        <ele>1104.21</ele>
        <time>2025-04-24T14:05:44Z</time>
      </trkpt>
      <trkpt lat="45.520132966339588" lon="3.868762040510774">
        <ele>1104.6900000000001</ele>
        <time>2025-04-24T14:05:45Z</time>
      </trkpt>
      <trkpt lat="45.520468996837735" lon="3.868103977292776">
        <ele>1107.5799999999999</ele>
        <time>2025-04-24T14:05:49Z</time>
      </trkpt>
      <trkpt lat="45.520542003214359" lon="3.868045974522829">
        <ele>1108.54</ele>
        <time>2025-04-24T14:05:50Z</time>
      </trkpt>
      <trkpt lat="45.520707964897156" lon="3.867968022823334">
        <ele>1109.02</ele>
        <time>2025-04-24T14:05:51Z</time>
      </trkpt>
      <trkpt lat="45.520874010398984" lon="3.867889987304807">
        <ele>1109.5</ele>
        <time>2025-04-24T14:05:52Z</time>
      </trkpt>
      <trkpt lat="45.521051958203316" lon="3.867806000635028">
        <ele>1109.5</ele>
        <time>2025-04-24T14:05:53Z</time>
      </trkpt>
      <trkpt lat="45.521438028663397" lon="3.867582036182284">
        <ele>1110.46</ele>
        <time>2025-04-24T14:05:55Z</time>
      </trkpt>
      <trkpt lat="45.52161798812449" lon="3.867365028709173">
        <ele>1110.46</ele>
        <time>2025-04-24T14:05:56Z</time>
      </trkpt>
      <trkpt lat="45.521755032241344" lon="3.867161013185978">
        <ele>1111.4200000000001</ele>
        <time>2025-04-24T14:05:57Z</time>
      </trkpt>
      <trkpt lat="45.521874977275729" lon="3.866933025419712">
        <ele>1111.9000000000001</ele>
        <time>2025-04-24T14:05:58Z</time>
      </trkpt>
      <trkpt lat="45.521984025835991" lon="3.866692967712879">
        <ele>1112.8599999999999</ele>
        <time>2025-04-24T14:05:59Z</time>
      </trkpt>
      <trkpt lat="45.522175971418619" lon="3.8661980163306">
        <ele>1114.3099999999999</ele>
        <time>2025-04-24T14:06:01Z</time>
      </trkpt>
      <trkpt lat="45.522244032472372" lon="3.865943038836122">
        <ele>1115.75</ele>
        <time>2025-04-24T14:06:02Z</time>
      </trkpt>
      <trkpt lat="45.522312009707093" lon="3.86568303219974">
        <ele>1117.1900000000001</ele>
        <time>2025-04-24T14:06:03Z</time>
      </trkpt>
      <trkpt lat="45.522340005263686" lon="3.865454038605094">
        <ele>1118.1500000000001</ele>
        <time>2025-04-24T14:06:04Z</time>
      </trkpt>
      <trkpt lat="45.522362971678376" lon="3.865187996998429">
        <ele>1119.5899999999999</ele>
        <time>2025-04-24T14:06:05Z</time>
      </trkpt>
      <trkpt lat="45.522386021912098" lon="3.864932013675571">
        <ele>1120.55</ele>
        <time>2025-04-24T14:06:06Z</time>
      </trkpt>
      <trkpt lat="45.522371018305421" lon="3.864730009809136">
        <ele>1121.52</ele>
        <time>2025-04-24T14:06:07Z</time>
      </trkpt>
      <trkpt lat="45.52234897390008" lon="3.864477965980768">
        <ele>1122</ele>
        <time>2025-04-24T14:06:08Z</time>
      </trkpt>
      <trkpt lat="45.52230597473681" lon="3.863989971578121">
        <ele>1123.9200000000001</ele>
        <time>2025-04-24T14:06:10Z</time>
      </trkpt>
      <trkpt lat="45.52234897390008" lon="3.863682020455599">
        <ele>1124.8800000000001</ele>
        <time>2025-04-24T14:06:11Z</time>
      </trkpt>
      <trkpt lat="45.522397002205253" lon="3.863412961363792">
        <ele>1125.8399999999999</ele>
        <time>2025-04-24T14:06:12Z</time>
      </trkpt>
      <trkpt lat="45.522446958348155" lon="3.863130994141102">
        <ele>1126.8</ele>
        <time>2025-04-24T14:06:13Z</time>
      </trkpt>
      <trkpt lat="45.522501021623611" lon="3.862833017483354">
        <ele>1127.76</ele>
        <time>2025-04-24T14:06:14Z</time>
      </trkpt>
      <trkpt lat="45.52258500829339" lon="3.8625249825418">
        <ele>1128.73</ele>
        <time>2025-04-24T14:06:15Z</time>
      </trkpt>
      <trkpt lat="45.522676035761833" lon="3.862234968692064">
        <ele>1129.6900000000001</ele>
        <time>2025-04-24T14:06:16Z</time>
      </trkpt>
      <trkpt lat="45.523227984085679" lon="3.860853966325522">
        <ele>1134.97</ele>
        <time>2025-04-24T14:06:21Z</time>
      </trkpt>
      <trkpt lat="45.523339966312051" lon="3.860637964680791">
        <ele>1135.9400000000001</ele>
        <time>2025-04-24T14:06:22Z</time>
      </trkpt>
      <trkpt lat="45.52344499155879" lon="3.860435960814357">
        <ele>1136.4200000000001</ele>
        <time>2025-04-24T14:06:23Z</time>
      </trkpt>
      <trkpt lat="45.523589998483658" lon="3.860277961939573">
        <ele>1137.3800000000001</ele>
        <time>2025-04-24T14:06:24Z</time>
      </trkpt>
      <trkpt lat="45.5237449798733" lon="3.860122980549932">
        <ele>1138.8199999999999</ele>
        <time>2025-04-24T14:06:25Z</time>
      </trkpt>
      <trkpt lat="45.524975024163723" lon="3.858779026195407">
        <ele>1146.99</ele>
        <time>2025-04-24T14:06:32Z</time>
      </trkpt>
      <trkpt lat="45.525164036080241" lon="3.85859495960176">
        <ele>1148.4300000000001</ele>
        <time>2025-04-24T14:06:33Z</time>
      </trkpt>
      <trkpt lat="45.525345001369715" lon="3.858407959342003">
        <ele>1149.3900000000001</ele>
        <time>2025-04-24T14:06:34Z</time>
      </trkpt>
      <trkpt lat="45.525526972487569" lon="3.858220037072897">
        <ele>1150.8399999999999</ele>
        <time>2025-04-24T14:06:35Z</time>
      </trkpt>
      <trkpt lat="45.526502961292863" lon="3.857215968891978">
        <ele>1158.05</ele>
        <time>2025-04-24T14:06:41Z</time>
      </trkpt>
      <trkpt lat="45.526627013459802" lon="3.857045983895659">
        <ele>1159.49</ele>
        <time>2025-04-24T14:06:42Z</time>
      </trkpt>
      <trkpt lat="45.526728015393019" lon="3.856846997514367">
        <ele>1160.45</ele>
        <time>2025-04-24T14:06:43Z</time>
      </trkpt>
      <trkpt lat="45.526801021769643" lon="3.856629990041256">
        <ele>1160.9300000000001</ele>
        <time>2025-04-24T14:06:44Z</time>
      </trkpt>
      <trkpt lat="45.526855001226068" lon="3.856410970911384">
        <ele>1162.3699999999999</ele>
        <time>2025-04-24T14:06:45Z</time>
      </trkpt>
      <trkpt lat="45.526872016489506" lon="3.856167979538441">
        <ele>1164.29</ele>
        <time>2025-04-24T14:06:46Z</time>
      </trkpt>
      <trkpt lat="45.526890037581325" lon="3.855913002043963">
        <ele>1165.74</ele>
        <time>2025-04-24T14:06:47Z</time>
      </trkpt>
      <trkpt lat="45.526863969862461" lon="3.855662969872356">
        <ele>1166.7</ele>
        <time>2025-04-24T14:06:48Z</time>
      </trkpt>
      <trkpt lat="45.526822982355952" lon="3.855404974892736">
        <ele>1168.1400000000001</ele>
        <time>2025-04-24T14:06:49Z</time>
      </trkpt>
      <trkpt lat="45.526749975979328" lon="3.855131976306438">
        <ele>1169.5799999999999</ele>
        <time>2025-04-24T14:06:50Z</time>
      </trkpt>
      <trkpt lat="45.526674035936594" lon="3.854845985770226">
        <ele>1170.54</ele>
        <time>2025-04-24T14:06:51Z</time>
      </trkpt>
      <trkpt lat="45.526598012074828" lon="3.854562006890774">
        <ele>1171.98</ele>
        <time>2025-04-24T14:06:52Z</time>
      </trkpt>
      <trkpt lat="45.526568004861474" lon="3.854250032454729">
        <ele>1172.95</ele>
        <time>2025-04-24T14:06:53Z</time>
      </trkpt>
      <trkpt lat="45.526562975719571" lon="3.853943003341556">
        <ele>1173.9100000000001</ele>
        <time>2025-04-24T14:06:54Z</time>
      </trkpt>
      <trkpt lat="45.526529029011726" lon="3.853054018691182">
        <ele>1176.79</ele>
        <time>2025-04-24T14:06:57Z</time>
      </trkpt>
      <trkpt lat="45.526479994878173" lon="3.852782025933266">
        <ele>1177.27</ele>
        <time>2025-04-24T14:06:58Z</time>
      </trkpt>
      <trkpt lat="45.526416962966323" lon="3.852515984326601">
        <ele>1178.23</ele>
        <time>2025-04-24T14:06:59Z</time>
      </trkpt>
      <trkpt lat="45.52630296908319" lon="3.852263018488884">
        <ele>1179.1900000000001</ele>
        <time>2025-04-24T14:07:00Z</time>
      </trkpt>
      <trkpt lat="45.526187969371676" lon="3.852005023509264">
        <ele>1180.1600000000001</ele>
        <time>2025-04-24T14:07:01Z</time>
      </trkpt>
      <trkpt lat="45.525696035474539" lon="3.850972037762404">
        <ele>1183.04</ele>
        <time>2025-04-24T14:07:05Z</time>
      </trkpt>
      <trkpt lat="45.52554901689291" lon="3.850734997540712">
        <ele>1184</ele>
        <time>2025-04-24T14:07:06Z</time>
      </trkpt>
      <trkpt lat="45.525039983913302" lon="3.849885994568467">
        <ele>1187.3699999999999</ele>
        <time>2025-04-24T14:07:10Z</time>
      </trkpt>
      <trkpt lat="45.524955997243524" lon="3.84969899430871">
        <ele>1188.3299999999999</ele>
        <time>2025-04-24T14:07:11Z</time>
      </trkpt>
      <trkpt lat="45.524901011958718" lon="3.849485004320741">
        <ele>1188.8099999999999</ele>
        <time>2025-04-24T14:07:12Z</time>
      </trkpt>
      <trkpt lat="45.524908974766731" lon="3.849274031817913">
        <ele>1188.8099999999999</ele>
        <time>2025-04-24T14:07:13Z</time>
      </trkpt>
      <trkpt lat="45.524917021393776" lon="3.849063981324434">
        <ele>1188.8099999999999</ele>
        <time>2025-04-24T14:07:14Z</time>
      </trkpt>
      <trkpt lat="45.524972006678581" lon="3.848848985508084">
        <ele>1188.3299999999999</ele>
        <time>2025-04-24T14:07:15Z</time>
      </trkpt>
      <trkpt lat="45.525044007226825" lon="3.848649999126792">
        <ele>1188.3299999999999</ele>
        <time>2025-04-24T14:07:16Z</time>
      </trkpt>
      <trkpt lat="45.525120031088591" lon="3.848443971946836">
        <ele>1188.3299999999999</ele>
        <time>2025-04-24T14:07:17Z</time>
      </trkpt>
      <trkpt lat="45.525687988847494" lon="3.847382990643382">
        <ele>1187.8499999999999</ele>
        <time>2025-04-24T14:07:24Z</time>
      </trkpt>
      <trkpt lat="45.526030976325274" lon="3.846801035106182">
        <ele>1187.8499999999999</ele>
        <time>2025-04-24T14:07:30Z</time>
      </trkpt>
      <trkpt lat="45.526062995195389" lon="3.846693998202682">
        <ele>1187.8499999999999</ele>
        <time>2025-04-24T14:07:31Z</time>
      </trkpt>
      <trkpt lat="45.526095014065504" lon="3.846586961299181">
        <ele>1187.8499999999999</ele>
        <time>2025-04-24T14:07:32Z</time>
      </trkpt>
      <trkpt lat="45.526125021278858" lon="3.846485037356615">
        <ele>1187.8499999999999</ele>
        <time>2025-04-24T14:07:33Z</time>
      </trkpt>
      <trkpt lat="45.526152011007071" lon="3.846393004059792">
        <ele>1188.3299999999999</ele>
        <time>2025-04-24T14:07:34Z</time>
      </trkpt>
      <trkpt lat="45.526161985471845" lon="3.846314968541265">
        <ele>1188.3299999999999</ele>
        <time>2025-04-24T14:07:35Z</time>
      </trkpt>
      <trkpt lat="45.526157040148973" lon="3.846222013235092">
        <ele>1188.3299999999999</ele>
        <time>2025-04-24T14:07:36Z</time>
      </trkpt>
      <trkpt lat="45.526153016835451" lon="3.846126040443778">
        <ele>1189.29</ele>
        <time>2025-04-24T14:07:37Z</time>
      </trkpt>
      <trkpt lat="45.526114040985703" lon="3.84542397223413">
        <ele>1192.6500000000001</ele>
        <time>2025-04-24T14:07:46Z</time>
      </trkpt>
      <trkpt lat="45.526099959388375" lon="3.845234960317612">
        <ele>1194.0899999999999</ele>
        <time>2025-04-24T14:07:55Z</time>
      </trkpt>
      <trkpt lat="45.526140024885535" lon="3.845020970329642">
        <ele>1200.3399999999999</ele>
        <time>2025-04-24T14:10:17Z</time>
      </trkpt>
      <trkpt lat="45.526145976036787" lon="3.845178969204426">
        <ele>1202.75</ele>
        <time>2025-04-24T14:10:51Z</time>
      </trkpt>
      <trkpt lat="45.526080010458827" lon="3.844975037500262">
        <ele>1198.4200000000001</ele>
        <time>2025-04-24T14:11:07Z</time>
      </trkpt>
      <trkpt lat="45.526085961610079" lon="3.844879986718297">
        <ele>1197.9400000000001</ele>
        <time>2025-04-24T14:11:08Z</time>
      </trkpt>
      <trkpt lat="45.526095014065504" lon="3.844784013926983">
        <ele>1196.98</ele>
        <time>2025-04-24T14:11:09Z</time>
      </trkpt>
      <trkpt lat="45.52625703625381" lon="3.843479035422206">
        <ele>1190.73</ele>
        <time>2025-04-24T14:11:21Z</time>
      </trkpt>
      <trkpt lat="45.526292994618416" lon="3.843305027112365">
        <ele>1189.77</ele>
        <time>2025-04-24T14:11:22Z</time>
      </trkpt>
      <trkpt lat="45.526326019316912" lon="3.843244006857276">
        <ele>1188.8099999999999</ele>
        <time>2025-04-24T14:11:23Z</time>
      </trkpt>
      <trkpt lat="45.526379998773336" lon="3.843140993267298">
        <ele>1188.3299999999999</ele>
        <time>2025-04-24T14:11:24Z</time>
      </trkpt>
      <trkpt lat="45.526434984058142" lon="3.8430389855057">
        <ele>1187.3699999999999</ele>
        <time>2025-04-24T14:11:25Z</time>
      </trkpt>
      <trkpt lat="45.526502039283514" lon="3.842943012714386">
        <ele>1186.8800000000001</ele>
        <time>2025-04-24T14:11:26Z</time>
      </trkpt>
      <trkpt lat="45.526579990983009" lon="3.842858020216227">
        <ele>1185.4400000000001</ele>
        <time>2025-04-24T14:11:27Z</time>
      </trkpt>
      <trkpt lat="45.526663977652788" lon="3.842766992747784">
        <ele>1184.96</ele>
        <time>2025-04-24T14:11:28Z</time>
      </trkpt>
      <trkpt lat="45.526763973757625" lon="3.842687029391527">
        <ele>1184.48</ele>
        <time>2025-04-24T14:11:29Z</time>
      </trkpt>
      <trkpt lat="45.526870004832745" lon="3.842643024399877">
        <ele>1184</ele>
        <time>2025-04-24T14:11:30Z</time>
      </trkpt>
      <trkpt lat="45.526981987059116" lon="3.842598013579845">
        <ele>1183.52</ele>
        <time>2025-04-24T14:11:31Z</time>
      </trkpt>
      <trkpt lat="45.527094975113869" lon="3.842550991103053">
        <ele>1183.52</ele>
        <time>2025-04-24T14:11:32Z</time>
      </trkpt>
      <trkpt lat="45.527420025318861" lon="3.84243599139154">
        <ele>1182.5599999999999</ele>
        <time>2025-04-24T14:11:35Z</time>
      </trkpt>
      <trkpt lat="45.527469981461763" lon="3.842362985014916">
        <ele>1182.5599999999999</ele>
        <time>2025-04-24T14:11:36Z</time>
      </trkpt>
      <trkpt lat="45.527502000331879" lon="3.842248991131783">
        <ele>1182.0799999999999</ele>
        <time>2025-04-24T14:11:37Z</time>
      </trkpt>
      <trkpt lat="45.527534019201994" lon="3.84213600307703">
        <ele>1182.0799999999999</ele>
        <time>2025-04-24T14:11:38Z</time>
      </trkpt>
      <trkpt lat="45.527507029473782" lon="3.842033995315433">
        <ele>1181.5999999999999</ele>
        <time>2025-04-24T14:11:39Z</time>
      </trkpt>
      <trkpt lat="45.527460006996989" lon="3.841904997825623">
        <ele>1181.1199999999999</ele>
        <time>2025-04-24T14:11:40Z</time>
      </trkpt>
      <trkpt lat="45.527392029762268" lon="3.841764014214277">
        <ele>1180.6400000000001</ele>
        <time>2025-04-24T14:11:41Z</time>
      </trkpt>
      <trkpt lat="45.527319023385644" lon="3.841612972319126">
        <ele>1180.6400000000001</ele>
        <time>2025-04-24T14:11:42Z</time>
      </trkpt>
      <trkpt lat="45.527166975662112" lon="3.84129898622632">
        <ele>1179.1900000000001</ele>
        <time>2025-04-24T14:11:44Z</time>
      </trkpt>
      <trkpt lat="45.527132023125887" lon="3.841122966259718">
        <ele>1178.71</ele>
        <time>2025-04-24T14:11:45Z</time>
      </trkpt>
      <trkpt lat="45.527106039226055" lon="3.84093202650547">
        <ele>1177.75</ele>
        <time>2025-04-24T14:11:46Z</time>
      </trkpt>
      <trkpt lat="45.527078965678811" lon="3.840735973790288">
        <ele>1177.27</ele>
        <time>2025-04-24T14:11:47Z</time>
      </trkpt>
      <trkpt lat="45.527052981778979" lon="3.840536987408996">
        <ele>1176.3099999999999</ele>
        <time>2025-04-24T14:11:48Z</time>
      </trkpt>
      <trkpt lat="45.52681895904243" lon="3.83923402056098">
        <ele>1169.0999999999999</ele>
        <time>2025-04-24T14:11:55Z</time>
      </trkpt>
      <trkpt lat="45.526828011497855" lon="3.839034028351307">
        <ele>1168.1400000000001</ele>
        <time>2025-04-24T14:11:56Z</time>
      </trkpt>
      <trkpt lat="45.526827005669475" lon="3.837737012654543">
        <ele>1161.4100000000001</ele>
        <time>2025-04-24T14:12:02Z</time>
      </trkpt>
      <trkpt lat="45.526775037869811" lon="3.837529979646206">
        <ele>1159.97</ele>
        <time>2025-04-24T14:12:03Z</time>
      </trkpt>
      <trkpt lat="45.526700019836426" lon="3.837326969951391">
        <ele>1159.01</ele>
        <time>2025-04-24T14:12:04Z</time>
      </trkpt>
      <trkpt lat="45.526614021509886" lon="3.837137036025524">
        <ele>1157.5599999999999</ele>
        <time>2025-04-24T14:12:05Z</time>
      </trkpt>
      <trkpt lat="45.526506984606385" lon="3.836953975260258">
        <ele>1156.5999999999999</ele>
        <time>2025-04-24T14:12:06Z</time>
      </trkpt>
      <trkpt lat="45.526387961581349" lon="3.836782984435558">
        <ele>1155.6400000000001</ele>
        <time>2025-04-24T14:12:07Z</time>
      </trkpt>
      <trkpt lat="45.526245972141623" lon="3.836661027744412">
        <ele>1154.6800000000001</ele>
        <time>2025-04-24T14:12:08Z</time>
      </trkpt>
      <trkpt lat="45.526093002408743" lon="3.836553990840912">
        <ele>1153.24</ele>
        <time>2025-04-24T14:12:09Z</time>
      </trkpt>
      <trkpt lat="45.525939026847482" lon="3.836447037756443">
        <ele>1152.28</ele>
        <time>2025-04-24T14:12:10Z</time>
      </trkpt>
      <trkpt lat="45.525780022144318" lon="3.836389034986496">
        <ele>1151.3199999999999</ele>
        <time>2025-04-24T14:12:11Z</time>
      </trkpt>
      <trkpt lat="45.525616994127631" lon="3.83633497171104">
        <ele>1149.8699999999999</ele>
        <time>2025-04-24T14:12:12Z</time>
      </trkpt>
      <trkpt lat="45.525460001081228" lon="3.836306976154447">
        <ele>1148.9100000000001</ele>
        <time>2025-04-24T14:12:13Z</time>
      </trkpt>
      <trkpt lat="45.525303008034825" lon="3.836302030831575">
        <ele>1148.4300000000001</ele>
        <time>2025-04-24T14:12:14Z</time>
      </trkpt>
      <trkpt lat="45.525148026645184" lon="3.836297001689673">
        <ele>1146.99</ele>
        <time>2025-04-24T14:12:15Z</time>
      </trkpt>
      <trkpt lat="45.525001008063555" lon="3.83629297837615">
        <ele>1146.03</ele>
        <time>2025-04-24T14:12:16Z</time>
      </trkpt>
      <trkpt lat="45.524877961724997" lon="3.83628903888166">
        <ele>1145.0699999999999</ele>
        <time>2025-04-24T14:12:17Z</time>
      </trkpt>
      <trkpt lat="45.524781988933682" lon="3.836193988099694">
        <ele>1143.6300000000001</ele>
        <time>2025-04-24T14:12:18Z</time>
      </trkpt>
      <trkpt lat="45.524690039455891" lon="3.836102038621903">
        <ele>1142.6600000000001</ele>
        <time>2025-04-24T14:12:19Z</time>
      </trkpt>
      <trkpt lat="45.524638993665576" lon="3.835971029475331">
        <ele>1141.7</ele>
        <time>2025-04-24T14:12:20Z</time>
      </trkpt>
      <trkpt lat="45.524606974795461" lon="3.835826022550464">
        <ele>1140.26</ele>
        <time>2025-04-24T14:12:21Z</time>
      </trkpt>
      <trkpt lat="45.524576967582107" lon="3.835685960948467">
        <ele>1138.8199999999999</ele>
        <time>2025-04-24T14:12:22Z</time>
      </trkpt>
      <trkpt lat="45.524609992280602" lon="3.835541037842631">
        <ele>1137.8599999999999</ele>
        <time>2025-04-24T14:12:23Z</time>
      </trkpt>
      <trkpt lat="45.524644022807479" lon="3.835391001775861">
        <ele>1136.4200000000001</ele>
        <time>2025-04-24T14:12:24Z</time>
      </trkpt>
      <trkpt lat="45.524678975343704" lon="3.835236020386219">
        <ele>1135.45</ele>
        <time>2025-04-24T14:12:25Z</time>
      </trkpt>
      <trkpt lat="45.524717029184103" lon="3.835069974884391">
        <ele>1134.01</ele>
        <time>2025-04-24T14:12:26Z</time>
      </trkpt>
      <trkpt lat="45.524971000850201" lon="3.833553018048406">
        <ele>1126.8</ele>
        <time>2025-04-24T14:12:33Z</time>
      </trkpt>
      <trkpt lat="45.524986004456878" lon="3.833321006968617">
        <ele>1126.3199999999999</ele>
        <time>2025-04-24T14:12:34Z</time>
      </trkpt>
      <trkpt lat="45.524998996406794" lon="3.833099976181984">
        <ele>1125.3599999999999</ele>
        <time>2025-04-24T14:12:35Z</time>
      </trkpt>
      <trkpt lat="45.524977035820484" lon="3.832891015335918">
        <ele>1124.4000000000001</ele>
        <time>2025-04-24T14:12:36Z</time>
      </trkpt>
      <trkpt lat="45.524928001686931" lon="3.832694962620735">
        <ele>1123.4400000000001</ele>
        <time>2025-04-24T14:12:37Z</time>
      </trkpt>
      <trkpt lat="45.524857006967068" lon="3.832523971796036">
        <ele>1122.96</ele>
        <time>2025-04-24T14:12:38Z</time>
      </trkpt>
      <trkpt lat="45.524748964235187" lon="3.832388017326593">
        <ele>1122.48</ele>
        <time>2025-04-24T14:12:39Z</time>
      </trkpt>
      <trkpt lat="45.524637987837195" lon="3.832247033715248">
        <ele>1121.52</ele>
        <time>2025-04-24T14:12:40Z</time>
      </trkpt>
      <trkpt lat="45.524523993954062" lon="3.832127004861832">
        <ele>1121.03</ele>
        <time>2025-04-24T14:12:41Z</time>
      </trkpt>
      <trkpt lat="45.524399019777775" lon="3.832030026242137">
        <ele>1120.55</ele>
        <time>2025-04-24T14:12:42Z</time>
      </trkpt>
      <trkpt lat="45.52428100258112" lon="3.831936987116933">
        <ele>1120.0699999999999</ele>
        <time>2025-04-24T14:12:43Z</time>
      </trkpt>
      <trkpt lat="45.524157034233212" lon="3.831923995167017">
        <ele>1119.1099999999999</ele>
        <time>2025-04-24T14:12:44Z</time>
      </trkpt>
      <trkpt lat="45.524019990116358" lon="3.831914020702243">
        <ele>1118.1500000000001</ele>
        <time>2025-04-24T14:12:45Z</time>
      </trkpt>
      <trkpt lat="45.523901972919703" lon="3.831964982673526">
        <ele>1117.6700000000001</ele>
        <time>2025-04-24T14:12:46Z</time>
      </trkpt>
      <trkpt lat="45.523768030107021" lon="3.832064978778362">
        <ele>1116.71</ele>
        <time>2025-04-24T14:12:47Z</time>
      </trkpt>
      <trkpt lat="45.523624029010534" lon="3.832172015681863">
        <ele>1115.75</ele>
        <time>2025-04-24T14:12:48Z</time>
      </trkpt>
      <trkpt lat="45.523474998772144" lon="3.832281986251473">
        <ele>1115.27</ele>
        <time>2025-04-24T14:12:49Z</time>
      </trkpt>
      <trkpt lat="45.523040983825922" lon="3.832605024799705">
        <ele>1112.3800000000001</ele>
        <time>2025-04-24T14:12:52Z</time>
      </trkpt>
      <trkpt lat="45.522911986336112" lon="3.832623967900872">
        <ele>1111.4200000000001</ele>
        <time>2025-04-24T14:12:53Z</time>
      </trkpt>
      <trkpt lat="45.522788017988205" lon="3.832636037841439">
        <ele>1110.46</ele>
        <time>2025-04-24T14:12:54Z</time>
      </trkpt>
      <trkpt lat="45.522679975256324" lon="3.832572000101209">
        <ele>1109.5</ele>
        <time>2025-04-24T14:12:55Z</time>
      </trkpt>
      <trkpt lat="45.522565981373191" lon="3.832486001774669">
        <ele>1108.54</ele>
        <time>2025-04-24T14:12:56Z</time>
      </trkpt>
      <trkpt lat="45.522490963339806" lon="3.832350969314575">
        <ele>1107.5799999999999</ele>
        <time>2025-04-24T14:12:57Z</time>
      </trkpt>
      <trkpt lat="45.522453999146819" lon="3.832165980711579">
        <ele>1106.6099999999999</ele>
        <time>2025-04-24T14:12:58Z</time>
      </trkpt>
      <trkpt lat="45.522433966398239" lon="3.832001024857163">
        <ele>1105.1700000000001</ele>
        <time>2025-04-24T14:12:59Z</time>
      </trkpt>
      <trkpt lat="45.522475959733129" lon="3.831816958263516">
        <ele>1104.21</ele>
        <time>2025-04-24T14:13:00Z</time>
      </trkpt>
      <trkpt lat="45.522525999695063" lon="3.831649990752339">
        <ele>1102.77</ele>
        <time>2025-04-24T14:13:01Z</time>
      </trkpt>
      <trkpt lat="45.522590037435293" lon="3.831471959128976">
        <ele>1101.8099999999999</ele>
        <time>2025-04-24T14:13:02Z</time>
      </trkpt>
      <trkpt lat="45.522660026326776" lon="3.831276996061206">
        <ele>1100.3699999999999</ele>
        <time>2025-04-24T14:13:03Z</time>
      </trkpt>
      <trkpt lat="45.523339966312051" lon="3.829429037868977">
        <ele>1090.27</ele>
        <time>2025-04-24T14:13:11Z</time>
      </trkpt>
      <trkpt lat="45.523442979902029" lon="3.829177999868989">
        <ele>1089.3099999999999</ele>
        <time>2025-04-24T14:13:12Z</time>
      </trkpt>
      <trkpt lat="45.523568037897348" lon="3.82894397713244">
        <ele>1087.8699999999999</ele>
        <time>2025-04-24T14:13:13Z</time>
      </trkpt>
      <trkpt lat="45.523694017902017" lon="3.8287060149014">
        <ele>1086.9100000000001</ele>
        <time>2025-04-24T14:13:14Z</time>
      </trkpt>
      <trkpt lat="45.524343028664589" lon="3.82758803665638">
        <ele>1081.1400000000001</ele>
        <time>2025-04-24T14:13:19Z</time>
      </trkpt>
      <trkpt lat="45.524464985355735" lon="3.827390978112817">
        <ele>1080.1800000000001</ele>
        <time>2025-04-24T14:13:20Z</time>
      </trkpt>
      <trkpt lat="45.524588031694293" lon="3.827194003388286">
        <ele>1079.22</ele>
        <time>2025-04-24T14:13:21Z</time>
      </trkpt>
      <trkpt lat="45.524706970900297" lon="3.827002979815006">
        <ele>1078.74</ele>
        <time>2025-04-24T14:13:22Z</time>
      </trkpt>
      <trkpt lat="45.524814007803798" lon="3.826808016747236">
        <ele>1077.78</ele>
        <time>2025-04-24T14:13:23Z</time>
      </trkpt>
      <trkpt lat="45.524891959503293" lon="3.826604001224041">
        <ele>1076.8099999999999</ele>
        <time>2025-04-24T14:13:24Z</time>
      </trkpt>
      <trkpt lat="45.524965971708298" lon="3.826403003185988">
        <ele>1075.8499999999999</ele>
        <time>2025-04-24T14:13:25Z</time>
      </trkpt>
      <trkpt lat="45.525015005841851" lon="3.826190019026399">
        <ele>1074.8900000000001</ele>
        <time>2025-04-24T14:13:26Z</time>
      </trkpt>
      <trkpt lat="45.525026991963387" lon="3.825760027393699">
        <ele>1072.97</ele>
        <time>2025-04-24T14:13:28Z</time>
      </trkpt>
      <trkpt lat="45.524993967264891" lon="3.825555006042123">
        <ele>1072.01</ele>
        <time>2025-04-24T14:13:29Z</time>
      </trkpt>
      <trkpt lat="45.52494996227324" lon="3.825343027710915">
        <ele>1071.05</ele>
        <time>2025-04-24T14:13:30Z</time>
      </trkpt>
      <trkpt lat="45.524862036108971" lon="3.825177988037467">
        <ele>1070.0799999999999</ele>
        <time>2025-04-24T14:13:31Z</time>
      </trkpt>
      <trkpt lat="45.524752987548709" lon="3.825020994991064">
        <ele>1069.1199999999999</ele>
        <time>2025-04-24T14:13:32Z</time>
      </trkpt>
      <trkpt lat="45.524629019200802" lon="3.824874982237816">
        <ele>1068.1600000000001</ele>
        <time>2025-04-24T14:13:33Z</time>
      </trkpt>
      <trkpt lat="45.524502033367753" lon="3.824725029990077">
        <ele>1067.2</ele>
        <time>2025-04-24T14:13:34Z</time>
      </trkpt>
      <trkpt lat="45.524370018392801" lon="3.824569964781404">
        <ele>1066.24</ele>
        <time>2025-04-24T14:13:35Z</time>
      </trkpt>
      <trkpt lat="45.524230962619185" lon="3.824407020583749">
        <ele>1065.28</ele>
        <time>2025-04-24T14:13:36Z</time>
      </trkpt>
      <trkpt lat="45.524100037291646" lon="3.824204010888934">
        <ele>1064.3199999999999</ele>
        <time>2025-04-24T14:13:37Z</time>
      </trkpt>
      <trkpt lat="45.523971039801836" lon="3.823982980102301">
        <ele>1063.3599999999999</ele>
        <time>2025-04-24T14:13:38Z</time>
      </trkpt>
      <trkpt lat="45.523840030655265" lon="3.823759015649557">
        <ele>1061.9100000000001</ele>
        <time>2025-04-24T14:13:39Z</time>
      </trkpt>
      <trkpt lat="45.523707009851933" lon="3.823532033711672">
        <ele>1060.95</ele>
        <time>2025-04-24T14:13:40Z</time>
      </trkpt>
      <trkpt lat="45.523104015737772" lon="3.82236703298986">
        <ele>1056.6300000000001</ele>
        <time>2025-04-24T14:13:45Z</time>
      </trkpt>
      <trkpt lat="45.523038972169161" lon="3.822078024968505">
        <ele>1055.6700000000001</ele>
        <time>2025-04-24T14:13:46Z</time>
      </trkpt>
      <trkpt lat="45.522677963599563" lon="3.82041497156024">
        <ele>1051.3399999999999</ele>
        <time>2025-04-24T14:13:52Z</time>
      </trkpt>
      <trkpt lat="45.52264996804297" lon="3.820127975195646">
        <ele>1050.3800000000001</ele>
        <time>2025-04-24T14:13:53Z</time>
      </trkpt>
      <trkpt lat="45.522624989971519" lon="3.819835027679801">
        <ele>1049.4200000000001</ele>
        <time>2025-04-24T14:13:54Z</time>
      </trkpt>
      <trkpt lat="45.522726997733116" lon="3.818718977272511">
        <ele>1045.0899999999999</ele>
        <time>2025-04-24T14:13:58Z</time>
      </trkpt>
      <trkpt lat="45.523210968822241" lon="3.817204032093287">
        <ele>1036.4400000000001</ele>
        <time>2025-04-24T14:14:04Z</time>
      </trkpt>
      <trkpt lat="45.523790996521711" lon="3.81633197888732">
        <ele>1029.71</ele>
        <time>2025-04-24T14:14:09Z</time>
      </trkpt>
      <trkpt lat="45.523925023153424" lon="3.816252015531063">
        <ele>1028.75</ele>
        <time>2025-04-24T14:14:10Z</time>
      </trkpt>
      <trkpt lat="45.524068018421531" lon="3.816221002489328">
        <ele>1027.79</ele>
        <time>2025-04-24T14:14:11Z</time>
      </trkpt>
      <trkpt lat="45.524216964840889" lon="3.816215973347426">
        <ele>1026.3399999999999</ele>
        <time>2025-04-24T14:14:12Z</time>
      </trkpt>
      <trkpt lat="45.524377981200814" lon="3.816244974732399">
        <ele>1025.8599999999999</ele>
        <time>2025-04-24T14:14:13Z</time>
      </trkpt>
      <trkpt lat="45.524843009188771" lon="3.816327033564448">
        <ele>1023.9400000000001</ele>
        <time>2025-04-24T14:14:16Z</time>
      </trkpt>
      <trkpt lat="45.524978963658214" lon="3.816291997209191">
        <ele>1022.98</ele>
        <time>2025-04-24T14:14:17Z</time>
      </trkpt>
      <trkpt lat="45.525112990289927" lon="3.81622301414609">
        <ele>1022.02</ele>
        <time>2025-04-24T14:14:18Z</time>
      </trkpt>
      <trkpt lat="45.525233019143343" lon="3.816089993342757">
        <ele>1021.0599999999999</ele>
        <time>2025-04-24T14:14:19Z</time>
      </trkpt>
      <trkpt lat="45.525362016633153" lon="3.815948003903031">
        <ele>1020.1</ele>
        <time>2025-04-24T14:14:20Z</time>
      </trkpt>
      <trkpt lat="45.525501994416118" lon="3.815790005028248">
        <ele>1019.13</ele>
        <time>2025-04-24T14:14:21Z</time>
      </trkpt>
      <trkpt lat="45.52559201605618" lon="3.815588001161814">
        <ele>1017.6900000000001</ele>
        <time>2025-04-24T14:14:22Z</time>
      </trkpt>
      <trkpt lat="45.525682959705591" lon="3.815377028658986">
        <ele>1016.25</ele>
        <time>2025-04-24T14:14:23Z</time>
      </trkpt>
      <trkpt lat="45.5258500110358" lon="3.814920969307423">
        <ele>1014.33</ele>
        <time>2025-04-24T14:14:25Z</time>
      </trkpt>
      <trkpt lat="45.525946989655495" lon="3.814706979319453">
        <ele>1013.85</ele>
        <time>2025-04-24T14:14:26Z</time>
      </trkpt>
      <trkpt lat="45.526079004630446" lon="3.814512016251683">
        <ele>1012.89</ele>
        <time>2025-04-24T14:14:27Z</time>
      </trkpt>
      <trkpt lat="45.526213031262159" lon="3.814314035698772">
        <ele>1011.9299999999999</ele>
        <time>2025-04-24T14:14:28Z</time>
      </trkpt>
      <trkpt lat="45.52634303458035" lon="3.814122006297112">
        <ele>1011.4400000000001</ele>
        <time>2025-04-24T14:14:29Z</time>
      </trkpt>
      <trkpt lat="45.526483012363315" lon="3.813965013250709">
        <ele>1010.48</ele>
        <time>2025-04-24T14:14:30Z</time>
      </trkpt>
      <trkpt lat="45.526615027338266" lon="3.813822017982602">
        <ele>1009.52</ele>
        <time>2025-04-24T14:14:31Z</time>
      </trkpt>
      <trkpt lat="45.526787023991346" lon="3.813724033534527">
        <ele>1008.5599999999999</ele>
        <time>2025-04-24T14:14:32Z</time>
      </trkpt>
      <trkpt lat="45.528033999726176" lon="3.812832031399012">
        <ele>999.90999999999997</ele>
        <time>2025-04-24T14:14:40Z</time>
      </trkpt>
      <trkpt lat="45.528437001630664" lon="3.812429029494524">
        <ele>996.53999999999996</ele>
        <time>2025-04-24T14:14:43Z</time>
      </trkpt>
      <trkpt lat="45.528567004948854" lon="3.812299026176333">
        <ele>995.10000000000002</ele>
        <time>2025-04-24T14:14:44Z</time>
      </trkpt>
      <trkpt lat="45.528701031580567" lon="3.812254015356302">
        <ele>994.13999999999999</ele>
        <time>2025-04-24T14:14:45Z</time>
      </trkpt>
      <trkpt lat="45.528838997706771" lon="3.812243035063148">
        <ele>993.17999999999995</ele>
        <time>2025-04-24T14:14:46Z</time>
      </trkpt>
      <trkpt lat="45.528961960226297" lon="3.812257032841444">
        <ele>992.22000000000003</ele>
        <time>2025-04-24T14:14:47Z</time>
      </trkpt>
      <trkpt lat="45.529078971594572" lon="3.81227002479136">
        <ele>991.74000000000001</ele>
        <time>2025-04-24T14:14:48Z</time>
      </trkpt>
      <trkpt lat="45.529176034033298" lon="3.812247980386019">
        <ele>990.29999999999995</ele>
        <time>2025-04-24T14:14:49Z</time>
      </trkpt>
      <trkpt lat="45.529259014874697" lon="3.812164999544621">
        <ele>989.33000000000004</ele>
        <time>2025-04-24T14:14:50Z</time>
      </trkpt>
      <trkpt lat="45.529296984896064" lon="3.812071960419416">
        <ele>987.88999999999999</ele>
        <time>2025-04-24T14:14:51Z</time>
      </trkpt>
      <trkpt lat="45.529296984896064" lon="3.811930976808071">
        <ele>986.45000000000005</ele>
        <time>2025-04-24T14:14:52Z</time>
      </trkpt>
      <trkpt lat="45.529278963804245" lon="3.811821006238461">
        <ele>985.49000000000001</ele>
        <time>2025-04-24T14:14:53Z</time>
      </trkpt>
      <trkpt lat="45.529218027368188" lon="3.811729978770018">
        <ele>984.52999999999997</ele>
        <time>2025-04-24T14:14:54Z</time>
      </trkpt>
      <trkpt lat="45.529131023213267" lon="3.811715980991721">
        <ele>983.57000000000005</ele>
        <time>2025-04-24T14:14:55Z</time>
      </trkpt>
      <trkpt lat="45.529020968824625" lon="3.81171103566885">
        <ele>983.09000000000003</ele>
        <time>2025-04-24T14:14:56Z</time>
      </trkpt>
      <trkpt lat="45.528892977163196" lon="3.811705000698566">
        <ele>982.60000000000002</ele>
        <time>2025-04-24T14:14:57Z</time>
      </trkpt>
      <trkpt lat="45.528297023847699" lon="3.811679016798735">
        <ele>979.24000000000001</ele>
        <time>2025-04-24T14:15:01Z</time>
      </trkpt>
      <trkpt lat="45.528151011094451" lon="3.811620008200407">
        <ele>978.27999999999997</ele>
        <time>2025-04-24T14:15:02Z</time>
      </trkpt>
      <trkpt lat="45.528011033311486" lon="3.811536021530628">
        <ele>977.79999999999995</ele>
        <time>2025-04-24T14:15:03Z</time>
      </trkpt>
      <trkpt lat="45.527881029993296" lon="3.811440970748663">
        <ele>976.84000000000003</ele>
        <time>2025-04-24T14:15:04Z</time>
      </trkpt>
      <trkpt lat="45.527756977826357" lon="3.811317002400756">
        <ele>976.36000000000001</ele>
        <time>2025-04-24T14:15:05Z</time>
      </trkpt>
      <trkpt lat="45.52765597589314" lon="3.811136959120631">
        <ele>975.88</ele>
        <time>2025-04-24T14:15:06Z</time>
      </trkpt>
      <trkpt lat="45.527562014758587" lon="3.810945013538003">
        <ele>975.38999999999999</ele>
        <time>2025-04-24T14:15:07Z</time>
      </trkpt>
      <trkpt lat="45.527466963976622" lon="3.810749966651201">
        <ele>974.90999999999997</ele>
        <time>2025-04-24T14:15:08Z</time>
      </trkpt>
      <trkpt lat="45.52711701951921" lon="3.80997003056109">
        <ele>972.99000000000001</ele>
        <time>2025-04-24T14:15:12Z</time>
      </trkpt>
      <trkpt lat="45.527021968737245" lon="3.809744976460934">
        <ele>972.50999999999999</ele>
        <time>2025-04-24T14:15:13Z</time>
      </trkpt>
      <trkpt lat="45.526884002611041" lon="3.80907098762691">
        <ele>970.59000000000003</ele>
        <time>2025-04-24T14:15:16Z</time>
      </trkpt>
      <trkpt lat="45.526868999004364" lon="3.808818021789193">
        <ele>970.11000000000001</ele>
        <time>2025-04-24T14:15:17Z</time>
      </trkpt>
      <trkpt lat="45.526864975690842" lon="3.808552986010909">
        <ele>969.14999999999998</ele>
        <time>2025-04-24T14:15:18Z</time>
      </trkpt>
      <trkpt lat="45.526872016489506" lon="3.807527963072062">
        <ele>964.34000000000003</ele>
        <time>2025-04-24T14:15:22Z</time>
      </trkpt>
      <trkpt lat="45.526911998167634" lon="3.807306010276079">
        <ele>963.38</ele>
        <time>2025-04-24T14:15:23Z</time>
      </trkpt>
      <trkpt lat="45.526976035907865" lon="3.807080034166575">
        <ele>961.94000000000005</ele>
        <time>2025-04-24T14:15:24Z</time>
      </trkpt>
      <trkpt lat="45.527067985385656" lon="3.806871995329857">
        <ele>960.98000000000002</ele>
        <time>2025-04-24T14:15:25Z</time>
      </trkpt>
      <trkpt lat="45.527163036167622" lon="3.806653982028365">
        <ele>959.52999999999997</ele>
        <time>2025-04-24T14:15:26Z</time>
      </trkpt>
      <trkpt lat="45.527753960341215" lon="3.805342968553305">
        <ele>951.84000000000003</ele>
        <time>2025-04-24T14:15:32Z</time>
      </trkpt>
      <trkpt lat="45.527872983366251" lon="3.805164014920592">
        <ele>950.88</ele>
        <time>2025-04-24T14:15:33Z</time>
      </trkpt>
      <trkpt lat="45.528023019433022" lon="3.805014984682202">
        <ele>949.44000000000005</ele>
        <time>2025-04-24T14:15:34Z</time>
      </trkpt>
      <trkpt lat="45.528477989137173" lon="3.804573006927967">
        <ele>946.07000000000005</ele>
        <time>2025-04-24T14:15:37Z</time>
      </trkpt>
      <trkpt lat="45.528630036860704" lon="3.804425988346338">
        <ele>944.63</ele>
        <time>2025-04-24T14:15:38Z</time>
      </trkpt>
      <trkpt lat="45.530043980106711" lon="3.803114974871278">
        <ele>932.13999999999999</ele>
        <time>2025-04-24T14:15:47Z</time>
      </trkpt>
      <trkpt lat="45.530169038102031" lon="3.803034005686641">
        <ele>930.69000000000005</ele>
        <time>2025-04-24T14:15:48Z</time>
      </trkpt>
      <trkpt lat="45.530301975086331" lon="3.803066024556756">
        <ele>929.25</ele>
        <time>2025-04-24T14:15:49Z</time>
      </trkpt>
      <trkpt lat="45.530414041131735" lon="3.803122015669942">
        <ele>927.33000000000004</ele>
        <time>2025-04-24T14:15:50Z</time>
      </trkpt>
      <trkpt lat="45.530496016144753" lon="3.803229974582791">
        <ele>925.88999999999999</ele>
        <time>2025-04-24T14:15:51Z</time>
      </trkpt>
      <trkpt lat="45.530571034178138" lon="3.803327959030867">
        <ele>923.96000000000004</ele>
        <time>2025-04-24T14:15:52Z</time>
      </trkpt>
      <trkpt lat="45.530648985877633" lon="3.803428038954735">
        <ele>922.51999999999998</ele>
        <time>2025-04-24T14:15:53Z</time>
      </trkpt>
      <trkpt lat="45.530730038881302" lon="3.803533986210823">
        <ele>921.08000000000004</ele>
        <time>2025-04-24T14:15:54Z</time>
      </trkpt>
      <trkpt lat="45.530802961438894" lon="3.803628031164408">
        <ele>919.15999999999997</ele>
        <time>2025-04-24T14:15:55Z</time>
      </trkpt>
      <trkpt lat="45.530892983078957" lon="3.803661977872253">
        <ele>917.72000000000003</ele>
        <time>2025-04-24T14:15:56Z</time>
      </trkpt>
      <trkpt lat="45.530977975577116" lon="3.803663989529014">
        <ele>916.26999999999998</ele>
        <time>2025-04-24T14:15:57Z</time>
      </trkpt>
      <trkpt lat="45.53104997612536" lon="3.803581008687615">
        <ele>914.83000000000004</ele>
        <time>2025-04-24T14:15:58Z</time>
      </trkpt>
      <trkpt lat="45.531107978895307" lon="3.803460979834199">
        <ele>913.38999999999999</ele>
        <time>2025-04-24T14:15:59Z</time>
      </trkpt>
      <trkpt lat="45.531131029129028" lon="3.803301975131035">
        <ele>911.95000000000005</ele>
        <time>2025-04-24T14:16:00Z</time>
      </trkpt>
      <trkpt lat="45.531131029129028" lon="3.803116986528039">
        <ele>910.99000000000001</ele>
        <time>2025-04-24T14:16:01Z</time>
      </trkpt>
      <trkpt lat="45.531078977510333" lon="3.802938032895327">
        <ele>909.53999999999996</ele>
        <time>2025-04-24T14:16:02Z</time>
      </trkpt>
      <trkpt lat="45.53100798279047" lon="3.802785985171795">
        <ele>908.58000000000004</ele>
        <time>2025-04-24T14:16:03Z</time>
      </trkpt>
      <trkpt lat="45.530916033312678" lon="3.802652964368463">
        <ele>908.10000000000002</ele>
        <time>2025-04-24T14:16:04Z</time>
      </trkpt>
      <trkpt lat="45.530797010287642" lon="3.802556991577148">
        <ele>906.65999999999997</ele>
        <time>2025-04-24T14:16:05Z</time>
      </trkpt>
      <trkpt lat="45.530657032504678" lon="3.802491025999188">
        <ele>905.70000000000005</ele>
        <time>2025-04-24T14:16:06Z</time>
      </trkpt>
      <trkpt lat="45.530506996437907" lon="3.802421037107706">
        <ele>905.22000000000003</ele>
        <time>2025-04-24T14:16:07Z</time>
      </trkpt>
      <trkpt lat="45.53033902309835" lon="3.802402010187507">
        <ele>904.25999999999999</ele>
        <time>2025-04-24T14:16:08Z</time>
      </trkpt>
      <trkpt lat="45.530156968161464" lon="3.802396981045604">
        <ele>903.29999999999995</ele>
        <time>2025-04-24T14:16:09Z</time>
      </trkpt>
      <trkpt lat="45.528792981058359" lon="3.802382983267307">
        <ele>894.63999999999999</ele>
        <time>2025-04-24T14:16:16Z</time>
      </trkpt>
      <trkpt lat="45.527451960369945" lon="3.80266897380352">
        <ele>885.50999999999999</ele>
        <time>2025-04-24T14:16:23Z</time>
      </trkpt>
      <trkpt lat="45.527127999812365" lon="3.802746003493667">
        <ele>882.63</ele>
        <time>2025-04-24T14:16:25Z</time>
      </trkpt>
      <trkpt lat="45.52696798928082" lon="3.802808029577136">
        <ele>881.19000000000005</ele>
        <time>2025-04-24T14:16:26Z</time>
      </trkpt>
      <trkpt lat="45.526831028982997" lon="3.802934009581804">
        <ele>879.74000000000001</ele>
        <time>2025-04-24T14:16:27Z</time>
      </trkpt>
      <trkpt lat="45.526529029011726" lon="3.803308010101318">
        <ele>876.86000000000001</ele>
        <time>2025-04-24T14:16:30Z</time>
      </trkpt>
      <trkpt lat="45.526459040120244" lon="3.803336005657911">
        <ele>875.89999999999998</ele>
        <time>2025-04-24T14:16:31Z</time>
      </trkpt>
      <trkpt lat="45.526382010430098" lon="3.803330976516008">
        <ele>874.46000000000004</ele>
        <time>2025-04-24T14:16:32Z</time>
      </trkpt>
      <trkpt lat="45.526287965476513" lon="3.80326702259481">
        <ele>873.5</ele>
        <time>2025-04-24T14:16:33Z</time>
      </trkpt>
      <trkpt lat="45.526260975748301" lon="3.803157974034548">
        <ele>872.04999999999995</ele>
        <time>2025-04-24T14:16:34Z</time>
      </trkpt>
      <trkpt lat="45.526262987405062" lon="3.802953036502004">
        <ele>871.09000000000003</ele>
        <time>2025-04-24T14:16:35Z</time>
      </trkpt>
      <trkpt lat="45.526321996003389" lon="3.802822027355433">
        <ele>870.13</ele>
        <time>2025-04-24T14:16:36Z</time>
      </trkpt>
      <trkpt lat="45.526425009593368" lon="3.802695041522384">
        <ele>869.64999999999998</ele>
        <time>2025-04-24T14:16:37Z</time>
      </trkpt>
      <trkpt lat="45.526541015133262" lon="3.802567971870303">
        <ele>869.64999999999998</ele>
        <time>2025-04-24T14:16:38Z</time>
      </trkpt>
      <trkpt lat="45.52666699513793" lon="3.802427994087338">
        <ele>869.16999999999996</ele>
        <time>2025-04-24T14:16:39Z</time>
      </trkpt>
      <trkpt lat="45.52774197421968" lon="3.801346980035305">
        <ele>864.36000000000001</ele>
        <time>2025-04-24T14:16:46Z</time>
      </trkpt>
      <trkpt lat="45.527912965044379" lon="3.801209013909102">
        <ele>863.39999999999998</ele>
        <time>2025-04-24T14:16:47Z</time>
      </trkpt>
      <trkpt lat="45.528099965304136" lon="3.801123015582562">
        <ele>862.44000000000005</ele>
        <time>2025-04-24T14:16:48Z</time>
      </trkpt>
      <trkpt lat="45.528294006362557" lon="3.801047997549176">
        <ele>861.48000000000002</ele>
        <time>2025-04-24T14:16:49Z</time>
      </trkpt>
      <trkpt lat="45.528498021885753" lon="3.801001980900765">
        <ele>861</ele>
        <time>2025-04-24T14:16:50Z</time>
      </trkpt>
      <trkpt lat="45.530315972864628" lon="3.800585987046361">
        <ele>854.26999999999998</ele>
        <time>2025-04-24T14:16:59Z</time>
      </trkpt>
      <trkpt lat="45.530666001141071" lon="3.800409967079759">
        <ele>853.30999999999995</ele>
        <time>2025-04-24T14:17:01Z</time>
      </trkpt>
      <trkpt lat="45.530830034986138" lon="3.800311982631683">
        <ele>852.35000000000002</ele>
        <time>2025-04-24T14:17:02Z</time>
      </trkpt>
      <trkpt lat="45.530949980020523" lon="3.800141997635365">
        <ele>851.38</ele>
        <time>2025-04-24T14:17:03Z</time>
      </trkpt>
      <trkpt lat="45.531078977510333" lon="3.799957009032369">
        <ele>850.89999999999998</ele>
        <time>2025-04-24T14:17:04Z</time>
      </trkpt>
      <trkpt lat="45.531166987493634" lon="3.7997239921242">
        <ele>849.94000000000005</ele>
        <time>2025-04-24T14:17:05Z</time>
      </trkpt>
      <trkpt lat="45.531253991648555" lon="3.799491981044412">
        <ele>848.98000000000002</ele>
        <time>2025-04-24T14:17:06Z</time>
      </trkpt>
      <trkpt lat="45.531337978318334" lon="3.799267010763288">
        <ele>848.5</ele>
        <time>2025-04-24T14:17:07Z</time>
      </trkpt>
      <trkpt lat="45.531419031322002" lon="3.799044974148274">
        <ele>848.01999999999998</ele>
        <time>2025-04-24T14:17:08Z</time>
      </trkpt>
      <trkpt lat="45.531496983021498" lon="3.798831989988685">
        <ele>847.05999999999995</ele>
        <time>2025-04-24T14:17:09Z</time>
      </trkpt>
      <trkpt lat="45.532385967671871" lon="3.796560997143388">
        <ele>837.45000000000005</ele>
        <time>2025-04-24T14:17:20Z</time>
      </trkpt>
      <trkpt lat="45.533428005874157" lon="3.794673979282379">
        <ele>829.26999999999998</ele>
        <time>2025-04-24T14:17:29Z</time>
      </trkpt>
      <trkpt lat="45.534930964931846" lon="3.792639020830393">
        <ele>817.25999999999999</ele>
        <time>2025-04-24T14:17:40Z</time>
      </trkpt>
      <trkpt lat="45.53525903262198" lon="3.792048012837768">
        <ele>814.37</ele>
        <time>2025-04-24T14:17:43Z</time>
      </trkpt>
      <trkpt lat="45.535361040383577" lon="3.791865035891533">
        <ele>813.40999999999997</ele>
        <time>2025-04-24T14:17:44Z</time>
      </trkpt>
      <trkpt lat="45.535511998459697" lon="3.791745007038117">
        <ele>812.92999999999995</ele>
        <time>2025-04-24T14:17:45Z</time>
      </trkpt>
      <trkpt lat="45.535665974020958" lon="3.791632018983364">
        <ele>811.49000000000001</ele>
        <time>2025-04-24T14:17:46Z</time>
      </trkpt>
      <trkpt lat="45.535834031179547" lon="3.791544009000063">
        <ele>810.52999999999997</ele>
        <time>2025-04-24T14:17:47Z</time>
      </trkpt>
      <trkpt lat="45.536008961498737" lon="3.791459016501904">
        <ele>809.57000000000005</ele>
        <time>2025-04-24T14:17:48Z</time>
      </trkpt>
      <trkpt lat="45.537484008818865" lon="3.790697017684579">
        <ele>799.95000000000005</ele>
        <time>2025-04-24T14:17:56Z</time>
      </trkpt>
      <trkpt lat="45.537656005471945" lon="3.790555028244853">
        <ele>798.50999999999999</ele>
        <time>2025-04-24T14:17:57Z</time>
      </trkpt>
      <trkpt lat="45.53781702183187" lon="3.790380014106631">
        <ele>797.07000000000005</ele>
        <time>2025-04-24T14:17:58Z</time>
      </trkpt>
      <trkpt lat="45.537962028756738" lon="3.790168035775423">
        <ele>795.14999999999998</ele>
        <time>2025-04-24T14:17:59Z</time>
      </trkpt>
      <trkpt lat="45.538107035681605" lon="3.789956979453564">
        <ele>793.22000000000003</ele>
        <time>2025-04-24T14:18:00Z</time>
      </trkpt>
      <trkpt lat="45.53994501940906" lon="3.787275021895766">
        <ele>770.63</ele>
        <time>2025-04-24T14:18:13Z</time>
      </trkpt>
      <trkpt lat="45.540282977744937" lon="3.786910995841026">
        <ele>767.75</ele>
        <time>2025-04-24T14:18:15Z</time>
      </trkpt>
      <trkpt lat="45.540469978004694" lon="3.786774035543203">
        <ele>766.78999999999996</ele>
        <time>2025-04-24T14:18:16Z</time>
      </trkpt>
      <trkpt lat="45.541142039000988" lon="3.786201970651746">
        <ele>761.98000000000002</ele>
        <time>2025-04-24T14:18:20Z</time>
      </trkpt>
      <trkpt lat="45.541282016783953" lon="3.786012958735228">
        <ele>761.01999999999998</ele>
        <time>2025-04-24T14:18:21Z</time>
      </trkpt>
      <trkpt lat="45.541387964040041" lon="3.785780025646091">
        <ele>759.58000000000004</ele>
        <time>2025-04-24T14:18:22Z</time>
      </trkpt>
      <trkpt lat="45.541478991508484" lon="3.785548014566302">
        <ele>758.62</ele>
        <time>2025-04-24T14:18:23Z</time>
      </trkpt>
      <trkpt lat="45.541551997885108" lon="3.785323966294527">
        <ele>757.17999999999995</ele>
        <time>2025-04-24T14:18:24Z</time>
      </trkpt>
      <trkpt lat="45.541568007320166" lon="3.785092961043119">
        <ele>756.21000000000004</ele>
        <time>2025-04-24T14:18:25Z</time>
      </trkpt>
      <trkpt lat="45.54155501537025" lon="3.784863967448473">
        <ele>755.25</ele>
        <time>2025-04-24T14:18:26Z</time>
      </trkpt>
      <trkpt lat="45.541500030085444" lon="3.784643020480871">
        <ele>754.28999999999996</ele>
        <time>2025-04-24T14:18:27Z</time>
      </trkpt>
      <trkpt lat="45.541423000395298" lon="3.78442500717938">
        <ele>752.85000000000002</ele>
        <time>2025-04-24T14:18:28Z</time>
      </trkpt>
      <trkpt lat="45.541332978755236" lon="3.784219985827804">
        <ele>751.88999999999999</ele>
        <time>2025-04-24T14:18:29Z</time>
      </trkpt>
      <trkpt lat="45.541223008185625" lon="3.784056035801768">
        <ele>751.40999999999997</ele>
        <time>2025-04-24T14:18:30Z</time>
      </trkpt>
      <trkpt lat="45.541090993210673" lon="3.783942963927984">
        <ele>750.45000000000005</ele>
        <time>2025-04-24T14:18:31Z</time>
      </trkpt>
      <trkpt lat="45.540941040962934" lon="3.783887978643179">
        <ele>749.49000000000001</ele>
        <time>2025-04-24T14:18:32Z</time>
      </trkpt>
      <trkpt lat="45.540786981582642" lon="3.783870963379741">
        <ele>748.51999999999998</ele>
        <time>2025-04-24T14:18:33Z</time>
      </trkpt>
      <trkpt lat="45.5406129732728" lon="3.783878004178405">
        <ele>747.55999999999995</ele>
        <time>2025-04-24T14:18:34Z</time>
      </trkpt>
      <trkpt lat="45.540426978841424" lon="3.783885966986418">
        <ele>746.12</ele>
        <time>2025-04-24T14:18:35Z</time>
      </trkpt>
      <trkpt lat="45.538929970934987" lon="3.784004990011454">
        <ele>737.95000000000005</ele>
        <time>2025-04-24T14:18:42Z</time>
      </trkpt>
      <trkpt lat="45.53833301179111" lon="3.784131975844502">
        <ele>733.62</ele>
        <time>2025-04-24T14:18:45Z</time>
      </trkpt>
      <trkpt lat="45.538177024573088" lon="3.784088976681233">
        <ele>732.17999999999995</ele>
        <time>2025-04-24T14:18:46Z</time>
      </trkpt>
      <trkpt lat="45.538024976849556" lon="3.783991998061538">
        <ele>730.74000000000001</ele>
        <time>2025-04-24T14:18:47Z</time>
      </trkpt>
      <trkpt lat="45.537691041827202" lon="3.783775996416807">
        <ele>728.34000000000003</ele>
        <time>2025-04-24T14:18:49Z</time>
      </trkpt>
      <trkpt lat="45.537501024082303" lon="3.783714976161718">
        <ele>727.37</ele>
        <time>2025-04-24T14:18:50Z</time>
      </trkpt>
      <trkpt lat="45.537316035479307" lon="3.783663008362055">
        <ele>725.92999999999995</ele>
        <time>2025-04-24T14:18:51Z</time>
      </trkpt>
      <trkpt lat="45.537120988592505" lon="3.783685974776745">
        <ele>724.97000000000003</ele>
        <time>2025-04-24T14:18:52Z</time>
      </trkpt>
      <trkpt lat="45.536933988332748" lon="3.783725034445524">
        <ele>723.52999999999997</ele>
        <time>2025-04-24T14:18:53Z</time>
      </trkpt>
      <trkpt lat="45.536761991679668" lon="3.783807009458542">
        <ele>722.57000000000005</ele>
        <time>2025-04-24T14:18:54Z</time>
      </trkpt>
      <trkpt lat="45.536602986976504" lon="3.783905999734998">
        <ele>721.61000000000001</ele>
        <time>2025-04-24T14:18:55Z</time>
      </trkpt>
      <trkpt lat="45.536479018628597" lon="3.784043965861201">
        <ele>720.15999999999997</ele>
        <time>2025-04-24T14:18:56Z</time>
      </trkpt>
      <trkpt lat="45.536396037787199" lon="3.784199031069875">
        <ele>719.20000000000005</ele>
        <time>2025-04-24T14:18:57Z</time>
      </trkpt>
      <trkpt lat="45.536363013088703" lon="3.784350994974375">
        <ele>717.75999999999999</ele>
        <time>2025-04-24T14:18:58Z</time>
      </trkpt>
      <trkpt lat="45.536341974511743" lon="3.784513017162681">
        <ele>716.79999999999995</ele>
        <time>2025-04-24T14:18:59Z</time>
      </trkpt>
      <trkpt lat="45.536321019753814" lon="3.784672021865845">
        <ele>715.84000000000003</ele>
        <time>2025-04-24T14:19:00Z</time>
      </trkpt>
      <trkpt lat="45.536301992833614" lon="3.784823985770345">
        <ele>714.39999999999998</ele>
        <time>2025-04-24T14:19:01Z</time>
      </trkpt>
      <trkpt lat="45.536263016983867" lon="3.784935967996717">
        <ele>713.44000000000005</ele>
        <time>2025-04-24T14:19:02Z</time>
      </trkpt>
      <trkpt lat="45.536182969808578" lon="3.784997994080186">
        <ele>712.47000000000003</ele>
        <time>2025-04-24T14:19:03Z</time>
      </trkpt>
      <trkpt lat="45.5360989831388" lon="3.785025989636779">
        <ele>711.50999999999999</ele>
        <time>2025-04-24T14:19:04Z</time>
      </trkpt>
      <trkpt lat="45.535997981205583" lon="3.784924987703562">
        <ele>710.54999999999995</ele>
        <time>2025-04-24T14:19:05Z</time>
      </trkpt>
      <trkpt lat="45.535903014242649" lon="3.784830020740628">
        <ele>709.11000000000001</ele>
        <time>2025-04-24T14:19:06Z</time>
      </trkpt>
      <trkpt lat="45.535831013694406" lon="3.784699011594057">
        <ele>708.14999999999998</ele>
        <time>2025-04-24T14:19:07Z</time>
      </trkpt>
      <trkpt lat="45.535766975954175" lon="3.784520979970694">
        <ele>707.19000000000005</ele>
        <time>2025-04-24T14:19:08Z</time>
      </trkpt>
      <trkpt lat="45.535701010376215" lon="3.784334985539317">
        <ele>705.75</ele>
        <time>2025-04-24T14:19:09Z</time>
      </trkpt>
      <trkpt lat="45.535623980686069" lon="3.784157959744334">
        <ele>704.29999999999995</ele>
        <time>2025-04-24T14:19:10Z</time>
      </trkpt>
      <trkpt lat="45.535527002066374" lon="3.784032985568047">
        <ele>702.86000000000001</ele>
        <time>2025-04-24T14:19:11Z</time>
      </trkpt>
      <trkpt lat="45.535404039546847" lon="3.783948998898268">
        <ele>701.89999999999998</ele>
        <time>2025-04-24T14:19:12Z</time>
      </trkpt>
      <trkpt lat="45.535272024571896" lon="3.783907005563378">
        <ele>700.46000000000004</ele>
        <time>2025-04-24T14:19:13Z</time>
      </trkpt>
      <trkpt lat="45.535126011818647" lon="3.783898958936334">
        <ele>699.5</ele>
        <time>2025-04-24T14:19:14Z</time>
      </trkpt>
      <trkpt lat="45.534973964095116" lon="3.78388999029994">
        <ele>698.52999999999997</ele>
        <time>2025-04-24T14:19:15Z</time>
      </trkpt>
      <trkpt lat="45.534822000190616" lon="3.783928966149688">
        <ele>697.57000000000005</ele>
        <time>2025-04-24T14:19:16Z</time>
      </trkpt>
      <trkpt lat="45.53466098383069" lon="3.7839749827981">
        <ele>696.61000000000001</ele>
        <time>2025-04-24T14:19:17Z</time>
      </trkpt>
      <trkpt lat="45.534558976069093" lon="3.784053018316627">
        <ele>696.13</ele>
        <time>2025-04-24T14:19:18Z</time>
      </trkpt>
      <trkpt lat="45.534452022984624" lon="3.784133987501264">
        <ele>695.64999999999998</ele>
        <time>2025-04-24T14:19:19Z</time>
      </trkpt>
      <trkpt lat="45.534352026879787" lon="3.78421001136303">
        <ele>695.16999999999996</ele>
        <time>2025-04-24T14:19:20Z</time>
      </trkpt>
      <trkpt lat="45.534266028553247" lon="3.78427597694099">
        <ele>694.69000000000005</ele>
        <time>2025-04-24T14:19:21Z</time>
      </trkpt>
      <trkpt lat="45.534166032448411" lon="3.784289974719286">
        <ele>694.21000000000004</ele>
        <time>2025-04-24T14:19:22Z</time>
      </trkpt>
      <trkpt lat="45.534089002758265" lon="3.784242030233145">
        <ele>693.73000000000002</ele>
        <time>2025-04-24T14:19:23Z</time>
      </trkpt>
      <trkpt lat="45.534007027745247" lon="3.784129964187741">
        <ele>693.25</ele>
        <time>2025-04-24T14:19:24Z</time>
      </trkpt>
      <trkpt lat="45.533958999440074" lon="3.783948998898268">
        <ele>692.28999999999996</ele>
        <time>2025-04-24T14:19:25Z</time>
      </trkpt>
      <trkpt lat="45.533975008875132" lon="3.78382402472198">
        <ele>691.80999999999995</ele>
        <time>2025-04-24T14:19:26Z</time>
      </trkpt>
      <trkpt lat="45.534060001373291" lon="3.783686980605125">
        <ele>690.84000000000003</ele>
        <time>2025-04-24T14:19:27Z</time>
      </trkpt>
      <trkpt lat="45.534180030226707" lon="3.783613974228501">
        <ele>690.36000000000001</ele>
        <time>2025-04-24T14:19:28Z</time>
      </trkpt>
      <trkpt lat="45.534308021888137" lon="3.783564018085599">
        <ele>689.39999999999998</ele>
        <time>2025-04-24T14:19:29Z</time>
      </trkpt>
      <trkpt lat="45.53444598801434" lon="3.783510038629174">
        <ele>688.44000000000005</ele>
        <time>2025-04-24T14:19:30Z</time>
      </trkpt>
      <trkpt lat="45.53500397130847" lon="3.78322396427393">
        <ele>685.55999999999995</ele>
        <time>2025-04-24T14:19:34Z</time>
      </trkpt>
      <trkpt lat="45.535119976848364" lon="3.783142995089293">
        <ele>684.60000000000002</ele>
        <time>2025-04-24T14:19:35Z</time>
      </trkpt>
      <trkpt lat="45.535194994881749" lon="3.782978961244226">
        <ele>683.63</ele>
        <time>2025-04-24T14:19:36Z</time>
      </trkpt>
      <trkpt lat="45.535255009308457" lon="3.782781986519694">
        <ele>682.66999999999996</ele>
        <time>2025-04-24T14:19:37Z</time>
      </trkpt>
      <trkpt lat="45.535289961844683" lon="3.782546035945416">
        <ele>681.23000000000002</ele>
        <time>2025-04-24T14:19:38Z</time>
      </trkpt>
      <trkpt lat="45.535328015685081" lon="3.782292986288667">
        <ele>680.26999999999998</ele>
        <time>2025-04-24T14:19:39Z</time>
      </trkpt>
      <trkpt lat="45.535387024283409" lon="3.781774984672666">
        <ele>677.87</ele>
        <time>2025-04-24T14:19:41Z</time>
      </trkpt>
      <trkpt lat="45.535377971827984" lon="3.7815279699862">
        <ele>676.90999999999997</ele>
        <time>2025-04-24T14:19:42Z</time>
      </trkpt>
      <trkpt lat="45.53536799736321" lon="3.781286990270019">
        <ele>675.46000000000004</ele>
        <time>2025-04-24T14:19:43Z</time>
      </trkpt>
      <trkpt lat="45.535359028726816" lon="3.781039975583553">
        <ele>674.5</ele>
        <time>2025-04-24T14:19:44Z</time>
      </trkpt>
      <trkpt lat="45.53534897044301" lon="3.780787009745836">
        <ele>673.53999999999996</ele>
        <time>2025-04-24T14:19:45Z</time>
      </trkpt>
      <trkpt lat="45.535385012626648" lon="3.780524991452694">
        <ele>672.58000000000004</ele>
        <time>2025-04-24T14:19:46Z</time>
      </trkpt>
      <trkpt lat="45.535428011789918" lon="3.780259033665061">
        <ele>671.13999999999999</ele>
        <time>2025-04-24T14:19:47Z</time>
      </trkpt>
      <trkpt lat="45.535741997882724" lon="3.778645014390349">
        <ele>662.97000000000003</ele>
        <time>2025-04-24T14:19:53Z</time>
      </trkpt>
      <trkpt lat="45.535760018974543" lon="3.778387019410729">
        <ele>661.51999999999998</ele>
        <time>2025-04-24T14:19:54Z</time>
      </trkpt>
      <trkpt lat="45.535793965682387" lon="3.777897013351321">
        <ele>659.12</ele>
        <time>2025-04-24T14:19:56Z</time>
      </trkpt>
      <trkpt lat="45.53584199398756" lon="3.777686962857842">
        <ele>657.67999999999995</ele>
        <time>2025-04-24T14:19:57Z</time>
      </trkpt>
      <trkpt lat="45.535908965393901" lon="3.777505997568369">
        <ele>656.24000000000001</ele>
        <time>2025-04-24T14:19:58Z</time>
      </trkpt>
      <trkpt lat="45.536035029217601" lon="3.777343975380063">
        <ele>654.79999999999995</ele>
        <time>2025-04-24T14:19:59Z</time>
      </trkpt>
      <trkpt lat="45.536151034757495" lon="3.777263006195426">
        <ele>653.35000000000002</ele>
        <time>2025-04-24T14:20:00Z</time>
      </trkpt>
      <trkpt lat="45.536295035853982" lon="3.777160998433828">
        <ele>652.38999999999999</ele>
        <time>2025-04-24T14:20:01Z</time>
      </trkpt>
      <trkpt lat="45.536578008905053" lon="3.776962012052536">
        <ele>649.99000000000001</ele>
        <time>2025-04-24T14:20:03Z</time>
      </trkpt>
      <trkpt lat="45.536667024716735" lon="3.776831002905965">
        <ele>649.02999999999997</ele>
        <time>2025-04-24T14:20:04Z</time>
      </trkpt>
      <trkpt lat="45.536733996123075" lon="3.776696976274252">
        <ele>648.07000000000005</ele>
        <time>2025-04-24T14:20:05Z</time>
      </trkpt>
      <trkpt lat="45.536742964759469" lon="3.776550041511655">
        <ele>647.10000000000002</ele>
        <time>2025-04-24T14:20:06Z</time>
      </trkpt>
      <trkpt lat="45.53669803775847" lon="3.776386007666588">
        <ele>646.13999999999999</ele>
        <time>2025-04-24T14:20:07Z</time>
      </trkpt>
      <trkpt lat="45.536634000018239" lon="3.776244018226862">
        <ele>645.17999999999995</ele>
        <time>2025-04-24T14:20:08Z</time>
      </trkpt>
      <trkpt lat="45.536527968943119" lon="3.776077972725034">
        <ele>644.22000000000003</ele>
        <time>2025-04-24T14:20:09Z</time>
      </trkpt>
      <trkpt lat="45.536425961181521" lon="3.775994991883636">
        <ele>643.25999999999999</ele>
        <time>2025-04-24T14:20:10Z</time>
      </trkpt>
      <trkpt lat="45.53629201836884" lon="3.775886027142406">
        <ele>642.77999999999997</ele>
        <time>2025-04-24T14:20:11Z</time>
      </trkpt>
      <trkpt lat="45.535545023158193" lon="3.775237016379833">
        <ele>638.92999999999995</ele>
        <time>2025-04-24T14:20:16Z</time>
      </trkpt>
      <trkpt lat="45.535420970991254" lon="3.775050016120076">
        <ele>637.97000000000003</ele>
        <time>2025-04-24T14:20:17Z</time>
      </trkpt>
      <trkpt lat="45.535303959622979" lon="3.774852035567164">
        <ele>637.00999999999999</ele>
        <time>2025-04-24T14:20:18Z</time>
      </trkpt>
      <trkpt lat="45.535199018195271" lon="3.774643996730447">
        <ele>636.04999999999995</ele>
        <time>2025-04-24T14:20:19Z</time>
      </trkpt>
      <trkpt lat="45.535126011818647" lon="3.774411985650659">
        <ele>635.09000000000003</ele>
        <time>2025-04-24T14:20:20Z</time>
      </trkpt>
      <trkpt lat="45.535076977685094" lon="3.774165976792574">
        <ele>634.13</ele>
        <time>2025-04-24T14:20:21Z</time>
      </trkpt>
      <trkpt lat="45.535027021542192" lon="3.773917034268379">
        <ele>633.16999999999996</ele>
        <time>2025-04-24T14:20:22Z</time>
      </trkpt>
      <trkpt lat="45.534929037094116" lon="3.773428034037352">
        <ele>630.75999999999999</ele>
        <time>2025-04-24T14:20:24Z</time>
      </trkpt>
      <trkpt lat="45.534941023215652" lon="3.773174984380603">
        <ele>629.79999999999995</ele>
        <time>2025-04-24T14:20:25Z</time>
      </trkpt>
      <trkpt lat="45.534969018772244" lon="3.772919001057744">
        <ele>628.84000000000003</ele>
        <time>2025-04-24T14:20:26Z</time>
      </trkpt>
      <trkpt lat="45.535083012655377" lon="3.77190001308918">
        <ele>623.07000000000005</ele>
        <time>2025-04-24T14:20:30Z</time>
      </trkpt>
      <trkpt lat="45.535072032362223" lon="3.771655010059476">
        <ele>622.11000000000001</ele>
        <time>2025-04-24T14:20:31Z</time>
      </trkpt>
      <trkpt lat="45.53504697047174" lon="3.771416964009404">
        <ele>620.66999999999996</ele>
        <time>2025-04-24T14:20:32Z</time>
      </trkpt>
      <trkpt lat="45.534919984638691" lon="3.770183986052871">
        <ele>615.86000000000001</ele>
        <time>2025-04-24T14:20:38Z</time>
      </trkpt>
      <trkpt lat="45.534931970760226" lon="3.769994974136353">
        <ele>615.38</ele>
        <time>2025-04-24T14:20:39Z</time>
      </trkpt>
      <trkpt lat="45.534958960488439" lon="3.769805040210486">
        <ele>614.41999999999996</ele>
        <time>2025-04-24T14:20:40Z</time>
      </trkpt>
      <trkpt lat="45.535006988793612" lon="3.769624996930361">
        <ele>613.46000000000004</ele>
        <time>2025-04-24T14:20:41Z</time>
      </trkpt>
      <trkpt lat="45.535094998776913" lon="3.769486024975777">
        <ele>612.01999999999998</ele>
        <time>2025-04-24T14:20:42Z</time>
      </trkpt>
      <trkpt lat="45.535194994881749" lon="3.76938602887094">
        <ele>611.05999999999995</ele>
        <time>2025-04-24T14:20:43Z</time>
      </trkpt>
      <trkpt lat="45.535315023735166" lon="3.769351998344064">
        <ele>609.61000000000001</ele>
        <time>2025-04-24T14:20:44Z</time>
      </trkpt>
      <trkpt lat="45.535456007346511" lon="3.769373036921024">
        <ele>608.64999999999998</ele>
        <time>2025-04-24T14:20:45Z</time>
      </trkpt>
      <trkpt lat="45.535613000392914" lon="3.769396003335714">
        <ele>607.69000000000005</ele>
        <time>2025-04-24T14:20:46Z</time>
      </trkpt>
      <trkpt lat="45.53695603273809" lon="3.769345041364431">
        <ele>600</ele>
        <time>2025-04-24T14:20:53Z</time>
      </trkpt>
      <trkpt lat="45.537290973588824" lon="3.76938502304256">
        <ele>597.60000000000002</ele>
        <time>2025-04-24T14:20:55Z</time>
      </trkpt>
      <trkpt lat="45.537434974685311" lon="3.769437996670604">
        <ele>596.63999999999999</ele>
        <time>2025-04-24T14:20:56Z</time>
      </trkpt>
      <trkpt lat="45.537686012685299" lon="3.769531035795808">
        <ele>594.23000000000002</ele>
        <time>2025-04-24T14:20:58Z</time>
      </trkpt>
      <trkpt lat="45.537782991304994" lon="3.76953698694706">
        <ele>593.75</ele>
        <time>2025-04-24T14:20:59Z</time>
      </trkpt>
      <trkpt lat="45.537878964096308" lon="3.769482001662254">
        <ele>592.78999999999996</ele>
        <time>2025-04-24T14:21:00Z</time>
      </trkpt>
      <trkpt lat="45.537947025150061" lon="3.769340012222529">
        <ele>591.83000000000004</ele>
        <time>2025-04-24T14:21:01Z</time>
      </trkpt>
      <trkpt lat="45.538009973242879" lon="3.769160974770784">
        <ele>590.87</ele>
        <time>2025-04-24T14:21:02Z</time>
      </trkpt>
      <trkpt lat="45.538058001548052" lon="3.76893600448966">
        <ele>589.90999999999997</ele>
        <time>2025-04-24T14:21:03Z</time>
      </trkpt>
      <trkpt lat="45.538099994882941" lon="3.768683960661292">
        <ele>588.95000000000005</ele>
        <time>2025-04-24T14:21:04Z</time>
      </trkpt>
      <trkpt lat="45.538478018715978" lon="3.766354965046048">
        <ele>580.28999999999996</ele>
        <time>2025-04-24T14:21:12Z</time>
      </trkpt>
      <trkpt lat="45.538696032017469" lon="3.765214020386338">
        <ele>576.92999999999995</ele>
        <time>2025-04-24T14:21:16Z</time>
      </trkpt>
      <trkpt lat="45.538777001202106" lon="3.764950996264815">
        <ele>575.49000000000001</ele>
        <time>2025-04-24T14:21:17Z</time>
      </trkpt>
      <trkpt lat="45.538866017013788" lon="3.764685960486531">
        <ele>574.03999999999996</ele>
        <time>2025-04-24T14:21:18Z</time>
      </trkpt>
      <trkpt lat="45.539542017504573" lon="3.763244021683931">
        <ele>566.35000000000002</ele>
        <time>2025-04-24T14:21:24Z</time>
      </trkpt>
      <trkpt lat="45.539617035537958" lon="3.762980997562408">
        <ele>565.38999999999999</ele>
        <time>2025-04-24T14:21:25Z</time>
      </trkpt>
      <trkpt lat="45.539788026362658" lon="3.762224027886987">
        <ele>562.02999999999997</ele>
        <time>2025-04-24T14:21:28Z</time>
      </trkpt>
      <trkpt lat="45.539833037182689" lon="3.761958992108703">
        <ele>560.59000000000003</ele>
        <time>2025-04-24T14:21:29Z</time>
      </trkpt>
      <trkpt lat="45.5399239808321" lon="3.76128600910306">
        <ele>558.17999999999995</ele>
        <time>2025-04-24T14:21:32Z</time>
      </trkpt>
      <trkpt lat="45.540002016350627" lon="3.761091968044639">
        <ele>556.74000000000001</ele>
        <time>2025-04-24T14:21:33Z</time>
      </trkpt>
      <trkpt lat="45.540111986920238" lon="3.760886024683714">
        <ele>556.25999999999999</ele>
        <time>2025-04-24T14:21:34Z</time>
      </trkpt>
      <trkpt lat="45.540236039087176" lon="3.760760966688395">
        <ele>555.29999999999995</ele>
        <time>2025-04-24T14:21:35Z</time>
      </trkpt>
      <trkpt lat="45.540379034355283" lon="3.760618977248669">
        <ele>554.34000000000003</ele>
        <time>2025-04-24T14:21:36Z</time>
      </trkpt>
      <trkpt lat="45.541347982361913" lon="3.759653968736529">
        <ele>549.52999999999997</ele>
        <time>2025-04-24T14:21:43Z</time>
      </trkpt>
      <trkpt lat="45.542579032480717" lon="3.758433982729912">
        <ele>547.61000000000001</ele>
        <time>2025-04-24T14:21:54Z</time>
      </trkpt>
      <trkpt lat="45.543534988537431" lon="3.757446007803083">
        <ele>548.09000000000003</ele>
        <time>2025-04-24T14:22:04Z</time>
      </trkpt>
      <trkpt lat="45.543617969378829" lon="3.757322039455175">
        <ele>548.57000000000005</ele>
        <time>2025-04-24T14:22:05Z</time>
      </trkpt>
      <trkpt lat="45.543716037645936" lon="3.757174015045166">
        <ele>549.04999999999995</ele>
        <time>2025-04-24T14:22:06Z</time>
      </trkpt>
      <trkpt lat="45.543761970475316" lon="3.757043005898595">
        <ele>549.52999999999997</ele>
        <time>2025-04-24T14:22:07Z</time>
      </trkpt>
      <trkpt lat="45.543815027922392" lon="3.756886012852192">
        <ele>550.00999999999999</ele>
        <time>2025-04-24T14:22:08Z</time>
      </trkpt>
      <trkpt lat="45.543870013207197" lon="3.756728013977408">
        <ele>550.00999999999999</ele>
        <time>2025-04-24T14:22:09Z</time>
      </trkpt>
      <trkpt lat="45.543923992663622" lon="3.756571020931006">
        <ele>550.49000000000001</ele>
        <time>2025-04-24T14:22:10Z</time>
      </trkpt>
      <trkpt lat="45.543971015140414" lon="3.756405981257558">
        <ele>550.97000000000003</ele>
        <time>2025-04-24T14:22:11Z</time>
      </trkpt>
      <trkpt lat="45.54419900290668" lon="3.755261013284326">
        <ele>553.38</ele>
        <time>2025-04-24T14:22:18Z</time>
      </trkpt>
      <trkpt lat="45.544209983199835" lon="3.755093039944768">
        <ele>553.38</ele>
        <time>2025-04-24T14:22:19Z</time>
      </trkpt>
      <trkpt lat="45.544209983199835" lon="3.754922971129417">
        <ele>553.86000000000001</ele>
        <time>2025-04-24T14:22:20Z</time>
      </trkpt>
      <trkpt lat="45.544147035107017" lon="3.754055025056005">
        <ele>554.34000000000003</ele>
        <time>2025-04-24T14:22:25Z</time>
      </trkpt>
      <trkpt lat="45.544157009571791" lon="3.753885962069035">
        <ele>554.82000000000005</ele>
        <time>2025-04-24T14:22:26Z</time>
      </trkpt>
      <trkpt lat="45.544176958501339" lon="3.753712037578225">
        <ele>554.82000000000005</ele>
        <time>2025-04-24T14:22:27Z</time>
      </trkpt>
      <trkpt lat="45.544677022844553" lon="3.752680979669094">
        <ele>559.62</ele>
        <time>2025-04-24T14:22:35Z</time>
      </trkpt>
      <trkpt lat="45.545078013092279" lon="3.75191998668015">
        <ele>560.59000000000003</ele>
        <time>2025-04-24T14:22:44Z</time>
      </trkpt>
      <trkpt lat="45.545434998348355" lon="3.751242980360985">
        <ele>560.11000000000001</ele>
        <time>2025-04-24T14:22:51Z</time>
      </trkpt>
      <trkpt lat="45.545485960319638" lon="3.75114600174129">
        <ele>560.11000000000001</ele>
        <time>2025-04-24T14:22:52Z</time>
      </trkpt>
      <trkpt lat="45.545538011938334" lon="3.751048017293215">
        <ele>560.11000000000001</ele>
        <time>2025-04-24T14:22:53Z</time>
      </trkpt>
      <trkpt lat="45.545589979737997" lon="3.750947015359998">
        <ele>560.11000000000001</ele>
        <time>2025-04-24T14:22:54Z</time>
      </trkpt>
      <trkpt lat="45.545642031356692" lon="3.750850036740303">
        <ele>559.62</ele>
        <time>2025-04-24T14:22:55Z</time>
      </trkpt>
      <trkpt lat="45.545696010813117" lon="3.750748028978705">
        <ele>559.62</ele>
        <time>2025-04-24T14:22:56Z</time>
      </trkpt>
      <trkpt lat="45.545749990269542" lon="3.750644009560347">
        <ele>559.13999999999999</ele>
        <time>2025-04-24T14:22:57Z</time>
      </trkpt>
      <trkpt lat="45.545960962772369" lon="3.750245030969381">
        <ele>556.74000000000001</ele>
        <time>2025-04-24T14:23:01Z</time>
      </trkpt>
      <trkpt lat="45.546016031876206" lon="3.750140005722642">
        <ele>555.77999999999997</ele>
        <time>2025-04-24T14:23:02Z</time>
      </trkpt>
      <trkpt lat="45.546663030982018" lon="3.748909961432219">
        <ele>550.97000000000003</ele>
        <time>2025-04-24T14:23:13Z</time>
      </trkpt>
      <trkpt lat="45.546720027923584" lon="3.748802002519369">
        <ele>550.00999999999999</ele>
        <time>2025-04-24T14:23:14Z</time>
      </trkpt>
      <trkpt lat="45.547124035656452" lon="3.748049978166819">
        <ele>546.16999999999996</ele>
        <time>2025-04-24T14:23:21Z</time>
      </trkpt>
      <trkpt lat="45.547180026769638" lon="3.74794302508235">
        <ele>545.69000000000005</ele>
        <time>2025-04-24T14:23:22Z</time>
      </trkpt>
      <trkpt lat="45.547287985682487" lon="3.74773196876049">
        <ele>545.20000000000005</ele>
        <time>2025-04-24T14:23:24Z</time>
      </trkpt>
      <trkpt lat="45.547398962080479" lon="3.74751596711576">
        <ele>544.72000000000003</ele>
        <time>2025-04-24T14:23:26Z</time>
      </trkpt>
      <trkpt lat="45.547457970678806" lon="3.747402979061008">
        <ele>544.24000000000001</ele>
        <time>2025-04-24T14:23:27Z</time>
      </trkpt>
      <trkpt lat="45.547512033954263" lon="3.7472980376333">
        <ele>543.75999999999999</ele>
        <time>2025-04-24T14:23:28Z</time>
      </trkpt>
      <trkpt lat="45.547671960666776" lon="3.746987991034985">
        <ele>543.27999999999997</ele>
        <time>2025-04-24T14:23:31Z</time>
      </trkpt>
      <trkpt lat="45.547783020883799" lon="3.746774001047015">
        <ele>543.27999999999997</ele>
        <time>2025-04-24T14:23:33Z</time>
      </trkpt>
      <trkpt lat="45.547837000340223" lon="3.746667969971895">
        <ele>542.79999999999995</ele>
        <time>2025-04-24T14:23:34Z</time>
      </trkpt>
      <trkpt lat="45.547890979796648" lon="3.746565040200949">
        <ele>542.32000000000005</ele>
        <time>2025-04-24T14:23:35Z</time>
      </trkpt>
      <trkpt lat="45.547944037243724" lon="3.746462026610971">
        <ele>541.84000000000003</ele>
        <time>2025-04-24T14:23:36Z</time>
      </trkpt>
      <trkpt lat="45.547996005043387" lon="3.746360018849373">
        <ele>541.36000000000001</ele>
        <time>2025-04-24T14:23:37Z</time>
      </trkpt>
      <trkpt lat="45.548047972843051" lon="3.746264968067408">
        <ele>540.88</ele>
        <time>2025-04-24T14:23:38Z</time>
      </trkpt>
      <trkpt lat="45.548154003918171" lon="3.746068999171257">
        <ele>540.39999999999998</ele>
        <time>2025-04-24T14:23:40Z</time>
      </trkpt>
      <trkpt lat="45.548203960061073" lon="3.745975960046053">
        <ele>539.91999999999996</ele>
        <time>2025-04-24T14:23:41Z</time>
      </trkpt>
      <trkpt lat="45.548252994194627" lon="3.745886022225022">
        <ele>539.91999999999996</ele>
        <time>2025-04-24T14:23:42Z</time>
      </trkpt>
      <trkpt lat="45.548303034156561" lon="3.745793988928199">
        <ele>539.44000000000005</ele>
        <time>2025-04-24T14:23:43Z</time>
      </trkpt>
      <trkpt lat="45.548351984471083" lon="3.745704973116517">
        <ele>539.44000000000005</ele>
        <time>2025-04-24T14:23:44Z</time>
      </trkpt>
      <trkpt lat="45.548520041629672" lon="3.745363997295499">
        <ele>538.48000000000002</ele>
        <time>2025-04-24T14:23:48Z</time>
      </trkpt>
      <trkpt lat="45.548557005822659" lon="3.745285039767623">
        <ele>538.48000000000002</ele>
        <time>2025-04-24T14:23:49Z</time>
      </trkpt>
      <trkpt lat="45.548591958358884" lon="3.745180014520884">
        <ele>537.99000000000001</ele>
        <time>2025-04-24T14:23:50Z</time>
      </trkpt>
      <trkpt lat="45.548651972785592" lon="3.744985973462462">
        <ele>537.02999999999997</ele>
        <time>2025-04-24T14:23:52Z</time>
      </trkpt>
      <trkpt lat="45.548778958618641" lon="3.744017025455833">
        <ele>534.63</ele>
        <time>2025-04-24T14:24:03Z</time>
      </trkpt>
      <trkpt lat="45.548790022730827" lon="3.743938989937306">
        <ele>534.63</ele>
        <time>2025-04-24T14:24:04Z</time>
      </trkpt>
      <trkpt lat="45.548930000513792" lon="3.742908015847206">
        <ele>534.14999999999998</ele>
        <time>2025-04-24T14:24:16Z</time>
      </trkpt>
      <trkpt lat="45.549009963870049" lon="3.742340980097652">
        <ele>533.19000000000005</ele>
        <time>2025-04-24T14:24:22Z</time>
      </trkpt>
      <trkpt lat="45.549052963033319" lon="3.742041997611523">
        <ele>531.75</ele>
        <time>2025-04-24T14:24:25Z</time>
      </trkpt>
      <trkpt lat="45.549066038802266" lon="3.741945018991828">
        <ele>531.26999999999998</ele>
        <time>2025-04-24T14:24:26Z</time>
      </trkpt>
      <trkpt lat="45.549080958589911" lon="3.741839993745089">
        <ele>530.78999999999996</ele>
        <time>2025-04-24T14:24:27Z</time>
      </trkpt>
      <trkpt lat="45.549095962196589" lon="3.741733962669969">
        <ele>530.29999999999995</ele>
        <time>2025-04-24T14:24:28Z</time>
      </trkpt>
      <trkpt lat="45.549110965803266" lon="3.741632038727403">
        <ele>529.82000000000005</ele>
        <time>2025-04-24T14:24:29Z</time>
      </trkpt>
      <trkpt lat="45.549141978845" lon="3.74141201376915">
        <ele>528.38</ele>
        <time>2025-04-24T14:24:31Z</time>
      </trkpt>
      <trkpt lat="45.549156982451677" lon="3.741303971037269">
        <ele>527.89999999999998</ele>
        <time>2025-04-24T14:24:32Z</time>
      </trkpt>
      <trkpt lat="45.549171986058354" lon="3.741194000467658">
        <ele>527.89999999999998</ele>
        <time>2025-04-24T14:24:33Z</time>
      </trkpt>
      <trkpt lat="45.549187995493412" lon="3.741086041554809">
        <ele>527.41999999999996</ele>
        <time>2025-04-24T14:24:34Z</time>
      </trkpt>
      <trkpt lat="45.549202999100089" lon="3.740981016308069">
        <ele>526.94000000000005</ele>
        <time>2025-04-24T14:24:35Z</time>
      </trkpt>
      <trkpt lat="45.549256978556514" lon="3.740567034110427">
        <ele>525.5</ele>
        <time>2025-04-24T14:24:39Z</time>
      </trkpt>
      <trkpt lat="45.54926997050643" lon="3.740464020520449">
        <ele>525.01999999999998</ele>
        <time>2025-04-24T14:24:40Z</time>
      </trkpt>
      <trkpt lat="45.549282040446997" lon="3.740369975566864">
        <ele>524.53999999999996</ele>
        <time>2025-04-24T14:24:41Z</time>
      </trkpt>
      <trkpt lat="45.549293020740151" lon="3.740282971411943">
        <ele>524.05999999999995</ele>
        <time>2025-04-24T14:24:42Z</time>
      </trkpt>
      <trkpt lat="45.549304001033306" lon="3.740223040804267">
        <ele>523.58000000000004</ele>
        <time>2025-04-24T14:24:43Z</time>
      </trkpt>
      <trkpt lat="45.549311963841319" lon="3.740180963650346">
        <ele>523.58000000000004</ele>
        <time>2025-04-24T14:24:44Z</time>
      </trkpt>
      <trkpt lat="45.549316992983222" lon="3.740157997235656">
        <ele>523.09000000000003</ele>
        <time>2025-04-24T14:24:45Z</time>
      </trkpt>
      <trkpt lat="45.549316992983222" lon="3.740157997235656">
        <ele>522.61000000000001</ele>
        <time>2025-04-24T14:24:57Z</time>
      </trkpt>
      <trkpt lat="45.549359992146492" lon="3.739843005314469">
        <ele>521.64999999999998</ele>
        <time>2025-04-24T14:25:15Z</time>
      </trkpt>
      <trkpt lat="45.549368038773537" lon="3.739780979231">
        <ele>521.64999999999998</ele>
        <time>2025-04-24T14:25:16Z</time>
      </trkpt>
      <trkpt lat="45.549378013238311" lon="3.739709984511137">
        <ele>521.64999999999998</ele>
        <time>2025-04-24T14:25:17Z</time>
      </trkpt>
      <trkpt lat="45.549421012401581" lon="3.73967201448977">
        <ele>521.16999999999996</ele>
        <time>2025-04-24T14:25:18Z</time>
      </trkpt>
      <trkpt lat="45.549473986029625" lon="3.739652987569571">
        <ele>521.16999999999996</ele>
        <time>2025-04-24T14:25:19Z</time>
      </trkpt>
      <trkpt lat="45.54952796548605" lon="3.739633038640022">
        <ele>521.16999999999996</ele>
        <time>2025-04-24T14:25:20Z</time>
      </trkpt>
      <trkpt lat="45.549584040418267" lon="3.739612000063062">
        <ele>520.69000000000005</ele>
        <time>2025-04-24T14:25:21Z</time>
      </trkpt>
      <trkpt lat="45.549637014046311" lon="3.739594984799624">
        <ele>520.21000000000004</ele>
        <time>2025-04-24T14:25:22Z</time>
      </trkpt>
      <trkpt lat="45.550203965976834" lon="3.739475039765239">
        <ele>514.91999999999996</ele>
        <time>2025-04-24T14:25:32Z</time>
      </trkpt>
      <trkpt lat="45.550264986231923" lon="3.739461963996291">
        <ele>514.44000000000005</ele>
        <time>2025-04-24T14:25:33Z</time>
      </trkpt>
      <trkpt lat="45.550442012026906" lon="3.739415025338531">
        <ele>513.48000000000002</ele>
        <time>2025-04-24T14:25:36Z</time>
      </trkpt>
      <trkpt lat="45.55049397982657" lon="3.739399015903473">
        <ele>513.48000000000002</ele>
        <time>2025-04-24T14:25:37Z</time>
      </trkpt>
      <trkpt lat="45.550532033666968" lon="3.739388035610318">
        <ele>513</ele>
        <time>2025-04-24T14:25:38Z</time>
      </trkpt>
      <trkpt lat="45.550539996474981" lon="3.739386023953557">
        <ele>513</ele>
        <time>2025-04-24T14:25:39Z</time>
      </trkpt>
      <trkpt lat="45.550553994253278" lon="3.739321986213327">
        <ele>513.48000000000002</ele>
        <time>2025-04-24T14:25:40Z</time>
      </trkpt>
      <trkpt lat="45.550561035051942" lon="3.739288961514831">
        <ele>514.44000000000005</ele>
        <time>2025-04-24T14:25:41Z</time>
      </trkpt>
      <trkpt lat="45.550582995638251" lon="3.739192988723517">
        <ele>514.44000000000005</ele>
        <time>2025-04-24T14:25:42Z</time>
      </trkpt>
      <trkpt lat="45.550581989809871" lon="3.739177985116839">
        <ele>514.44000000000005</ele>
        <time>2025-04-24T14:25:43Z</time>
      </trkpt>
      <trkpt lat="45.550577966496348" lon="3.73911595903337">
        <ele>513.96000000000004</ele>
        <time>2025-04-24T14:25:44Z</time>
      </trkpt>
      <trkpt lat="45.550575032830238" lon="3.739068014547229">
        <ele>513.96000000000004</ele>
        <time>2025-04-24T14:25:45Z</time>
      </trkpt>
      <trkpt lat="45.550560029223561" lon="3.73864196240902">
        <ele>510.60000000000002</ele>
        <time>2025-04-24T14:25:55Z</time>
      </trkpt>
      <trkpt lat="45.5505580175668" lon="3.738339962437749">
        <ele>510.12</ele>
        <time>2025-04-24T14:26:04Z</time>
      </trkpt>
      <trkpt lat="45.55055701173842" lon="3.738304004073143">
        <ele>509.63999999999999</ele>
        <time>2025-04-24T14:26:05Z</time>
      </trkpt>
      <trkpt lat="45.55055701173842" lon="3.73825203627348">
        <ele>509.63999999999999</ele>
        <time>2025-04-24T14:26:06Z</time>
      </trkpt>
      <trkpt lat="45.55055701173842" lon="3.738192021846771">
        <ele>509.63999999999999</ele>
        <time>2025-04-24T14:26:07Z</time>
      </trkpt>
      <trkpt lat="45.550556005910039" lon="3.738134019076824">
        <ele>510.12</ele>
        <time>2025-04-24T14:26:08Z</time>
      </trkpt>
      <trkpt lat="45.550556005910039" lon="3.738080961629748">
        <ele>509.63999999999999</ele>
        <time>2025-04-24T14:26:09Z</time>
      </trkpt>
      <trkpt lat="45.550555000081658" lon="3.737965039908886">
        <ele>509.63999999999999</ele>
        <time>2025-04-24T14:26:11Z</time>
      </trkpt>
      <trkpt lat="45.550547959282994" lon="3.736962983384728">
        <ele>507.70999999999998</ele>
        <time>2025-04-24T14:26:23Z</time>
      </trkpt>
      <trkpt lat="45.550542008131742" lon="3.736181035637856">
        <ele>506.26999999999998</ele>
        <time>2025-04-24T14:26:31Z</time>
      </trkpt>
      <trkpt lat="45.550542008131742" lon="3.736110962927342">
        <ele>505.79000000000002</ele>
        <time>2025-04-24T14:26:32Z</time>
      </trkpt>
      <trkpt lat="45.550541002303362" lon="3.736050026491284">
        <ele>505.79000000000002</ele>
        <time>2025-04-24T14:26:33Z</time>
      </trkpt>
      <trkpt lat="45.550541002303362" lon="3.735997974872589">
        <ele>505.79000000000002</ele>
        <time>2025-04-24T14:26:34Z</time>
      </trkpt>
      <trkpt lat="45.550541002303362" lon="3.735954975709319">
        <ele>505.31</ele>
        <time>2025-04-24T14:26:35Z</time>
      </trkpt>
      <trkpt lat="45.550539996474981" lon="3.735914994031191">
        <ele>505.31</ele>
        <time>2025-04-24T14:26:36Z</time>
      </trkpt>
      <trkpt lat="45.550539996474981" lon="3.735880041494966">
        <ele>504.82999999999998</ele>
        <time>2025-04-24T14:26:37Z</time>
      </trkpt>
      <trkpt lat="45.550539996474981" lon="3.735880041494966">
        <ele>504.82999999999998</ele>
        <time>2025-04-24T14:26:51Z</time>
      </trkpt>
      <trkpt lat="45.550539996474981" lon="3.735880041494966">
        <ele>503.87</ele>
        <time>2025-04-24T14:27:35Z</time>
      </trkpt>
      <trkpt lat="45.550539996474981" lon="3.735880041494966">
        <ele>503.87</ele>
        <time>2025-04-24T14:28:23Z</time>
      </trkpt>
      <trkpt lat="45.550546031445265" lon="3.735733022913337">
        <ele>507.70999999999998</ele>
        <time>2025-04-24T14:28:59Z</time>
      </trkpt>
      <trkpt lat="45.5505580175668" lon="3.735370002686977">
        <ele>513.96000000000004</ele>
        <time>2025-04-24T14:29:04Z</time>
      </trkpt>
      <trkpt lat="45.550561035051942" lon="3.735306970775127">
        <ele>514.44000000000005</ele>
        <time>2025-04-24T14:29:05Z</time>
      </trkpt>
      <trkpt lat="45.550561035051942" lon="3.735255002975464">
        <ele>514.91999999999996</ele>
        <time>2025-04-24T14:29:06Z</time>
      </trkpt>
      <trkpt lat="45.550561035051942" lon="3.735212003812194">
        <ele>515.39999999999998</ele>
        <time>2025-04-24T14:29:07Z</time>
      </trkpt>
      <trkpt lat="45.550561035051942" lon="3.735171016305685">
        <ele>516.37</ele>
        <time>2025-04-24T14:29:08Z</time>
      </trkpt>
      <trkpt lat="45.550533961504698" lon="3.735074959695339">
        <ele>516.37</ele>
        <time>2025-04-24T14:29:09Z</time>
      </trkpt>
      <trkpt lat="45.550499008968472" lon="3.735078983008862">
        <ele>516.37</ele>
        <time>2025-04-24T14:29:10Z</time>
      </trkpt>
      <trkpt lat="45.550455003976822" lon="3.735083006322384">
        <ele>516.37</ele>
        <time>2025-04-24T14:29:11Z</time>
      </trkpt>
      <trkpt lat="45.550401024520397" lon="3.735088035464287">
        <ele>516.37</ele>
        <time>2025-04-24T14:29:12Z</time>
      </trkpt>
      <trkpt lat="45.550345033407211" lon="3.735092980787158">
        <ele>516.37</ele>
        <time>2025-04-24T14:29:13Z</time>
      </trkpt>
      <trkpt lat="45.550115033984184" lon="3.735115025192499">
        <ele>518.28999999999996</ele>
        <time>2025-04-24T14:29:22Z</time>
      </trkpt>
      <trkpt lat="45.54999902844429" lon="3.735127011314035">
        <ele>521.16999999999996</ele>
        <time>2025-04-24T14:30:05Z</time>
      </trkpt>
      <trkpt lat="45.549944965168834" lon="3.735132040455937">
        <ele>521.64999999999998</ele>
        <time>2025-04-24T14:30:06Z</time>
      </trkpt>
      <trkpt lat="45.549456970766187" lon="3.735178979113698">
        <ele>523.09000000000003</ele>
        <time>2025-04-24T14:30:13Z</time>
      </trkpt>
      <trkpt lat="45.549411959946156" lon="3.735232958570123">
        <ele>523.09000000000003</ele>
        <time>2025-04-24T14:30:14Z</time>
      </trkpt>
      <trkpt lat="45.549367032945156" lon="3.735305964946747">
        <ele>523.58000000000004</ele>
        <time>2025-04-24T14:30:15Z</time>
      </trkpt>
      <trkpt lat="45.549338031560183" lon="3.735351981595159">
        <ele>524.05999999999995</ele>
        <time>2025-04-24T14:30:16Z</time>
      </trkpt>
      <trkpt lat="45.549256978556514" lon="3.735467987135053">
        <ele>524.05999999999995</ele>
        <time>2025-04-24T14:30:17Z</time>
      </trkpt>
      <trkpt lat="45.549259996041656" lon="3.735572006553412">
        <ele>524.53999999999996</ele>
        <time>2025-04-24T14:30:18Z</time>
      </trkpt>
      <trkpt lat="45.549264019355178" lon="3.735681977123022">
        <ele>524.53999999999996</ele>
        <time>2025-04-24T14:30:19Z</time>
      </trkpt>
      <trkpt lat="45.549267958849669" lon="3.735792031511664">
        <ele>525.01999999999998</ele>
        <time>2025-04-24T14:30:20Z</time>
      </trkpt>
      <trkpt lat="45.54929100908339" lon="3.736441964283586">
        <ele>525.5</ele>
        <time>2025-04-24T14:30:26Z</time>
      </trkpt>
      <trkpt lat="45.549295032396913" lon="3.736542966216803">
        <ele>525.5</ele>
        <time>2025-04-24T14:30:27Z</time>
      </trkpt>
      <trkpt lat="45.549297966063023" lon="3.73664396815002">
        <ele>525.98000000000002</ele>
        <time>2025-04-24T14:30:28Z</time>
      </trkpt>
      <trkpt lat="45.549309030175209" lon="3.737033978104591">
        <ele>527.41999999999996</ele>
        <time>2025-04-24T14:30:32Z</time>
      </trkpt>
      <trkpt lat="45.54931104183197" lon="3.737134980037808">
        <ele>527.41999999999996</ele>
        <time>2025-04-24T14:30:33Z</time>
      </trkpt>
      <trkpt lat="45.549316992983222" lon="3.737333966419101">
        <ele>527.89999999999998</ele>
        <time>2025-04-24T14:30:35Z</time>
      </trkpt>
      <trkpt lat="45.549320010468364" lon="3.737433040514588">
        <ele>528.38</ele>
        <time>2025-04-24T14:30:36Z</time>
      </trkpt>
      <trkpt lat="45.549335014075041" lon="3.738008039072156">
        <ele>529.34000000000003</ele>
        <time>2025-04-24T14:30:42Z</time>
      </trkpt>
      <trkpt lat="45.549338031560183" lon="3.738112980499864">
        <ele>529.34000000000003</ele>
        <time>2025-04-24T14:30:43Z</time>
      </trkpt>
      <trkpt lat="45.549340965226293" lon="3.738228986039758">
        <ele>529.34000000000003</ele>
        <time>2025-04-24T14:30:44Z</time>
      </trkpt>
      <trkpt lat="45.549368038773537" lon="3.739190977066755">
        <ele>530.29999999999995</ele>
        <time>2025-04-24T14:30:53Z</time>
      </trkpt>
      <trkpt lat="45.549372984096408" lon="3.73937102034688">
        <ele>530.78999999999996</ele>
        <time>2025-04-24T14:30:59Z</time>
      </trkpt>
      <trkpt lat="45.549374995753169" lon="3.739474033936858">
        <ele>531.75</ele>
        <time>2025-04-24T14:31:30Z</time>
      </trkpt>
      <trkpt lat="45.549354963004589" lon="3.739660028368235">
        <ele>531.75</ele>
        <time>2025-04-24T14:31:31Z</time>
      </trkpt>
      <trkpt lat="45.549381030723453" lon="3.739686012268066">
        <ele>531.75</ele>
        <time>2025-04-24T14:31:32Z</time>
      </trkpt>
      <trkpt lat="45.54952503181994" lon="3.739633960649371">
        <ele>531.75</ele>
        <time>2025-04-24T14:31:33Z</time>
      </trkpt>
      <trkpt lat="45.549587979912758" lon="3.739610994234681">
        <ele>532.23000000000002</ele>
        <time>2025-04-24T14:31:34Z</time>
      </trkpt>
      <trkpt lat="45.549656040966511" lon="3.739590961486101">
        <ele>532.23000000000002</ele>
        <time>2025-04-24T14:31:35Z</time>
      </trkpt>
      <trkpt lat="45.549842035397887" lon="3.739549973979592">
        <ele>531.75</ele>
        <time>2025-04-24T14:31:38Z</time>
      </trkpt>
      <trkpt lat="45.549889979884028" lon="3.739539999514818">
        <ele>531.75</ele>
        <time>2025-04-24T14:31:39Z</time>
      </trkpt>
      <trkpt lat="45.550116961821914" lon="3.739492977038026">
        <ele>533.19000000000005</ele>
        <time>2025-04-24T14:31:47Z</time>
      </trkpt>
      <trkpt lat="45.550332041457295" lon="3.739447966217995">
        <ele>535.59000000000003</ele>
        <time>2025-04-24T14:31:53Z</time>
      </trkpt>
      <trkpt lat="45.550379985943437" lon="3.739433968439698">
        <ele>536.07000000000005</ele>
        <time>2025-04-24T14:31:54Z</time>
      </trkpt>
      <trkpt lat="45.550432037562132" lon="3.739417959004641">
        <ele>536.07000000000005</ele>
        <time>2025-04-24T14:31:55Z</time>
      </trkpt>
      <trkpt lat="45.550761027261615" lon="3.739290973171592">
        <ele>537.02999999999997</ele>
        <time>2025-04-24T14:32:03Z</time>
      </trkpt>
      <trkpt lat="45.550776030868292" lon="3.739300025627017">
        <ele>537.02999999999997</ele>
        <time>2025-04-24T14:32:04Z</time>
      </trkpt>
      <trkpt lat="45.550802014768124" lon="3.739310000091791">
        <ele>537.02999999999997</ele>
        <time>2025-04-24T14:32:05Z</time>
      </trkpt>
      <trkpt lat="45.55083897896111" lon="3.739322992041707">
        <ele>537.02999999999997</ele>
        <time>2025-04-24T14:32:06Z</time>
      </trkpt>
      <trkpt lat="45.550884995609522" lon="3.739340007305145">
        <ele>537.02999999999997</ele>
        <time>2025-04-24T14:32:07Z</time>
      </trkpt>
      <trkpt lat="45.551060009747744" lon="3.739405972883105">
        <ele>537.50999999999999</ele>
        <time>2025-04-24T14:32:11Z</time>
      </trkpt>
      <trkpt lat="45.551114995032549" lon="3.739427011460066">
        <ele>537.50999999999999</ele>
        <time>2025-04-24T14:32:12Z</time>
      </trkpt>
      <trkpt lat="45.551177021116018" lon="3.739449977874756">
        <ele>537.50999999999999</ele>
        <time>2025-04-24T14:32:13Z</time>
      </trkpt>
      <trkpt lat="45.551244998350739" lon="3.739475961774588">
        <ele>537.50999999999999</ele>
        <time>2025-04-24T14:32:14Z</time>
      </trkpt>
      <trkpt lat="45.55131196975708" lon="3.73950001783669">
        <ele>537.50999999999999</ele>
        <time>2025-04-24T14:32:15Z</time>
      </trkpt>
      <trkpt lat="45.551384976133704" lon="3.739527007564902">
        <ele>537.99000000000001</ele>
        <time>2025-04-24T14:32:16Z</time>
      </trkpt>
      <trkpt lat="45.551706003025174" lon="3.739662040024996">
        <ele>539.44000000000005</ele>
        <time>2025-04-24T14:32:23Z</time>
      </trkpt>
      <trkpt lat="45.55174196138978" lon="3.739815009757876">
        <ele>539.44000000000005</ele>
        <time>2025-04-24T14:32:25Z</time>
      </trkpt>
      <trkpt lat="45.551765011623502" lon="3.739862032234669">
        <ele>539.44000000000005</ele>
        <time>2025-04-24T14:32:26Z</time>
      </trkpt>
      <trkpt lat="45.55178496055305" lon="3.739901008084416">
        <ele>539.44000000000005</ele>
        <time>2025-04-24T14:32:27Z</time>
      </trkpt>
      <trkpt lat="45.551845980808139" lon="3.739863960072398">
        <ele>538.96000000000004</ele>
        <time>2025-04-24T14:32:28Z</time>
      </trkpt>
      <trkpt lat="45.551891997456551" lon="3.739835964515805">
        <ele>538.48000000000002</ele>
        <time>2025-04-24T14:32:29Z</time>
      </trkpt>
      <trkpt lat="45.551891997456551" lon="3.739835964515805">
        <ele>537.50999999999999</ele>
        <time>2025-04-24T14:32:30Z</time>
      </trkpt>
      <trkpt lat="45.552086038514972" lon="3.739749966189265">
        <ele>536.07000000000005</ele>
        <time>2025-04-24T14:32:39Z</time>
      </trkpt>
      <trkpt lat="45.55210598744452" lon="3.739749966189265">
        <ele>536.07000000000005</ele>
        <time>2025-04-24T14:32:43Z</time>
      </trkpt>
      <trkpt lat="45.552263986319304" lon="3.739728005602956">
        <ele>534.63</ele>
        <time>2025-04-24T14:32:44Z</time>
      </trkpt>
      <trkpt lat="45.55210598744452" lon="3.739749966189265">
        <ele>533.66999999999996</ele>
        <time>2025-04-24T14:32:45Z</time>
      </trkpt>
      <trkpt lat="45.55210598744452" lon="3.739578975364566">
        <ele>533.19000000000005</ele>
        <time>2025-04-24T14:32:46Z</time>
      </trkpt>
      <trkpt lat="45.55210598744452" lon="3.739578975364566">
        <ele>532.71000000000004</ele>
        <time>2025-04-24T14:32:47Z</time>
      </trkpt>
      <trkpt lat="45.55210598744452" lon="3.739578975364566">
        <ele>532.23000000000002</ele>
        <time>2025-04-24T14:32:48Z</time>
      </trkpt>
      <trkpt lat="45.55210598744452" lon="3.739578975364566">
        <ele>532.23000000000002</ele>
        <time>2025-04-24T14:32:49Z</time>
      </trkpt>
      <trkpt lat="45.55210598744452" lon="3.739578975364566">
        <ele>531.75</ele>
        <time>2025-04-24T14:32:50Z</time>
      </trkpt>
      <trkpt lat="45.55210598744452" lon="3.739578975364566">
        <ele>530.29999999999995</ele>
        <time>2025-04-24T14:33:04Z</time>
      </trkpt>
      <trkpt lat="45.551840029656887" lon="3.739510998129845">
        <ele>482.24000000000001</ele>
        <time>2025-04-24T14:39:15Z</time>
      </trkpt>
      <trkpt lat="45.551823014393449" lon="3.739588027819991">
        <ele>481.27999999999997</ele>
        <time>2025-04-24T14:39:49Z</time>
      </trkpt>
      <trkpt lat="45.551822008565068" lon="3.739590961486101">
        <ele>481.75999999999999</ele>
        <time>2025-04-24T14:40:20Z</time>
      </trkpt>
      <trkpt lat="45.551822008565068" lon="3.739590961486101">
        <ele>481.75999999999999</ele>
        <time>2025-04-24T14:40:37Z</time>
      </trkpt>
      <trkpt lat="45.551874982193112" lon="3.739656005054712">
        <ele>503.38999999999999</ele>
        <time>2025-04-24T14:40:40Z</time>
      </trkpt>
      <trkpt lat="45.551848998293281" lon="3.739664973691106">
        <ele>506.26999999999998</ele>
        <time>2025-04-24T14:40:41Z</time>
      </trkpt>
      <trkpt lat="45.551810022443533" lon="3.739674026146531">
        <ele>508.67000000000002</ele>
        <time>2025-04-24T14:40:42Z</time>
      </trkpt>
      <trkpt lat="45.551750008016825" lon="3.739765975624323">
        <ele>511.56</ele>
        <time>2025-04-24T14:40:43Z</time>
      </trkpt>
      <trkpt lat="45.55174196138978" lon="3.739815009757876">
        <ele>513</ele>
        <time>2025-04-24T14:40:44Z</time>
      </trkpt>
      <trkpt lat="45.551768029108644" lon="3.739955993369222">
        <ele>514.91999999999996</ele>
        <time>2025-04-24T14:40:45Z</time>
      </trkpt>
      <trkpt lat="45.551736010238528" lon="3.740062024444342">
        <ele>516.85000000000002</ele>
        <time>2025-04-24T14:40:46Z</time>
      </trkpt>
      <trkpt lat="45.551704997196794" lon="3.740160008892417">
        <ele>517.80999999999995</ele>
        <time>2025-04-24T14:40:47Z</time>
      </trkpt>
      <trkpt lat="45.551636014133692" lon="3.740398976951838">
        <ele>521.16999999999996</ele>
        <time>2025-04-24T14:40:50Z</time>
      </trkpt>
      <trkpt lat="45.551620004698634" lon="3.740467960014939">
        <ele>521.64999999999998</ele>
        <time>2025-04-24T14:40:51Z</time>
      </trkpt>
      <trkpt lat="45.551549009978771" lon="3.740823017433286">
        <ele>522.13</ele>
        <time>2025-04-24T14:40:57Z</time>
      </trkpt>
      <trkpt lat="45.551544986665249" lon="3.740841038525105">
        <ele>522.61000000000001</ele>
        <time>2025-04-24T14:40:58Z</time>
      </trkpt>
      <trkpt lat="45.551554039120674" lon="3.740795021876693">
        <ele>522.61000000000001</ele>
        <time>2025-04-24T14:41:00Z</time>
      </trkpt>
      <trkpt lat="45.551560996100307" lon="3.740763003006578">
        <ele>522.13</ele>
        <time>2025-04-24T14:41:01Z</time>
      </trkpt>
      <trkpt lat="45.55156703107059" lon="3.740730984136462">
        <ele>521.16999999999996</ele>
        <time>2025-04-24T14:41:02Z</time>
      </trkpt>
      <trkpt lat="45.551573988050222" lon="3.740694019943476">
        <ele>520.21000000000004</ele>
        <time>2025-04-24T14:41:03Z</time>
      </trkpt>
      <trkpt lat="45.55161296389997" lon="3.740499978885055">
        <ele>518.28999999999996</ele>
        <time>2025-04-24T14:41:06Z</time>
      </trkpt>
      <trkpt lat="45.55165596306324" lon="3.740308033302426">
        <ele>517.80999999999995</ele>
        <time>2025-04-24T14:41:08Z</time>
      </trkpt>
      <trkpt lat="45.551720000803471" lon="3.740114998072386">
        <ele>517.80999999999995</ele>
        <time>2025-04-24T14:41:10Z</time>
      </trkpt>
      <trkpt lat="45.551743973046541" lon="3.740036962553859">
        <ele>518.28999999999996</ele>
        <time>2025-04-24T14:41:11Z</time>
      </trkpt>
      <trkpt lat="45.551762999966741" lon="3.739974014461041">
        <ele>518.76999999999998</ele>
        <time>2025-04-24T14:41:12Z</time>
      </trkpt>
      <trkpt lat="45.551770040765405" lon="3.739949958398938">
        <ele>519.25</ele>
        <time>2025-04-24T14:41:13Z</time>
      </trkpt>
      <trkpt lat="45.551891997456551" lon="3.739835964515805">
        <ele>520.69000000000005</ele>
        <time>2025-04-24T14:41:17Z</time>
      </trkpt>
      <trkpt lat="45.551895014941692" lon="3.739822972565889">
        <ele>520.69000000000005</ele>
        <time>2025-04-24T14:41:18Z</time>
      </trkpt>
      <trkpt lat="45.551877999678254" lon="3.739703027531505">
        <ele>521.16999999999996</ele>
        <time>2025-04-24T14:41:19Z</time>
      </trkpt>
      <trkpt lat="45.551848998293281" lon="3.739664973691106">
        <ele>521.16999999999996</ele>
        <time>2025-04-24T14:41:20Z</time>
      </trkpt>
      <trkpt lat="45.551762999966741" lon="3.739686012268066">
        <ele>521.64999999999998</ele>
        <time>2025-04-24T14:41:21Z</time>
      </trkpt>
      <trkpt lat="45.551737016066909" lon="3.739675031974912">
        <ele>521.64999999999998</ele>
        <time>2025-04-24T14:41:22Z</time>
      </trkpt>
      <trkpt lat="45.551627967506647" lon="3.7396290153265">
        <ele>522.13</ele>
        <time>2025-04-24T14:41:24Z</time>
      </trkpt>
      <trkpt lat="45.551505004987121" lon="3.739576963707805">
        <ele>522.13</ele>
        <time>2025-04-24T14:41:26Z</time>
      </trkpt>
      <trkpt lat="45.55135496892035" lon="3.739514015614986">
        <ele>522.13</ele>
        <time>2025-04-24T14:41:28Z</time>
      </trkpt>
      <trkpt lat="45.551299983635545" lon="3.739495994523168">
        <ele>522.13</ele>
        <time>2025-04-24T14:41:29Z</time>
      </trkpt>
      <trkpt lat="45.551237035542727" lon="3.739473028108478">
        <ele>522.13</ele>
        <time>2025-04-24T14:41:30Z</time>
      </trkpt>
      <trkpt lat="45.551178026944399" lon="3.739450983703136">
        <ele>522.13</ele>
        <time>2025-04-24T14:41:31Z</time>
      </trkpt>
      <trkpt lat="45.551123963668942" lon="3.739430028945208">
        <ele>522.13</ele>
        <time>2025-04-24T14:41:32Z</time>
      </trkpt>
      <trkpt lat="45.551076019182801" lon="3.739412007853389">
        <ele>522.13</ele>
        <time>2025-04-24T14:41:33Z</time>
      </trkpt>
      <trkpt lat="45.550906034186482" lon="3.739348975941539">
        <ele>524.05999999999995</ele>
        <time>2025-04-24T14:41:41Z</time>
      </trkpt>
      <trkpt lat="45.550868986174464" lon="3.739334978163242">
        <ele>524.53999999999996</ele>
        <time>2025-04-24T14:41:42Z</time>
      </trkpt>
      <trkpt lat="45.550581989809871" lon="3.739171028137207">
        <ele>525.98000000000002</ele>
        <time>2025-04-24T14:41:49Z</time>
      </trkpt>
      <trkpt lat="45.550576960667968" lon="3.739107996225357">
        <ele>525.98000000000002</ele>
        <time>2025-04-24T14:41:50Z</time>
      </trkpt>
      <trkpt lat="45.550572015345097" lon="3.73902996070683">
        <ele>525.98000000000002</ele>
        <time>2025-04-24T14:41:51Z</time>
      </trkpt>
      <trkpt lat="45.550565980374813" lon="3.73894396238029">
        <ele>526.46000000000004</ele>
        <time>2025-04-24T14:41:52Z</time>
      </trkpt>
      <trkpt lat="45.550561035051942" lon="3.738844972103834">
        <ele>526.46000000000004</ele>
        <time>2025-04-24T14:41:53Z</time>
      </trkpt>
      <trkpt lat="45.5505580175668" lon="3.738386984914541">
        <ele>526.46000000000004</ele>
        <time>2025-04-24T14:41:57Z</time>
      </trkpt>
      <trkpt lat="45.55055701173842" lon="3.738265028223395">
        <ele>526.46000000000004</ele>
        <time>2025-04-24T14:41:58Z</time>
      </trkpt>
      <trkpt lat="45.550548965111375" lon="3.7370749656111">
        <ele>527.89999999999998</ele>
        <time>2025-04-24T14:42:09Z</time>
      </trkpt>
      <trkpt lat="45.550539996474981" lon="3.735877024009824">
        <ele>525.01999999999998</ele>
        <time>2025-04-24T14:42:19Z</time>
      </trkpt>
      <trkpt lat="45.550561035051942" lon="3.734331987798214">
        <ele>524.53999999999996</ele>
        <time>2025-04-24T14:42:29Z</time>
      </trkpt>
      <trkpt lat="45.550561035051942" lon="3.732374981045723">
        <ele>525.98000000000002</ele>
        <time>2025-04-24T14:42:41Z</time>
      </trkpt>
      <trkpt lat="45.550561035051942" lon="3.730330970138311">
        <ele>531.26999999999998</ele>
        <time>2025-04-24T14:42:54Z</time>
      </trkpt>
      <trkpt lat="45.550535973161459" lon="3.730253018438816">
        <ele>531.26999999999998</ele>
        <time>2025-04-24T14:42:55Z</time>
      </trkpt>
      <trkpt lat="45.550506971776485" lon="3.730195015668869">
        <ele>531.75</ele>
        <time>2025-04-24T14:42:56Z</time>
      </trkpt>
      <trkpt lat="45.550435977056623" lon="3.730156039819121">
        <ele>531.75</ele>
        <time>2025-04-24T14:42:57Z</time>
      </trkpt>
      <trkpt lat="45.550354002043605" lon="3.73011002317071">
        <ele>531.75</ele>
        <time>2025-04-24T14:42:58Z</time>
      </trkpt>
      <trkpt lat="45.550264986231923" lon="3.730073980987072">
        <ele>532.23000000000002</ele>
        <time>2025-04-24T14:42:59Z</time>
      </trkpt>
      <trkpt lat="45.550067005679011" lon="3.730006003752351">
        <ele>532.71000000000004</ele>
        <time>2025-04-24T14:43:01Z</time>
      </trkpt>
      <trkpt lat="45.549960974603891" lon="3.729968033730984">
        <ele>533.19000000000005</ele>
        <time>2025-04-24T14:43:02Z</time>
      </trkpt>
      <trkpt lat="45.549844969063997" lon="3.729927968233824">
        <ele>533.19000000000005</ele>
        <time>2025-04-24T14:43:03Z</time>
      </trkpt>
      <trkpt lat="45.549603989347816" lon="3.729866025969386">
        <ele>533.66999999999996</ele>
        <time>2025-04-24T14:43:05Z</time>
      </trkpt>
      <trkpt lat="45.549478009343147" lon="3.729838030412793">
        <ele>534.14999999999998</ele>
        <time>2025-04-24T14:43:06Z</time>
      </trkpt>
      <trkpt lat="45.549341971054673" lon="3.729808023199439">
        <ele>534.63</ele>
        <time>2025-04-24T14:43:07Z</time>
      </trkpt>
      <trkpt lat="45.549065032973886" lon="3.729755971580744">
        <ele>535.11000000000001</ele>
        <time>2025-04-24T14:43:09Z</time>
      </trkpt>
      <trkpt lat="45.548927988857031" lon="3.729797964915633">
        <ele>535.11000000000001</ele>
        <time>2025-04-24T14:43:10Z</time>
      </trkpt>
      <trkpt lat="45.548789016902447" lon="3.729839958250523">
        <ele>535.59000000000003</ele>
        <time>2025-04-24T14:43:11Z</time>
      </trkpt>
      <trkpt lat="45.548518029972911" lon="3.729923022910953">
        <ele>536.07000000000005</ele>
        <time>2025-04-24T14:43:13Z</time>
      </trkpt>
      <trkpt lat="45.548392971977592" lon="3.72996099293232">
        <ele>536.54999999999995</ele>
        <time>2025-04-24T14:43:14Z</time>
      </trkpt>
      <trkpt lat="45.548267997801304" lon="3.729970967397094">
        <ele>536.54999999999995</ele>
        <time>2025-04-24T14:43:15Z</time>
      </trkpt>
      <trkpt lat="45.548147968947887" lon="3.729923022910953">
        <ele>536.54999999999995</ele>
        <time>2025-04-24T14:43:16Z</time>
      </trkpt>
      <trkpt lat="45.548039004206657" lon="3.729845993220806">
        <ele>536.54999999999995</ele>
        <time>2025-04-24T14:43:17Z</time>
      </trkpt>
      <trkpt lat="45.547941019758582" lon="3.729748008772731">
        <ele>537.02999999999997</ele>
        <time>2025-04-24T14:43:18Z</time>
      </trkpt>
      <trkpt lat="45.547854015603662" lon="3.72963803820312">
        <ele>537.02999999999997</ele>
        <time>2025-04-24T14:43:19Z</time>
      </trkpt>
      <trkpt lat="45.547859966754913" lon="3.729417007416487">
        <ele>537.50999999999999</ele>
        <time>2025-04-24T14:43:20Z</time>
      </trkpt>
      <trkpt lat="45.547818979248405" lon="3.7292539793998">
        <ele>537.50999999999999</ele>
        <time>2025-04-24T14:43:21Z</time>
      </trkpt>
      <trkpt lat="45.547776985913515" lon="3.729085000231862">
        <ele>537.99000000000001</ele>
        <time>2025-04-24T14:43:22Z</time>
      </trkpt>
      <trkpt lat="45.547734992578626" lon="3.728915015235543">
        <ele>538.48000000000002</ele>
        <time>2025-04-24T14:43:23Z</time>
      </trkpt>
      <trkpt lat="45.547717977315187" lon="3.728710999712348">
        <ele>538.48000000000002</ele>
        <time>2025-04-24T14:43:24Z</time>
      </trkpt>
      <trkpt lat="45.547739015892148" lon="3.728519976139069">
        <ele>538.96000000000004</ele>
        <time>2025-04-24T14:43:25Z</time>
      </trkpt>
      <trkpt lat="45.54778897203505" lon="3.728332975879312">
        <ele>539.44000000000005</ele>
        <time>2025-04-24T14:43:26Z</time>
      </trkpt>
      <trkpt lat="45.547863990068436" lon="3.72815896756947">
        <ele>539.91999999999996</ele>
        <time>2025-04-24T14:43:27Z</time>
      </trkpt>
      <trkpt lat="45.547942025586963" lon="3.727976996451616">
        <ele>540.88</ele>
        <time>2025-04-24T14:43:28Z</time>
      </trkpt>
      <trkpt lat="45.548025006428361" lon="3.727785972878337">
        <ele>541.36000000000001</ele>
        <time>2025-04-24T14:43:29Z</time>
      </trkpt>
      <trkpt lat="45.548591036349535" lon="3.726435983553529">
        <ele>547.61000000000001</ele>
        <time>2025-04-24T14:43:36Z</time>
      </trkpt>
      <trkpt lat="45.548664964735508" lon="3.725974978879094">
        <ele>549.04999999999995</ele>
        <time>2025-04-24T14:43:38Z</time>
      </trkpt>
      <trkpt lat="45.548776024952531" lon="3.724852977320552">
        <ele>553.38</ele>
        <time>2025-04-24T14:43:43Z</time>
      </trkpt>
      <trkpt lat="45.548759009689093" lon="3.724633036181331">
        <ele>554.34000000000003</ele>
        <time>2025-04-24T14:43:44Z</time>
      </trkpt>
      <trkpt lat="45.548709975555539" lon="3.724414017051458">
        <ele>555.29999999999995</ele>
        <time>2025-04-24T14:43:45Z</time>
      </trkpt>
      <trkpt lat="45.54866798222065" lon="3.724192986264825">
        <ele>556.74000000000001</ele>
        <time>2025-04-24T14:43:46Z</time>
      </trkpt>
      <trkpt lat="45.548630012199283" lon="3.723978996276856">
        <ele>557.70000000000005</ele>
        <time>2025-04-24T14:43:47Z</time>
      </trkpt>
      <trkpt lat="45.548555999994278" lon="3.723340965807438">
        <ele>561.07000000000005</ele>
        <time>2025-04-24T14:43:50Z</time>
      </trkpt>
      <trkpt lat="45.548553988337517" lon="3.723121024668217">
        <ele>562.02999999999997</ele>
        <time>2025-04-24T14:43:51Z</time>
      </trkpt>
      <trkpt lat="45.548586007207632" lon="3.72289203107357">
        <ele>563.47000000000003</ele>
        <time>2025-04-24T14:43:52Z</time>
      </trkpt>
      <trkpt lat="45.548793962225318" lon="3.721468029543757">
        <ele>571.15999999999997</ele>
        <time>2025-04-24T14:43:58Z</time>
      </trkpt>
      <trkpt lat="45.548865962773561" lon="3.721242975443602">
        <ele>574.03999999999996</ele>
        <time>2025-04-24T14:44:00Z</time>
      </trkpt>
      <trkpt lat="45.549660986289382" lon="3.71949995867908">
        <ele>584.13999999999999</ele>
        <time>2025-04-24T14:44:07Z</time>
      </trkpt>
      <trkpt lat="45.549791995435953" lon="3.719324022531509">
        <ele>585.10000000000002</ele>
        <time>2025-04-24T14:44:08Z</time>
      </trkpt>
      <trkpt lat="45.550584001466632" lon="3.718223981559277">
        <ele>592.30999999999995</ele>
        <time>2025-04-24T14:44:14Z</time>
      </trkpt>
      <trkpt lat="45.550682991743088" lon="3.718001022934914">
        <ele>593.75</ele>
        <time>2025-04-24T14:44:15Z</time>
      </trkpt>
      <trkpt lat="45.550766978412867" lon="3.717760965228081">
        <ele>595.19000000000005</ele>
        <time>2025-04-24T14:44:16Z</time>
      </trkpt>
      <trkpt lat="45.551032014191151" lon="3.717072978615761">
        <ele>599.51999999999998</ele>
        <time>2025-04-24T14:44:19Z</time>
      </trkpt>
      <trkpt lat="45.551129998639226" lon="3.716857982799411">
        <ele>600.48000000000002</ele>
        <time>2025-04-24T14:44:20Z</time>
      </trkpt>
      <trkpt lat="45.551258996129036" lon="3.71668104082346">
        <ele>601.91999999999996</ele>
        <time>2025-04-24T14:44:21Z</time>
      </trkpt>
      <trkpt lat="45.551394028589129" lon="3.716508038341999">
        <ele>602.88</ele>
        <time>2025-04-24T14:44:22Z</time>
      </trkpt>
      <trkpt lat="45.55152403190732" lon="3.71634098701179">
        <ele>604.33000000000004</ele>
        <time>2025-04-24T14:44:23Z</time>
      </trkpt>
      <trkpt lat="45.551635008305311" lon="3.716178964823484">
        <ele>606.25</ele>
        <time>2025-04-24T14:44:24Z</time>
      </trkpt>
      <trkpt lat="45.551729975268245" lon="3.71601702645421">
        <ele>607.69000000000005</ele>
        <time>2025-04-24T14:44:25Z</time>
      </trkpt>
      <trkpt lat="45.55178496055305" lon="3.715821979567409">
        <ele>609.13</ele>
        <time>2025-04-24T14:44:26Z</time>
      </trkpt>
      <trkpt lat="45.551830977201462" lon="3.715615030378103">
        <ele>610.57000000000005</ele>
        <time>2025-04-24T14:44:27Z</time>
      </trkpt>
      <trkpt lat="45.551850004121661" lon="3.715386036783457">
        <ele>612.5</ele>
        <time>2025-04-24T14:44:28Z</time>
      </trkpt>
      <trkpt lat="45.551888979971409" lon="3.714930983260274">
        <ele>615.86000000000001</ele>
        <time>2025-04-24T14:44:30Z</time>
      </trkpt>
      <trkpt lat="45.551950000226498" lon="3.714741971343756">
        <ele>617.29999999999995</ele>
        <time>2025-04-24T14:44:31Z</time>
      </trkpt>
      <trkpt lat="45.552042033523321" lon="3.714616997167468">
        <ele>618.25999999999999</ele>
        <time>2025-04-24T14:44:32Z</time>
      </trkpt>
      <trkpt lat="45.552145969122648" lon="3.71453502215445">
        <ele>619.23000000000002</ele>
        <time>2025-04-24T14:44:33Z</time>
      </trkpt>
      <trkpt lat="45.552268009632826" lon="3.714503003284335">
        <ele>620.19000000000005</ele>
        <time>2025-04-24T14:44:34Z</time>
      </trkpt>
      <trkpt lat="45.552417039871216" lon="3.714481964707375">
        <ele>621.14999999999998</ele>
        <time>2025-04-24T14:44:35Z</time>
      </trkpt>
      <trkpt lat="45.552719039842486" lon="3.714440977200866">
        <ele>623.54999999999995</ele>
        <time>2025-04-24T14:44:37Z</time>
      </trkpt>
      <trkpt lat="45.552830016240478" lon="3.714375011622906">
        <ele>624.50999999999999</ele>
        <time>2025-04-24T14:44:38Z</time>
      </trkpt>
      <trkpt lat="45.552914002910256" lon="3.714248025789857">
        <ele>625.47000000000003</ele>
        <time>2025-04-24T14:44:39Z</time>
      </trkpt>
      <trkpt lat="45.552961025387049" lon="3.714122967794538">
        <ele>626.44000000000005</ele>
        <time>2025-04-24T14:44:40Z</time>
      </trkpt>
      <trkpt lat="45.552949961274862" lon="3.71397796086967">
        <ele>627.39999999999998</ele>
        <time>2025-04-24T14:44:41Z</time>
      </trkpt>
      <trkpt lat="45.55292003788054" lon="3.713862961158156">
        <ele>627.88</ele>
        <time>2025-04-24T14:44:42Z</time>
      </trkpt>
      <trkpt lat="45.552843008190393" lon="3.71376003138721">
        <ele>628.84000000000003</ele>
        <time>2025-04-24T14:44:43Z</time>
      </trkpt>
      <trkpt lat="45.552739994600415" lon="3.713706973940134">
        <ele>629.79999999999995</ele>
        <time>2025-04-24T14:44:44Z</time>
      </trkpt>
      <trkpt lat="45.55259901098907" lon="3.713715020567179">
        <ele>630.75999999999999</ele>
        <time>2025-04-24T14:44:45Z</time>
      </trkpt>
      <trkpt lat="45.552431037649512" lon="3.713737986981869">
        <ele>631.72000000000003</ele>
        <time>2025-04-24T14:44:46Z</time>
      </trkpt>
      <trkpt lat="45.551506010815501" lon="3.713827002793551">
        <ele>636.04999999999995</ele>
        <time>2025-04-24T14:44:51Z</time>
      </trkpt>
      <trkpt lat="45.551338959485292" lon="3.713778974488378">
        <ele>637.49000000000001</ele>
        <time>2025-04-24T14:44:52Z</time>
      </trkpt>
      <trkpt lat="45.551177021116018" lon="3.71367696672678">
        <ele>639.40999999999997</ele>
        <time>2025-04-24T14:44:53Z</time>
      </trkpt>
      <trkpt lat="45.550415022298694" lon="3.713015969842672">
        <ele>647.10000000000002</ele>
        <time>2025-04-24T14:44:58Z</time>
      </trkpt>
      <trkpt lat="45.550311002880335" lon="3.712863000109792">
        <ele>648.07000000000005</ele>
        <time>2025-04-24T14:44:59Z</time>
      </trkpt>
      <trkpt lat="45.550218969583511" lon="3.712692009285092">
        <ele>649.02999999999997</ele>
        <time>2025-04-24T14:45:00Z</time>
      </trkpt>
      <trkpt lat="45.550179993733764" lon="3.712480030953884">
        <ele>650.47000000000003</ele>
        <time>2025-04-24T14:45:01Z</time>
      </trkpt>
      <trkpt lat="45.550157027319074" lon="3.712249025702477">
        <ele>651.42999999999995</ele>
        <time>2025-04-24T14:45:02Z</time>
      </trkpt>
      <trkpt lat="45.550131965428591" lon="3.712007040157914">
        <ele>652.38999999999999</ele>
        <time>2025-04-24T14:45:03Z</time>
      </trkpt>
      <trkpt lat="45.550009002909064" lon="3.710769033059478">
        <ele>658.63999999999999</ele>
        <time>2025-04-24T14:45:08Z</time>
      </trkpt>
      <trkpt lat="45.549987964332104" lon="3.710558982565999">
        <ele>660.08000000000004</ele>
        <time>2025-04-24T14:45:09Z</time>
      </trkpt>
      <trkpt lat="45.549918981269002" lon="3.710398972034454">
        <ele>661.51999999999998</ele>
        <time>2025-04-24T14:45:10Z</time>
      </trkpt>
      <trkpt lat="45.549834994599223" lon="3.710275003686547">
        <ele>662.49000000000001</ele>
        <time>2025-04-24T14:45:11Z</time>
      </trkpt>
      <trkpt lat="45.54971999488771" lon="3.710189005360007">
        <ele>663.92999999999995</ele>
        <time>2025-04-24T14:45:12Z</time>
      </trkpt>
      <trkpt lat="45.549608012661338" lon="3.710155980661511">
        <ele>664.88999999999999</ele>
        <time>2025-04-24T14:45:13Z</time>
      </trkpt>
      <trkpt lat="45.549470968544483" lon="3.710148017853499">
        <ele>665.85000000000002</ele>
        <time>2025-04-24T14:45:14Z</time>
      </trkpt>
      <trkpt lat="45.549317998811603" lon="3.710137959569693">
        <ele>667.28999999999996</ele>
        <time>2025-04-24T14:45:15Z</time>
      </trkpt>
      <trkpt lat="45.549152959138155" lon="3.710127985104919">
        <ele>668.25</ele>
        <time>2025-04-24T14:45:16Z</time>
      </trkpt>
      <trkpt lat="45.548850959166884" lon="3.71017400175333">
        <ele>671.13999999999999</ele>
        <time>2025-04-24T14:45:18Z</time>
      </trkpt>
      <trkpt lat="45.548707963898778" lon="3.710240973159671">
        <ele>672.58000000000004</ele>
        <time>2025-04-24T14:45:19Z</time>
      </trkpt>
      <trkpt lat="45.548608973622322" lon="3.710343986749649">
        <ele>673.53999999999996</ele>
        <time>2025-04-24T14:45:20Z</time>
      </trkpt>
      <trkpt lat="45.548515012487769" lon="3.710515983402729">
        <ele>674.98000000000002</ele>
        <time>2025-04-24T14:45:21Z</time>
      </trkpt>
      <trkpt lat="45.548415016382933" lon="3.710696026682854">
        <ele>676.41999999999996</ele>
        <time>2025-04-24T14:45:22Z</time>
      </trkpt>
      <trkpt lat="45.548318037763238" lon="3.710872968658805">
        <ele>677.38999999999999</ele>
        <time>2025-04-24T14:45:23Z</time>
      </trkpt>
      <trkpt lat="45.548186022788286" lon="3.710981011390686">
        <ele>678.83000000000004</ele>
        <time>2025-04-24T14:45:24Z</time>
      </trkpt>
      <trkpt lat="45.548062976449728" lon="3.711073966696858">
        <ele>680.26999999999998</ele>
        <time>2025-04-24T14:45:25Z</time>
      </trkpt>
      <trkpt lat="45.547942025586963" lon="3.711091987788677">
        <ele>681.23000000000002</ele>
        <time>2025-04-24T14:45:26Z</time>
      </trkpt>
      <trkpt lat="45.54778897203505" lon="3.711103973910213">
        <ele>682.66999999999996</ele>
        <time>2025-04-24T14:45:27Z</time>
      </trkpt>
      <trkpt lat="45.547625022009015" lon="3.711116965860128">
        <ele>683.63</ele>
        <time>2025-04-24T14:45:28Z</time>
      </trkpt>
      <trkpt lat="45.547482026740909" lon="3.711110008880496">
        <ele>685.08000000000004</ele>
        <time>2025-04-24T14:45:29Z</time>
      </trkpt>
      <trkpt lat="45.547321010380983" lon="3.711029039695859">
        <ele>686.03999999999996</ele>
        <time>2025-04-24T14:45:30Z</time>
      </trkpt>
      <trkpt lat="45.547169968485832" lon="3.710953015834093">
        <ele>687.48000000000002</ele>
        <time>2025-04-24T14:45:31Z</time>
      </trkpt>
      <trkpt lat="45.54703501984477" lon="3.710830975323916">
        <ele>688.44000000000005</ele>
        <time>2025-04-24T14:45:32Z</time>
      </trkpt>
      <trkpt lat="45.546785993501544" lon="3.710604999214411">
        <ele>690.84000000000003</ele>
        <time>2025-04-24T14:45:34Z</time>
      </trkpt>
      <trkpt lat="45.546684991568327" lon="3.710462003946304">
        <ele>691.80999999999995</ele>
        <time>2025-04-24T14:45:35Z</time>
      </trkpt>
      <trkpt lat="45.546612991020083" lon="3.710289001464844">
        <ele>693.25</ele>
        <time>2025-04-24T14:45:36Z</time>
      </trkpt>
      <trkpt lat="45.546572003513575" lon="3.71010803617537">
        <ele>694.21000000000004</ele>
        <time>2025-04-24T14:45:37Z</time>
      </trkpt>
      <trkpt lat="45.546552976593375" lon="3.709904020652175">
        <ele>695.16999999999996</ele>
        <time>2025-04-24T14:45:38Z</time>
      </trkpt>
      <trkpt lat="45.54656102322042" lon="3.709694975987077">
        <ele>696.13</ele>
        <time>2025-04-24T14:45:39Z</time>
      </trkpt>
      <trkpt lat="45.546569991856813" lon="3.709470005705953">
        <ele>697.09000000000003</ele>
        <time>2025-04-24T14:45:40Z</time>
      </trkpt>
      <trkpt lat="45.546579966321588" lon="3.709234977141023">
        <ele>698.04999999999995</ele>
        <time>2025-04-24T14:45:41Z</time>
      </trkpt>
      <trkpt lat="45.546589018777013" lon="3.709000032395124">
        <ele>698.04999999999995</ele>
        <time>2025-04-24T14:45:42Z</time>
      </trkpt>
      <trkpt lat="45.546579966321588" lon="3.708771038800478">
        <ele>698.52999999999997</ele>
        <time>2025-04-24T14:45:43Z</time>
      </trkpt>
      <trkpt lat="45.546546019613743" lon="3.708551013842225">
        <ele>699.5</ele>
        <time>2025-04-24T14:45:44Z</time>
      </trkpt>
      <trkpt lat="45.546488016843796" lon="3.708340963348746">
        <ele>699.98000000000002</ele>
        <time>2025-04-24T14:45:45Z</time>
      </trkpt>
      <trkpt lat="45.546430014073849" lon="3.708135019987822">
        <ele>700.94000000000005</ele>
        <time>2025-04-24T14:45:46Z</time>
      </trkpt>
      <trkpt lat="45.546275032684207" lon="3.707582987844944">
        <ele>703.82000000000005</ele>
        <time>2025-04-24T14:45:49Z</time>
      </trkpt>
      <trkpt lat="45.546198002994061" lon="3.707467988133431">
        <ele>704.29999999999995</ele>
        <time>2025-04-24T14:45:50Z</time>
      </trkpt>
      <trkpt lat="45.546116027981043" lon="3.707359023392201">
        <ele>705.25999999999999</ele>
        <time>2025-04-24T14:45:51Z</time>
      </trkpt>
      <trkpt lat="45.5460250005126" lon="3.707289034500718">
        <ele>705.75</ele>
        <time>2025-04-24T14:45:52Z</time>
      </trkpt>
      <trkpt lat="45.545920981094241" lon="3.707275036722422">
        <ele>706.71000000000004</ele>
        <time>2025-04-24T14:45:53Z</time>
      </trkpt>
      <trkpt lat="45.545819979161024" lon="3.707318035885692">
        <ele>707.19000000000005</ele>
        <time>2025-04-24T14:45:54Z</time>
      </trkpt>
      <trkpt lat="45.545730963349342" lon="3.707414008677006">
        <ele>708.14999999999998</ele>
        <time>2025-04-24T14:45:55Z</time>
      </trkpt>
      <trkpt lat="45.545632978901267" lon="3.707549041137099">
        <ele>708.63</ele>
        <time>2025-04-24T14:45:56Z</time>
      </trkpt>
      <trkpt lat="45.545544968917966" lon="3.707720031961799">
        <ele>709.59000000000003</ele>
        <time>2025-04-24T14:45:57Z</time>
      </trkpt>
      <trkpt lat="45.545450001955032" lon="3.707904014736414">
        <ele>710.54999999999995</ele>
        <time>2025-04-24T14:45:58Z</time>
      </trkpt>
      <trkpt lat="45.545116988942027" lon="3.708358984440565">
        <ele>712.95000000000005</ele>
        <time>2025-04-24T14:46:01Z</time>
      </trkpt>
      <trkpt lat="45.544992014765739" lon="3.708452023565769">
        <ele>713.91999999999996</ele>
        <time>2025-04-24T14:46:02Z</time>
      </trkpt>
      <trkpt lat="45.544837033376098" lon="3.708490999415517">
        <ele>714.88</ele>
        <time>2025-04-24T14:46:03Z</time>
      </trkpt>
      <trkpt lat="45.54467199370265" lon="3.708533998578787">
        <ele>715.36000000000001</ele>
        <time>2025-04-24T14:46:04Z</time>
      </trkpt>
      <trkpt lat="45.544496979564428" lon="3.708578003570437">
        <ele>716.32000000000005</ele>
        <time>2025-04-24T14:46:05Z</time>
      </trkpt>
      <trkpt lat="45.543756019324064" lon="3.708730973303318">
        <ele>720.15999999999997</ele>
        <time>2025-04-24T14:46:10Z</time>
      </trkpt>
      <trkpt lat="45.543672032654285" lon="3.708659978583455">
        <ele>720.64999999999998</ele>
        <time>2025-04-24T14:46:11Z</time>
      </trkpt>
      <trkpt lat="45.543631967157125" lon="3.708551013842225">
        <ele>721.61000000000001</ele>
        <time>2025-04-24T14:46:12Z</time>
      </trkpt>
      <trkpt lat="45.543635990470648" lon="3.708407012745738">
        <ele>722.09000000000003</ele>
        <time>2025-04-24T14:46:13Z</time>
      </trkpt>
      <trkpt lat="45.543714025989175" lon="3.70828497223556">
        <ele>723.04999999999995</ele>
        <time>2025-04-24T14:46:14Z</time>
      </trkpt>
      <trkpt lat="45.54381201043725" lon="3.708263011649251">
        <ele>723.52999999999997</ele>
        <time>2025-04-24T14:46:15Z</time>
      </trkpt>
      <trkpt lat="45.543928015977144" lon="3.708237027749419">
        <ele>724.49000000000001</ele>
        <time>2025-04-24T14:46:16Z</time>
      </trkpt>
      <trkpt lat="45.544059025123715" lon="3.708208026364446">
        <ele>724.97000000000003</ele>
        <time>2025-04-24T14:46:17Z</time>
      </trkpt>
      <trkpt lat="45.544340992346406" lon="3.708144994452596">
        <ele>726.40999999999997</ele>
        <time>2025-04-24T14:46:19Z</time>
      </trkpt>
      <trkpt lat="45.544476024806499" lon="3.70809000916779">
        <ele>727.37</ele>
        <time>2025-04-24T14:46:20Z</time>
      </trkpt>
      <trkpt lat="45.54458599537611" lon="3.707970986142755">
        <ele>727.86000000000001</ele>
        <time>2025-04-24T14:46:21Z</time>
      </trkpt>
      <trkpt lat="45.54469496011734" lon="3.70785397477448">
        <ele>728.34000000000003</ele>
        <time>2025-04-24T14:46:22Z</time>
      </trkpt>
      <trkpt lat="45.544764026999474" lon="3.707672003656626">
        <ele>729.29999999999995</ele>
        <time>2025-04-24T14:46:23Z</time>
      </trkpt>
      <trkpt lat="45.544815994799137" lon="3.707475028932095">
        <ele>729.77999999999997</ele>
        <time>2025-04-24T14:46:24Z</time>
      </trkpt>
      <trkpt lat="45.544832004234195" lon="3.7072519864887">
        <ele>730.74000000000001</ele>
        <time>2025-04-24T14:46:25Z</time>
      </trkpt>
      <trkpt lat="45.544832004234195" lon="3.707017963752151">
        <ele>731.70000000000005</ele>
        <time>2025-04-24T14:46:26Z</time>
      </trkpt>
      <trkpt lat="45.544832004234195" lon="3.706781007349491">
        <ele>732.65999999999997</ele>
        <time>2025-04-24T14:46:27Z</time>
      </trkpt>
      <trkpt lat="45.544882966205478" lon="3.704833975061774">
        <ele>741.78999999999996</ele>
        <time>2025-04-24T14:46:35Z</time>
      </trkpt>
      <trkpt lat="45.54492998868227" lon="3.704590983688831">
        <ele>743.24000000000001</ele>
        <time>2025-04-24T14:46:36Z</time>
      </trkpt>
      <trkpt lat="45.544987991452217" lon="3.70435100980103">
        <ele>745.15999999999997</ele>
        <time>2025-04-24T14:46:37Z</time>
      </trkpt>
      <trkpt lat="45.54576700553298" lon="3.70181699283421">
        <ele>760.05999999999995</ele>
        <time>2025-04-24T14:46:48Z</time>
      </trkpt>
      <trkpt lat="45.546206971630454" lon="3.699584975838661">
        <ele>769.19000000000005</ele>
        <time>2025-04-24T14:46:57Z</time>
      </trkpt>
      <trkpt lat="45.546489022672176" lon="3.698312016204">
        <ele>771.60000000000002</ele>
        <time>2025-04-24T14:47:02Z</time>
      </trkpt>
      <trkpt lat="45.546564962714911" lon="3.698057038709521">
        <ele>772.08000000000004</ele>
        <time>2025-04-24T14:47:03Z</time>
      </trkpt>
      <trkpt lat="45.546664958819747" lon="3.697823015972972">
        <ele>772.55999999999995</ele>
        <time>2025-04-24T14:47:04Z</time>
      </trkpt>
      <trkpt lat="45.546766966581345" lon="3.6975849699229">
        <ele>772.55999999999995</ele>
        <time>2025-04-24T14:47:05Z</time>
      </trkpt>
      <trkpt lat="45.546910967677832" lon="3.697381038218737">
        <ele>773.03999999999996</ele>
        <time>2025-04-24T14:47:06Z</time>
      </trkpt>
      <trkpt lat="45.547062009572983" lon="3.697188002988696">
        <ele>773.51999999999998</ele>
        <time>2025-04-24T14:47:07Z</time>
      </trkpt>
      <trkpt lat="45.547220008447766" lon="3.696983987465501">
        <ele>773.51999999999998</ele>
        <time>2025-04-24T14:47:08Z</time>
      </trkpt>
      <trkpt lat="45.547388987615705" lon="3.696802016347647">
        <ele>774</ele>
        <time>2025-04-24T14:47:09Z</time>
      </trkpt>
      <trkpt lat="45.548534961417317" lon="3.695524027571082">
        <ele>775.91999999999996</ele>
        <time>2025-04-24T14:47:16Z</time>
      </trkpt>
      <trkpt lat="45.54864501580596" lon="3.695304002612829">
        <ele>775.91999999999996</ele>
        <time>2025-04-24T14:47:17Z</time>
      </trkpt>
      <trkpt lat="45.548720033839345" lon="3.695061011239886">
        <ele>776.39999999999998</ele>
        <time>2025-04-24T14:47:18Z</time>
      </trkpt>
      <trkpt lat="45.548781976103783" lon="3.694804022088647">
        <ele>776.39999999999998</ele>
        <time>2025-04-24T14:47:19Z</time>
      </trkpt>
      <trkpt lat="45.548787005245686" lon="3.694514008238912">
        <ele>776.88</ele>
        <time>2025-04-24T14:47:20Z</time>
      </trkpt>
      <trkpt lat="45.548792034387589" lon="3.694214019924402">
        <ele>777.36000000000001</ele>
        <time>2025-04-24T14:47:21Z</time>
      </trkpt>
      <trkpt lat="45.548815000802279" lon="3.693603985011578">
        <ele>778.32000000000005</ele>
        <time>2025-04-24T14:47:23Z</time>
      </trkpt>
      <trkpt lat="45.548882978037" lon="3.693311959505081">
        <ele>778.80999999999995</ele>
        <time>2025-04-24T14:47:24Z</time>
      </trkpt>
      <trkpt lat="45.549563001841307" lon="3.690590020269156">
        <ele>787.46000000000004</ele>
        <time>2025-04-24T14:47:33Z</time>
      </trkpt>
      <trkpt lat="45.549679007381201" lon="3.690346023067832">
        <ele>788.41999999999996</ele>
        <time>2025-04-24T14:47:34Z</time>
      </trkpt>
      <trkpt lat="45.549808004871011" lon="3.690119963139296">
        <ele>789.38</ele>
        <time>2025-04-24T14:47:35Z</time>
      </trkpt>
      <trkpt lat="45.549959968775511" lon="3.689920976758003">
        <ele>790.34000000000003</ele>
        <time>2025-04-24T14:47:36Z</time>
      </trkpt>
      <trkpt lat="45.550121990963817" lon="3.68974001146853">
        <ele>790.82000000000005</ele>
        <time>2025-04-24T14:47:37Z</time>
      </trkpt>
      <trkpt lat="45.550275966525078" lon="3.68956801481545">
        <ele>791.77999999999997</ele>
        <time>2025-04-24T14:47:38Z</time>
      </trkpt>
      <trkpt lat="45.550389038398862" lon="3.689371040090919">
        <ele>792.25999999999999</ele>
        <time>2025-04-24T14:47:39Z</time>
      </trkpt>
      <trkpt lat="45.550482999533415" lon="3.689174987375736">
        <ele>793.22000000000003</ele>
        <time>2025-04-24T14:47:40Z</time>
      </trkpt>
      <trkpt lat="45.550521975383162" lon="3.688937025144696">
        <ele>793.71000000000004</ele>
        <time>2025-04-24T14:47:41Z</time>
      </trkpt>
      <trkpt lat="45.550527004525065" lon="3.688679030165076">
        <ele>794.19000000000005</ele>
        <time>2025-04-24T14:47:42Z</time>
      </trkpt>
      <trkpt lat="45.550503032281995" lon="3.688392033800483">
        <ele>795.14999999999998</ele>
        <time>2025-04-24T14:47:43Z</time>
      </trkpt>
      <trkpt lat="45.550475958734751" lon="3.688083998858929">
        <ele>795.63</ele>
        <time>2025-04-24T14:47:44Z</time>
      </trkpt>
      <trkpt lat="45.550398007035255" lon="3.6869250331074">
        <ele>798.02999999999997</ele>
        <time>2025-04-24T14:47:48Z</time>
      </trkpt>
      <trkpt lat="45.550410998985171" lon="3.686664020642638">
        <ele>798.99000000000001</ele>
        <time>2025-04-24T14:47:49Z</time>
      </trkpt>
      <trkpt lat="45.550470007583499" lon="3.686427986249328">
        <ele>799.47000000000003</ele>
        <time>2025-04-24T14:47:50Z</time>
      </trkpt>
      <trkpt lat="45.550538990646601" lon="3.686193041503429">
        <ele>799.95000000000005</ele>
        <time>2025-04-24T14:47:51Z</time>
      </trkpt>
      <trkpt lat="45.550648039206862" lon="3.685971004888415">
        <ele>800.44000000000005</ele>
        <time>2025-04-24T14:47:52Z</time>
      </trkpt>
      <trkpt lat="45.550761027261615" lon="3.685741005465388">
        <ele>801.39999999999998</ele>
        <time>2025-04-24T14:47:53Z</time>
      </trkpt>
      <trkpt lat="45.550877032801509" lon="3.685503965243697">
        <ele>802.36000000000001</ele>
        <time>2025-04-24T14:47:54Z</time>
      </trkpt>
      <trkpt lat="45.551238963380456" lon="3.684772979468107">
        <ele>806.20000000000005</ele>
        <time>2025-04-24T14:47:57Z</time>
      </trkpt>
      <trkpt lat="45.551425963640213" lon="3.68424198590219">
        <ele>808.13</ele>
        <time>2025-04-24T14:47:59Z</time>
      </trkpt>
      <trkpt lat="45.551500981673598" lon="3.683967981487513">
        <ele>809.57000000000005</ele>
        <time>2025-04-24T14:48:00Z</time>
      </trkpt>
      <trkpt lat="45.551558984443545" lon="3.683690959587693">
        <ele>811.00999999999999</ele>
        <time>2025-04-24T14:48:01Z</time>
      </trkpt>
      <trkpt lat="45.551821002736688" lon="3.682536017149687">
        <ele>816.77999999999997</ele>
        <time>2025-04-24T14:48:06Z</time>
      </trkpt>
      <trkpt lat="45.551886968314648" lon="3.682333007454872">
        <ele>817.74000000000001</ele>
        <time>2025-04-24T14:48:07Z</time>
      </trkpt>
      <trkpt lat="45.552465990185738" lon="3.680964997038245">
        <ele>822.54999999999995</ele>
        <time>2025-04-24T14:48:15Z</time>
      </trkpt>
      <trkpt lat="45.553032020106912" lon="3.67949296720326">
        <ele>824.47000000000003</ele>
        <time>2025-04-24T14:48:21Z</time>
      </trkpt>
      <trkpt lat="45.553093040362" lon="3.679197002202272">
        <ele>824.95000000000005</ele>
        <time>2025-04-24T14:48:22Z</time>
      </trkpt>
      <trkpt lat="45.553125981241465" lon="3.678879998624325">
        <ele>825.90999999999997</ele>
        <time>2025-04-24T14:48:23Z</time>
      </trkpt>
      <trkpt lat="45.553251039236784" lon="3.677703011780977">
        <ele>829.26999999999998</ele>
        <time>2025-04-24T14:48:27Z</time>
      </trkpt>
      <trkpt lat="45.553814973682165" lon="3.675704011693597">
        <ele>833.60000000000002</ele>
        <time>2025-04-24T14:48:35Z</time>
      </trkpt>
      <trkpt lat="45.553950006142259" lon="3.675502007827163">
        <ele>833.60000000000002</ele>
        <time>2025-04-24T14:48:36Z</time>
      </trkpt>
      <trkpt lat="45.554099958389997" lon="3.675311990082264">
        <ele>833.60000000000002</ele>
        <time>2025-04-24T14:48:37Z</time>
      </trkpt>
      <trkpt lat="45.554269021376967" lon="3.675138987600803">
        <ele>834.08000000000004</ele>
        <time>2025-04-24T14:48:38Z</time>
      </trkpt>
      <trkpt lat="45.554445963352919" lon="3.674986017867923">
        <ele>834.08000000000004</ele>
        <time>2025-04-24T14:48:39Z</time>
      </trkpt>
      <trkpt lat="45.554757015779614" lon="3.674645964056253">
        <ele>834.08000000000004</ele>
        <time>2025-04-24T14:48:41Z</time>
      </trkpt>
      <trkpt lat="45.554889030754566" lon="3.674452006816864">
        <ele>834.55999999999995</ele>
        <time>2025-04-24T14:48:42Z</time>
      </trkpt>
      <trkpt lat="45.554978968575597" lon="3.674237011000514">
        <ele>835.03999999999996</ele>
        <time>2025-04-24T14:48:43Z</time>
      </trkpt>
      <trkpt lat="45.555021967738867" lon="3.673988990485668">
        <ele>836</ele>
        <time>2025-04-24T14:48:44Z</time>
      </trkpt>
      <trkpt lat="45.555067984387279" lon="3.673724960535765">
        <ele>836</ele>
        <time>2025-04-24T14:48:45Z</time>
      </trkpt>
      <trkpt lat="45.555033031851053" lon="3.673462020233274">
        <ele>836.48000000000002</ele>
        <time>2025-04-24T14:48:46Z</time>
      </trkpt>
      <trkpt lat="45.554975029081106" lon="3.673189021646977">
        <ele>837.45000000000005</ele>
        <time>2025-04-24T14:48:47Z</time>
      </trkpt>
      <trkpt lat="45.554910991340876" lon="3.672909988090396">
        <ele>838.40999999999997</ele>
        <time>2025-04-24T14:48:48Z</time>
      </trkpt>
      <trkpt lat="45.554788028821349" lon="3.672376982867718">
        <ele>840.33000000000004</ele>
        <time>2025-04-24T14:48:50Z</time>
      </trkpt>
      <trkpt lat="45.554774031043053" lon="3.672112030908465">
        <ele>840.80999999999995</ele>
        <time>2025-04-24T14:48:51Z</time>
      </trkpt>
      <trkpt lat="45.554784005507827" lon="3.671842971816659">
        <ele>841.76999999999998</ele>
        <time>2025-04-24T14:48:52Z</time>
      </trkpt>
      <trkpt lat="45.554828010499477" lon="3.67156402207911">
        <ele>842.25</ele>
        <time>2025-04-24T14:48:53Z</time>
      </trkpt>
      <trkpt lat="45.554895987734199" lon="3.671281971037388">
        <ele>843.21000000000004</ele>
        <time>2025-04-24T14:48:54Z</time>
      </trkpt>
      <trkpt lat="45.555552961304784" lon="3.668529018759728">
        <ele>850.41999999999996</ele>
        <time>2025-04-24T14:49:03Z</time>
      </trkpt>
      <trkpt lat="45.556150004267693" lon="3.667167965322733">
        <ele>855.23000000000002</ele>
        <time>2025-04-24T14:49:08Z</time>
      </trkpt>
      <trkpt lat="45.557176033034921" lon="3.665516981855035">
        <ele>863.88</ele>
        <time>2025-04-24T14:49:15Z</time>
      </trkpt>
      <trkpt lat="45.557330008596182" lon="3.665326964110136">
        <ele>865.32000000000005</ele>
        <time>2025-04-24T14:49:16Z</time>
      </trkpt>
      <trkpt lat="45.557683976367116" lon="3.664999986067414">
        <ele>868.21000000000004</ele>
        <time>2025-04-24T14:49:18Z</time>
      </trkpt>
      <trkpt lat="45.557870976626873" lon="3.664849027991295">
        <ele>870.13</ele>
        <time>2025-04-24T14:49:19Z</time>
      </trkpt>
      <trkpt lat="45.559784984216094" lon="3.663710011169314">
        <ele>884.54999999999995</ele>
        <time>2025-04-24T14:49:29Z</time>
      </trkpt>
      <trkpt lat="45.559957986697555" lon="3.663623007014394">
        <ele>885.50999999999999</ele>
        <time>2025-04-24T14:49:30Z</time>
      </trkpt>
      <trkpt lat="45.560109028592706" lon="3.66348696872592">
        <ele>886.95000000000005</ele>
        <time>2025-04-24T14:49:31Z</time>
      </trkpt>
      <trkpt lat="45.560239031910896" lon="3.663324024528265">
        <ele>887.90999999999997</ele>
        <time>2025-04-24T14:49:32Z</time>
      </trkpt>
      <trkpt lat="45.560366017743945" lon="3.663144987076521">
        <ele>889.36000000000001</ele>
        <time>2025-04-24T14:49:33Z</time>
      </trkpt>
      <trkpt lat="45.560458973050117" lon="3.662925967946649">
        <ele>890.32000000000005</ele>
        <time>2025-04-24T14:49:34Z</time>
      </trkpt>
      <trkpt lat="45.560519993305206" lon="3.662675013765693">
        <ele>891.27999999999997</ele>
        <time>2025-04-24T14:49:35Z</time>
      </trkpt>
      <trkpt lat="45.560567015781999" lon="3.662400003522635">
        <ele>892.24000000000001</ele>
        <time>2025-04-24T14:49:36Z</time>
      </trkpt>
      <trkpt lat="45.560598028823733" lon="3.662105966359377">
        <ele>893.67999999999995</ele>
        <time>2025-04-24T14:49:37Z</time>
      </trkpt>
      <trkpt lat="45.560770025476813" lon="3.660210985690355">
        <ele>899.45000000000005</ele>
        <time>2025-04-24T14:49:43Z</time>
      </trkpt>
      <trkpt lat="45.560755021870136" lon="3.659018995240331">
        <ele>904.74000000000001</ele>
        <time>2025-04-24T14:49:47Z</time>
      </trkpt>
      <trkpt lat="45.5607879627496" lon="3.658768041059375">
        <ele>906.17999999999995</ele>
        <time>2025-04-24T14:49:48Z</time>
      </trkpt>
      <trkpt lat="45.560840014368296" lon="3.658511973917484">
        <ele>907.62</ele>
        <time>2025-04-24T14:49:49Z</time>
      </trkpt>
      <trkpt lat="45.560928024351597" lon="3.65832899697125">
        <ele>909.05999999999995</ele>
        <time>2025-04-24T14:49:50Z</time>
      </trkpt>
      <trkpt lat="45.561051992699504" lon="3.658121963962913">
        <ele>910.50999999999999</ele>
        <time>2025-04-24T14:49:51Z</time>
      </trkpt>
      <trkpt lat="45.561185013502836" lon="3.657901016995311">
        <ele>911.95000000000005</ele>
        <time>2025-04-24T14:49:52Z</time>
      </trkpt>
      <trkpt lat="45.561319962143898" lon="3.657675962895155">
        <ele>913.38999999999999</ele>
        <time>2025-04-24T14:49:53Z</time>
      </trkpt>
      <trkpt lat="45.561653980985284" lon="3.657273966819048">
        <ele>916.26999999999998</ele>
        <time>2025-04-24T14:49:55Z</time>
      </trkpt>
      <trkpt lat="45.561848022043705" lon="3.657109010964632">
        <ele>917.72000000000003</ele>
        <time>2025-04-24T14:49:56Z</time>
      </trkpt>
      <trkpt lat="45.56342700496316" lon="3.656040988862515">
        <ele>928.28999999999996</ele>
        <time>2025-04-24T14:50:04Z</time>
      </trkpt>
      <trkpt lat="45.564147010445595" lon="3.655483005568385">
        <ele>932.13999999999999</ele>
        <time>2025-04-24T14:50:08Z</time>
      </trkpt>
      <trkpt lat="45.564305009320378" lon="3.655325006693602">
        <ele>933.58000000000004</ele>
        <time>2025-04-24T14:50:09Z</time>
      </trkpt>
      <trkpt lat="45.564448004588485" lon="3.655146975070238">
        <ele>934.53999999999996</ele>
        <time>2025-04-24T14:50:10Z</time>
      </trkpt>
      <trkpt lat="45.564571972936392" lon="3.654930973425508">
        <ele>935.98000000000002</ele>
        <time>2025-04-24T14:50:11Z</time>
      </trkpt>
      <trkpt lat="45.564683033153415" lon="3.6546999681741">
        <ele>937.41999999999996</ele>
        <time>2025-04-24T14:50:12Z</time>
      </trkpt>
      <trkpt lat="45.564761990681291" lon="3.65443903952837">
        <ele>938.86000000000001</ele>
        <time>2025-04-24T14:50:13Z</time>
      </trkpt>
      <trkpt lat="45.564817981794477" lon="3.654184984043241">
        <ele>939.83000000000004</ele>
        <time>2025-04-24T14:50:14Z</time>
      </trkpt>
      <trkpt lat="45.564841032028198" lon="3.653908967971802">
        <ele>940.78999999999996</ele>
        <time>2025-04-24T14:50:15Z</time>
      </trkpt>
      <trkpt lat="45.564865004271269" lon="3.653620965778828">
        <ele>941.75</ele>
        <time>2025-04-24T14:50:16Z</time>
      </trkpt>
      <trkpt lat="45.564848994836211" lon="3.653332041576505">
        <ele>942.71000000000004</ele>
        <time>2025-04-24T14:50:17Z</time>
      </trkpt>
      <trkpt lat="45.564807001501322" lon="3.653034986928105">
        <ele>943.66999999999996</ele>
        <time>2025-04-24T14:50:18Z</time>
      </trkpt>
      <trkpt lat="45.564766013994813" lon="3.65274396724999">
        <ele>944.63</ele>
        <time>2025-04-24T14:50:19Z</time>
      </trkpt>
      <trkpt lat="45.564726032316685" lon="3.652459988370538">
        <ele>945.59000000000003</ele>
        <time>2025-04-24T14:50:20Z</time>
      </trkpt>
      <trkpt lat="45.564745981246233" lon="3.652164023369551">
        <ele>946.55999999999995</ele>
        <time>2025-04-24T14:50:21Z</time>
      </trkpt>
      <trkpt lat="45.564770037308335" lon="3.651868980377913">
        <ele>947.03999999999996</ele>
        <time>2025-04-24T14:50:22Z</time>
      </trkpt>
      <trkpt lat="45.564801972359419" lon="3.651569997891784">
        <ele>948</ele>
        <time>2025-04-24T14:50:23Z</time>
      </trkpt>
      <trkpt lat="45.564858969300985" lon="3.651271015405655">
        <ele>948.96000000000004</ele>
        <time>2025-04-24T14:50:24Z</time>
      </trkpt>
      <trkpt lat="45.564938010647893" lon="3.650975972414017">
        <ele>949.44000000000005</ele>
        <time>2025-04-24T14:50:25Z</time>
      </trkpt>
      <trkpt lat="45.565518038347363" lon="3.648549998179078">
        <ele>955.69000000000005</ele>
        <time>2025-04-24T14:50:33Z</time>
      </trkpt>
      <trkpt lat="45.565561037510633" lon="3.648293009027839">
        <ele>956.64999999999998</ele>
        <time>2025-04-24T14:50:34Z</time>
      </trkpt>
      <trkpt lat="45.565729010850191" lon="3.647694038227201">
        <ele>959.52999999999997</ele>
        <time>2025-04-24T14:50:37Z</time>
      </trkpt>
      <trkpt lat="45.565804028883576" lon="3.647526986896992">
        <ele>960.98000000000002</ele>
        <time>2025-04-24T14:50:38Z</time>
      </trkpt>
      <trkpt lat="45.565881980583072" lon="3.647353984415531">
        <ele>961.94000000000005</ele>
        <time>2025-04-24T14:50:39Z</time>
      </trkpt>
      <trkpt lat="45.56600603275001" lon="3.647219035774469">
        <ele>962.89999999999998</ele>
        <time>2025-04-24T14:50:40Z</time>
      </trkpt>
      <trkpt lat="45.566141987219453" lon="3.64707101136446">
        <ele>963.86000000000001</ele>
        <time>2025-04-24T14:50:41Z</time>
      </trkpt>
      <trkpt lat="45.566289005801082" lon="3.646911000832915">
        <ele>964.82000000000005</ele>
        <time>2025-04-24T14:50:42Z</time>
      </trkpt>
      <trkpt lat="45.566442981362343" lon="3.646743027493358">
        <ele>965.29999999999995</ele>
        <time>2025-04-24T14:50:43Z</time>
      </trkpt>
      <trkpt lat="45.567581998184323" lon="3.645324977114797">
        <ele>970.59000000000003</ele>
        <time>2025-04-24T14:50:51Z</time>
      </trkpt>
      <trkpt lat="45.56903600692749" lon="3.643715986981988">
        <ele>976.84000000000003</ele>
        <time>2025-04-24T14:51:00Z</time>
      </trkpt>
      <trkpt lat="45.569168021902442" lon="3.643538961187005">
        <ele>976.84000000000003</ele>
        <time>2025-04-24T14:51:01Z</time>
      </trkpt>
      <trkpt lat="45.569285033270717" lon="3.643331006169319">
        <ele>977.32000000000005</ele>
        <time>2025-04-24T14:51:02Z</time>
      </trkpt>
      <trkpt lat="45.569372959434986" lon="3.643104024231434">
        <ele>976.84000000000003</ele>
        <time>2025-04-24T14:51:03Z</time>
      </trkpt>
      <trkpt lat="45.569454012438655" lon="3.642862038686872">
        <ele>976.84000000000003</ele>
        <time>2025-04-24T14:51:04Z</time>
      </trkpt>
      <trkpt lat="45.569494999945164" lon="3.64260395988822">
        <ele>976.84000000000003</ele>
        <time>2025-04-24T14:51:05Z</time>
      </trkpt>
      <trkpt lat="45.56952903047204" lon="3.642341019585729">
        <ele>976.36000000000001</ele>
        <time>2025-04-24T14:51:06Z</time>
      </trkpt>
      <trkpt lat="45.569500029087067" lon="3.642092999070883">
        <ele>976.36000000000001</ele>
        <time>2025-04-24T14:51:07Z</time>
      </trkpt>
      <trkpt lat="45.569468010216951" lon="3.641835004091263">
        <ele>976.36000000000001</ele>
        <time>2025-04-24T14:51:08Z</time>
      </trkpt>
      <trkpt lat="45.56942299939692" lon="3.64159201271832">
        <ele>976.84000000000003</ele>
        <time>2025-04-24T14:51:09Z</time>
      </trkpt>
      <trkpt lat="45.569327026605606" lon="3.641339968889952">
        <ele>976.84000000000003</ele>
        <time>2025-04-24T14:51:10Z</time>
      </trkpt>
      <trkpt lat="45.569226024672389" lon="3.64107602275908">
        <ele>977.32000000000005</ele>
        <time>2025-04-24T14:51:11Z</time>
      </trkpt>
      <trkpt lat="45.569119993597269" lon="3.640794977545738">
        <ele>977.32000000000005</ele>
        <time>2025-04-24T14:51:12Z</time>
      </trkpt>
      <trkpt lat="45.568352965638041" lon="3.638462964445353">
        <ele>978.27999999999997</ele>
        <time>2025-04-24T14:51:20Z</time>
      </trkpt>
      <trkpt lat="45.567894978448749" lon="3.63680200651288">
        <ele>979.24000000000001</ele>
        <time>2025-04-24T14:51:27Z</time>
      </trkpt>
      <trkpt lat="45.567868994548917" lon="3.636624980717897">
        <ele>979.24000000000001</ele>
        <time>2025-04-24T14:51:28Z</time>
      </trkpt>
      <trkpt lat="45.56785399094224" lon="3.636473016813397">
        <ele>979.24000000000001</ele>
        <time>2025-04-24T14:51:29Z</time>
      </trkpt>
      <trkpt lat="45.56783496402204" lon="3.636281993240118">
        <ele>978.75999999999999</ele>
        <time>2025-04-24T14:51:31Z</time>
      </trkpt>
      <trkpt lat="45.567759023979306" lon="3.636213010177016">
        <ele>978.27999999999997</ele>
        <time>2025-04-24T14:51:32Z</time>
      </trkpt>
      <trkpt lat="45.567699009552598" lon="3.636160036548972">
        <ele>978.27999999999997</ele>
        <time>2025-04-24T14:51:33Z</time>
      </trkpt>
      <trkpt lat="45.567630026489496" lon="3.636098010465503">
        <ele>977.79999999999995</ele>
        <time>2025-04-24T14:51:34Z</time>
      </trkpt>
      <trkpt lat="45.567549979314208" lon="3.636026009917259">
        <ele>977.32000000000005</ele>
        <time>2025-04-24T14:51:35Z</time>
      </trkpt>
      <trkpt lat="45.566983027383685" lon="3.635524017736316">
        <ele>973.95000000000005</ele>
        <time>2025-04-24T14:51:40Z</time>
      </trkpt>
      <trkpt lat="45.566832991316915" lon="3.635454028844833">
        <ele>972.99000000000001</ele>
        <time>2025-04-24T14:51:41Z</time>
      </trkpt>
      <trkpt lat="45.565767986699939" lon="3.634964022785425">
        <ele>969.63</ele>
        <time>2025-04-24T14:51:47Z</time>
      </trkpt>
      <trkpt lat="45.565624991431832" lon="3.634865032508969">
        <ele>969.14999999999998</ele>
        <time>2025-04-24T14:51:48Z</time>
      </trkpt>
      <trkpt lat="45.564180035144091" lon="3.633469026535749">
        <ele>965.77999999999997</ele>
        <time>2025-04-24T14:51:57Z</time>
      </trkpt>
      <trkpt lat="45.564094036817551" lon="3.633284037932754">
        <ele>965.77999999999997</ele>
        <time>2025-04-24T14:51:58Z</time>
      </trkpt>
      <trkpt lat="45.564017007127404" lon="3.633072981610894">
        <ele>965.29999999999995</ele>
        <time>2025-04-24T14:51:59Z</time>
      </trkpt>
      <trkpt lat="45.563444020226598" lon="3.631297023966909">
        <ele>962.89999999999998</ele>
        <time>2025-04-24T14:52:06Z</time>
      </trkpt>
      <trkpt lat="45.562384966760874" lon="3.629042962566018">
        <ele>970.11000000000001</ele>
        <time>2025-04-24T14:52:15Z</time>
      </trkpt>
      <trkpt lat="45.561760012060404" lon="3.626885963603854">
        <ele>985.00999999999999</ele>
        <time>2025-04-24T14:52:23Z</time>
      </trkpt>
      <trkpt lat="45.561179984360933" lon="3.624354964122176">
        <ele>990.29999999999995</ele>
        <time>2025-04-24T14:52:32Z</time>
      </trkpt>
      <trkpt lat="45.561050986871123" lon="3.623832017183304">
        <ele>989.80999999999995</ele>
        <time>2025-04-24T14:52:34Z</time>
      </trkpt>
      <trkpt lat="45.560825010761619" lon="3.623348968103528">
        <ele>990.29999999999995</ele>
        <time>2025-04-24T14:52:36Z</time>
      </trkpt>
      <trkpt lat="45.560706993564963" lon="3.623125003650785">
        <ele>990.29999999999995</ele>
        <time>2025-04-24T14:52:37Z</time>
      </trkpt>
      <trkpt lat="45.560585036873817" lon="3.622897015884519">
        <ele>990.77999999999997</ele>
        <time>2025-04-24T14:52:38Z</time>
      </trkpt>
      <trkpt lat="45.560222016647458" lon="3.622211962938309">
        <ele>991.74000000000001</ele>
        <time>2025-04-24T14:52:41Z</time>
      </trkpt>
      <trkpt lat="45.560125038027763" lon="3.621956985443831">
        <ele>992.22000000000003</ele>
        <time>2025-04-24T14:52:42Z</time>
      </trkpt>
      <trkpt lat="45.55986201390624" lon="3.621190963312984">
        <ele>992.70000000000005</ele>
        <time>2025-04-24T14:52:45Z</time>
      </trkpt>
      <trkpt lat="45.559229012578726" lon="3.619430009275675">
        <ele>994.13999999999999</ele>
        <time>2025-04-24T14:52:53Z</time>
      </trkpt>
      <trkpt lat="45.559127004817128" lon="3.619253989309073">
        <ele>994.62</ele>
        <time>2025-04-24T14:52:54Z</time>
      </trkpt>
      <trkpt lat="45.559013010933995" lon="3.619090961292386">
        <ele>995.10000000000002</ele>
        <time>2025-04-24T14:52:55Z</time>
      </trkpt>
      <trkpt lat="45.558884013444185" lon="3.618961963802576">
        <ele>996.05999999999995</ele>
        <time>2025-04-24T14:52:56Z</time>
      </trkpt>
      <trkpt lat="45.558750992640853" lon="3.618834977969527">
        <ele>996.53999999999996</ele>
        <time>2025-04-24T14:52:57Z</time>
      </trkpt>
      <trkpt lat="45.558623000979424" lon="3.618718972429633">
        <ele>997.01999999999998</ele>
        <time>2025-04-24T14:52:58Z</time>
      </trkpt>
      <trkpt lat="45.558501966297626" lon="3.618610007688403">
        <ele>997.01999999999998</ele>
        <time>2025-04-24T14:52:59Z</time>
      </trkpt>
      <trkpt lat="45.55728399194777" lon="3.617733009159565">
        <ele>998.47000000000003</ele>
        <time>2025-04-24T14:53:08Z</time>
      </trkpt>
      <trkpt lat="45.556228961795568" lon="3.617120962589979">
        <ele>1000.39</ele>
        <time>2025-04-24T14:53:15Z</time>
      </trkpt>
      <trkpt lat="45.556084038689733" lon="3.617102019488812">
        <ele>1000.39</ele>
        <time>2025-04-24T14:53:16Z</time>
      </trkpt>
      <trkpt lat="45.555940037593246" lon="3.617106964811683">
        <ele>1000.87</ele>
        <time>2025-04-24T14:53:17Z</time>
      </trkpt>
      <trkpt lat="45.555794024839997" lon="3.617111993953586">
        <ele>1001.35</ele>
        <time>2025-04-24T14:53:18Z</time>
      </trkpt>
      <trkpt lat="45.55564901791513" lon="3.617117023095489">
        <ele>1001.35</ele>
        <time>2025-04-24T14:53:19Z</time>
      </trkpt>
      <trkpt lat="45.55550099350512" lon="3.61712196841836">
        <ele>1001.83</ele>
        <time>2025-04-24T14:53:20Z</time>
      </trkpt>
      <trkpt lat="45.555351041257381" lon="3.617126997560263">
        <ele>1001.83</ele>
        <time>2025-04-24T14:53:21Z</time>
      </trkpt>
      <trkpt lat="45.55519899353385" lon="3.617133032530546">
        <ele>1001.83</ele>
        <time>2025-04-24T14:53:22Z</time>
      </trkpt>
      <trkpt lat="45.554085960611701" lon="3.617212995886803">
        <ele>1003.75</ele>
        <time>2025-04-24T14:53:29Z</time>
      </trkpt>
      <trkpt lat="45.55393299087882" lon="3.617224982008338">
        <ele>1003.75</ele>
        <time>2025-04-24T14:53:30Z</time>
      </trkpt>
      <trkpt lat="45.553783038631082" lon="3.617237973958254">
        <ele>1004.23</ele>
        <time>2025-04-24T14:53:31Z</time>
      </trkpt>
      <trkpt lat="45.552540002390742" lon="3.617338975891471">
        <ele>1005.6799999999999</ele>
        <time>2025-04-24T14:53:38Z</time>
      </trkpt>
      <trkpt lat="45.550573021173477" lon="3.61748700030148">
        <ele>1007.12</ele>
        <time>2025-04-24T14:53:47Z</time>
      </trkpt>
      <trkpt lat="45.549581022933125" lon="3.617538968101144">
        <ele>1007.12</ele>
        <time>2025-04-24T14:53:53Z</time>
      </trkpt>
      <trkpt lat="45.549486977979541" lon="3.617473002523184">
        <ele>1007.12</ele>
        <time>2025-04-24T14:53:54Z</time>
      </trkpt>
      <trkpt lat="45.549316992983222" lon="3.617355991154909">
        <ele>1006.64</ele>
        <time>2025-04-24T14:53:59Z</time>
      </trkpt>
      <trkpt lat="45.549273993819952" lon="3.617292959243059">
        <ele>1007.12</ele>
        <time>2025-04-24T14:54:01Z</time>
      </trkpt>
      <trkpt lat="45.549258990213275" lon="3.61727099865675">
        <ele>1007.12</ele>
        <time>2025-04-24T14:54:02Z</time>
      </trkpt>
      <trkpt lat="45.549241974949837" lon="3.617247026413679">
        <ele>1007.6</ele>
        <time>2025-04-24T14:54:03Z</time>
      </trkpt>
      <trkpt lat="45.54922697134316" lon="3.617224982008338">
        <ele>1007.6</ele>
        <time>2025-04-24T14:54:04Z</time>
      </trkpt>
      <trkpt lat="45.54922697134316" lon="3.617224982008338">
        <ele>1007.6</ele>
        <time>2025-04-24T14:54:05Z</time>
      </trkpt>
      <trkpt lat="45.549621004611254" lon="3.617157004773617">
        <ele>1042.6900000000001</ele>
        <time>2025-04-24T14:59:47Z</time>
      </trkpt>
      <trkpt lat="45.54931003600359" lon="3.617214001715183">
        <ele>1013.85</ele>
        <time>2025-04-24T15:00:17Z</time>
      </trkpt>
      <trkpt lat="45.549187995493412" lon="3.617168990895152">
        <ele>1018.65</ele>
        <time>2025-04-24T15:00:55Z</time>
      </trkpt>
      <trkpt lat="45.549148013815284" lon="3.617109982296825">
        <ele>1018.17</ele>
        <time>2025-04-24T15:00:56Z</time>
      </trkpt>
      <trkpt lat="45.549077019095421" lon="3.617002023383975">
        <ele>1017.21</ele>
        <time>2025-04-24T15:00:57Z</time>
      </trkpt>
      <trkpt lat="45.548983979970217" lon="3.616765988990665">
        <ele>1015.29</ele>
        <time>2025-04-24T15:00:59Z</time>
      </trkpt>
      <trkpt lat="45.548416022211313" lon="3.615317009389401">
        <ele>1017.21</ele>
        <time>2025-04-24T15:01:08Z</time>
      </trkpt>
      <trkpt lat="45.548241008073092" lon="3.614953989163041">
        <ele>1018.65</ele>
        <time>2025-04-24T15:01:10Z</time>
      </trkpt>
      <trkpt lat="45.548148974776268" lon="3.614772018045187">
        <ele>1019.13</ele>
        <time>2025-04-24T15:01:11Z</time>
      </trkpt>
      <trkpt lat="45.548020983114839" lon="3.614636985585094">
        <ele>1020.1</ele>
        <time>2025-04-24T15:01:12Z</time>
      </trkpt>
      <trkpt lat="45.547888968139887" lon="3.614497007802129">
        <ele>1021.0599999999999</ele>
        <time>2025-04-24T15:01:13Z</time>
      </trkpt>
      <trkpt lat="45.547748990356922" lon="3.614350995048881">
        <ele>1022.02</ele>
        <time>2025-04-24T15:01:14Z</time>
      </trkpt>
      <trkpt lat="45.547590991482139" lon="3.614248987287283">
        <ele>1022.5</ele>
        <time>2025-04-24T15:01:15Z</time>
      </trkpt>
      <trkpt lat="45.545838000252843" lon="3.613235028460622">
        <ele>1032.5899999999999</ele>
        <time>2025-04-24T15:01:26Z</time>
      </trkpt>
      <trkpt lat="45.545678995549679" lon="3.613195968791843">
        <ele>1033.0699999999999</ele>
        <time>2025-04-24T15:01:27Z</time>
      </trkpt>
      <trkpt lat="45.545523008331656" lon="3.613182976841927">
        <ele>1034.52</ele>
        <time>2025-04-24T15:01:28Z</time>
      </trkpt>
      <trkpt lat="45.544731002300978" lon="3.61342404037714">
        <ele>1038.8399999999999</ele>
        <time>2025-04-24T15:01:33Z</time>
      </trkpt>
      <trkpt lat="45.544587001204491" lon="3.613530993461609">
        <ele>1039.8</ele>
        <time>2025-04-24T15:01:34Z</time>
      </trkpt>
      <trkpt lat="45.544440988451242" lon="3.613639958202839">
        <ele>1040.76</ele>
        <time>2025-04-24T15:01:35Z</time>
      </trkpt>
      <trkpt lat="45.543271964415908" lon="3.614330962300301">
        <ele>1049.9000000000001</ele>
        <time>2025-04-24T15:01:43Z</time>
      </trkpt>
      <trkpt lat="45.542962001636624" lon="3.614411009475589">
        <ele>1051.3399999999999</ele>
        <time>2025-04-24T15:01:45Z</time>
      </trkpt>
      <trkpt lat="45.542826969176531" lon="3.614373961463571">
        <ele>1051.8199999999999</ele>
        <time>2025-04-24T15:01:46Z</time>
      </trkpt>
      <trkpt lat="45.542697971686721" lon="3.614324005320668">
        <ele>1052.3</ele>
        <time>2025-04-24T15:01:47Z</time>
      </trkpt>
      <trkpt lat="45.542575009167194" lon="3.614246975630522">
        <ele>1052.78</ele>
        <time>2025-04-24T15:01:48Z</time>
      </trkpt>
      <trkpt lat="45.542461015284061" lon="3.614175980910659">
        <ele>1053.26</ele>
        <time>2025-04-24T15:01:49Z</time>
      </trkpt>
      <trkpt lat="45.542152980342507" lon="3.613984035328031">
        <ele>1055.1800000000001</ele>
        <time>2025-04-24T15:01:53Z</time>
      </trkpt>
      <trkpt lat="45.541414031758904" lon="3.613568963482976">
        <ele>1058.0699999999999</ele>
        <time>2025-04-24T15:02:02Z</time>
      </trkpt>
      <trkpt lat="45.540017019957304" lon="3.613179959356785">
        <ele>1058.55</ele>
        <time>2025-04-24T15:02:11Z</time>
      </trkpt>
      <trkpt lat="45.539854997768998" lon="3.613135032355785">
        <ele>1058.0699999999999</ele>
        <time>2025-04-24T15:02:12Z</time>
      </trkpt>
      <trkpt lat="45.539701022207737" lon="3.613055991008878">
        <ele>1058.0699999999999</ele>
        <time>2025-04-24T15:02:13Z</time>
      </trkpt>
      <trkpt lat="45.539552997797728" lon="3.612949959933758">
        <ele>1058.0699999999999</ele>
        <time>2025-04-24T15:02:14Z</time>
      </trkpt>
      <trkpt lat="45.539406985044479" lon="3.612831020727754">
        <ele>1058.0699999999999</ele>
        <time>2025-04-24T15:02:15Z</time>
      </trkpt>
      <trkpt lat="45.539295002818108" lon="3.612657012417913">
        <ele>1058.0699999999999</ele>
        <time>2025-04-24T15:02:16Z</time>
      </trkpt>
      <trkpt lat="45.539205987006426" lon="3.612455008551478">
        <ele>1058.0699999999999</ele>
        <time>2025-04-24T15:02:17Z</time>
      </trkpt>
      <trkpt lat="45.53912702947855" lon="3.612227020785213">
        <ele>1057.5899999999999</ele>
        <time>2025-04-24T15:02:18Z</time>
      </trkpt>
      <trkpt lat="45.539047988131642" lon="3.612000038847327">
        <ele>1057.1099999999999</ele>
        <time>2025-04-24T15:02:19Z</time>
      </trkpt>
      <trkpt lat="45.538970036432147" lon="3.61177297309041">
        <ele>1056.1500000000001</ele>
        <time>2025-04-24T15:02:20Z</time>
      </trkpt>
      <trkpt lat="45.538271991536021" lon="3.609506003558636">
        <ele>1044.1300000000001</ele>
        <time>2025-04-24T15:02:29Z</time>
      </trkpt>
      <trkpt lat="45.537759019061923" lon="3.608138998970389">
        <ele>1035.96</ele>
        <time>2025-04-24T15:02:35Z</time>
      </trkpt>
      <trkpt lat="45.53764401935041" lon="3.607935989275575">
        <ele>1035</ele>
        <time>2025-04-24T15:02:36Z</time>
      </trkpt>
      <trkpt lat="45.537536982446909" lon="3.607813026756048">
        <ele>1034.04</ele>
        <time>2025-04-24T15:02:37Z</time>
      </trkpt>
      <trkpt lat="45.537401027977467" lon="3.607695009559393">
        <ele>1033.55</ele>
        <time>2025-04-24T15:02:38Z</time>
      </trkpt>
      <trkpt lat="45.53725803270936" lon="3.607586966827512">
        <ele>1032.5899999999999</ele>
        <time>2025-04-24T15:02:39Z</time>
      </trkpt>
      <trkpt lat="45.537103973329067" lon="3.607488982379437">
        <ele>1032.1099999999999</ele>
        <time>2025-04-24T15:02:40Z</time>
      </trkpt>
      <trkpt lat="45.536944968625903" lon="3.607427962124348">
        <ele>1031.1500000000001</ele>
        <time>2025-04-24T15:02:41Z</time>
      </trkpt>
      <trkpt lat="45.536778001114726" lon="3.607392003759742">
        <ele>1030.6700000000001</ele>
        <time>2025-04-24T15:02:42Z</time>
      </trkpt>
      <trkpt lat="45.536609021946788" lon="3.607379011809826">
        <ele>1030.1900000000001</ele>
        <time>2025-04-24T15:02:43Z</time>
      </trkpt>
      <trkpt lat="45.53463701158762" lon="3.607250014320016">
        <ele>1028.75</ele>
        <time>2025-04-24T15:02:54Z</time>
      </trkpt>
      <trkpt lat="45.534483036026359" lon="3.607185976579785">
        <ele>1028.75</ele>
        <time>2025-04-24T15:02:55Z</time>
      </trkpt>
      <trkpt lat="45.534331994131207" lon="3.607115987688303">
        <ele>1028.27</ele>
        <time>2025-04-24T15:02:56Z</time>
      </trkpt>
      <trkpt lat="45.534195033833385" lon="3.606994030997157">
        <ele>1028.27</ele>
        <time>2025-04-24T15:02:57Z</time>
      </trkpt>
      <trkpt lat="45.534056983888149" lon="3.606852041557431">
        <ele>1027.79</ele>
        <time>2025-04-24T15:02:58Z</time>
      </trkpt>
      <trkpt lat="45.533916000276804" lon="3.606707034632564">
        <ele>1027.3099999999999</ele>
        <time>2025-04-24T15:02:59Z</time>
      </trkpt>
      <trkpt lat="45.533773005008698" lon="3.606559010222554">
        <ele>1026.8299999999999</ele>
        <time>2025-04-24T15:03:00Z</time>
      </trkpt>
      <trkpt lat="45.532662989571691" lon="3.605709001421928">
        <ele>1016.73</ele>
        <time>2025-04-24T15:03:07Z</time>
      </trkpt>
      <trkpt lat="45.531002031639218" lon="3.604781962931156">
        <ele>1005.6799999999999</ele>
        <time>2025-04-24T15:03:17Z</time>
      </trkpt>
      <trkpt lat="45.5302569642663" lon="3.603844027966261">
        <ele>1003.75</ele>
        <time>2025-04-24T15:03:23Z</time>
      </trkpt>
      <trkpt lat="45.530154034495354" lon="3.603644035756588">
        <ele>1003.75</ele>
        <time>2025-04-24T15:03:24Z</time>
      </trkpt>
      <trkpt lat="45.529809035360813" lon="3.602752033621073">
        <ele>1002.79</ele>
        <time>2025-04-24T15:03:28Z</time>
      </trkpt>
      <trkpt lat="45.529756983742118" lon="3.602505018934608">
        <ele>1002.79</ele>
        <time>2025-04-24T15:03:29Z</time>
      </trkpt>
      <trkpt lat="45.529647013172507" lon="3.602000009268522">
        <ele>1002.3099999999999</ele>
        <time>2025-04-24T15:03:31Z</time>
      </trkpt>
      <trkpt lat="45.529590016230941" lon="3.601748971268535">
        <ele>1001.83</ele>
        <time>2025-04-24T15:03:32Z</time>
      </trkpt>
      <trkpt lat="45.529480967670679" lon="3.601273968815804">
        <ele>1001.35</ele>
        <time>2025-04-24T15:03:34Z</time>
      </trkpt>
      <trkpt lat="45.529358005151153" lon="3.600858980789781">
        <ele>1000.39</ele>
        <time>2025-04-24T15:03:36Z</time>
      </trkpt>
      <trkpt lat="45.52926697768271" lon="3.600700981914997">
        <ele>999.90999999999997</ele>
        <time>2025-04-24T15:03:37Z</time>
      </trkpt>
      <trkpt lat="45.529147032648325" lon="3.60049000941217">
        <ele>998.95000000000005</ele>
        <time>2025-04-24T15:03:38Z</time>
      </trkpt>
      <trkpt lat="45.529042007401586" lon="3.600388001650572">
        <ele>997.99000000000001</ele>
        <time>2025-04-24T15:03:39Z</time>
      </trkpt>
      <trkpt lat="45.528902029618621" lon="3.600251963362098">
        <ele>997.50999999999999</ele>
        <time>2025-04-24T15:03:40Z</time>
      </trkpt>
      <trkpt lat="45.528314039111137" lon="3.599685011431575">
        <ele>993.17999999999995</ele>
        <time>2025-04-24T15:03:44Z</time>
      </trkpt>
      <trkpt lat="45.528161991387606" lon="3.59959096647799">
        <ele>992.22000000000003</ele>
        <time>2025-04-24T15:03:45Z</time>
      </trkpt>
      <trkpt lat="45.528008015826344" lon="3.599563976749778">
        <ele>991.25999999999999</ele>
        <time>2025-04-24T15:03:46Z</time>
      </trkpt>
      <trkpt lat="45.527844987809658" lon="3.599556013941765">
        <ele>990.29999999999995</ele>
        <time>2025-04-24T15:03:47Z</time>
      </trkpt>
      <trkpt lat="45.527670979499817" lon="3.599584009498358">
        <ele>989.33000000000004</ele>
        <time>2025-04-24T15:03:48Z</time>
      </trkpt>
      <trkpt lat="45.527492025867105" lon="3.599614016711712">
        <ele>988.85000000000002</ele>
        <time>2025-04-24T15:03:49Z</time>
      </trkpt>
      <trkpt lat="45.527322040870786" lon="3.599642012268305">
        <ele>987.88999999999999</ele>
        <time>2025-04-24T15:03:50Z</time>
      </trkpt>
      <trkpt lat="45.527149038389325" lon="3.599604964256287">
        <ele>987.40999999999997</ele>
        <time>2025-04-24T15:03:51Z</time>
      </trkpt>
      <trkpt lat="45.526999002322555" lon="3.59950102865696">
        <ele>986.45000000000005</ele>
        <time>2025-04-24T15:03:52Z</time>
      </trkpt>
      <trkpt lat="45.526872016489506" lon="3.599373959004879">
        <ele>985.97000000000003</ele>
        <time>2025-04-24T15:03:53Z</time>
      </trkpt>
      <trkpt lat="45.526746958494186" lon="3.599183019250631">
        <ele>985.49000000000001</ele>
        <time>2025-04-24T15:03:54Z</time>
      </trkpt>
      <trkpt lat="45.526625001803041" lon="3.598995013162494">
        <ele>985.00999999999999</ele>
        <time>2025-04-24T15:03:55Z</time>
      </trkpt>
      <trkpt lat="45.525730988010764" lon="3.598053976893425">
        <ele>982.12</ele>
        <time>2025-04-24T15:04:01Z</time>
      </trkpt>
      <trkpt lat="45.525263026356697" lon="3.59767897054553">
        <ele>978.75999999999999</ele>
        <time>2025-04-24T15:04:04Z</time>
      </trkpt>
      <trkpt lat="45.525108966976404" lon="3.597648963332176">
        <ele>977.79999999999995</ele>
        <time>2025-04-24T15:04:05Z</time>
      </trkpt>
      <trkpt lat="45.524940993636847" lon="3.597615016624332">
        <ele>976.84000000000003</ele>
        <time>2025-04-24T15:04:06Z</time>
      </trkpt>
      <trkpt lat="45.524794980883598" lon="3.59765600413084">
        <ele>975.38999999999999</ele>
        <time>2025-04-24T15:04:07Z</time>
      </trkpt>
      <trkpt lat="45.524615021422505" lon="3.597706966102123">
        <ele>974.42999999999995</ele>
        <time>2025-04-24T15:04:08Z</time>
      </trkpt>
      <trkpt lat="45.52338195964694" lon="3.597943000495434">
        <ele>967.70000000000005</ele>
        <time>2025-04-24T15:04:14Z</time>
      </trkpt>
      <trkpt lat="45.522060971707106" lon="3.598452033475041">
        <ele>964.34000000000003</ele>
        <time>2025-04-24T15:04:21Z</time>
      </trkpt>
      <trkpt lat="45.521245999261737" lon="3.598712962120771">
        <ele>961.46000000000004</ele>
        <time>2025-04-24T15:04:26Z</time>
      </trkpt>
      <trkpt lat="45.521105015650392" lon="3.598660994321108">
        <ele>960.49000000000001</ele>
        <time>2025-04-24T15:04:27Z</time>
      </trkpt>
      <trkpt lat="45.520955985412002" lon="3.598565021529794">
        <ele>960.00999999999999</ele>
        <time>2025-04-24T15:04:28Z</time>
      </trkpt>
      <trkpt lat="45.519544975832105" lon="3.597130039706826">
        <ele>960.00999999999999</ele>
        <time>2025-04-24T15:04:37Z</time>
      </trkpt>
      <trkpt lat="45.519226966425776" lon="3.596773976460099">
        <ele>960.49000000000001</ele>
        <time>2025-04-24T15:04:39Z</time>
      </trkpt>
      <trkpt lat="45.519096963107586" lon="3.596557974815369">
        <ele>960.49000000000001</ele>
        <time>2025-04-24T15:04:40Z</time>
      </trkpt>
      <trkpt lat="45.518970983102918" lon="3.596337027847767">
        <ele>960.98000000000002</ele>
        <time>2025-04-24T15:04:41Z</time>
      </trkpt>
      <trkpt lat="45.518874004483223" lon="3.596096970140934">
        <ele>961.94000000000005</ele>
        <time>2025-04-24T15:04:42Z</time>
      </trkpt>
      <trkpt lat="45.518778031691909" lon="3.595858002081513">
        <ele>962.89999999999998</ele>
        <time>2025-04-24T15:04:43Z</time>
      </trkpt>
      <trkpt lat="45.518076969310641" lon="3.594280024990439">
        <ele>969.14999999999998</ele>
        <time>2025-04-24T15:04:50Z</time>
      </trkpt>
      <trkpt lat="45.517948977649212" lon="3.594071986153722">
        <ele>970.11000000000001</ele>
        <time>2025-04-24T15:04:51Z</time>
      </trkpt>
      <trkpt lat="45.517796007916331" lon="3.5938969720155">
        <ele>970.59000000000003</ele>
        <time>2025-04-24T15:04:52Z</time>
      </trkpt>
      <trkpt lat="45.517640020698309" lon="3.593733021989465">
        <ele>971.07000000000005</ele>
        <time>2025-04-24T15:04:53Z</time>
      </trkpt>
      <trkpt lat="45.517486967146397" lon="3.59357200562954">
        <ele>972.02999999999997</ele>
        <time>2025-04-24T15:04:54Z</time>
      </trkpt>
      <trkpt lat="45.516811972483993" lon="3.59273599460721">
        <ele>975.38999999999999</ele>
        <time>2025-04-24T15:04:59Z</time>
      </trkpt>
      <trkpt lat="45.516724968329072" lon="3.592529967427254">
        <ele>975.88</ele>
        <time>2025-04-24T15:05:00Z</time>
      </trkpt>
      <trkpt lat="45.516653973609209" lon="3.592316983267665">
        <ele>976.36000000000001</ele>
        <time>2025-04-24T15:05:01Z</time>
      </trkpt>
      <trkpt lat="45.516598988324404" lon="3.592099975794554">
        <ele>976.84000000000003</ele>
        <time>2025-04-24T15:05:02Z</time>
      </trkpt>
      <trkpt lat="45.516551965847611" lon="3.591887997463346">
        <ele>977.79999999999995</ele>
        <time>2025-04-24T15:05:03Z</time>
      </trkpt>
      <trkpt lat="45.516510978341103" lon="3.59168398194015">
        <ele>977.79999999999995</ele>
        <time>2025-04-24T15:05:04Z</time>
      </trkpt>
      <trkpt lat="45.516277039423585" lon="3.590342961251736">
        <ele>977.32000000000005</ele>
        <time>2025-04-24T15:05:12Z</time>
      </trkpt>
      <trkpt lat="45.516209984198213" lon="3.589523965492845">
        <ele>978.27999999999997</ele>
        <time>2025-04-24T15:05:17Z</time>
      </trkpt>
      <trkpt lat="45.516171008348465" lon="3.589375019073486">
        <ele>979.24000000000001</ele>
        <time>2025-04-24T15:05:18Z</time>
      </trkpt>
      <trkpt lat="45.51605299115181" lon="3.588912002742291">
        <ele>982.12</ele>
        <time>2025-04-24T15:05:21Z</time>
      </trkpt>
      <trkpt lat="45.516015021130443" lon="3.588747968897224">
        <ele>983.09000000000003</ele>
        <time>2025-04-24T15:05:22Z</time>
      </trkpt>
      <trkpt lat="45.516018960624933" lon="3.588596004992724">
        <ele>984.04999999999995</ele>
        <time>2025-04-24T15:05:23Z</time>
      </trkpt>
      <trkpt lat="45.516022983938456" lon="3.588467007502914">
        <ele>985.00999999999999</ele>
        <time>2025-04-24T15:05:24Z</time>
      </trkpt>
      <trkpt lat="45.516027007251978" lon="3.588356031104922">
        <ele>985.97000000000003</ele>
        <time>2025-04-24T15:05:25Z</time>
      </trkpt>
      <trkpt lat="45.516029018908739" lon="3.588267015293241">
        <ele>986.92999999999995</ele>
        <time>2025-04-24T15:05:26Z</time>
      </trkpt>
      <trkpt lat="45.5160310305655" lon="3.588195014744997">
        <ele>987.40999999999997</ele>
        <time>2025-04-24T15:05:27Z</time>
      </trkpt>
      <trkpt lat="45.51603396423161" lon="3.588126031681895">
        <ele>988.37</ele>
        <time>2025-04-24T15:05:28Z</time>
      </trkpt>
      <trkpt lat="45.516019966453314" lon="3.588041039183736">
        <ele>989.33000000000004</ele>
        <time>2025-04-24T15:05:29Z</time>
      </trkpt>
      <trkpt lat="45.515962969511747" lon="3.588028969243169">
        <ele>989.80999999999995</ele>
        <time>2025-04-24T15:05:30Z</time>
      </trkpt>
      <trkpt lat="45.515899015590549" lon="3.588013965636492">
        <ele>990.77999999999997</ele>
        <time>2025-04-24T15:05:31Z</time>
      </trkpt>
      <trkpt lat="45.515833972021937" lon="3.588003991171718">
        <ele>991.25999999999999</ele>
        <time>2025-04-24T15:05:32Z</time>
      </trkpt>
      <trkpt lat="45.515757026150823" lon="3.588027963414788">
        <ele>992.22000000000003</ele>
        <time>2025-04-24T15:05:33Z</time>
      </trkpt>
      <trkpt lat="45.515676978975534" lon="3.588053025305271">
        <ele>992.22000000000003</ele>
        <time>2025-04-24T15:05:34Z</time>
      </trkpt>
      <trkpt lat="45.515590980648994" lon="3.588079009205103">
        <ele>992.70000000000005</ele>
        <time>2025-04-24T15:05:35Z</time>
      </trkpt>
      <trkpt lat="45.515500036999583" lon="3.588107004761696">
        <ele>993.17999999999995</ele>
        <time>2025-04-24T15:05:36Z</time>
      </trkpt>
      <trkpt lat="45.51442296244204" lon="3.588340021669865">
        <ele>992.22000000000003</ele>
        <time>2025-04-24T15:05:47Z</time>
      </trkpt>
      <trkpt lat="45.51420503295958" lon="3.588382015004754">
        <ele>991.74000000000001</ele>
        <time>2025-04-24T15:05:49Z</time>
      </trkpt>
      <trkpt lat="45.514094978570938" lon="3.588402969762683">
        <ele>991.25999999999999</ele>
        <time>2025-04-24T15:05:50Z</time>
      </trkpt>
      <trkpt lat="45.512778013944626" lon="3.588598016649485">
        <ele>986.45000000000005</ele>
        <time>2025-04-24T15:06:01Z</time>
      </trkpt>
      <trkpt lat="45.511501030996442" lon="3.588430965319276">
        <ele>990.29999999999995</ele>
        <time>2025-04-24T15:06:09Z</time>
      </trkpt>
      <trkpt lat="45.51132601685822" lon="3.588462984189391">
        <ele>990.77999999999997</ele>
        <time>2025-04-24T15:06:10Z</time>
      </trkpt>
      <trkpt lat="45.511148991063237" lon="3.588525010272861">
        <ele>991.25999999999999</ele>
        <time>2025-04-24T15:06:11Z</time>
      </trkpt>
      <trkpt lat="45.510298982262611" lon="3.588895993307233">
        <ele>994.62</ele>
        <time>2025-04-24T15:06:16Z</time>
      </trkpt>
      <trkpt lat="45.510156992822886" lon="3.588923988863826">
        <ele>995.10000000000002</ele>
        <time>2025-04-24T15:06:17Z</time>
      </trkpt>
      <trkpt lat="45.50999597646296" lon="3.588848970830441">
        <ele>996.05999999999995</ele>
        <time>2025-04-24T15:06:18Z</time>
      </trkpt>
      <trkpt lat="45.509862033650279" lon="3.588786022737622">
        <ele>996.53999999999996</ele>
        <time>2025-04-24T15:06:19Z</time>
      </trkpt>
      <trkpt lat="45.509744016453624" lon="3.588664988055825">
        <ele>996.53999999999996</ele>
        <time>2025-04-24T15:06:20Z</time>
      </trkpt>
      <trkpt lat="45.509647959843278" lon="3.588490979745984">
        <ele>996.53999999999996</ele>
        <time>2025-04-24T15:06:21Z</time>
      </trkpt>
      <trkpt lat="45.509547041729093" lon="3.588296016678214">
        <ele>997.01999999999998</ele>
        <time>2025-04-24T15:06:22Z</time>
      </trkpt>
      <trkpt lat="45.509470012038946" lon="3.588069034740329">
        <ele>997.01999999999998</ele>
        <time>2025-04-24T15:06:23Z</time>
      </trkpt>
      <trkpt lat="45.509003978222609" lon="3.586689038202167">
        <ele>996.53999999999996</ele>
        <time>2025-04-24T15:06:29Z</time>
      </trkpt>
      <trkpt lat="45.508886966854334" lon="3.586531961336732">
        <ele>996.05999999999995</ele>
        <time>2025-04-24T15:06:30Z</time>
      </trkpt>
      <trkpt lat="45.50874900072813" lon="3.586402963846922">
        <ele>995.10000000000002</ele>
        <time>2025-04-24T15:06:31Z</time>
      </trkpt>
      <trkpt lat="45.508594019338489" lon="3.586296010762453">
        <ele>994.62</ele>
        <time>2025-04-24T15:06:32Z</time>
      </trkpt>
      <trkpt lat="45.508440965786576" lon="3.586188973858953">
        <ele>993.65999999999997</ele>
        <time>2025-04-24T15:06:33Z</time>
      </trkpt>
      <trkpt lat="45.508143994957209" lon="3.585894014686346">
        <ele>992.22000000000003</ele>
        <time>2025-04-24T15:06:35Z</time>
      </trkpt>
      <trkpt lat="45.508000999689102" lon="3.585727969184518">
        <ele>991.74000000000001</ele>
        <time>2025-04-24T15:06:36Z</time>
      </trkpt>
      <trkpt lat="45.507708974182606" lon="3.585423035547137">
        <ele>990.29999999999995</ele>
        <time>2025-04-24T15:06:38Z</time>
      </trkpt>
      <trkpt lat="45.507547035813332" lon="3.585296971723437">
        <ele>989.33000000000004</ele>
        <time>2025-04-24T15:06:39Z</time>
      </trkpt>
      <trkpt lat="45.507378978654742" lon="3.585175015032291">
        <ele>988.85000000000002</ele>
        <time>2025-04-24T15:06:40Z</time>
      </trkpt>
      <trkpt lat="45.506051033735275" lon="3.584489962086082">
        <ele>981.63999999999999</ele>
        <time>2025-04-24T15:06:47Z</time>
      </trkpt>
      <trkpt lat="45.505862021818757" lon="3.584466995671392">
        <ele>980.67999999999995</ele>
        <time>2025-04-24T15:06:48Z</time>
      </trkpt>
      <trkpt lat="45.504743037745357" lon="3.584402035921812">
        <ele>978.27999999999997</ele>
        <time>2025-04-24T15:06:54Z</time>
      </trkpt>
      <trkpt lat="45.50457900390029" lon="3.58444101177156">
        <ele>978.75999999999999</ele>
        <time>2025-04-24T15:06:55Z</time>
      </trkpt>
      <trkpt lat="45.5044299736619" lon="3.584503037855029">
        <ele>979.24000000000001</ele>
        <time>2025-04-24T15:06:56Z</time>
      </trkpt>
      <trkpt lat="45.504306005313993" lon="3.58463597483933">
        <ele>979.72000000000003</ele>
        <time>2025-04-24T15:06:57Z</time>
      </trkpt>
      <trkpt lat="45.504197040572762" lon="3.584805959835649">
        <ele>980.67999999999995</ele>
        <time>2025-04-24T15:06:58Z</time>
      </trkpt>
      <trkpt lat="45.504114981740713" lon="3.585006035864353">
        <ele>981.63999999999999</ele>
        <time>2025-04-24T15:06:59Z</time>
      </trkpt>
      <trkpt lat="45.504035018384457" lon="3.585233017802239">
        <ele>982.12</ele>
        <time>2025-04-24T15:07:00Z</time>
      </trkpt>
      <trkpt lat="45.503984978422523" lon="3.585476009175181">
        <ele>983.09000000000003</ele>
        <time>2025-04-24T15:07:01Z</time>
      </trkpt>
      <trkpt lat="45.503960000351071" lon="3.585736015811563">
        <ele>984.04999999999995</ele>
        <time>2025-04-24T15:07:02Z</time>
      </trkpt>
      <trkpt lat="45.503975003957748" lon="3.586014965549111">
        <ele>985.49000000000001</ele>
        <time>2025-04-24T15:07:03Z</time>
      </trkpt>
      <trkpt lat="45.503990007564425" lon="3.586301039904356">
        <ele>985.97000000000003</ele>
        <time>2025-04-24T15:07:04Z</time>
      </trkpt>
      <trkpt lat="45.504040969535708" lon="3.587700985372067">
        <ele>991.74000000000001</ele>
        <time>2025-04-24T15:07:09Z</time>
      </trkpt>
      <trkpt lat="45.50402001477778" lon="3.587942970916629">
        <ele>993.17999999999995</ele>
        <time>2025-04-24T15:07:10Z</time>
      </trkpt>
      <trkpt lat="45.503998976200819" lon="3.588191997259855">
        <ele>994.13999999999999</ele>
        <time>2025-04-24T15:07:11Z</time>
      </trkpt>
      <trkpt lat="45.503915995359421" lon="3.588405987247825">
        <ele>995.10000000000002</ele>
        <time>2025-04-24T15:07:12Z</time>
      </trkpt>
      <trkpt lat="45.503833014518023" lon="3.588602039963007">
        <ele>996.05999999999995</ele>
        <time>2025-04-24T15:07:13Z</time>
      </trkpt>
      <trkpt lat="45.503722038120031" lon="3.588754003867507">
        <ele>996.53999999999996</ele>
        <time>2025-04-24T15:07:14Z</time>
      </trkpt>
      <trkpt lat="45.503604020923376" lon="3.588852994143963">
        <ele>997.01999999999998</ele>
        <time>2025-04-24T15:07:15Z</time>
      </trkpt>
      <trkpt lat="45.503457002341747" lon="3.588927006348968">
        <ele>997.50999999999999</ele>
        <time>2025-04-24T15:07:16Z</time>
      </trkpt>
      <trkpt lat="45.503299003466964" lon="3.589005963876844">
        <ele>998.47000000000003</ele>
        <time>2025-04-24T15:07:17Z</time>
      </trkpt>
      <trkpt lat="45.503134969621897" lon="3.588980985805392">
        <ele>999.42999999999995</ele>
        <time>2025-04-24T15:07:18Z</time>
      </trkpt>
      <trkpt lat="45.502956015989184" lon="3.588947039097548">
        <ele>1000.39</ele>
        <time>2025-04-24T15:07:19Z</time>
      </trkpt>
      <trkpt lat="45.502784019336104" lon="3.588889958336949">
        <ele>1000.87</ele>
        <time>2025-04-24T15:07:20Z</time>
      </trkpt>
      <trkpt lat="45.502612022683024" lon="3.588785016909242">
        <ele>1001.35</ele>
        <time>2025-04-24T15:07:21Z</time>
      </trkpt>
      <trkpt lat="45.502438014373183" lon="3.588676974177361">
        <ele>1002.3099999999999</ele>
        <time>2025-04-24T15:07:22Z</time>
      </trkpt>
      <trkpt lat="45.502264006063342" lon="3.588563986122608">
        <ele>1002.79</ele>
        <time>2025-04-24T15:07:23Z</time>
      </trkpt>
      <trkpt lat="45.501797972247005" lon="3.588047996163368">
        <ele>1006.16</ele>
        <time>2025-04-24T15:07:26Z</time>
      </trkpt>
      <trkpt lat="45.501665035262704" lon="3.587853033095598">
        <ele>1007.12</ele>
        <time>2025-04-24T15:07:27Z</time>
      </trkpt>
      <trkpt lat="45.501569984480739" lon="3.587611969560385">
        <ele>1008.08</ele>
        <time>2025-04-24T15:07:28Z</time>
      </trkpt>
      <trkpt lat="45.501390025019646" lon="3.587136967107654">
        <ele>1010</ele>
        <time>2025-04-24T15:07:30Z</time>
      </trkpt>
      <trkpt lat="45.501331016421318" lon="3.586884001269937">
        <ele>1010.96</ele>
        <time>2025-04-24T15:07:31Z</time>
      </trkpt>
      <trkpt lat="45.501275025308132" lon="3.586644027382135">
        <ele>1011.9299999999999</ele>
        <time>2025-04-24T15:07:32Z</time>
      </trkpt>
      <trkpt lat="45.501188021153212" lon="3.586441017687321">
        <ele>1012.89</ele>
        <time>2025-04-24T15:07:33Z</time>
      </trkpt>
      <trkpt lat="45.50107897259295" lon="3.586266003549099">
        <ele>1013.85</ele>
        <time>2025-04-24T15:07:34Z</time>
      </trkpt>
      <trkpt lat="45.50095098093152" lon="3.586120996624231">
        <ele>1014.8099999999999</ele>
        <time>2025-04-24T15:07:35Z</time>
      </trkpt>
      <trkpt lat="45.500801028683782" lon="3.585984958335757">
        <ele>1016.25</ele>
        <time>2025-04-24T15:07:36Z</time>
      </trkpt>
      <trkpt lat="45.500642023980618" lon="3.585897032171488">
        <ele>1017.6900000000001</ele>
        <time>2025-04-24T15:07:37Z</time>
      </trkpt>
      <trkpt lat="45.500467009842396" lon="3.585798963904381">
        <ele>1019.13</ele>
        <time>2025-04-24T15:07:38Z</time>
      </trkpt>
      <trkpt lat="45.499603003263474" lon="3.585285991430283">
        <ele>1024.4200000000001</ele>
        <time>2025-04-24T15:07:43Z</time>
      </trkpt>
      <trkpt lat="45.499478029087186" lon="3.5851089656353">
        <ele>1025.3800000000001</ele>
        <time>2025-04-24T15:07:44Z</time>
      </trkpt>
      <trkpt lat="45.499349031597376" lon="3.584926994517446">
        <ele>1026.3399999999999</ele>
        <time>2025-04-24T15:07:45Z</time>
      </trkpt>
      <trkpt lat="45.499219028279185" lon="3.584745023399591">
        <ele>1027.79</ele>
        <time>2025-04-24T15:07:46Z</time>
      </trkpt>
      <trkpt lat="45.499067986384034" lon="3.584595993161202">
        <ele>1028.75</ele>
        <time>2025-04-24T15:07:47Z</time>
      </trkpt>
      <trkpt lat="45.498906970024109" lon="3.584471018984914">
        <ele>1029.71</ele>
        <time>2025-04-24T15:07:48Z</time>
      </trkpt>
      <trkpt lat="45.498740002512932" lon="3.584362976253033">
        <ele>1030.6700000000001</ele>
        <time>2025-04-24T15:07:49Z</time>
      </trkpt>
      <trkpt lat="45.498565994203091" lon="3.58431302011013">
        <ele>1031.6300000000001</ele>
        <time>2025-04-24T15:07:50Z</time>
      </trkpt>
      <trkpt lat="45.49839198589325" lon="3.584296004846692">
        <ele>1032.5899999999999</ele>
        <time>2025-04-24T15:07:51Z</time>
      </trkpt>
      <trkpt lat="45.498216971755028" lon="3.584306985139847">
        <ele>1033.55</ele>
        <time>2025-04-24T15:07:52Z</time>
      </trkpt>
      <trkpt lat="45.498044975101948" lon="3.584374040365219">
        <ele>1034.52</ele>
        <time>2025-04-24T15:07:53Z</time>
      </trkpt>
      <trkpt lat="45.497869960963726" lon="3.584469007328153">
        <ele>1035</ele>
        <time>2025-04-24T15:07:54Z</time>
      </trkpt>
      <trkpt lat="45.497690001502633" lon="3.584565985947847">
        <ele>1035.48</ele>
        <time>2025-04-24T15:07:55Z</time>
      </trkpt>
      <trkpt lat="45.496430033817887" lon="3.585146013647318">
        <ele>1041.73</ele>
        <time>2025-04-24T15:08:02Z</time>
      </trkpt>
      <trkpt lat="45.496316039934754" lon="3.585191024467349">
        <ele>1042.6900000000001</ele>
        <time>2025-04-24T15:08:03Z</time>
      </trkpt>
      <trkpt lat="45.49615896306932" lon="3.585348017513752">
        <ele>1043.1700000000001</ele>
        <time>2025-04-24T15:08:04Z</time>
      </trkpt>
      <trkpt lat="45.496047986671329" lon="3.585480032488704">
        <ele>1044.1300000000001</ele>
        <time>2025-04-24T15:08:05Z</time>
      </trkpt>
      <trkpt lat="45.495932986959815" lon="3.585670972242951">
        <ele>1044.6099999999999</ele>
        <time>2025-04-24T15:08:06Z</time>
      </trkpt>
      <trkpt lat="45.495812958106399" lon="3.585869036614895">
        <ele>1045.5699999999999</ele>
        <time>2025-04-24T15:08:07Z</time>
      </trkpt>
      <trkpt lat="45.495055988430977" lon="3.587097991257906">
        <ele>1048.45</ele>
        <time>2025-04-24T15:08:13Z</time>
      </trkpt>
      <trkpt lat="45.494809979572892" lon="3.587490012869239">
        <ele>1048.9400000000001</ele>
        <time>2025-04-24T15:08:15Z</time>
      </trkpt>
      <trkpt lat="45.494687017053366" lon="3.587648011744022">
        <ele>1048.9400000000001</ele>
        <time>2025-04-24T15:08:16Z</time>
      </trkpt>
      <trkpt lat="45.494565982371569" lon="3.587785977870226">
        <ele>1048.9400000000001</ele>
        <time>2025-04-24T15:08:17Z</time>
      </trkpt>
      <trkpt lat="45.494443019852042" lon="3.587926039472222">
        <ele>1048.9400000000001</ele>
        <time>2025-04-24T15:08:18Z</time>
      </trkpt>
      <trkpt lat="45.494320979341865" lon="3.588066017255187">
        <ele>1048.45</ele>
        <time>2025-04-24T15:08:19Z</time>
      </trkpt>
      <trkpt lat="45.4941810015589" lon="3.588197026401758">
        <ele>1048.45</ele>
        <time>2025-04-24T15:08:20Z</time>
      </trkpt>
      <trkpt lat="45.494040017947555" lon="3.588328035548329">
        <ele>1047.49</ele>
        <time>2025-04-24T15:08:21Z</time>
      </trkpt>
      <trkpt lat="45.493882019072771" lon="3.588406993076205">
        <ele>1047.01</ele>
        <time>2025-04-24T15:08:22Z</time>
      </trkpt>
      <trkpt lat="45.493707004934549" lon="3.588466001674533">
        <ele>1046.53</ele>
        <time>2025-04-24T15:08:23Z</time>
      </trkpt>
      <trkpt lat="45.493527967482805" lon="3.588527021929622">
        <ele>1046.05</ele>
        <time>2025-04-24T15:08:24Z</time>
      </trkpt>
      <trkpt lat="45.493339961394668" lon="3.588590975850821">
        <ele>1045.5699999999999</ele>
        <time>2025-04-24T15:08:25Z</time>
      </trkpt>
      <trkpt lat="45.493150027468801" lon="3.588656019419432">
        <ele>1045.0899999999999</ele>
        <time>2025-04-24T15:08:26Z</time>
      </trkpt>
      <trkpt lat="45.491887964308262" lon="3.589028008282185">
        <ele>1042.6900000000001</ele>
        <time>2025-04-24T15:08:33Z</time>
      </trkpt>
      <trkpt lat="45.491527039557695" lon="3.589064972475171">
        <ele>1042.21</ele>
        <time>2025-04-24T15:08:35Z</time>
      </trkpt>
      <trkpt lat="45.491356970742345" lon="3.589047035202384">
        <ele>1041.73</ele>
        <time>2025-04-24T15:08:36Z</time>
      </trkpt>
      <trkpt lat="45.491201989352703" lon="3.589028008282185">
        <ele>1041.25</ele>
        <time>2025-04-24T15:08:37Z</time>
      </trkpt>
      <trkpt lat="45.491081038489938" lon="3.588966988027096">
        <ele>1041.25</ele>
        <time>2025-04-24T15:08:38Z</time>
      </trkpt>
      <trkpt lat="45.490937037393451" lon="3.588800020515919">
        <ele>1040.76</ele>
        <time>2025-04-24T15:08:39Z</time>
      </trkpt>
      <trkpt lat="45.490805022418499" lon="3.588646966964006">
        <ele>1040.28</ele>
        <time>2025-04-24T15:08:40Z</time>
      </trkpt>
      <trkpt lat="45.490667978301644" lon="3.588487962260842">
        <ele>1039.8</ele>
        <time>2025-04-24T15:08:41Z</time>
      </trkpt>
      <trkpt lat="45.489929029718041" lon="3.587626973167062">
        <ele>1038.3599999999999</ele>
        <time>2025-04-24T15:08:46Z</time>
      </trkpt>
      <trkpt lat="45.489778993651271" lon="3.587452964857221">
        <ele>1037.8800000000001</ele>
        <time>2025-04-24T15:08:47Z</time>
      </trkpt>
      <trkpt lat="45.488231023773551" lon="3.585937013849616">
        <ele>1032.1099999999999</ele>
        <time>2025-04-24T15:08:56Z</time>
      </trkpt>
      <trkpt lat="45.487492997199297" lon="3.585470980033279">
        <ele>1031.6300000000001</ele>
        <time>2025-04-24T15:09:00Z</time>
      </trkpt>
      <trkpt lat="45.487328041344881" lon="3.585337959229946">
        <ele>1031.1500000000001</ele>
        <time>2025-04-24T15:09:01Z</time>
      </trkpt>
      <trkpt lat="45.487174987792969" lon="3.58517300337553">
        <ele>1031.1500000000001</ele>
        <time>2025-04-24T15:09:02Z</time>
      </trkpt>
      <trkpt lat="45.487046996131539" lon="3.584975022822619">
        <ele>1030.6700000000001</ele>
        <time>2025-04-24T15:09:03Z</time>
      </trkpt>
      <trkpt lat="45.486925961449742" lon="3.584761032834649">
        <ele>1030.1900000000001</ele>
        <time>2025-04-24T15:09:04Z</time>
      </trkpt>
      <trkpt lat="45.486813979223371" lon="3.584517035633326">
        <ele>1029.71</ele>
        <time>2025-04-24T15:09:05Z</time>
      </trkpt>
      <trkpt lat="45.486723035573959" lon="3.584254011511803">
        <ele>1029.23</ele>
        <time>2025-04-24T15:09:06Z</time>
      </trkpt>
      <trkpt lat="45.486568976193666" lon="3.583704996854067">
        <ele>1028.75</ele>
        <time>2025-04-24T15:09:08Z</time>
      </trkpt>
      <trkpt lat="45.486502004787326" lon="3.58340903185308">
        <ele>1028.27</ele>
        <time>2025-04-24T15:09:09Z</time>
      </trkpt>
      <trkpt lat="45.486436961218715" lon="3.583123963326216">
        <ele>1027.79</ele>
        <time>2025-04-24T15:09:10Z</time>
      </trkpt>
      <trkpt lat="45.486376024782658" lon="3.582858005538583">
        <ele>1027.79</ele>
        <time>2025-04-24T15:09:11Z</time>
      </trkpt>
      <trkpt lat="45.48629698343575" lon="3.582633035257459">
        <ele>1027.3099999999999</ele>
        <time>2025-04-24T15:09:12Z</time>
      </trkpt>
      <trkpt lat="45.486208973452449" lon="3.582421978935599">
        <ele>1026.8299999999999</ele>
        <time>2025-04-24T15:09:13Z</time>
      </trkpt>
      <trkpt lat="45.486076958477497" lon="3.58222802169621">
        <ele>1026.3399999999999</ele>
        <time>2025-04-24T15:09:14Z</time>
      </trkpt>
      <trkpt lat="45.485931029543281" lon="3.582015037536621">
        <ele>1026.3399999999999</ele>
        <time>2025-04-24T15:09:15Z</time>
      </trkpt>
      <trkpt lat="45.485789040103555" lon="3.581882016733289">
        <ele>1025.8599999999999</ele>
        <time>2025-04-24T15:09:16Z</time>
      </trkpt>
      <trkpt lat="45.485616037622094" lon="3.581718988716602">
        <ele>1025.3800000000001</ele>
        <time>2025-04-24T15:09:17Z</time>
      </trkpt>
      <trkpt lat="45.485431971028447" lon="3.581572975963354">
        <ele>1024.9000000000001</ele>
        <time>2025-04-24T15:09:18Z</time>
      </trkpt>
      <trkpt lat="45.483919959515333" lon="3.580443011596799">
        <ele>1022.02</ele>
        <time>2025-04-24T15:09:26Z</time>
      </trkpt>
      <trkpt lat="45.482732998207211" lon="3.579374989494681">
        <ele>1026.8299999999999</ele>
        <time>2025-04-24T15:09:33Z</time>
      </trkpt>
      <trkpt lat="45.48176203854382" lon="3.578028017655015">
        <ele>1036.9200000000001</ele>
        <time>2025-04-24T15:09:40Z</time>
      </trkpt>
      <trkpt lat="45.480592008680105" lon="3.57614804059267">
        <ele>1046.05</ele>
        <time>2025-04-24T15:09:48Z</time>
      </trkpt>
      <trkpt lat="45.479548964649439" lon="3.574446011334658">
        <ele>1053.26</ele>
        <time>2025-04-24T15:09:55Z</time>
      </trkpt>
      <trkpt lat="45.478686969727278" lon="3.572930982336402">
        <ele>1059.03</ele>
        <time>2025-04-24T15:10:01Z</time>
      </trkpt>
      <trkpt lat="45.478526959195733" lon="3.572721015661955">
        <ele>1059.99</ele>
        <time>2025-04-24T15:10:02Z</time>
      </trkpt>
      <trkpt lat="45.477257017046213" lon="3.570825029164553">
        <ele>1068.6400000000001</ele>
        <time>2025-04-24T15:10:11Z</time>
      </trkpt>
      <trkpt lat="45.476514967158437" lon="3.569019986316562">
        <ele>1072.97</ele>
        <time>2025-04-24T15:10:18Z</time>
      </trkpt>
      <trkpt lat="45.476182959973812" lon="3.567241011187434">
        <ele>1076.8099999999999</ele>
        <time>2025-04-24T15:10:24Z</time>
      </trkpt>
      <trkpt lat="45.475913984701037" lon="3.56514897197485">
        <ele>1081.1400000000001</ele>
        <time>2025-04-24T15:10:31Z</time>
      </trkpt>
      <trkpt lat="45.47585497610271" lon="3.564873961731792">
        <ele>1081.6199999999999</ele>
        <time>2025-04-24T15:10:32Z</time>
      </trkpt>
      <trkpt lat="45.475760009139776" lon="3.564641028642654">
        <ele>1082.0999999999999</ele>
        <time>2025-04-24T15:10:33Z</time>
      </trkpt>
      <trkpt lat="45.475447028875351" lon="3.564016995951533">
        <ele>1083.54</ele>
        <time>2025-04-24T15:10:36Z</time>
      </trkpt>
      <trkpt lat="45.475299004465342" lon="3.563850028440356">
        <ele>1084.02</ele>
        <time>2025-04-24T15:10:37Z</time>
      </trkpt>
      <trkpt lat="45.475146034732461" lon="3.563678031787276">
        <ele>1084.02</ele>
        <time>2025-04-24T15:10:38Z</time>
      </trkpt>
      <trkpt lat="45.474984012544155" lon="3.56355800293386">
        <ele>1084.5</ele>
        <time>2025-04-24T15:10:39Z</time>
      </trkpt>
      <trkpt lat="45.474814027547836" lon="3.563435040414333">
        <ele>1084.99</ele>
        <time>2025-04-24T15:10:40Z</time>
      </trkpt>
      <trkpt lat="45.474637001752853" lon="3.563355999067426">
        <ele>1084.99</ele>
        <time>2025-04-24T15:10:41Z</time>
      </trkpt>
      <trkpt lat="45.4744360037148" lon="3.563295984640718">
        <ele>1084.99</ele>
        <time>2025-04-24T15:10:42Z</time>
      </trkpt>
      <trkpt lat="45.474232994019985" lon="3.563235970214009">
        <ele>1084.5</ele>
        <time>2025-04-24T15:10:43Z</time>
      </trkpt>
      <trkpt lat="45.474023027345538" lon="3.563198000192642">
        <ele>1084.02</ele>
        <time>2025-04-24T15:10:44Z</time>
      </trkpt>
      <trkpt lat="45.472991969436407" lon="3.562979986891151">
        <ele>1081.1400000000001</ele>
        <time>2025-04-24T15:10:49Z</time>
      </trkpt>
      <trkpt lat="45.472591985017061" lon="3.562783012166619">
        <ele>1079.22</ele>
        <time>2025-04-24T15:10:51Z</time>
      </trkpt>
      <trkpt lat="45.472394004464149" lon="3.562629036605358">
        <ele>1078.26</ele>
        <time>2025-04-24T15:10:52Z</time>
      </trkpt>
      <trkpt lat="45.472199041396379" lon="3.562470031902194">
        <ele>1077.29</ele>
        <time>2025-04-24T15:10:53Z</time>
      </trkpt>
      <trkpt lat="45.472002988681197" lon="3.562281019985676">
        <ele>1076.3299999999999</ele>
        <time>2025-04-24T15:10:54Z</time>
      </trkpt>
      <trkpt lat="45.471799978986382" lon="3.562085973098874">
        <ele>1075.3699999999999</ele>
        <time>2025-04-24T15:10:55Z</time>
      </trkpt>
      <trkpt lat="45.470458036288619" lon="3.560454016551375">
        <ele>1066.72</ele>
        <time>2025-04-24T15:11:03Z</time>
      </trkpt>
      <trkpt lat="45.470325015485287" lon="3.560225022956729">
        <ele>1065.76</ele>
        <time>2025-04-24T15:11:04Z</time>
      </trkpt>
      <trkpt lat="45.470190988853574" lon="3.559986976906657">
        <ele>1065.28</ele>
        <time>2025-04-24T15:11:05Z</time>
      </trkpt>
      <trkpt lat="45.470060985535383" lon="3.55975597165525">
        <ele>1064.3199999999999</ele>
        <time>2025-04-24T15:11:06Z</time>
      </trkpt>
      <trkpt lat="45.468849968165159" lon="3.557597966864705">
        <ele>1059.51</ele>
        <time>2025-04-24T15:11:15Z</time>
      </trkpt>
      <trkpt lat="45.467864004895091" lon="3.555411966517568">
        <ele>1055.6700000000001</ele>
        <time>2025-04-24T15:11:23Z</time>
      </trkpt>
      <trkpt lat="45.467085996642709" lon="3.553752014413476">
        <ele>1051.3399999999999</ele>
        <time>2025-04-24T15:11:29Z</time>
      </trkpt>
      <trkpt lat="45.466145966202021" lon="3.551910007372499">
        <ele>1041.25</ele>
        <time>2025-04-24T15:11:36Z</time>
      </trkpt>
      <trkpt lat="45.465909009799361" lon="3.551454031839967">
        <ele>1038.3599999999999</ele>
        <time>2025-04-24T15:11:38Z</time>
      </trkpt>
      <trkpt lat="45.465779006481171" lon="3.551288992166519">
        <ele>1036.4400000000001</ele>
        <time>2025-04-24T15:11:39Z</time>
      </trkpt>
      <trkpt lat="45.465611033141613" lon="3.55109503492713">
        <ele>1035</ele>
        <time>2025-04-24T15:11:40Z</time>
      </trkpt>
      <trkpt lat="45.465464014559984" lon="3.550996966660023">
        <ele>1033.55</ele>
        <time>2025-04-24T15:11:41Z</time>
      </trkpt>
      <trkpt lat="45.465276008471847" lon="3.550881966948509">
        <ele>1031.1500000000001</ele>
        <time>2025-04-24T15:11:42Z</time>
      </trkpt>
      <trkpt lat="45.465072998777032" lon="3.550773002207279">
        <ele>1029.23</ele>
        <time>2025-04-24T15:11:43Z</time>
      </trkpt>
      <trkpt lat="45.46367296949029" lon="3.549854010343552">
        <ele>1021.54</ele>
        <time>2025-04-24T15:11:50Z</time>
      </trkpt>
      <trkpt lat="45.462497994303703" lon="3.548822030425072">
        <ele>1020.1</ele>
        <time>2025-04-24T15:11:57Z</time>
      </trkpt>
      <trkpt lat="45.462366985157132" lon="3.548636035993695">
        <ele>1019.62</ele>
        <time>2025-04-24T15:11:58Z</time>
      </trkpt>
      <trkpt lat="45.462248967960477" lon="3.548434032127261">
        <ele>1018.65</ele>
        <time>2025-04-24T15:11:59Z</time>
      </trkpt>
      <trkpt lat="45.462156012654305" lon="3.548213001340628">
        <ele>1018.17</ele>
        <time>2025-04-24T15:12:00Z</time>
      </trkpt>
      <trkpt lat="45.462084012106061" lon="3.54796196334064">
        <ele>1017.21</ele>
        <time>2025-04-24T15:12:01Z</time>
      </trkpt>
      <trkpt lat="45.462031960487366" lon="3.54770002886653">
        <ele>1016.73</ele>
        <time>2025-04-24T15:12:02Z</time>
      </trkpt>
      <trkpt lat="45.461978986859322" lon="3.547428958117962">
        <ele>1016.73</ele>
        <time>2025-04-24T15:12:03Z</time>
      </trkpt>
      <trkpt lat="45.461860969662666" lon="3.54692897759378">
        <ele>1017.21</ele>
        <time>2025-04-24T15:12:05Z</time>
      </trkpt>
      <trkpt lat="45.461770026013255" lon="3.546712975949049">
        <ele>1017.6900000000001</ele>
        <time>2025-04-24T15:12:06Z</time>
      </trkpt>
      <trkpt lat="45.461678998544812" lon="3.546497980132699">
        <ele>1018.65</ele>
        <time>2025-04-24T15:12:07Z</time>
      </trkpt>
      <trkpt lat="45.461141970008612" lon="3.545418977737427">
        <ele>1023.46</ele>
        <time>2025-04-24T15:12:14Z</time>
      </trkpt>
      <trkpt lat="45.461040968075395" lon="3.545217979699373">
        <ele>1024.4200000000001</ele>
        <time>2025-04-24T15:12:16Z</time>
      </trkpt>
      <trkpt lat="45.460946001112461" lon="3.545027039945126">
        <ele>1025.3800000000001</ele>
        <time>2025-04-24T15:12:19Z</time>
      </trkpt>
      <trkpt lat="45.460919011384249" lon="3.544972976669669">
        <ele>1025.8599999999999</ele>
        <time>2025-04-24T15:12:20Z</time>
      </trkpt>
      <trkpt lat="45.460910964757204" lon="3.544957973062992">
        <ele>1026.3399999999999</ele>
        <time>2025-04-24T15:12:21Z</time>
      </trkpt>
      <trkpt lat="45.46087802387774" lon="3.544907011091709">
        <ele>1026.3399999999999</ele>
        <time>2025-04-24T15:12:22Z</time>
      </trkpt>
      <trkpt lat="45.460850028321147" lon="3.54486501775682">
        <ele>1026.8299999999999</ele>
        <time>2025-04-24T15:12:23Z</time>
      </trkpt>
      <trkpt lat="45.460826978087425" lon="3.544830987229943">
        <ele>1026.8299999999999</ele>
        <time>2025-04-24T15:12:24Z</time>
      </trkpt>
      <trkpt lat="45.460811974480748" lon="3.544809026643634">
        <ele>1026.8299999999999</ele>
        <time>2025-04-24T15:12:25Z</time>
      </trkpt>
      <trkpt lat="45.460806023329496" lon="3.544799974188209">
        <ele>1026.8299999999999</ele>
        <time>2025-04-24T15:12:26Z</time>
      </trkpt>
      <trkpt lat="45.460806023329496" lon="3.544799974188209">
        <ele>1026.8299999999999</ele>
        <time>2025-04-24T15:14:43Z</time>
      </trkpt>
      <trkpt lat="45.460806023329496" lon="3.544799974188209">
        <ele>1026.8299999999999</ele>
        <time>2025-04-24T15:15:34Z</time>
      </trkpt>
      <trkpt lat="45.460806023329496" lon="3.544799974188209">
        <ele>1026.8299999999999</ele>
        <time>2025-04-24T15:16:37Z</time>
      </trkpt>
      <trkpt lat="45.460806023329496" lon="3.544799974188209">
        <ele>1026.8299999999999</ele>
        <time>2025-04-24T15:17:26Z</time>
      </trkpt>
      <trkpt lat="45.460806023329496" lon="3.544799974188209">
        <ele>1026.8299999999999</ele>
        <time>2025-04-24T15:17:28Z</time>
      </trkpt>
      <trkpt lat="45.460818009451032" lon="3.544817995280027">
        <ele>1026.3399999999999</ele>
        <time>2025-04-24T15:17:29Z</time>
      </trkpt>
      <trkpt lat="45.460837036371231" lon="3.544846996665001">
        <ele>1026.3399999999999</ele>
        <time>2025-04-24T15:17:30Z</time>
      </trkpt>
      <trkpt lat="45.460865031927824" lon="3.54488898999989">
        <ele>1026.3399999999999</ele>
        <time>2025-04-24T15:17:31Z</time>
      </trkpt>
      <trkpt lat="45.460895961150527" lon="3.544935006648302">
        <ele>1025.8599999999999</ele>
        <time>2025-04-24T15:17:32Z</time>
      </trkpt>
      <trkpt lat="45.46096402220428" lon="3.544913968071342">
        <ele>1026.3399999999999</ele>
        <time>2025-04-24T15:17:33Z</time>
      </trkpt>
      <trkpt lat="45.461039962247014" lon="3.544850014150143">
        <ele>1026.3399999999999</ele>
        <time>2025-04-24T15:17:34Z</time>
      </trkpt>
      <trkpt lat="45.461143981665373" lon="3.544838028028607">
        <ele>1026.3399999999999</ele>
        <time>2025-04-24T15:17:36Z</time>
      </trkpt>
      <trkpt lat="45.461594006046653" lon="3.544773990288377">
        <ele>1025.8599999999999</ele>
        <time>2025-04-24T15:17:42Z</time>
      </trkpt>
      <trkpt lat="45.461666006594896" lon="3.544722022488713">
        <ele>1026.3399999999999</ele>
        <time>2025-04-24T15:17:43Z</time>
      </trkpt>
      <trkpt lat="45.461740018799901" lon="3.544669970870018">
        <ele>1026.3399999999999</ele>
        <time>2025-04-24T15:17:44Z</time>
      </trkpt>
      <trkpt lat="45.461979992687702" lon="3.544552959501743">
        <ele>1027.3099999999999</ele>
        <time>2025-04-24T15:17:47Z</time>
      </trkpt>
      <trkpt lat="45.462895967066288" lon="3.544579027220607">
        <ele>1029.71</ele>
        <time>2025-04-24T15:17:56Z</time>
      </trkpt>
      <trkpt lat="45.463044997304678" lon="3.544620014727116">
        <ele>1030.6700000000001</ele>
        <time>2025-04-24T15:17:58Z</time>
      </trkpt>
      <trkpt lat="45.463104005903006" lon="3.544633006677032">
        <ele>1030.6700000000001</ele>
        <time>2025-04-24T15:17:59Z</time>
      </trkpt>
      <trkpt lat="45.463159997016191" lon="3.544599981978536">
        <ele>1031.1500000000001</ele>
        <time>2025-04-24T15:18:00Z</time>
      </trkpt>
      <trkpt lat="45.46341204084456" lon="3.544448018074036">
        <ele>1032.5899999999999</ele>
        <time>2025-04-24T15:18:04Z</time>
      </trkpt>
      <trkpt lat="45.463475994765759" lon="3.544452963396907">
        <ele>1033.0699999999999</ele>
        <time>2025-04-24T15:18:05Z</time>
      </trkpt>
      <trkpt lat="45.463541960343719" lon="3.544477019459009">
        <ele>1034.04</ele>
        <time>2025-04-24T15:18:06Z</time>
      </trkpt>
      <trkpt lat="45.463612033054233" lon="3.544547008350492">
        <ele>1034.52</ele>
        <time>2025-04-24T15:18:07Z</time>
      </trkpt>
      <trkpt lat="45.463696019724011" lon="3.54463099502027">
        <ele>1035.48</ele>
        <time>2025-04-24T15:18:08Z</time>
      </trkpt>
      <trkpt lat="45.46466002240777" lon="3.545540012419224">
        <ele>1045.0899999999999</ele>
        <time>2025-04-24T15:18:17Z</time>
      </trkpt>
      <trkpt lat="45.464941989630461" lon="3.545770011842251">
        <ele>1047.97</ele>
        <time>2025-04-24T15:18:20Z</time>
      </trkpt>
      <trkpt lat="45.465137958526611" lon="3.545816028490663">
        <ele>1048.45</ele>
        <time>2025-04-24T15:18:22Z</time>
      </trkpt>
      <trkpt lat="45.465228985995054" lon="3.545779986307025">
        <ele>1048.45</ele>
        <time>2025-04-24T15:18:23Z</time>
      </trkpt>
      <trkpt lat="45.465324958786368" lon="3.545715026557446">
        <ele>1048.45</ele>
        <time>2025-04-24T15:18:24Z</time>
      </trkpt>
      <trkpt lat="45.465427972376347" lon="3.54563900269568">
        <ele>1047.97</ele>
        <time>2025-04-24T15:18:25Z</time>
      </trkpt>
      <trkpt lat="45.465530985966325" lon="3.545563984662294">
        <ele>1047.97</ele>
        <time>2025-04-24T15:18:26Z</time>
      </trkpt>
      <trkpt lat="45.465822005644441" lon="3.545300960540772">
        <ele>1046.53</ele>
        <time>2025-04-24T15:18:29Z</time>
      </trkpt>
      <trkpt lat="45.465910015627742" lon="3.545300960540772">
        <ele>1045.5699999999999</ele>
        <time>2025-04-24T15:18:30Z</time>
      </trkpt>
      <trkpt lat="45.466001965105534" lon="3.545314036309719">
        <ele>1045.0899999999999</ele>
        <time>2025-04-24T15:18:31Z</time>
      </trkpt>
      <trkpt lat="45.466104978695512" lon="3.54536198079586">
        <ele>1044.6099999999999</ele>
        <time>2025-04-24T15:18:32Z</time>
      </trkpt>
      <trkpt lat="45.466220984235406" lon="3.545416966080666">
        <ele>1044.1300000000001</ele>
        <time>2025-04-24T15:18:33Z</time>
      </trkpt>
      <trkpt lat="45.467506013810635" lon="3.54602700099349">
        <ele>1046.53</ele>
        <time>2025-04-24T15:18:42Z</time>
      </trkpt>
      <trkpt lat="45.46814002096653" lon="3.546375017613173">
        <ele>1051.8199999999999</ele>
        <time>2025-04-24T15:18:47Z</time>
      </trkpt>
      <trkpt lat="45.46850698068738" lon="3.546759998425841">
        <ele>1057.1099999999999</ele>
        <time>2025-04-24T15:18:52Z</time>
      </trkpt>
      <trkpt lat="45.468580992892385" lon="3.546741977334023">
        <ele>1058.55</ele>
        <time>2025-04-24T15:18:53Z</time>
      </trkpt>
      <trkpt lat="45.46867897734046" lon="3.546716999262571">
        <ele>1059.99</ele>
        <time>2025-04-24T15:18:54Z</time>
      </trkpt>
      <trkpt lat="45.468735974282026" lon="3.546675005927682">
        <ele>1060.95</ele>
        <time>2025-04-24T15:18:55Z</time>
      </trkpt>
      <trkpt lat="45.468819960951805" lon="3.546611974015832">
        <ele>1061.9100000000001</ele>
        <time>2025-04-24T15:18:56Z</time>
      </trkpt>
      <trkpt lat="45.469629988074303" lon="3.545975033193827">
        <ele>1062.3900000000001</ele>
        <time>2025-04-24T15:19:03Z</time>
      </trkpt>
      <trkpt lat="45.470810998231173" lon="3.545285034924746">
        <ele>1058.55</ele>
        <time>2025-04-24T15:19:11Z</time>
      </trkpt>
      <trkpt lat="45.471376022323966" lon="3.545067021623254">
        <ele>1056.6300000000001</ele>
        <time>2025-04-24T15:19:15Z</time>
      </trkpt>
      <trkpt lat="45.47151398845017" lon="3.545043971389532">
        <ele>1056.6300000000001</ele>
        <time>2025-04-24T15:19:16Z</time>
      </trkpt>
      <trkpt lat="45.471649020910263" lon="3.545022010803223">
        <ele>1056.1500000000001</ele>
        <time>2025-04-24T15:19:17Z</time>
      </trkpt>
      <trkpt lat="45.471782041713595" lon="3.545000972226262">
        <ele>1056.1500000000001</ele>
        <time>2025-04-24T15:19:18Z</time>
      </trkpt>
      <trkpt lat="45.471913972869515" lon="3.544979011639953">
        <ele>1056.6300000000001</ele>
        <time>2025-04-24T15:19:19Z</time>
      </trkpt>
      <trkpt lat="45.472790971398354" lon="3.544768039137125">
        <ele>1062.3900000000001</ele>
        <time>2025-04-24T15:19:26Z</time>
      </trkpt>
      <trkpt lat="45.472913011908531" lon="3.54473702609539">
        <ele>1063.3599999999999</ele>
        <time>2025-04-24T15:19:27Z</time>
      </trkpt>
      <trkpt lat="45.473440987989306" lon="3.544602999463677">
        <ele>1067.6800000000001</ele>
        <time>2025-04-24T15:19:31Z</time>
      </trkpt>
      <trkpt lat="45.473962007090449" lon="3.544469978660345">
        <ele>1071.53</ele>
        <time>2025-04-24T15:19:35Z</time>
      </trkpt>
      <trkpt lat="45.47409201040864" lon="3.544437037780881">
        <ele>1072.49</ele>
        <time>2025-04-24T15:19:36Z</time>
      </trkpt>
      <trkpt lat="45.474211033433676" lon="3.544406024739146">
        <ele>1073.45</ele>
        <time>2025-04-24T15:19:37Z</time>
      </trkpt>
      <trkpt lat="45.474338019266725" lon="3.544351039454341">
        <ele>1074.4100000000001</ele>
        <time>2025-04-24T15:19:38Z</time>
      </trkpt>
      <trkpt lat="45.474462993443012" lon="3.544292030856013">
        <ele>1075.3699999999999</ele>
        <time>2025-04-24T15:19:39Z</time>
      </trkpt>
      <trkpt lat="45.475084008648992" lon="3.543948037549853">
        <ele>1080.1800000000001</ele>
        <time>2025-04-24T15:19:44Z</time>
      </trkpt>
      <trkpt lat="45.475229015573859" lon="3.543859021738172">
        <ele>1081.1400000000001</ele>
        <time>2025-04-24T15:19:45Z</time>
      </trkpt>
      <trkpt lat="45.475673004984856" lon="3.543589040637016">
        <ele>1082.5799999999999</ele>
        <time>2025-04-24T15:19:48Z</time>
      </trkpt>
      <trkpt lat="45.47613400965929" lon="3.543307995423675">
        <ele>1085.47</ele>
        <time>2025-04-24T15:19:52Z</time>
      </trkpt>
      <trkpt lat="45.476226964965463" lon="3.543250998482108">
        <ele>1086.9100000000001</ele>
        <time>2025-04-24T15:19:53Z</time>
      </trkpt>
      <trkpt lat="45.476470040157437" lon="3.543102974072099">
        <ele>1092.2</ele>
        <time>2025-04-24T15:19:56Z</time>
      </trkpt>
      <trkpt lat="45.476591996848583" lon="3.543003983795643">
        <ele>1095.0799999999999</ele>
        <time>2025-04-24T15:19:58Z</time>
      </trkpt>
      <trkpt lat="45.476634996011853" lon="3.542966013774276">
        <ele>1096.52</ele>
        <time>2025-04-24T15:19:59Z</time>
      </trkpt>
      <trkpt lat="45.47664899379015" lon="3.542905999347568">
        <ele>1097.96</ele>
        <time>2025-04-24T15:20:00Z</time>
      </trkpt>
      <trkpt lat="45.476656034588814" lon="3.542864006012678">
        <ele>1098.9200000000001</ele>
        <time>2025-04-24T15:20:01Z</time>
      </trkpt>
      <trkpt lat="45.476624015718699" lon="3.542814971879125">
        <ele>1100.3699999999999</ele>
        <time>2025-04-24T15:20:02Z</time>
      </trkpt>
      <trkpt lat="45.476574981585145" lon="3.542789993807674">
        <ele>1101.3299999999999</ele>
        <time>2025-04-24T15:20:03Z</time>
      </trkpt>
      <trkpt lat="45.476513961330056" lon="3.542759986594319">
        <ele>1102.29</ele>
        <time>2025-04-24T15:20:04Z</time>
      </trkpt>
      <trkpt lat="45.476438021287322" lon="3.542722016572952">
        <ele>1103.73</ele>
        <time>2025-04-24T15:20:05Z</time>
      </trkpt>
      <trkpt lat="45.476358979940414" lon="3.542682034894824">
        <ele>1104.6900000000001</ele>
        <time>2025-04-24T15:20:06Z</time>
      </trkpt>
      <trkpt lat="45.476266024634242" lon="3.542636018246412">
        <ele>1105.6500000000001</ele>
        <time>2025-04-24T15:20:07Z</time>
      </trkpt>
      <trkpt lat="45.475464966148138" lon="3.542235027998686">
        <ele>1109.5</ele>
        <time>2025-04-24T15:20:13Z</time>
      </trkpt>
      <trkpt lat="45.47531601972878" lon="3.542161015793681">
        <ele>1109.5</ele>
        <time>2025-04-24T15:20:14Z</time>
      </trkpt>
      <trkpt lat="45.473996959626675" lon="3.541501024737954">
        <ele>1106.6099999999999</ele>
        <time>2025-04-24T15:20:22Z</time>
      </trkpt>
      <trkpt lat="45.472828019410372" lon="3.540916973724961">
        <ele>1101.8099999999999</ele>
        <time>2025-04-24T15:20:29Z</time>
      </trkpt>
      <trkpt lat="45.471992008388042" lon="3.540493017062545">
        <ele>1099.8900000000001</ele>
        <time>2025-04-24T15:20:34Z</time>
      </trkpt>
      <trkpt lat="45.471551958471537" lon="3.540179030969739">
        <ele>1097.48</ele>
        <time>2025-04-24T15:20:37Z</time>
      </trkpt>
      <trkpt lat="45.471421033143997" lon="3.540059002116323">
        <ele>1096.52</ele>
        <time>2025-04-24T15:20:38Z</time>
      </trkpt>
      <trkpt lat="45.471168989315629" lon="3.539830008521676">
        <ele>1093.6400000000001</ele>
        <time>2025-04-24T15:20:40Z</time>
      </trkpt>
      <trkpt lat="45.471031023189425" lon="3.539783991873264">
        <ele>1092.6800000000001</ele>
        <time>2025-04-24T15:20:41Z</time>
      </trkpt>
      <trkpt lat="45.470886016264558" lon="3.539735041558743">
        <ele>1091.23</ele>
        <time>2025-04-24T15:20:42Z</time>
      </trkpt>
      <trkpt lat="45.470723994076252" lon="3.53971098549664">
        <ele>1089.79</ele>
        <time>2025-04-24T15:20:43Z</time>
      </trkpt>
      <trkpt lat="45.470550991594791" lon="3.539695981889963">
        <ele>1088.8299999999999</ele>
        <time>2025-04-24T15:20:44Z</time>
      </trkpt>
      <trkpt lat="45.470200963318348" lon="3.539617024362087">
        <ele>1085.95</ele>
        <time>2025-04-24T15:20:46Z</time>
      </trkpt>
      <trkpt lat="45.470023015514016" lon="3.539543012157083">
        <ele>1084.02</ele>
        <time>2025-04-24T15:20:47Z</time>
      </trkpt>
      <trkpt lat="45.469858981668949" lon="3.539426000788808">
        <ele>1082.5799999999999</ele>
        <time>2025-04-24T15:20:48Z</time>
      </trkpt>
      <trkpt lat="45.468585016205907" lon="3.538196962326765">
        <ele>1079.22</ele>
        <time>2025-04-24T15:20:56Z</time>
      </trkpt>
      <trkpt lat="45.467281965538859" lon="3.536470960825682">
        <ele>1082.5799999999999</ele>
        <time>2025-04-24T15:21:06Z</time>
      </trkpt>
      <trkpt lat="45.467055989429355" lon="3.536147000268102">
        <ele>1083.54</ele>
        <time>2025-04-24T15:21:09Z</time>
      </trkpt>
      <trkpt lat="45.466978959739208" lon="3.536074999719858">
        <ele>1083.54</ele>
        <time>2025-04-24T15:21:10Z</time>
      </trkpt>
      <trkpt lat="45.466892961412668" lon="3.536079023033381">
        <ele>1083.54</ele>
        <time>2025-04-24T15:21:11Z</time>
      </trkpt>
      <trkpt lat="45.466790031641722" lon="3.536083968356252">
        <ele>1084.02</ele>
        <time>2025-04-24T15:21:12Z</time>
      </trkpt>
      <trkpt lat="45.466676037758589" lon="3.536090003326535">
        <ele>1084.02</ele>
        <time>2025-04-24T15:21:13Z</time>
      </trkpt>
      <trkpt lat="45.466558020561934" lon="3.536095032468438">
        <ele>1084.5</ele>
        <time>2025-04-24T15:21:14Z</time>
      </trkpt>
      <trkpt lat="45.466176979243755" lon="3.536113975569606">
        <ele>1084.02</ele>
        <time>2025-04-24T15:21:18Z</time>
      </trkpt>
      <trkpt lat="45.466120988130569" lon="3.536010961979628">
        <ele>1083.54</ele>
        <time>2025-04-24T15:21:19Z</time>
      </trkpt>
      <trkpt lat="45.466130962595344" lon="3.53594901971519">
        <ele>1083.54</ele>
        <time>2025-04-24T15:21:20Z</time>
      </trkpt>
      <trkpt lat="45.466144038364291" lon="3.535861009731889">
        <ele>1083.0599999999999</ele>
        <time>2025-04-24T15:21:21Z</time>
      </trkpt>
      <trkpt lat="45.466161975637078" lon="3.535752967000008">
        <ele>1082.5799999999999</ele>
        <time>2025-04-24T15:21:22Z</time>
      </trkpt>
      <trkpt lat="45.466192988678813" lon="3.535633021965623">
        <ele>1082.0999999999999</ele>
        <time>2025-04-24T15:21:23Z</time>
      </trkpt>
      <trkpt lat="45.4663369897753" lon="3.535186015069485">
        <ele>1081.1400000000001</ele>
        <time>2025-04-24T15:21:26Z</time>
      </trkpt>
      <trkpt lat="45.467005027458072" lon="3.53403601795435">
        <ele>1078.26</ele>
        <time>2025-04-24T15:21:33Z</time>
      </trkpt>
      <trkpt lat="45.467390008270741" lon="3.533577024936676">
        <ele>1076.8099999999999</ele>
        <time>2025-04-24T15:21:36Z</time>
      </trkpt>
      <trkpt lat="45.467609027400613" lon="3.533345013856888">
        <ele>1076.3299999999999</ele>
        <time>2025-04-24T15:21:38Z</time>
      </trkpt>
      <trkpt lat="45.467723021283746" lon="3.533281981945038">
        <ele>1075.8499999999999</ele>
        <time>2025-04-24T15:21:39Z</time>
      </trkpt>
      <trkpt lat="45.467837015166879" lon="3.533274019137025">
        <ele>1075.8499999999999</ele>
        <time>2025-04-24T15:21:40Z</time>
      </trkpt>
      <trkpt lat="45.467951009050012" lon="3.533289022743702">
        <ele>1075.3699999999999</ele>
        <time>2025-04-24T15:21:41Z</time>
      </trkpt>
      <trkpt lat="45.468061985448003" lon="3.533303020521998">
        <ele>1074.8900000000001</ele>
        <time>2025-04-24T15:21:42Z</time>
      </trkpt>
      <trkpt lat="45.468175979331136" lon="3.533318024128676">
        <ele>1074.4100000000001</ele>
        <time>2025-04-24T15:21:43Z</time>
      </trkpt>
      <trkpt lat="45.46824999153614" lon="3.53332799859345">
        <ele>1073.9300000000001</ele>
        <time>2025-04-24T15:21:44Z</time>
      </trkpt>
      <trkpt lat="45.468364991247654" lon="3.533246023580432">
        <ele>1073.45</ele>
        <time>2025-04-24T15:21:45Z</time>
      </trkpt>
      <trkpt lat="45.468488037586212" lon="3.533159019425511">
        <ele>1072.97</ele>
        <time>2025-04-24T15:21:46Z</time>
      </trkpt>
      <trkpt lat="45.4686130117625" lon="3.53307000361383">
        <ele>1072.97</ele>
        <time>2025-04-24T15:21:47Z</time>
      </trkpt>
      <trkpt lat="45.468741003423929" lon="3.532978976145387">
        <ele>1072.49</ele>
        <time>2025-04-24T15:21:48Z</time>
      </trkpt>
      <trkpt lat="45.468983994796872" lon="3.532806979492307">
        <ele>1072.01</ele>
        <time>2025-04-24T15:21:50Z</time>
      </trkpt>
      <trkpt lat="45.46910704113543" lon="3.532719975337386">
        <ele>1071.53</ele>
        <time>2025-04-24T15:21:51Z</time>
      </trkpt>
      <trkpt lat="45.469220029190183" lon="3.53264001198113">
        <ele>1071.05</ele>
        <time>2025-04-24T15:21:52Z</time>
      </trkpt>
      <trkpt lat="45.469334023073316" lon="3.532558958977461">
        <ele>1071.05</ele>
        <time>2025-04-24T15:21:53Z</time>
      </trkpt>
      <trkpt lat="45.46945002861321" lon="3.532486036419869">
        <ele>1070.5699999999999</ele>
        <time>2025-04-24T15:21:54Z</time>
      </trkpt>
      <trkpt lat="45.469616996124387" lon="3.53244898840785">
        <ele>1069.1199999999999</ele>
        <time>2025-04-24T15:21:55Z</time>
      </trkpt>
      <trkpt lat="45.469768960028887" lon="3.532414035871625">
        <ele>1068.1600000000001</ele>
        <time>2025-04-24T15:21:56Z</time>
      </trkpt>
      <trkpt lat="45.470175985246897" lon="3.532320996746421">
        <ele>1065.76</ele>
        <time>2025-04-24T15:21:59Z</time>
      </trkpt>
      <trkpt lat="45.470373965799809" lon="3.53227598592639">
        <ele>1064.3199999999999</ele>
        <time>2025-04-24T15:22:00Z</time>
      </trkpt>
      <trkpt lat="45.470459964126348" lon="3.53216802701354">
        <ele>1063.3599999999999</ele>
        <time>2025-04-24T15:22:01Z</time>
      </trkpt>
      <trkpt lat="45.470493994653225" lon="3.532045986503363">
        <ele>1060.95</ele>
        <time>2025-04-24T15:22:02Z</time>
      </trkpt>
      <trkpt lat="45.470519978553057" lon="3.531894022598863">
        <ele>1059.99</ele>
        <time>2025-04-24T15:22:03Z</time>
      </trkpt>
      <trkpt lat="45.470503969117999" lon="3.531733006238937">
        <ele>1058.55</ele>
        <time>2025-04-24T15:22:04Z</time>
      </trkpt>
      <trkpt lat="45.470485026016831" lon="3.53154600597918">
        <ele>1057.5899999999999</ele>
        <time>2025-04-24T15:22:05Z</time>
      </trkpt>
      <trkpt lat="45.47041998244822" lon="3.530905041843653">
        <ele>1053.74</ele>
        <time>2025-04-24T15:22:08Z</time>
      </trkpt>
      <trkpt lat="45.470452001318336" lon="3.5306850168854">
        <ele>1052.78</ele>
        <time>2025-04-24T15:22:09Z</time>
      </trkpt>
      <trkpt lat="45.470496006309986" lon="3.530473960563541">
        <ele>1051.8199999999999</ele>
        <time>2025-04-24T15:22:10Z</time>
      </trkpt>
      <trkpt lat="45.470557026565075" lon="3.530290983617306">
        <ele>1050.3800000000001</ele>
        <time>2025-04-24T15:22:11Z</time>
      </trkpt>
      <trkpt lat="45.470636989921331" lon="3.530093003064394">
        <ele>1048.9400000000001</ele>
        <time>2025-04-24T15:22:12Z</time>
      </trkpt>
      <trkpt lat="45.470744026824832" lon="3.529941039159894">
        <ele>1047.97</ele>
        <time>2025-04-24T15:22:13Z</time>
      </trkpt>
      <trkpt lat="45.47084603458643" lon="3.529797038063407">
        <ele>1046.53</ele>
        <time>2025-04-24T15:22:14Z</time>
      </trkpt>
      <trkpt lat="45.470950976014137" lon="3.529649013653398">
        <ele>1045.5699999999999</ele>
        <time>2025-04-24T15:22:15Z</time>
      </trkpt>
      <trkpt lat="45.471033034846187" lon="3.529479028657079">
        <ele>1045.0899999999999</ele>
        <time>2025-04-24T15:22:16Z</time>
      </trkpt>
      <trkpt lat="45.47127996571362" lon="3.528901012614369">
        <ele>1043.1700000000001</ele>
        <time>2025-04-24T15:22:19Z</time>
      </trkpt>
      <trkpt lat="45.471383985131979" lon="3.528772015124559">
        <ele>1042.21</ele>
        <time>2025-04-24T15:22:20Z</time>
      </trkpt>
      <trkpt lat="45.471499990671873" lon="3.528650980442762">
        <ele>1041.25</ele>
        <time>2025-04-24T15:22:21Z</time>
      </trkpt>
      <trkpt lat="45.471615996211767" lon="3.528560036793351">
        <ele>1040.28</ele>
        <time>2025-04-24T15:22:22Z</time>
      </trkpt>
      <trkpt lat="45.471725966781378" lon="3.528473032638431">
        <ele>1038.8399999999999</ele>
        <time>2025-04-24T15:22:23Z</time>
      </trkpt>
      <trkpt lat="45.471869967877865" lon="3.528444031253457">
        <ele>1038.3599999999999</ele>
        <time>2025-04-24T15:22:24Z</time>
      </trkpt>
      <trkpt lat="45.471991002559662" lon="3.528431039303541">
        <ele>1037.4000000000001</ele>
        <time>2025-04-24T15:22:25Z</time>
      </trkpt>
      <trkpt lat="45.472077000886202" lon="3.528421986848116">
        <ele>1036.4400000000001</ele>
        <time>2025-04-24T15:22:26Z</time>
      </trkpt>
      <trkpt lat="45.472128968685865" lon="3.528416035696864">
        <ele>1035.48</ele>
        <time>2025-04-24T15:22:27Z</time>
      </trkpt>
      <trkpt lat="45.472155036404729" lon="3.528414024040103">
        <ele>1034.52</ele>
        <time>2025-04-24T15:22:28Z</time>
      </trkpt>
      <trkpt lat="45.472155036404729" lon="3.528414024040103">
        <ele>1033.55</ele>
        <time>2025-04-24T15:22:29Z</time>
      </trkpt>
      <trkpt lat="45.472142966464162" lon="3.52838602848351">
        <ele>1033.0699999999999</ele>
        <time>2025-04-24T15:22:30Z</time>
      </trkpt>
      <trkpt lat="45.472128968685865" lon="3.528351997956634">
        <ele>1032.1099999999999</ele>
        <time>2025-04-24T15:22:31Z</time>
      </trkpt>
      <trkpt lat="45.472110025584698" lon="3.528305981308222">
        <ele>1031.1500000000001</ele>
        <time>2025-04-24T15:22:32Z</time>
      </trkpt>
      <trkpt lat="45.472088987007737" lon="3.528254013508558">
        <ele>1030.6700000000001</ele>
        <time>2025-04-24T15:22:33Z</time>
      </trkpt>
      <trkpt lat="45.472036013379693" lon="3.52808503434062">
        <ele>1029.23</ele>
        <time>2025-04-24T15:22:36Z</time>
      </trkpt>
      <trkpt lat="45.472026038914919" lon="3.528025019913912">
        <ele>1028.75</ele>
        <time>2025-04-24T15:22:37Z</time>
      </trkpt>
      <trkpt lat="45.472006006166339" lon="3.527907002717257">
        <ele>1028.27</ele>
        <time>2025-04-24T15:22:39Z</time>
      </trkpt>
      <trkpt lat="45.471982033923268" lon="3.527761995792389">
        <ele>1027.3099999999999</ele>
        <time>2025-04-24T15:22:42Z</time>
      </trkpt>
      <trkpt lat="45.471982033923268" lon="3.527761995792389">
        <ele>1027.3099999999999</ele>
        <time>2025-04-24T15:22:53Z</time>
      </trkpt>
      <trkpt lat="45.471946997568011" lon="3.5275490116328">
        <ele>1027.3099999999999</ele>
        <time>2025-04-24T15:23:13Z</time>
      </trkpt>
      <trkpt lat="45.471636028960347" lon="3.526777038350701">
        <ele>1030.1900000000001</ele>
        <time>2025-04-24T15:23:20Z</time>
      </trkpt>
      <trkpt lat="45.471547013148665" lon="3.526678970083594">
        <ele>1030.6700000000001</ele>
        <time>2025-04-24T15:23:21Z</time>
      </trkpt>
      <trkpt lat="45.471463026478887" lon="3.526606969535351">
        <ele>1031.1500000000001</ele>
        <time>2025-04-24T15:23:22Z</time>
      </trkpt>
      <trkpt lat="45.470701027661562" lon="3.525956030935049">
        <ele>1035</ele>
        <time>2025-04-24T15:23:30Z</time>
      </trkpt>
      <trkpt lat="45.470588961616158" lon="3.525859974324703">
        <ele>1035.48</ele>
        <time>2025-04-24T15:23:31Z</time>
      </trkpt>
      <trkpt lat="45.470529031008482" lon="3.525742962956429">
        <ele>1035.48</ele>
        <time>2025-04-24T15:23:32Z</time>
      </trkpt>
      <trkpt lat="45.470454012975097" lon="3.525595022365451">
        <ele>1035.96</ele>
        <time>2025-04-24T15:23:33Z</time>
      </trkpt>
      <trkpt lat="45.470374971628189" lon="3.525440962985158">
        <ele>1035.96</ele>
        <time>2025-04-24T15:23:34Z</time>
      </trkpt>
      <trkpt lat="45.469782035797834" lon="3.524108994752169">
        <ele>1033.55</ele>
        <time>2025-04-24T15:23:43Z</time>
      </trkpt>
      <trkpt lat="45.469725960865617" lon="3.523965999484062">
        <ele>1033.55</ele>
        <time>2025-04-24T15:23:44Z</time>
      </trkpt>
      <trkpt lat="45.469648009166121" lon="3.523848988115788">
        <ele>1033.55</ele>
        <time>2025-04-24T15:23:45Z</time>
      </trkpt>
      <trkpt lat="45.469002015888691" lon="3.522962015122175">
        <ele>1032.1099999999999</ele>
        <time>2025-04-24T15:23:52Z</time>
      </trkpt>
      <trkpt lat="45.468906965106726" lon="3.522855984047055">
        <ele>1031.1500000000001</ele>
        <time>2025-04-24T15:23:53Z</time>
      </trkpt>
      <trkpt lat="45.468805963173509" lon="3.522763028740883">
        <ele>1030.6700000000001</ele>
        <time>2025-04-24T15:23:54Z</time>
      </trkpt>
      <trkpt lat="45.468693980947137" lon="3.522722963243723">
        <ele>1029.71</ele>
        <time>2025-04-24T15:23:55Z</time>
      </trkpt>
      <trkpt lat="45.468583004549146" lon="3.522683987393975">
        <ele>1028.75</ele>
        <time>2025-04-24T15:23:56Z</time>
      </trkpt>
      <trkpt lat="45.468475967645645" lon="3.522647023200989">
        <ele>1028.27</ele>
        <time>2025-04-24T15:23:57Z</time>
      </trkpt>
      <trkpt lat="45.468367002904415" lon="3.522576028481126">
        <ele>1027.79</ele>
        <time>2025-04-24T15:23:58Z</time>
      </trkpt>
      <trkpt lat="45.468285027891397" lon="3.522463962435722">
        <ele>1027.3099999999999</ele>
        <time>2025-04-24T15:23:59Z</time>
      </trkpt>
      <trkpt lat="45.468199029564857" lon="3.522347034886479">
        <ele>1027.3099999999999</ele>
        <time>2025-04-24T15:24:00Z</time>
      </trkpt>
      <trkpt lat="45.468100039288402" lon="3.522213008254767">
        <ele>1027.3099999999999</ele>
        <time>2025-04-24T15:24:01Z</time>
      </trkpt>
      <trkpt lat="45.468047987669706" lon="3.522073030471802">
        <ele>1027.3099999999999</ele>
        <time>2025-04-24T15:24:02Z</time>
      </trkpt>
      <trkpt lat="45.46799199655652" lon="3.521922994405031">
        <ele>1027.3099999999999</ele>
        <time>2025-04-24T15:24:03Z</time>
      </trkpt>
      <trkpt lat="45.467934999614954" lon="3.52176901884377">
        <ele>1027.3099999999999</ele>
        <time>2025-04-24T15:24:04Z</time>
      </trkpt>
      <trkpt lat="45.467821005731821" lon="3.521324023604393">
        <ele>1026.8299999999999</ele>
        <time>2025-04-24T15:24:07Z</time>
      </trkpt>
      <trkpt lat="45.467829974368215" lon="3.52118999697268">
        <ele>1026.8299999999999</ele>
        <time>2025-04-24T15:24:08Z</time>
      </trkpt>
      <trkpt lat="45.467864004895091" lon="3.521056976169348">
        <ele>1026.3399999999999</ele>
        <time>2025-04-24T15:24:09Z</time>
      </trkpt>
      <trkpt lat="45.467897029593587" lon="3.520928984507918">
        <ele>1026.3399999999999</ele>
        <time>2025-04-24T15:24:10Z</time>
      </trkpt>
      <trkpt lat="45.46792896464467" lon="3.520806021988392">
        <ele>1026.3399999999999</ele>
        <time>2025-04-24T15:24:11Z</time>
      </trkpt>
      <trkpt lat="45.467960983514786" lon="3.520684987306595">
        <ele>1026.3399999999999</ele>
        <time>2025-04-24T15:24:12Z</time>
      </trkpt>
      <trkpt lat="45.467981016263366" lon="3.520553978160024">
        <ele>1026.3399999999999</ele>
        <time>2025-04-24T15:24:13Z</time>
      </trkpt>
      <trkpt lat="45.467985039576888" lon="3.52041500620544">
        <ele>1025.8599999999999</ele>
        <time>2025-04-24T15:24:14Z</time>
      </trkpt>
      <trkpt lat="45.467961989343166" lon="3.520281985402107">
        <ele>1025.8599999999999</ele>
        <time>2025-04-24T15:24:15Z</time>
      </trkpt>
      <trkpt lat="45.46771296299994" lon="3.518898971378803">
        <ele>1025.3800000000001</ele>
        <time>2025-04-24T15:24:25Z</time>
      </trkpt>
      <trkpt lat="45.467698965221643" lon="3.518823031336069">
        <ele>1025.3800000000001</ele>
        <time>2025-04-24T15:24:26Z</time>
      </trkpt>
      <trkpt lat="45.46768999658525" lon="3.518768968060613">
        <ele>1025.3800000000001</ele>
        <time>2025-04-24T15:24:27Z</time>
      </trkpt>
      <trkpt lat="45.467681027948856" lon="3.518723035231233">
        <ele>1025.3800000000001</ele>
        <time>2025-04-24T15:24:28Z</time>
      </trkpt>
      <trkpt lat="45.467675998806953" lon="3.518691016361117">
        <ele>1025.3800000000001</ele>
        <time>2025-04-24T15:24:29Z</time>
      </trkpt>
      <trkpt lat="45.4677530284971" lon="3.518625972792506">
        <ele>1025.3800000000001</ele>
        <time>2025-04-24T15:24:30Z</time>
      </trkpt>
      <trkpt lat="45.467790998518467" lon="3.518656985834241">
        <ele>1025.3800000000001</ele>
        <time>2025-04-24T15:24:31Z</time>
      </trkpt>
      <trkpt lat="45.467850007116795" lon="3.518704008311033">
        <ele>1024.9000000000001</ele>
        <time>2025-04-24T15:24:32Z</time>
      </trkpt>
      <trkpt lat="45.467921001836658" lon="3.5187610052526">
        <ele>1025.3800000000001</ele>
        <time>2025-04-24T15:24:33Z</time>
      </trkpt>
      <trkpt lat="45.468529025092721" lon="3.519307002425194">
        <ele>1025.3800000000001</ele>
        <time>2025-04-24T15:24:39Z</time>
      </trkpt>
      <trkpt lat="45.468784002587199" lon="3.519538007676601">
        <ele>1024.9000000000001</ele>
        <time>2025-04-24T15:24:41Z</time>
      </trkpt>
      <trkpt lat="45.468922974541783" lon="3.519646972417831">
        <ele>1024.4200000000001</ele>
        <time>2025-04-24T15:24:42Z</time>
      </trkpt>
      <trkpt lat="45.469075022265315" lon="3.519698018208146">
        <ele>1023.9400000000001</ele>
        <time>2025-04-24T15:24:43Z</time>
      </trkpt>
      <trkpt lat="45.469234026968479" lon="3.519729031249881">
        <ele>1023.46</ele>
        <time>2025-04-24T15:24:44Z</time>
      </trkpt>
      <trkpt lat="45.469390014186502" lon="3.519741017371416">
        <ele>1022.5</ele>
        <time>2025-04-24T15:24:45Z</time>
      </trkpt>
      <trkpt lat="45.469542983919382" lon="3.519751997664571">
        <ele>1022.02</ele>
        <time>2025-04-24T15:24:46Z</time>
      </trkpt>
      <trkpt lat="45.469698971137404" lon="3.519763983786106">
        <ele>1021.0599999999999</ele>
        <time>2025-04-24T15:24:47Z</time>
      </trkpt>
      <trkpt lat="45.469850013032556" lon="3.519803965464234">
        <ele>1020.1</ele>
        <time>2025-04-24T15:24:48Z</time>
      </trkpt>
      <trkpt lat="45.470143966376781" lon="3.5198990162462">
        <ele>1019.13</ele>
        <time>2025-04-24T15:24:50Z</time>
      </trkpt>
      <trkpt lat="45.470292996615171" lon="3.519934974610806">
        <ele>1018.65</ele>
        <time>2025-04-24T15:24:51Z</time>
      </trkpt>
      <trkpt lat="45.470438003540039" lon="3.519920976832509">
        <ele>1018.17</ele>
        <time>2025-04-24T15:24:52Z</time>
      </trkpt>
      <trkpt lat="45.470559038221836" lon="3.519874960184097">
        <ele>1017.6900000000001</ele>
        <time>2025-04-24T15:24:53Z</time>
      </trkpt>
      <trkpt lat="45.470660962164402" lon="3.519818969070911">
        <ele>1017.21</ele>
        <time>2025-04-24T15:24:54Z</time>
      </trkpt>
      <trkpt lat="45.470748972147703" lon="3.519742023199797">
        <ele>1016.73</ele>
        <time>2025-04-24T15:24:55Z</time>
      </trkpt>
      <trkpt lat="45.470832036808133" lon="3.519618976861239">
        <ele>1015.77</ele>
        <time>2025-04-24T15:24:56Z</time>
      </trkpt>
      <trkpt lat="45.470922980457544" lon="3.519486039876938">
        <ele>1015.77</ele>
        <time>2025-04-24T15:24:57Z</time>
      </trkpt>
      <trkpt lat="45.471015013754368" lon="3.519351007416844">
        <ele>1015.29</ele>
        <time>2025-04-24T15:24:58Z</time>
      </trkpt>
      <trkpt lat="45.471109980717301" lon="3.519224021583796">
        <ele>1014.33</ele>
        <time>2025-04-24T15:24:59Z</time>
      </trkpt>
      <trkpt lat="45.471220035105944" lon="3.519112961366773">
        <ele>1013.85</ele>
        <time>2025-04-24T15:25:00Z</time>
      </trkpt>
      <trkpt lat="45.471331011503935" lon="3.519001984968782">
        <ele>1013.37</ele>
        <time>2025-04-24T15:25:01Z</time>
      </trkpt>
      <trkpt lat="45.471456991508603" lon="3.518927972763777">
        <ele>1012.89</ele>
        <time>2025-04-24T15:25:02Z</time>
      </trkpt>
      <trkpt lat="45.471585988998413" lon="3.518855972215533">
        <ele>1011.9299999999999</ele>
        <time>2025-04-24T15:25:03Z</time>
      </trkpt>
      <trkpt lat="45.471710963174701" lon="3.518786989152432">
        <ele>1010.96</ele>
        <time>2025-04-24T15:25:04Z</time>
      </trkpt>
      <trkpt lat="45.472322003915906" lon="3.518450036644936">
        <ele>1009.52</ele>
        <time>2025-04-24T15:25:09Z</time>
      </trkpt>
      <trkpt lat="45.472428034991026" lon="3.518321039155126">
        <ele>1009.04</ele>
        <time>2025-04-24T15:25:10Z</time>
      </trkpt>
      <trkpt lat="45.472534988075495" lon="3.518191035836935">
        <ele>1008.5599999999999</ele>
        <time>2025-04-24T15:25:11Z</time>
      </trkpt>
      <trkpt lat="45.472613023594022" lon="3.518032031133771">
        <ele>1008.08</ele>
        <time>2025-04-24T15:25:12Z</time>
      </trkpt>
      <trkpt lat="45.472688963636756" lon="3.517842013388872">
        <ele>1007.12</ele>
        <time>2025-04-24T15:25:13Z</time>
      </trkpt>
      <trkpt lat="45.472768004983664" lon="3.51764403283596">
        <ele>1006.16</ele>
        <time>2025-04-24T15:25:14Z</time>
      </trkpt>
      <trkpt lat="45.47284503467381" lon="3.5174520034343">
        <ele>1005.6799999999999</ele>
        <time>2025-04-24T15:25:15Z</time>
      </trkpt>
      <trkpt lat="45.472915023565292" lon="3.51725603453815">
        <ele>1005.2</ele>
        <time>2025-04-24T15:25:16Z</time>
      </trkpt>
      <trkpt lat="45.473106969147921" lon="3.516383981332183">
        <ele>1003.27</ele>
        <time>2025-04-24T15:25:20Z</time>
      </trkpt>
      <trkpt lat="45.473158014938235" lon="3.516152976080775">
        <ele>1002.79</ele>
        <time>2025-04-24T15:25:21Z</time>
      </trkpt>
      <trkpt lat="45.473250970244408" lon="3.515728013589978">
        <ele>1001.35</ele>
        <time>2025-04-24T15:25:23Z</time>
      </trkpt>
      <trkpt lat="45.473305033519864" lon="3.515513017773628">
        <ele>1000.87</ele>
        <time>2025-04-24T15:25:24Z</time>
      </trkpt>
      <trkpt lat="45.473381979390979" lon="3.51534596644342">
        <ele>999.90999999999997</ele>
        <time>2025-04-24T15:25:25Z</time>
      </trkpt>
      <trkpt lat="45.473483987152576" lon="3.515162989497185">
        <ele>998.95000000000005</ele>
        <time>2025-04-24T15:25:26Z</time>
      </trkpt>
      <trkpt lat="45.473594041541219" lon="3.515019994229078">
        <ele>997.50999999999999</ele>
        <time>2025-04-24T15:25:27Z</time>
      </trkpt>
      <trkpt lat="45.474096033722162" lon="3.514513978734613">
        <ele>992.22000000000003</ele>
        <time>2025-04-24T15:25:31Z</time>
      </trkpt>
      <trkpt lat="45.474397027865052" lon="3.5143350251019">
        <ele>990.29999999999995</ele>
        <time>2025-04-24T15:25:33Z</time>
      </trkpt>
      <trkpt lat="45.474555026739836" lon="3.514261012896895">
        <ele>989.33000000000004</ele>
        <time>2025-04-24T15:25:34Z</time>
      </trkpt>
      <trkpt lat="45.474714031443" lon="3.51418599486351">
        <ele>988.37</ele>
        <time>2025-04-24T15:25:35Z</time>
      </trkpt>
      <trkpt lat="45.474868007004261" lon="3.514112988486886">
        <ele>987.88999999999999</ele>
        <time>2025-04-24T15:25:36Z</time>
      </trkpt>
      <trkpt lat="45.475021982565522" lon="3.514040987938643">
        <ele>986.92999999999995</ele>
        <time>2025-04-24T15:25:37Z</time>
      </trkpt>
      <trkpt lat="45.475164977833629" lon="3.513932023197413">
        <ele>985.97000000000003</ele>
        <time>2025-04-24T15:25:38Z</time>
      </trkpt>
      <trkpt lat="45.475306967273355" lon="3.513820040971041">
        <ele>985.00999999999999</ele>
        <time>2025-04-24T15:25:39Z</time>
      </trkpt>
      <trkpt lat="45.47544501721859" lon="3.51371300406754">
        <ele>984.52999999999997</ele>
        <time>2025-04-24T15:25:40Z</time>
      </trkpt>
      <trkpt lat="45.475523974746466" lon="3.513650977984071">
        <ele>983.57000000000005</ele>
        <time>2025-04-24T15:25:41Z</time>
      </trkpt>
      <trkpt lat="45.475680967792869" lon="3.513588029891253">
        <ele>982.12</ele>
        <time>2025-04-24T15:25:42Z</time>
      </trkpt>
      <trkpt lat="45.475738970562816" lon="3.513564979657531">
        <ele>981.15999999999997</ele>
        <time>2025-04-24T15:25:43Z</time>
      </trkpt>
      <trkpt lat="45.475877020508051" lon="3.513577971607447">
        <ele>980.20000000000005</ele>
        <time>2025-04-24T15:25:44Z</time>
      </trkpt>
      <trkpt lat="45.476001994684339" lon="3.513589035719633">
        <ele>979.24000000000001</ele>
        <time>2025-04-24T15:25:45Z</time>
      </trkpt>
      <trkpt lat="45.476307012140751" lon="3.513617031276226">
        <ele>976.84000000000003</ele>
        <time>2025-04-24T15:25:47Z</time>
      </trkpt>
      <trkpt lat="45.476795006543398" lon="3.513745022937655">
        <ele>974.42999999999995</ele>
        <time>2025-04-24T15:25:50Z</time>
      </trkpt>
      <trkpt lat="45.477070016786456" lon="3.513836972415447">
        <ele>972.50999999999999</ele>
        <time>2025-04-24T15:25:52Z</time>
      </trkpt>
      <trkpt lat="45.477231033146381" lon="3.513845019042492">
        <ele>971.54999999999995</ele>
        <time>2025-04-24T15:25:53Z</time>
      </trkpt>
      <trkpt lat="45.477362964302301" lon="3.513808976858854">
        <ele>970.59000000000003</ele>
        <time>2025-04-24T15:25:54Z</time>
      </trkpt>
      <trkpt lat="45.477506965398788" lon="3.513731025159359">
        <ele>969.63</ele>
        <time>2025-04-24T15:25:55Z</time>
      </trkpt>
      <trkpt lat="45.477640992030501" lon="3.513650977984071">
        <ele>968.66999999999996</ele>
        <time>2025-04-24T15:25:56Z</time>
      </trkpt>
      <trkpt lat="45.477789016440511" lon="3.513561962172389">
        <ele>968.17999999999995</ele>
        <time>2025-04-24T15:25:57Z</time>
      </trkpt>
      <trkpt lat="45.478398967534304" lon="3.513274965807796">
        <ele>964.82000000000005</ele>
        <time>2025-04-24T15:26:02Z</time>
      </trkpt>
      <trkpt lat="45.478501981124282" lon="3.513267002999783">
        <ele>963.86000000000001</ele>
        <time>2025-04-24T15:26:03Z</time>
      </trkpt>
      <trkpt lat="45.478529976680875" lon="3.513264991343021">
        <ele>963.38</ele>
        <time>2025-04-24T15:26:04Z</time>
      </trkpt>
      <trkpt lat="45.478618992492557" lon="3.513322994112968">
        <ele>962.41999999999996</ele>
        <time>2025-04-24T15:26:05Z</time>
      </trkpt>
      <trkpt lat="45.478697028011084" lon="3.513373034074903">
        <ele>961.46000000000004</ele>
        <time>2025-04-24T15:26:06Z</time>
      </trkpt>
      <trkpt lat="45.478828037157655" lon="3.513458026573062">
        <ele>960.98000000000002</ele>
        <time>2025-04-24T15:26:07Z</time>
      </trkpt>
      <trkpt lat="45.478958962485194" lon="3.513431958854199">
        <ele>960.49000000000001</ele>
        <time>2025-04-24T15:26:08Z</time>
      </trkpt>
      <trkpt lat="45.478999027982354" lon="3.513349983841181">
        <ele>959.52999999999997</ele>
        <time>2025-04-24T15:26:09Z</time>
      </trkpt>
      <trkpt lat="45.479052001610398" lon="3.51324001327157">
        <ele>958.57000000000005</ele>
        <time>2025-04-24T15:26:10Z</time>
      </trkpt>
      <trkpt lat="45.479115033522248" lon="3.51311000995338">
        <ele>958.09000000000003</ele>
        <time>2025-04-24T15:26:11Z</time>
      </trkpt>
      <trkpt lat="45.479183010756969" lon="3.512968020513654">
        <ele>957.61000000000001</ele>
        <time>2025-04-24T15:26:12Z</time>
      </trkpt>
      <trkpt lat="45.479258028790355" lon="3.512813961133361">
        <ele>957.61000000000001</ele>
        <time>2025-04-24T15:26:13Z</time>
      </trkpt>
      <trkpt lat="45.479362970218062" lon="3.512707008048892">
        <ele>956.64999999999998</ele>
        <time>2025-04-24T15:26:14Z</time>
      </trkpt>
      <trkpt lat="45.479490961879492" lon="3.512577004730701">
        <ele>956.16999999999996</ele>
        <time>2025-04-24T15:26:15Z</time>
      </trkpt>
      <trkpt lat="45.479621971026063" lon="3.512442978098989">
        <ele>955.69000000000005</ele>
        <time>2025-04-24T15:26:16Z</time>
      </trkpt>
      <trkpt lat="45.480032013729215" lon="3.512025978416205">
        <ele>952.79999999999995</ele>
        <time>2025-04-24T15:26:19Z</time>
      </trkpt>
      <trkpt lat="45.480163022875786" lon="3.511892035603523">
        <ele>951.84000000000003</ele>
        <time>2025-04-24T15:26:20Z</time>
      </trkpt>
      <trkpt lat="45.480289002880454" lon="3.511763960123062">
        <ele>951.36000000000001</ele>
        <time>2025-04-24T15:26:21Z</time>
      </trkpt>
      <trkpt lat="45.48040802590549" lon="3.511643009260297">
        <ele>950.39999999999998</ele>
        <time>2025-04-24T15:26:22Z</time>
      </trkpt>
      <trkpt lat="45.480499975383282" lon="3.51147604174912">
        <ele>949.91999999999996</ele>
        <time>2025-04-24T15:26:23Z</time>
      </trkpt>
      <trkpt lat="45.480568958446383" lon="3.511277977377176">
        <ele>948.96000000000004</ele>
        <time>2025-04-24T15:26:24Z</time>
      </trkpt>
      <trkpt lat="45.480611035600305" lon="3.511063987389207">
        <ele>948.48000000000002</ele>
        <time>2025-04-24T15:26:25Z</time>
      </trkpt>
      <trkpt lat="45.480653028935194" lon="3.510845974087715">
        <ele>947.51999999999998</ele>
        <time>2025-04-24T15:26:26Z</time>
      </trkpt>
      <trkpt lat="45.480697033926845" lon="3.510622009634972">
        <ele>946.55999999999995</ele>
        <time>2025-04-24T15:26:27Z</time>
      </trkpt>
      <trkpt lat="45.480738021433353" lon="3.510411037132144">
        <ele>945.59000000000003</ele>
        <time>2025-04-24T15:26:28Z</time>
      </trkpt>
      <trkpt lat="45.480823013931513" lon="3.510233005508781">
        <ele>945.11000000000001</ele>
        <time>2025-04-24T15:26:29Z</time>
      </trkpt>
      <trkpt lat="45.480899959802628" lon="3.510071989148855">
        <ele>944.14999999999998</ele>
        <time>2025-04-24T15:26:30Z</time>
      </trkpt>
      <trkpt lat="45.480985958129168" lon="3.50990803912282">
        <ele>943.19000000000005</ele>
        <time>2025-04-24T15:26:31Z</time>
      </trkpt>
      <trkpt lat="45.481101041659713" lon="3.509818017482758">
        <ele>941.75</ele>
        <time>2025-04-24T15:26:32Z</time>
      </trkpt>
      <trkpt lat="45.481213023886085" lon="3.509729001671076">
        <ele>940.78999999999996</ele>
        <time>2025-04-24T15:26:33Z</time>
      </trkpt>
      <trkpt lat="45.481347972527146" lon="3.509666975587606">
        <ele>940.30999999999995</ele>
        <time>2025-04-24T15:26:34Z</time>
      </trkpt>
      <trkpt lat="45.481475964188576" lon="3.509641997516155">
        <ele>939.35000000000002</ele>
        <time>2025-04-24T15:26:35Z</time>
      </trkpt>
      <trkpt lat="45.481772013008595" lon="3.509585000574589">
        <ele>937.89999999999998</ele>
        <time>2025-04-24T15:26:37Z</time>
      </trkpt>
      <trkpt lat="45.482093961909413" lon="3.509457008913159">
        <ele>937.41999999999996</ele>
        <time>2025-04-24T15:26:39Z</time>
      </trkpt>
      <trkpt lat="45.482251960784197" lon="3.509360030293465">
        <ele>936.94000000000005</ele>
        <time>2025-04-24T15:26:40Z</time>
      </trkpt>
      <trkpt lat="45.482410965487361" lon="3.509261040017009">
        <ele>937.41999999999996</ele>
        <time>2025-04-24T15:26:41Z</time>
      </trkpt>
      <trkpt lat="45.48288001678884" lon="3.508951999247074">
        <ele>936.94000000000005</ele>
        <time>2025-04-24T15:26:44Z</time>
      </trkpt>
      <trkpt lat="45.48300901427865" lon="3.508810009807348">
        <ele>936.46000000000004</ele>
        <time>2025-04-24T15:26:45Z</time>
      </trkpt>
      <trkpt lat="45.483139017596841" lon="3.508645975962281">
        <ele>935.5</ele>
        <time>2025-04-24T15:26:46Z</time>
      </trkpt>
      <trkpt lat="45.4833759739995" lon="3.508325032889843">
        <ele>933.58000000000004</ele>
        <time>2025-04-24T15:26:48Z</time>
      </trkpt>
      <trkpt lat="45.483490973711014" lon="3.508225036785007">
        <ele>933.10000000000002</ele>
        <time>2025-04-24T15:26:49Z</time>
      </trkpt>
      <trkpt lat="45.483628017827868" lon="3.50814700126648">
        <ele>932.62</ele>
        <time>2025-04-24T15:26:50Z</time>
      </trkpt>
      <trkpt lat="45.484343999996781" lon="3.507928987964988">
        <ele>929.73000000000002</ele>
        <time>2025-04-24T15:26:55Z</time>
      </trkpt>
      <trkpt lat="45.484450031071901" lon="3.507899986580014">
        <ele>929.25</ele>
        <time>2025-04-24T15:26:56Z</time>
      </trkpt>
      <trkpt lat="45.484550027176738" lon="3.507972992956638">
        <ele>928.76999999999998</ele>
        <time>2025-04-24T15:26:57Z</time>
      </trkpt>
      <trkpt lat="45.484634013846517" lon="3.508035019040108">
        <ele>927.80999999999995</ele>
        <time>2025-04-24T15:26:58Z</time>
      </trkpt>
      <trkpt lat="45.484712971374393" lon="3.508092015981674">
        <ele>927.33000000000004</ele>
        <time>2025-04-24T15:26:59Z</time>
      </trkpt>
      <trkpt lat="45.48477197997272" lon="3.508136020973325">
        <ele>926.37</ele>
        <time>2025-04-24T15:27:00Z</time>
      </trkpt>
      <trkpt lat="45.484851021319628" lon="3.508149012923241">
        <ele>925.40999999999997</ele>
        <time>2025-04-24T15:27:01Z</time>
      </trkpt>
      <trkpt lat="45.48492101021111" lon="3.50812797434628">
        <ele>924.45000000000005</ele>
        <time>2025-04-24T15:27:02Z</time>
      </trkpt>
      <trkpt lat="45.484975995495915" lon="3.508045999333262">
        <ele>923.48000000000002</ele>
        <time>2025-04-24T15:27:03Z</time>
      </trkpt>
      <trkpt lat="45.48502997495234" lon="3.507960001006723">
        <ele>922.51999999999998</ele>
        <time>2025-04-24T15:27:04Z</time>
      </trkpt>
      <trkpt lat="45.48502997495234" lon="3.507771994918585">
        <ele>921.55999999999995</ele>
        <time>2025-04-24T15:27:05Z</time>
      </trkpt>
      <trkpt lat="45.485008014366031" lon="3.507679039612413">
        <ele>920.60000000000002</ele>
        <time>2025-04-24T15:27:06Z</time>
      </trkpt>
      <trkpt lat="45.484969038516283" lon="3.507510982453823">
        <ele>920.12</ele>
        <time>2025-04-24T15:27:07Z</time>
      </trkpt>
      <trkpt lat="45.48472898080945" lon="3.506484031677246">
        <ele>916.75</ele>
        <time>2025-04-24T15:27:12Z</time>
      </trkpt>
      <trkpt lat="45.484655974432826" lon="3.506299965083599">
        <ele>915.78999999999996</ele>
        <time>2025-04-24T15:27:13Z</time>
      </trkpt>
      <trkpt lat="45.484580034390092" lon="3.50610701367259">
        <ele>914.83000000000004</ele>
        <time>2025-04-24T15:27:14Z</time>
      </trkpt>
      <trkpt lat="45.48438398167491" lon="3.505610972642899">
        <ele>913.38999999999999</ele>
        <time>2025-04-24T15:27:17Z</time>
      </trkpt>
      <trkpt lat="45.484322039410472" lon="3.505453979596496">
        <ele>913.38999999999999</ele>
        <time>2025-04-24T15:27:18Z</time>
      </trkpt>
      <trkpt lat="45.484322039410472" lon="3.505363035947084">
        <ele>912.90999999999997</ele>
        <time>2025-04-24T15:27:19Z</time>
      </trkpt>
      <trkpt lat="45.484333019703627" lon="3.505181986838579">
        <ele>912.90999999999997</ele>
        <time>2025-04-24T15:27:20Z</time>
      </trkpt>
      <trkpt lat="45.484376018866897" lon="3.50496900267899">
        <ele>912.90999999999997</ele>
        <time>2025-04-24T15:27:21Z</time>
      </trkpt>
      <trkpt lat="45.484421029686928" lon="3.504742020741105">
        <ele>912.90999999999997</ele>
        <time>2025-04-24T15:27:22Z</time>
      </trkpt>
      <trkpt lat="45.484557989984751" lon="3.504056967794895">
        <ele>911.95000000000005</ele>
        <time>2025-04-24T15:27:25Z</time>
      </trkpt>
      <trkpt lat="45.484567964449525" lon="3.503839038312435">
        <ele>911.47000000000003</ele>
        <time>2025-04-24T15:27:26Z</time>
      </trkpt>
      <trkpt lat="45.484595960006118" lon="3.503258004784584">
        <ele>908.10000000000002</ele>
        <time>2025-04-24T15:27:29Z</time>
      </trkpt>
      <trkpt lat="45.484630996361375" lon="3.503102017566562">
        <ele>907.62</ele>
        <time>2025-04-24T15:27:30Z</time>
      </trkpt>
      <trkpt lat="45.484711965546012" lon="3.50294996984303">
        <ele>907.13999999999999</ele>
        <time>2025-04-24T15:27:31Z</time>
      </trkpt>
      <trkpt lat="45.484827971085906" lon="3.50279800593853">
        <ele>906.65999999999997</ele>
        <time>2025-04-24T15:27:32Z</time>
      </trkpt>
      <trkpt lat="45.484955962747335" lon="3.502662973478437">
        <ele>906.65999999999997</ele>
        <time>2025-04-24T15:27:33Z</time>
      </trkpt>
      <trkpt lat="45.48509200103581" lon="3.502520984038711">
        <ele>906.65999999999997</ele>
        <time>2025-04-24T15:27:34Z</time>
      </trkpt>
      <trkpt lat="45.485376985743642" lon="3.502219989895821">
        <ele>906.17999999999995</ele>
        <time>2025-04-24T15:27:36Z</time>
      </trkpt>
      <trkpt lat="45.485520986840129" lon="3.502070037648082">
        <ele>906.65999999999997</ele>
        <time>2025-04-24T15:27:37Z</time>
      </trkpt>
      <trkpt lat="45.486278962343931" lon="3.501050965860486">
        <ele>908.10000000000002</ele>
        <time>2025-04-24T15:27:43Z</time>
      </trkpt>
      <trkpt lat="45.486705014482141" lon="3.500624997541308">
        <ele>909.05999999999995</ele>
        <time>2025-04-24T15:27:46Z</time>
      </trkpt>
      <trkpt lat="45.486830994486809" lon="3.500472027808428">
        <ele>908.58000000000004</ele>
        <time>2025-04-24T15:27:47Z</time>
      </trkpt>
      <trkpt lat="45.486947000026703" lon="3.500281004235148">
        <ele>907.62</ele>
        <time>2025-04-24T15:27:48Z</time>
      </trkpt>
      <trkpt lat="45.4870680347085" lon="3.500081012025476">
        <ele>906.65999999999997</ele>
        <time>2025-04-24T15:27:49Z</time>
      </trkpt>
      <trkpt lat="45.487186973914504" lon="3.499870961531997">
        <ele>905.70000000000005</ele>
        <time>2025-04-24T15:27:50Z</time>
      </trkpt>
      <trkpt lat="45.487902034074068" lon="3.498320979997516">
        <ele>895.12</ele>
        <time>2025-04-24T15:27:57Z</time>
      </trkpt>
      <trkpt lat="45.487964982166886" lon="3.49807002581656">
        <ele>894.15999999999997</ele>
        <time>2025-04-24T15:27:58Z</time>
      </trkpt>
      <trkpt lat="45.488027008250356" lon="3.497819993644953">
        <ele>892.72000000000003</ele>
        <time>2025-04-24T15:27:59Z</time>
      </trkpt>
      <trkpt lat="45.488089034333825" lon="3.497571973130107">
        <ele>891.27999999999997</ele>
        <time>2025-04-24T15:28:00Z</time>
      </trkpt>
      <trkpt lat="45.488147959113121" lon="3.497338034212589">
        <ele>890.32000000000005</ele>
        <time>2025-04-24T15:28:01Z</time>
      </trkpt>
      <trkpt lat="45.488291038200259" lon="3.496764041483402">
        <ele>886.47000000000003</ele>
        <time>2025-04-24T15:28:04Z</time>
      </trkpt>
      <trkpt lat="45.488268993794918" lon="3.496643006801605">
        <ele>885.50999999999999</ele>
        <time>2025-04-24T15:28:05Z</time>
      </trkpt>
      <trkpt lat="45.488216020166874" lon="3.496359027922154">
        <ele>883.59000000000003</ele>
        <time>2025-04-24T15:28:07Z</time>
      </trkpt>
      <trkpt lat="45.4881870187819" lon="3.496198011562228">
        <ele>882.63</ele>
        <time>2025-04-24T15:28:08Z</time>
      </trkpt>
      <trkpt lat="45.488200010731816" lon="3.496110001578927">
        <ele>881.66999999999996</ele>
        <time>2025-04-24T15:28:09Z</time>
      </trkpt>
      <trkpt lat="45.488233035430312" lon="3.495955020189285">
        <ele>880.71000000000004</ele>
        <time>2025-04-24T15:28:10Z</time>
      </trkpt>
      <trkpt lat="45.488266982138157" lon="3.495791992172599">
        <ele>879.25999999999999</ele>
        <time>2025-04-24T15:28:11Z</time>
      </trkpt>
      <trkpt lat="45.488302018493414" lon="3.495627036318183">
        <ele>877.82000000000005</ele>
        <time>2025-04-24T15:28:12Z</time>
      </trkpt>
      <trkpt lat="45.488332025706768" lon="3.495420003309846">
        <ele>876.38</ele>
        <time>2025-04-24T15:28:13Z</time>
      </trkpt>
      <trkpt lat="45.488323979079723" lon="3.495244989171624">
        <ele>874.94000000000005</ele>
        <time>2025-04-24T15:28:14Z</time>
      </trkpt>
      <trkpt lat="45.48831601627171" lon="3.495072992518544">
        <ele>873.5</ele>
        <time>2025-04-24T15:28:15Z</time>
      </trkpt>
      <trkpt lat="45.488308975473046" lon="3.494914993643761">
        <ele>872.04999999999995</ele>
        <time>2025-04-24T15:28:16Z</time>
      </trkpt>
      <trkpt lat="45.488291038200259" lon="3.494532024487853">
        <ele>869.64999999999998</ele>
        <time>2025-04-24T15:28:18Z</time>
      </trkpt>
      <trkpt lat="45.488382987678051" lon="3.494287021458149">
        <ele>866.76999999999998</ele>
        <time>2025-04-24T15:28:20Z</time>
      </trkpt>
      <trkpt lat="45.48859597183764" lon="3.493720991536975">
        <ele>863.88</ele>
        <time>2025-04-24T15:28:23Z</time>
      </trkpt>
      <trkpt lat="45.488644000142813" lon="3.493510019034147">
        <ele>862.44000000000005</ele>
        <time>2025-04-24T15:28:24Z</time>
      </trkpt>
      <trkpt lat="45.488713989034295" lon="3.493127971887589">
        <ele>860.03999999999996</ele>
        <time>2025-04-24T15:28:26Z</time>
      </trkpt>
      <trkpt lat="45.488774003461003" lon="3.492970978841186">
        <ele>859.08000000000004</ele>
        <time>2025-04-24T15:28:27Z</time>
      </trkpt>
      <trkpt lat="45.488849021494389" lon="3.492794036865234">
        <ele>858.11000000000001</ele>
        <time>2025-04-24T15:28:28Z</time>
      </trkpt>
      <trkpt lat="45.48958302475512" lon="3.491895999759436">
        <ele>851.87</ele>
        <time>2025-04-24T15:28:34Z</time>
      </trkpt>
      <trkpt lat="45.489743035286665" lon="3.491785023361445">
        <ele>851.38</ele>
        <time>2025-04-24T15:28:35Z</time>
      </trkpt>
      <trkpt lat="45.490209991112351" lon="3.491526022553444">
        <ele>848.98000000000002</ele>
        <time>2025-04-24T15:28:38Z</time>
      </trkpt>
      <trkpt lat="45.49037603661418" lon="3.491480005905032">
        <ele>848.5</ele>
        <time>2025-04-24T15:28:39Z</time>
      </trkpt>
      <trkpt lat="45.491071986034513" lon="3.49128495901823">
        <ele>846.58000000000004</ele>
        <time>2025-04-24T15:28:43Z</time>
      </trkpt>
      <trkpt lat="45.491245994344354" lon="3.491204995661974">
        <ele>846.58000000000004</ele>
        <time>2025-04-24T15:28:44Z</time>
      </trkpt>
      <trkpt lat="45.492057027295232" lon="3.490683976560831">
        <ele>845.13999999999999</ele>
        <time>2025-04-24T15:28:49Z</time>
      </trkpt>
      <trkpt lat="45.492209997028112" lon="3.490546010434628">
        <ele>844.65999999999997</ele>
        <time>2025-04-24T15:28:50Z</time>
      </trkpt>
      <trkpt lat="45.492473021149635" lon="3.490215009078383">
        <ele>842.73000000000002</ele>
        <time>2025-04-24T15:28:52Z</time>
      </trkpt>
      <trkpt lat="45.492603024467826" lon="3.490046029910445">
        <ele>841.28999999999996</ele>
        <time>2025-04-24T15:28:53Z</time>
      </trkpt>
      <trkpt lat="45.492727998644114" lon="3.489883001893759">
        <ele>840.80999999999995</ele>
        <time>2025-04-24T15:28:54Z</time>
      </trkpt>
      <trkpt lat="45.492849033325911" lon="3.489726008847356">
        <ele>839.85000000000002</ele>
        <time>2025-04-24T15:28:55Z</time>
      </trkpt>
      <trkpt lat="45.492948023602366" lon="3.489597011357546">
        <ele>838.88999999999999</ele>
        <time>2025-04-24T15:28:56Z</time>
      </trkpt>
      <trkpt lat="45.493100993335247" lon="3.489539008587599">
        <ele>837.92999999999995</ele>
        <time>2025-04-24T15:28:57Z</time>
      </trkpt>
      <trkpt lat="45.49323501996696" lon="3.489488968625665">
        <ele>836.96000000000004</ele>
        <time>2025-04-24T15:28:58Z</time>
      </trkpt>
      <trkpt lat="45.493382038548589" lon="3.489468013867736">
        <ele>836</ele>
        <time>2025-04-24T15:28:59Z</time>
      </trkpt>
      <trkpt lat="45.493934992700815" lon="3.489468013867736">
        <ele>832.15999999999997</ele>
        <time>2025-04-24T15:29:03Z</time>
      </trkpt>
      <trkpt lat="45.494046974927187" lon="3.489362988620997">
        <ele>831.20000000000005</ele>
        <time>2025-04-24T15:29:04Z</time>
      </trkpt>
      <trkpt lat="45.494154011830688" lon="3.489260980859399">
        <ele>830.24000000000001</ele>
        <time>2025-04-24T15:29:05Z</time>
      </trkpt>
      <trkpt lat="45.494257025420666" lon="3.489165008068085">
        <ele>829.26999999999998</ele>
        <time>2025-04-24T15:29:06Z</time>
      </trkpt>
      <trkpt lat="45.494369007647038" lon="3.489114968106151">
        <ele>829.26999999999998</ele>
        <time>2025-04-24T15:29:07Z</time>
      </trkpt>
      <trkpt lat="45.49448199570179" lon="3.489122008904815">
        <ele>828.78999999999996</ele>
        <time>2025-04-24T15:29:08Z</time>
      </trkpt>
      <trkpt lat="45.494593977928162" lon="3.489185040816665">
        <ele>828.30999999999995</ele>
        <time>2025-04-24T15:29:09Z</time>
      </trkpt>
      <trkpt lat="45.49471702426672" lon="3.489254023879767">
        <ele>827.83000000000004</ele>
        <time>2025-04-24T15:29:10Z</time>
      </trkpt>
      <trkpt lat="45.494841998443007" lon="3.48928595893085">
        <ele>827.35000000000002</ele>
        <time>2025-04-24T15:29:11Z</time>
      </trkpt>
      <trkpt lat="45.494979964569211" lon="3.489255029708147">
        <ele>826.87</ele>
        <time>2025-04-24T15:29:12Z</time>
      </trkpt>
      <trkpt lat="45.49512698315084" lon="3.489217981696129">
        <ele>826.38999999999999</ele>
        <time>2025-04-24T15:29:13Z</time>
      </trkpt>
      <trkpt lat="45.495279030874372" lon="3.489180011674762">
        <ele>826.38999999999999</ele>
        <time>2025-04-24T15:29:14Z</time>
      </trkpt>
      <trkpt lat="45.495435018092394" lon="3.489168025553227">
        <ele>825.90999999999997</ele>
        <time>2025-04-24T15:29:15Z</time>
      </trkpt>
      <trkpt lat="45.495607014745474" lon="3.489168025553227">
        <ele>825.42999999999995</ele>
        <time>2025-04-24T15:29:16Z</time>
      </trkpt>
      <trkpt lat="45.495787980034947" lon="3.489168025553227">
        <ele>824.95000000000005</ele>
        <time>2025-04-24T15:29:17Z</time>
      </trkpt>
      <trkpt lat="45.496277986094356" lon="3.489178000018001">
        <ele>822.54999999999995</ele>
        <time>2025-04-24T15:29:20Z</time>
      </trkpt>
      <trkpt lat="45.496433973312378" lon="3.489211024716497">
        <ele>821.10000000000002</ele>
        <time>2025-04-24T15:29:21Z</time>
      </trkpt>
      <trkpt lat="45.49658602103591" lon="3.489267015829682">
        <ele>819.65999999999997</ele>
        <time>2025-04-24T15:29:22Z</time>
      </trkpt>
      <trkpt lat="45.496720969676971" lon="3.489352008327842">
        <ele>818.22000000000003</ele>
        <time>2025-04-24T15:29:23Z</time>
      </trkpt>
      <trkpt lat="45.496836975216866" lon="3.489425014704466">
        <ele>816.77999999999997</ele>
        <time>2025-04-24T15:29:24Z</time>
      </trkpt>
      <trkpt lat="45.496959015727043" lon="3.489472037181258">
        <ele>815.82000000000005</ele>
        <time>2025-04-24T15:29:25Z</time>
      </trkpt>
      <trkpt lat="45.497049959376454" lon="3.489396013319492">
        <ele>814.85000000000002</ele>
        <time>2025-04-24T15:29:26Z</time>
      </trkpt>
      <trkpt lat="45.497144004330039" lon="3.489316971972585">
        <ele>813.40999999999997</ele>
        <time>2025-04-24T15:29:27Z</time>
      </trkpt>
      <trkpt lat="45.497240982949734" lon="3.489234996959567">
        <ele>812.45000000000005</ele>
        <time>2025-04-24T15:29:28Z</time>
      </trkpt>
      <trkpt lat="45.497332010418177" lon="3.489157967269421">
        <ele>811.97000000000003</ele>
        <time>2025-04-24T15:29:29Z</time>
      </trkpt>
      <trkpt lat="45.497419014573097" lon="3.489084038883448">
        <ele>811.00999999999999</ele>
        <time>2025-04-24T15:29:30Z</time>
      </trkpt>
      <trkpt lat="45.497590005397797" lon="3.488940037786961">
        <ele>809.57000000000005</ele>
        <time>2025-04-24T15:29:32Z</time>
      </trkpt>
      <trkpt lat="45.497701987624168" lon="3.488920005038381">
        <ele>808.13</ele>
        <time>2025-04-24T15:29:33Z</time>
      </trkpt>
      <trkpt lat="45.497787985950708" lon="3.488929979503155">
        <ele>807.15999999999997</ele>
        <time>2025-04-24T15:29:34Z</time>
      </trkpt>
      <trkpt lat="45.497887982055545" lon="3.488980019465089">
        <ele>805.72000000000003</ele>
        <time>2025-04-24T15:29:35Z</time>
      </trkpt>
      <trkpt lat="45.497996024787426" lon="3.489037016406655">
        <ele>804.75999999999999</ele>
        <time>2025-04-24T15:29:36Z</time>
      </trkpt>
      <trkpt lat="45.498100966215134" lon="3.489092001691461">
        <ele>803.79999999999995</ele>
        <time>2025-04-24T15:29:37Z</time>
      </trkpt>
      <trkpt lat="45.498190987855196" lon="3.489107005298138">
        <ele>802.36000000000001</ele>
        <time>2025-04-24T15:29:38Z</time>
      </trkpt>
      <trkpt lat="45.498269023373723" lon="3.489059982821345">
        <ele>801.39999999999998</ele>
        <time>2025-04-24T15:29:39Z</time>
      </trkpt>
      <trkpt lat="45.498313028365374" lon="3.488971972838044">
        <ele>800.44000000000005</ele>
        <time>2025-04-24T15:29:40Z</time>
      </trkpt>
      <trkpt lat="45.49832995980978" lon="3.48889896646142">
        <ele>799.47000000000003</ele>
        <time>2025-04-24T15:29:41Z</time>
      </trkpt>
      <trkpt lat="45.498317973688245" lon="3.488771980628371">
        <ele>798.99000000000001</ele>
        <time>2025-04-24T15:29:42Z</time>
      </trkpt>
      <trkpt lat="45.498304981738329" lon="3.488634014502168">
        <ele>798.02999999999997</ele>
        <time>2025-04-24T15:29:43Z</time>
      </trkpt>
      <trkpt lat="45.498290983960032" lon="3.48848800174892">
        <ele>797.07000000000005</ele>
        <time>2025-04-24T15:29:44Z</time>
      </trkpt>
      <trkpt lat="45.498276986181736" lon="3.488344000652432">
        <ele>796.11000000000001</ele>
        <time>2025-04-24T15:29:45Z</time>
      </trkpt>
      <trkpt lat="45.4982840269804" lon="3.488193964585662">
        <ele>794.66999999999996</ele>
        <time>2025-04-24T15:29:46Z</time>
      </trkpt>
      <trkpt lat="45.498335994780064" lon="3.488067984580994">
        <ele>793.71000000000004</ele>
        <time>2025-04-24T15:29:47Z</time>
      </trkpt>
      <trkpt lat="45.498415036126971" lon="3.487936975434423">
        <ele>792.74000000000001</ele>
        <time>2025-04-24T15:29:48Z</time>
      </trkpt>
      <trkpt lat="45.498516038060188" lon="3.487893976271153">
        <ele>792.25999999999999</ele>
        <time>2025-04-24T15:29:49Z</time>
      </trkpt>
      <trkpt lat="45.498639000579715" lon="3.487875033169985">
        <ele>791.29999999999995</ele>
        <time>2025-04-24T15:29:50Z</time>
      </trkpt>
      <trkpt lat="45.498761041089892" lon="3.487867992371321">
        <ele>790.82000000000005</ele>
        <time>2025-04-24T15:29:51Z</time>
      </trkpt>
      <trkpt lat="45.498956004157662" lon="3.487830022349954">
        <ele>789.86000000000001</ele>
        <time>2025-04-24T15:29:53Z</time>
      </trkpt>
      <trkpt lat="45.499042002484202" lon="3.487773025408387">
        <ele>789.86000000000001</ele>
        <time>2025-04-24T15:29:54Z</time>
      </trkpt>
      <trkpt lat="45.499081984162331" lon="3.487678980454803">
        <ele>789.38</ele>
        <time>2025-04-24T15:29:55Z</time>
      </trkpt>
      <trkpt lat="45.499103022739291" lon="3.48754202015698">
        <ele>788.89999999999998</ele>
        <time>2025-04-24T15:29:56Z</time>
      </trkpt>
      <trkpt lat="45.499096987769008" lon="3.487377986311913">
        <ele>788.89999999999998</ele>
        <time>2025-04-24T15:29:57Z</time>
      </trkpt>
      <trkpt lat="45.499090030789375" lon="3.48720196634531">
        <ele>788.41999999999996</ele>
        <time>2025-04-24T15:29:58Z</time>
      </trkpt>
      <trkpt lat="45.499097993597388" lon="3.486999040469527">
        <ele>787.94000000000005</ele>
        <time>2025-04-24T15:29:59Z</time>
      </trkpt>
      <trkpt lat="45.499152978882194" lon="3.486820003017783">
        <ele>787.94000000000005</ele>
        <time>2025-04-24T15:30:00Z</time>
      </trkpt>
      <trkpt lat="45.499371998012066" lon="3.486099997535348">
        <ele>788.89999999999998</ele>
        <time>2025-04-24T15:30:04Z</time>
      </trkpt>
      <trkpt lat="45.499470988288522" lon="3.485967982560396">
        <ele>788.89999999999998</ele>
        <time>2025-04-24T15:30:05Z</time>
      </trkpt>
      <trkpt lat="45.499589005485177" lon="3.48584602586925">
        <ele>788.89999999999998</ele>
        <time>2025-04-24T15:30:06Z</time>
      </trkpt>
      <trkpt lat="45.499714985489845" lon="3.48571602255106">
        <ele>789.38</ele>
        <time>2025-04-24T15:30:07Z</time>
      </trkpt>
      <trkpt lat="45.4998520296067" lon="3.485574033111334">
        <ele>789.86000000000001</ele>
        <time>2025-04-24T15:30:08Z</time>
      </trkpt>
      <trkpt lat="45.499989995732903" lon="3.485431959852576">
        <ele>790.34000000000003</ele>
        <time>2025-04-24T15:30:09Z</time>
      </trkpt>
      <trkpt lat="45.500111030414701" lon="3.485261974856257">
        <ele>790.82000000000005</ele>
        <time>2025-04-24T15:30:10Z</time>
      </trkpt>
      <trkpt lat="45.500216977670789" lon="3.48507204093039">
        <ele>791.29999999999995</ele>
        <time>2025-04-24T15:30:11Z</time>
      </trkpt>
      <trkpt lat="45.50041101872921" lon="3.484669961035252">
        <ele>791.29999999999995</ele>
        <time>2025-04-24T15:30:13Z</time>
      </trkpt>
      <trkpt lat="45.500587038695812" lon="3.484295960515738">
        <ele>792.25999999999999</ele>
        <time>2025-04-24T15:30:15Z</time>
      </trkpt>
      <trkpt lat="45.500753000378609" lon="3.483942998573184">
        <ele>792.74000000000001</ele>
        <time>2025-04-24T15:30:17Z</time>
      </trkpt>
      <trkpt lat="45.50090697593987" lon="3.483616020530462">
        <ele>793.71000000000004</ele>
        <time>2025-04-24T15:30:19Z</time>
      </trkpt>
      <trkpt lat="45.501007977873087" lon="3.483461961150169">
        <ele>794.19000000000005</ele>
        <time>2025-04-24T15:30:20Z</time>
      </trkpt>
      <trkpt lat="45.501123983412981" lon="3.483306979760528">
        <ele>794.19000000000005</ele>
        <time>2025-04-24T15:30:21Z</time>
      </trkpt>
      <trkpt lat="45.502040041610599" lon="3.482224959880114">
        <ele>797.54999999999995</ele>
        <time>2025-04-24T15:30:28Z</time>
      </trkpt>
      <trkpt lat="45.502199968323112" lon="3.482134016230702">
        <ele>798.02999999999997</ele>
        <time>2025-04-24T15:30:29Z</time>
      </trkpt>
      <trkpt lat="45.502362996339798" lon="3.482040977105498">
        <ele>798.50999999999999</ele>
        <time>2025-04-24T15:30:30Z</time>
      </trkpt>
      <trkpt lat="45.502522001042962" lon="3.481970988214016">
        <ele>798.99000000000001</ele>
        <time>2025-04-24T15:30:31Z</time>
      </trkpt>
      <trkpt lat="45.5026909802109" lon="3.48191499710083">
        <ele>798.99000000000001</ele>
        <time>2025-04-24T15:30:32Z</time>
      </trkpt>
      <trkpt lat="45.502867000177503" lon="3.481855988502502">
        <ele>799.47000000000003</ele>
        <time>2025-04-24T15:30:33Z</time>
      </trkpt>
      <trkpt lat="45.503046959638596" lon="3.481795974075794">
        <ele>799.95000000000005</ele>
        <time>2025-04-24T15:30:34Z</time>
      </trkpt>
      <trkpt lat="45.503939967602491" lon="3.481795974075794">
        <ele>799.47000000000003</ele>
        <time>2025-04-24T15:30:39Z</time>
      </trkpt>
      <trkpt lat="45.504081035032868" lon="3.481830004602671">
        <ele>798.99000000000001</ele>
        <time>2025-04-24T15:30:40Z</time>
      </trkpt>
      <trkpt lat="45.504213972017169" lon="3.481862023472786">
        <ele>798.50999999999999</ele>
        <time>2025-04-24T15:30:41Z</time>
      </trkpt>
      <trkpt lat="45.504339030012488" lon="3.481839979067445">
        <ele>798.99000000000001</ele>
        <time>2025-04-24T15:30:42Z</time>
      </trkpt>
      <trkpt lat="45.504478001967072" lon="3.48178599961102">
        <ele>799.47000000000003</ele>
        <time>2025-04-24T15:30:43Z</time>
      </trkpt>
      <trkpt lat="45.504608005285263" lon="3.481735037639737">
        <ele>799.95000000000005</ele>
        <time>2025-04-24T15:30:44Z</time>
      </trkpt>
      <trkpt lat="45.50473197363317" lon="3.481718022376299">
        <ele>799.95000000000005</ele>
        <time>2025-04-24T15:30:45Z</time>
      </trkpt>
      <trkpt lat="45.504847979173064" lon="3.481711987406015">
        <ele>800.44000000000005</ele>
        <time>2025-04-24T15:30:46Z</time>
      </trkpt>
      <trkpt lat="45.504954010248184" lon="3.481706958264113">
        <ele>800.44000000000005</ele>
        <time>2025-04-24T15:30:47Z</time>
      </trkpt>
      <trkpt lat="45.505045037716627" lon="3.481703018769622">
        <ele>799.95000000000005</ele>
        <time>2025-04-24T15:30:48Z</time>
      </trkpt>
      <trkpt lat="45.50511796027422" lon="3.481675023213029">
        <ele>799.95000000000005</ele>
        <time>2025-04-24T15:30:49Z</time>
      </trkpt>
      <trkpt lat="45.505175963044167" lon="3.481617020443082">
        <ele>800.44000000000005</ele>
        <time>2025-04-24T15:30:50Z</time>
      </trkpt>
      <trkpt lat="45.505203036591411" lon="3.481531022116542">
        <ele>800.44000000000005</ele>
        <time>2025-04-24T15:30:51Z</time>
      </trkpt>
      <trkpt lat="45.505236983299255" lon="3.48141903989017">
        <ele>800.44000000000005</ele>
        <time>2025-04-24T15:30:52Z</time>
      </trkpt>
      <trkpt lat="45.505221979692578" lon="3.481326000764966">
        <ele>800.44000000000005</ele>
        <time>2025-04-24T15:30:53Z</time>
      </trkpt>
      <trkpt lat="45.505180992186069" lon="3.481185017153621">
        <ele>800.91999999999996</ele>
        <time>2025-04-24T15:30:54Z</time>
      </trkpt>
      <trkpt lat="45.505136987194419" lon="3.481029029935598">
        <ele>801.39999999999998</ele>
        <time>2025-04-24T15:30:55Z</time>
      </trkpt>
      <trkpt lat="45.505041014403105" lon="3.480692999437451">
        <ele>802.36000000000001</ele>
        <time>2025-04-24T15:30:57Z</time>
      </trkpt>
      <trkpt lat="45.504986029118299" lon="3.480484038591385">
        <ele>802.84000000000003</ele>
        <time>2025-04-24T15:30:58Z</time>
      </trkpt>
      <trkpt lat="45.504994997754693" lon="3.480292009189725">
        <ele>803.32000000000005</ele>
        <time>2025-04-24T15:30:59Z</time>
      </trkpt>
      <trkpt lat="45.505022993311286" lon="3.479707036167383">
        <ele>805.24000000000001</ele>
        <time>2025-04-24T15:31:02Z</time>
      </trkpt>
      <trkpt lat="45.505048977211118" lon="3.479505032300949">
        <ele>805.72000000000003</ele>
        <time>2025-04-24T15:31:03Z</time>
      </trkpt>
      <trkpt lat="45.505174035206437" lon="3.478958029299974">
        <ele>807.63999999999999</ele>
        <time>2025-04-24T15:31:06Z</time>
      </trkpt>
      <trkpt lat="45.505222985520959" lon="3.478828025981784">
        <ele>807.63999999999999</ele>
        <time>2025-04-24T15:31:07Z</time>
      </trkpt>
      <trkpt lat="45.505306972190738" lon="3.478760970756412">
        <ele>808.13</ele>
        <time>2025-04-24T15:31:08Z</time>
      </trkpt>
      <trkpt lat="45.505378972738981" lon="3.478717971593142">
        <ele>808.13</ele>
        <time>2025-04-24T15:31:09Z</time>
      </trkpt>
      <trkpt lat="45.50543999299407" lon="3.478681007400155">
        <ele>808.61000000000001</ele>
        <time>2025-04-24T15:31:10Z</time>
      </trkpt>
      <trkpt lat="45.505477963015437" lon="3.478658040985465">
        <ele>808.61000000000001</ele>
        <time>2025-04-24T15:31:11Z</time>
      </trkpt>
      <trkpt lat="45.505499001592398" lon="3.478645971044898">
        <ele>808.61000000000001</ele>
        <time>2025-04-24T15:31:12Z</time>
      </trkpt>
      <trkpt lat="45.505499001592398" lon="3.478645971044898">
        <ele>809.09000000000003</ele>
        <time>2025-04-24T15:31:25Z</time>
      </trkpt>
      <trkpt lat="45.505502019077539" lon="3.478643959388137">
        <ele>809.09000000000003</ele>
        <time>2025-04-24T15:31:58Z</time>
      </trkpt>
      <trkpt lat="45.505537977442145" lon="3.478623004630208">
        <ele>810.04999999999995</ele>
        <time>2025-04-24T15:31:59Z</time>
      </trkpt>
      <trkpt lat="45.506048016250134" lon="3.478309018537402">
        <ele>812.92999999999995</ele>
        <time>2025-04-24T15:32:05Z</time>
      </trkpt>
      <trkpt lat="45.506152035668492" lon="3.47824296914041">
        <ele>812.92999999999995</ele>
        <time>2025-04-24T15:32:06Z</time>
      </trkpt>
      <trkpt lat="45.506264017894864" lon="3.478179015219212">
        <ele>813.40999999999997</ele>
        <time>2025-04-24T15:32:07Z</time>
      </trkpt>
      <trkpt lat="45.506392009556293" lon="3.478150013834238">
        <ele>813.40999999999997</ele>
        <time>2025-04-24T15:32:08Z</time>
      </trkpt>
      <trkpt lat="45.506528969854116" lon="3.478120006620884">
        <ele>813.40999999999997</ele>
        <time>2025-04-24T15:32:09Z</time>
      </trkpt>
      <trkpt lat="45.506659979000688" lon="3.478080024942756">
        <ele>813.40999999999997</ele>
        <time>2025-04-24T15:32:10Z</time>
      </trkpt>
      <trkpt lat="45.506774978712201" lon="3.477999977767468">
        <ele>813.88999999999999</ele>
        <time>2025-04-24T15:32:11Z</time>
      </trkpt>
      <trkpt lat="45.506874974817038" lon="3.477911967784166">
        <ele>813.88999999999999</ele>
        <time>2025-04-24T15:32:12Z</time>
      </trkpt>
      <trkpt lat="45.506958039477468" lon="3.477791016921401">
        <ele>814.37</ele>
        <time>2025-04-24T15:32:13Z</time>
      </trkpt>
      <trkpt lat="45.507044037804008" lon="3.477665958926082">
        <ele>813.88999999999999</ele>
        <time>2025-04-24T15:32:14Z</time>
      </trkpt>
      <trkpt lat="45.507241012528539" lon="3.477378962561488">
        <ele>813.40999999999997</ele>
        <time>2025-04-24T15:32:17Z</time>
      </trkpt>
      <trkpt lat="45.507283005863428" lon="3.477319031953812">
        <ele>812.92999999999995</ele>
        <time>2025-04-24T15:32:18Z</time>
      </trkpt>
      <trkpt lat="45.507306978106499" lon="3.477231021970511">
        <ele>812.45000000000005</ele>
        <time>2025-04-24T15:32:19Z</time>
      </trkpt>
      <trkpt lat="45.507269008085132" lon="3.477168995887041">
        <ele>811.97000000000003</ele>
        <time>2025-04-24T15:32:20Z</time>
      </trkpt>
      <trkpt lat="45.507217040285468" lon="3.477082997560501">
        <ele>811.49000000000001</ele>
        <time>2025-04-24T15:32:21Z</time>
      </trkpt>
      <trkpt lat="45.507149985060096" lon="3.476974032819271">
        <ele>811.49000000000001</ele>
        <time>2025-04-24T15:32:22Z</time>
      </trkpt>
      <trkpt lat="45.5063830409199" lon="3.475756980478764">
        <ele>810.52999999999997</ele>
        <time>2025-04-24T15:32:31Z</time>
      </trkpt>
      <trkpt lat="45.505543006584048" lon="3.474727012217045">
        <ele>804.75999999999999</ele>
        <time>2025-04-24T15:32:38Z</time>
      </trkpt>
      <trkpt lat="45.505438987165689" lon="3.474545041099191">
        <ele>803.32000000000005</ele>
        <time>2025-04-24T15:32:39Z</time>
      </trkpt>
      <trkpt lat="45.504780001938343" lon="3.473559999838471">
        <ele>792.25999999999999</ele>
        <time>2025-04-24T15:32:45Z</time>
      </trkpt>
      <trkpt lat="45.504705989733338" lon="3.473461009562016">
        <ele>790.82000000000005</ele>
        <time>2025-04-24T15:32:46Z</time>
      </trkpt>
      <trkpt lat="45.504684029147029" lon="3.4732770267874">
        <ele>788.89999999999998</ele>
        <time>2025-04-24T15:32:47Z</time>
      </trkpt>
      <trkpt lat="45.50466500222683" lon="3.473132019862533">
        <ele>787.46000000000004</ele>
        <time>2025-04-24T15:32:48Z</time>
      </trkpt>
      <trkpt lat="45.504674976691604" lon="3.472989024594426">
        <ele>786.01999999999998</ele>
        <time>2025-04-24T15:32:49Z</time>
      </trkpt>
      <trkpt lat="45.504696015268564" lon="3.472835971042514">
        <ele>784.09000000000003</ele>
        <time>2025-04-24T15:32:50Z</time>
      </trkpt>
      <trkpt lat="45.504733985289931" lon="3.472670009359717">
        <ele>782.64999999999998</ele>
        <time>2025-04-24T15:32:51Z</time>
      </trkpt>
      <trkpt lat="45.504834987223148" lon="3.47216097638011">
        <ele>777.36000000000001</ele>
        <time>2025-04-24T15:32:54Z</time>
      </trkpt>
      <trkpt lat="45.504834987223148" lon="3.472015969455242">
        <ele>776.39999999999998</ele>
        <time>2025-04-24T15:32:55Z</time>
      </trkpt>
      <trkpt lat="45.504834987223148" lon="3.471872974187136">
        <ele>774.96000000000004</ele>
        <time>2025-04-24T15:32:56Z</time>
      </trkpt>
      <trkpt lat="45.504801040515304" lon="3.471745988354087">
        <ele>774</ele>
        <time>2025-04-24T15:32:57Z</time>
      </trkpt>
      <trkpt lat="45.50475100055337" lon="3.471609028056264">
        <ele>773.03999999999996</ele>
        <time>2025-04-24T15:32:58Z</time>
      </trkpt>
      <trkpt lat="45.504667013883591" lon="3.471491010859609">
        <ele>772.08000000000004</ele>
        <time>2025-04-24T15:32:59Z</time>
      </trkpt>
      <trkpt lat="45.504577998071909" lon="3.47136695869267">
        <ele>771.11000000000001</ele>
        <time>2025-04-24T15:33:00Z</time>
      </trkpt>
      <trkpt lat="45.504299970343709" lon="3.470863038673997">
        <ele>766.78999999999996</ele>
        <time>2025-04-24T15:33:04Z</time>
      </trkpt>
      <trkpt lat="45.504265017807484" lon="3.470787014812231">
        <ele>765.83000000000004</ele>
        <time>2025-04-24T15:33:05Z</time>
      </trkpt>
      <trkpt lat="45.504201985895634" lon="3.470650976523757">
        <ele>763.89999999999998</ele>
        <time>2025-04-24T15:33:07Z</time>
      </trkpt>
      <trkpt lat="45.504140965640545" lon="3.470639996230602">
        <ele>762.94000000000005</ele>
        <time>2025-04-24T15:33:08Z</time>
      </trkpt>
      <trkpt lat="45.504068965092301" lon="3.470657011494041">
        <ele>761.98000000000002</ele>
        <time>2025-04-24T15:33:09Z</time>
      </trkpt>
      <trkpt lat="45.503981960937381" lon="3.470677966251969">
        <ele>761.01999999999998</ele>
        <time>2025-04-24T15:33:10Z</time>
      </trkpt>
      <trkpt lat="45.503880959004164" lon="3.470702022314072">
        <ele>760.53999999999996</ele>
        <time>2025-04-24T15:33:11Z</time>
      </trkpt>
      <trkpt lat="45.503638973459601" lon="3.470735969021916">
        <ele>758.62</ele>
        <time>2025-04-24T15:33:13Z</time>
      </trkpt>
      <trkpt lat="45.503508970141411" lon="3.470694981515408">
        <ele>757.17999999999995</ele>
        <time>2025-04-24T15:33:14Z</time>
      </trkpt>
      <trkpt lat="45.503391958773136" lon="3.470618035644293">
        <ele>756.21000000000004</ele>
        <time>2025-04-24T15:33:15Z</time>
      </trkpt>
      <trkpt lat="45.503272013738751" lon="3.470537988469005">
        <ele>754.76999999999998</ele>
        <time>2025-04-24T15:33:16Z</time>
      </trkpt>
      <trkpt lat="45.503147961571813" lon="3.470455007627606">
        <ele>753.80999999999995</ele>
        <time>2025-04-24T15:33:17Z</time>
      </trkpt>
      <trkpt lat="45.502892984077334" lon="3.470285022631288">
        <ele>752.37</ele>
        <time>2025-04-24T15:33:19Z</time>
      </trkpt>
      <trkpt lat="45.502759963274002" lon="3.470206987112761">
        <ele>751.40999999999997</ele>
        <time>2025-04-24T15:33:20Z</time>
      </trkpt>
      <trkpt lat="45.502615962177515" lon="3.470153007656336">
        <ele>750.45000000000005</ele>
        <time>2025-04-24T15:33:21Z</time>
      </trkpt>
      <trkpt lat="45.501476023346186" lon="3.469833992421627">
        <ele>746.12</ele>
        <time>2025-04-24T15:33:30Z</time>
      </trkpt>
      <trkpt lat="45.50138097256422" lon="3.469833992421627">
        <ele>746.12</ele>
        <time>2025-04-24T15:33:31Z</time>
      </trkpt>
      <trkpt lat="45.501280976459384" lon="3.469833992421627">
        <ele>746.12</ele>
        <time>2025-04-24T15:33:32Z</time>
      </trkpt>
      <trkpt lat="45.500817960128188" lon="3.469942035153508">
        <ele>746.12</ele>
        <time>2025-04-24T15:33:36Z</time>
      </trkpt>
      <trkpt lat="45.500717964023352" lon="3.469927031546831">
        <ele>746.12</ele>
        <time>2025-04-24T15:33:37Z</time>
      </trkpt>
      <trkpt lat="45.500641018152237" lon="3.469865005463362">
        <ele>746.12</ele>
        <time>2025-04-24T15:33:38Z</time>
      </trkpt>
      <trkpt lat="45.500603970140219" lon="3.469770038500428">
        <ele>746.12</ele>
        <time>2025-04-24T15:33:39Z</time>
      </trkpt>
      <trkpt lat="45.500567005947232" lon="3.469630982726812">
        <ele>745.63999999999999</ele>
        <time>2025-04-24T15:33:40Z</time>
      </trkpt>
      <trkpt lat="45.500591984018683" lon="3.469520006328821">
        <ele>745.15999999999997</ele>
        <time>2025-04-24T15:33:41Z</time>
      </trkpt>
      <trkpt lat="45.500689968466759" lon="3.469380028545857">
        <ele>744.67999999999995</ele>
        <time>2025-04-24T15:33:42Z</time>
      </trkpt>
      <trkpt lat="45.500788036733866" lon="3.469296963885427">
        <ele>744.67999999999995</ele>
        <time>2025-04-24T15:33:43Z</time>
      </trkpt>
      <trkpt lat="45.501556992530823" lon="3.468596991151571">
        <ele>749.97000000000003</ele>
        <time>2025-04-24T15:33:49Z</time>
      </trkpt>
      <trkpt lat="45.501895034685731" lon="3.468246962875128">
        <ele>753.80999999999995</ele>
        <time>2025-04-24T15:33:52Z</time>
      </trkpt>
      <trkpt lat="45.501966029405594" lon="3.468085024505854">
        <ele>755.25</ele>
        <time>2025-04-24T15:33:53Z</time>
      </trkpt>
      <trkpt lat="45.502020008862019" lon="3.467960972338915">
        <ele>756.69000000000005</ele>
        <time>2025-04-24T15:33:54Z</time>
      </trkpt>
      <trkpt lat="45.502053033560514" lon="3.467845972627401">
        <ele>758.13999999999999</ele>
        <time>2025-04-24T15:33:55Z</time>
      </trkpt>
      <trkpt lat="45.502051021903753" lon="3.46769099123776">
        <ele>759.10000000000002</ele>
        <time>2025-04-24T15:33:56Z</time>
      </trkpt>
      <trkpt lat="45.501982038840652" lon="3.467571968212724">
        <ele>760.53999999999996</ele>
        <time>2025-04-24T15:33:57Z</time>
      </trkpt>
      <trkpt lat="45.501867961138487" lon="3.467508014291525">
        <ele>761.5</ele>
        <time>2025-04-24T15:33:58Z</time>
      </trkpt>
      <trkpt lat="45.501741981133819" lon="3.467508014291525">
        <ele>762.46000000000004</ele>
        <time>2025-04-24T15:33:59Z</time>
      </trkpt>
      <trkpt lat="45.501618012785912" lon="3.467570040374994">
        <ele>763.89999999999998</ele>
        <time>2025-04-24T15:34:00Z</time>
      </trkpt>
      <trkpt lat="45.50146596506238" lon="3.467645980417728">
        <ele>764.87</ele>
        <time>2025-04-24T15:34:01Z</time>
      </trkpt>
      <trkpt lat="45.50133696757257" lon="3.467645980417728">
        <ele>765.83000000000004</ele>
        <time>2025-04-24T15:34:02Z</time>
      </trkpt>
      <trkpt lat="45.501191960647702" lon="3.46754003316164">
        <ele>766.30999999999995</ele>
        <time>2025-04-24T15:34:03Z</time>
      </trkpt>
      <trkpt lat="45.50105600617826" lon="3.467424027621746">
        <ele>767.75</ele>
        <time>2025-04-24T15:34:04Z</time>
      </trkpt>
      <trkpt lat="45.50092700868845" lon="3.467313973233104">
        <ele>768.71000000000004</ele>
        <time>2025-04-24T15:34:05Z</time>
      </trkpt>
      <trkpt lat="45.50039098598063" lon="3.46706603653729">
        <ele>771.60000000000002</ele>
        <time>2025-04-24T15:34:09Z</time>
      </trkpt>
      <trkpt lat="45.500268023461103" lon="3.46706603653729">
        <ele>772.55999999999995</ele>
        <time>2025-04-24T15:34:10Z</time>
      </trkpt>
      <trkpt lat="45.500149000436068" lon="3.467083973810077">
        <ele>773.51999999999998</ele>
        <time>2025-04-24T15:34:11Z</time>
      </trkpt>
      <trkpt lat="45.500022014603019" lon="3.467129990458489">
        <ele>774</ele>
        <time>2025-04-24T15:34:12Z</time>
      </trkpt>
      <trkpt lat="45.499883964657784" lon="3.467179024592042">
        <ele>774.48000000000002</ele>
        <time>2025-04-24T15:34:13Z</time>
      </trkpt>
      <trkpt lat="45.499595040455461" lon="3.46728103235364">
        <ele>775.44000000000005</ele>
        <time>2025-04-24T15:34:15Z</time>
      </trkpt>
      <trkpt lat="45.499443998560309" lon="3.46728103235364">
        <ele>775.91999999999996</ele>
        <time>2025-04-24T15:34:16Z</time>
      </trkpt>
      <trkpt lat="45.499306032434106" lon="3.467256976291537">
        <ele>776.39999999999998</ele>
        <time>2025-04-24T15:34:17Z</time>
      </trkpt>
      <trkpt lat="45.499190026894212" lon="3.467179024592042">
        <ele>777.36000000000001</ele>
        <time>2025-04-24T15:34:18Z</time>
      </trkpt>
      <trkpt lat="45.499089024960995" lon="3.467093026265502">
        <ele>777.84000000000003</ele>
        <time>2025-04-24T15:34:19Z</time>
      </trkpt>
      <trkpt lat="45.499014006927609" lon="3.466980960220099">
        <ele>778.80999999999995</ele>
        <time>2025-04-24T15:34:20Z</time>
      </trkpt>
      <trkpt lat="45.498947035521269" lon="3.466827990487218">
        <ele>779.76999999999998</ele>
        <time>2025-04-24T15:34:21Z</time>
      </trkpt>
      <trkpt lat="45.498876040801406" lon="3.466664962470532">
        <ele>780.73000000000002</ele>
        <time>2025-04-24T15:34:22Z</time>
      </trkpt>
      <trkpt lat="45.498785013332963" lon="3.466491037979722">
        <ele>781.69000000000005</ele>
        <time>2025-04-24T15:34:23Z</time>
      </trkpt>
      <trkpt lat="45.498680993914604" lon="3.466339996084571">
        <ele>782.16999999999996</ele>
        <time>2025-04-24T15:34:24Z</time>
      </trkpt>
      <trkpt lat="45.498541016131639" lon="3.466201024129987">
        <ele>782.64999999999998</ele>
        <time>2025-04-24T15:34:25Z</time>
      </trkpt>
      <trkpt lat="45.498398020863533" lon="3.466091975569725">
        <ele>783.61000000000001</ele>
        <time>2025-04-24T15:34:26Z</time>
      </trkpt>
      <trkpt lat="45.498257037252188" lon="3.46597102470696">
        <ele>784.09000000000003</ele>
        <time>2025-04-24T15:34:27Z</time>
      </trkpt>
      <trkpt lat="45.49815502949059" lon="3.465790981426835">
        <ele>784.57000000000005</ele>
        <time>2025-04-24T15:34:28Z</time>
      </trkpt>
      <trkpt lat="45.497903991490602" lon="3.46535000950098">
        <ele>786.01999999999998</ele>
        <time>2025-04-24T15:34:31Z</time>
      </trkpt>
      <trkpt lat="45.497818998992443" lon="3.465312961488962">
        <ele>786.5</ele>
        <time>2025-04-24T15:34:32Z</time>
      </trkpt>
      <trkpt lat="45.497754039242864" lon="3.465284965932369">
        <ele>786.98000000000002</ele>
        <time>2025-04-24T15:34:33Z</time>
      </trkpt>
      <trkpt lat="45.497680027037859" lon="3.465359983965755">
        <ele>787.94000000000005</ele>
        <time>2025-04-24T15:34:34Z</time>
      </trkpt>
      <trkpt lat="45.497626969590783" lon="3.465452017262578">
        <ele>788.41999999999996</ele>
        <time>2025-04-24T15:34:35Z</time>
      </trkpt>
      <trkpt lat="45.497540971264243" lon="3.46567103639245">
        <ele>789.38</ele>
        <time>2025-04-24T15:34:36Z</time>
      </trkpt>
      <trkpt lat="45.497276019304991" lon="3.46595099195838">
        <ele>791.29999999999995</ele>
        <time>2025-04-24T15:34:38Z</time>
      </trkpt>
      <trkpt lat="45.497131012380123" lon="3.466103039681912">
        <ele>791.77999999999997</ele>
        <time>2025-04-24T15:34:39Z</time>
      </trkpt>
      <trkpt lat="45.496528018265963" lon="3.466708967462182">
        <ele>796.11000000000001</ele>
        <time>2025-04-24T15:34:43Z</time>
      </trkpt>
      <trkpt lat="45.496229035779834" lon="3.466878030449152">
        <ele>798.02999999999997</ele>
        <time>2025-04-24T15:34:45Z</time>
      </trkpt>
      <trkpt lat="45.496058966964483" lon="3.466958999633789">
        <ele>798.99000000000001</ele>
        <time>2025-04-24T15:34:46Z</time>
      </trkpt>
      <trkpt lat="45.495928963646293" lon="3.466948019340634">
        <ele>799.95000000000005</ele>
        <time>2025-04-24T15:34:47Z</time>
      </trkpt>
      <trkpt lat="45.495607014745474" lon="3.466777028515935">
        <ele>802.84000000000003</ele>
        <time>2025-04-24T15:34:49Z</time>
      </trkpt>
      <trkpt lat="45.495289005339146" lon="3.466517021879554">
        <ele>805.72000000000003</ele>
        <time>2025-04-24T15:34:51Z</time>
      </trkpt>
      <trkpt lat="45.495133018121123" lon="3.466374026611447">
        <ele>807.63999999999999</ele>
        <time>2025-04-24T15:34:52Z</time>
      </trkpt>
      <trkpt lat="45.494828000664711" lon="3.46606096252799">
        <ele>811.00999999999999</ele>
        <time>2025-04-24T15:34:54Z</time>
      </trkpt>
      <trkpt lat="45.494676036760211" lon="3.465905981138349">
        <ele>812.45000000000005</ele>
        <time>2025-04-24T15:34:55Z</time>
      </trkpt>
      <trkpt lat="45.49426800571382" lon="3.465386973693967">
        <ele>816.77999999999997</ele>
        <time>2025-04-24T15:34:58Z</time>
      </trkpt>
      <trkpt lat="45.493541965261102" lon="3.464221972972155">
        <ele>824.95000000000005</ele>
        <time>2025-04-24T15:35:04Z</time>
      </trkpt>
      <trkpt lat="45.493226973339915" lon="3.463955009356141">
        <ele>827.35000000000002</ele>
        <time>2025-04-24T15:35:06Z</time>
      </trkpt>
      <trkpt lat="45.493077021092176" lon="3.463888959959149">
        <ele>828.30999999999995</ele>
        <time>2025-04-24T15:35:07Z</time>
      </trkpt>
      <trkpt lat="45.492811985313892" lon="3.463757028803229">
        <ele>829.75999999999999</ele>
        <time>2025-04-24T15:35:09Z</time>
      </trkpt>
      <trkpt lat="45.492663960903883" lon="3.463620990514755">
        <ele>831.67999999999995</ele>
        <time>2025-04-24T15:35:11Z</time>
      </trkpt>
      <trkpt lat="45.492523983120918" lon="3.463511019945145">
        <ele>832.15999999999997</ele>
        <time>2025-04-24T15:35:13Z</time>
      </trkpt>
      <trkpt lat="45.491798026487231" lon="3.463228968903422">
        <ele>830.72000000000003</ele>
        <time>2025-04-24T15:35:19Z</time>
      </trkpt>
      <trkpt lat="45.491699958220124" lon="3.463113969191909">
        <ele>830.24000000000001</ele>
        <time>2025-04-24T15:35:20Z</time>
      </trkpt>
      <trkpt lat="45.491616977378726" lon="3.463011039420962">
        <ele>830.24000000000001</ele>
        <time>2025-04-24T15:35:21Z</time>
      </trkpt>
      <trkpt lat="45.491546988487244" lon="3.462813980877399">
        <ele>830.72000000000003</ele>
        <time>2025-04-24T15:35:22Z</time>
      </trkpt>
      <trkpt lat="45.491481022909284" lon="3.462627986446023">
        <ele>830.72000000000003</ele>
        <time>2025-04-24T15:35:23Z</time>
      </trkpt>
      <trkpt lat="45.491412039846182" lon="3.462432017549872">
        <ele>830.72000000000003</ele>
        <time>2025-04-24T15:35:24Z</time>
      </trkpt>
      <trkpt lat="45.491308020427823" lon="3.462231019511819">
        <ele>831.20000000000005</ele>
        <time>2025-04-24T15:35:25Z</time>
      </trkpt>
      <trkpt lat="45.491195032373071" lon="3.462053993716836">
        <ele>831.20000000000005</ele>
        <time>2025-04-24T15:35:26Z</time>
      </trkpt>
      <trkpt lat="45.491081038489938" lon="3.461875040084124">
        <ele>831.67999999999995</ele>
        <time>2025-04-24T15:35:27Z</time>
      </trkpt>
      <trkpt lat="45.490967966616154" lon="3.461698014289141">
        <ele>831.67999999999995</ele>
        <time>2025-04-24T15:35:28Z</time>
      </trkpt>
      <trkpt lat="45.49085003323853" lon="3.461528029292822">
        <ele>831.67999999999995</ele>
        <time>2025-04-24T15:35:29Z</time>
      </trkpt>
      <trkpt lat="45.49072396941483" lon="3.461380004882813">
        <ele>832.15999999999997</ele>
        <time>2025-04-24T15:35:30Z</time>
      </trkpt>
      <trkpt lat="45.490581979975104" lon="3.461252013221383">
        <ele>832.15999999999997</ele>
        <time>2025-04-24T15:35:31Z</time>
      </trkpt>
      <trkpt lat="45.490431021898985" lon="3.461157968267798">
        <ele>832.15999999999997</ele>
        <time>2025-04-24T15:35:32Z</time>
      </trkpt>
      <trkpt lat="45.490279980003834" lon="3.461096026003361">
        <ele>832.15999999999997</ele>
        <time>2025-04-24T15:35:33Z</time>
      </trkpt>
      <trkpt lat="45.490131033584476" lon="3.461053026840091">
        <ele>832.15999999999997</ele>
        <time>2025-04-24T15:35:34Z</time>
      </trkpt>
      <trkpt lat="45.489974962547421" lon="3.46100902184844">
        <ele>832.15999999999997</ele>
        <time>2025-04-24T15:35:35Z</time>
      </trkpt>
      <trkpt lat="45.48982098698616" lon="3.461016984656453">
        <ele>832.15999999999997</ele>
        <time>2025-04-24T15:35:36Z</time>
      </trkpt>
      <trkpt lat="45.489657958969474" lon="3.461055038496852">
        <ele>832.15999999999997</ele>
        <time>2025-04-24T15:35:37Z</time>
      </trkpt>
      <trkpt lat="45.489486968144774" lon="3.4610940143466">
        <ele>832.63999999999999</ele>
        <time>2025-04-24T15:35:38Z</time>
      </trkpt>
      <trkpt lat="45.489313965663314" lon="3.461125027388334">
        <ele>832.63999999999999</ele>
        <time>2025-04-24T15:35:39Z</time>
      </trkpt>
      <trkpt lat="45.48913300037384" lon="3.461135001853108">
        <ele>833.12</ele>
        <time>2025-04-24T15:35:40Z</time>
      </trkpt>
      <trkpt lat="45.488943988457322" lon="3.461133996024728">
        <ele>834.08000000000004</ele>
        <time>2025-04-24T15:35:41Z</time>
      </trkpt>
      <trkpt lat="45.488763023167849" lon="3.461083034053445">
        <ele>834.08000000000004</ele>
        <time>2025-04-24T15:35:42Z</time>
      </trkpt>
      <trkpt lat="45.488578034564853" lon="3.46103098243475">
        <ele>834.08000000000004</ele>
        <time>2025-04-24T15:35:43Z</time>
      </trkpt>
      <trkpt lat="45.487011037766933" lon="3.460689000785351">
        <ele>827.35000000000002</ele>
        <time>2025-04-24T15:35:51Z</time>
      </trkpt>
      <trkpt lat="45.485889036208391" lon="3.460650024935603">
        <ele>822.54999999999995</ele>
        <time>2025-04-24T15:35:57Z</time>
      </trkpt>
      <trkpt lat="45.485703041777015" lon="3.460626974701881">
        <ele>821.58000000000004</ele>
        <time>2025-04-24T15:35:58Z</time>
      </trkpt>
      <trkpt lat="45.484906006604433" lon="3.460302008315921">
        <ele>822.54999999999995</ele>
        <time>2025-04-24T15:36:02Z</time>
      </trkpt>
      <trkpt lat="45.484707020223141" lon="3.460244005545974">
        <ele>822.54999999999995</ele>
        <time>2025-04-24T15:36:03Z</time>
      </trkpt>
      <trkpt lat="45.484501998871565" lon="3.460206035524607">
        <ele>823.02999999999997</ele>
        <time>2025-04-24T15:36:04Z</time>
      </trkpt>
      <trkpt lat="45.483885006979108" lon="3.460001014173031">
        <ele>824.95000000000005</ele>
        <time>2025-04-24T15:36:07Z</time>
      </trkpt>
      <trkpt lat="45.48371996730566" lon="3.459859024733305">
        <ele>825.90999999999997</ele>
        <time>2025-04-24T15:36:08Z</time>
      </trkpt>
      <trkpt lat="45.483554005622864" lon="3.45969800837338">
        <ele>826.38999999999999</ele>
        <time>2025-04-24T15:36:09Z</time>
      </trkpt>
      <trkpt lat="45.482884962111712" lon="3.459136001765728">
        <ele>833.60000000000002</ele>
        <time>2025-04-24T15:36:13Z</time>
      </trkpt>
      <trkpt lat="45.482298983260989" lon="3.458756972104311">
        <ele>837.92999999999995</ele>
        <time>2025-04-24T15:36:17Z</time>
      </trkpt>
      <trkpt lat="45.482194041833282" lon="3.458652030676603">
        <ele>838.40999999999997</ele>
        <time>2025-04-24T15:36:18Z</time>
      </trkpt>
      <trkpt lat="45.482116006314754" lon="3.458477016538382">
        <ele>838.40999999999997</ele>
        <time>2025-04-24T15:36:19Z</time>
      </trkpt>
      <trkpt lat="45.48204299993813" lon="3.458288004621863">
        <ele>837.92999999999995</ele>
        <time>2025-04-24T15:36:20Z</time>
      </trkpt>
      <trkpt lat="45.481963958591223" lon="3.458082983270288">
        <ele>837.45000000000005</ele>
        <time>2025-04-24T15:36:21Z</time>
      </trkpt>
      <trkpt lat="45.481696994975209" lon="3.457434978336096">
        <ele>835.03999999999996</ele>
        <time>2025-04-24T15:36:24Z</time>
      </trkpt>
      <trkpt lat="45.481577971950173" lon="3.457268010824919">
        <ele>834.08000000000004</ele>
        <time>2025-04-24T15:36:25Z</time>
      </trkpt>
      <trkpt lat="45.481430031359196" lon="3.457139013335109">
        <ele>833.12</ele>
        <time>2025-04-24T15:36:26Z</time>
      </trkpt>
      <trkpt lat="45.481284018605947" lon="3.457011021673679">
        <ele>832.15999999999997</ele>
        <time>2025-04-24T15:36:27Z</time>
      </trkpt>
      <trkpt lat="45.481137000024319" lon="3.456882024183869">
        <ele>831.20000000000005</ele>
        <time>2025-04-24T15:36:28Z</time>
      </trkpt>
      <trkpt lat="45.480836005881429" lon="3.45658203586936">
        <ele>829.26999999999998</ele>
        <time>2025-04-24T15:36:30Z</time>
      </trkpt>
      <trkpt lat="45.480693010613322" lon="3.456399980932474">
        <ele>827.83000000000004</ele>
        <time>2025-04-24T15:36:31Z</time>
      </trkpt>
      <trkpt lat="45.480565018951893" lon="3.456182973459363">
        <ele>826.87</ele>
        <time>2025-04-24T15:36:32Z</time>
      </trkpt>
      <trkpt lat="45.480470973998308" lon="3.455930007621646">
        <ele>825.90999999999997</ele>
        <time>2025-04-24T15:36:33Z</time>
      </trkpt>
      <trkpt lat="45.480409031733871" lon="3.455662960186601">
        <ele>824.95000000000005</ele>
        <time>2025-04-24T15:36:34Z</time>
      </trkpt>
      <trkpt lat="45.480349017307162" lon="3.4554039593786">
        <ele>824.47000000000003</ele>
        <time>2025-04-24T15:36:35Z</time>
      </trkpt>
      <trkpt lat="45.480155982077122" lon="3.454667022451758">
        <ele>823.02999999999997</ele>
        <time>2025-04-24T15:36:38Z</time>
      </trkpt>
      <trkpt lat="45.480059003457427" lon="3.454451020807028">
        <ele>823.02999999999997</ele>
        <time>2025-04-24T15:36:39Z</time>
      </trkpt>
      <trkpt lat="45.479923970997334" lon="3.45426301471889">
        <ele>822.54999999999995</ele>
        <time>2025-04-24T15:36:40Z</time>
      </trkpt>
      <trkpt lat="45.479776030406356" lon="3.454093029722571">
        <ele>822.05999999999995</ele>
        <time>2025-04-24T15:36:41Z</time>
      </trkpt>
      <trkpt lat="45.479629011824727" lon="3.453924972563982">
        <ele>821.58000000000004</ele>
        <time>2025-04-24T15:36:42Z</time>
      </trkpt>
      <trkpt lat="45.478975977748632" lon="3.453174959868193">
        <ele>821.10000000000002</ele>
        <time>2025-04-24T15:36:48Z</time>
      </trkpt>
      <trkpt lat="45.478766011074185" lon="3.452934985980392">
        <ele>822.05999999999995</ele>
        <time>2025-04-24T15:36:51Z</time>
      </trkpt>
      <trkpt lat="45.478696022182703" lon="3.452864997088909">
        <ele>822.54999999999995</ele>
        <time>2025-04-24T15:36:52Z</time>
      </trkpt>
      <trkpt lat="45.478617986664176" lon="3.452809005975723">
        <ele>823.50999999999999</ele>
        <time>2025-04-24T15:36:53Z</time>
      </trkpt>
      <trkpt lat="45.478542968630791" lon="3.452766006812453">
        <ele>824.47000000000003</ele>
        <time>2025-04-24T15:36:54Z</time>
      </trkpt>
      <trkpt lat="45.478458981961012" lon="3.45273801125586">
        <ele>824.95000000000005</ele>
        <time>2025-04-24T15:36:55Z</time>
      </trkpt>
      <trkpt lat="45.478370971977711" lon="3.452710015699267">
        <ele>825.42999999999995</ele>
        <time>2025-04-24T15:36:56Z</time>
      </trkpt>
      <trkpt lat="45.478279022499919" lon="3.452686965465546">
        <ele>825.42999999999995</ele>
        <time>2025-04-24T15:36:57Z</time>
      </trkpt>
      <trkpt lat="45.477598998695612" lon="3.452516980469227">
        <ele>827.35000000000002</ele>
        <time>2025-04-24T15:37:05Z</time>
      </trkpt>
      <trkpt lat="45.477511994540691" lon="3.452495019882917">
        <ele>827.35000000000002</ele>
        <time>2025-04-24T15:37:06Z</time>
      </trkpt>
      <trkpt lat="45.476904977113008" lon="3.452340038493276">
        <ele>827.35000000000002</ele>
        <time>2025-04-24T15:37:14Z</time>
      </trkpt>
      <trkpt lat="45.476862983778119" lon="3.452328974381089">
        <ele>826.87</ele>
        <time>2025-04-24T15:37:15Z</time>
      </trkpt>
      <trkpt lat="45.476780002936721" lon="3.452112972736359">
        <ele>826.38999999999999</ele>
        <time>2025-04-24T15:37:16Z</time>
      </trkpt>
      <trkpt lat="45.476811015978456" lon="3.452059999108315">
        <ele>826.38999999999999</ele>
        <time>2025-04-24T15:37:17Z</time>
      </trkpt>
      <trkpt lat="45.476852003484964" lon="3.451989004388452">
        <ele>825.90999999999997</ele>
        <time>2025-04-24T15:37:18Z</time>
      </trkpt>
      <trkpt lat="45.476903971284628" lon="3.45189998857677">
        <ele>825.42999999999995</ele>
        <time>2025-04-24T15:37:19Z</time>
      </trkpt>
      <trkpt lat="45.476961974054575" lon="3.451793035492301">
        <ele>824.95000000000005</ele>
        <time>2025-04-24T15:37:20Z</time>
      </trkpt>
      <trkpt lat="45.47725198790431" lon="3.451249971985817">
        <ele>823.50999999999999</ele>
        <time>2025-04-24T15:37:24Z</time>
      </trkpt>
      <trkpt lat="45.477376962080598" lon="3.451158022508025">
        <ele>823.02999999999997</ele>
        <time>2025-04-24T15:37:25Z</time>
      </trkpt>
      <trkpt lat="45.477505959570408" lon="3.451075041666627">
        <ele>822.05999999999995</ele>
        <time>2025-04-24T15:37:26Z</time>
      </trkpt>
      <trkpt lat="45.477927988395095" lon="3.450806988403201">
        <ele>819.65999999999997</ele>
        <time>2025-04-24T15:37:29Z</time>
      </trkpt>
      <trkpt lat="45.478074001148343" lon="3.450692994520068">
        <ele>819.17999999999995</ele>
        <time>2025-04-24T15:37:30Z</time>
      </trkpt>
      <trkpt lat="45.478222025558352" lon="3.4505670145154">
        <ele>818.22000000000003</ele>
        <time>2025-04-24T15:37:31Z</time>
      </trkpt>
      <trkpt lat="45.478344988077879" lon="3.450404992327094">
        <ele>817.25999999999999</ele>
        <time>2025-04-24T15:37:32Z</time>
      </trkpt>
      <trkpt lat="45.478464011102915" lon="3.450230984017253">
        <ele>816.77999999999997</ele>
        <time>2025-04-24T15:37:33Z</time>
      </trkpt>
      <trkpt lat="45.478569036349654" lon="3.450043983757496">
        <ele>815.82000000000005</ele>
        <time>2025-04-24T15:37:34Z</time>
      </trkpt>
      <trkpt lat="45.478669032454491" lon="3.449857989326119">
        <ele>814.85000000000002</ele>
        <time>2025-04-24T15:37:35Z</time>
      </trkpt>
      <trkpt lat="45.478763999417424" lon="3.449680963531137">
        <ele>813.88999999999999</ele>
        <time>2025-04-24T15:37:36Z</time>
      </trkpt>
      <trkpt lat="45.478863995522261" lon="3.449542997404933">
        <ele>812.92999999999995</ele>
        <time>2025-04-24T15:37:37Z</time>
      </trkpt>
      <trkpt lat="45.478971032425761" lon="3.44947099685669">
        <ele>812.45000000000005</ele>
        <time>2025-04-24T15:37:38Z</time>
      </trkpt>
      <trkpt lat="45.479078991338611" lon="3.44947099685669">
        <ele>811.49000000000001</ele>
        <time>2025-04-24T15:37:39Z</time>
      </trkpt>
      <trkpt lat="45.479199020192027" lon="3.449507961049676">
        <ele>811.00999999999999</ele>
        <time>2025-04-24T15:37:40Z</time>
      </trkpt>
      <trkpt lat="45.479329023510218" lon="3.449550038203597">
        <ele>810.52999999999997</ele>
        <time>2025-04-24T15:37:41Z</time>
      </trkpt>
      <trkpt lat="45.480051040649414" lon="3.449758999049664">
        <ele>808.13</ele>
        <time>2025-04-24T15:37:46Z</time>
      </trkpt>
      <trkpt lat="45.480167968198657" lon="3.449723962694407">
        <ele>807.63999999999999</ele>
        <time>2025-04-24T15:37:47Z</time>
      </trkpt>
      <trkpt lat="45.480264024809003" lon="3.449624972417951">
        <ele>807.63999999999999</ele>
        <time>2025-04-24T15:37:48Z</time>
      </trkpt>
      <trkpt lat="45.480339964851737" lon="3.449473008513451">
        <ele>807.63999999999999</ele>
        <time>2025-04-24T15:37:49Z</time>
      </trkpt>
      <trkpt lat="45.480397967621684" lon="3.449286008253694">
        <ele>808.13</ele>
        <time>2025-04-24T15:37:50Z</time>
      </trkpt>
      <trkpt lat="45.480409031733871" lon="3.44906397163868">
        <ele>808.61000000000001</ele>
        <time>2025-04-24T15:37:51Z</time>
      </trkpt>
      <trkpt lat="45.480420012027025" lon="3.448831038549542">
        <ele>809.57000000000005</ele>
        <time>2025-04-24T15:37:52Z</time>
      </trkpt>
      <trkpt lat="45.48045395873487" lon="3.44835402444005">
        <ele>811.49000000000001</ele>
        <time>2025-04-24T15:37:54Z</time>
      </trkpt>
      <trkpt lat="45.48049402423203" lon="3.44814196228981">
        <ele>811.97000000000003</ele>
        <time>2025-04-24T15:37:55Z</time>
      </trkpt>
      <trkpt lat="45.480577005073428" lon="3.447981029748917">
        <ele>812.92999999999995</ele>
        <time>2025-04-24T15:37:56Z</time>
      </trkpt>
      <trkpt lat="45.480681024491787" lon="3.447820013388991">
        <ele>813.88999999999999</ele>
        <time>2025-04-24T15:37:57Z</time>
      </trkpt>
      <trkpt lat="45.480790995061398" lon="3.447649022564292">
        <ele>814.85000000000002</ele>
        <time>2025-04-24T15:37:58Z</time>
      </trkpt>
      <trkpt lat="45.480907000601292" lon="3.447467973455787">
        <ele>816.29999999999995</ele>
        <time>2025-04-24T15:37:59Z</time>
      </trkpt>
      <trkpt lat="45.482088010758162" lon="3.44618403352797">
        <ele>821.10000000000002</ele>
        <time>2025-04-24T15:38:07Z</time>
      </trkpt>
      <trkpt lat="45.483500026166439" lon="3.44498198479414">
        <ele>822.05999999999995</ele>
        <time>2025-04-24T15:38:16Z</time>
      </trkpt>
      <trkpt lat="45.483879977837205" lon="3.444476975128055">
        <ele>819.65999999999997</ele>
        <time>2025-04-24T15:38:21Z</time>
      </trkpt>
      <trkpt lat="45.484452964738011" lon="3.443715982139111">
        <ele>814.85000000000002</ele>
        <time>2025-04-24T15:38:30Z</time>
      </trkpt>
      <trkpt lat="45.484546003863215" lon="3.443592013791204">
        <ele>814.37</ele>
        <time>2025-04-24T15:38:31Z</time>
      </trkpt>
      <trkpt lat="45.484606018289924" lon="3.443442983552814">
        <ele>813.40999999999997</ele>
        <time>2025-04-24T15:38:32Z</time>
      </trkpt>
      <trkpt lat="45.484648011624813" lon="3.443274004384875">
        <ele>812.92999999999995</ele>
        <time>2025-04-24T15:38:33Z</time>
      </trkpt>
      <trkpt lat="45.484667960554361" lon="3.443085998296738">
        <ele>811.49000000000001</ele>
        <time>2025-04-24T15:38:34Z</time>
      </trkpt>
      <trkpt lat="45.484673995524645" lon="3.442881982773542">
        <ele>810.52999999999997</ele>
        <time>2025-04-24T15:38:35Z</time>
      </trkpt>
      <trkpt lat="45.484681036323309" lon="3.442675033584237">
        <ele>809.57000000000005</ele>
        <time>2025-04-24T15:38:36Z</time>
      </trkpt>
      <trkpt lat="45.484750019386411" lon="3.442113026976585">
        <ele>805.72000000000003</ele>
        <time>2025-04-24T15:38:39Z</time>
      </trkpt>
      <trkpt lat="45.484824031591415" lon="3.441975982859731">
        <ele>804.75999999999999</ele>
        <time>2025-04-24T15:38:40Z</time>
      </trkpt>
      <trkpt lat="45.48490097746253" lon="3.441831981763244">
        <ele>803.32000000000005</ele>
        <time>2025-04-24T15:38:41Z</time>
      </trkpt>
      <trkpt lat="45.485012959688902" lon="3.441727040335536">
        <ele>802.36000000000001</ele>
        <time>2025-04-24T15:38:42Z</time>
      </trkpt>
      <trkpt lat="45.48513500019908" lon="3.441613968461752">
        <ele>801.39999999999998</ele>
        <time>2025-04-24T15:38:43Z</time>
      </trkpt>
      <trkpt lat="45.485891969874501" lon="3.440910978242755">
        <ele>795.63</ele>
        <time>2025-04-24T15:38:49Z</time>
      </trkpt>
      <trkpt lat="45.485990960150957" lon="3.44083403237164">
        <ele>795.14999999999998</ele>
        <time>2025-04-24T15:38:50Z</time>
      </trkpt>
      <trkpt lat="45.486075030639768" lon="3.440780974924564">
        <ele>794.66999999999996</ele>
        <time>2025-04-24T15:38:51Z</time>
      </trkpt>
      <trkpt lat="45.486163040623069" lon="3.440780974924564">
        <ele>793.71000000000004</ele>
        <time>2025-04-24T15:38:52Z</time>
      </trkpt>
      <trkpt lat="45.486249038949609" lon="3.4407929610461">
        <ele>793.22000000000003</ele>
        <time>2025-04-24T15:38:53Z</time>
      </trkpt>
      <trkpt lat="45.486333025619388" lon="3.440848030149937">
        <ele>792.74000000000001</ele>
        <time>2025-04-24T15:38:54Z</time>
      </trkpt>
      <trkpt lat="45.486419023945928" lon="3.440906032919884">
        <ele>791.77999999999997</ele>
        <time>2025-04-24T15:38:55Z</time>
      </trkpt>
      <trkpt lat="45.487339021638036" lon="3.441412970423698">
        <ele>785.52999999999997</ele>
        <time>2025-04-24T15:39:03Z</time>
      </trkpt>
      <trkpt lat="45.488798981532454" lon="3.441923009231687">
        <ele>775.91999999999996</ele>
        <time>2025-04-24T15:39:11Z</time>
      </trkpt>
      <trkpt lat="45.489480011165142" lon="3.442292986437678">
        <ele>770.63</ele>
        <time>2025-04-24T15:39:15Z</time>
      </trkpt>
      <trkpt lat="45.489635998383164" lon="3.442323999479413">
        <ele>769.66999999999996</ele>
        <time>2025-04-24T15:39:16Z</time>
      </trkpt>
      <trkpt lat="45.489790979772806" lon="3.44233900308609">
        <ele>768.23000000000002</ele>
        <time>2025-04-24T15:39:17Z</time>
      </trkpt>
      <trkpt lat="45.489953001961112" lon="3.442306984215975">
        <ele>767.75</ele>
        <time>2025-04-24T15:39:18Z</time>
      </trkpt>
      <trkpt lat="45.490111000835896" lon="3.442257028073072">
        <ele>766.30999999999995</ele>
        <time>2025-04-24T15:39:19Z</time>
      </trkpt>
      <trkpt lat="45.490262964740396" lon="3.442156026139855">
        <ele>765.83000000000004</ele>
        <time>2025-04-24T15:39:20Z</time>
      </trkpt>
      <trkpt lat="45.490408977493644" lon="3.442027028650045">
        <ele>764.87</ele>
        <time>2025-04-24T15:39:21Z</time>
      </trkpt>
      <trkpt lat="45.490558007732034" lon="3.441894007846713">
        <ele>763.89999999999998</ele>
        <time>2025-04-24T15:39:22Z</time>
      </trkpt>
      <trkpt lat="45.49069999717176" lon="3.441745983436704">
        <ele>762.94000000000005</ele>
        <time>2025-04-24T15:39:23Z</time>
      </trkpt>
      <trkpt lat="45.491227973252535" lon="3.441133014857769">
        <ele>758.13999999999999</ele>
        <time>2025-04-24T15:39:28Z</time>
      </trkpt>
      <trkpt lat="45.49130198545754" lon="3.441083980724216">
        <ele>757.17999999999995</ele>
        <time>2025-04-24T15:39:29Z</time>
      </trkpt>
      <trkpt lat="45.491374991834164" lon="3.441063025966287">
        <ele>755.73000000000002</ele>
        <time>2025-04-24T15:39:30Z</time>
      </trkpt>
      <trkpt lat="45.491458978503942" lon="3.44107199460268">
        <ele>755.25</ele>
        <time>2025-04-24T15:39:31Z</time>
      </trkpt>
      <trkpt lat="45.491551011800766" lon="3.441080963239074">
        <ele>754.28999999999996</ele>
        <time>2025-04-24T15:39:32Z</time>
      </trkpt>
      <trkpt lat="45.491739017888904" lon="3.441099990159273">
        <ele>753.33000000000004</ele>
        <time>2025-04-24T15:39:34Z</time>
      </trkpt>
      <trkpt lat="45.491843037307262" lon="3.441083980724216">
        <ele>753.33000000000004</ele>
        <time>2025-04-24T15:39:35Z</time>
      </trkpt>
      <trkpt lat="45.491956025362015" lon="3.441035030409694">
        <ele>752.85000000000002</ele>
        <time>2025-04-24T15:39:36Z</time>
      </trkpt>
      <trkpt lat="45.492047974839807" lon="3.440903015434742">
        <ele>752.85000000000002</ele>
        <time>2025-04-24T15:39:37Z</time>
      </trkpt>
      <trkpt lat="45.492147970944643" lon="3.440749039873481">
        <ele>753.33000000000004</ele>
        <time>2025-04-24T15:39:38Z</time>
      </trkpt>
      <trkpt lat="45.492241010069847" lon="3.440562961623073">
        <ele>753.33000000000004</ele>
        <time>2025-04-24T15:39:39Z</time>
      </trkpt>
      <trkpt lat="45.492338994517922" lon="3.440366992726922">
        <ele>753.80999999999995</ele>
        <time>2025-04-24T15:39:40Z</time>
      </trkpt>
      <trkpt lat="45.493297968059778" lon="3.438620958477259">
        <ele>756.21000000000004</ele>
        <time>2025-04-24T15:39:48Z</time>
      </trkpt>
      <trkpt lat="45.493420008569956" lon="3.438442004844546">
        <ele>756.69000000000005</ele>
        <time>2025-04-24T15:39:49Z</time>
      </trkpt>
      <trkpt lat="45.493521010503173" lon="3.438227009028196">
        <ele>757.65999999999997</ele>
        <time>2025-04-24T15:39:50Z</time>
      </trkpt>
      <trkpt lat="45.493607008829713" lon="3.437997009605169">
        <ele>758.62</ele>
        <time>2025-04-24T15:39:51Z</time>
      </trkpt>
      <trkpt lat="45.493655037134886" lon="3.437743037939072">
        <ele>759.58000000000004</ele>
        <time>2025-04-24T15:39:52Z</time>
      </trkpt>
      <trkpt lat="45.493703987449408" lon="3.437484037131071">
        <ele>760.53999999999996</ele>
        <time>2025-04-24T15:39:53Z</time>
      </trkpt>
      <trkpt lat="45.493762996047735" lon="3.437176002189517">
        <ele>761.5</ele>
        <time>2025-04-24T15:39:54Z</time>
      </trkpt>
      <trkpt lat="45.493781017139554" lon="3.436944996938109">
        <ele>761.98000000000002</ele>
        <time>2025-04-24T15:39:55Z</time>
      </trkpt>
      <trkpt lat="45.493827033787966" lon="3.435620991513133">
        <ele>765.83000000000004</ele>
        <time>2025-04-24T15:40:00Z</time>
      </trkpt>
      <trkpt lat="45.493882019072771" lon="3.435416975989938">
        <ele>766.30999999999995</ele>
        <time>2025-04-24T15:40:01Z</time>
      </trkpt>
      <trkpt lat="45.493946978822351" lon="3.435214972123504">
        <ele>766.30999999999995</ele>
        <time>2025-04-24T15:40:02Z</time>
      </trkpt>
      <trkpt lat="45.494023002684116" lon="3.43501104041934">
        <ele>766.30999999999995</ele>
        <time>2025-04-24T15:40:03Z</time>
      </trkpt>
      <trkpt lat="45.49413800239563" lon="3.434821022674441">
        <ele>765.83000000000004</ele>
        <time>2025-04-24T15:40:04Z</time>
      </trkpt>
      <trkpt lat="45.494259959086776" lon="3.434619018808007">
        <ele>764.87</ele>
        <time>2025-04-24T15:40:05Z</time>
      </trkpt>
      <trkpt lat="45.49452499486506" lon="3.434203024953604">
        <ele>762.94000000000005</ele>
        <time>2025-04-24T15:40:07Z</time>
      </trkpt>
      <trkpt lat="45.494691040366888" lon="3.434033039957285">
        <ele>762.46000000000004</ele>
        <time>2025-04-24T15:40:08Z</time>
      </trkpt>
      <trkpt lat="45.495770964771509" lon="3.432862004265189">
        <ele>761.01999999999998</ele>
        <time>2025-04-24T15:40:15Z</time>
      </trkpt>
      <trkpt lat="45.495974980294704" lon="3.432577019557357">
        <ele>762.46000000000004</ele>
        <time>2025-04-24T15:40:17Z</time>
      </trkpt>
      <trkpt lat="45.496075982227921" lon="3.432482974603772">
        <ele>763.89999999999998</ele>
        <time>2025-04-24T15:40:18Z</time>
      </trkpt>
      <trkpt lat="45.496182013303041" lon="3.432420026510954">
        <ele>764.87</ele>
        <time>2025-04-24T15:40:19Z</time>
      </trkpt>
      <trkpt lat="45.496293995529413" lon="3.432411979883909">
        <ele>765.83000000000004</ele>
        <time>2025-04-24T15:40:20Z</time>
      </trkpt>
      <trkpt lat="45.496412012726068" lon="3.432451039552689">
        <ele>767.26999999999998</ele>
        <time>2025-04-24T15:40:21Z</time>
      </trkpt>
      <trkpt lat="45.49652399495244" lon="3.432488003745675">
        <ele>768.23000000000002</ele>
        <time>2025-04-24T15:40:22Z</time>
      </trkpt>
      <trkpt lat="45.496637988835573" lon="3.432525973767042">
        <ele>769.19000000000005</ele>
        <time>2025-04-24T15:40:23Z</time>
      </trkpt>
      <trkpt lat="45.496747959405184" lon="3.432511975988746">
        <ele>769.66999999999996</ele>
        <time>2025-04-24T15:40:24Z</time>
      </trkpt>
      <trkpt lat="45.496872011572123" lon="3.432457996532321">
        <ele>770.14999999999998</ele>
        <time>2025-04-24T15:40:25Z</time>
      </trkpt>
      <trkpt lat="45.497011989355087" lon="3.432395970448852">
        <ele>771.11000000000001</ele>
        <time>2025-04-24T15:40:26Z</time>
      </trkpt>
      <trkpt lat="45.497131012380123" lon="3.432260015979409">
        <ele>771.11000000000001</ele>
        <time>2025-04-24T15:40:27Z</time>
      </trkpt>
      <trkpt lat="45.49725498072803" lon="3.432108974084258">
        <ele>771.11000000000001</ele>
        <time>2025-04-24T15:40:28Z</time>
      </trkpt>
      <trkpt lat="45.497380960732698" lon="3.431954998522997">
        <ele>770.63</ele>
        <time>2025-04-24T15:40:29Z</time>
      </trkpt>
      <trkpt lat="45.49746997654438" lon="3.431758023798466">
        <ele>769.66999999999996</ele>
        <time>2025-04-24T15:40:30Z</time>
      </trkpt>
      <trkpt lat="45.49755304120481" lon="3.431534981355071">
        <ele>769.19000000000005</ele>
        <time>2025-04-24T15:40:31Z</time>
      </trkpt>
      <trkpt lat="45.49763803370297" lon="3.431307999417186">
        <ele>768.23000000000002</ele>
        <time>2025-04-24T15:40:32Z</time>
      </trkpt>
      <trkpt lat="45.49770399928093" lon="3.431073976680636">
        <ele>767.75</ele>
        <time>2025-04-24T15:40:33Z</time>
      </trkpt>
      <trkpt lat="45.497741969302297" lon="3.430826961994171">
        <ele>766.30999999999995</ele>
        <time>2025-04-24T15:40:34Z</time>
      </trkpt>
      <trkpt lat="45.497779017314315" lon="3.430584976449609">
        <ele>765.35000000000002</ele>
        <time>2025-04-24T15:40:35Z</time>
      </trkpt>
      <trkpt lat="45.49781396985054" lon="3.430360006168485">
        <ele>763.89999999999998</ele>
        <time>2025-04-24T15:40:36Z</time>
      </trkpt>
      <trkpt lat="45.497843977063894" lon="3.430165965110064">
        <ele>762.46000000000004</ele>
        <time>2025-04-24T15:40:37Z</time>
      </trkpt>
      <trkpt lat="45.497878007590771" lon="3.430011989548802">
        <ele>761.01999999999998</ele>
        <time>2025-04-24T15:40:38Z</time>
      </trkpt>
      <trkpt lat="45.497926035895944" lon="3.429902018979192">
        <ele>760.05999999999995</ele>
        <time>2025-04-24T15:40:39Z</time>
      </trkpt>
      <trkpt lat="45.497992001473904" lon="3.429863965138793">
        <ele>758.62</ele>
        <time>2025-04-24T15:40:40Z</time>
      </trkpt>
      <trkpt lat="45.498056961223483" lon="3.429827000945807">
        <ele>757.65999999999997</ele>
        <time>2025-04-24T15:40:41Z</time>
      </trkpt>
      <trkpt lat="45.498119993135333" lon="3.429848961532116">
        <ele>756.69000000000005</ele>
        <time>2025-04-24T15:40:42Z</time>
      </trkpt>
      <trkpt lat="45.498210014775395" lon="3.42991903424263">
        <ele>755.73000000000002</ele>
        <time>2025-04-24T15:40:43Z</time>
      </trkpt>
      <trkpt lat="45.498315962031484" lon="3.430001009255648">
        <ele>755.25</ele>
        <time>2025-04-24T15:40:44Z</time>
      </trkpt>
      <trkpt lat="45.498431967571378" lon="3.43009103089571">
        <ele>754.28999999999996</ele>
        <time>2025-04-24T15:40:45Z</time>
      </trkpt>
      <trkpt lat="45.498565994203091" lon="3.430181974545121">
        <ele>753.80999999999995</ele>
        <time>2025-04-24T15:40:46Z</time>
      </trkpt>
      <trkpt lat="45.498702032491565" lon="3.430191027000547">
        <ele>752.85000000000002</ele>
        <time>2025-04-24T15:40:47Z</time>
      </trkpt>
      <trkpt lat="45.498823989182711" lon="3.430198989808559">
        <ele>751.88999999999999</ele>
        <time>2025-04-24T15:40:48Z</time>
      </trkpt>
      <trkpt lat="45.499128000810742" lon="3.43022002838552">
        <ele>749</ele>
        <time>2025-04-24T15:40:51Z</time>
      </trkpt>
      <trkpt lat="45.499262027442455" lon="3.430255986750126">
        <ele>747.55999999999995</ele>
        <time>2025-04-24T15:40:53Z</time>
      </trkpt>
      <trkpt lat="45.499334027990699" lon="3.430280964821577">
        <ele>747.08000000000004</ele>
        <time>2025-04-24T15:40:54Z</time>
      </trkpt>
      <trkpt lat="45.499416003003716" lon="3.430309966206551">
        <ele>746.12</ele>
        <time>2025-04-24T15:40:55Z</time>
      </trkpt>
      <trkpt lat="45.499535026028752" lon="3.43035195954144">
        <ele>745.15999999999997</ele>
        <time>2025-04-24T15:40:56Z</time>
      </trkpt>
      <trkpt lat="45.499589005485177" lon="3.430446004495025">
        <ele>744.20000000000005</ele>
        <time>2025-04-24T15:40:57Z</time>
      </trkpt>
      <trkpt lat="45.499733006581664" lon="3.43069301918149">
        <ele>742.27999999999997</ele>
        <time>2025-04-24T15:40:59Z</time>
      </trkpt>
      <trkpt lat="45.499782040715218" lon="3.430832996964455">
        <ele>741.78999999999996</ele>
        <time>2025-04-24T15:41:00Z</time>
      </trkpt>
      <trkpt lat="45.49980903044343" lon="3.431007005274296">
        <ele>741.30999999999995</ele>
        <time>2025-04-24T15:41:01Z</time>
      </trkpt>
      <trkpt lat="45.499794026836753" lon="3.43153104186058">
        <ele>738.90999999999997</ele>
        <time>2025-04-24T15:41:04Z</time>
      </trkpt>
      <trkpt lat="45.499845994636416" lon="3.431691974401474">
        <ele>737.95000000000005</ele>
        <time>2025-04-24T15:41:05Z</time>
      </trkpt>
      <trkpt lat="45.499929981306195" lon="3.431834969669581">
        <ele>736.50999999999999</ele>
        <time>2025-04-24T15:41:06Z</time>
      </trkpt>
      <trkpt lat="45.500041963532567" lon="3.43191996216774">
        <ele>735.07000000000005</ele>
        <time>2025-04-24T15:41:07Z</time>
      </trkpt>
      <trkpt lat="45.500159980729222" lon="3.432010989636183">
        <ele>733.62</ele>
        <time>2025-04-24T15:41:08Z</time>
      </trkpt>
      <trkpt lat="45.500765992328525" lon="3.43247601762414">
        <ele>725.45000000000005</ele>
        <time>2025-04-24T15:41:13Z</time>
      </trkpt>
      <trkpt lat="45.500860959291458" lon="3.432591017335653">
        <ele>723.52999999999997</ele>
        <time>2025-04-24T15:41:14Z</time>
      </trkpt>
      <trkpt lat="45.500943018123507" lon="3.432740969583392">
        <ele>722.09000000000003</ele>
        <time>2025-04-24T15:41:15Z</time>
      </trkpt>
      <trkpt lat="45.501025998964906" lon="3.432895028963685">
        <ele>720.15999999999997</ele>
        <time>2025-04-24T15:41:16Z</time>
      </trkpt>
      <trkpt lat="45.501108979806304" lon="3.433043975383043">
        <ele>718.72000000000003</ele>
        <time>2025-04-24T15:41:17Z</time>
      </trkpt>
      <trkpt lat="45.501193972304463" lon="3.433161992579699">
        <ele>717.27999999999997</ele>
        <time>2025-04-24T15:41:18Z</time>
      </trkpt>
      <trkpt lat="45.50129497423768" lon="3.433280009776354">
        <ele>716.32000000000005</ele>
        <time>2025-04-24T15:41:19Z</time>
      </trkpt>
      <trkpt lat="45.501393964514136" lon="3.433324014768004">
        <ele>715.84000000000003</ele>
        <time>2025-04-24T15:41:20Z</time>
      </trkpt>
      <trkpt lat="45.501499995589256" lon="3.43333600088954">
        <ele>714.88</ele>
        <time>2025-04-24T15:41:21Z</time>
      </trkpt>
      <trkpt lat="45.5015719961375" lon="3.43329300172627">
        <ele>713.91999999999996</ele>
        <time>2025-04-24T15:41:22Z</time>
      </trkpt>
      <trkpt lat="45.501617006957531" lon="3.433205997571349">
        <ele>712.95000000000005</ele>
        <time>2025-04-24T15:41:23Z</time>
      </trkpt>
      <trkpt lat="45.50159496255219" lon="3.433098960667849">
        <ele>712.47000000000003</ele>
        <time>2025-04-24T15:41:24Z</time>
      </trkpt>
      <trkpt lat="45.501569984480739" lon="3.4329719748348">
        <ele>711.50999999999999</ele>
        <time>2025-04-24T15:41:25Z</time>
      </trkpt>
      <trkpt lat="45.501541988924146" lon="3.432831997051835">
        <ele>710.54999999999995</ele>
        <time>2025-04-24T15:41:26Z</time>
      </trkpt>
      <trkpt lat="45.501480968669057" lon="3.432526979595423">
        <ele>709.11000000000001</ele>
        <time>2025-04-24T15:41:28Z</time>
      </trkpt>
      <trkpt lat="45.501446016132832" lon="3.432351965457201">
        <ele>708.63</ele>
        <time>2025-04-24T15:41:29Z</time>
      </trkpt>
      <trkpt lat="45.501409973949194" lon="3.432172005996108">
        <ele>708.14999999999998</ele>
        <time>2025-04-24T15:41:30Z</time>
      </trkpt>
      <trkpt lat="45.501349959522486" lon="3.432013001292944">
        <ele>707.66999999999996</ele>
        <time>2025-04-24T15:41:31Z</time>
      </trkpt>
      <trkpt lat="45.501284999772906" lon="3.431863971054554">
        <ele>707.66999999999996</ele>
        <time>2025-04-24T15:41:32Z</time>
      </trkpt>
      <trkpt lat="45.501219034194946" lon="3.431712007150054">
        <ele>707.19000000000005</ele>
        <time>2025-04-24T15:41:33Z</time>
      </trkpt>
      <trkpt lat="45.501161031424999" lon="3.431548979133368">
        <ele>707.66999999999996</ele>
        <time>2025-04-24T15:41:34Z</time>
      </trkpt>
      <trkpt lat="45.501110991463065" lon="3.431371031329036">
        <ele>708.63</ele>
        <time>2025-04-24T15:41:35Z</time>
      </trkpt>
      <trkpt lat="45.501090036705136" lon="3.431179001927376">
        <ele>709.59000000000003</ele>
        <time>2025-04-24T15:41:36Z</time>
      </trkpt>
      <trkpt lat="45.50105701200664" lon="3.430723026394844">
        <ele>711.50999999999999</ele>
        <time>2025-04-24T15:41:38Z</time>
      </trkpt>
      <trkpt lat="45.501039996743202" lon="3.430494032800198">
        <ele>712.47000000000003</ele>
        <time>2025-04-24T15:41:39Z</time>
      </trkpt>
      <trkpt lat="45.501023987308145" lon="3.430275013670325">
        <ele>713.44000000000005</ele>
        <time>2025-04-24T15:41:40Z</time>
      </trkpt>
      <trkpt lat="45.501002026721835" lon="3.430049037560821">
        <ele>714.39999999999998</ele>
        <time>2025-04-24T15:41:41Z</time>
      </trkpt>
      <trkpt lat="45.500974031165242" lon="3.429832030087709">
        <ele>714.88</ele>
        <time>2025-04-24T15:41:42Z</time>
      </trkpt>
      <trkpt lat="45.50094704143703" lon="3.429624997079372">
        <ele>715.36000000000001</ele>
        <time>2025-04-24T15:41:43Z</time>
      </trkpt>
      <trkpt lat="45.500930026173592" lon="3.429444031789899">
        <ele>716.32000000000005</ele>
        <time>2025-04-24T15:41:44Z</time>
      </trkpt>
      <trkpt lat="45.500930026173592" lon="3.429270023480058">
        <ele>717.27999999999997</ele>
        <time>2025-04-24T15:41:45Z</time>
      </trkpt>
      <trkpt lat="45.500980988144875" lon="3.429153012111783">
        <ele>718.24000000000001</ele>
        <time>2025-04-24T15:41:46Z</time>
      </trkpt>
      <trkpt lat="45.501063968986273" lon="3.428983027115464">
        <ele>719.20000000000005</ele>
        <time>2025-04-24T15:41:47Z</time>
      </trkpt>
      <trkpt lat="45.501152984797955" lon="3.428799966350198">
        <ele>720.64999999999998</ele>
        <time>2025-04-24T15:41:48Z</time>
      </trkpt>
      <trkpt lat="45.501240994781256" lon="3.428620006889105">
        <ele>722.09000000000003</ele>
        <time>2025-04-24T15:41:49Z</time>
      </trkpt>
      <trkpt lat="45.501431012526155" lon="3.428290011361241">
        <ele>725.92999999999995</ele>
        <time>2025-04-24T15:41:51Z</time>
      </trkpt>
      <trkpt lat="45.501582976430655" lon="3.428155984729528">
        <ele>728.34000000000003</ele>
        <time>2025-04-24T15:41:52Z</time>
      </trkpt>
      <trkpt lat="45.502011040225625" lon="3.427776033058763">
        <ele>734.58000000000004</ele>
        <time>2025-04-24T15:41:55Z</time>
      </trkpt>
      <trkpt lat="45.50215202383697" lon="3.427623985335231">
        <ele>737.47000000000003</ele>
        <time>2025-04-24T15:41:56Z</time>
      </trkpt>
      <trkpt lat="45.502242967486382" lon="3.427426004782319">
        <ele>739.87</ele>
        <time>2025-04-24T15:41:57Z</time>
      </trkpt>
      <trkpt lat="45.50232402049005" lon="3.427247973158956">
        <ele>741.78999999999996</ele>
        <time>2025-04-24T15:41:58Z</time>
      </trkpt>
      <trkpt lat="45.502405995503068" lon="3.427069019526243">
        <ele>743.72000000000003</ele>
        <time>2025-04-24T15:41:59Z</time>
      </trkpt>
      <trkpt lat="45.502501968294382" lon="3.426882019266486">
        <ele>744.67999999999995</ele>
        <time>2025-04-24T15:42:00Z</time>
      </trkpt>
      <trkpt lat="45.502627026289701" lon="3.426705999299884">
        <ele>745.15999999999997</ele>
        <time>2025-04-24T15:42:01Z</time>
      </trkpt>
      <trkpt lat="45.502874962985516" lon="3.426359994336963">
        <ele>745.15999999999997</ele>
        <time>2025-04-24T15:42:03Z</time>
      </trkpt>
      <trkpt lat="45.50301100127399" lon="3.426167964935303">
        <ele>745.63999999999999</ele>
        <time>2025-04-24T15:42:04Z</time>
      </trkpt>
      <trkpt lat="45.503065986558795" lon="3.426008960232139">
        <ele>746.12</ele>
        <time>2025-04-24T15:42:05Z</time>
      </trkpt>
      <trkpt lat="45.503124995157123" lon="3.425841992720962">
        <ele>746.12</ele>
        <time>2025-04-24T15:42:06Z</time>
      </trkpt>
      <trkpt lat="45.503177968785167" lon="3.4256880171597">
        <ele>746.60000000000002</ele>
        <time>2025-04-24T15:42:07Z</time>
      </trkpt>
      <trkpt lat="45.503228008747101" lon="3.425545021891594">
        <ele>746.60000000000002</ele>
        <time>2025-04-24T15:42:08Z</time>
      </trkpt>
      <trkpt lat="45.503276037052274" lon="3.425407977774739">
        <ele>746.60000000000002</ele>
        <time>2025-04-24T15:42:09Z</time>
      </trkpt>
      <trkpt lat="45.503322975710034" lon="3.425271017476916">
        <ele>746.12</ele>
        <time>2025-04-24T15:42:10Z</time>
      </trkpt>
      <trkpt lat="45.503385001793504" lon="3.425136990845203">
        <ele>746.12</ele>
        <time>2025-04-24T15:42:11Z</time>
      </trkpt>
      <trkpt lat="45.503463037312031" lon="3.42502199113369">
        <ele>746.12</ele>
        <time>2025-04-24T15:42:12Z</time>
      </trkpt>
      <trkpt lat="45.503545012325048" lon="3.424902968108654">
        <ele>746.12</ele>
        <time>2025-04-24T15:42:13Z</time>
      </trkpt>
      <trkpt lat="45.50363402813673" lon="3.424772964790463">
        <ele>746.60000000000002</ele>
        <time>2025-04-24T15:42:14Z</time>
      </trkpt>
      <trkpt lat="45.503839971497655" lon="3.424618989229202">
        <ele>747.08000000000004</ele>
        <time>2025-04-24T15:42:16Z</time>
      </trkpt>
      <trkpt lat="45.504155969247222" lon="3.424385972321034">
        <ele>748.03999999999996</ele>
        <time>2025-04-24T15:42:19Z</time>
      </trkpt>
      <trkpt lat="45.504267029464245" lon="3.424362000077963">
        <ele>748.03999999999996</ele>
        <time>2025-04-24T15:42:20Z</time>
      </trkpt>
      <trkpt lat="45.504698026925325" lon="3.424286982044578">
        <ele>748.51999999999998</ele>
        <time>2025-04-24T15:42:24Z</time>
      </trkpt>
      <trkpt lat="45.504801040515304" lon="3.424251023679972">
        <ele>749</ele>
        <time>2025-04-24T15:42:25Z</time>
      </trkpt>
      <trkpt lat="45.504914028570056" lon="3.424187991768122">
        <ele>749</ele>
        <time>2025-04-24T15:42:26Z</time>
      </trkpt>
      <trkpt lat="45.50503003410995" lon="3.424123032018542">
        <ele>749</ele>
        <time>2025-04-24T15:42:27Z</time>
      </trkpt>
      <trkpt lat="45.505140004679561" lon="3.424061005935073">
        <ele>749</ele>
        <time>2025-04-24T15:42:28Z</time>
      </trkpt>
      <trkpt lat="45.5052450299263" lon="3.424001997336745">
        <ele>748.51999999999998</ele>
        <time>2025-04-24T15:42:29Z</time>
      </trkpt>
      <trkpt lat="45.505352988839149" lon="3.423979030922055">
        <ele>747.55999999999995</ele>
        <time>2025-04-24T15:42:30Z</time>
      </trkpt>
      <trkpt lat="45.505476035177708" lon="3.423997974023223">
        <ele>747.08000000000004</ele>
        <time>2025-04-24T15:42:31Z</time>
      </trkpt>
      <trkpt lat="45.505577959120274" lon="3.424099981784821">
        <ele>746.60000000000002</ele>
        <time>2025-04-24T15:42:32Z</time>
      </trkpt>
      <trkpt lat="45.505688013508916" lon="3.424209030345082">
        <ele>746.12</ele>
        <time>2025-04-24T15:42:33Z</time>
      </trkpt>
      <trkpt lat="45.505793038755655" lon="3.424314977601171">
        <ele>745.63999999999999</ele>
        <time>2025-04-24T15:42:34Z</time>
      </trkpt>
      <trkpt lat="45.505940979346633" lon="3.424426959827542">
        <ele>744.20000000000005</ele>
        <time>2025-04-24T15:42:36Z</time>
      </trkpt>
      <trkpt lat="45.506014991551638" lon="3.424451015889645">
        <ele>743.72000000000003</ele>
        <time>2025-04-24T15:42:37Z</time>
      </trkpt>
      <trkpt lat="45.50608498044312" lon="3.424469958990812">
        <ele>743.24000000000001</ele>
        <time>2025-04-24T15:42:38Z</time>
      </trkpt>
      <trkpt lat="45.506182964891195" lon="3.424411034211516">
        <ele>742.75999999999999</ele>
        <time>2025-04-24T15:42:39Z</time>
      </trkpt>
      <trkpt lat="45.506283966824412" lon="3.424350013956428">
        <ele>742.75999999999999</ele>
        <time>2025-04-24T15:42:40Z</time>
      </trkpt>
      <trkpt lat="45.506354039534926" lon="3.424249012023211">
        <ele>742.75999999999999</ele>
        <time>2025-04-24T15:42:41Z</time>
      </trkpt>
      <trkpt lat="45.50640600733459" lon="3.424128983169794">
        <ele>742.75999999999999</ele>
        <time>2025-04-24T15:42:42Z</time>
      </trkpt>
      <trkpt lat="45.506422016769648" lon="3.423967966809869">
        <ele>743.24000000000001</ele>
        <time>2025-04-24T15:42:43Z</time>
      </trkpt>
      <trkpt lat="45.506401984021068" lon="3.423765040934086">
        <ele>743.72000000000003</ele>
        <time>2025-04-24T15:42:44Z</time>
      </trkpt>
      <trkpt lat="45.506357979029417" lon="3.423593966290355">
        <ele>744.20000000000005</ele>
        <time>2025-04-24T15:42:45Z</time>
      </trkpt>
      <trkpt lat="45.506306011229753" lon="3.423391962423921">
        <ele>744.67999999999995</ele>
        <time>2025-04-24T15:42:46Z</time>
      </trkpt>
      <trkpt lat="45.505931004881859" lon="3.421924961730838">
        <ele>750.45000000000005</ele>
        <time>2025-04-24T15:42:52Z</time>
      </trkpt>
      <trkpt lat="45.505819022655487" lon="3.421693034470081">
        <ele>751.88999999999999</ele>
        <time>2025-04-24T15:42:53Z</time>
      </trkpt>
      <trkpt lat="45.505708968266845" lon="3.421467980369926">
        <ele>752.85000000000002</ele>
        <time>2025-04-24T15:42:54Z</time>
      </trkpt>
      <trkpt lat="45.50550302490592" lon="3.42104603536427">
        <ele>755.25</ele>
        <time>2025-04-24T15:42:56Z</time>
      </trkpt>
      <trkpt lat="45.505425995215774" lon="3.420816035941243">
        <ele>755.73000000000002</ele>
        <time>2025-04-24T15:42:57Z</time>
      </trkpt>
      <trkpt lat="45.505361035466194" lon="3.420587964355946">
        <ele>756.69000000000005</ele>
        <time>2025-04-24T15:42:58Z</time>
      </trkpt>
      <trkpt lat="45.505243018269539" lon="3.420181022956967">
        <ele>758.13999999999999</ele>
        <time>2025-04-24T15:43:00Z</time>
      </trkpt>
      <trkpt lat="45.505229020491242" lon="3.419995028525591">
        <ele>759.10000000000002</ele>
        <time>2025-04-24T15:43:01Z</time>
      </trkpt>
      <trkpt lat="45.505220973864198" lon="3.419781038537622">
        <ele>759.10000000000002</ele>
        <time>2025-04-24T15:43:02Z</time>
      </trkpt>
      <trkpt lat="45.505220973864198" lon="3.419516002759337">
        <ele>759.58000000000004</ele>
        <time>2025-04-24T15:43:03Z</time>
      </trkpt>
      <trkpt lat="45.505293980240822" lon="3.419309975579381">
        <ele>760.05999999999995</ele>
        <time>2025-04-24T15:43:04Z</time>
      </trkpt>
      <trkpt lat="45.505376039072871" lon="3.419083999469876">
        <ele>761.01999999999998</ele>
        <time>2025-04-24T15:43:05Z</time>
      </trkpt>
      <trkpt lat="45.505463965237141" lon="3.418848970904946">
        <ele>761.5</ele>
        <time>2025-04-24T15:43:06Z</time>
      </trkpt>
      <trkpt lat="45.505942991003394" lon="3.417693022638559">
        <ele>765.35000000000002</ele>
        <time>2025-04-24T15:43:11Z</time>
      </trkpt>
      <trkpt lat="45.506070982664824" lon="3.41750199906528">
        <ele>766.30999999999995</ele>
        <time>2025-04-24T15:43:12Z</time>
      </trkpt>
      <trkpt lat="45.506183970719576" lon="3.417312987148762">
        <ele>767.26999999999998</ele>
        <time>2025-04-24T15:43:13Z</time>
      </trkpt>
      <trkpt lat="45.50627700984478" lon="3.417124981060624">
        <ele>767.75</ele>
        <time>2025-04-24T15:43:14Z</time>
      </trkpt>
      <trkpt lat="45.506335012614727" lon="3.416936974972487">
        <ele>768.71000000000004</ele>
        <time>2025-04-24T15:43:15Z</time>
      </trkpt>
      <trkpt lat="45.506372982636094" lon="3.416744023561478">
        <ele>769.19000000000005</ele>
        <time>2025-04-24T15:43:16Z</time>
      </trkpt>
      <trkpt lat="45.506326965987682" lon="3.416564986109734">
        <ele>769.66999999999996</ele>
        <time>2025-04-24T15:43:17Z</time>
      </trkpt>
      <trkpt lat="45.50627700984478" lon="3.416370023041964">
        <ele>770.63</ele>
        <time>2025-04-24T15:43:18Z</time>
      </trkpt>
      <trkpt lat="45.506226969882846" lon="3.416174976155162">
        <ele>771.60000000000002</ele>
        <time>2025-04-24T15:43:19Z</time>
      </trkpt>
      <trkpt lat="45.506212972104549" lon="3.415969032794237">
        <ele>772.55999999999995</ele>
        <time>2025-04-24T15:43:20Z</time>
      </trkpt>
      <trkpt lat="45.506219007074833" lon="3.415763005614281">
        <ele>774</ele>
        <time>2025-04-24T15:43:21Z</time>
      </trkpt>
      <trkpt lat="45.506225964054465" lon="3.415557984262705">
        <ele>774.96000000000004</ele>
        <time>2025-04-24T15:43:22Z</time>
      </trkpt>
      <trkpt lat="45.506202997639775" lon="3.415356986224651">
        <ele>775.91999999999996</ele>
        <time>2025-04-24T15:43:23Z</time>
      </trkpt>
      <trkpt lat="45.506147006526589" lon="3.415189012885094">
        <ele>776.88</ele>
        <time>2025-04-24T15:43:24Z</time>
      </trkpt>
      <trkpt lat="45.506100989878178" lon="3.41505297459662">
        <ele>777.84000000000003</ele>
        <time>2025-04-24T15:43:25Z</time>
      </trkpt>
      <trkpt lat="45.505994958803058" lon="3.414989020675421">
        <ele>779.28999999999996</ele>
        <time>2025-04-24T15:43:26Z</time>
      </trkpt>
      <trkpt lat="45.505905020982027" lon="3.414935041218996">
        <ele>780.25</ele>
        <time>2025-04-24T15:43:27Z</time>
      </trkpt>
      <trkpt lat="45.505814999341965" lon="3.414948033168912">
        <ele>781.21000000000004</ele>
        <time>2025-04-24T15:43:28Z</time>
      </trkpt>
      <trkpt lat="45.505722966045141" lon="3.414978962391615">
        <ele>782.64999999999998</ele>
        <time>2025-04-24T15:43:29Z</time>
      </trkpt>
      <trkpt lat="45.505630010738969" lon="3.414969993755221">
        <ele>783.61000000000001</ele>
        <time>2025-04-24T15:43:30Z</time>
      </trkpt>
      <trkpt lat="45.505534037947655" lon="3.414935041218996">
        <ele>784.57000000000005</ele>
        <time>2025-04-24T15:43:31Z</time>
      </trkpt>
      <trkpt lat="45.505468994379044" lon="3.414857005700469">
        <ele>785.52999999999997</ele>
        <time>2025-04-24T15:43:32Z</time>
      </trkpt>
      <trkpt lat="45.505419038236141" lon="3.414747035130858">
        <ele>786.98000000000002</ele>
        <time>2025-04-24T15:43:33Z</time>
      </trkpt>
      <trkpt lat="45.505392970517278" lon="3.414635974913836">
        <ele>787.94000000000005</ele>
        <time>2025-04-24T15:43:34Z</time>
      </trkpt>
      <trkpt lat="45.505364974960685" lon="3.414518041536212">
        <ele>788.41999999999996</ele>
        <time>2025-04-24T15:43:35Z</time>
      </trkpt>
      <trkpt lat="45.505257016047835" lon="3.414059970527887">
        <ele>791.77999999999997</ele>
        <time>2025-04-24T15:43:39Z</time>
      </trkpt>
      <trkpt lat="45.505235977470875" lon="3.413960980251432">
        <ele>792.74000000000001</ele>
        <time>2025-04-24T15:43:40Z</time>
      </trkpt>
      <trkpt lat="45.505217034369707" lon="3.413858972489834">
        <ele>793.71000000000004</ele>
        <time>2025-04-24T15:43:41Z</time>
      </trkpt>
      <trkpt lat="45.505203036591411" lon="3.413744978606701">
        <ele>794.19000000000005</ele>
        <time>2025-04-24T15:43:42Z</time>
      </trkpt>
      <trkpt lat="45.505229020491242" lon="3.413626961410046">
        <ele>794.66999999999996</ele>
        <time>2025-04-24T15:43:43Z</time>
      </trkpt>
      <trkpt lat="45.505280988290906" lon="3.413554038852453">
        <ele>795.14999999999998</ele>
        <time>2025-04-24T15:43:44Z</time>
      </trkpt>
      <trkpt lat="45.50533396191895" lon="3.41348203830421">
        <ele>795.63</ele>
        <time>2025-04-24T15:43:45Z</time>
      </trkpt>
      <trkpt lat="45.505516016855836" lon="3.413296965882182">
        <ele>796.59000000000003</ele>
        <time>2025-04-24T15:43:48Z</time>
      </trkpt>
      <trkpt lat="45.50571802072227" lon="3.413125975057483">
        <ele>799.47000000000003</ele>
        <time>2025-04-24T15:43:55Z</time>
      </trkpt>
      <trkpt lat="45.505911977961659" lon="3.412961019203067">
        <ele>802.84000000000003</ele>
        <time>2025-04-24T15:44:04Z</time>
      </trkpt>
      <trkpt lat="45.5061050131917" lon="3.412722973152995">
        <ele>805.24000000000001</ele>
        <time>2025-04-24T15:44:09Z</time>
      </trkpt>
      <trkpt lat="45.506133008748293" lon="3.412687014788389">
        <ele>805.72000000000003</ele>
        <time>2025-04-24T15:44:10Z</time>
      </trkpt>
      <trkpt lat="45.506143989041448" lon="3.412671005353332">
        <ele>805.72000000000003</ele>
        <time>2025-04-24T15:44:11Z</time>
      </trkpt>
      <trkpt lat="45.506186988204718" lon="3.412520969286561">
        <ele>806.20000000000005</ele>
        <time>2025-04-24T15:44:12Z</time>
      </trkpt>
      <trkpt lat="45.506085986271501" lon="3.412638986483216">
        <ele>806.67999999999995</ele>
        <time>2025-04-24T15:44:13Z</time>
      </trkpt>
      <trkpt lat="45.506022032350302" lon="3.412604033946991">
        <ele>807.15999999999997</ele>
        <time>2025-04-24T15:44:14Z</time>
      </trkpt>
      <trkpt lat="45.505951037630439" lon="3.412563968449831">
        <ele>807.63999999999999</ele>
        <time>2025-04-24T15:44:15Z</time>
      </trkpt>
      <trkpt lat="45.505876019597054" lon="3.412522980943322">
        <ele>808.13</ele>
        <time>2025-04-24T15:44:16Z</time>
      </trkpt>
      <trkpt lat="45.505216028541327" lon="3.412158032879233">
        <ele>809.57000000000005</ele>
        <time>2025-04-24T15:44:25Z</time>
      </trkpt>
      <trkpt lat="45.505135981366038" lon="3.412113022059202">
        <ele>809.57000000000005</ele>
        <time>2025-04-24T15:44:26Z</time>
      </trkpt>
      <trkpt lat="45.505112009122968" lon="3.412025012075901">
        <ele>809.57000000000005</ele>
        <time>2025-04-24T15:44:27Z</time>
      </trkpt>
      <trkpt lat="45.505085019394755" lon="3.411925015971065">
        <ele>809.57000000000005</ele>
        <time>2025-04-24T15:44:28Z</time>
      </trkpt>
      <trkpt lat="45.505056018009782" lon="3.411815967410803">
        <ele>809.57000000000005</ele>
        <time>2025-04-24T15:44:29Z</time>
      </trkpt>
      <trkpt lat="45.505022993311286" lon="3.411696022376418">
        <ele>809.09000000000003</ele>
        <time>2025-04-24T15:44:30Z</time>
      </trkpt>
      <trkpt lat="45.50498996861279" lon="3.411570964381099">
        <ele>808.13</ele>
        <time>2025-04-24T15:44:31Z</time>
      </trkpt>
      <trkpt lat="45.50494696944952" lon="3.411453031003475">
        <ele>807.63999999999999</ele>
        <time>2025-04-24T15:44:32Z</time>
      </trkpt>
      <trkpt lat="45.504852002486587" lon="3.411198975518346">
        <ele>805.72000000000003</ele>
        <time>2025-04-24T15:44:34Z</time>
      </trkpt>
      <trkpt lat="45.504806991666555" lon="3.411079030483961">
        <ele>804.75999999999999</ele>
        <time>2025-04-24T15:44:35Z</time>
      </trkpt>
      <trkpt lat="45.504745971411467" lon="3.410999989137054">
        <ele>804.27999999999997</ele>
        <time>2025-04-24T15:44:36Z</time>
      </trkpt>
      <trkpt lat="45.504675982519984" lon="3.410938968881965">
        <ele>803.79999999999995</ele>
        <time>2025-04-24T15:44:37Z</time>
      </trkpt>
      <trkpt lat="45.504599958658218" lon="3.410887001082301">
        <ele>803.32000000000005</ele>
        <time>2025-04-24T15:44:38Z</time>
      </trkpt>
      <trkpt lat="45.50432201474905" lon="3.410811983048916">
        <ele>800.91999999999996</ele>
        <time>2025-04-24T15:44:41Z</time>
      </trkpt>
      <trkpt lat="45.504234004765749" lon="3.410761021077633">
        <ele>799.95000000000005</ele>
        <time>2025-04-24T15:44:42Z</time>
      </trkpt>
      <trkpt lat="45.504174996167421" lon="3.410623976960778">
        <ele>798.99000000000001</ele>
        <time>2025-04-24T15:44:43Z</time>
      </trkpt>
      <trkpt lat="45.504114981740713" lon="3.410482993349433">
        <ele>798.50999999999999</ele>
        <time>2025-04-24T15:44:44Z</time>
      </trkpt>
      <trkpt lat="45.504093021154404" lon="3.410295993089676">
        <ele>797.54999999999995</ele>
        <time>2025-04-24T15:44:45Z</time>
      </trkpt>
      <trkpt lat="45.504078017547727" lon="3.410103041678667">
        <ele>796.59000000000003</ele>
        <time>2025-04-24T15:44:46Z</time>
      </trkpt>
      <trkpt lat="45.503972992300987" lon="3.408911973237991">
        <ele>790.82000000000005</ele>
        <time>2025-04-24T15:44:52Z</time>
      </trkpt>
      <trkpt lat="45.503894034773111" lon="3.408443005755544">
        <ele>786.98000000000002</ele>
        <time>2025-04-24T15:44:55Z</time>
      </trkpt>
      <trkpt lat="45.503840977326035" lon="3.408320965245366">
        <ele>786.01999999999998</ele>
        <time>2025-04-24T15:44:56Z</time>
      </trkpt>
      <trkpt lat="45.503778029233217" lon="3.408191967755556">
        <ele>784.57000000000005</ele>
        <time>2025-04-24T15:44:57Z</time>
      </trkpt>
      <trkpt lat="45.503709968179464" lon="3.408052995800972">
        <ele>783.61000000000001</ele>
        <time>2025-04-24T15:44:58Z</time>
      </trkpt>
      <trkpt lat="45.50363696180284" lon="3.407902959734201">
        <ele>782.64999999999998</ele>
        <time>2025-04-24T15:44:59Z</time>
      </trkpt>
      <trkpt lat="45.503142010420561" lon="3.406705018132925">
        <ele>774.48000000000002</ele>
        <time>2025-04-24T15:45:07Z</time>
      </trkpt>
      <trkpt lat="45.502865994349122" lon="3.406162038445473">
        <ele>768.23000000000002</ele>
        <time>2025-04-24T15:45:15Z</time>
      </trkpt>
      <trkpt lat="45.502824001014233" lon="3.406109986826778">
        <ele>765.83000000000004</ele>
        <time>2025-04-24T15:45:24Z</time>
      </trkpt>
      <trkpt lat="45.502824001014233" lon="3.406109986826778">
        <ele>764.87</ele>
        <time>2025-04-24T15:46:02Z</time>
      </trkpt>
      <trkpt lat="45.502824001014233" lon="3.406109986826778">
        <ele>764.87</ele>
        <time>2025-04-24T15:46:44Z</time>
      </trkpt>
      <trkpt lat="45.502824001014233" lon="3.406109986826778">
        <ele>764.87</ele>
        <time>2025-04-24T15:47:31Z</time>
      </trkpt>
      <trkpt lat="45.502675976604223" lon="3.405931033194065">
        <ele>766.30999999999995</ele>
        <time>2025-04-24T15:47:54Z</time>
      </trkpt>
      <trkpt lat="45.502013973891735" lon="3.405403979122639">
        <ele>762.46000000000004</ele>
        <time>2025-04-24T15:48:01Z</time>
      </trkpt>
      <trkpt lat="45.501813981682062" lon="3.405251009389758">
        <ele>761.01999999999998</ele>
        <time>2025-04-24T15:48:03Z</time>
      </trkpt>
      <trkpt lat="45.501727983355522" lon="3.405184959992766">
        <ele>760.53999999999996</ele>
        <time>2025-04-24T15:48:04Z</time>
      </trkpt>
      <trkpt lat="45.501618012785912" lon="3.405217984691262">
        <ele>759.58000000000004</ele>
        <time>2025-04-24T15:48:05Z</time>
      </trkpt>
      <trkpt lat="45.501522039994597" lon="3.405250003561378">
        <ele>759.10000000000002</ele>
        <time>2025-04-24T15:48:06Z</time>
      </trkpt>
      <trkpt lat="45.501427995041013" lon="3.405302977189422">
        <ele>758.62</ele>
        <time>2025-04-24T15:48:07Z</time>
      </trkpt>
      <trkpt lat="45.50133797340095" lon="3.405386041849852">
        <ele>758.13999999999999</ele>
        <time>2025-04-24T15:48:08Z</time>
      </trkpt>
      <trkpt lat="45.501240994781256" lon="3.405474973842502">
        <ele>757.65999999999997</ele>
        <time>2025-04-24T15:48:09Z</time>
      </trkpt>
      <trkpt lat="45.501136975362897" lon="3.405571030452848">
        <ele>756.69000000000005</ele>
        <time>2025-04-24T15:48:10Z</time>
      </trkpt>
      <trkpt lat="45.500930026173592" lon="3.405760964378715">
        <ele>755.25</ele>
        <time>2025-04-24T15:48:12Z</time>
      </trkpt>
      <trkpt lat="45.500843022018671" lon="3.405761970207095">
        <ele>754.28999999999996</ele>
        <time>2025-04-24T15:48:13Z</time>
      </trkpt>
      <trkpt lat="45.500731039792299" lon="3.405761970207095">
        <ele>753.33000000000004</ele>
        <time>2025-04-24T15:48:14Z</time>
      </trkpt>
      <trkpt lat="45.500636994838715" lon="3.405726011842489">
        <ele>752.37</ele>
        <time>2025-04-24T15:48:15Z</time>
      </trkpt>
      <trkpt lat="45.500521995127201" lon="3.405654011294246">
        <ele>750.92999999999995</ele>
        <time>2025-04-24T15:48:16Z</time>
      </trkpt>
      <trkpt lat="45.500416969880462" lon="3.40555502101779">
        <ele>750.45000000000005</ele>
        <time>2025-04-24T15:48:17Z</time>
      </trkpt>
      <trkpt lat="45.500298030674458" lon="3.405443038791418">
        <ele>749.49000000000001</ele>
        <time>2025-04-24T15:48:18Z</time>
      </trkpt>
      <trkpt lat="45.500090997666121" lon="3.405185965821147">
        <ele>747.55999999999995</ele>
        <time>2025-04-24T15:48:20Z</time>
      </trkpt>
      <trkpt lat="45.500010028481483" lon="3.405032996088266">
        <ele>746.60000000000002</ele>
        <time>2025-04-24T15:48:21Z</time>
      </trkpt>
      <trkpt lat="45.499954959377646" lon="3.404868040233851">
        <ele>745.63999999999999</ele>
        <time>2025-04-24T15:48:22Z</time>
      </trkpt>
      <trkpt lat="45.499931992962956" lon="3.404668970033526">
        <ele>744.67999999999995</ele>
        <time>2025-04-24T15:48:23Z</time>
      </trkpt>
      <trkpt lat="45.49991799518466" lon="3.404449028894305">
        <ele>744.20000000000005</ele>
        <time>2025-04-24T15:48:24Z</time>
      </trkpt>
      <trkpt lat="45.499856974929571" lon="3.403186965733767">
        <ele>738.42999999999995</ele>
        <time>2025-04-24T15:48:30Z</time>
      </trkpt>
      <trkpt lat="45.499796038493514" lon="3.40304296463728">
        <ele>737.47000000000003</ele>
        <time>2025-04-24T15:48:31Z</time>
      </trkpt>
      <trkpt lat="45.499739041551948" lon="3.402909021824598">
        <ele>736.50999999999999</ele>
        <time>2025-04-24T15:48:32Z</time>
      </trkpt>
      <trkpt lat="45.499686989933252" lon="3.40278496965766">
        <ele>735.07000000000005</ele>
        <time>2025-04-24T15:48:33Z</time>
      </trkpt>
      <trkpt lat="45.499642984941602" lon="3.402681034058332">
        <ele>734.10000000000002</ele>
        <time>2025-04-24T15:48:34Z</time>
      </trkpt>
      <trkpt lat="45.499651031568646" lon="3.402539966627955">
        <ele>732.65999999999997</ele>
        <time>2025-04-24T15:48:35Z</time>
      </trkpt>
      <trkpt lat="45.499718002974987" lon="3.402479030191898">
        <ele>731.70000000000005</ele>
        <time>2025-04-24T15:48:36Z</time>
      </trkpt>
      <trkpt lat="45.499770976603031" lon="3.402456985786557">
        <ele>730.25999999999999</ele>
        <time>2025-04-24T15:48:37Z</time>
      </trkpt>
      <trkpt lat="45.499847000464797" lon="3.402519011870027">
        <ele>729.29999999999995</ele>
        <time>2025-04-24T15:48:38Z</time>
      </trkpt>
      <trkpt lat="45.499927969649434" lon="3.402584977447987">
        <ele>727.86000000000001</ele>
        <time>2025-04-24T15:48:39Z</time>
      </trkpt>
      <trkpt lat="45.500014973804355" lon="3.40265597216785">
        <ele>726.88999999999999</ele>
        <time>2025-04-24T15:48:40Z</time>
      </trkpt>
      <trkpt lat="45.500107007101178" lon="3.402730990201235">
        <ele>725.45000000000005</ele>
        <time>2025-04-24T15:48:41Z</time>
      </trkpt>
      <trkpt lat="45.500277997925878" lon="3.402869962155819">
        <ele>723.04999999999995</ele>
        <time>2025-04-24T15:48:43Z</time>
      </trkpt>
      <trkpt lat="45.500351004302502" lon="3.402928970754147">
        <ele>722.09000000000003</ele>
        <time>2025-04-24T15:48:44Z</time>
      </trkpt>
      <trkpt lat="45.500432979315519" lon="3.402920002117753">
        <ele>720.64999999999998</ele>
        <time>2025-04-24T15:48:45Z</time>
      </trkpt>
      <trkpt lat="45.500496011227369" lon="3.402912961319089">
        <ele>719.67999999999995</ele>
        <time>2025-04-24T15:48:46Z</time>
      </trkpt>
      <trkpt lat="45.500544039532542" lon="3.402908015996218">
        <ele>719.20000000000005</ele>
        <time>2025-04-24T15:48:47Z</time>
      </trkpt>
      <trkpt lat="45.500555019825697" lon="3.402861999347806">
        <ele>718.24000000000001</ele>
        <time>2025-04-24T15:48:48Z</time>
      </trkpt>
      <trkpt lat="45.500570023432374" lon="3.402800979092717">
        <ele>717.75999999999999</ele>
        <time>2025-04-24T15:48:49Z</time>
      </trkpt>
      <trkpt lat="45.500587960705161" lon="3.402729984372854">
        <ele>716.79999999999995</ele>
        <time>2025-04-24T15:48:50Z</time>
      </trkpt>
      <trkpt lat="45.500607993453741" lon="3.402639040723443">
        <ele>716.32000000000005</ele>
        <time>2025-04-24T15:48:51Z</time>
      </trkpt>
      <trkpt lat="45.500613022595644" lon="3.40252404101193">
        <ele>715.36000000000001</ele>
        <time>2025-04-24T15:48:52Z</time>
      </trkpt>
      <trkpt lat="45.500617967918515" lon="3.402403006330133">
        <ele>714.39999999999998</ele>
        <time>2025-04-24T15:48:53Z</time>
      </trkpt>
      <trkpt lat="45.500622997060418" lon="3.402280965819955">
        <ele>713.91999999999996</ele>
        <time>2025-04-24T15:48:54Z</time>
      </trkpt>
      <trkpt lat="45.500629032030702" lon="3.402155991643667">
        <ele>712.95000000000005</ele>
        <time>2025-04-24T15:48:55Z</time>
      </trkpt>
      <trkpt lat="45.500656021758914" lon="3.402045015245676">
        <ele>711.99000000000001</ele>
        <time>2025-04-24T15:48:56Z</time>
      </trkpt>
      <trkpt lat="45.500687034800649" lon="3.401938984170556">
        <ele>711.50999999999999</ele>
        <time>2025-04-24T15:48:57Z</time>
      </trkpt>
      <trkpt lat="45.500716036185622" lon="3.4018399938941">
        <ele>710.54999999999995</ele>
        <time>2025-04-24T15:48:58Z</time>
      </trkpt>
      <trkpt lat="45.500744031742215" lon="3.401767993345857">
        <ele>710.07000000000005</ele>
        <time>2025-04-24T15:48:59Z</time>
      </trkpt>
      <trkpt lat="45.500813014805317" lon="3.401747960597277">
        <ele>709.11000000000001</ele>
        <time>2025-04-24T15:49:00Z</time>
      </trkpt>
      <trkpt lat="45.500889960676432" lon="3.401724994182587">
        <ele>708.14999999999998</ele>
        <time>2025-04-24T15:49:01Z</time>
      </trkpt>
      <trkpt lat="45.500976964831352" lon="3.401718037202954">
        <ele>707.19000000000005</ele>
        <time>2025-04-24T15:49:02Z</time>
      </trkpt>
      <trkpt lat="45.501065980643034" lon="3.401758018881083">
        <ele>706.71000000000004</ele>
        <time>2025-04-24T15:49:03Z</time>
      </trkpt>
      <trkpt lat="45.501187015324831" lon="3.401814009994268">
        <ele>705.75</ele>
        <time>2025-04-24T15:49:04Z</time>
      </trkpt>
      <trkpt lat="45.50124803557992" lon="3.401874024420977">
        <ele>704.77999999999997</ele>
        <time>2025-04-24T15:49:05Z</time>
      </trkpt>
      <trkpt lat="45.501326993107796" lon="3.401977960020304">
        <ele>703.82000000000005</ele>
        <time>2025-04-24T15:49:06Z</time>
      </trkpt>
      <trkpt lat="45.501366974785924" lon="3.402107041329145">
        <ele>702.86000000000001</ele>
        <time>2025-04-24T15:49:07Z</time>
      </trkpt>
      <trkpt lat="45.501402011141181" lon="3.402221035212278">
        <ele>702.38</ele>
        <time>2025-04-24T15:49:08Z</time>
      </trkpt>
      <trkpt lat="45.501388013362885" lon="3.402381967753172">
        <ele>701.89999999999998</ele>
        <time>2025-04-24T15:49:09Z</time>
      </trkpt>
      <trkpt lat="45.501374015584588" lon="3.402536027133465">
        <ele>701.41999999999996</ele>
        <time>2025-04-24T15:49:10Z</time>
      </trkpt>
      <trkpt lat="45.501361023634672" lon="3.402690002694726">
        <ele>700.94000000000005</ele>
        <time>2025-04-24T15:49:11Z</time>
      </trkpt>
      <trkpt lat="45.501348031684756" lon="3.402834003791213">
        <ele>700.94000000000005</ele>
        <time>2025-04-24T15:49:12Z</time>
      </trkpt>
      <trkpt lat="45.50133797340095" lon="3.402951015159488">
        <ele>700.46000000000004</ele>
        <time>2025-04-24T15:49:13Z</time>
      </trkpt>
      <trkpt lat="45.50137703306973" lon="3.403058974072337">
        <ele>699.98000000000002</ele>
        <time>2025-04-24T15:49:14Z</time>
      </trkpt>
      <trkpt lat="45.501412991434336" lon="3.403157964348793">
        <ele>699.5</ele>
        <time>2025-04-24T15:49:15Z</time>
      </trkpt>
      <trkpt lat="45.501489015296102" lon="3.403189983218908">
        <ele>699.01999999999998</ele>
        <time>2025-04-24T15:49:16Z</time>
      </trkpt>
      <trkpt lat="45.501583982259035" lon="3.403194006532431">
        <ele>698.52999999999997</ele>
        <time>2025-04-24T15:49:17Z</time>
      </trkpt>
      <trkpt lat="45.501692024990916" lon="3.403198029845953">
        <ele>698.04999999999995</ele>
        <time>2025-04-24T15:49:18Z</time>
      </trkpt>
      <trkpt lat="45.501819010823965" lon="3.403203980997205">
        <ele>697.09000000000003</ele>
        <time>2025-04-24T15:49:19Z</time>
      </trkpt>
      <trkpt lat="45.502225030213594" lon="3.403227031230927">
        <ele>694.69000000000005</ele>
        <time>2025-04-24T15:49:22Z</time>
      </trkpt>
      <trkpt lat="45.502374982461333" lon="3.403184032067657">
        <ele>693.25</ele>
        <time>2025-04-24T15:49:23Z</time>
      </trkpt>
      <trkpt lat="45.502519989386201" lon="3.40312602929771">
        <ele>692.28999999999996</ele>
        <time>2025-04-24T15:49:24Z</time>
      </trkpt>
      <trkpt lat="45.502964984625578" lon="3.402947997674346">
        <ele>688.91999999999996</ele>
        <time>2025-04-24T15:49:27Z</time>
      </trkpt>
      <trkpt lat="45.503233037889004" lon="3.40291396714747">
        <ele>686.51999999999998</ele>
        <time>2025-04-24T15:49:29Z</time>
      </trkpt>
      <trkpt lat="45.503366980701685" lon="3.402926037088037">
        <ele>685.08000000000004</ele>
        <time>2025-04-24T15:49:30Z</time>
      </trkpt>
      <trkpt lat="45.503521962091327" lon="3.402974987402558">
        <ele>684.12</ele>
        <time>2025-04-24T15:49:31Z</time>
      </trkpt>
      <trkpt lat="45.504139037802815" lon="3.403108008205891">
        <ele>678.35000000000002</ele>
        <time>2025-04-24T15:49:35Z</time>
      </trkpt>
      <trkpt lat="45.504370965063572" lon="3.403203980997205">
        <ele>675.46000000000004</ele>
        <time>2025-04-24T15:49:37Z</time>
      </trkpt>
      <trkpt lat="45.504465010017157" lon="3.403286961838603">
        <ele>674.01999999999998</ele>
        <time>2025-04-24T15:49:38Z</time>
      </trkpt>
      <trkpt lat="45.504550002515316" lon="3.403360974043608">
        <ele>672.58000000000004</ele>
        <time>2025-04-24T15:49:39Z</time>
      </trkpt>
      <trkpt lat="45.504619991406798" lon="3.403421994298697">
        <ele>671.62</ele>
        <time>2025-04-24T15:49:40Z</time>
      </trkpt>
      <trkpt lat="45.50468796864152" lon="3.403384024277329">
        <ele>670.65999999999997</ele>
        <time>2025-04-24T15:49:41Z</time>
      </trkpt>
      <trkpt lat="45.50477103330195" lon="3.403337001800537">
        <ele>670.17999999999995</ele>
        <time>2025-04-24T15:49:42Z</time>
      </trkpt>
      <trkpt lat="45.504853008314967" lon="3.403243040665984">
        <ele>669.70000000000005</ele>
        <time>2025-04-24T15:49:43Z</time>
      </trkpt>
      <trkpt lat="45.504951998591423" lon="3.4031299687922">
        <ele>669.70000000000005</ele>
        <time>2025-04-24T15:49:44Z</time>
      </trkpt>
      <trkpt lat="45.505155008286238" lon="3.402898041531444">
        <ele>669.22000000000003</ele>
        <time>2025-04-24T15:49:46Z</time>
      </trkpt>
      <trkpt lat="45.505264978855848" lon="3.402799973264337">
        <ele>668.73000000000002</ele>
        <time>2025-04-24T15:49:47Z</time>
      </trkpt>
      <trkpt lat="45.505386013537645" lon="3.402739958837628">
        <ele>668.73000000000002</ele>
        <time>2025-04-24T15:49:48Z</time>
      </trkpt>
      <trkpt lat="45.505509981885552" lon="3.402714980766177">
        <ele>668.25</ele>
        <time>2025-04-24T15:49:49Z</time>
      </trkpt>
      <trkpt lat="45.505618024617434" lon="3.402695031836629">
        <ele>667.28999999999996</ele>
        <time>2025-04-24T15:49:50Z</time>
      </trkpt>
      <trkpt lat="45.505710979923606" lon="3.402760997414589">
        <ele>666.80999999999995</ele>
        <time>2025-04-24T15:49:51Z</time>
      </trkpt>
      <trkpt lat="45.505770994350314" lon="3.402846995741129">
        <ele>665.85000000000002</ele>
        <time>2025-04-24T15:49:52Z</time>
      </trkpt>
      <trkpt lat="45.505803013220429" lon="3.402973981574178">
        <ele>664.40999999999997</ele>
        <time>2025-04-24T15:49:53Z</time>
      </trkpt>
      <trkpt lat="45.505819022655487" lon="3.403132986277342">
        <ele>663.45000000000005</ele>
        <time>2025-04-24T15:49:54Z</time>
      </trkpt>
      <trkpt lat="45.505836959928274" lon="3.403316969051957">
        <ele>662.49000000000001</ele>
        <time>2025-04-24T15:49:55Z</time>
      </trkpt>
      <trkpt lat="45.505856992676854" lon="3.403524002060294">
        <ele>661.03999999999996</ele>
        <time>2025-04-24T15:49:56Z</time>
      </trkpt>
      <trkpt lat="45.505878031253815" lon="3.403732962906361">
        <ele>659.12</ele>
        <time>2025-04-24T15:49:57Z</time>
      </trkpt>
      <trkpt lat="45.505929999053478" lon="3.404260016977787">
        <ele>654.79999999999995</ele>
        <time>2025-04-24T15:50:00Z</time>
      </trkpt>
      <trkpt lat="45.505956988781691" lon="3.404329000040889">
        <ele>653.83000000000004</ele>
        <time>2025-04-24T15:50:01Z</time>
      </trkpt>
      <trkpt lat="45.506034018471837" lon="3.404356995597482">
        <ele>652.38999999999999</ele>
        <time>2025-04-24T15:50:02Z</time>
      </trkpt>
      <trkpt lat="45.506096966564655" lon="3.404346015304327">
        <ele>651.42999999999995</ele>
        <time>2025-04-24T15:50:03Z</time>
      </trkpt>
      <trkpt lat="45.506132002919912" lon="3.404262028634548">
        <ele>650.95000000000005</ele>
        <time>2025-04-24T15:50:04Z</time>
      </trkpt>
      <trkpt lat="45.506175002083182" lon="3.404147028923035">
        <ele>650.95000000000005</ele>
        <time>2025-04-24T15:50:05Z</time>
      </trkpt>
      <trkpt lat="45.506222024559975" lon="3.404020965099335">
        <ele>650.47000000000003</ele>
        <time>2025-04-24T15:50:06Z</time>
      </trkpt>
      <trkpt lat="45.506270974874496" lon="3.403890961781144">
        <ele>649.99000000000001</ele>
        <time>2025-04-24T15:50:07Z</time>
      </trkpt>
      <trkpt lat="45.506323026493192" lon="3.403748972341418">
        <ele>649.99000000000001</ele>
        <time>2025-04-24T15:50:08Z</time>
      </trkpt>
      <trkpt lat="45.506383962929249" lon="3.403588039800525">
        <ele>649.99000000000001</ele>
        <time>2025-04-24T15:50:09Z</time>
      </trkpt>
      <trkpt lat="45.506716975942254" lon="3.402819000184536">
        <ele>647.10000000000002</ele>
        <time>2025-04-24T15:50:14Z</time>
      </trkpt>
      <trkpt lat="45.506868017837405" lon="3.402544995769858">
        <ele>645.65999999999997</ele>
        <time>2025-04-24T15:50:16Z</time>
      </trkpt>
      <trkpt lat="45.506925014778972" lon="3.402357995510101">
        <ele>645.17999999999995</ele>
        <time>2025-04-24T15:50:17Z</time>
      </trkpt>
      <trkpt lat="45.506920991465449" lon="3.402135958895087">
        <ele>644.70000000000005</ele>
        <time>2025-04-24T15:50:18Z</time>
      </trkpt>
      <trkpt lat="45.506872041150928" lon="3.401952981948853">
        <ele>643.74000000000001</ele>
        <time>2025-04-24T15:50:19Z</time>
      </trkpt>
      <trkpt lat="45.506823007017374" lon="3.401768999174237">
        <ele>643.25999999999999</ele>
        <time>2025-04-24T15:50:20Z</time>
      </trkpt>
      <trkpt lat="45.506777996197343" lon="3.401599014177918">
        <ele>642.77999999999997</ele>
        <time>2025-04-24T15:50:21Z</time>
      </trkpt>
      <trkpt lat="45.506766010075808" lon="3.401450989767909">
        <ele>642.29999999999995</ele>
        <time>2025-04-24T15:50:22Z</time>
      </trkpt>
      <trkpt lat="45.506766010075808" lon="3.401321992278099">
        <ele>641.82000000000005</ele>
        <time>2025-04-24T15:50:23Z</time>
      </trkpt>
      <trkpt lat="45.506824012845755" lon="3.401219984516501">
        <ele>641.34000000000003</ele>
        <time>2025-04-24T15:50:24Z</time>
      </trkpt>
      <trkpt lat="45.506918979808688" lon="3.401146978139877">
        <ele>640.86000000000001</ele>
        <time>2025-04-24T15:50:25Z</time>
      </trkpt>
      <trkpt lat="45.507033979520202" lon="3.401089981198311">
        <ele>640.86000000000001</ele>
        <time>2025-04-24T15:50:26Z</time>
      </trkpt>
      <trkpt lat="45.50715702585876" lon="3.401028038933873">
        <ele>640.38</ele>
        <time>2025-04-24T15:50:27Z</time>
      </trkpt>
      <trkpt lat="45.507277976721525" lon="3.400943968445063">
        <ele>639.88999999999999</ele>
        <time>2025-04-24T15:50:28Z</time>
      </trkpt>
      <trkpt lat="45.507357018068433" lon="3.400803990662098">
        <ele>639.40999999999997</ele>
        <time>2025-04-24T15:50:29Z</time>
      </trkpt>
      <trkpt lat="45.507421977818012" lon="3.400688990950584">
        <ele>638.45000000000005</ele>
        <time>2025-04-24T15:50:30Z</time>
      </trkpt>
      <trkpt lat="45.507446033880115" lon="3.400558987632394">
        <ele>637.97000000000003</ele>
        <time>2025-04-24T15:50:31Z</time>
      </trkpt>
      <trkpt lat="45.507430024445057" lon="3.400416998192668">
        <ele>637.49000000000001</ele>
        <time>2025-04-24T15:50:32Z</time>
      </trkpt>
      <trkpt lat="45.507361041381955" lon="3.400315996259451">
        <ele>637.00999999999999</ele>
        <time>2025-04-24T15:50:33Z</time>
      </trkpt>
      <trkpt lat="45.507276970893145" lon="3.400193033739924">
        <ele>636.04999999999995</ele>
        <time>2025-04-24T15:50:34Z</time>
      </trkpt>
      <trkpt lat="45.507184015586972" lon="3.400058001279831">
        <ele>635.57000000000005</ele>
        <time>2025-04-24T15:50:35Z</time>
      </trkpt>
      <trkpt lat="45.506896013393998" lon="3.399608982726932">
        <ele>633.16999999999996</ele>
        <time>2025-04-24T15:50:38Z</time>
      </trkpt>
      <trkpt lat="45.506831975653768" lon="3.399422988295555">
        <ele>632.67999999999995</ele>
        <time>2025-04-24T15:50:39Z</time>
      </trkpt>
      <trkpt lat="45.50677103921771" lon="3.399248979985714">
        <ele>631.72000000000003</ele>
        <time>2025-04-24T15:50:40Z</time>
      </trkpt>
      <trkpt lat="45.506751006469131" lon="3.399064997211099">
        <ele>631.24000000000001</ele>
        <time>2025-04-24T15:50:41Z</time>
      </trkpt>
      <trkpt lat="45.506759975105524" lon="3.398883026093245">
        <ele>630.27999999999997</ele>
        <time>2025-04-24T15:50:42Z</time>
      </trkpt>
      <trkpt lat="45.506785036996007" lon="3.398704994469881">
        <ele>629.32000000000005</ele>
        <time>2025-04-24T15:50:43Z</time>
      </trkpt>
      <trkpt lat="45.506840022280812" lon="3.398516988381743">
        <ele>628.36000000000001</ele>
        <time>2025-04-24T15:50:44Z</time>
      </trkpt>
      <trkpt lat="45.506896013393998" lon="3.398325964808464">
        <ele>627.39999999999998</ele>
        <time>2025-04-24T15:50:45Z</time>
      </trkpt>
      <trkpt lat="45.507062980905175" lon="3.397755995392799">
        <ele>624.50999999999999</ele>
        <time>2025-04-24T15:50:48Z</time>
      </trkpt>
      <trkpt lat="45.507084019482136" lon="3.397558014839888">
        <ele>624.02999999999997</ele>
        <time>2025-04-24T15:50:49Z</time>
      </trkpt>
      <trkpt lat="45.507076978683472" lon="3.39737000875175">
        <ele>623.54999999999995</ele>
        <time>2025-04-24T15:50:50Z</time>
      </trkpt>
      <trkpt lat="45.507111009210348" lon="3.396092019975185">
        <ele>619.23000000000002</ele>
        <time>2025-04-24T15:50:56Z</time>
      </trkpt>
      <trkpt lat="45.507212011143565" lon="3.395548034459353">
        <ele>616.82000000000005</ele>
        <time>2025-04-24T15:50:59Z</time>
      </trkpt>
      <trkpt lat="45.507242018356919" lon="3.395388023927808">
        <ele>615.38</ele>
        <time>2025-04-24T15:51:00Z</time>
      </trkpt>
      <trkpt lat="45.507285017520189" lon="3.395235976204276">
        <ele>614.89999999999998</ele>
        <time>2025-04-24T15:51:01Z</time>
      </trkpt>
      <trkpt lat="45.507356012240052" lon="3.395084012299776">
        <ele>613.94000000000005</ele>
        <time>2025-04-24T15:51:02Z</time>
      </trkpt>
      <trkpt lat="45.50743899308145" lon="3.394945040345192">
        <ele>612.98000000000002</ele>
        <time>2025-04-24T15:51:03Z</time>
      </trkpt>
      <trkpt lat="45.507539995014668" lon="3.394864993169904">
        <ele>612.01999999999998</ele>
        <time>2025-04-24T15:51:04Z</time>
      </trkpt>
      <trkpt lat="45.507634039968252" lon="3.394788969308138">
        <ele>611.05999999999995</ele>
        <time>2025-04-24T15:51:05Z</time>
      </trkpt>
      <trkpt lat="45.507721966132522" lon="3.394718980416656">
        <ele>610.09000000000003</ele>
        <time>2025-04-24T15:51:06Z</time>
      </trkpt>
      <trkpt lat="45.507767982780933" lon="3.394601969048381">
        <ele>609.61000000000001</ele>
        <time>2025-04-24T15:51:07Z</time>
      </trkpt>
      <trkpt lat="45.50773998722434" lon="3.394513037055731">
        <ele>608.64999999999998</ele>
        <time>2025-04-24T15:51:08Z</time>
      </trkpt>
      <trkpt lat="45.507693970575929" lon="3.394436007365584">
        <ele>608.16999999999996</ele>
        <time>2025-04-24T15:51:09Z</time>
      </trkpt>
      <trkpt lat="45.50761098973453" lon="3.394350009039044">
        <ele>607.21000000000004</ele>
        <time>2025-04-24T15:51:10Z</time>
      </trkpt>
      <trkpt lat="45.507511999458075" lon="3.394246995449066">
        <ele>606.73000000000002</ele>
        <time>2025-04-24T15:51:11Z</time>
      </trkpt>
      <trkpt lat="45.507406974211335" lon="3.394138030707836">
        <ele>605.28999999999996</ele>
        <time>2025-04-24T15:51:12Z</time>
      </trkpt>
      <trkpt lat="45.507053006440401" lon="3.393745003268123">
        <ele>601.91999999999996</ele>
        <time>2025-04-24T15:51:15Z</time>
      </trkpt>
      <trkpt lat="45.506933983415365" lon="3.393595973029733">
        <ele>600.96000000000004</ele>
        <time>2025-04-24T15:51:16Z</time>
      </trkpt>
      <trkpt lat="45.506830969825387" lon="3.393466975539923">
        <ele>599.51999999999998</ele>
        <time>2025-04-24T15:51:17Z</time>
      </trkpt>
      <trkpt lat="45.506765004247427" lon="3.393270000815392">
        <ele>599.03999999999996</ele>
        <time>2025-04-24T15:51:18Z</time>
      </trkpt>
      <trkpt lat="45.506701972335577" lon="3.393079983070493">
        <ele>598.08000000000004</ele>
        <time>2025-04-24T15:51:19Z</time>
      </trkpt>
      <trkpt lat="45.506714964285493" lon="3.392896000295878">
        <ele>597.12</ele>
        <time>2025-04-24T15:51:20Z</time>
      </trkpt>
      <trkpt lat="45.506740026175976" lon="3.392699025571346">
        <ele>595.66999999999996</ele>
        <time>2025-04-24T15:51:21Z</time>
      </trkpt>
      <trkpt lat="45.506782019510865" lon="3.392500039190054">
        <ele>594.23000000000002</ele>
        <time>2025-04-24T15:51:22Z</time>
      </trkpt>
      <trkpt lat="45.506830969825387" lon="3.392265010625124">
        <ele>592.78999999999996</ele>
        <time>2025-04-24T15:51:23Z</time>
      </trkpt>
      <trkpt lat="45.50689903087914" lon="3.39212897233665">
        <ele>591.83000000000004</ele>
        <time>2025-04-24T15:51:24Z</time>
      </trkpt>
      <trkpt lat="45.506987040862441" lon="3.39195697568357">
        <ele>590.38999999999999</ele>
        <time>2025-04-24T15:51:25Z</time>
      </trkpt>
      <trkpt lat="45.507105980068445" lon="3.391824960708618">
        <ele>589.42999999999995</ele>
        <time>2025-04-24T15:51:26Z</time>
      </trkpt>
      <trkpt lat="45.507220979779959" lon="3.391724964603782">
        <ele>588.46000000000004</ele>
        <time>2025-04-24T15:51:27Z</time>
      </trkpt>
      <trkpt lat="45.507338996976614" lon="3.391662016510963">
        <ele>587.01999999999998</ele>
        <time>2025-04-24T15:51:28Z</time>
      </trkpt>
      <trkpt lat="45.507443016394973" lon="3.391606025397778">
        <ele>586.05999999999995</ele>
        <time>2025-04-24T15:51:29Z</time>
      </trkpt>
      <trkpt lat="45.50752499140799" lon="3.391541987657547">
        <ele>585.10000000000002</ele>
        <time>2025-04-24T15:51:30Z</time>
      </trkpt>
      <trkpt lat="45.507581988349557" lon="3.391431011259556">
        <ele>585.10000000000002</ele>
        <time>2025-04-24T15:51:31Z</time>
      </trkpt>
      <trkpt lat="45.507581988349557" lon="3.391321040689945">
        <ele>584.62</ele>
        <time>2025-04-24T15:51:32Z</time>
      </trkpt>
      <trkpt lat="45.507536977529526" lon="3.391186008229852">
        <ele>584.13999999999999</ele>
        <time>2025-04-24T15:51:33Z</time>
      </trkpt>
      <trkpt lat="45.507493978366256" lon="3.391056004911661">
        <ele>583.65999999999997</ele>
        <time>2025-04-24T15:51:34Z</time>
      </trkpt>
      <trkpt lat="45.507447039708495" lon="3.390917032957077">
        <ele>583.17999999999995</ele>
        <time>2025-04-24T15:51:35Z</time>
      </trkpt>
      <trkpt lat="45.507401023060083" lon="3.390778983011842">
        <ele>582.22000000000003</ele>
        <time>2025-04-24T15:51:36Z</time>
      </trkpt>
      <trkpt lat="45.507389036938548" lon="3.390632970258594">
        <ele>581.73000000000002</ele>
        <time>2025-04-24T15:51:37Z</time>
      </trkpt>
      <trkpt lat="45.507406974211335" lon="3.390503972768784">
        <ele>580.28999999999996</ele>
        <time>2025-04-24T15:51:38Z</time>
      </trkpt>
      <trkpt lat="45.507452990859747" lon="3.390398025512695">
        <ele>579.33000000000004</ele>
        <time>2025-04-24T15:51:39Z</time>
      </trkpt>
      <trkpt lat="45.507518034428358" lon="3.390316972509027">
        <ele>578.37</ele>
        <time>2025-04-24T15:51:40Z</time>
      </trkpt>
      <trkpt lat="45.507591962814331" lon="3.390224017202854">
        <ele>576.92999999999995</ele>
        <time>2025-04-24T15:51:41Z</time>
      </trkpt>
      <trkpt lat="45.507665975019336" lon="3.390131983906031">
        <ele>575.49000000000001</ele>
        <time>2025-04-24T15:51:42Z</time>
      </trkpt>
      <trkpt lat="45.507720038294792" lon="3.390015978366137">
        <ele>574.03999999999996</ele>
        <time>2025-04-24T15:51:43Z</time>
      </trkpt>
      <trkpt lat="45.50773998722434" lon="3.389898966997862">
        <ele>572.60000000000002</ele>
        <time>2025-04-24T15:51:44Z</time>
      </trkpt>
      <trkpt lat="45.507734036073089" lon="3.389750020578504">
        <ele>571.63999999999999</ele>
        <time>2025-04-24T15:51:45Z</time>
      </trkpt>
      <trkpt lat="45.507664969190955" lon="3.389611970633268">
        <ele>570.20000000000005</ele>
        <time>2025-04-24T15:51:46Z</time>
      </trkpt>
      <trkpt lat="45.507564973086119" lon="3.389489008113742">
        <ele>569.24000000000001</ele>
        <time>2025-04-24T15:51:47Z</time>
      </trkpt>
      <trkpt lat="45.507456008344889" lon="3.389353975653648">
        <ele>567.79999999999995</ele>
        <time>2025-04-24T15:51:48Z</time>
      </trkpt>
      <trkpt lat="45.507354000583291" lon="3.3892269898206">
        <ele>566.35000000000002</ele>
        <time>2025-04-24T15:51:49Z</time>
      </trkpt>
      <trkpt lat="45.507260039448738" lon="3.389110984280706">
        <ele>565.38999999999999</ele>
        <time>2025-04-24T15:51:50Z</time>
      </trkpt>
      <trkpt lat="45.507207987830043" lon="3.388948040083051">
        <ele>563.95000000000005</ele>
        <time>2025-04-24T15:51:51Z</time>
      </trkpt>
      <trkpt lat="45.507150990888476" lon="3.388769002631307">
        <ele>562.99000000000001</ele>
        <time>2025-04-24T15:51:52Z</time>
      </trkpt>
      <trkpt lat="45.507089970633388" lon="3.388579990714788">
        <ele>562.02999999999997</ele>
        <time>2025-04-24T15:51:53Z</time>
      </trkpt>
      <trkpt lat="45.507044037804008" lon="3.388377986848354">
        <ele>560.59000000000003</ele>
        <time>2025-04-24T15:51:54Z</time>
      </trkpt>
      <trkpt lat="45.506787970662117" lon="3.387139979749918">
        <ele>553.86000000000001</ele>
        <time>2025-04-24T15:52:00Z</time>
      </trkpt>
      <trkpt lat="45.506794005632401" lon="3.386984998360276">
        <ele>552.40999999999997</ele>
        <time>2025-04-24T15:52:01Z</time>
      </trkpt>
      <trkpt lat="45.506833987310529" lon="3.386847032234073">
        <ele>550.97000000000003</ele>
        <time>2025-04-24T15:52:02Z</time>
      </trkpt>
      <trkpt lat="45.506871035322547" lon="3.386717028915882">
        <ele>549.52999999999997</ele>
        <time>2025-04-24T15:52:03Z</time>
      </trkpt>
      <trkpt lat="45.506916968151927" lon="3.386557018384337">
        <ele>548.09000000000003</ele>
        <time>2025-04-24T15:52:04Z</time>
      </trkpt>
      <trkpt lat="45.506896013393998" lon="3.386443024501205">
        <ele>546.64999999999998</ele>
        <time>2025-04-24T15:52:05Z</time>
      </trkpt>
      <trkpt lat="45.506851002573967" lon="3.386293994262815">
        <ele>545.20000000000005</ele>
        <time>2025-04-24T15:52:06Z</time>
      </trkpt>
      <trkpt lat="45.506765004247427" lon="3.386191986501217">
        <ele>543.75999999999999</ele>
        <time>2025-04-24T15:52:07Z</time>
      </trkpt>
      <trkpt lat="45.506646987050772" lon="3.386132977902889">
        <ele>542.32000000000005</ele>
        <time>2025-04-24T15:52:08Z</time>
      </trkpt>
      <trkpt lat="45.506518995389342" lon="3.38606902398169">
        <ele>540.88</ele>
        <time>2025-04-24T15:52:09Z</time>
      </trkpt>
      <trkpt lat="45.506395027041435" lon="3.386006997898221">
        <ele>539.44000000000005</ele>
        <time>2025-04-24T15:52:10Z</time>
      </trkpt>
      <trkpt lat="45.506293019279838" lon="3.385913958773017">
        <ele>537.99000000000001</ele>
        <time>2025-04-24T15:52:11Z</time>
      </trkpt>
      <trkpt lat="45.506211966276169" lon="3.385798959061503">
        <ele>536.07000000000005</ele>
        <time>2025-04-24T15:52:12Z</time>
      </trkpt>
      <trkpt lat="45.506180031225085" lon="3.385649006813765">
        <ele>535.11000000000001</ele>
        <time>2025-04-24T15:52:13Z</time>
      </trkpt>
      <trkpt lat="45.50617097876966" lon="3.385486984625459">
        <ele>534.14999999999998</ele>
        <time>2025-04-24T15:52:14Z</time>
      </trkpt>
      <trkpt lat="45.506188999861479" lon="3.385301996022463">
        <ele>533.66999999999996</ele>
        <time>2025-04-24T15:52:15Z</time>
      </trkpt>
      <trkpt lat="45.506231999024749" lon="3.385120024904609">
        <ele>533.19000000000005</ele>
        <time>2025-04-24T15:52:16Z</time>
      </trkpt>
      <trkpt lat="45.506271980702877" lon="3.3849529735744">
        <ele>532.23000000000002</ele>
        <time>2025-04-24T15:52:17Z</time>
      </trkpt>
      <trkpt lat="45.506339035928249" lon="3.384821964427829">
        <ele>531.75</ele>
        <time>2025-04-24T15:52:18Z</time>
      </trkpt>
      <trkpt lat="45.506432997062802" lon="3.384738983586431">
        <ele>530.78999999999996</ele>
        <time>2025-04-24T15:52:19Z</time>
      </trkpt>
      <trkpt lat="45.506554031744599" lon="3.384664971381426">
        <ele>529.82000000000005</ele>
        <time>2025-04-24T15:52:20Z</time>
      </trkpt>
      <trkpt lat="45.506687974557281" lon="3.384614009410143">
        <ele>528.86000000000001</ele>
        <time>2025-04-24T15:52:21Z</time>
      </trkpt>
      <trkpt lat="45.506817977875471" lon="3.384563969448209">
        <ele>527.89999999999998</ele>
        <time>2025-04-24T15:52:22Z</time>
      </trkpt>
      <trkpt lat="45.506930965930223" lon="3.384520970284939">
        <ele>526.94000000000005</ele>
        <time>2025-04-24T15:52:23Z</time>
      </trkpt>
      <trkpt lat="45.507024005055428" lon="3.384410999715328">
        <ele>526.46000000000004</ele>
        <time>2025-04-24T15:52:24Z</time>
      </trkpt>
      <trkpt lat="45.507047977298498" lon="3.38435098528862">
        <ele>525.01999999999998</ele>
        <time>2025-04-24T15:52:25Z</time>
      </trkpt>
      <trkpt lat="45.507026016712189" lon="3.384208995848894">
        <ele>524.05999999999995</ele>
        <time>2025-04-24T15:52:26Z</time>
      </trkpt>
      <trkpt lat="45.506954016163945" lon="3.384096007794142">
        <ele>522.61000000000001</ele>
        <time>2025-04-24T15:52:27Z</time>
      </trkpt>
      <trkpt lat="45.506863994523883" lon="3.383987965062261">
        <ele>520.69000000000005</ele>
        <time>2025-04-24T15:52:28Z</time>
      </trkpt>
      <trkpt lat="45.506662996485829" lon="3.383746985346079">
        <ele>518.28999999999996</ele>
        <time>2025-04-24T15:52:30Z</time>
      </trkpt>
      <trkpt lat="45.506572974845767" lon="3.383639026433229">
        <ele>517.80999999999995</ele>
        <time>2025-04-24T15:52:31Z</time>
      </trkpt>
      <trkpt lat="45.506423022598028" lon="3.383123958483338">
        <ele>516.85000000000002</ele>
        <time>2025-04-24T15:52:34Z</time>
      </trkpt>
      <trkpt lat="45.506438026204705" lon="3.382940981537104">
        <ele>516.85000000000002</ele>
        <time>2025-04-24T15:52:35Z</time>
      </trkpt>
      <trkpt lat="45.506454035639763" lon="3.382736966013908">
        <ele>517.33000000000004</ele>
        <time>2025-04-24T15:52:36Z</time>
      </trkpt>
      <trkpt lat="45.506470967084169" lon="3.382525993511081">
        <ele>517.33000000000004</ele>
        <time>2025-04-24T15:52:37Z</time>
      </trkpt>
      <trkpt lat="45.506486976519227" lon="3.38233002461493">
        <ele>517.33000000000004</ele>
        <time>2025-04-24T15:52:38Z</time>
      </trkpt>
      <trkpt lat="45.506533998996019" lon="3.382156016305089">
        <ele>517.33000000000004</ele>
        <time>2025-04-24T15:52:39Z</time>
      </trkpt>
      <trkpt lat="45.50657800398767" lon="3.38198896497488">
        <ele>516.85000000000002</ele>
        <time>2025-04-24T15:52:40Z</time>
      </trkpt>
      <trkpt lat="45.506617985665798" lon="3.381841024383903">
        <ele>516.85000000000002</ele>
        <time>2025-04-24T15:52:41Z</time>
      </trkpt>
      <trkpt lat="45.506637012585998" lon="3.38159903883934">
        <ele>516.37</ele>
        <time>2025-04-24T15:52:42Z</time>
      </trkpt>
      <trkpt lat="45.506585966795683" lon="3.381452020257711">
        <ele>515.88</ele>
        <time>2025-04-24T15:52:43Z</time>
      </trkpt>
      <trkpt lat="45.506525030359626" lon="3.381325034424663">
        <ele>515.39999999999998</ele>
        <time>2025-04-24T15:52:44Z</time>
      </trkpt>
      <trkpt lat="45.506448000669479" lon="3.381165023893118">
        <ele>514.91999999999996</ele>
        <time>2025-04-24T15:52:45Z</time>
      </trkpt>
      <trkpt lat="45.506367031484842" lon="3.380995960906148">
        <ele>514.44000000000005</ele>
        <time>2025-04-24T15:52:46Z</time>
      </trkpt>
      <trkpt lat="45.506329983472824" lon="3.380833016708493">
        <ele>514.44000000000005</ele>
        <time>2025-04-24T15:52:47Z</time>
      </trkpt>
      <trkpt lat="45.506290001794696" lon="3.38063595816493">
        <ele>514.44000000000005</ele>
        <time>2025-04-24T15:52:48Z</time>
      </trkpt>
      <trkpt lat="45.50627700984478" lon="3.380455998703837">
        <ele>514.44000000000005</ele>
        <time>2025-04-24T15:52:49Z</time>
      </trkpt>
      <trkpt lat="45.506285978481174" lon="3.380235973745585">
        <ele>514.44000000000005</ele>
        <time>2025-04-24T15:52:50Z</time>
      </trkpt>
      <trkpt lat="45.506294025108218" lon="3.38003396987915">
        <ele>514.44000000000005</ele>
        <time>2025-04-24T15:52:51Z</time>
      </trkpt>
      <trkpt lat="45.506345992907882" lon="3.379849987104535">
        <ele>513.96000000000004</ele>
        <time>2025-04-24T15:52:52Z</time>
      </trkpt>
      <trkpt lat="45.506394021213055" lon="3.379677990451455">
        <ele>513</ele>
        <time>2025-04-24T15:52:53Z</time>
      </trkpt>
      <trkpt lat="45.506435008719563" lon="3.379533989354968">
        <ele>511.56</ele>
        <time>2025-04-24T15:52:54Z</time>
      </trkpt>
      <trkpt lat="45.506477002054453" lon="3.379282029345632">
        <ele>510.12</ele>
        <time>2025-04-24T15:52:55Z</time>
      </trkpt>
      <trkpt lat="45.506409024819732" lon="3.379121012985706">
        <ele>507.70999999999998</ele>
        <time>2025-04-24T15:52:56Z</time>
      </trkpt>
      <trkpt lat="45.506350016221404" lon="3.37902101688087">
        <ele>505.31</ele>
        <time>2025-04-24T15:52:57Z</time>
      </trkpt>
      <trkpt lat="45.506274998188019" lon="3.378893025219441">
        <ele>503.38999999999999</ele>
        <time>2025-04-24T15:52:58Z</time>
      </trkpt>
      <trkpt lat="45.506192017346621" lon="3.378752041608095">
        <ele>501.94999999999999</ele>
        <time>2025-04-24T15:52:59Z</time>
      </trkpt>
      <trkpt lat="45.506110964342952" lon="3.37861399166286">
        <ele>500.5</ele>
        <time>2025-04-24T15:53:00Z</time>
      </trkpt>
      <trkpt lat="45.506078023463488" lon="3.378456998616457">
        <ele>499.06</ele>
        <time>2025-04-24T15:53:01Z</time>
      </trkpt>
      <trkpt lat="45.50606201402843" lon="3.378303023055196">
        <ele>497.62</ele>
        <time>2025-04-24T15:53:02Z</time>
      </trkpt>
      <trkpt lat="45.506077017635107" lon="3.378137983381748">
        <ele>496.66000000000003</ele>
        <time>2025-04-24T15:53:03Z</time>
      </trkpt>
      <trkpt lat="45.506091015413404" lon="3.377992976456881">
        <ele>494.74000000000001</ele>
        <time>2025-04-24T15:53:04Z</time>
      </trkpt>
      <trkpt lat="45.506061008200049" lon="3.377823997288942">
        <ele>493.76999999999998</ele>
        <time>2025-04-24T15:53:05Z</time>
      </trkpt>
      <trkpt lat="45.505994036793709" lon="3.377716960385442">
        <ele>491.85000000000002</ele>
        <time>2025-04-24T15:53:06Z</time>
      </trkpt>
      <trkpt lat="45.505917007103562" lon="3.377593997865915">
        <ele>490.41000000000003</ele>
        <time>2025-04-24T15:53:07Z</time>
      </trkpt>
      <trkpt lat="45.505836037918925" lon="3.377427030354738">
        <ele>488.97000000000003</ele>
        <time>2025-04-24T15:53:08Z</time>
      </trkpt>
      <trkpt lat="45.505758002400398" lon="3.377244975417852">
        <ele>487.05000000000001</ele>
        <time>2025-04-24T15:53:09Z</time>
      </trkpt>
      <trkpt lat="45.505401017144322" lon="3.375916024670005">
        <ele>478.38999999999999</ele>
        <time>2025-04-24T15:53:15Z</time>
      </trkpt>
      <trkpt lat="45.505387019366026" lon="3.375729024410248">
        <ele>476.47000000000003</ele>
        <time>2025-04-24T15:53:16Z</time>
      </trkpt>
      <trkpt lat="45.50537402741611" lon="3.375554010272026">
        <ele>475.50999999999999</ele>
        <time>2025-04-24T15:53:17Z</time>
      </trkpt>
      <trkpt lat="45.505339996889234" lon="3.375479998067021">
        <ele>473.58999999999997</ele>
        <time>2025-04-24T15:53:18Z</time>
      </trkpt>
      <trkpt lat="45.505260033532977" lon="3.375359969213605">
        <ele>472.63</ele>
        <time>2025-04-24T15:53:19Z</time>
      </trkpt>
      <trkpt lat="45.505165988579392" lon="3.37521999143064">
        <ele>471.18000000000001</ele>
        <time>2025-04-24T15:53:20Z</time>
      </trkpt>
      <trkpt lat="45.50505300052464" lon="3.375037014484406">
        <ele>469.25999999999999</ele>
        <time>2025-04-24T15:53:21Z</time>
      </trkpt>
      <trkpt lat="45.504961973056197" lon="3.374840039759874">
        <ele>467.81999999999999</ele>
        <time>2025-04-24T15:53:22Z</time>
      </trkpt>
      <trkpt lat="45.504871029406786" lon="3.37464096955955">
        <ele>466.38</ele>
        <time>2025-04-24T15:53:23Z</time>
      </trkpt>
      <trkpt lat="45.504788970574737" lon="3.374431002885103">
        <ele>464.93000000000001</ele>
        <time>2025-04-24T15:53:24Z</time>
      </trkpt>
      <trkpt lat="45.504725016653538" lon="3.374248025938869">
        <ele>464.44999999999999</ele>
        <time>2025-04-24T15:53:25Z</time>
      </trkpt>
      <trkpt lat="45.504669025540352" lon="3.374046022072434">
        <ele>463.97000000000003</ele>
        <time>2025-04-24T15:53:26Z</time>
      </trkpt>
      <trkpt lat="45.50466500222683" lon="3.373799007385969">
        <ele>463.49000000000001</ele>
        <time>2025-04-24T15:53:27Z</time>
      </trkpt>
      <trkpt lat="45.504691991955042" lon="3.373683001846075">
        <ele>463.97000000000003</ele>
        <time>2025-04-24T15:53:28Z</time>
      </trkpt>
      <trkpt lat="45.504790982231498" lon="3.373558027669787">
        <ele>463.97000000000003</ele>
        <time>2025-04-24T15:53:29Z</time>
      </trkpt>
      <trkpt lat="45.504893995821476" lon="3.37350002489984">
        <ele>463.97000000000003</ele>
        <time>2025-04-24T15:53:30Z</time>
      </trkpt>
      <trkpt lat="45.505005978047848" lon="3.373465994372964">
        <ele>463.49000000000001</ele>
        <time>2025-04-24T15:53:31Z</time>
      </trkpt>
      <trkpt lat="45.505135981366038" lon="3.373426012694836">
        <ele>463.49000000000001</ele>
        <time>2025-04-24T15:53:32Z</time>
      </trkpt>
      <trkpt lat="45.505435969680548" lon="3.373301960527897">
        <ele>463.00999999999999</ele>
        <time>2025-04-24T15:53:34Z</time>
      </trkpt>
      <trkpt lat="45.505592962726951" lon="3.373195007443428">
        <ele>462.52999999999997</ele>
        <time>2025-04-24T15:53:35Z</time>
      </trkpt>
      <trkpt lat="45.505898986011744" lon="3.373095011338592">
        <ele>461.08999999999997</ele>
        <time>2025-04-24T15:53:37Z</time>
      </trkpt>
      <trkpt lat="45.506028989329934" lon="3.373106997460127">
        <ele>460.13</ele>
        <time>2025-04-24T15:53:38Z</time>
      </trkpt>
      <trkpt lat="45.506315985694528" lon="3.373039020225406">
        <ele>455.80000000000001</ele>
        <time>2025-04-24T15:53:41Z</time>
      </trkpt>
      <trkpt lat="45.506315985694528" lon="3.373039020225406">
        <ele>454.36000000000001</ele>
        <time>2025-04-24T15:53:42Z</time>
      </trkpt>
      <trkpt lat="45.506350016221404" lon="3.372902981936932">
        <ele>452.92000000000002</ele>
        <time>2025-04-24T15:53:43Z</time>
      </trkpt>
      <trkpt lat="45.506376000121236" lon="3.372798962518573">
        <ele>451.95999999999998</ele>
        <time>2025-04-24T15:53:44Z</time>
      </trkpt>
      <trkpt lat="45.506373988464475" lon="3.372755041345954">
        <ele>451</ele>
        <time>2025-04-24T15:53:45Z</time>
      </trkpt>
      <trkpt lat="45.506337024271488" lon="3.372610034421086">
        <ele>450.51999999999998</ele>
        <time>2025-04-24T15:53:46Z</time>
      </trkpt>
      <trkpt lat="45.506308022886515" lon="3.372573992237449">
        <ele>449.55000000000001</ele>
        <time>2025-04-24T15:53:47Z</time>
      </trkpt>
      <trkpt lat="45.506251025944948" lon="3.372501991689205">
        <ele>448.58999999999997</ele>
        <time>2025-04-24T15:53:48Z</time>
      </trkpt>
      <trkpt lat="45.50612797960639" lon="3.372497968375683">
        <ele>447.14999999999998</ele>
        <time>2025-04-24T15:53:49Z</time>
      </trkpt>
      <trkpt lat="45.506012979894876" lon="3.372493023052812">
        <ele>446.19</ele>
        <time>2025-04-24T15:53:50Z</time>
      </trkpt>
      <trkpt lat="45.505881970748305" lon="3.372487993910909">
        <ele>444.75</ele>
        <time>2025-04-24T15:53:51Z</time>
      </trkpt>
      <trkpt lat="45.504830041900277" lon="3.372409958392382">
        <ele>435.61000000000001</ele>
        <time>2025-04-24T15:53:58Z</time>
      </trkpt>
      <trkpt lat="45.504418993368745" lon="3.372342986986041">
        <ele>431.29000000000002</ele>
        <time>2025-04-24T15:54:01Z</time>
      </trkpt>
      <trkpt lat="45.504269963130355" lon="3.372285990044475">
        <ele>429.85000000000002</ele>
        <time>2025-04-24T15:54:02Z</time>
      </trkpt>
      <trkpt lat="45.504125962033868" lon="3.372156992554665">
        <ele>428.39999999999998</ele>
        <time>2025-04-24T15:54:03Z</time>
      </trkpt>
      <trkpt lat="45.504018003121018" lon="3.371958006173372">
        <ele>426.95999999999998</ele>
        <time>2025-04-24T15:54:04Z</time>
      </trkpt>
      <trkpt lat="45.50395698286593" lon="3.371767988428474">
        <ele>425.51999999999998</ele>
        <time>2025-04-24T15:54:05Z</time>
      </trkpt>
      <trkpt lat="45.50389101728797" lon="3.371565984562039">
        <ele>424.07999999999998</ele>
        <time>2025-04-24T15:54:06Z</time>
      </trkpt>
      <trkpt lat="45.50380501896143" lon="3.371301032602787">
        <ele>422.63999999999999</ele>
        <time>2025-04-24T15:54:07Z</time>
      </trkpt>
      <trkpt lat="45.503764031454921" lon="3.371083019301295">
        <ele>420.70999999999998</ele>
        <time>2025-04-24T15:54:08Z</time>
      </trkpt>
      <trkpt lat="45.50367996096611" lon="3.370641963556409">
        <ele>417.82999999999998</ele>
        <time>2025-04-24T15:54:10Z</time>
      </trkpt>
      <trkpt lat="45.50363402813673" lon="3.370399978011847">
        <ele>416.38999999999999</ele>
        <time>2025-04-24T15:54:11Z</time>
      </trkpt>
      <trkpt lat="45.503610977903008" lon="3.370376005768776">
        <ele>415.43000000000001</ele>
        <time>2025-04-24T15:54:12Z</time>
      </trkpt>
      <trkpt lat="45.503498995676637" lon="3.370257988572121">
        <ele>413.5</ele>
        <time>2025-04-24T15:54:13Z</time>
      </trkpt>
      <trkpt lat="45.503390030935407" lon="3.370142988860607">
        <ele>412.06</ele>
        <time>2025-04-24T15:54:14Z</time>
      </trkpt>
      <trkpt lat="45.503276037052274" lon="3.370022960007191">
        <ele>411.10000000000002</ele>
        <time>2025-04-24T15:54:15Z</time>
      </trkpt>
      <trkpt lat="45.503176040947437" lon="3.369859009981155">
        <ele>410.13999999999999</ele>
        <time>2025-04-24T15:54:16Z</time>
      </trkpt>
      <trkpt lat="45.503126000985503" lon="3.369640996679664">
        <ele>408.69999999999999</ele>
        <time>2025-04-24T15:54:17Z</time>
      </trkpt>
      <trkpt lat="45.503106974065304" lon="3.369447039440274">
        <ele>407.74000000000001</ele>
        <time>2025-04-24T15:54:18Z</time>
      </trkpt>
      <trkpt lat="45.503088030964136" lon="3.369251992553473">
        <ele>405.81</ele>
        <time>2025-04-24T15:54:19Z</time>
      </trkpt>
      <trkpt lat="45.503069004043937" lon="3.369061974808574">
        <ele>404.85000000000002</ele>
        <time>2025-04-24T15:54:20Z</time>
      </trkpt>
      <trkpt lat="45.503041008487344" lon="3.368886038661003">
        <ele>403.41000000000003</ele>
        <time>2025-04-24T15:54:21Z</time>
      </trkpt>
      <trkpt lat="45.502959033474326" lon="3.368686968460679">
        <ele>401.97000000000003</ele>
        <time>2025-04-24T15:54:22Z</time>
      </trkpt>
      <trkpt lat="45.502860965207219" lon="3.368446994572878">
        <ele>400.52999999999997</ele>
        <time>2025-04-24T15:54:23Z</time>
      </trkpt>
      <trkpt lat="45.502821989357471" lon="3.368282960727811">
        <ele>398.60000000000002</ele>
        <time>2025-04-24T15:54:24Z</time>
      </trkpt>
      <trkpt lat="45.502769015729427" lon="3.36806402541697">
        <ele>397.16000000000003</ele>
        <time>2025-04-24T15:54:25Z</time>
      </trkpt>
      <trkpt lat="45.502693997696042" lon="3.367840982973576">
        <ele>395.72000000000003</ele>
        <time>2025-04-24T15:54:26Z</time>
      </trkpt>
      <trkpt lat="45.502586960792542" lon="3.367644008249044">
        <ele>393.80000000000001</ele>
        <time>2025-04-24T15:54:27Z</time>
      </trkpt>
      <trkpt lat="45.50234598107636" lon="3.367202030494809">
        <ele>390.43000000000001</ele>
        <time>2025-04-24T15:54:29Z</time>
      </trkpt>
      <trkpt lat="45.502283032983541" lon="3.366997009143233">
        <ele>388.50999999999999</ele>
        <time>2025-04-24T15:54:30Z</time>
      </trkpt>
      <trkpt lat="45.501694036647677" lon="3.365189032629132">
        <ele>375.05000000000001</ele>
        <time>2025-04-24T15:54:37Z</time>
      </trkpt>
      <trkpt lat="45.501474011689425" lon="3.364444971084595">
        <ele>368.31999999999999</ele>
        <time>2025-04-24T15:54:40Z</time>
      </trkpt>
      <trkpt lat="45.50125197507441" lon="3.363339984789491">
        <ele>360.14999999999998</ele>
        <time>2025-04-24T15:54:44Z</time>
      </trkpt>
      <trkpt lat="45.501234959810972" lon="3.362415041774511">
        <ele>353.89999999999998</ele>
        <time>2025-04-24T15:54:48Z</time>
      </trkpt>
      <trkpt lat="45.50125096924603" lon="3.36215796880424">
        <ele>351.98000000000002</ele>
        <time>2025-04-24T15:54:49Z</time>
      </trkpt>
      <trkpt lat="45.501359011977911" lon="3.361443998292089">
        <ele>353.89999999999998</ele>
        <time>2025-04-24T15:54:52Z</time>
      </trkpt>
      <trkpt lat="45.50150896422565" lon="3.360936976969242">
        <ele>355.82999999999998</ele>
        <time>2025-04-24T15:54:54Z</time>
      </trkpt>
      <trkpt lat="45.501627987250686" lon="3.360257958993316">
        <ele>357.75</ele>
        <time>2025-04-24T15:54:57Z</time>
      </trkpt>
      <trkpt lat="45.501689007505774" lon="3.360013039782643">
        <ele>359.19</ele>
        <time>2025-04-24T15:54:58Z</time>
      </trkpt>
      <trkpt lat="45.501766037195921" lon="3.359841965138912">
        <ele>361.11000000000001</ele>
        <time>2025-04-24T15:54:59Z</time>
      </trkpt>
      <trkpt lat="45.501884976401925" lon="3.35957701317966">
        <ele>370.73000000000002</ele>
        <time>2025-04-24T15:55:01Z</time>
      </trkpt>
      <trkpt lat="45.501962006092072" lon="3.35940602235496">
        <ele>374.08999999999997</ele>
        <time>2025-04-24T15:55:02Z</time>
      </trkpt>
      <trkpt lat="45.502046998590231" lon="3.359214998781681">
        <ele>375.52999999999997</ele>
        <time>2025-04-24T15:55:03Z</time>
      </trkpt>
      <trkpt lat="45.50208899192512" lon="3.358994973823428">
        <ele>376.97000000000003</ele>
        <time>2025-04-24T15:55:04Z</time>
      </trkpt>
      <trkpt lat="45.502153029665351" lon="3.358661960810423">
        <ele>377.94</ele>
        <time>2025-04-24T15:55:05Z</time>
      </trkpt>
      <trkpt lat="45.502141965553164" lon="3.358463980257511">
        <ele>378.42000000000002</ele>
        <time>2025-04-24T15:55:06Z</time>
      </trkpt>
      <trkpt lat="45.501888999715447" lon="3.356315027922392">
        <ele>392.36000000000001</ele>
        <time>2025-04-24T15:55:15Z</time>
      </trkpt>
      <trkpt lat="45.501732006669044" lon="3.355382038280368">
        <ele>396.68000000000001</ele>
        <time>2025-04-24T15:55:19Z</time>
      </trkpt>
      <trkpt lat="45.50168096087873" lon="3.355079032480717">
        <ele>397.16000000000003</ele>
        <time>2025-04-24T15:55:20Z</time>
      </trkpt>
      <trkpt lat="45.50168096087873" lon="3.354198010638356">
        <ele>401.97000000000003</ele>
        <time>2025-04-24T15:55:24Z</time>
      </trkpt>
      <trkpt lat="45.50168096087873" lon="3.353963987901807">
        <ele>403.88999999999999</ele>
        <time>2025-04-24T15:55:25Z</time>
      </trkpt>
      <trkpt lat="45.50168096087873" lon="3.353684032335877">
        <ele>406.76999999999998</ele>
        <time>2025-04-24T15:55:26Z</time>
      </trkpt>
      <trkpt lat="45.501717003062367" lon="3.353527961298823">
        <ele>409.18000000000001</ele>
        <time>2025-04-24T15:55:27Z</time>
      </trkpt>
      <trkpt lat="45.501782968640327" lon="3.35330500267446">
        <ele>412.54000000000002</ele>
        <time>2025-04-24T15:55:28Z</time>
      </trkpt>
      <trkpt lat="45.501920012757182" lon="3.352950029075146">
        <ele>418.31</ele>
        <time>2025-04-24T15:55:30Z</time>
      </trkpt>
      <trkpt lat="45.5021090246737" lon="3.352372013032436">
        <ele>428.88999999999999</ele>
        <time>2025-04-24T15:55:36Z</time>
      </trkpt>
      <trkpt lat="45.502121010795236" lon="3.352306969463825">
        <ele>430.81</ele>
        <time>2025-04-24T15:55:37Z</time>
      </trkpt>
      <trkpt lat="45.502132996916771" lon="3.352247960865498">
        <ele>432.25</ele>
        <time>2025-04-24T15:55:38Z</time>
      </trkpt>
      <trkpt lat="45.502064013853669" lon="3.352055009454489">
        <ele>434.64999999999998</ele>
        <time>2025-04-24T15:55:39Z</time>
      </trkpt>
      <trkpt lat="45.502081029117107" lon="3.352051991969347">
        <ele>438.98000000000002</ele>
        <time>2025-04-24T15:55:40Z</time>
      </trkpt>
      <trkpt lat="45.502052027732134" lon="3.352058026939631">
        <ele>441.38</ele>
        <time>2025-04-24T15:55:41Z</time>
      </trkpt>
      <trkpt lat="45.501992013305426" lon="3.352071018889546">
        <ele>443.79000000000002</ele>
        <time>2025-04-24T15:55:42Z</time>
      </trkpt>
      <trkpt lat="45.501160025596619" lon="3.352177971974015">
        <ele>453.88</ele>
        <time>2025-04-24T15:55:49Z</time>
      </trkpt>
      <trkpt lat="45.499408962205052" lon="3.351945960894227">
        <ele>466.86000000000001</ele>
        <time>2025-04-24T15:55:59Z</time>
      </trkpt>
      <trkpt lat="45.497868033125997" lon="3.351988960057497">
        <ele>472.13999999999999</ele>
        <time>2025-04-24T15:56:07Z</time>
      </trkpt>
      <trkpt lat="45.496838986873627" lon="3.352109994739294">
        <ele>476.47000000000003</ele>
        <time>2025-04-24T15:56:14Z</time>
      </trkpt>
      <trkpt lat="45.496729016304016" lon="3.352103959769011">
        <ele>477.43000000000001</ele>
        <time>2025-04-24T15:56:15Z</time>
      </trkpt>
      <trkpt lat="45.496632037684321" lon="3.352098008617759">
        <ele>477.91000000000003</ele>
        <time>2025-04-24T15:56:16Z</time>
      </trkpt>
      <trkpt lat="45.496541010215878" lon="3.352065989747644">
        <ele>478.38999999999999</ele>
        <time>2025-04-24T15:56:17Z</time>
      </trkpt>
      <trkpt lat="45.4964570235461" lon="3.352018967270851">
        <ele>478.87</ele>
        <time>2025-04-24T15:56:18Z</time>
      </trkpt>
      <trkpt lat="45.496373036876321" lon="3.351948978379369">
        <ele>479.35000000000002</ele>
        <time>2025-04-24T15:56:19Z</time>
      </trkpt>
      <trkpt lat="45.496316961944103" lon="3.351874966174364">
        <ele>479.83999999999997</ele>
        <time>2025-04-24T15:56:20Z</time>
      </trkpt>
      <trkpt lat="45.496274968609214" lon="3.351818975061178">
        <ele>480.31999999999999</ele>
        <time>2025-04-24T15:56:21Z</time>
      </trkpt>
      <trkpt lat="45.49624202772975" lon="3.351774970069528">
        <ele>480.80000000000001</ele>
        <time>2025-04-24T15:56:22Z</time>
      </trkpt>
      <trkpt lat="45.496186958625913" lon="3.351574977859855">
        <ele>481.27999999999997</ele>
        <time>2025-04-24T15:56:23Z</time>
      </trkpt>
      <trkpt lat="45.496219983324409" lon="3.351519992575049">
        <ele>481.75999999999999</ele>
        <time>2025-04-24T15:56:24Z</time>
      </trkpt>
      <trkpt lat="45.496268011629581" lon="3.351440029218793">
        <ele>481.75999999999999</ele>
        <time>2025-04-24T15:56:25Z</time>
      </trkpt>
      <trkpt lat="45.496338000521064" lon="3.351350007578731">
        <ele>482.24000000000001</ele>
        <time>2025-04-24T15:56:26Z</time>
      </trkpt>
      <trkpt lat="45.496413018554449" lon="3.351252023130655">
        <ele>482.24000000000001</ele>
        <time>2025-04-24T15:56:27Z</time>
      </trkpt>
      <trkpt lat="45.49671501852572" lon="3.350907023996115">
        <ele>481.27999999999997</ele>
        <time>2025-04-24T15:56:30Z</time>
      </trkpt>
      <trkpt lat="45.496848039329052" lon="3.350806022062898">
        <ele>481.27999999999997</ele>
        <time>2025-04-24T15:56:31Z</time>
      </trkpt>
      <trkpt lat="45.498179001733661" lon="3.34980103187263">
        <ele>477.91000000000003</ele>
        <time>2025-04-24T15:56:39Z</time>
      </trkpt>
      <trkpt lat="45.499542988836765" lon="3.34874901920557">
        <ele>474.06999999999999</ele>
        <time>2025-04-24T15:56:46Z</time>
      </trkpt>
      <trkpt lat="45.499683972448111" lon="3.348542992025614">
        <ele>473.58999999999997</ele>
        <time>2025-04-24T15:56:47Z</time>
      </trkpt>
      <trkpt lat="45.499813975766301" lon="3.348329002037644">
        <ele>473.11000000000001</ele>
        <time>2025-04-24T15:56:48Z</time>
      </trkpt>
      <trkpt lat="45.499912966042757" lon="3.348070001229644">
        <ele>472.13999999999999</ele>
        <time>2025-04-24T15:56:49Z</time>
      </trkpt>
      <trkpt lat="45.500013967975974" lon="3.34780203178525">
        <ele>471.66000000000003</ele>
        <time>2025-04-24T15:56:50Z</time>
      </trkpt>
      <trkpt lat="45.500100972130895" lon="3.347511012107134">
        <ele>470.69999999999999</ele>
        <time>2025-04-24T15:56:51Z</time>
      </trkpt>
      <trkpt lat="45.500918040052056" lon="3.344784965738654">
        <ele>461.08999999999997</ele>
        <time>2025-04-24T15:57:00Z</time>
      </trkpt>
      <trkpt lat="45.501058017835021" lon="3.344566030427814">
        <ele>459.17000000000002</ele>
        <time>2025-04-24T15:57:01Z</time>
      </trkpt>
      <trkpt lat="45.501372003927827" lon="3.344168979674578">
        <ele>455.80000000000001</ele>
        <time>2025-04-24T15:57:03Z</time>
      </trkpt>
      <trkpt lat="45.502203991636634" lon="3.343244036659598">
        <ele>447.63</ele>
        <time>2025-04-24T15:57:08Z</time>
      </trkpt>
      <trkpt lat="45.502321003004909" lon="3.343031974509358">
        <ele>446.19</ele>
        <time>2025-04-24T15:57:09Z</time>
      </trkpt>
      <trkpt lat="45.502911005169153" lon="3.341737976297736">
        <ele>435.13</ele>
        <time>2025-04-24T15:57:16Z</time>
      </trkpt>
      <trkpt lat="45.503323981538415" lon="3.340558977797627">
        <ele>426.95999999999998</ele>
        <time>2025-04-24T15:57:24Z</time>
      </trkpt>
      <trkpt lat="45.50333496183157" lon="3.340419000014663">
        <ele>426</ele>
        <time>2025-04-24T15:57:25Z</time>
      </trkpt>
      <trkpt lat="45.503340996801853" lon="3.340084981173277">
        <ele>424.07999999999998</ele>
        <time>2025-04-24T15:57:27Z</time>
      </trkpt>
      <trkpt lat="45.503434035927057" lon="3.338927021250129">
        <ele>418.79000000000002</ele>
        <time>2025-04-24T15:57:34Z</time>
      </trkpt>
      <trkpt lat="45.50346203148365" lon="3.338791988790035">
        <ele>418.31</ele>
        <time>2025-04-24T15:57:35Z</time>
      </trkpt>
      <trkpt lat="45.503515005111694" lon="3.338632984086871">
        <ele>417.82999999999998</ele>
        <time>2025-04-24T15:57:36Z</time>
      </trkpt>
      <trkpt lat="45.503564039245248" lon="3.338494012132287">
        <ele>417.35000000000002</ele>
        <time>2025-04-24T15:57:37Z</time>
      </trkpt>
      <trkpt lat="45.503621036186814" lon="3.338352022692561">
        <ele>417.35000000000002</ele>
        <time>2025-04-24T15:57:38Z</time>
      </trkpt>
      <trkpt lat="45.503675015643239" lon="3.338206009939313">
        <ele>417.35000000000002</ele>
        <time>2025-04-24T15:57:39Z</time>
      </trkpt>
      <trkpt lat="45.504346992820501" lon="3.33633097819984">
        <ele>422.63999999999999</ele>
        <time>2025-04-24T15:57:50Z</time>
      </trkpt>
      <trkpt lat="45.505088036879897" lon="3.334437003359199">
        <ele>424.56</ele>
        <time>2025-04-24T15:57:57Z</time>
      </trkpt>
      <trkpt lat="45.506214983761311" lon="3.331100000068545">
        <ele>414.94999999999999</ele>
        <time>2025-04-24T15:58:07Z</time>
      </trkpt>
      <trkpt lat="45.506956027820706" lon="3.329093037173152">
        <ele>409.66000000000003</ele>
        <time>2025-04-24T15:58:14Z</time>
      </trkpt>
      <trkpt lat="45.507907960563898" lon="3.326680976897478">
        <ele>404.85000000000002</ele>
        <time>2025-04-24T15:58:24Z</time>
      </trkpt>
      <trkpt lat="45.508643975481391" lon="3.324836036190391">
        <ele>401.49000000000001</ele>
        <time>2025-04-24T15:58:34Z</time>
      </trkpt>
      <trkpt lat="45.509721972048283" lon="3.322162963449955">
        <ele>399.56999999999999</ele>
        <time>2025-04-24T15:58:48Z</time>
      </trkpt>
      <trkpt lat="45.510254977270961" lon="3.320850022137165">
        <ele>399.07999999999998</ele>
        <time>2025-04-24T15:58:57Z</time>
      </trkpt>
      <trkpt lat="45.51081296056509" lon="3.319501038640738">
        <ele>399.56999999999999</ele>
        <time>2025-04-24T15:59:06Z</time>
      </trkpt>
      <trkpt lat="45.511575965210795" lon="3.317947033792734">
        <ele>398.12</ele>
        <time>2025-04-24T15:59:17Z</time>
      </trkpt>
      <trkpt lat="45.512104025110602" lon="3.317229961976409">
        <ele>397.16000000000003</ele>
        <time>2025-04-24T15:59:23Z</time>
      </trkpt>
      <trkpt lat="45.512193040922284" lon="3.317111022770405">
        <ele>397.16000000000003</ele>
        <time>2025-04-24T15:59:24Z</time>
      </trkpt>
      <trkpt lat="45.513395005837083" lon="3.315417962148786">
        <ele>394.27999999999997</ele>
        <time>2025-04-24T15:59:38Z</time>
      </trkpt>
      <trkpt lat="45.513549987226725" lon="3.315199026837945">
        <ele>394.27999999999997</ele>
        <time>2025-04-24T15:59:40Z</time>
      </trkpt>
      <trkpt lat="45.513718966394663" lon="3.31516700796783">
        <ele>394.27999999999997</ele>
        <time>2025-04-24T15:59:41Z</time>
      </trkpt>
      <trkpt lat="45.513749979436398" lon="3.315179999917746">
        <ele>394.27999999999997</ele>
        <time>2025-04-24T15:59:42Z</time>
      </trkpt>
      <trkpt lat="45.513849975541234" lon="3.315205983817577">
        <ele>394.27999999999997</ele>
        <time>2025-04-24T15:59:43Z</time>
      </trkpt>
      <trkpt lat="45.513955000787973" lon="3.315135994926095">
        <ele>394.27999999999997</ele>
        <time>2025-04-24T15:59:44Z</time>
      </trkpt>
      <trkpt lat="45.513999005779624" lon="3.315029963850975">
        <ele>394.27999999999997</ele>
        <time>2025-04-24T15:59:45Z</time>
      </trkpt>
      <trkpt lat="45.514040999114513" lon="3.314930973574519">
        <ele>394.27999999999997</ele>
        <time>2025-04-24T15:59:46Z</time>
      </trkpt>
      <trkpt lat="45.514040999114513" lon="3.314810022711754">
        <ele>394.27999999999997</ele>
        <time>2025-04-24T15:59:47Z</time>
      </trkpt>
      <trkpt lat="45.514040999114513" lon="3.31475998274982">
        <ele>394.27999999999997</ele>
        <time>2025-04-24T15:59:48Z</time>
      </trkpt>
      <trkpt lat="45.514020966365933" lon="3.314515985548496">
        <ele>394.27999999999997</ele>
        <time>2025-04-24T15:59:49Z</time>
      </trkpt>
      <trkpt lat="45.514065977185965" lon="3.314422024413943">
        <ele>394.27999999999997</ele>
        <time>2025-04-24T15:59:50Z</time>
      </trkpt>
      <trkpt lat="45.514114005491138" lon="3.314323034137487">
        <ele>394.27999999999997</ele>
        <time>2025-04-24T15:59:51Z</time>
      </trkpt>
      <trkpt lat="45.514163039624691" lon="3.31422203220427">
        <ele>394.27999999999997</ele>
        <time>2025-04-24T15:59:52Z</time>
      </trkpt>
      <trkpt lat="45.514212995767593" lon="3.314118012785912">
        <ele>394.27999999999997</ele>
        <time>2025-04-24T15:59:53Z</time>
      </trkpt>
      <trkpt lat="45.514254989102483" lon="3.31403000280261">
        <ele>394.27999999999997</ele>
        <time>2025-04-24T15:59:54Z</time>
      </trkpt>
      <trkpt lat="45.514346016570926" lon="3.313930006697774">
        <ele>394.27999999999997</ele>
        <time>2025-04-24T15:59:55Z</time>
      </trkpt>
      <trkpt lat="45.514430003240705" lon="3.313835961744189">
        <ele>393.80000000000001</ele>
        <time>2025-04-24T15:59:56Z</time>
      </trkpt>
      <trkpt lat="45.5152159743011" lon="3.312964998185635">
        <ele>393.31999999999999</ele>
        <time>2025-04-24T16:00:03Z</time>
      </trkpt>
      <trkpt lat="45.516574010252953" lon="3.311125002801418">
        <ele>392.83999999999997</ele>
        <time>2025-04-24T16:00:13Z</time>
      </trkpt>
      <trkpt lat="45.518753975629807" lon="3.308154959231615">
        <ele>390.43000000000001</ele>
        <time>2025-04-24T16:00:27Z</time>
      </trkpt>
      <trkpt lat="45.521184979006648" lon="3.304828014224768">
        <ele>388.50999999999999</ele>
        <time>2025-04-24T16:00:43Z</time>
      </trkpt>
      <trkpt lat="45.522424997761846" lon="3.302816022187471">
        <ele>387.55000000000001</ele>
        <time>2025-04-24T16:00:53Z</time>
      </trkpt>
      <trkpt lat="45.522751975804567" lon="3.301369976252317">
        <ele>388.50999999999999</ele>
        <time>2025-04-24T16:00:59Z</time>
      </trkpt>
      <trkpt lat="45.522706964984536" lon="3.298916006460786">
        <ele>390.43000000000001</ele>
        <time>2025-04-24T16:01:07Z</time>
      </trkpt>
      <trkpt lat="45.522570004686713" lon="3.294836031273007">
        <ele>390.43000000000001</ele>
        <time>2025-04-24T16:01:21Z</time>
      </trkpt>
      <trkpt lat="45.522729009389877" lon="3.292628992348909">
        <ele>389.94999999999999</ele>
        <time>2025-04-24T16:01:30Z</time>
      </trkpt>
      <trkpt lat="45.522774020209908" lon="3.292421959340572">
        <ele>389.94999999999999</ele>
        <time>2025-04-24T16:01:31Z</time>
      </trkpt>
      <trkpt lat="45.523006031289697" lon="3.2917919754982">
        <ele>389.94999999999999</ele>
        <time>2025-04-24T16:01:35Z</time>
      </trkpt>
      <trkpt lat="45.523180961608887" lon="3.291671024635434">
        <ele>389.94999999999999</ele>
        <time>2025-04-24T16:01:36Z</time>
      </trkpt>
      <trkpt lat="45.523180961608887" lon="3.291671024635434">
        <ele>389.94999999999999</ele>
        <time>2025-04-24T16:01:37Z</time>
      </trkpt>
      <trkpt lat="45.523236030712724" lon="3.291634982451797">
        <ele>389.94999999999999</ele>
        <time>2025-04-24T16:01:38Z</time>
      </trkpt>
      <trkpt lat="45.523313982412219" lon="3.291557030752301">
        <ele>389.94999999999999</ele>
        <time>2025-04-24T16:01:39Z</time>
      </trkpt>
      <trkpt lat="45.523328986018896" lon="3.291457034647465">
        <ele>389.94999999999999</ele>
        <time>2025-04-24T16:01:40Z</time>
      </trkpt>
      <trkpt lat="45.523300990462303" lon="3.291373969987035">
        <ele>390.43000000000001</ele>
        <time>2025-04-24T16:01:41Z</time>
      </trkpt>
      <trkpt lat="45.523266959935427" lon="3.291306998580694">
        <ele>390.91000000000003</ele>
        <time>2025-04-24T16:01:42Z</time>
      </trkpt>
      <trkpt lat="45.523209040984511" lon="3.29127699136734">
        <ele>391.38999999999999</ele>
        <time>2025-04-24T16:01:43Z</time>
      </trkpt>
      <trkpt lat="45.523180961608887" lon="3.291263999417424">
        <ele>390.91000000000003</ele>
        <time>2025-04-24T16:01:44Z</time>
      </trkpt>
      <trkpt lat="45.523012988269329" lon="3.291289983317256">
        <ele>390.91000000000003</ele>
        <time>2025-04-24T16:01:45Z</time>
      </trkpt>
      <trkpt lat="45.52280000410974" lon="3.291226029396057">
        <ele>390.91000000000003</ele>
        <time>2025-04-24T16:01:47Z</time>
      </trkpt>
      <trkpt lat="45.522183012217283" lon="3.291273973882198">
        <ele>391.87</ele>
        <time>2025-04-24T16:01:51Z</time>
      </trkpt>
      <trkpt lat="45.522013027220964" lon="3.291216976940632">
        <ele>391.87</ele>
        <time>2025-04-24T16:01:52Z</time>
      </trkpt>
      <trkpt lat="45.521836001425982" lon="3.291158974170685">
        <ele>391.87</ele>
        <time>2025-04-24T16:01:53Z</time>
      </trkpt>
      <trkpt lat="45.521666016429663" lon="3.291026959195733">
        <ele>391.87</ele>
        <time>2025-04-24T16:01:54Z</time>
      </trkpt>
      <trkpt lat="45.521497037261724" lon="3.290894022211433">
        <ele>391.87</ele>
        <time>2025-04-24T16:01:55Z</time>
      </trkpt>
      <trkpt lat="45.521324034780264" lon="3.290757983922958">
        <ele>391.87</ele>
        <time>2025-04-24T16:01:56Z</time>
      </trkpt>
      <trkpt lat="45.519113978371024" lon="3.289123009890318">
        <ele>391.38999999999999</ele>
        <time>2025-04-24T16:02:08Z</time>
      </trkpt>
      <trkpt lat="45.518183000385761" lon="3.288465030491352">
        <ele>389.94999999999999</ele>
        <time>2025-04-24T16:02:13Z</time>
      </trkpt>
      <trkpt lat="45.518004968762398" lon="3.288366962224245">
        <ele>389.47000000000003</ele>
        <time>2025-04-24T16:02:14Z</time>
      </trkpt>
      <trkpt lat="45.517812017351389" lon="3.288323963060975">
        <ele>389.47000000000003</ele>
        <time>2025-04-24T16:02:15Z</time>
      </trkpt>
      <trkpt lat="45.517617976292968" lon="3.288323963060975">
        <ele>388.99000000000001</ele>
        <time>2025-04-24T16:02:16Z</time>
      </trkpt>
      <trkpt lat="45.517427958548069" lon="3.288366040214896">
        <ele>388.99000000000001</ele>
        <time>2025-04-24T16:02:17Z</time>
      </trkpt>
      <trkpt lat="45.517232995480299" lon="3.28844097442925">
        <ele>388.50999999999999</ele>
        <time>2025-04-24T16:02:18Z</time>
      </trkpt>
      <trkpt lat="45.517025962471962" lon="3.288521021604538">
        <ele>388.50999999999999</ele>
        <time>2025-04-24T16:02:19Z</time>
      </trkpt>
      <trkpt lat="45.516618015244603" lon="3.288659993559122">
        <ele>388.50999999999999</ele>
        <time>2025-04-24T16:02:21Z</time>
      </trkpt>
      <trkpt lat="45.516413999721408" lon="3.28869603574276">
        <ele>388.50999999999999</ele>
        <time>2025-04-24T16:02:22Z</time>
      </trkpt>
      <trkpt lat="45.51622498780489" lon="3.288684971630573">
        <ele>388.50999999999999</ele>
        <time>2025-04-24T16:02:23Z</time>
      </trkpt>
      <trkpt lat="45.516046034172177" lon="3.288616994395852">
        <ele>388.02999999999997</ele>
        <time>2025-04-24T16:02:24Z</time>
      </trkpt>
      <trkpt lat="45.515863979235291" lon="3.288522027432919">
        <ele>388.02999999999997</ele>
        <time>2025-04-24T16:02:25Z</time>
      </trkpt>
      <trkpt lat="45.515677984803915" lon="3.288424964994192">
        <ele>388.02999999999997</ele>
        <time>2025-04-24T16:02:26Z</time>
      </trkpt>
      <trkpt lat="45.514200003817677" lon="3.287765979766846">
        <ele>387.06999999999999</ele>
        <time>2025-04-24T16:02:34Z</time>
      </trkpt>
      <trkpt lat="45.514014009386301" lon="3.287765979766846">
        <ele>387.55000000000001</ele>
        <time>2025-04-24T16:02:35Z</time>
      </trkpt>
      <trkpt lat="45.51381804049015" lon="3.287801016122103">
        <ele>387.55000000000001</ele>
        <time>2025-04-24T16:02:36Z</time>
      </trkpt>
      <trkpt lat="45.511720972135663" lon="3.288149032741785">
        <ele>390.43000000000001</ele>
        <time>2025-04-24T16:02:46Z</time>
      </trkpt>
      <trkpt lat="45.510237962007523" lon="3.287929007783532">
        <ele>395.24000000000001</ele>
        <time>2025-04-24T16:02:53Z</time>
      </trkpt>
      <trkpt lat="45.509561039507389" lon="3.287950968369842">
        <ele>401.00999999999999</ele>
        <time>2025-04-24T16:02:57Z</time>
      </trkpt>
      <trkpt lat="45.509406980127096" lon="3.288040990009904">
        <ele>401.97000000000003</ele>
        <time>2025-04-24T16:02:58Z</time>
      </trkpt>
      <trkpt lat="45.509271025657654" lon="3.288205023854971">
        <ele>402.93000000000001</ele>
        <time>2025-04-24T16:02:59Z</time>
      </trkpt>
      <trkpt lat="45.509147979319096" lon="3.288388000801206">
        <ele>404.37</ele>
        <time>2025-04-24T16:03:00Z</time>
      </trkpt>
      <trkpt lat="45.509037002921104" lon="3.288572989404202">
        <ele>405.32999999999998</ele>
        <time>2025-04-24T16:03:01Z</time>
      </trkpt>
      <trkpt lat="45.508925020694733" lon="3.288738029077649">
        <ele>406.29000000000002</ele>
        <time>2025-04-24T16:03:02Z</time>
      </trkpt>
      <trkpt lat="45.50879099406302" lon="3.288888987153769">
        <ele>407.25999999999999</ele>
        <time>2025-04-24T16:03:03Z</time>
      </trkpt>
      <trkpt lat="45.508465021848679" lon="3.289185035973787">
        <ele>409.66000000000003</ele>
        <time>2025-04-24T16:03:05Z</time>
      </trkpt>
      <trkpt lat="45.508281039074063" lon="3.289311015978456">
        <ele>410.62</ele>
        <time>2025-04-24T16:03:06Z</time>
      </trkpt>
      <trkpt lat="45.50771601498127" lon="3.289546966552734">
        <ele>414.94999999999999</ele>
        <time>2025-04-24T16:03:09Z</time>
      </trkpt>
      <trkpt lat="45.507538989186287" lon="3.28959901817143">
        <ele>415.91000000000003</ele>
        <time>2025-04-24T16:03:10Z</time>
      </trkpt>
      <trkpt lat="45.507369004189968" lon="3.289565993472934">
        <ele>417.35000000000002</ele>
        <time>2025-04-24T16:03:11Z</time>
      </trkpt>
      <trkpt lat="45.507196001708508" lon="3.289503967389464">
        <ele>418.79000000000002</ele>
        <time>2025-04-24T16:03:12Z</time>
      </trkpt>
      <trkpt lat="45.507055018097162" lon="3.289362983778119">
        <ele>420.23000000000002</ele>
        <time>2025-04-24T16:03:13Z</time>
      </trkpt>
      <trkpt lat="45.506900958716869" lon="3.289203979074955">
        <ele>421.68000000000001</ele>
        <time>2025-04-24T16:03:14Z</time>
      </trkpt>
      <trkpt lat="45.506757041439414" lon="3.289013039320707">
        <ele>423.12</ele>
        <time>2025-04-24T16:03:15Z</time>
      </trkpt>
      <trkpt lat="45.505832014605403" lon="3.28781601972878">
        <ele>430.32999999999998</ele>
        <time>2025-04-24T16:03:22Z</time>
      </trkpt>
      <trkpt lat="45.505691030994058" lon="3.287676963955164">
        <ele>430.81</ele>
        <time>2025-04-24T16:03:23Z</time>
      </trkpt>
      <trkpt lat="45.505523979663849" lon="3.287562970072031">
        <ele>431.76999999999998</ele>
        <time>2025-04-24T16:03:24Z</time>
      </trkpt>
      <trkpt lat="45.505349971354008" lon="3.287444030866027">
        <ele>431.76999999999998</ele>
        <time>2025-04-24T16:03:25Z</time>
      </trkpt>
      <trkpt lat="45.505163976922631" lon="3.287378987297416">
        <ele>432.25</ele>
        <time>2025-04-24T16:03:26Z</time>
      </trkpt>
      <trkpt lat="45.504964990541339" lon="3.287310004234314">
        <ele>432.25</ele>
        <time>2025-04-24T16:03:27Z</time>
      </trkpt>
      <trkpt lat="45.50260397605598" lon="3.286722013726831">
        <ele>433.20999999999998</ele>
        <time>2025-04-24T16:03:38Z</time>
      </trkpt>
      <trkpt lat="45.499996030703187" lon="3.28605598770082">
        <ele>436.57999999999998</ele>
        <time>2025-04-24T16:03:50Z</time>
      </trkpt>
      <trkpt lat="45.498393997550011" lon="3.285638988018036">
        <ele>437.54000000000002</ele>
        <time>2025-04-24T16:03:58Z</time>
      </trkpt>
      <trkpt lat="45.498227030038834" lon="3.285528011620045">
        <ele>437.06</ele>
        <time>2025-04-24T16:03:59Z</time>
      </trkpt>
      <trkpt lat="45.497885970398784" lon="3.285300023853779">
        <ele>436.57999999999998</ele>
        <time>2025-04-24T16:04:01Z</time>
      </trkpt>
      <trkpt lat="45.497708022594452" lon="3.285245960578322">
        <ele>436.10000000000002</ele>
        <time>2025-04-24T16:04:02Z</time>
      </trkpt>
      <trkpt lat="45.497524961829185" lon="3.285190975293517">
        <ele>435.61000000000001</ele>
        <time>2025-04-24T16:04:03Z</time>
      </trkpt>
      <trkpt lat="45.496396003291011" lon="3.285170020535588">
        <ele>430.81</ele>
        <time>2025-04-24T16:04:09Z</time>
      </trkpt>
      <trkpt lat="45.49622300080955" lon="3.285113023594022">
        <ele>430.32999999999998</ele>
        <time>2025-04-24T16:04:10Z</time>
      </trkpt>
      <trkpt lat="45.496053015813231" lon="3.285052003338933">
        <ele>429.37</ele>
        <time>2025-04-24T16:04:11Z</time>
      </trkpt>
      <trkpt lat="45.495913960039616" lon="3.285001963376999">
        <ele>429.37</ele>
        <time>2025-04-24T16:04:12Z</time>
      </trkpt>
      <trkpt lat="45.495806001126766" lon="3.284987965598702">
        <ele>428.39999999999998</ele>
        <time>2025-04-24T16:04:13Z</time>
      </trkpt>
      <trkpt lat="45.495683960616589" lon="3.285025013610721">
        <ele>427.92000000000002</ele>
        <time>2025-04-24T16:04:14Z</time>
      </trkpt>
      <trkpt lat="45.495553035289049" lon="3.285099025815725">
        <ele>427.44</ele>
        <time>2025-04-24T16:04:15Z</time>
      </trkpt>
      <trkpt lat="45.495413979515433" lon="3.285202039405704">
        <ele>426.95999999999998</ele>
        <time>2025-04-24T16:04:16Z</time>
      </trkpt>
      <trkpt lat="45.495264027267694" lon="3.285300023853779">
        <ele>426.48000000000002</ele>
        <time>2025-04-24T16:04:17Z</time>
      </trkpt>
      <trkpt lat="45.495098987594247" lon="3.285312009975314">
        <ele>426</ele>
        <time>2025-04-24T16:04:18Z</time>
      </trkpt>
      <trkpt lat="45.49493595957756" lon="3.285292983055115">
        <ele>425.51999999999998</ele>
        <time>2025-04-24T16:04:19Z</time>
      </trkpt>
      <trkpt lat="45.494777038693428" lon="3.285206984728575">
        <ele>425.04000000000002</ele>
        <time>2025-04-24T16:04:20Z</time>
      </trkpt>
      <trkpt lat="45.494613004848361" lon="3.285096008330584">
        <ele>425.04000000000002</ele>
        <time>2025-04-24T16:04:21Z</time>
      </trkpt>
      <trkpt lat="45.494443019852042" lon="3.284961981698871">
        <ele>424.56</ele>
        <time>2025-04-24T16:04:22Z</time>
      </trkpt>
      <trkpt lat="45.494274040684104" lon="3.284829966723919">
        <ele>424.56</ele>
        <time>2025-04-24T16:04:23Z</time>
      </trkpt>
      <trkpt lat="45.493978997692466" lon="3.284670040011406">
        <ele>425.51999999999998</ele>
        <time>2025-04-24T16:04:25Z</time>
      </trkpt>
      <trkpt lat="45.493863997980952" lon="3.284645983949304">
        <ele>426</ele>
        <time>2025-04-24T16:04:26Z</time>
      </trkpt>
      <trkpt lat="45.493748998269439" lon="3.284684959799051">
        <ele>426.48000000000002</ele>
        <time>2025-04-24T16:04:27Z</time>
      </trkpt>
      <trkpt lat="45.493631986901164" lon="3.284791996702552">
        <ele>426.95999999999998</ele>
        <time>2025-04-24T16:04:28Z</time>
      </trkpt>
      <trkpt lat="45.493500977754593" lon="3.284913031384349">
        <ele>427.44</ele>
        <time>2025-04-24T16:04:29Z</time>
      </trkpt>
      <trkpt lat="45.493354965001345" lon="3.28504596836865">
        <ele>427.92000000000002</ele>
        <time>2025-04-24T16:04:30Z</time>
      </trkpt>
      <trkpt lat="45.49319202080369" lon="3.285159962251782">
        <ele>428.39999999999998</ele>
        <time>2025-04-24T16:04:31Z</time>
      </trkpt>
      <trkpt lat="45.493013989180326" lon="3.285233974456787">
        <ele>429.37</ele>
        <time>2025-04-24T16:04:32Z</time>
      </trkpt>
      <trkpt lat="45.492819026112556" lon="3.285285020247102">
        <ele>430.32999999999998</ele>
        <time>2025-04-24T16:04:33Z</time>
      </trkpt>
      <trkpt lat="45.492616016417742" lon="3.285336988046765">
        <ele>431.29000000000002</ele>
        <time>2025-04-24T16:04:34Z</time>
      </trkpt>
      <trkpt lat="45.492410995066166" lon="3.285366995260119">
        <ele>432.25</ele>
        <time>2025-04-24T16:04:35Z</time>
      </trkpt>
      <trkpt lat="45.491334004327655" lon="3.285461962223053">
        <ele>438.98000000000002</ele>
        <time>2025-04-24T16:04:41Z</time>
      </trkpt>
      <trkpt lat="45.491200983524323" lon="3.285547038540244">
        <ele>440.42000000000002</ele>
        <time>2025-04-24T16:04:42Z</time>
      </trkpt>
      <trkpt lat="45.491085983812809" lon="3.285672012716532">
        <ele>441.38</ele>
        <time>2025-04-24T16:04:43Z</time>
      </trkpt>
      <trkpt lat="45.490966038778424" lon="3.285814002156258">
        <ele>442.33999999999997</ele>
        <time>2025-04-24T16:04:44Z</time>
      </trkpt>
      <trkpt lat="45.490853972733021" lon="3.285981975495815">
        <ele>443.31</ele>
        <time>2025-04-24T16:04:45Z</time>
      </trkpt>
      <trkpt lat="45.489787040278316" lon="3.287463979795575">
        <ele>448.11000000000001</ele>
        <time>2025-04-24T16:04:53Z</time>
      </trkpt>
      <trkpt lat="45.488410983234644" lon="3.288438962772489">
        <ele>451</ele>
        <time>2025-04-24T16:05:01Z</time>
      </trkpt>
      <trkpt lat="45.488216020166874" lon="3.288486991077662">
        <ele>451.48000000000002</ele>
        <time>2025-04-24T16:05:02Z</time>
      </trkpt>
      <trkpt lat="45.486541986465454" lon="3.288966016843915">
        <ele>455.31999999999999</ele>
        <time>2025-04-24T16:05:11Z</time>
      </trkpt>
      <trkpt lat="45.485739000141621" lon="3.2893449626863">
        <ele>454.36000000000001</ele>
        <time>2025-04-24T16:05:16Z</time>
      </trkpt>
      <trkpt lat="45.485012959688902" lon="3.289634976536036">
        <ele>451</ele>
        <time>2025-04-24T16:05:20Z</time>
      </trkpt>
      <trkpt lat="45.484838029369712" lon="3.289631037041545">
        <ele>450.02999999999997</ele>
        <time>2025-04-24T16:05:21Z</time>
      </trkpt>
      <trkpt lat="45.484671983867884" lon="3.28960002399981">
        <ele>448.58999999999997</ele>
        <time>2025-04-24T16:05:22Z</time>
      </trkpt>
      <trkpt lat="45.484334025532007" lon="3.28953699208796">
        <ele>446.19</ele>
        <time>2025-04-24T16:05:24Z</time>
      </trkpt>
      <trkpt lat="45.484162028878927" lon="3.289504973217845">
        <ele>444.75</ele>
        <time>2025-04-24T16:05:25Z</time>
      </trkpt>
      <trkpt lat="45.483988020569086" lon="3.289498016238213">
        <ele>443.79000000000002</ele>
        <time>2025-04-24T16:05:26Z</time>
      </trkpt>
      <trkpt lat="45.483790962025523" lon="3.289553001523018">
        <ele>442.33999999999997</ele>
        <time>2025-04-24T16:05:27Z</time>
      </trkpt>
      <trkpt lat="45.483580995351076" lon="3.289613015949726">
        <ele>441.38</ele>
        <time>2025-04-24T16:05:28Z</time>
      </trkpt>
      <trkpt lat="45.48157000914216" lon="3.289993973448873">
        <ele>429.37</ele>
        <time>2025-04-24T16:05:37Z</time>
      </trkpt>
      <trkpt lat="45.479792961850762" lon="3.290433017536998">
        <ele>418.31</ele>
        <time>2025-04-24T16:05:45Z</time>
      </trkpt>
      <trkpt lat="45.479394989088178" lon="3.290512980893254">
        <ele>416.38999999999999</ele>
        <time>2025-04-24T16:05:47Z</time>
      </trkpt>
      <trkpt lat="45.479192985221744" lon="3.290553968399763">
        <ele>415.43000000000001</ele>
        <time>2025-04-24T16:05:48Z</time>
      </trkpt>
      <trkpt lat="45.478601977229118" lon="3.290722025558353">
        <ele>412.06</ele>
        <time>2025-04-24T16:05:51Z</time>
      </trkpt>
      <trkpt lat="45.478421011939645" lon="3.290812969207764">
        <ele>410.62</ele>
        <time>2025-04-24T16:05:52Z</time>
      </trkpt>
      <trkpt lat="45.478268964216113" lon="3.290924029424787">
        <ele>409.18000000000001</ele>
        <time>2025-04-24T16:05:53Z</time>
      </trkpt>
      <trkpt lat="45.478121023625135" lon="3.291031988337636">
        <ele>407.74000000000001</ele>
        <time>2025-04-24T16:05:54Z</time>
      </trkpt>
      <trkpt lat="45.47797903418541" lon="3.291136007755995">
        <ele>406.29000000000002</ele>
        <time>2025-04-24T16:05:55Z</time>
      </trkpt>
      <trkpt lat="45.477863028645515" lon="3.291221000254154">
        <ele>404.85000000000002</ele>
        <time>2025-04-24T16:05:56Z</time>
      </trkpt>
      <trkpt lat="45.477706035599113" lon="3.291263999417424">
        <ele>403.41000000000003</ele>
        <time>2025-04-24T16:05:57Z</time>
      </trkpt>
      <trkpt lat="45.4775720089674" lon="3.291301969438791">
        <ele>402.44999999999999</ele>
        <time>2025-04-24T16:05:58Z</time>
      </trkpt>
      <trkpt lat="45.477103963494301" lon="3.291430966928601">
        <ele>399.07999999999998</ele>
        <time>2025-04-24T16:06:03Z</time>
      </trkpt>
      <trkpt lat="45.477050989866257" lon="3.291420992463827">
        <ele>398.60000000000002</ele>
        <time>2025-04-24T16:06:04Z</time>
      </trkpt>
      <trkpt lat="45.476918974891305" lon="3.291371036320925">
        <ele>397.16000000000003</ele>
        <time>2025-04-24T16:06:06Z</time>
      </trkpt>
      <trkpt lat="45.476246997714043" lon="3.291371036320925">
        <ele>395.24000000000001</ele>
        <time>2025-04-24T16:06:13Z</time>
      </trkpt>
      <trkpt lat="45.475928988307714" lon="3.291300963610411">
        <ele>394.75999999999999</ele>
        <time>2025-04-24T16:06:17Z</time>
      </trkpt>
      <trkpt lat="45.475862016901374" lon="3.29127699136734">
        <ele>394.75999999999999</ele>
        <time>2025-04-24T16:06:18Z</time>
      </trkpt>
      <trkpt lat="45.475803008303046" lon="3.291178001090884">
        <ele>394.27999999999997</ele>
        <time>2025-04-24T16:06:19Z</time>
      </trkpt>
      <trkpt lat="45.47527696006" lon="3.290452966466546">
        <ele>393.31999999999999</ele>
        <time>2025-04-24T16:06:25Z</time>
      </trkpt>
      <trkpt lat="45.47518702223897" lon="3.290285998955369">
        <ele>393.31999999999999</ele>
        <time>2025-04-24T16:06:26Z</time>
      </trkpt>
      <trkpt lat="45.475095994770527" lon="3.290118025615811">
        <ele>393.31999999999999</ele>
        <time>2025-04-24T16:06:27Z</time>
      </trkpt>
      <trkpt lat="45.47501603141427" lon="3.289914010092616">
        <ele>393.31999999999999</ele>
        <time>2025-04-24T16:06:28Z</time>
      </trkpt>
      <trkpt lat="45.474704978987575" lon="3.28850501216948">
        <ele>393.31999999999999</ele>
        <time>2025-04-24T16:06:34Z</time>
      </trkpt>
      <trkpt lat="45.474626021459699" lon="3.28826897777617">
        <ele>393.31999999999999</ele>
        <time>2025-04-24T16:06:35Z</time>
      </trkpt>
      <trkpt lat="45.474341958761215" lon="3.287416035309434">
        <ele>393.31999999999999</ele>
        <time>2025-04-24T16:06:39Z</time>
      </trkpt>
      <trkpt lat="45.474300971254706" lon="3.287202967330813">
        <ele>392.83999999999997</ele>
        <time>2025-04-24T16:06:40Z</time>
      </trkpt>
      <trkpt lat="45.474300971254706" lon="3.286983026191592">
        <ele>392.83999999999997</ele>
        <time>2025-04-24T16:06:41Z</time>
      </trkpt>
      <trkpt lat="45.474324021488428" lon="3.286759983748198">
        <ele>392.83999999999997</ele>
        <time>2025-04-24T16:06:42Z</time>
      </trkpt>
      <trkpt lat="45.47435000538826" lon="3.286546999588609">
        <ele>392.83999999999997</ele>
        <time>2025-04-24T16:06:43Z</time>
      </trkpt>
      <trkpt lat="45.474374983459711" lon="3.286341978237033">
        <ele>392.36000000000001</ele>
        <time>2025-04-24T16:06:44Z</time>
      </trkpt>
      <trkpt lat="45.474400967359543" lon="3.286133017390966">
        <ele>392.36000000000001</ele>
        <time>2025-04-24T16:06:45Z</time>
      </trkpt>
      <trkpt lat="45.474429968744516" lon="3.285898994654417">
        <ele>392.36000000000001</ele>
        <time>2025-04-24T16:06:46Z</time>
      </trkpt>
      <trkpt lat="45.4744169767946" lon="3.285720963031054">
        <ele>392.36000000000001</ele>
        <time>2025-04-24T16:06:47Z</time>
      </trkpt>
      <trkpt lat="45.474402979016304" lon="3.285516025498509">
        <ele>392.36000000000001</ele>
        <time>2025-04-24T16:06:48Z</time>
      </trkpt>
      <trkpt lat="45.474388981238008" lon="3.285309998318553">
        <ele>392.36000000000001</ele>
        <time>2025-04-24T16:06:49Z</time>
      </trkpt>
      <trkpt lat="45.474343970417976" lon="3.285113023594022">
        <ele>391.87</ele>
        <time>2025-04-24T16:06:50Z</time>
      </trkpt>
      <trkpt lat="45.474295020103455" lon="3.284925017505884">
        <ele>391.87</ele>
        <time>2025-04-24T16:06:51Z</time>
      </trkpt>
      <trkpt lat="45.474235005676746" lon="3.284752015024424">
        <ele>392.36000000000001</ele>
        <time>2025-04-24T16:06:52Z</time>
      </trkpt>
      <trkpt lat="45.474132997915149" lon="3.28461597673595">
        <ele>392.36000000000001</ele>
        <time>2025-04-24T16:06:53Z</time>
      </trkpt>
      <trkpt lat="45.4740060120821" lon="3.284528972581029">
        <ele>392.83999999999997</ele>
        <time>2025-04-24T16:06:54Z</time>
      </trkpt>
      <trkpt lat="45.473858993500471" lon="3.28446501865983">
        <ele>393.31999999999999</ele>
        <time>2025-04-24T16:06:55Z</time>
      </trkpt>
      <trkpt lat="45.473698982968926" lon="3.284427970647812">
        <ele>393.31999999999999</ele>
        <time>2025-04-24T16:06:56Z</time>
      </trkpt>
      <trkpt lat="45.473536038771272" lon="3.284390000626445">
        <ele>393.80000000000001</ele>
        <time>2025-04-24T16:06:57Z</time>
      </trkpt>
      <trkpt lat="45.472227036952972" lon="3.283749036490917">
        <ele>395.72000000000003</ele>
        <time>2025-04-24T16:07:05Z</time>
      </trkpt>
      <trkpt lat="45.470967991277575" lon="3.282598033547401">
        <ele>398.60000000000002</ele>
        <time>2025-04-24T16:07:13Z</time>
      </trkpt>
      <trkpt lat="45.470080012455583" lon="3.28150000423193">
        <ele>401.00999999999999</ele>
        <time>2025-04-24T16:07:19Z</time>
      </trkpt>
      <trkpt lat="45.469964006915689" lon="3.28130504116416">
        <ele>401.49000000000001</ele>
        <time>2025-04-24T16:07:20Z</time>
      </trkpt>
      <trkpt lat="45.469868034124374" lon="3.281103959307075">
        <ele>402.44999999999999</ele>
        <time>2025-04-24T16:07:21Z</time>
      </trkpt>
      <trkpt lat="45.469476012513041" lon="3.280095029622316">
        <ele>404.37</ele>
        <time>2025-04-24T16:07:27Z</time>
      </trkpt>
      <trkpt lat="45.46936503611505" lon="3.279780959710479">
        <ele>403.41000000000003</ele>
        <time>2025-04-24T16:07:32Z</time>
      </trkpt>
      <trkpt lat="45.46927803196013" lon="3.279752964153886">
        <ele>402.93000000000001</ele>
        <time>2025-04-24T16:07:33Z</time>
      </trkpt>
      <trkpt lat="45.469265040010214" lon="3.279781965538859">
        <ele>402.93000000000001</ele>
        <time>2025-04-24T16:07:34Z</time>
      </trkpt>
      <trkpt lat="45.46921500004828" lon="3.279891014099121">
        <ele>402.44999999999999</ele>
        <time>2025-04-24T16:07:35Z</time>
      </trkpt>
      <trkpt lat="45.469204019755125" lon="3.279904006049037">
        <ele>402.44999999999999</ele>
        <time>2025-04-24T16:07:36Z</time>
      </trkpt>
      <trkpt lat="45.469158003106713" lon="3.279955973848701">
        <ele>402.44999999999999</ele>
        <time>2025-04-24T16:07:37Z</time>
      </trkpt>
      <trkpt lat="45.469112992286682" lon="3.280006013810635">
        <ele>401.97000000000003</ele>
        <time>2025-04-24T16:07:38Z</time>
      </trkpt>
      <trkpt lat="45.469038980081677" lon="3.280087988823652">
        <ele>401.97000000000003</ele>
        <time>2025-04-24T16:07:44Z</time>
      </trkpt>
      <trkpt lat="45.468818033114076" lon="3.280263002961874">
        <ele>401.00999999999999</ele>
        <time>2025-04-24T16:07:59Z</time>
      </trkpt>
      <trkpt lat="45.468001971021295" lon="3.280979990959168">
        <ele>402.93000000000001</ele>
        <time>2025-04-24T16:08:07Z</time>
      </trkpt>
      <trkpt lat="45.467496961355209" lon="3.281397996470332">
        <ele>402.44999999999999</ele>
        <time>2025-04-24T16:08:11Z</time>
      </trkpt>
      <trkpt lat="45.467354971915483" lon="3.281443007290363">
        <ele>401.97000000000003</ele>
        <time>2025-04-24T16:08:12Z</time>
      </trkpt>
      <trkpt lat="45.467212982475758" lon="3.28147703781724">
        <ele>401.49000000000001</ele>
        <time>2025-04-24T16:08:13Z</time>
      </trkpt>
      <trkpt lat="45.467065963894129" lon="3.281496986746788">
        <ele>401.00999999999999</ele>
        <time>2025-04-24T16:08:14Z</time>
      </trkpt>
      <trkpt lat="45.466907965019345" lon="3.281485000625253">
        <ele>400.52999999999997</ele>
        <time>2025-04-24T16:08:15Z</time>
      </trkpt>
      <trkpt lat="45.465553030371666" lon="3.281378969550133">
        <ele>396.68000000000001</ele>
        <time>2025-04-24T16:08:22Z</time>
      </trkpt>
      <trkpt lat="45.463671963661909" lon="3.281227005645633">
        <ele>395.72000000000003</ele>
        <time>2025-04-24T16:08:31Z</time>
      </trkpt>
      <trkpt lat="45.462848022580147" lon="3.281161040067673">
        <ele>396.68000000000001</ele>
        <time>2025-04-24T16:08:37Z</time>
      </trkpt>
      <trkpt lat="45.462763030081987" lon="3.281146958470345">
        <ele>396.68000000000001</ele>
        <time>2025-04-24T16:08:38Z</time>
      </trkpt>
      <trkpt lat="45.462651969864964" lon="3.280983008444309">
        <ele>396.68000000000001</ele>
        <time>2025-04-24T16:08:39Z</time>
      </trkpt>
      <trkpt lat="45.462653981521726" lon="3.280850993469358">
        <ele>397.16000000000003</ele>
        <time>2025-04-24T16:08:40Z</time>
      </trkpt>
      <trkpt lat="45.462656999006867" lon="3.280697017908096">
        <ele>397.63999999999999</ele>
        <time>2025-04-24T16:08:41Z</time>
      </trkpt>
      <trkpt lat="45.46266102232039" lon="3.280523009598255">
        <ele>397.63999999999999</ele>
        <time>2025-04-24T16:08:42Z</time>
      </trkpt>
      <trkpt lat="45.462692035362124" lon="3.278904967010021">
        <ele>397.16000000000003</ele>
        <time>2025-04-24T16:08:49Z</time>
      </trkpt>
      <trkpt lat="45.462779961526394" lon="3.275413988158107">
        <ele>396.19999999999999</ele>
        <time>2025-04-24T16:09:01Z</time>
      </trkpt>
      <trkpt lat="45.462835030630231" lon="3.272777963429689">
        <ele>396.68000000000001</ele>
        <time>2025-04-24T16:09:11Z</time>
      </trkpt>
      <trkpt lat="45.462871994823217" lon="3.271107031032443">
        <ele>398.12</ele>
        <time>2025-04-24T16:09:20Z</time>
      </trkpt>
      <trkpt lat="45.462931003421545" lon="3.269048016518354">
        <ele>399.56999999999999</ele>
        <time>2025-04-24T16:09:34Z</time>
      </trkpt>
      <trkpt lat="45.463026976212859" lon="3.267371971160173">
        <ele>400.05000000000001</ele>
        <time>2025-04-24T16:09:46Z</time>
      </trkpt>
      <trkpt lat="45.463207019492984" lon="3.266673004254699">
        <ele>399.56999999999999</ele>
        <time>2025-04-24T16:09:52Z</time>
      </trkpt>
      <trkpt lat="45.463238032534719" lon="3.266617013141513">
        <ele>399.56999999999999</ele>
        <time>2025-04-24T16:09:53Z</time>
      </trkpt>
      <trkpt lat="45.463284971192479" lon="3.266532020643354">
        <ele>399.56999999999999</ele>
        <time>2025-04-24T16:09:54Z</time>
      </trkpt>
      <trkpt lat="45.463338028639555" lon="3.266435964033008">
        <ele>399.56999999999999</ele>
        <time>2025-04-24T16:09:55Z</time>
      </trkpt>
      <trkpt lat="45.463396031409502" lon="3.266330016776919">
        <ele>399.56999999999999</ele>
        <time>2025-04-24T16:09:56Z</time>
      </trkpt>
      <trkpt lat="45.463456967845559" lon="3.266218034550548">
        <ele>399.07999999999998</ele>
        <time>2025-04-24T16:09:57Z</time>
      </trkpt>
      <trkpt lat="45.463517988100648" lon="3.266102029010654">
        <ele>399.07999999999998</ele>
        <time>2025-04-24T16:09:58Z</time>
      </trkpt>
      <trkpt lat="45.464018974453211" lon="3.265182031318545">
        <ele>397.63999999999999</ele>
        <time>2025-04-24T16:10:06Z</time>
      </trkpt>
      <trkpt lat="45.464087035506964" lon="3.26506401412189">
        <ele>397.16000000000003</ele>
        <time>2025-04-24T16:10:07Z</time>
      </trkpt>
      <trkpt lat="45.4642319586128" lon="3.264919007197022">
        <ele>396.68000000000001</ele>
        <time>2025-04-24T16:10:09Z</time>
      </trkpt>
      <trkpt lat="45.464307982474566" lon="3.264842983335257">
        <ele>396.68000000000001</ele>
        <time>2025-04-24T16:10:10Z</time>
      </trkpt>
      <trkpt lat="45.464394986629486" lon="3.264795038849115">
        <ele>396.68000000000001</ele>
        <time>2025-04-24T16:10:11Z</time>
      </trkpt>
      <trkpt lat="45.46448802575469" lon="3.264775006100535">
        <ele>396.68000000000001</ele>
        <time>2025-04-24T16:10:12Z</time>
      </trkpt>
      <trkpt lat="45.464582992717624" lon="3.264754973351955">
        <ele>396.19999999999999</ele>
        <time>2025-04-24T16:10:13Z</time>
      </trkpt>
      <trkpt lat="45.465051960200071" lon="3.264652965590358">
        <ele>396.68000000000001</ele>
        <time>2025-04-24T16:10:18Z</time>
      </trkpt>
      <trkpt lat="45.465123038738966" lon="3.264637039974332">
        <ele>397.16000000000003</ele>
        <time>2025-04-24T16:10:19Z</time>
      </trkpt>
      <trkpt lat="45.465717986226082" lon="3.264531008899212">
        <ele>399.07999999999998</ele>
        <time>2025-04-24T16:10:28Z</time>
      </trkpt>
      <trkpt lat="45.465781018137932" lon="3.264521034434438">
        <ele>399.56999999999999</ele>
        <time>2025-04-24T16:10:29Z</time>
      </trkpt>
      <trkpt lat="45.465904986485839" lon="3.264501001685858">
        <ele>399.56999999999999</ele>
        <time>2025-04-24T16:10:31Z</time>
      </trkpt>
      <trkpt lat="45.466374037787318" lon="3.264433024451137">
        <ele>399.56999999999999</ele>
        <time>2025-04-24T16:10:38Z</time>
      </trkpt>
      <trkpt lat="45.466435980051756" lon="3.264424977824092">
        <ele>399.56999999999999</ele>
        <time>2025-04-24T16:10:39Z</time>
      </trkpt>
      <trkpt lat="45.466646030545235" lon="3.264308972284198">
        <ele>399.07999999999998</ele>
        <time>2025-04-24T16:10:46Z</time>
      </trkpt>
      <trkpt lat="45.466690035536885" lon="3.263799017295241">
        <ele>396.68000000000001</ele>
        <time>2025-04-24T16:10:53Z</time>
      </trkpt>
      <trkpt lat="45.466697998344898" lon="3.263729028403759">
        <ele>396.68000000000001</ele>
        <time>2025-04-24T16:10:54Z</time>
      </trkpt>
      <trkpt lat="45.466705039143562" lon="3.263669013977051">
        <ele>396.68000000000001</ele>
        <time>2025-04-24T16:10:55Z</time>
      </trkpt>
      <trkpt lat="45.46670101583004" lon="3.263659039512277">
        <ele>396.68000000000001</ele>
        <time>2025-04-24T16:10:56Z</time>
      </trkpt>
      <trkpt lat="45.466678971424699" lon="3.263601958751679">
        <ele>396.68000000000001</ele>
        <time>2025-04-24T16:10:57Z</time>
      </trkpt>
      <trkpt lat="45.46665801666677" lon="3.263547979295254">
        <ele>396.68000000000001</ele>
        <time>2025-04-24T16:10:58Z</time>
      </trkpt>
      <trkpt lat="45.466636978089809" lon="3.263491988182068">
        <ele>396.68000000000001</ele>
        <time>2025-04-24T16:10:59Z</time>
      </trkpt>
      <trkpt lat="45.466604959219694" lon="3.263408001512289">
        <ele>397.16000000000003</ele>
        <time>2025-04-24T16:11:01Z</time>
      </trkpt>
    </trkseg>
  </trk>

</gpx>